<?xml version="1.0" encoding="UTF-8" standalone="no" ?>
<gpx xmlns="http://www.topografix.com/GPX/1/1" xmlns:xsi="http://www.w3.org/2001/XMLSchema-instance" xsi:schemaLocation="http://www.topografix.com/GPX/1/1 http://www.topografix.com/GPX/1/1/gpx.xsd" version="1.1" creator="VisuGPX - https://www.visugpx.com">
  <metadata>
    <name>Vosges - Pyrénées 04. Du rocher de l'Ochsenstall au Grand Geroldseck</name>
    <desc><![CDATA[Trace AlpineQuest 12/03/2026 07:28:51]]></desc>
  </metadata>
  <trk>
    <name><![CDATA[visugpx_7DLtDiOlhH_1]]></name>
    <extensions>
      <line xmlns="http://www.topografix.com/GPX/gpx_style/0/2">
        <color>0000FF</color>
        <opacity>1</opacity>
        <width>4</width>
      </line>
    </extensions>
    <trkseg>
      <trkpt lat="48.88945" lon="7.38816">
        <ele>240.2</ele>
        <time>2026-03-12T06:28:51Z</time>
      </trkpt>
      <trkpt lat="48.88942" lon="7.38801">
        <ele>240.4</ele>
        <time>2026-03-12T06:28:56Z</time>
      </trkpt>
      <trkpt lat="48.88941" lon="7.388">
        <ele>240.4</ele>
        <time>2026-03-12T06:29:01Z</time>
      </trkpt>
      <trkpt lat="48.88941" lon="7.388">
        <ele>240.4</ele>
        <time>2026-03-12T06:29:06Z</time>
      </trkpt>
      <trkpt lat="48.8894" lon="7.38798">
        <ele>240.4</ele>
        <time>2026-03-12T06:29:11Z</time>
      </trkpt>
      <trkpt lat="48.88934" lon="7.38792">
        <ele>240.3</ele>
        <time>2026-03-12T06:29:16Z</time>
      </trkpt>
      <trkpt lat="48.88933" lon="7.38787">
        <ele>240.3</ele>
        <time>2026-03-12T06:29:21Z</time>
      </trkpt>
      <trkpt lat="48.88933" lon="7.38787">
        <ele>240.3</ele>
        <time>2026-03-12T06:29:26Z</time>
      </trkpt>
      <trkpt lat="48.88923" lon="7.3879">
        <ele>240.1</ele>
        <time>2026-03-12T06:29:31Z</time>
      </trkpt>
      <trkpt lat="48.88921" lon="7.38791">
        <ele>240.1</ele>
        <time>2026-03-12T06:29:36Z</time>
      </trkpt>
      <trkpt lat="48.88914" lon="7.38798">
        <ele>240</ele>
        <time>2026-03-12T06:29:41Z</time>
      </trkpt>
      <trkpt lat="48.88913" lon="7.38797">
        <ele>240</ele>
        <time>2026-03-12T06:29:46Z</time>
      </trkpt>
      <trkpt lat="48.88913" lon="7.38797">
        <ele>240</ele>
        <time>2026-03-12T06:29:51Z</time>
      </trkpt>
      <trkpt lat="48.88905" lon="7.38789">
        <ele>239.9</ele>
        <time>2026-03-12T06:29:56Z</time>
      </trkpt>
      <trkpt lat="48.88904" lon="7.3879">
        <ele>239.9</ele>
        <time>2026-03-12T06:30:01Z</time>
      </trkpt>
      <trkpt lat="48.88899" lon="7.38792">
        <ele>239.9</ele>
        <time>2026-03-12T06:30:06Z</time>
      </trkpt>
      <trkpt lat="48.88896" lon="7.38793">
        <ele>239.9</ele>
        <time>2026-03-12T06:30:11Z</time>
      </trkpt>
      <trkpt lat="48.88894" lon="7.38792">
        <ele>239.9</ele>
        <time>2026-03-12T06:30:16Z</time>
      </trkpt>
      <trkpt lat="48.88893" lon="7.38792">
        <ele>239.9</ele>
        <time>2026-03-12T06:30:21Z</time>
      </trkpt>
      <trkpt lat="48.88885" lon="7.38792">
        <ele>239.8</ele>
        <time>2026-03-12T06:30:26Z</time>
      </trkpt>
      <trkpt lat="48.8888" lon="7.3879">
        <ele>239.8</ele>
        <time>2026-03-12T06:30:31Z</time>
      </trkpt>
      <trkpt lat="48.88874" lon="7.38791">
        <ele>239.7</ele>
        <time>2026-03-12T06:30:36Z</time>
      </trkpt>
      <trkpt lat="48.88868" lon="7.38791">
        <ele>239.7</ele>
        <time>2026-03-12T06:30:41Z</time>
      </trkpt>
      <trkpt lat="48.88863" lon="7.38793">
        <ele>239.7</ele>
        <time>2026-03-12T06:30:46Z</time>
      </trkpt>
      <trkpt lat="48.88859" lon="7.38795">
        <ele>239.6</ele>
        <time>2026-03-12T06:30:51Z</time>
      </trkpt>
      <trkpt lat="48.88854" lon="7.38798">
        <ele>239.6</ele>
        <time>2026-03-12T06:30:56Z</time>
      </trkpt>
      <trkpt lat="48.88854" lon="7.38798">
        <ele>239.6</ele>
        <time>2026-03-12T06:31:01Z</time>
      </trkpt>
      <trkpt lat="48.88854" lon="7.38798">
        <ele>239.6</ele>
        <time>2026-03-12T06:31:06Z</time>
      </trkpt>
      <trkpt lat="48.88854" lon="7.38798">
        <ele>239.6</ele>
        <time>2026-03-12T06:31:11Z</time>
      </trkpt>
      <trkpt lat="48.88842" lon="7.38798">
        <ele>239.5</ele>
        <time>2026-03-12T06:31:16Z</time>
      </trkpt>
      <trkpt lat="48.88842" lon="7.38798">
        <ele>239.5</ele>
        <time>2026-03-12T06:31:21Z</time>
      </trkpt>
      <trkpt lat="48.88842" lon="7.38798">
        <ele>239.5</ele>
        <time>2026-03-12T06:31:26Z</time>
      </trkpt>
      <trkpt lat="48.88842" lon="7.38798">
        <ele>239.5</ele>
        <time>2026-03-12T06:31:31Z</time>
      </trkpt>
      <trkpt lat="48.88836" lon="7.38798">
        <ele>239.4</ele>
        <time>2026-03-12T06:31:36Z</time>
      </trkpt>
      <trkpt lat="48.88832" lon="7.38795">
        <ele>239.4</ele>
        <time>2026-03-12T06:31:41Z</time>
      </trkpt>
      <trkpt lat="48.8883" lon="7.38795">
        <ele>239.3</ele>
        <time>2026-03-12T06:31:46Z</time>
      </trkpt>
      <trkpt lat="48.88824" lon="7.38793">
        <ele>239.1</ele>
        <time>2026-03-12T06:31:51Z</time>
      </trkpt>
      <trkpt lat="48.88818" lon="7.3879">
        <ele>239</ele>
        <time>2026-03-12T06:31:56Z</time>
      </trkpt>
      <trkpt lat="48.88812" lon="7.38787">
        <ele>238.8</ele>
        <time>2026-03-12T06:32:01Z</time>
      </trkpt>
      <trkpt lat="48.88807" lon="7.38784">
        <ele>238.6</ele>
        <time>2026-03-12T06:32:06Z</time>
      </trkpt>
      <trkpt lat="48.88804" lon="7.38779">
        <ele>238.6</ele>
        <time>2026-03-12T06:32:11Z</time>
      </trkpt>
      <trkpt lat="48.888" lon="7.38775">
        <ele>238.5</ele>
        <time>2026-03-12T06:32:16Z</time>
      </trkpt>
      <trkpt lat="48.88795" lon="7.3877">
        <ele>238.4</ele>
        <time>2026-03-12T06:32:21Z</time>
      </trkpt>
      <trkpt lat="48.88792" lon="7.38763">
        <ele>238.4</ele>
        <time>2026-03-12T06:32:26Z</time>
      </trkpt>
      <trkpt lat="48.88785" lon="7.38759">
        <ele>238.2</ele>
        <time>2026-03-12T06:32:31Z</time>
      </trkpt>
      <trkpt lat="48.8878" lon="7.38754">
        <ele>238</ele>
        <time>2026-03-12T06:32:36Z</time>
      </trkpt>
      <trkpt lat="48.88771" lon="7.38746">
        <ele>237.8</ele>
        <time>2026-03-12T06:32:41Z</time>
      </trkpt>
      <trkpt lat="48.88766" lon="7.38737">
        <ele>237.7</ele>
        <time>2026-03-12T06:32:46Z</time>
      </trkpt>
      <trkpt lat="48.88759" lon="7.38732">
        <ele>237.5</ele>
        <time>2026-03-12T06:32:51Z</time>
      </trkpt>
      <trkpt lat="48.88755" lon="7.38731">
        <ele>237.4</ele>
        <time>2026-03-12T06:32:56Z</time>
      </trkpt>
      <trkpt lat="48.88749" lon="7.3872">
        <ele>237.4</ele>
        <time>2026-03-12T06:33:01Z</time>
      </trkpt>
      <trkpt lat="48.88744" lon="7.38711">
        <ele>238</ele>
        <time>2026-03-12T06:33:06Z</time>
      </trkpt>
      <trkpt lat="48.88739" lon="7.38703">
        <ele>238.4</ele>
        <time>2026-03-12T06:33:11Z</time>
      </trkpt>
      <trkpt lat="48.88735" lon="7.38697">
        <ele>238.6</ele>
        <time>2026-03-12T06:33:16Z</time>
      </trkpt>
      <trkpt lat="48.88728" lon="7.38693">
        <ele>239.1</ele>
        <time>2026-03-12T06:33:21Z</time>
      </trkpt>
      <trkpt lat="48.88721" lon="7.38691">
        <ele>239.5</ele>
        <time>2026-03-12T06:33:26Z</time>
      </trkpt>
      <trkpt lat="48.88714" lon="7.38683">
        <ele>239.7</ele>
        <time>2026-03-12T06:33:31Z</time>
      </trkpt>
      <trkpt lat="48.88708" lon="7.38676">
        <ele>239.8</ele>
        <time>2026-03-12T06:33:36Z</time>
      </trkpt>
      <trkpt lat="48.88703" lon="7.38671">
        <ele>239.8</ele>
        <time>2026-03-12T06:33:41Z</time>
      </trkpt>
      <trkpt lat="48.88697" lon="7.38666">
        <ele>239.9</ele>
        <time>2026-03-12T06:33:46Z</time>
      </trkpt>
      <trkpt lat="48.88692" lon="7.3866">
        <ele>239.8</ele>
        <time>2026-03-12T06:33:51Z</time>
      </trkpt>
      <trkpt lat="48.88685" lon="7.38653">
        <ele>239.7</ele>
        <time>2026-03-12T06:33:56Z</time>
      </trkpt>
      <trkpt lat="48.88679" lon="7.38647">
        <ele>239.6</ele>
        <time>2026-03-12T06:34:01Z</time>
      </trkpt>
      <trkpt lat="48.88676" lon="7.38642">
        <ele>239.3</ele>
        <time>2026-03-12T06:34:06Z</time>
      </trkpt>
      <trkpt lat="48.88669" lon="7.38632">
        <ele>238.9</ele>
        <time>2026-03-12T06:34:11Z</time>
      </trkpt>
      <trkpt lat="48.88661" lon="7.38623">
        <ele>238</ele>
        <time>2026-03-12T06:34:16Z</time>
      </trkpt>
      <trkpt lat="48.88657" lon="7.3862">
        <ele>237.6</ele>
        <time>2026-03-12T06:34:21Z</time>
      </trkpt>
      <trkpt lat="48.88654" lon="7.3862">
        <ele>237.5</ele>
        <time>2026-03-12T06:34:26Z</time>
      </trkpt>
      <trkpt lat="48.88654" lon="7.3862">
        <ele>237.5</ele>
        <time>2026-03-12T06:34:31Z</time>
      </trkpt>
      <trkpt lat="48.88654" lon="7.3862">
        <ele>237.5</ele>
        <time>2026-03-12T06:34:36Z</time>
      </trkpt>
      <trkpt lat="48.88654" lon="7.3862">
        <ele>237.5</ele>
        <time>2026-03-12T06:34:41Z</time>
      </trkpt>
      <trkpt lat="48.88654" lon="7.3862">
        <ele>237.5</ele>
        <time>2026-03-12T06:34:46Z</time>
      </trkpt>
      <trkpt lat="48.88651" lon="7.38613">
        <ele>236.9</ele>
        <time>2026-03-12T06:34:51Z</time>
      </trkpt>
      <trkpt lat="48.88647" lon="7.3861">
        <ele>236.5</ele>
        <time>2026-03-12T06:34:56Z</time>
      </trkpt>
      <trkpt lat="48.88642" lon="7.38602">
        <ele>235.8</ele>
        <time>2026-03-12T06:35:01Z</time>
      </trkpt>
      <trkpt lat="48.88636" lon="7.38597">
        <ele>235.2</ele>
        <time>2026-03-12T06:35:06Z</time>
      </trkpt>
      <trkpt lat="48.8863" lon="7.38591">
        <ele>234.6</ele>
        <time>2026-03-12T06:35:11Z</time>
      </trkpt>
      <trkpt lat="48.88622" lon="7.38588">
        <ele>234.1</ele>
        <time>2026-03-12T06:35:16Z</time>
      </trkpt>
      <trkpt lat="48.88616" lon="7.38585">
        <ele>233.6</ele>
        <time>2026-03-12T06:35:21Z</time>
      </trkpt>
      <trkpt lat="48.8861" lon="7.38582">
        <ele>233.2</ele>
        <time>2026-03-12T06:35:26Z</time>
      </trkpt>
      <trkpt lat="48.88604" lon="7.38577">
        <ele>232.8</ele>
        <time>2026-03-12T06:35:31Z</time>
      </trkpt>
      <trkpt lat="48.88597" lon="7.38572">
        <ele>232.4</ele>
        <time>2026-03-12T06:35:36Z</time>
      </trkpt>
      <trkpt lat="48.8859" lon="7.3857">
        <ele>232</ele>
        <time>2026-03-12T06:35:41Z</time>
      </trkpt>
      <trkpt lat="48.88584" lon="7.38565">
        <ele>231.6</ele>
        <time>2026-03-12T06:35:46Z</time>
      </trkpt>
      <trkpt lat="48.88578" lon="7.38557">
        <ele>231.2</ele>
        <time>2026-03-12T06:35:51Z</time>
      </trkpt>
      <trkpt lat="48.88573" lon="7.38552">
        <ele>230.9</ele>
        <time>2026-03-12T06:35:56Z</time>
      </trkpt>
      <trkpt lat="48.88567" lon="7.38546">
        <ele>230.6</ele>
        <time>2026-03-12T06:36:01Z</time>
      </trkpt>
      <trkpt lat="48.88563" lon="7.38539">
        <ele>230.3</ele>
        <time>2026-03-12T06:36:06Z</time>
      </trkpt>
      <trkpt lat="48.88556" lon="7.38537">
        <ele>230.1</ele>
        <time>2026-03-12T06:36:11Z</time>
      </trkpt>
      <trkpt lat="48.88551" lon="7.38532">
        <ele>229.8</ele>
        <time>2026-03-12T06:36:16Z</time>
      </trkpt>
      <trkpt lat="48.88546" lon="7.38525">
        <ele>229.6</ele>
        <time>2026-03-12T06:36:21Z</time>
      </trkpt>
      <trkpt lat="48.88541" lon="7.38522">
        <ele>229.4</ele>
        <time>2026-03-12T06:36:26Z</time>
      </trkpt>
      <trkpt lat="48.88534" lon="7.38518">
        <ele>229.1</ele>
        <time>2026-03-12T06:36:31Z</time>
      </trkpt>
      <trkpt lat="48.88526" lon="7.38511">
        <ele>228.8</ele>
        <time>2026-03-12T06:36:36Z</time>
      </trkpt>
      <trkpt lat="48.8852" lon="7.38504">
        <ele>228.5</ele>
        <time>2026-03-12T06:36:41Z</time>
      </trkpt>
      <trkpt lat="48.88512" lon="7.38498">
        <ele>228.3</ele>
        <time>2026-03-12T06:36:46Z</time>
      </trkpt>
      <trkpt lat="48.88507" lon="7.38492">
        <ele>228.2</ele>
        <time>2026-03-12T06:36:51Z</time>
      </trkpt>
      <trkpt lat="48.88504" lon="7.38483">
        <ele>228.1</ele>
        <time>2026-03-12T06:36:56Z</time>
      </trkpt>
      <trkpt lat="48.88498" lon="7.38479">
        <ele>228.1</ele>
        <time>2026-03-12T06:37:01Z</time>
      </trkpt>
      <trkpt lat="48.88491" lon="7.38476">
        <ele>228.4</ele>
        <time>2026-03-12T06:37:06Z</time>
      </trkpt>
      <trkpt lat="48.88483" lon="7.38471">
        <ele>228.8</ele>
        <time>2026-03-12T06:37:11Z</time>
      </trkpt>
      <trkpt lat="48.88478" lon="7.38462">
        <ele>229</ele>
        <time>2026-03-12T06:37:16Z</time>
      </trkpt>
      <trkpt lat="48.88474" lon="7.38454">
        <ele>229.3</ele>
        <time>2026-03-12T06:37:21Z</time>
      </trkpt>
      <trkpt lat="48.8847" lon="7.38446">
        <ele>229.5</ele>
        <time>2026-03-12T06:37:26Z</time>
      </trkpt>
      <trkpt lat="48.88465" lon="7.38438">
        <ele>229.9</ele>
        <time>2026-03-12T06:37:31Z</time>
      </trkpt>
      <trkpt lat="48.88461" lon="7.38429">
        <ele>230.2</ele>
        <time>2026-03-12T06:37:36Z</time>
      </trkpt>
      <trkpt lat="48.88454" lon="7.38421">
        <ele>230.7</ele>
        <time>2026-03-12T06:37:41Z</time>
      </trkpt>
      <trkpt lat="48.88451" lon="7.38411">
        <ele>230.8</ele>
        <time>2026-03-12T06:37:46Z</time>
      </trkpt>
      <trkpt lat="48.88447" lon="7.38402">
        <ele>230.9</ele>
        <time>2026-03-12T06:37:51Z</time>
      </trkpt>
      <trkpt lat="48.88443" lon="7.38395">
        <ele>231</ele>
        <time>2026-03-12T06:37:56Z</time>
      </trkpt>
      <trkpt lat="48.88437" lon="7.38386">
        <ele>231.1</ele>
        <time>2026-03-12T06:38:01Z</time>
      </trkpt>
      <trkpt lat="48.88431" lon="7.38376">
        <ele>231.2</ele>
        <time>2026-03-12T06:38:06Z</time>
      </trkpt>
      <trkpt lat="48.88425" lon="7.38368">
        <ele>231.4</ele>
        <time>2026-03-12T06:38:11Z</time>
      </trkpt>
      <trkpt lat="48.88421" lon="7.38353">
        <ele>231.3</ele>
        <time>2026-03-12T06:38:16Z</time>
      </trkpt>
      <trkpt lat="48.88417" lon="7.38339">
        <ele>231.1</ele>
        <time>2026-03-12T06:38:21Z</time>
      </trkpt>
      <trkpt lat="48.8841" lon="7.38327">
        <ele>231.8</ele>
        <time>2026-03-12T06:38:26Z</time>
      </trkpt>
      <trkpt lat="48.88405" lon="7.38318">
        <ele>232.6</ele>
        <time>2026-03-12T06:38:31Z</time>
      </trkpt>
      <trkpt lat="48.88399" lon="7.38311">
        <ele>233.4</ele>
        <time>2026-03-12T06:38:36Z</time>
      </trkpt>
      <trkpt lat="48.88394" lon="7.38304">
        <ele>234.2</ele>
        <time>2026-03-12T06:38:41Z</time>
      </trkpt>
      <trkpt lat="48.8839" lon="7.38296">
        <ele>234.9</ele>
        <time>2026-03-12T06:38:46Z</time>
      </trkpt>
      <trkpt lat="48.88385" lon="7.38288">
        <ele>235.7</ele>
        <time>2026-03-12T06:38:51Z</time>
      </trkpt>
      <trkpt lat="48.8838" lon="7.38282">
        <ele>236.6</ele>
        <time>2026-03-12T06:38:56Z</time>
      </trkpt>
      <trkpt lat="48.88375" lon="7.38274">
        <ele>237.5</ele>
        <time>2026-03-12T06:39:01Z</time>
      </trkpt>
      <trkpt lat="48.88369" lon="7.38265">
        <ele>238.6</ele>
        <time>2026-03-12T06:39:06Z</time>
      </trkpt>
      <trkpt lat="48.88365" lon="7.38261">
        <ele>239.3</ele>
        <time>2026-03-12T06:39:11Z</time>
      </trkpt>
      <trkpt lat="48.8836" lon="7.38257">
        <ele>240.1</ele>
        <time>2026-03-12T06:39:16Z</time>
      </trkpt>
      <trkpt lat="48.88354" lon="7.38246">
        <ele>241.5</ele>
        <time>2026-03-12T06:39:21Z</time>
      </trkpt>
      <trkpt lat="48.88347" lon="7.38237">
        <ele>243</ele>
        <time>2026-03-12T06:39:26Z</time>
      </trkpt>
      <trkpt lat="48.88341" lon="7.38226">
        <ele>244.5</ele>
        <time>2026-03-12T06:39:31Z</time>
      </trkpt>
      <trkpt lat="48.88337" lon="7.3822">
        <ele>245.3</ele>
        <time>2026-03-12T06:39:36Z</time>
      </trkpt>
      <trkpt lat="48.88332" lon="7.38215">
        <ele>246.1</ele>
        <time>2026-03-12T06:39:41Z</time>
      </trkpt>
      <trkpt lat="48.88327" lon="7.38208">
        <ele>246.7</ele>
        <time>2026-03-12T06:39:46Z</time>
      </trkpt>
      <trkpt lat="48.88323" lon="7.38201">
        <ele>247.2</ele>
        <time>2026-03-12T06:39:51Z</time>
      </trkpt>
      <trkpt lat="48.88319" lon="7.38196">
        <ele>247.6</ele>
        <time>2026-03-12T06:39:56Z</time>
      </trkpt>
      <trkpt lat="48.88315" lon="7.38192">
        <ele>248</ele>
        <time>2026-03-12T06:40:01Z</time>
      </trkpt>
      <trkpt lat="48.8831" lon="7.38183">
        <ele>248.8</ele>
        <time>2026-03-12T06:40:06Z</time>
      </trkpt>
      <trkpt lat="48.88305" lon="7.38177">
        <ele>249.3</ele>
        <time>2026-03-12T06:40:11Z</time>
      </trkpt>
      <trkpt lat="48.88301" lon="7.38169">
        <ele>250</ele>
        <time>2026-03-12T06:40:16Z</time>
      </trkpt>
      <trkpt lat="48.88296" lon="7.38163">
        <ele>250.4</ele>
        <time>2026-03-12T06:40:21Z</time>
      </trkpt>
      <trkpt lat="48.88292" lon="7.38157">
        <ele>250.6</ele>
        <time>2026-03-12T06:40:26Z</time>
      </trkpt>
      <trkpt lat="48.88287" lon="7.38151">
        <ele>250.8</ele>
        <time>2026-03-12T06:40:31Z</time>
      </trkpt>
      <trkpt lat="48.88282" lon="7.38147">
        <ele>251</ele>
        <time>2026-03-12T06:40:36Z</time>
      </trkpt>
      <trkpt lat="48.8828" lon="7.3814">
        <ele>251.1</ele>
        <time>2026-03-12T06:40:41Z</time>
      </trkpt>
      <trkpt lat="48.88279" lon="7.38136">
        <ele>251.1</ele>
        <time>2026-03-12T06:40:46Z</time>
      </trkpt>
      <trkpt lat="48.88276" lon="7.38132">
        <ele>251.2</ele>
        <time>2026-03-12T06:40:51Z</time>
      </trkpt>
      <trkpt lat="48.88272" lon="7.38129">
        <ele>251.2</ele>
        <time>2026-03-12T06:40:56Z</time>
      </trkpt>
      <trkpt lat="48.88268" lon="7.38121">
        <ele>251.3</ele>
        <time>2026-03-12T06:41:01Z</time>
      </trkpt>
      <trkpt lat="48.88264" lon="7.38112">
        <ele>251.3</ele>
        <time>2026-03-12T06:41:06Z</time>
      </trkpt>
      <trkpt lat="48.88258" lon="7.38109">
        <ele>251.3</ele>
        <time>2026-03-12T06:41:11Z</time>
      </trkpt>
      <trkpt lat="48.88253" lon="7.38105">
        <ele>251.3</ele>
        <time>2026-03-12T06:41:16Z</time>
      </trkpt>
      <trkpt lat="48.88251" lon="7.38097">
        <ele>251.2</ele>
        <time>2026-03-12T06:41:21Z</time>
      </trkpt>
      <trkpt lat="48.88247" lon="7.38092">
        <ele>250.7</ele>
        <time>2026-03-12T06:41:26Z</time>
      </trkpt>
      <trkpt lat="48.88243" lon="7.38084">
        <ele>250.1</ele>
        <time>2026-03-12T06:41:31Z</time>
      </trkpt>
      <trkpt lat="48.88241" lon="7.38078">
        <ele>250.1</ele>
        <time>2026-03-12T06:41:36Z</time>
      </trkpt>
      <trkpt lat="48.88239" lon="7.38072">
        <ele>250.3</ele>
        <time>2026-03-12T06:41:41Z</time>
      </trkpt>
      <trkpt lat="48.88235" lon="7.38063">
        <ele>250.3</ele>
        <time>2026-03-12T06:41:46Z</time>
      </trkpt>
      <trkpt lat="48.88231" lon="7.38053">
        <ele>250.5</ele>
        <time>2026-03-12T06:41:51Z</time>
      </trkpt>
      <trkpt lat="48.88229" lon="7.38046">
        <ele>250.7</ele>
        <time>2026-03-12T06:41:56Z</time>
      </trkpt>
      <trkpt lat="48.88225" lon="7.38042">
        <ele>250.5</ele>
        <time>2026-03-12T06:42:01Z</time>
      </trkpt>
      <trkpt lat="48.88221" lon="7.38037">
        <ele>250.3</ele>
        <time>2026-03-12T06:42:06Z</time>
      </trkpt>
      <trkpt lat="48.88219" lon="7.38031">
        <ele>250.5</ele>
        <time>2026-03-12T06:42:11Z</time>
      </trkpt>
      <trkpt lat="48.88216" lon="7.38025">
        <ele>250.6</ele>
        <time>2026-03-12T06:42:16Z</time>
      </trkpt>
      <trkpt lat="48.88212" lon="7.38021">
        <ele>250.4</ele>
        <time>2026-03-12T06:42:21Z</time>
      </trkpt>
      <trkpt lat="48.88208" lon="7.38016">
        <ele>250.3</ele>
        <time>2026-03-12T06:42:26Z</time>
      </trkpt>
      <trkpt lat="48.88205" lon="7.38008">
        <ele>250.6</ele>
        <time>2026-03-12T06:42:31Z</time>
      </trkpt>
      <trkpt lat="48.88203" lon="7.38">
        <ele>250.9</ele>
        <time>2026-03-12T06:42:36Z</time>
      </trkpt>
      <trkpt lat="48.882" lon="7.37994">
        <ele>251.1</ele>
        <time>2026-03-12T06:42:41Z</time>
      </trkpt>
      <trkpt lat="48.88195" lon="7.37988">
        <ele>251.1</ele>
        <time>2026-03-12T06:42:46Z</time>
      </trkpt>
      <trkpt lat="48.88193" lon="7.3798">
        <ele>251.5</ele>
        <time>2026-03-12T06:42:51Z</time>
      </trkpt>
      <trkpt lat="48.8819" lon="7.37975">
        <ele>251.6</ele>
        <time>2026-03-12T06:42:56Z</time>
      </trkpt>
      <trkpt lat="48.88185" lon="7.37971">
        <ele>251.4</ele>
        <time>2026-03-12T06:43:01Z</time>
      </trkpt>
      <trkpt lat="48.88181" lon="7.37965">
        <ele>251.5</ele>
        <time>2026-03-12T06:43:06Z</time>
      </trkpt>
      <trkpt lat="48.88176" lon="7.37959">
        <ele>251.5</ele>
        <time>2026-03-12T06:43:11Z</time>
      </trkpt>
      <trkpt lat="48.88171" lon="7.37955">
        <ele>251.2</ele>
        <time>2026-03-12T06:43:16Z</time>
      </trkpt>
      <trkpt lat="48.88171" lon="7.37951">
        <ele>251.6</ele>
        <time>2026-03-12T06:43:21Z</time>
      </trkpt>
      <trkpt lat="48.88167" lon="7.37941">
        <ele>252</ele>
        <time>2026-03-12T06:43:26Z</time>
      </trkpt>
      <trkpt lat="48.88162" lon="7.37935">
        <ele>251.5</ele>
        <time>2026-03-12T06:43:31Z</time>
      </trkpt>
      <trkpt lat="48.88155" lon="7.37922">
        <ele>251.1</ele>
        <time>2026-03-12T06:43:36Z</time>
      </trkpt>
      <trkpt lat="48.88146" lon="7.37906">
        <ele>250.3</ele>
        <time>2026-03-12T06:43:41Z</time>
      </trkpt>
      <trkpt lat="48.88143" lon="7.37895">
        <ele>250.4</ele>
        <time>2026-03-12T06:43:46Z</time>
      </trkpt>
      <trkpt lat="48.88137" lon="7.37885">
        <ele>249.7</ele>
        <time>2026-03-12T06:43:51Z</time>
      </trkpt>
      <trkpt lat="48.88132" lon="7.3788">
        <ele>249</ele>
        <time>2026-03-12T06:43:56Z</time>
      </trkpt>
      <trkpt lat="48.88132" lon="7.37875">
        <ele>249.3</ele>
        <time>2026-03-12T06:44:01Z</time>
      </trkpt>
      <trkpt lat="48.88127" lon="7.37865">
        <ele>248.9</ele>
        <time>2026-03-12T06:44:06Z</time>
      </trkpt>
      <trkpt lat="48.8812" lon="7.3786">
        <ele>247.6</ele>
        <time>2026-03-12T06:44:11Z</time>
      </trkpt>
      <trkpt lat="48.88118" lon="7.37857">
        <ele>247.4</ele>
        <time>2026-03-12T06:44:16Z</time>
      </trkpt>
      <trkpt lat="48.88117" lon="7.37852">
        <ele>247.5</ele>
        <time>2026-03-12T06:44:21Z</time>
      </trkpt>
      <trkpt lat="48.88114" lon="7.37849">
        <ele>247</ele>
        <time>2026-03-12T06:44:26Z</time>
      </trkpt>
      <trkpt lat="48.8811" lon="7.37847">
        <ele>246.2</ele>
        <time>2026-03-12T06:44:31Z</time>
      </trkpt>
      <trkpt lat="48.88103" lon="7.3784">
        <ele>245.1</ele>
        <time>2026-03-12T06:44:36Z</time>
      </trkpt>
      <trkpt lat="48.88097" lon="7.37834">
        <ele>244.1</ele>
        <time>2026-03-12T06:44:41Z</time>
      </trkpt>
      <trkpt lat="48.88092" lon="7.37828">
        <ele>243.9</ele>
        <time>2026-03-12T06:44:46Z</time>
      </trkpt>
      <trkpt lat="48.88088" lon="7.37822">
        <ele>244.1</ele>
        <time>2026-03-12T06:44:51Z</time>
      </trkpt>
      <trkpt lat="48.88083" lon="7.37817">
        <ele>243.9</ele>
        <time>2026-03-12T06:44:56Z</time>
      </trkpt>
      <trkpt lat="48.88079" lon="7.37812">
        <ele>244.3</ele>
        <time>2026-03-12T06:45:01Z</time>
      </trkpt>
      <trkpt lat="48.88076" lon="7.37806">
        <ele>245</ele>
        <time>2026-03-12T06:45:06Z</time>
      </trkpt>
      <trkpt lat="48.88073" lon="7.378">
        <ele>245.7</ele>
        <time>2026-03-12T06:45:11Z</time>
      </trkpt>
      <trkpt lat="48.88069" lon="7.37793">
        <ele>246.4</ele>
        <time>2026-03-12T06:45:16Z</time>
      </trkpt>
      <trkpt lat="48.88063" lon="7.3779">
        <ele>246.1</ele>
        <time>2026-03-12T06:45:21Z</time>
      </trkpt>
      <trkpt lat="48.88057" lon="7.37786">
        <ele>246</ele>
        <time>2026-03-12T06:45:26Z</time>
      </trkpt>
      <trkpt lat="48.88052" lon="7.37779">
        <ele>246.4</ele>
        <time>2026-03-12T06:45:31Z</time>
      </trkpt>
      <trkpt lat="48.88046" lon="7.37772">
        <ele>246.7</ele>
        <time>2026-03-12T06:45:36Z</time>
      </trkpt>
      <trkpt lat="48.88041" lon="7.3777">
        <ele>246.3</ele>
        <time>2026-03-12T06:45:41Z</time>
      </trkpt>
      <trkpt lat="48.88036" lon="7.37762">
        <ele>246.8</ele>
        <time>2026-03-12T06:45:46Z</time>
      </trkpt>
      <trkpt lat="48.8803" lon="7.37752">
        <ele>247.4</ele>
        <time>2026-03-12T06:45:51Z</time>
      </trkpt>
      <trkpt lat="48.88024" lon="7.37744">
        <ele>247.8</ele>
        <time>2026-03-12T06:45:56Z</time>
      </trkpt>
      <trkpt lat="48.8802" lon="7.37737">
        <ele>248.4</ele>
        <time>2026-03-12T06:46:01Z</time>
      </trkpt>
      <trkpt lat="48.88013" lon="7.37733">
        <ele>247.9</ele>
        <time>2026-03-12T06:46:06Z</time>
      </trkpt>
      <trkpt lat="48.88005" lon="7.3773">
        <ele>247.2</ele>
        <time>2026-03-12T06:46:11Z</time>
      </trkpt>
      <trkpt lat="48.87997" lon="7.37727">
        <ele>246.5</ele>
        <time>2026-03-12T06:46:16Z</time>
      </trkpt>
      <trkpt lat="48.87991" lon="7.37722">
        <ele>246.7</ele>
        <time>2026-03-12T06:46:21Z</time>
      </trkpt>
      <trkpt lat="48.87984" lon="7.37717">
        <ele>246.8</ele>
        <time>2026-03-12T06:46:26Z</time>
      </trkpt>
      <trkpt lat="48.87978" lon="7.37715">
        <ele>246.4</ele>
        <time>2026-03-12T06:46:31Z</time>
      </trkpt>
      <trkpt lat="48.87971" lon="7.3771">
        <ele>246.4</ele>
        <time>2026-03-12T06:46:36Z</time>
      </trkpt>
      <trkpt lat="48.87967" lon="7.37707">
        <ele>246.4</ele>
        <time>2026-03-12T06:46:41Z</time>
      </trkpt>
      <trkpt lat="48.8796" lon="7.37701">
        <ele>246.5</ele>
        <time>2026-03-12T06:46:46Z</time>
      </trkpt>
      <trkpt lat="48.87955" lon="7.37698">
        <ele>246.4</ele>
        <time>2026-03-12T06:46:51Z</time>
      </trkpt>
      <trkpt lat="48.87949" lon="7.37695">
        <ele>246.1</ele>
        <time>2026-03-12T06:46:56Z</time>
      </trkpt>
      <trkpt lat="48.87945" lon="7.37692">
        <ele>246.1</ele>
        <time>2026-03-12T06:47:01Z</time>
      </trkpt>
      <trkpt lat="48.87939" lon="7.37689">
        <ele>245.8</ele>
        <time>2026-03-12T06:47:06Z</time>
      </trkpt>
      <trkpt lat="48.87932" lon="7.37683">
        <ele>245.8</ele>
        <time>2026-03-12T06:47:11Z</time>
      </trkpt>
      <trkpt lat="48.87926" lon="7.37674">
        <ele>246.2</ele>
        <time>2026-03-12T06:47:16Z</time>
      </trkpt>
      <trkpt lat="48.87921" lon="7.37669">
        <ele>246.3</ele>
        <time>2026-03-12T06:47:21Z</time>
      </trkpt>
      <trkpt lat="48.87914" lon="7.37666">
        <ele>246</ele>
        <time>2026-03-12T06:47:26Z</time>
      </trkpt>
      <trkpt lat="48.87907" lon="7.37659">
        <ele>246.6</ele>
        <time>2026-03-12T06:47:31Z</time>
      </trkpt>
      <trkpt lat="48.87901" lon="7.37653">
        <ele>247</ele>
        <time>2026-03-12T06:47:36Z</time>
      </trkpt>
      <trkpt lat="48.87896" lon="7.37648">
        <ele>247.4</ele>
        <time>2026-03-12T06:47:41Z</time>
      </trkpt>
      <trkpt lat="48.87889" lon="7.3764">
        <ele>247.8</ele>
        <time>2026-03-12T06:47:46Z</time>
      </trkpt>
      <trkpt lat="48.87883" lon="7.37634">
        <ele>248</ele>
        <time>2026-03-12T06:47:51Z</time>
      </trkpt>
      <trkpt lat="48.87876" lon="7.37632">
        <ele>247.8</ele>
        <time>2026-03-12T06:47:56Z</time>
      </trkpt>
      <trkpt lat="48.8787" lon="7.37622">
        <ele>248.1</ele>
        <time>2026-03-12T06:48:01Z</time>
      </trkpt>
      <trkpt lat="48.87863" lon="7.37618">
        <ele>247.9</ele>
        <time>2026-03-12T06:48:06Z</time>
      </trkpt>
      <trkpt lat="48.87857" lon="7.37614">
        <ele>247.7</ele>
        <time>2026-03-12T06:48:11Z</time>
      </trkpt>
      <trkpt lat="48.87849" lon="7.37609">
        <ele>247.4</ele>
        <time>2026-03-12T06:48:16Z</time>
      </trkpt>
      <trkpt lat="48.87843" lon="7.37604">
        <ele>247.1</ele>
        <time>2026-03-12T06:48:21Z</time>
      </trkpt>
      <trkpt lat="48.87836" lon="7.37596">
        <ele>246.8</ele>
        <time>2026-03-12T06:48:26Z</time>
      </trkpt>
      <trkpt lat="48.8783" lon="7.37594">
        <ele>246.5</ele>
        <time>2026-03-12T06:48:31Z</time>
      </trkpt>
      <trkpt lat="48.87826" lon="7.37593">
        <ele>246.4</ele>
        <time>2026-03-12T06:48:36Z</time>
      </trkpt>
      <trkpt lat="48.87819" lon="7.37587">
        <ele>246.2</ele>
        <time>2026-03-12T06:48:41Z</time>
      </trkpt>
      <trkpt lat="48.87812" lon="7.37582">
        <ele>246</ele>
        <time>2026-03-12T06:48:46Z</time>
      </trkpt>
      <trkpt lat="48.87805" lon="7.37581">
        <ele>245.7</ele>
        <time>2026-03-12T06:48:51Z</time>
      </trkpt>
      <trkpt lat="48.87803" lon="7.3758">
        <ele>245.7</ele>
        <time>2026-03-12T06:48:56Z</time>
      </trkpt>
      <trkpt lat="48.87799" lon="7.37579">
        <ele>245.5</ele>
        <time>2026-03-12T06:49:01Z</time>
      </trkpt>
      <trkpt lat="48.87797" lon="7.37578">
        <ele>245.4</ele>
        <time>2026-03-12T06:49:06Z</time>
      </trkpt>
      <trkpt lat="48.87797" lon="7.37578">
        <ele>245.4</ele>
        <time>2026-03-12T06:49:11Z</time>
      </trkpt>
      <trkpt lat="48.87797" lon="7.37578">
        <ele>245.4</ele>
        <time>2026-03-12T06:49:16Z</time>
      </trkpt>
      <trkpt lat="48.87797" lon="7.37578">
        <ele>245.4</ele>
        <time>2026-03-12T06:49:21Z</time>
      </trkpt>
      <trkpt lat="48.87797" lon="7.37578">
        <ele>245.4</ele>
        <time>2026-03-12T06:49:26Z</time>
      </trkpt>
      <trkpt lat="48.87797" lon="7.37578">
        <ele>245.4</ele>
        <time>2026-03-12T06:49:31Z</time>
      </trkpt>
      <trkpt lat="48.87797" lon="7.37578">
        <ele>245.4</ele>
        <time>2026-03-12T06:49:36Z</time>
      </trkpt>
      <trkpt lat="48.87797" lon="7.37578">
        <ele>245.4</ele>
        <time>2026-03-12T06:49:41Z</time>
      </trkpt>
      <trkpt lat="48.87794" lon="7.37575">
        <ele>245.4</ele>
        <time>2026-03-12T06:49:46Z</time>
      </trkpt>
      <trkpt lat="48.87788" lon="7.37575">
        <ele>245.1</ele>
        <time>2026-03-12T06:49:51Z</time>
      </trkpt>
      <trkpt lat="48.87784" lon="7.37573">
        <ele>245</ele>
        <time>2026-03-12T06:49:56Z</time>
      </trkpt>
      <trkpt lat="48.87782" lon="7.37569">
        <ele>245.1</ele>
        <time>2026-03-12T06:50:01Z</time>
      </trkpt>
      <trkpt lat="48.87778" lon="7.37566">
        <ele>245</ele>
        <time>2026-03-12T06:50:06Z</time>
      </trkpt>
      <trkpt lat="48.87775" lon="7.37563">
        <ele>245</ele>
        <time>2026-03-12T06:50:11Z</time>
      </trkpt>
      <trkpt lat="48.8777" lon="7.37561">
        <ele>244.9</ele>
        <time>2026-03-12T06:50:16Z</time>
      </trkpt>
      <trkpt lat="48.87765" lon="7.37557">
        <ele>244.9</ele>
        <time>2026-03-12T06:50:21Z</time>
      </trkpt>
      <trkpt lat="48.87764" lon="7.37555">
        <ele>244.9</ele>
        <time>2026-03-12T06:50:26Z</time>
      </trkpt>
      <trkpt lat="48.87762" lon="7.37554">
        <ele>244.9</ele>
        <time>2026-03-12T06:50:31Z</time>
      </trkpt>
      <trkpt lat="48.87761" lon="7.37554">
        <ele>244.8</ele>
        <time>2026-03-12T06:50:36Z</time>
      </trkpt>
      <trkpt lat="48.87761" lon="7.37554">
        <ele>244.8</ele>
        <time>2026-03-12T06:50:41Z</time>
      </trkpt>
      <trkpt lat="48.87761" lon="7.37554">
        <ele>244.8</ele>
        <time>2026-03-12T06:50:46Z</time>
      </trkpt>
      <trkpt lat="48.87761" lon="7.37554">
        <ele>244.8</ele>
        <time>2026-03-12T06:50:51Z</time>
      </trkpt>
      <trkpt lat="48.87761" lon="7.37554">
        <ele>244.8</ele>
        <time>2026-03-12T06:50:56Z</time>
      </trkpt>
      <trkpt lat="48.87761" lon="7.37554">
        <ele>244.8</ele>
        <time>2026-03-12T06:51:01Z</time>
      </trkpt>
      <trkpt lat="48.87761" lon="7.37554">
        <ele>244.8</ele>
        <time>2026-03-12T06:51:06Z</time>
      </trkpt>
      <trkpt lat="48.87761" lon="7.37554">
        <ele>244.8</ele>
        <time>2026-03-12T06:51:11Z</time>
      </trkpt>
      <trkpt lat="48.87761" lon="7.37554">
        <ele>244.8</ele>
        <time>2026-03-12T06:51:16Z</time>
      </trkpt>
      <trkpt lat="48.87761" lon="7.37554">
        <ele>244.8</ele>
        <time>2026-03-12T06:51:21Z</time>
      </trkpt>
      <trkpt lat="48.87761" lon="7.37554">
        <ele>244.8</ele>
        <time>2026-03-12T06:51:26Z</time>
      </trkpt>
      <trkpt lat="48.87761" lon="7.37554">
        <ele>244.8</ele>
        <time>2026-03-12T06:51:31Z</time>
      </trkpt>
      <trkpt lat="48.87755" lon="7.37549">
        <ele>244.8</ele>
        <time>2026-03-12T06:51:36Z</time>
      </trkpt>
      <trkpt lat="48.87752" lon="7.37542">
        <ele>245.1</ele>
        <time>2026-03-12T06:51:41Z</time>
      </trkpt>
      <trkpt lat="48.87749" lon="7.37535">
        <ele>245.4</ele>
        <time>2026-03-12T06:51:46Z</time>
      </trkpt>
      <trkpt lat="48.87745" lon="7.37526">
        <ele>245.9</ele>
        <time>2026-03-12T06:51:51Z</time>
      </trkpt>
      <trkpt lat="48.87743" lon="7.37517">
        <ele>246.4</ele>
        <time>2026-03-12T06:51:56Z</time>
      </trkpt>
      <trkpt lat="48.8774" lon="7.37509">
        <ele>246.9</ele>
        <time>2026-03-12T06:52:01Z</time>
      </trkpt>
      <trkpt lat="48.87737" lon="7.37499">
        <ele>247.3</ele>
        <time>2026-03-12T06:52:06Z</time>
      </trkpt>
      <trkpt lat="48.87735" lon="7.3749">
        <ele>247.3</ele>
        <time>2026-03-12T06:52:11Z</time>
      </trkpt>
      <trkpt lat="48.87732" lon="7.37484">
        <ele>247.4</ele>
        <time>2026-03-12T06:52:16Z</time>
      </trkpt>
      <trkpt lat="48.87731" lon="7.37477">
        <ele>247.4</ele>
        <time>2026-03-12T06:52:21Z</time>
      </trkpt>
      <trkpt lat="48.8773" lon="7.37469">
        <ele>247.4</ele>
        <time>2026-03-12T06:52:26Z</time>
      </trkpt>
      <trkpt lat="48.87728" lon="7.3746">
        <ele>247.4</ele>
        <time>2026-03-12T06:52:31Z</time>
      </trkpt>
      <trkpt lat="48.87725" lon="7.37451">
        <ele>247.4</ele>
        <time>2026-03-12T06:52:36Z</time>
      </trkpt>
      <trkpt lat="48.87724" lon="7.37441">
        <ele>247.4</ele>
        <time>2026-03-12T06:52:41Z</time>
      </trkpt>
      <trkpt lat="48.8772" lon="7.37431">
        <ele>247.4</ele>
        <time>2026-03-12T06:52:46Z</time>
      </trkpt>
      <trkpt lat="48.87716" lon="7.37422">
        <ele>247.4</ele>
        <time>2026-03-12T06:52:51Z</time>
      </trkpt>
      <trkpt lat="48.87713" lon="7.37412">
        <ele>247.3</ele>
        <time>2026-03-12T06:52:56Z</time>
      </trkpt>
      <trkpt lat="48.87711" lon="7.37403">
        <ele>247</ele>
        <time>2026-03-12T06:53:01Z</time>
      </trkpt>
      <trkpt lat="48.8771" lon="7.37394">
        <ele>246.8</ele>
        <time>2026-03-12T06:53:06Z</time>
      </trkpt>
      <trkpt lat="48.87709" lon="7.37384">
        <ele>246.5</ele>
        <time>2026-03-12T06:53:11Z</time>
      </trkpt>
      <trkpt lat="48.87707" lon="7.37374">
        <ele>246.3</ele>
        <time>2026-03-12T06:53:16Z</time>
      </trkpt>
      <trkpt lat="48.87705" lon="7.37362">
        <ele>246</ele>
        <time>2026-03-12T06:53:21Z</time>
      </trkpt>
      <trkpt lat="48.87704" lon="7.37351">
        <ele>245.7</ele>
        <time>2026-03-12T06:53:26Z</time>
      </trkpt>
      <trkpt lat="48.87702" lon="7.37343">
        <ele>245.6</ele>
        <time>2026-03-12T06:53:31Z</time>
      </trkpt>
      <trkpt lat="48.877" lon="7.37333">
        <ele>245.4</ele>
        <time>2026-03-12T06:53:36Z</time>
      </trkpt>
      <trkpt lat="48.87699" lon="7.37324">
        <ele>245.1</ele>
        <time>2026-03-12T06:53:41Z</time>
      </trkpt>
      <trkpt lat="48.87697" lon="7.37314">
        <ele>244.8</ele>
        <time>2026-03-12T06:53:46Z</time>
      </trkpt>
      <trkpt lat="48.87696" lon="7.37305">
        <ele>244.5</ele>
        <time>2026-03-12T06:53:51Z</time>
      </trkpt>
      <trkpt lat="48.87694" lon="7.37295">
        <ele>244.1</ele>
        <time>2026-03-12T06:53:56Z</time>
      </trkpt>
      <trkpt lat="48.87692" lon="7.37285">
        <ele>243.8</ele>
        <time>2026-03-12T06:54:01Z</time>
      </trkpt>
      <trkpt lat="48.87689" lon="7.37276">
        <ele>243.5</ele>
        <time>2026-03-12T06:54:06Z</time>
      </trkpt>
      <trkpt lat="48.87688" lon="7.37265">
        <ele>243.1</ele>
        <time>2026-03-12T06:54:11Z</time>
      </trkpt>
      <trkpt lat="48.87687" lon="7.37256">
        <ele>242.8</ele>
        <time>2026-03-12T06:54:16Z</time>
      </trkpt>
      <trkpt lat="48.87686" lon="7.37247">
        <ele>242.5</ele>
        <time>2026-03-12T06:54:21Z</time>
      </trkpt>
      <trkpt lat="48.87685" lon="7.37238">
        <ele>242.4</ele>
        <time>2026-03-12T06:54:26Z</time>
      </trkpt>
      <trkpt lat="48.87684" lon="7.37228">
        <ele>242.3</ele>
        <time>2026-03-12T06:54:31Z</time>
      </trkpt>
      <trkpt lat="48.87683" lon="7.37218">
        <ele>242.1</ele>
        <time>2026-03-12T06:54:36Z</time>
      </trkpt>
      <trkpt lat="48.87681" lon="7.37208">
        <ele>242</ele>
        <time>2026-03-12T06:54:41Z</time>
      </trkpt>
      <trkpt lat="48.87682" lon="7.37198">
        <ele>241.8</ele>
        <time>2026-03-12T06:54:46Z</time>
      </trkpt>
      <trkpt lat="48.87682" lon="7.37189">
        <ele>241.7</ele>
        <time>2026-03-12T06:54:51Z</time>
      </trkpt>
      <trkpt lat="48.87682" lon="7.37179">
        <ele>241.6</ele>
        <time>2026-03-12T06:54:56Z</time>
      </trkpt>
      <trkpt lat="48.87682" lon="7.37168">
        <ele>241.4</ele>
        <time>2026-03-12T06:55:01Z</time>
      </trkpt>
      <trkpt lat="48.87681" lon="7.37159">
        <ele>241.3</ele>
        <time>2026-03-12T06:55:06Z</time>
      </trkpt>
      <trkpt lat="48.87681" lon="7.37149">
        <ele>241.2</ele>
        <time>2026-03-12T06:55:11Z</time>
      </trkpt>
      <trkpt lat="48.87681" lon="7.37139">
        <ele>241.1</ele>
        <time>2026-03-12T06:55:16Z</time>
      </trkpt>
      <trkpt lat="48.8768" lon="7.3713">
        <ele>241</ele>
        <time>2026-03-12T06:55:21Z</time>
      </trkpt>
      <trkpt lat="48.87679" lon="7.37121">
        <ele>240.8</ele>
        <time>2026-03-12T06:55:26Z</time>
      </trkpt>
      <trkpt lat="48.8768" lon="7.37111">
        <ele>240.8</ele>
        <time>2026-03-12T06:55:31Z</time>
      </trkpt>
      <trkpt lat="48.8768" lon="7.37101">
        <ele>240.7</ele>
        <time>2026-03-12T06:55:36Z</time>
      </trkpt>
      <trkpt lat="48.87678" lon="7.37092">
        <ele>240.5</ele>
        <time>2026-03-12T06:55:41Z</time>
      </trkpt>
      <trkpt lat="48.87677" lon="7.37082">
        <ele>240.3</ele>
        <time>2026-03-12T06:55:46Z</time>
      </trkpt>
      <trkpt lat="48.87677" lon="7.37074">
        <ele>239.9</ele>
        <time>2026-03-12T06:55:51Z</time>
      </trkpt>
      <trkpt lat="48.87676" lon="7.37069">
        <ele>239.5</ele>
        <time>2026-03-12T06:55:56Z</time>
      </trkpt>
      <trkpt lat="48.87673" lon="7.37059">
        <ele>238.8</ele>
        <time>2026-03-12T06:56:01Z</time>
      </trkpt>
      <trkpt lat="48.87672" lon="7.37049">
        <ele>238.2</ele>
        <time>2026-03-12T06:56:06Z</time>
      </trkpt>
      <trkpt lat="48.87672" lon="7.37039">
        <ele>237.6</ele>
        <time>2026-03-12T06:56:11Z</time>
      </trkpt>
      <trkpt lat="48.87672" lon="7.37031">
        <ele>237.2</ele>
        <time>2026-03-12T06:56:16Z</time>
      </trkpt>
      <trkpt lat="48.8767" lon="7.37022">
        <ele>236.5</ele>
        <time>2026-03-12T06:56:21Z</time>
      </trkpt>
      <trkpt lat="48.8767" lon="7.37017">
        <ele>236.2</ele>
        <time>2026-03-12T06:56:26Z</time>
      </trkpt>
      <trkpt lat="48.87671" lon="7.37008">
        <ele>235.8</ele>
        <time>2026-03-12T06:56:31Z</time>
      </trkpt>
      <trkpt lat="48.8767" lon="7.36999">
        <ele>235.2</ele>
        <time>2026-03-12T06:56:36Z</time>
      </trkpt>
      <trkpt lat="48.8767" lon="7.36989">
        <ele>234.6</ele>
        <time>2026-03-12T06:56:41Z</time>
      </trkpt>
      <trkpt lat="48.87671" lon="7.36979">
        <ele>234.1</ele>
        <time>2026-03-12T06:56:46Z</time>
      </trkpt>
      <trkpt lat="48.87671" lon="7.36969">
        <ele>233.5</ele>
        <time>2026-03-12T06:56:51Z</time>
      </trkpt>
      <trkpt lat="48.87669" lon="7.3696">
        <ele>232.8</ele>
        <time>2026-03-12T06:56:56Z</time>
      </trkpt>
      <trkpt lat="48.87668" lon="7.36951">
        <ele>232.2</ele>
        <time>2026-03-12T06:57:01Z</time>
      </trkpt>
      <trkpt lat="48.87666" lon="7.36942">
        <ele>231.5</ele>
        <time>2026-03-12T06:57:06Z</time>
      </trkpt>
      <trkpt lat="48.87663" lon="7.36932">
        <ele>230.7</ele>
        <time>2026-03-12T06:57:11Z</time>
      </trkpt>
      <trkpt lat="48.87661" lon="7.36924">
        <ele>230.1</ele>
        <time>2026-03-12T06:57:16Z</time>
      </trkpt>
      <trkpt lat="48.87659" lon="7.36915">
        <ele>229.6</ele>
        <time>2026-03-12T06:57:21Z</time>
      </trkpt>
      <trkpt lat="48.87655" lon="7.36906">
        <ele>229.4</ele>
        <time>2026-03-12T06:57:26Z</time>
      </trkpt>
      <trkpt lat="48.87651" lon="7.36896">
        <ele>229.3</ele>
        <time>2026-03-12T06:57:31Z</time>
      </trkpt>
      <trkpt lat="48.87649" lon="7.36888">
        <ele>229.2</ele>
        <time>2026-03-12T06:57:36Z</time>
      </trkpt>
      <trkpt lat="48.87646" lon="7.3688">
        <ele>229.1</ele>
        <time>2026-03-12T06:57:41Z</time>
      </trkpt>
      <trkpt lat="48.87641" lon="7.36873">
        <ele>228.8</ele>
        <time>2026-03-12T06:57:46Z</time>
      </trkpt>
      <trkpt lat="48.87636" lon="7.36867">
        <ele>228.5</ele>
        <time>2026-03-12T06:57:51Z</time>
      </trkpt>
      <trkpt lat="48.8763" lon="7.36863">
        <ele>228.2</ele>
        <time>2026-03-12T06:57:56Z</time>
      </trkpt>
      <trkpt lat="48.87626" lon="7.36854">
        <ele>227.9</ele>
        <time>2026-03-12T06:58:01Z</time>
      </trkpt>
      <trkpt lat="48.87622" lon="7.36847">
        <ele>227.7</ele>
        <time>2026-03-12T06:58:06Z</time>
      </trkpt>
      <trkpt lat="48.87618" lon="7.36839">
        <ele>227.5</ele>
        <time>2026-03-12T06:58:11Z</time>
      </trkpt>
      <trkpt lat="48.87613" lon="7.36832">
        <ele>227.2</ele>
        <time>2026-03-12T06:58:16Z</time>
      </trkpt>
      <trkpt lat="48.87609" lon="7.36825">
        <ele>227.1</ele>
        <time>2026-03-12T06:58:21Z</time>
      </trkpt>
      <trkpt lat="48.87605" lon="7.36817">
        <ele>227</ele>
        <time>2026-03-12T06:58:26Z</time>
      </trkpt>
      <trkpt lat="48.87601" lon="7.36809">
        <ele>227</ele>
        <time>2026-03-12T06:58:31Z</time>
      </trkpt>
      <trkpt lat="48.87598" lon="7.368">
        <ele>227.1</ele>
        <time>2026-03-12T06:58:36Z</time>
      </trkpt>
      <trkpt lat="48.87596" lon="7.3679">
        <ele>227.3</ele>
        <time>2026-03-12T06:58:41Z</time>
      </trkpt>
      <trkpt lat="48.87596" lon="7.36781">
        <ele>227.6</ele>
        <time>2026-03-12T06:58:46Z</time>
      </trkpt>
      <trkpt lat="48.87594" lon="7.36771">
        <ele>227.8</ele>
        <time>2026-03-12T06:58:51Z</time>
      </trkpt>
      <trkpt lat="48.87593" lon="7.36761">
        <ele>228.1</ele>
        <time>2026-03-12T06:58:56Z</time>
      </trkpt>
      <trkpt lat="48.87593" lon="7.36752">
        <ele>228.4</ele>
        <time>2026-03-12T06:59:01Z</time>
      </trkpt>
      <trkpt lat="48.87592" lon="7.36742">
        <ele>228.4</ele>
        <time>2026-03-12T06:59:06Z</time>
      </trkpt>
      <trkpt lat="48.8759" lon="7.36731">
        <ele>228.3</ele>
        <time>2026-03-12T06:59:11Z</time>
      </trkpt>
      <trkpt lat="48.87589" lon="7.36721">
        <ele>228.2</ele>
        <time>2026-03-12T06:59:16Z</time>
      </trkpt>
      <trkpt lat="48.87588" lon="7.36712">
        <ele>228.2</ele>
        <time>2026-03-12T06:59:21Z</time>
      </trkpt>
      <trkpt lat="48.87587" lon="7.36701">
        <ele>228.2</ele>
        <time>2026-03-12T06:59:26Z</time>
      </trkpt>
      <trkpt lat="48.87587" lon="7.36691">
        <ele>228.1</ele>
        <time>2026-03-12T06:59:31Z</time>
      </trkpt>
      <trkpt lat="48.87586" lon="7.36681">
        <ele>228.1</ele>
        <time>2026-03-12T06:59:36Z</time>
      </trkpt>
      <trkpt lat="48.87586" lon="7.3667">
        <ele>228.1</ele>
        <time>2026-03-12T06:59:41Z</time>
      </trkpt>
      <trkpt lat="48.87586" lon="7.3666">
        <ele>228.3</ele>
        <time>2026-03-12T06:59:46Z</time>
      </trkpt>
      <trkpt lat="48.87586" lon="7.36651">
        <ele>228.6</ele>
        <time>2026-03-12T06:59:51Z</time>
      </trkpt>
      <trkpt lat="48.87586" lon="7.3664">
        <ele>229</ele>
        <time>2026-03-12T06:59:56Z</time>
      </trkpt>
      <trkpt lat="48.87587" lon="7.36629">
        <ele>229.4</ele>
        <time>2026-03-12T07:00:01Z</time>
      </trkpt>
      <trkpt lat="48.87587" lon="7.36618">
        <ele>229.8</ele>
        <time>2026-03-12T07:00:06Z</time>
      </trkpt>
      <trkpt lat="48.87586" lon="7.36609">
        <ele>230.1</ele>
        <time>2026-03-12T07:00:11Z</time>
      </trkpt>
      <trkpt lat="48.87584" lon="7.36599">
        <ele>230.4</ele>
        <time>2026-03-12T07:00:16Z</time>
      </trkpt>
      <trkpt lat="48.87584" lon="7.36588">
        <ele>230.8</ele>
        <time>2026-03-12T07:00:21Z</time>
      </trkpt>
      <trkpt lat="48.87584" lon="7.36578">
        <ele>230.8</ele>
        <time>2026-03-12T07:00:26Z</time>
      </trkpt>
      <trkpt lat="48.87584" lon="7.36568">
        <ele>230.5</ele>
        <time>2026-03-12T07:00:31Z</time>
      </trkpt>
      <trkpt lat="48.87583" lon="7.36558">
        <ele>230.1</ele>
        <time>2026-03-12T07:00:36Z</time>
      </trkpt>
      <trkpt lat="48.87582" lon="7.36546">
        <ele>229.8</ele>
        <time>2026-03-12T07:00:41Z</time>
      </trkpt>
      <trkpt lat="48.87581" lon="7.36536">
        <ele>229.5</ele>
        <time>2026-03-12T07:00:46Z</time>
      </trkpt>
      <trkpt lat="48.8758" lon="7.36527">
        <ele>229.3</ele>
        <time>2026-03-12T07:00:51Z</time>
      </trkpt>
      <trkpt lat="48.8758" lon="7.36518">
        <ele>228.9</ele>
        <time>2026-03-12T07:00:56Z</time>
      </trkpt>
      <trkpt lat="48.8758" lon="7.36515">
        <ele>228.8</ele>
        <time>2026-03-12T07:01:01Z</time>
      </trkpt>
      <trkpt lat="48.87581" lon="7.36514">
        <ele>228.7</ele>
        <time>2026-03-12T07:01:06Z</time>
      </trkpt>
      <trkpt lat="48.87581" lon="7.36514">
        <ele>228.7</ele>
        <time>2026-03-12T07:01:11Z</time>
      </trkpt>
      <trkpt lat="48.8758" lon="7.36511">
        <ele>228.7</ele>
        <time>2026-03-12T07:01:16Z</time>
      </trkpt>
      <trkpt lat="48.87579" lon="7.36506">
        <ele>228.6</ele>
        <time>2026-03-12T07:01:21Z</time>
      </trkpt>
      <trkpt lat="48.87578" lon="7.36506">
        <ele>228.7</ele>
        <time>2026-03-12T07:01:26Z</time>
      </trkpt>
      <trkpt lat="48.87576" lon="7.36506">
        <ele>228.8</ele>
        <time>2026-03-12T07:01:31Z</time>
      </trkpt>
      <trkpt lat="48.87572" lon="7.36499">
        <ele>228.9</ele>
        <time>2026-03-12T07:01:36Z</time>
      </trkpt>
      <trkpt lat="48.8757" lon="7.36491">
        <ele>228.7</ele>
        <time>2026-03-12T07:01:41Z</time>
      </trkpt>
      <trkpt lat="48.87568" lon="7.3648">
        <ele>228.4</ele>
        <time>2026-03-12T07:01:46Z</time>
      </trkpt>
      <trkpt lat="48.87565" lon="7.3647">
        <ele>228.2</ele>
        <time>2026-03-12T07:01:51Z</time>
      </trkpt>
      <trkpt lat="48.87563" lon="7.3646">
        <ele>227.9</ele>
        <time>2026-03-12T07:01:56Z</time>
      </trkpt>
      <trkpt lat="48.8756" lon="7.36451">
        <ele>227.8</ele>
        <time>2026-03-12T07:02:01Z</time>
      </trkpt>
      <trkpt lat="48.87559" lon="7.36441">
        <ele>227.4</ele>
        <time>2026-03-12T07:02:06Z</time>
      </trkpt>
      <trkpt lat="48.87558" lon="7.3643">
        <ele>227</ele>
        <time>2026-03-12T07:02:11Z</time>
      </trkpt>
      <trkpt lat="48.87557" lon="7.3642">
        <ele>226.7</ele>
        <time>2026-03-12T07:02:16Z</time>
      </trkpt>
      <trkpt lat="48.87556" lon="7.36409">
        <ele>226.6</ele>
        <time>2026-03-12T07:02:21Z</time>
      </trkpt>
      <trkpt lat="48.87555" lon="7.364">
        <ele>226.6</ele>
        <time>2026-03-12T07:02:26Z</time>
      </trkpt>
      <trkpt lat="48.87555" lon="7.36391">
        <ele>226.5</ele>
        <time>2026-03-12T07:02:31Z</time>
      </trkpt>
      <trkpt lat="48.87554" lon="7.3638">
        <ele>226.5</ele>
        <time>2026-03-12T07:02:36Z</time>
      </trkpt>
      <trkpt lat="48.87554" lon="7.36369">
        <ele>226.4</ele>
        <time>2026-03-12T07:02:41Z</time>
      </trkpt>
      <trkpt lat="48.87554" lon="7.36359">
        <ele>226.3</ele>
        <time>2026-03-12T07:02:46Z</time>
      </trkpt>
      <trkpt lat="48.87555" lon="7.36347">
        <ele>226.2</ele>
        <time>2026-03-12T07:02:51Z</time>
      </trkpt>
      <trkpt lat="48.87554" lon="7.36336">
        <ele>226.1</ele>
        <time>2026-03-12T07:02:56Z</time>
      </trkpt>
      <trkpt lat="48.87553" lon="7.36327">
        <ele>226.1</ele>
        <time>2026-03-12T07:03:01Z</time>
      </trkpt>
      <trkpt lat="48.87554" lon="7.36317">
        <ele>225.9</ele>
        <time>2026-03-12T07:03:06Z</time>
      </trkpt>
      <trkpt lat="48.87554" lon="7.36306">
        <ele>225.8</ele>
        <time>2026-03-12T07:03:11Z</time>
      </trkpt>
      <trkpt lat="48.87552" lon="7.36294">
        <ele>225.7</ele>
        <time>2026-03-12T07:03:16Z</time>
      </trkpt>
      <trkpt lat="48.87553" lon="7.36284">
        <ele>225.5</ele>
        <time>2026-03-12T07:03:21Z</time>
      </trkpt>
      <trkpt lat="48.87554" lon="7.36274">
        <ele>225.4</ele>
        <time>2026-03-12T07:03:26Z</time>
      </trkpt>
      <trkpt lat="48.87555" lon="7.36263">
        <ele>225.2</ele>
        <time>2026-03-12T07:03:31Z</time>
      </trkpt>
      <trkpt lat="48.87557" lon="7.36253">
        <ele>225</ele>
        <time>2026-03-12T07:03:36Z</time>
      </trkpt>
      <trkpt lat="48.87557" lon="7.36242">
        <ele>225.1</ele>
        <time>2026-03-12T07:03:41Z</time>
      </trkpt>
      <trkpt lat="48.8756" lon="7.36232">
        <ele>225.2</ele>
        <time>2026-03-12T07:03:46Z</time>
      </trkpt>
      <trkpt lat="48.87559" lon="7.36223">
        <ele>225.4</ele>
        <time>2026-03-12T07:03:51Z</time>
      </trkpt>
      <trkpt lat="48.87561" lon="7.3621">
        <ele>225.5</ele>
        <time>2026-03-12T07:03:56Z</time>
      </trkpt>
      <trkpt lat="48.87563" lon="7.36199">
        <ele>225.6</ele>
        <time>2026-03-12T07:04:01Z</time>
      </trkpt>
      <trkpt lat="48.87563" lon="7.36187">
        <ele>225.9</ele>
        <time>2026-03-12T07:04:06Z</time>
      </trkpt>
      <trkpt lat="48.87562" lon="7.36174">
        <ele>226.1</ele>
        <time>2026-03-12T07:04:11Z</time>
      </trkpt>
      <trkpt lat="48.87563" lon="7.36164">
        <ele>226.3</ele>
        <time>2026-03-12T07:04:16Z</time>
      </trkpt>
      <trkpt lat="48.87562" lon="7.36154">
        <ele>226.7</ele>
        <time>2026-03-12T07:04:21Z</time>
      </trkpt>
      <trkpt lat="48.87563" lon="7.36146">
        <ele>226.8</ele>
        <time>2026-03-12T07:04:26Z</time>
      </trkpt>
      <trkpt lat="48.87563" lon="7.36134">
        <ele>227.2</ele>
        <time>2026-03-12T07:04:31Z</time>
      </trkpt>
      <trkpt lat="48.87563" lon="7.36124">
        <ele>227.5</ele>
        <time>2026-03-12T07:04:36Z</time>
      </trkpt>
      <trkpt lat="48.87563" lon="7.36113">
        <ele>227.8</ele>
        <time>2026-03-12T07:04:41Z</time>
      </trkpt>
      <trkpt lat="48.87563" lon="7.36103">
        <ele>228.1</ele>
        <time>2026-03-12T07:04:46Z</time>
      </trkpt>
      <trkpt lat="48.87565" lon="7.36092">
        <ele>228.4</ele>
        <time>2026-03-12T07:04:51Z</time>
      </trkpt>
      <trkpt lat="48.87565" lon="7.36082">
        <ele>228.7</ele>
        <time>2026-03-12T07:04:56Z</time>
      </trkpt>
      <trkpt lat="48.87567" lon="7.36072">
        <ele>228.6</ele>
        <time>2026-03-12T07:05:01Z</time>
      </trkpt>
      <trkpt lat="48.87567" lon="7.36061">
        <ele>228.6</ele>
        <time>2026-03-12T07:05:06Z</time>
      </trkpt>
      <trkpt lat="48.87569" lon="7.36053">
        <ele>228.6</ele>
        <time>2026-03-12T07:05:11Z</time>
      </trkpt>
      <trkpt lat="48.8757" lon="7.36042">
        <ele>228.6</ele>
        <time>2026-03-12T07:05:16Z</time>
      </trkpt>
      <trkpt lat="48.87571" lon="7.36031">
        <ele>228.5</ele>
        <time>2026-03-12T07:05:21Z</time>
      </trkpt>
      <trkpt lat="48.87572" lon="7.36021">
        <ele>228.5</ele>
        <time>2026-03-12T07:05:26Z</time>
      </trkpt>
      <trkpt lat="48.8757" lon="7.3601">
        <ele>228.6</ele>
        <time>2026-03-12T07:05:31Z</time>
      </trkpt>
      <trkpt lat="48.87567" lon="7.36001">
        <ele>228.8</ele>
        <time>2026-03-12T07:05:36Z</time>
      </trkpt>
      <trkpt lat="48.87566" lon="7.35989">
        <ele>229.1</ele>
        <time>2026-03-12T07:05:41Z</time>
      </trkpt>
      <trkpt lat="48.87565" lon="7.35979">
        <ele>229.4</ele>
        <time>2026-03-12T07:05:46Z</time>
      </trkpt>
      <trkpt lat="48.87561" lon="7.35967">
        <ele>229.9</ele>
        <time>2026-03-12T07:05:51Z</time>
      </trkpt>
      <trkpt lat="48.87556" lon="7.35958">
        <ele>230.3</ele>
        <time>2026-03-12T07:05:56Z</time>
      </trkpt>
      <trkpt lat="48.87548" lon="7.35951">
        <ele>230.9</ele>
        <time>2026-03-12T07:06:01Z</time>
      </trkpt>
      <trkpt lat="48.8754" lon="7.35952">
        <ele>231.2</ele>
        <time>2026-03-12T07:06:06Z</time>
      </trkpt>
      <trkpt lat="48.87534" lon="7.35958">
        <ele>231.4</ele>
        <time>2026-03-12T07:06:11Z</time>
      </trkpt>
      <trkpt lat="48.87528" lon="7.35965">
        <ele>231.5</ele>
        <time>2026-03-12T07:06:16Z</time>
      </trkpt>
      <trkpt lat="48.87523" lon="7.35973">
        <ele>231.5</ele>
        <time>2026-03-12T07:06:21Z</time>
      </trkpt>
      <trkpt lat="48.87516" lon="7.35982">
        <ele>231.7</ele>
        <time>2026-03-12T07:06:26Z</time>
      </trkpt>
      <trkpt lat="48.8751" lon="7.35988">
        <ele>231.8</ele>
        <time>2026-03-12T07:06:31Z</time>
      </trkpt>
      <trkpt lat="48.87505" lon="7.35993">
        <ele>231.9</ele>
        <time>2026-03-12T07:06:36Z</time>
      </trkpt>
      <trkpt lat="48.875" lon="7.36">
        <ele>232</ele>
        <time>2026-03-12T07:06:41Z</time>
      </trkpt>
      <trkpt lat="48.87496" lon="7.36006">
        <ele>232.3</ele>
        <time>2026-03-12T07:06:46Z</time>
      </trkpt>
      <trkpt lat="48.8749" lon="7.36014">
        <ele>232.7</ele>
        <time>2026-03-12T07:06:51Z</time>
      </trkpt>
      <trkpt lat="48.87484" lon="7.3602">
        <ele>233.2</ele>
        <time>2026-03-12T07:06:56Z</time>
      </trkpt>
      <trkpt lat="48.87478" lon="7.36026">
        <ele>233.6</ele>
        <time>2026-03-12T07:07:01Z</time>
      </trkpt>
      <trkpt lat="48.87472" lon="7.36031">
        <ele>233.9</ele>
        <time>2026-03-12T07:07:06Z</time>
      </trkpt>
      <trkpt lat="48.87466" lon="7.36034">
        <ele>234.4</ele>
        <time>2026-03-12T07:07:11Z</time>
      </trkpt>
      <trkpt lat="48.87459" lon="7.3604">
        <ele>234.7</ele>
        <time>2026-03-12T07:07:16Z</time>
      </trkpt>
      <trkpt lat="48.87453" lon="7.36043">
        <ele>235.1</ele>
        <time>2026-03-12T07:07:21Z</time>
      </trkpt>
      <trkpt lat="48.87446" lon="7.36047">
        <ele>235.5</ele>
        <time>2026-03-12T07:07:26Z</time>
      </trkpt>
      <trkpt lat="48.8744" lon="7.36052">
        <ele>235.8</ele>
        <time>2026-03-12T07:07:31Z</time>
      </trkpt>
      <trkpt lat="48.87434" lon="7.36058">
        <ele>236</ele>
        <time>2026-03-12T07:07:36Z</time>
      </trkpt>
      <trkpt lat="48.87427" lon="7.36066">
        <ele>236.1</ele>
        <time>2026-03-12T07:07:41Z</time>
      </trkpt>
      <trkpt lat="48.8742" lon="7.36072">
        <ele>236.3</ele>
        <time>2026-03-12T07:07:46Z</time>
      </trkpt>
      <trkpt lat="48.87417" lon="7.36081">
        <ele>236.1</ele>
        <time>2026-03-12T07:07:51Z</time>
      </trkpt>
      <trkpt lat="48.87412" lon="7.36091">
        <ele>237</ele>
        <time>2026-03-12T07:07:56Z</time>
      </trkpt>
      <trkpt lat="48.87408" lon="7.361">
        <ele>237.9</ele>
        <time>2026-03-12T07:08:01Z</time>
      </trkpt>
      <trkpt lat="48.87404" lon="7.36107">
        <ele>238.7</ele>
        <time>2026-03-12T07:08:06Z</time>
      </trkpt>
      <trkpt lat="48.874" lon="7.36114">
        <ele>239.6</ele>
        <time>2026-03-12T07:08:11Z</time>
      </trkpt>
      <trkpt lat="48.87395" lon="7.36124">
        <ele>240.7</ele>
        <time>2026-03-12T07:08:16Z</time>
      </trkpt>
      <trkpt lat="48.8739" lon="7.36133">
        <ele>241.8</ele>
        <time>2026-03-12T07:08:21Z</time>
      </trkpt>
      <trkpt lat="48.87385" lon="7.36141">
        <ele>242.8</ele>
        <time>2026-03-12T07:08:26Z</time>
      </trkpt>
      <trkpt lat="48.8738" lon="7.36149">
        <ele>243.9</ele>
        <time>2026-03-12T07:08:31Z</time>
      </trkpt>
      <trkpt lat="48.87375" lon="7.36156">
        <ele>245</ele>
        <time>2026-03-12T07:08:36Z</time>
      </trkpt>
      <trkpt lat="48.87371" lon="7.36163">
        <ele>245.9</ele>
        <time>2026-03-12T07:08:41Z</time>
      </trkpt>
      <trkpt lat="48.87366" lon="7.36171">
        <ele>247</ele>
        <time>2026-03-12T07:08:46Z</time>
      </trkpt>
      <trkpt lat="48.87361" lon="7.36179">
        <ele>248.1</ele>
        <time>2026-03-12T07:08:51Z</time>
      </trkpt>
      <trkpt lat="48.87357" lon="7.36187">
        <ele>249</ele>
        <time>2026-03-12T07:08:56Z</time>
      </trkpt>
      <trkpt lat="48.87353" lon="7.36196">
        <ele>249.9</ele>
        <time>2026-03-12T07:09:01Z</time>
      </trkpt>
      <trkpt lat="48.87349" lon="7.36202">
        <ele>250.8</ele>
        <time>2026-03-12T07:09:06Z</time>
      </trkpt>
      <trkpt lat="48.87345" lon="7.36211">
        <ele>251.6</ele>
        <time>2026-03-12T07:09:11Z</time>
      </trkpt>
      <trkpt lat="48.8734" lon="7.3622">
        <ele>252.7</ele>
        <time>2026-03-12T07:09:16Z</time>
      </trkpt>
      <trkpt lat="48.87336" lon="7.36229">
        <ele>253.5</ele>
        <time>2026-03-12T07:09:21Z</time>
      </trkpt>
      <trkpt lat="48.87331" lon="7.36236">
        <ele>254.4</ele>
        <time>2026-03-12T07:09:26Z</time>
      </trkpt>
      <trkpt lat="48.87329" lon="7.3624">
        <ele>254.8</ele>
        <time>2026-03-12T07:09:31Z</time>
      </trkpt>
      <trkpt lat="48.87324" lon="7.36251">
        <ele>255.8</ele>
        <time>2026-03-12T07:09:36Z</time>
      </trkpt>
      <trkpt lat="48.87319" lon="7.36259">
        <ele>256.6</ele>
        <time>2026-03-12T07:09:41Z</time>
      </trkpt>
      <trkpt lat="48.87315" lon="7.36267">
        <ele>257.2</ele>
        <time>2026-03-12T07:09:46Z</time>
      </trkpt>
      <trkpt lat="48.8731" lon="7.36274">
        <ele>258</ele>
        <time>2026-03-12T07:09:51Z</time>
      </trkpt>
      <trkpt lat="48.87306" lon="7.36282">
        <ele>258.6</ele>
        <time>2026-03-12T07:09:56Z</time>
      </trkpt>
      <trkpt lat="48.87301" lon="7.36289">
        <ele>259.4</ele>
        <time>2026-03-12T07:10:01Z</time>
      </trkpt>
      <trkpt lat="48.87297" lon="7.36296">
        <ele>259.9</ele>
        <time>2026-03-12T07:10:06Z</time>
      </trkpt>
      <trkpt lat="48.87293" lon="7.36304">
        <ele>260.5</ele>
        <time>2026-03-12T07:10:11Z</time>
      </trkpt>
      <trkpt lat="48.87289" lon="7.36313">
        <ele>261</ele>
        <time>2026-03-12T07:10:16Z</time>
      </trkpt>
      <trkpt lat="48.87285" lon="7.36318">
        <ele>261.5</ele>
        <time>2026-03-12T07:10:21Z</time>
      </trkpt>
      <trkpt lat="48.87281" lon="7.36328">
        <ele>261.9</ele>
        <time>2026-03-12T07:10:26Z</time>
      </trkpt>
      <trkpt lat="48.87276" lon="7.36337">
        <ele>262.4</ele>
        <time>2026-03-12T07:10:31Z</time>
      </trkpt>
      <trkpt lat="48.87274" lon="7.36347">
        <ele>262.2</ele>
        <time>2026-03-12T07:10:36Z</time>
      </trkpt>
      <trkpt lat="48.87272" lon="7.3635">
        <ele>262.4</ele>
        <time>2026-03-12T07:10:41Z</time>
      </trkpt>
      <trkpt lat="48.87271" lon="7.36353">
        <ele>262.4</ele>
        <time>2026-03-12T07:10:46Z</time>
      </trkpt>
      <trkpt lat="48.87271" lon="7.36351">
        <ele>262.5</ele>
        <time>2026-03-12T07:10:51Z</time>
      </trkpt>
      <trkpt lat="48.87275" lon="7.36344">
        <ele>262.2</ele>
        <time>2026-03-12T07:10:56Z</time>
      </trkpt>
      <trkpt lat="48.87281" lon="7.36335">
        <ele>261.7</ele>
        <time>2026-03-12T07:11:01Z</time>
      </trkpt>
      <trkpt lat="48.87286" lon="7.36327">
        <ele>261.1</ele>
        <time>2026-03-12T07:11:06Z</time>
      </trkpt>
      <trkpt lat="48.87292" lon="7.36318">
        <ele>260.3</ele>
        <time>2026-03-12T07:11:11Z</time>
      </trkpt>
      <trkpt lat="48.87296" lon="7.3631">
        <ele>259.8</ele>
        <time>2026-03-12T07:11:16Z</time>
      </trkpt>
      <trkpt lat="48.87299" lon="7.36302">
        <ele>259.5</ele>
        <time>2026-03-12T07:11:21Z</time>
      </trkpt>
      <trkpt lat="48.87302" lon="7.36294">
        <ele>259.1</ele>
        <time>2026-03-12T07:11:26Z</time>
      </trkpt>
      <trkpt lat="48.87304" lon="7.36285">
        <ele>258.9</ele>
        <time>2026-03-12T07:11:31Z</time>
      </trkpt>
      <trkpt lat="48.87309" lon="7.36275">
        <ele>258.2</ele>
        <time>2026-03-12T07:11:36Z</time>
      </trkpt>
      <trkpt lat="48.87314" lon="7.36267">
        <ele>257.4</ele>
        <time>2026-03-12T07:11:41Z</time>
      </trkpt>
      <trkpt lat="48.87318" lon="7.36258">
        <ele>256.8</ele>
        <time>2026-03-12T07:11:46Z</time>
      </trkpt>
      <trkpt lat="48.87322" lon="7.3625">
        <ele>256.2</ele>
        <time>2026-03-12T07:11:51Z</time>
      </trkpt>
      <trkpt lat="48.87327" lon="7.36241">
        <ele>255.2</ele>
        <time>2026-03-12T07:11:56Z</time>
      </trkpt>
      <trkpt lat="48.87331" lon="7.36233">
        <ele>254.4</ele>
        <time>2026-03-12T07:12:01Z</time>
      </trkpt>
      <trkpt lat="48.87335" lon="7.36224">
        <ele>253.7</ele>
        <time>2026-03-12T07:12:06Z</time>
      </trkpt>
      <trkpt lat="48.87341" lon="7.36216">
        <ele>252.5</ele>
        <time>2026-03-12T07:12:11Z</time>
      </trkpt>
      <trkpt lat="48.87347" lon="7.36207">
        <ele>251.2</ele>
        <time>2026-03-12T07:12:16Z</time>
      </trkpt>
      <trkpt lat="48.8735" lon="7.36198">
        <ele>250.6</ele>
        <time>2026-03-12T07:12:21Z</time>
      </trkpt>
      <trkpt lat="48.87354" lon="7.36189">
        <ele>249.7</ele>
        <time>2026-03-12T07:12:26Z</time>
      </trkpt>
      <trkpt lat="48.87358" lon="7.36181">
        <ele>248.8</ele>
        <time>2026-03-12T07:12:31Z</time>
      </trkpt>
      <trkpt lat="48.87362" lon="7.36173">
        <ele>247.9</ele>
        <time>2026-03-12T07:12:36Z</time>
      </trkpt>
      <trkpt lat="48.87367" lon="7.36164">
        <ele>246.7</ele>
        <time>2026-03-12T07:12:41Z</time>
      </trkpt>
      <trkpt lat="48.87372" lon="7.36156">
        <ele>245.6</ele>
        <time>2026-03-12T07:12:46Z</time>
      </trkpt>
      <trkpt lat="48.87376" lon="7.36148">
        <ele>244.8</ele>
        <time>2026-03-12T07:12:51Z</time>
      </trkpt>
      <trkpt lat="48.87381" lon="7.3614">
        <ele>243.7</ele>
        <time>2026-03-12T07:12:56Z</time>
      </trkpt>
      <trkpt lat="48.87387" lon="7.36133">
        <ele>242.4</ele>
        <time>2026-03-12T07:13:01Z</time>
      </trkpt>
      <trkpt lat="48.87391" lon="7.36124">
        <ele>241.5</ele>
        <time>2026-03-12T07:13:06Z</time>
      </trkpt>
      <trkpt lat="48.87396" lon="7.36115">
        <ele>240.5</ele>
        <time>2026-03-12T07:13:11Z</time>
      </trkpt>
      <trkpt lat="48.87401" lon="7.36107">
        <ele>239.4</ele>
        <time>2026-03-12T07:13:16Z</time>
      </trkpt>
      <trkpt lat="48.87405" lon="7.36101">
        <ele>238.5</ele>
        <time>2026-03-12T07:13:21Z</time>
      </trkpt>
      <trkpt lat="48.8741" lon="7.36092">
        <ele>237.4</ele>
        <time>2026-03-12T07:13:26Z</time>
      </trkpt>
      <trkpt lat="48.87414" lon="7.36086">
        <ele>236.6</ele>
        <time>2026-03-12T07:13:31Z</time>
      </trkpt>
      <trkpt lat="48.87419" lon="7.36076">
        <ele>236.2</ele>
        <time>2026-03-12T07:13:36Z</time>
      </trkpt>
      <trkpt lat="48.87424" lon="7.36066">
        <ele>236.3</ele>
        <time>2026-03-12T07:13:41Z</time>
      </trkpt>
      <trkpt lat="48.87429" lon="7.36059">
        <ele>236.3</ele>
        <time>2026-03-12T07:13:46Z</time>
      </trkpt>
      <trkpt lat="48.87435" lon="7.36052">
        <ele>236.2</ele>
        <time>2026-03-12T07:13:51Z</time>
      </trkpt>
      <trkpt lat="48.87442" lon="7.36046">
        <ele>235.9</ele>
        <time>2026-03-12T07:13:56Z</time>
      </trkpt>
      <trkpt lat="48.87449" lon="7.36043">
        <ele>235.4</ele>
        <time>2026-03-12T07:14:01Z</time>
      </trkpt>
      <trkpt lat="48.87455" lon="7.3604">
        <ele>235.1</ele>
        <time>2026-03-12T07:14:06Z</time>
      </trkpt>
      <trkpt lat="48.8746" lon="7.36036">
        <ele>234.8</ele>
        <time>2026-03-12T07:14:11Z</time>
      </trkpt>
      <trkpt lat="48.87467" lon="7.36033">
        <ele>234.3</ele>
        <time>2026-03-12T07:14:16Z</time>
      </trkpt>
      <trkpt lat="48.87473" lon="7.36027">
        <ele>234</ele>
        <time>2026-03-12T07:14:21Z</time>
      </trkpt>
      <trkpt lat="48.8748" lon="7.36022">
        <ele>233.5</ele>
        <time>2026-03-12T07:14:26Z</time>
      </trkpt>
      <trkpt lat="48.87486" lon="7.36014">
        <ele>233.1</ele>
        <time>2026-03-12T07:14:31Z</time>
      </trkpt>
      <trkpt lat="48.87493" lon="7.36008">
        <ele>232.6</ele>
        <time>2026-03-12T07:14:36Z</time>
      </trkpt>
      <trkpt lat="48.87498" lon="7.36002">
        <ele>232.2</ele>
        <time>2026-03-12T07:14:41Z</time>
      </trkpt>
      <trkpt lat="48.87503" lon="7.35996">
        <ele>232</ele>
        <time>2026-03-12T07:14:46Z</time>
      </trkpt>
      <trkpt lat="48.87508" lon="7.35989">
        <ele>231.9</ele>
        <time>2026-03-12T07:14:51Z</time>
      </trkpt>
      <trkpt lat="48.87509" lon="7.3598">
        <ele>232</ele>
        <time>2026-03-12T07:14:56Z</time>
      </trkpt>
      <trkpt lat="48.8751" lon="7.35971">
        <ele>232.2</ele>
        <time>2026-03-12T07:15:01Z</time>
      </trkpt>
      <trkpt lat="48.87509" lon="7.35961">
        <ele>232.5</ele>
        <time>2026-03-12T07:15:06Z</time>
      </trkpt>
      <trkpt lat="48.87512" lon="7.35952">
        <ele>232.6</ele>
        <time>2026-03-12T07:15:11Z</time>
      </trkpt>
      <trkpt lat="48.87513" lon="7.35942">
        <ele>232.8</ele>
        <time>2026-03-12T07:15:16Z</time>
      </trkpt>
      <trkpt lat="48.87514" lon="7.35935">
        <ele>232.9</ele>
        <time>2026-03-12T07:15:21Z</time>
      </trkpt>
      <trkpt lat="48.87513" lon="7.35924">
        <ele>233.2</ele>
        <time>2026-03-12T07:15:26Z</time>
      </trkpt>
      <trkpt lat="48.87512" lon="7.3591">
        <ele>233.4</ele>
        <time>2026-03-12T07:15:31Z</time>
      </trkpt>
      <trkpt lat="48.87512" lon="7.35901">
        <ele>233.3</ele>
        <time>2026-03-12T07:15:36Z</time>
      </trkpt>
      <trkpt lat="48.87513" lon="7.35892">
        <ele>233.2</ele>
        <time>2026-03-12T07:15:41Z</time>
      </trkpt>
      <trkpt lat="48.8751" lon="7.35881">
        <ele>233.2</ele>
        <time>2026-03-12T07:15:46Z</time>
      </trkpt>
      <trkpt lat="48.87509" lon="7.35868">
        <ele>233.1</ele>
        <time>2026-03-12T07:15:51Z</time>
      </trkpt>
      <trkpt lat="48.87509" lon="7.35858">
        <ele>233</ele>
        <time>2026-03-12T07:15:56Z</time>
      </trkpt>
      <trkpt lat="48.87508" lon="7.35846">
        <ele>232.9</ele>
        <time>2026-03-12T07:16:01Z</time>
      </trkpt>
      <trkpt lat="48.87506" lon="7.35837">
        <ele>232.9</ele>
        <time>2026-03-12T07:16:06Z</time>
      </trkpt>
      <trkpt lat="48.87504" lon="7.35828">
        <ele>233.1</ele>
        <time>2026-03-12T07:16:11Z</time>
      </trkpt>
      <trkpt lat="48.87503" lon="7.35819">
        <ele>233.4</ele>
        <time>2026-03-12T07:16:16Z</time>
      </trkpt>
      <trkpt lat="48.87503" lon="7.35812">
        <ele>233.7</ele>
        <time>2026-03-12T07:16:21Z</time>
      </trkpt>
      <trkpt lat="48.87501" lon="7.35803">
        <ele>234.1</ele>
        <time>2026-03-12T07:16:26Z</time>
      </trkpt>
      <trkpt lat="48.875" lon="7.35794">
        <ele>234.4</ele>
        <time>2026-03-12T07:16:31Z</time>
      </trkpt>
      <trkpt lat="48.87499" lon="7.35786">
        <ele>234.8</ele>
        <time>2026-03-12T07:16:36Z</time>
      </trkpt>
      <trkpt lat="48.87498" lon="7.35774">
        <ele>235.4</ele>
        <time>2026-03-12T07:16:41Z</time>
      </trkpt>
      <trkpt lat="48.87496" lon="7.35764">
        <ele>236.1</ele>
        <time>2026-03-12T07:16:46Z</time>
      </trkpt>
      <trkpt lat="48.87496" lon="7.35751">
        <ele>236.6</ele>
        <time>2026-03-12T07:16:51Z</time>
      </trkpt>
      <trkpt lat="48.87494" lon="7.3574">
        <ele>237.3</ele>
        <time>2026-03-12T07:16:56Z</time>
      </trkpt>
      <trkpt lat="48.87493" lon="7.35733">
        <ele>237.7</ele>
        <time>2026-03-12T07:17:01Z</time>
      </trkpt>
      <trkpt lat="48.87492" lon="7.35725">
        <ele>238.1</ele>
        <time>2026-03-12T07:17:06Z</time>
      </trkpt>
      <trkpt lat="48.87492" lon="7.35717">
        <ele>238.4</ele>
        <time>2026-03-12T07:17:11Z</time>
      </trkpt>
      <trkpt lat="48.87491" lon="7.35706">
        <ele>238.9</ele>
        <time>2026-03-12T07:17:16Z</time>
      </trkpt>
      <trkpt lat="48.87491" lon="7.35695">
        <ele>239.3</ele>
        <time>2026-03-12T07:17:21Z</time>
      </trkpt>
      <trkpt lat="48.87491" lon="7.35687">
        <ele>239.6</ele>
        <time>2026-03-12T07:17:26Z</time>
      </trkpt>
      <trkpt lat="48.87491" lon="7.35677">
        <ele>239.9</ele>
        <time>2026-03-12T07:17:31Z</time>
      </trkpt>
      <trkpt lat="48.8749" lon="7.35668">
        <ele>240.4</ele>
        <time>2026-03-12T07:17:36Z</time>
      </trkpt>
      <trkpt lat="48.8749" lon="7.35658">
        <ele>240.4</ele>
        <time>2026-03-12T07:17:41Z</time>
      </trkpt>
      <trkpt lat="48.87489" lon="7.3565">
        <ele>240.4</ele>
        <time>2026-03-12T07:17:46Z</time>
      </trkpt>
      <trkpt lat="48.87489" lon="7.3564">
        <ele>240.3</ele>
        <time>2026-03-12T07:17:51Z</time>
      </trkpt>
      <trkpt lat="48.87491" lon="7.35631">
        <ele>240</ele>
        <time>2026-03-12T07:17:56Z</time>
      </trkpt>
      <trkpt lat="48.87491" lon="7.35629">
        <ele>239.9</ele>
        <time>2026-03-12T07:18:01Z</time>
      </trkpt>
      <trkpt lat="48.87491" lon="7.35629">
        <ele>239.9</ele>
        <time>2026-03-12T07:18:06Z</time>
      </trkpt>
      <trkpt lat="48.87491" lon="7.35629">
        <ele>239.9</ele>
        <time>2026-03-12T07:18:11Z</time>
      </trkpt>
      <trkpt lat="48.87491" lon="7.35629">
        <ele>239.9</ele>
        <time>2026-03-12T07:18:16Z</time>
      </trkpt>
      <trkpt lat="48.87491" lon="7.35629">
        <ele>239.9</ele>
        <time>2026-03-12T07:18:21Z</time>
      </trkpt>
      <trkpt lat="48.87491" lon="7.35629">
        <ele>239.9</ele>
        <time>2026-03-12T07:18:26Z</time>
      </trkpt>
      <trkpt lat="48.87491" lon="7.35629">
        <ele>239.9</ele>
        <time>2026-03-12T07:18:31Z</time>
      </trkpt>
      <trkpt lat="48.87491" lon="7.35629">
        <ele>239.9</ele>
        <time>2026-03-12T07:18:36Z</time>
      </trkpt>
      <trkpt lat="48.87491" lon="7.35629">
        <ele>239.9</ele>
        <time>2026-03-12T07:18:41Z</time>
      </trkpt>
      <trkpt lat="48.87491" lon="7.35629">
        <ele>239.9</ele>
        <time>2026-03-12T07:18:46Z</time>
      </trkpt>
      <trkpt lat="48.87491" lon="7.35629">
        <ele>239.9</ele>
        <time>2026-03-12T07:18:51Z</time>
      </trkpt>
      <trkpt lat="48.87491" lon="7.35629">
        <ele>239.9</ele>
        <time>2026-03-12T07:18:56Z</time>
      </trkpt>
      <trkpt lat="48.87491" lon="7.35629">
        <ele>239.9</ele>
        <time>2026-03-12T07:19:01Z</time>
      </trkpt>
      <trkpt lat="48.87491" lon="7.35629">
        <ele>239.9</ele>
        <time>2026-03-12T07:19:06Z</time>
      </trkpt>
      <trkpt lat="48.87491" lon="7.35629">
        <ele>239.9</ele>
        <time>2026-03-12T07:19:11Z</time>
      </trkpt>
      <trkpt lat="48.87491" lon="7.35629">
        <ele>239.9</ele>
        <time>2026-03-12T07:19:16Z</time>
      </trkpt>
      <trkpt lat="48.87485" lon="7.35627">
        <ele>240.9</ele>
        <time>2026-03-12T07:19:21Z</time>
      </trkpt>
      <trkpt lat="48.87484" lon="7.35621">
        <ele>241</ele>
        <time>2026-03-12T07:19:26Z</time>
      </trkpt>
      <trkpt lat="48.87484" lon="7.35619">
        <ele>241</ele>
        <time>2026-03-12T07:19:31Z</time>
      </trkpt>
      <trkpt lat="48.87484" lon="7.35619">
        <ele>241</ele>
        <time>2026-03-12T07:19:36Z</time>
      </trkpt>
      <trkpt lat="48.87484" lon="7.35619">
        <ele>241</ele>
        <time>2026-03-12T07:19:41Z</time>
      </trkpt>
      <trkpt lat="48.87483" lon="7.35617">
        <ele>241.1</ele>
        <time>2026-03-12T07:19:46Z</time>
      </trkpt>
      <trkpt lat="48.87483" lon="7.35609">
        <ele>241</ele>
        <time>2026-03-12T07:19:51Z</time>
      </trkpt>
      <trkpt lat="48.87484" lon="7.35599">
        <ele>240.8</ele>
        <time>2026-03-12T07:19:56Z</time>
      </trkpt>
      <trkpt lat="48.87485" lon="7.3559">
        <ele>240.6</ele>
        <time>2026-03-12T07:20:01Z</time>
      </trkpt>
      <trkpt lat="48.87485" lon="7.35582">
        <ele>240.7</ele>
        <time>2026-03-12T07:20:06Z</time>
      </trkpt>
      <trkpt lat="48.87486" lon="7.35575">
        <ele>241.3</ele>
        <time>2026-03-12T07:20:11Z</time>
      </trkpt>
      <trkpt lat="48.87487" lon="7.35567">
        <ele>242</ele>
        <time>2026-03-12T07:20:16Z</time>
      </trkpt>
      <trkpt lat="48.87487" lon="7.3556">
        <ele>242.8</ele>
        <time>2026-03-12T07:20:21Z</time>
      </trkpt>
      <trkpt lat="48.87486" lon="7.3555">
        <ele>244</ele>
        <time>2026-03-12T07:20:26Z</time>
      </trkpt>
      <trkpt lat="48.87486" lon="7.3554">
        <ele>245.1</ele>
        <time>2026-03-12T07:20:31Z</time>
      </trkpt>
      <trkpt lat="48.87485" lon="7.3553">
        <ele>246.3</ele>
        <time>2026-03-12T07:20:36Z</time>
      </trkpt>
      <trkpt lat="48.87485" lon="7.35525">
        <ele>246.9</ele>
        <time>2026-03-12T07:20:41Z</time>
      </trkpt>
      <trkpt lat="48.87484" lon="7.35525">
        <ele>247</ele>
        <time>2026-03-12T07:20:46Z</time>
      </trkpt>
      <trkpt lat="48.87484" lon="7.35525">
        <ele>247</ele>
        <time>2026-03-12T07:20:51Z</time>
      </trkpt>
      <trkpt lat="48.87484" lon="7.35525">
        <ele>247</ele>
        <time>2026-03-12T07:20:56Z</time>
      </trkpt>
      <trkpt lat="48.87484" lon="7.35525">
        <ele>247</ele>
        <time>2026-03-12T07:21:01Z</time>
      </trkpt>
      <trkpt lat="48.87484" lon="7.35525">
        <ele>247</ele>
        <time>2026-03-12T07:21:06Z</time>
      </trkpt>
      <trkpt lat="48.87484" lon="7.35525">
        <ele>247</ele>
        <time>2026-03-12T07:21:11Z</time>
      </trkpt>
      <trkpt lat="48.87484" lon="7.35525">
        <ele>247</ele>
        <time>2026-03-12T07:21:16Z</time>
      </trkpt>
      <trkpt lat="48.87484" lon="7.35525">
        <ele>247</ele>
        <time>2026-03-12T07:21:21Z</time>
      </trkpt>
      <trkpt lat="48.87479" lon="7.35522">
        <ele>248</ele>
        <time>2026-03-12T07:21:26Z</time>
      </trkpt>
      <trkpt lat="48.87481" lon="7.35513">
        <ele>248.7</ele>
        <time>2026-03-12T07:21:31Z</time>
      </trkpt>
      <trkpt lat="48.87482" lon="7.35503">
        <ele>249.6</ele>
        <time>2026-03-12T07:21:36Z</time>
      </trkpt>
      <trkpt lat="48.87482" lon="7.35494">
        <ele>250.3</ele>
        <time>2026-03-12T07:21:41Z</time>
      </trkpt>
      <trkpt lat="48.87476" lon="7.35488">
        <ele>251.2</ele>
        <time>2026-03-12T07:21:46Z</time>
      </trkpt>
      <trkpt lat="48.87473" lon="7.35483">
        <ele>251.7</ele>
        <time>2026-03-12T07:21:51Z</time>
      </trkpt>
      <trkpt lat="48.8747" lon="7.3548">
        <ele>252.1</ele>
        <time>2026-03-12T07:21:56Z</time>
      </trkpt>
      <trkpt lat="48.87467" lon="7.35474">
        <ele>252.6</ele>
        <time>2026-03-12T07:22:01Z</time>
      </trkpt>
      <trkpt lat="48.87463" lon="7.35465">
        <ele>253.2</ele>
        <time>2026-03-12T07:22:06Z</time>
      </trkpt>
      <trkpt lat="48.87457" lon="7.35459">
        <ele>253.8</ele>
        <time>2026-03-12T07:22:11Z</time>
      </trkpt>
      <trkpt lat="48.87453" lon="7.35454">
        <ele>254.2</ele>
        <time>2026-03-12T07:22:16Z</time>
      </trkpt>
      <trkpt lat="48.8745" lon="7.3545">
        <ele>254.5</ele>
        <time>2026-03-12T07:22:21Z</time>
      </trkpt>
      <trkpt lat="48.87444" lon="7.35447">
        <ele>254.9</ele>
        <time>2026-03-12T07:22:26Z</time>
      </trkpt>
      <trkpt lat="48.8744" lon="7.35447">
        <ele>255.1</ele>
        <time>2026-03-12T07:22:31Z</time>
      </trkpt>
      <trkpt lat="48.87435" lon="7.35447">
        <ele>255.4</ele>
        <time>2026-03-12T07:22:36Z</time>
      </trkpt>
      <trkpt lat="48.87432" lon="7.35447">
        <ele>255.5</ele>
        <time>2026-03-12T07:22:41Z</time>
      </trkpt>
      <trkpt lat="48.87431" lon="7.35447">
        <ele>255.6</ele>
        <time>2026-03-12T07:22:46Z</time>
      </trkpt>
      <trkpt lat="48.87431" lon="7.35447">
        <ele>255.6</ele>
        <time>2026-03-12T07:22:51Z</time>
      </trkpt>
      <trkpt lat="48.87431" lon="7.35447">
        <ele>255.6</ele>
        <time>2026-03-12T07:22:56Z</time>
      </trkpt>
      <trkpt lat="48.8742" lon="7.35452">
        <ele>256.2</ele>
        <time>2026-03-12T07:23:01Z</time>
      </trkpt>
      <trkpt lat="48.87417" lon="7.35455">
        <ele>256.4</ele>
        <time>2026-03-12T07:23:06Z</time>
      </trkpt>
      <trkpt lat="48.87413" lon="7.35456">
        <ele>256.9</ele>
        <time>2026-03-12T07:23:11Z</time>
      </trkpt>
      <trkpt lat="48.87407" lon="7.35459">
        <ele>257.6</ele>
        <time>2026-03-12T07:23:16Z</time>
      </trkpt>
      <trkpt lat="48.874" lon="7.35461">
        <ele>258.4</ele>
        <time>2026-03-12T07:23:21Z</time>
      </trkpt>
      <trkpt lat="48.87396" lon="7.35461">
        <ele>258.9</ele>
        <time>2026-03-12T07:23:26Z</time>
      </trkpt>
      <trkpt lat="48.87391" lon="7.35463">
        <ele>259.5</ele>
        <time>2026-03-12T07:23:31Z</time>
      </trkpt>
      <trkpt lat="48.87385" lon="7.35462">
        <ele>260.2</ele>
        <time>2026-03-12T07:23:36Z</time>
      </trkpt>
      <trkpt lat="48.87381" lon="7.35458">
        <ele>260.6</ele>
        <time>2026-03-12T07:23:41Z</time>
      </trkpt>
      <trkpt lat="48.87377" lon="7.35454">
        <ele>260.9</ele>
        <time>2026-03-12T07:23:46Z</time>
      </trkpt>
      <trkpt lat="48.8737" lon="7.35453">
        <ele>261.7</ele>
        <time>2026-03-12T07:23:51Z</time>
      </trkpt>
      <trkpt lat="48.87363" lon="7.35457">
        <ele>262.6</ele>
        <time>2026-03-12T07:23:56Z</time>
      </trkpt>
      <trkpt lat="48.87357" lon="7.35463">
        <ele>263.4</ele>
        <time>2026-03-12T07:24:01Z</time>
      </trkpt>
      <trkpt lat="48.87353" lon="7.35467">
        <ele>263.9</ele>
        <time>2026-03-12T07:24:06Z</time>
      </trkpt>
      <trkpt lat="48.87348" lon="7.35466">
        <ele>264.5</ele>
        <time>2026-03-12T07:24:11Z</time>
      </trkpt>
      <trkpt lat="48.87342" lon="7.35467">
        <ele>265.2</ele>
        <time>2026-03-12T07:24:16Z</time>
      </trkpt>
      <trkpt lat="48.87336" lon="7.35466">
        <ele>265.9</ele>
        <time>2026-03-12T07:24:21Z</time>
      </trkpt>
      <trkpt lat="48.87332" lon="7.35464">
        <ele>266.4</ele>
        <time>2026-03-12T07:24:26Z</time>
      </trkpt>
      <trkpt lat="48.87327" lon="7.35462">
        <ele>267.5</ele>
        <time>2026-03-12T07:24:31Z</time>
      </trkpt>
      <trkpt lat="48.87321" lon="7.35463">
        <ele>268.8</ele>
        <time>2026-03-12T07:24:36Z</time>
      </trkpt>
      <trkpt lat="48.87316" lon="7.35462">
        <ele>269.9</ele>
        <time>2026-03-12T07:24:41Z</time>
      </trkpt>
      <trkpt lat="48.87311" lon="7.35461">
        <ele>271</ele>
        <time>2026-03-12T07:24:46Z</time>
      </trkpt>
      <trkpt lat="48.87305" lon="7.3546">
        <ele>272.3</ele>
        <time>2026-03-12T07:24:51Z</time>
      </trkpt>
      <trkpt lat="48.873" lon="7.35458">
        <ele>273.4</ele>
        <time>2026-03-12T07:24:56Z</time>
      </trkpt>
      <trkpt lat="48.87296" lon="7.35457">
        <ele>274.3</ele>
        <time>2026-03-12T07:25:01Z</time>
      </trkpt>
      <trkpt lat="48.87292" lon="7.35456">
        <ele>275.2</ele>
        <time>2026-03-12T07:25:06Z</time>
      </trkpt>
      <trkpt lat="48.87288" lon="7.35457">
        <ele>276.1</ele>
        <time>2026-03-12T07:25:11Z</time>
      </trkpt>
      <trkpt lat="48.87284" lon="7.35456">
        <ele>276.9</ele>
        <time>2026-03-12T07:25:16Z</time>
      </trkpt>
      <trkpt lat="48.8728" lon="7.35455">
        <ele>277.8</ele>
        <time>2026-03-12T07:25:21Z</time>
      </trkpt>
      <trkpt lat="48.87274" lon="7.35452">
        <ele>279.2</ele>
        <time>2026-03-12T07:25:26Z</time>
      </trkpt>
      <trkpt lat="48.87269" lon="7.35452">
        <ele>280.3</ele>
        <time>2026-03-12T07:25:31Z</time>
      </trkpt>
      <trkpt lat="48.87265" lon="7.35448">
        <ele>281.2</ele>
        <time>2026-03-12T07:25:36Z</time>
      </trkpt>
      <trkpt lat="48.87258" lon="7.35442">
        <ele>282.9</ele>
        <time>2026-03-12T07:25:41Z</time>
      </trkpt>
      <trkpt lat="48.87253" lon="7.35432">
        <ele>284.1</ele>
        <time>2026-03-12T07:25:46Z</time>
      </trkpt>
      <trkpt lat="48.87248" lon="7.35423">
        <ele>285.3</ele>
        <time>2026-03-12T07:25:51Z</time>
      </trkpt>
      <trkpt lat="48.87246" lon="7.35416">
        <ele>285.7</ele>
        <time>2026-03-12T07:25:56Z</time>
      </trkpt>
      <trkpt lat="48.87246" lon="7.35411">
        <ele>285.8</ele>
        <time>2026-03-12T07:26:01Z</time>
      </trkpt>
      <trkpt lat="48.87246" lon="7.35404">
        <ele>286</ele>
        <time>2026-03-12T07:26:06Z</time>
      </trkpt>
      <trkpt lat="48.87245" lon="7.35397">
        <ele>286.3</ele>
        <time>2026-03-12T07:26:11Z</time>
      </trkpt>
      <trkpt lat="48.87244" lon="7.3539">
        <ele>286.6</ele>
        <time>2026-03-12T07:26:16Z</time>
      </trkpt>
      <trkpt lat="48.87243" lon="7.35382">
        <ele>286.9</ele>
        <time>2026-03-12T07:26:21Z</time>
      </trkpt>
      <trkpt lat="48.87243" lon="7.35372">
        <ele>287.2</ele>
        <time>2026-03-12T07:26:26Z</time>
      </trkpt>
      <trkpt lat="48.8724" lon="7.35362">
        <ele>287.8</ele>
        <time>2026-03-12T07:26:31Z</time>
      </trkpt>
      <trkpt lat="48.87237" lon="7.35354">
        <ele>288.5</ele>
        <time>2026-03-12T07:26:36Z</time>
      </trkpt>
      <trkpt lat="48.87234" lon="7.35345">
        <ele>289.1</ele>
        <time>2026-03-12T07:26:41Z</time>
      </trkpt>
      <trkpt lat="48.87232" lon="7.35337">
        <ele>289.5</ele>
        <time>2026-03-12T07:26:46Z</time>
      </trkpt>
      <trkpt lat="48.87231" lon="7.35332">
        <ele>289.8</ele>
        <time>2026-03-12T07:26:51Z</time>
      </trkpt>
      <trkpt lat="48.8723" lon="7.35326">
        <ele>290</ele>
        <time>2026-03-12T07:26:56Z</time>
      </trkpt>
      <trkpt lat="48.87228" lon="7.35316">
        <ele>290.5</ele>
        <time>2026-03-12T07:27:01Z</time>
      </trkpt>
      <trkpt lat="48.87226" lon="7.35311">
        <ele>291</ele>
        <time>2026-03-12T07:27:06Z</time>
      </trkpt>
      <trkpt lat="48.87221" lon="7.35302">
        <ele>291.9</ele>
        <time>2026-03-12T07:27:11Z</time>
      </trkpt>
      <trkpt lat="48.8722" lon="7.35294">
        <ele>292.3</ele>
        <time>2026-03-12T07:27:16Z</time>
      </trkpt>
      <trkpt lat="48.87217" lon="7.35287">
        <ele>293</ele>
        <time>2026-03-12T07:27:21Z</time>
      </trkpt>
      <trkpt lat="48.87214" lon="7.35279">
        <ele>293.7</ele>
        <time>2026-03-12T07:27:26Z</time>
      </trkpt>
      <trkpt lat="48.87211" lon="7.35272">
        <ele>294.4</ele>
        <time>2026-03-12T07:27:31Z</time>
      </trkpt>
      <trkpt lat="48.87208" lon="7.35266">
        <ele>295.1</ele>
        <time>2026-03-12T07:27:36Z</time>
      </trkpt>
      <trkpt lat="48.87206" lon="7.35259">
        <ele>295.6</ele>
        <time>2026-03-12T07:27:41Z</time>
      </trkpt>
      <trkpt lat="48.87205" lon="7.35251">
        <ele>296.1</ele>
        <time>2026-03-12T07:27:46Z</time>
      </trkpt>
      <trkpt lat="48.87203" lon="7.35245">
        <ele>296.5</ele>
        <time>2026-03-12T07:27:51Z</time>
      </trkpt>
      <trkpt lat="48.872" lon="7.35239">
        <ele>297.2</ele>
        <time>2026-03-12T07:27:56Z</time>
      </trkpt>
      <trkpt lat="48.87196" lon="7.35231">
        <ele>298</ele>
        <time>2026-03-12T07:28:01Z</time>
      </trkpt>
      <trkpt lat="48.87194" lon="7.35226">
        <ele>298.5</ele>
        <time>2026-03-12T07:28:06Z</time>
      </trkpt>
      <trkpt lat="48.87192" lon="7.35221">
        <ele>298.9</ele>
        <time>2026-03-12T07:28:11Z</time>
      </trkpt>
      <trkpt lat="48.87189" lon="7.35216">
        <ele>299.5</ele>
        <time>2026-03-12T07:28:16Z</time>
      </trkpt>
      <trkpt lat="48.87187" lon="7.35211">
        <ele>299.9</ele>
        <time>2026-03-12T07:28:21Z</time>
      </trkpt>
      <trkpt lat="48.87185" lon="7.35208">
        <ele>300.3</ele>
        <time>2026-03-12T07:28:26Z</time>
      </trkpt>
      <trkpt lat="48.87183" lon="7.3521">
        <ele>300.6</ele>
        <time>2026-03-12T07:28:31Z</time>
      </trkpt>
      <trkpt lat="48.87182" lon="7.35205">
        <ele>300.9</ele>
        <time>2026-03-12T07:28:36Z</time>
      </trkpt>
      <trkpt lat="48.87179" lon="7.35197">
        <ele>301.5</ele>
        <time>2026-03-12T07:28:41Z</time>
      </trkpt>
      <trkpt lat="48.87176" lon="7.35191">
        <ele>302.1</ele>
        <time>2026-03-12T07:28:46Z</time>
      </trkpt>
      <trkpt lat="48.87173" lon="7.35184">
        <ele>302.7</ele>
        <time>2026-03-12T07:28:51Z</time>
      </trkpt>
      <trkpt lat="48.8717" lon="7.35178">
        <ele>303.3</ele>
        <time>2026-03-12T07:28:56Z</time>
      </trkpt>
      <trkpt lat="48.87169" lon="7.35172">
        <ele>303.5</ele>
        <time>2026-03-12T07:29:01Z</time>
      </trkpt>
      <trkpt lat="48.87166" lon="7.35166">
        <ele>304</ele>
        <time>2026-03-12T07:29:06Z</time>
      </trkpt>
      <trkpt lat="48.87163" lon="7.35165">
        <ele>303.7</ele>
        <time>2026-03-12T07:29:11Z</time>
      </trkpt>
      <trkpt lat="48.87159" lon="7.35162">
        <ele>303.4</ele>
        <time>2026-03-12T07:29:16Z</time>
      </trkpt>
      <trkpt lat="48.87155" lon="7.35159">
        <ele>303.1</ele>
        <time>2026-03-12T07:29:21Z</time>
      </trkpt>
      <trkpt lat="48.87154" lon="7.35155">
        <ele>303</ele>
        <time>2026-03-12T07:29:26Z</time>
      </trkpt>
      <trkpt lat="48.87151" lon="7.35151">
        <ele>302.8</ele>
        <time>2026-03-12T07:29:31Z</time>
      </trkpt>
      <trkpt lat="48.87147" lon="7.35143">
        <ele>302.6</ele>
        <time>2026-03-12T07:29:36Z</time>
      </trkpt>
      <trkpt lat="48.87144" lon="7.35133">
        <ele>302.5</ele>
        <time>2026-03-12T07:29:41Z</time>
      </trkpt>
      <trkpt lat="48.87143" lon="7.35123">
        <ele>302.6</ele>
        <time>2026-03-12T07:29:46Z</time>
      </trkpt>
      <trkpt lat="48.87142" lon="7.35115">
        <ele>302.7</ele>
        <time>2026-03-12T07:29:51Z</time>
      </trkpt>
      <trkpt lat="48.87142" lon="7.35105">
        <ele>302.9</ele>
        <time>2026-03-12T07:29:56Z</time>
      </trkpt>
      <trkpt lat="48.87141" lon="7.35095">
        <ele>303</ele>
        <time>2026-03-12T07:30:01Z</time>
      </trkpt>
      <trkpt lat="48.8714" lon="7.35089">
        <ele>303</ele>
        <time>2026-03-12T07:30:06Z</time>
      </trkpt>
      <trkpt lat="48.8714" lon="7.35082">
        <ele>303.1</ele>
        <time>2026-03-12T07:30:11Z</time>
      </trkpt>
      <trkpt lat="48.87138" lon="7.35074">
        <ele>302.8</ele>
        <time>2026-03-12T07:30:16Z</time>
      </trkpt>
      <trkpt lat="48.87136" lon="7.35067">
        <ele>302.5</ele>
        <time>2026-03-12T07:30:21Z</time>
      </trkpt>
      <trkpt lat="48.87134" lon="7.35058">
        <ele>302.2</ele>
        <time>2026-03-12T07:30:26Z</time>
      </trkpt>
      <trkpt lat="48.87134" lon="7.3505">
        <ele>302.1</ele>
        <time>2026-03-12T07:30:31Z</time>
      </trkpt>
      <trkpt lat="48.87131" lon="7.3504">
        <ele>301.7</ele>
        <time>2026-03-12T07:30:36Z</time>
      </trkpt>
      <trkpt lat="48.87128" lon="7.35031">
        <ele>301.4</ele>
        <time>2026-03-12T07:30:41Z</time>
      </trkpt>
      <trkpt lat="48.87127" lon="7.35021">
        <ele>301.3</ele>
        <time>2026-03-12T07:30:46Z</time>
      </trkpt>
      <trkpt lat="48.87126" lon="7.35009">
        <ele>301.1</ele>
        <time>2026-03-12T07:30:51Z</time>
      </trkpt>
      <trkpt lat="48.87124" lon="7.35001">
        <ele>301</ele>
        <time>2026-03-12T07:30:56Z</time>
      </trkpt>
      <trkpt lat="48.87122" lon="7.34992">
        <ele>301</ele>
        <time>2026-03-12T07:31:01Z</time>
      </trkpt>
      <trkpt lat="48.87121" lon="7.34984">
        <ele>301.1</ele>
        <time>2026-03-12T07:31:06Z</time>
      </trkpt>
      <trkpt lat="48.8712" lon="7.34973">
        <ele>301.3</ele>
        <time>2026-03-12T07:31:11Z</time>
      </trkpt>
      <trkpt lat="48.87119" lon="7.34966">
        <ele>301.4</ele>
        <time>2026-03-12T07:31:16Z</time>
      </trkpt>
      <trkpt lat="48.87117" lon="7.34958">
        <ele>301.5</ele>
        <time>2026-03-12T07:31:21Z</time>
      </trkpt>
      <trkpt lat="48.87114" lon="7.34951">
        <ele>301.6</ele>
        <time>2026-03-12T07:31:26Z</time>
      </trkpt>
      <trkpt lat="48.87111" lon="7.34941">
        <ele>301.7</ele>
        <time>2026-03-12T07:31:31Z</time>
      </trkpt>
      <trkpt lat="48.87108" lon="7.34932">
        <ele>301.9</ele>
        <time>2026-03-12T07:31:36Z</time>
      </trkpt>
      <trkpt lat="48.87105" lon="7.34923">
        <ele>302.1</ele>
        <time>2026-03-12T07:31:41Z</time>
      </trkpt>
      <trkpt lat="48.87102" lon="7.34915">
        <ele>302.2</ele>
        <time>2026-03-12T07:31:46Z</time>
      </trkpt>
      <trkpt lat="48.871" lon="7.34906">
        <ele>302.4</ele>
        <time>2026-03-12T07:31:51Z</time>
      </trkpt>
      <trkpt lat="48.87098" lon="7.34897">
        <ele>302.5</ele>
        <time>2026-03-12T07:31:56Z</time>
      </trkpt>
      <trkpt lat="48.87092" lon="7.34889">
        <ele>302.5</ele>
        <time>2026-03-12T07:32:01Z</time>
      </trkpt>
      <trkpt lat="48.87089" lon="7.34879">
        <ele>302.6</ele>
        <time>2026-03-12T07:32:06Z</time>
      </trkpt>
      <trkpt lat="48.87087" lon="7.34868">
        <ele>302.7</ele>
        <time>2026-03-12T07:32:11Z</time>
      </trkpt>
      <trkpt lat="48.87085" lon="7.34859">
        <ele>302.7</ele>
        <time>2026-03-12T07:32:16Z</time>
      </trkpt>
      <trkpt lat="48.87082" lon="7.34853">
        <ele>302.4</ele>
        <time>2026-03-12T07:32:21Z</time>
      </trkpt>
      <trkpt lat="48.8708" lon="7.34847">
        <ele>302</ele>
        <time>2026-03-12T07:32:26Z</time>
      </trkpt>
      <trkpt lat="48.87078" lon="7.34838">
        <ele>301.6</ele>
        <time>2026-03-12T07:32:31Z</time>
      </trkpt>
      <trkpt lat="48.87076" lon="7.3483">
        <ele>301.2</ele>
        <time>2026-03-12T07:32:36Z</time>
      </trkpt>
      <trkpt lat="48.87073" lon="7.3482">
        <ele>300.6</ele>
        <time>2026-03-12T07:32:41Z</time>
      </trkpt>
      <trkpt lat="48.87073" lon="7.3482">
        <ele>300.6</ele>
        <time>2026-03-12T07:32:46Z</time>
      </trkpt>
      <trkpt lat="48.87073" lon="7.34818">
        <ele>300.6</ele>
        <time>2026-03-12T07:32:51Z</time>
      </trkpt>
      <trkpt lat="48.87073" lon="7.34818">
        <ele>300.6</ele>
        <time>2026-03-12T07:32:56Z</time>
      </trkpt>
      <trkpt lat="48.87073" lon="7.34818">
        <ele>300.6</ele>
        <time>2026-03-12T07:33:01Z</time>
      </trkpt>
      <trkpt lat="48.87067" lon="7.34811">
        <ele>299.3</ele>
        <time>2026-03-12T07:33:06Z</time>
      </trkpt>
      <trkpt lat="48.87063" lon="7.34806">
        <ele>298.4</ele>
        <time>2026-03-12T07:33:11Z</time>
      </trkpt>
      <trkpt lat="48.87061" lon="7.34801">
        <ele>298.1</ele>
        <time>2026-03-12T07:33:16Z</time>
      </trkpt>
      <trkpt lat="48.87059" lon="7.34795">
        <ele>297.7</ele>
        <time>2026-03-12T07:33:21Z</time>
      </trkpt>
      <trkpt lat="48.87055" lon="7.34788">
        <ele>297</ele>
        <time>2026-03-12T07:33:26Z</time>
      </trkpt>
      <trkpt lat="48.87052" lon="7.34782">
        <ele>296.4</ele>
        <time>2026-03-12T07:33:31Z</time>
      </trkpt>
      <trkpt lat="48.87047" lon="7.34774">
        <ele>295.5</ele>
        <time>2026-03-12T07:33:36Z</time>
      </trkpt>
      <trkpt lat="48.87045" lon="7.3477">
        <ele>295.1</ele>
        <time>2026-03-12T07:33:41Z</time>
      </trkpt>
      <trkpt lat="48.87044" lon="7.34762">
        <ele>295.2</ele>
        <time>2026-03-12T07:33:46Z</time>
      </trkpt>
      <trkpt lat="48.87043" lon="7.34753">
        <ele>295.2</ele>
        <time>2026-03-12T07:33:51Z</time>
      </trkpt>
      <trkpt lat="48.87041" lon="7.34747">
        <ele>295</ele>
        <time>2026-03-12T07:33:56Z</time>
      </trkpt>
      <trkpt lat="48.87039" lon="7.34742">
        <ele>294.9</ele>
        <time>2026-03-12T07:34:01Z</time>
      </trkpt>
      <trkpt lat="48.87038" lon="7.34732">
        <ele>295.2</ele>
        <time>2026-03-12T07:34:06Z</time>
      </trkpt>
      <trkpt lat="48.87035" lon="7.34722">
        <ele>295.1</ele>
        <time>2026-03-12T07:34:11Z</time>
      </trkpt>
      <trkpt lat="48.87033" lon="7.34716">
        <ele>295</ele>
        <time>2026-03-12T07:34:16Z</time>
      </trkpt>
      <trkpt lat="48.87031" lon="7.34708">
        <ele>295</ele>
        <time>2026-03-12T07:34:21Z</time>
      </trkpt>
      <trkpt lat="48.87029" lon="7.34703">
        <ele>294.9</ele>
        <time>2026-03-12T07:34:26Z</time>
      </trkpt>
      <trkpt lat="48.87026" lon="7.34697">
        <ele>294.6</ele>
        <time>2026-03-12T07:34:31Z</time>
      </trkpt>
      <trkpt lat="48.87024" lon="7.34689">
        <ele>294.6</ele>
        <time>2026-03-12T07:34:36Z</time>
      </trkpt>
      <trkpt lat="48.8702" lon="7.34683">
        <ele>294.1</ele>
        <time>2026-03-12T07:34:41Z</time>
      </trkpt>
      <trkpt lat="48.87017" lon="7.34675">
        <ele>294</ele>
        <time>2026-03-12T07:34:46Z</time>
      </trkpt>
      <trkpt lat="48.87016" lon="7.34669">
        <ele>294.1</ele>
        <time>2026-03-12T07:34:51Z</time>
      </trkpt>
      <trkpt lat="48.87014" lon="7.34661">
        <ele>294.3</ele>
        <time>2026-03-12T07:34:56Z</time>
      </trkpt>
      <trkpt lat="48.8701" lon="7.34652">
        <ele>294.3</ele>
        <time>2026-03-12T07:35:01Z</time>
      </trkpt>
      <trkpt lat="48.87007" lon="7.34646">
        <ele>294.2</ele>
        <time>2026-03-12T07:35:06Z</time>
      </trkpt>
      <trkpt lat="48.87005" lon="7.34641">
        <ele>294.2</ele>
        <time>2026-03-12T07:35:11Z</time>
      </trkpt>
      <trkpt lat="48.87002" lon="7.34635">
        <ele>294.1</ele>
        <time>2026-03-12T07:35:16Z</time>
      </trkpt>
      <trkpt lat="48.87" lon="7.3463">
        <ele>294.1</ele>
        <time>2026-03-12T07:35:21Z</time>
      </trkpt>
      <trkpt lat="48.86998" lon="7.34625">
        <ele>293.9</ele>
        <time>2026-03-12T07:35:26Z</time>
      </trkpt>
      <trkpt lat="48.86997" lon="7.3462">
        <ele>294.1</ele>
        <time>2026-03-12T07:35:31Z</time>
      </trkpt>
      <trkpt lat="48.86997" lon="7.34619">
        <ele>294.2</ele>
        <time>2026-03-12T07:35:36Z</time>
      </trkpt>
      <trkpt lat="48.86996" lon="7.34607">
        <ele>294.9</ele>
        <time>2026-03-12T07:35:41Z</time>
      </trkpt>
      <trkpt lat="48.86995" lon="7.346">
        <ele>295.2</ele>
        <time>2026-03-12T07:35:46Z</time>
      </trkpt>
      <trkpt lat="48.86994" lon="7.34595">
        <ele>295.3</ele>
        <time>2026-03-12T07:35:51Z</time>
      </trkpt>
      <trkpt lat="48.86991" lon="7.34589">
        <ele>294.9</ele>
        <time>2026-03-12T07:35:56Z</time>
      </trkpt>
      <trkpt lat="48.86989" lon="7.34584">
        <ele>294.8</ele>
        <time>2026-03-12T07:36:01Z</time>
      </trkpt>
      <trkpt lat="48.86988" lon="7.34581">
        <ele>294.8</ele>
        <time>2026-03-12T07:36:06Z</time>
      </trkpt>
      <trkpt lat="48.86984" lon="7.34573">
        <ele>294.7</ele>
        <time>2026-03-12T07:36:11Z</time>
      </trkpt>
      <trkpt lat="48.86981" lon="7.34568">
        <ele>294.4</ele>
        <time>2026-03-12T07:36:16Z</time>
      </trkpt>
      <trkpt lat="48.86982" lon="7.34564">
        <ele>295.2</ele>
        <time>2026-03-12T07:36:21Z</time>
      </trkpt>
      <trkpt lat="48.86982" lon="7.34564">
        <ele>295.2</ele>
        <time>2026-03-12T07:36:26Z</time>
      </trkpt>
      <trkpt lat="48.86982" lon="7.34564">
        <ele>295.2</ele>
        <time>2026-03-12T07:36:31Z</time>
      </trkpt>
      <trkpt lat="48.8698" lon="7.34545">
        <ele>296.9</ele>
        <time>2026-03-12T07:36:36Z</time>
      </trkpt>
      <trkpt lat="48.86979" lon="7.34535">
        <ele>297.7</ele>
        <time>2026-03-12T07:36:41Z</time>
      </trkpt>
      <trkpt lat="48.86978" lon="7.34528">
        <ele>298.3</ele>
        <time>2026-03-12T07:36:46Z</time>
      </trkpt>
      <trkpt lat="48.86977" lon="7.34524">
        <ele>298.4</ele>
        <time>2026-03-12T07:36:51Z</time>
      </trkpt>
      <trkpt lat="48.86975" lon="7.34519">
        <ele>298.4</ele>
        <time>2026-03-12T07:36:56Z</time>
      </trkpt>
      <trkpt lat="48.86974" lon="7.34514">
        <ele>298.6</ele>
        <time>2026-03-12T07:37:01Z</time>
      </trkpt>
      <trkpt lat="48.86973" lon="7.34509">
        <ele>298.9</ele>
        <time>2026-03-12T07:37:06Z</time>
      </trkpt>
      <trkpt lat="48.86972" lon="7.34508">
        <ele>298.7</ele>
        <time>2026-03-12T07:37:11Z</time>
      </trkpt>
      <trkpt lat="48.86972" lon="7.34508">
        <ele>298.7</ele>
        <time>2026-03-12T07:37:16Z</time>
      </trkpt>
      <trkpt lat="48.86971" lon="7.34503">
        <ele>298.9</ele>
        <time>2026-03-12T07:37:21Z</time>
      </trkpt>
      <trkpt lat="48.86967" lon="7.34498">
        <ele>298.1</ele>
        <time>2026-03-12T07:37:26Z</time>
      </trkpt>
      <trkpt lat="48.86966" lon="7.34495">
        <ele>298.1</ele>
        <time>2026-03-12T07:37:31Z</time>
      </trkpt>
      <trkpt lat="48.86964" lon="7.34491">
        <ele>297.8</ele>
        <time>2026-03-12T07:37:36Z</time>
      </trkpt>
      <trkpt lat="48.86964" lon="7.34491">
        <ele>297.8</ele>
        <time>2026-03-12T07:37:41Z</time>
      </trkpt>
      <trkpt lat="48.86961" lon="7.34483">
        <ele>297.6</ele>
        <time>2026-03-12T07:37:46Z</time>
      </trkpt>
      <trkpt lat="48.86961" lon="7.34483">
        <ele>297.6</ele>
        <time>2026-03-12T07:37:51Z</time>
      </trkpt>
      <trkpt lat="48.86961" lon="7.34483">
        <ele>297.6</ele>
        <time>2026-03-12T07:37:56Z</time>
      </trkpt>
      <trkpt lat="48.86956" lon="7.34471">
        <ele>297.2</ele>
        <time>2026-03-12T07:38:01Z</time>
      </trkpt>
      <trkpt lat="48.86956" lon="7.34469">
        <ele>297.4</ele>
        <time>2026-03-12T07:38:06Z</time>
      </trkpt>
      <trkpt lat="48.86956" lon="7.34469">
        <ele>297.4</ele>
        <time>2026-03-12T07:38:11Z</time>
      </trkpt>
      <trkpt lat="48.86953" lon="7.34456">
        <ele>297.7</ele>
        <time>2026-03-12T07:38:16Z</time>
      </trkpt>
      <trkpt lat="48.86954" lon="7.34455">
        <ele>298.1</ele>
        <time>2026-03-12T07:38:21Z</time>
      </trkpt>
      <trkpt lat="48.86954" lon="7.34455">
        <ele>298.1</ele>
        <time>2026-03-12T07:38:26Z</time>
      </trkpt>
      <trkpt lat="48.86954" lon="7.34455">
        <ele>298.1</ele>
        <time>2026-03-12T07:38:31Z</time>
      </trkpt>
      <trkpt lat="48.86954" lon="7.34455">
        <ele>298.1</ele>
        <time>2026-03-12T07:38:36Z</time>
      </trkpt>
      <trkpt lat="48.86954" lon="7.34455">
        <ele>298.1</ele>
        <time>2026-03-12T07:38:41Z</time>
      </trkpt>
      <trkpt lat="48.86954" lon="7.34455">
        <ele>298.1</ele>
        <time>2026-03-12T07:38:46Z</time>
      </trkpt>
      <trkpt lat="48.86954" lon="7.34455">
        <ele>298.1</ele>
        <time>2026-03-12T07:38:51Z</time>
      </trkpt>
      <trkpt lat="48.8695" lon="7.34448">
        <ele>297.4</ele>
        <time>2026-03-12T07:38:56Z</time>
      </trkpt>
      <trkpt lat="48.86949" lon="7.34435">
        <ele>298.4</ele>
        <time>2026-03-12T07:39:01Z</time>
      </trkpt>
      <trkpt lat="48.8695" lon="7.34426">
        <ele>299.7</ele>
        <time>2026-03-12T07:39:06Z</time>
      </trkpt>
      <trkpt lat="48.8695" lon="7.3442">
        <ele>300.3</ele>
        <time>2026-03-12T07:39:11Z</time>
      </trkpt>
      <trkpt lat="48.86949" lon="7.34411">
        <ele>300.9</ele>
        <time>2026-03-12T07:39:16Z</time>
      </trkpt>
      <trkpt lat="48.86949" lon="7.34403">
        <ele>301.9</ele>
        <time>2026-03-12T07:39:21Z</time>
      </trkpt>
      <trkpt lat="48.86949" lon="7.34396">
        <ele>302.7</ele>
        <time>2026-03-12T07:39:26Z</time>
      </trkpt>
      <trkpt lat="48.86948" lon="7.34386">
        <ele>303.6</ele>
        <time>2026-03-12T07:39:31Z</time>
      </trkpt>
      <trkpt lat="48.86947" lon="7.34377">
        <ele>304.4</ele>
        <time>2026-03-12T07:39:36Z</time>
      </trkpt>
      <trkpt lat="48.86946" lon="7.34371">
        <ele>304.8</ele>
        <time>2026-03-12T07:39:41Z</time>
      </trkpt>
      <trkpt lat="48.86943" lon="7.34362">
        <ele>305</ele>
        <time>2026-03-12T07:39:46Z</time>
      </trkpt>
      <trkpt lat="48.86942" lon="7.34354">
        <ele>305.7</ele>
        <time>2026-03-12T07:39:51Z</time>
      </trkpt>
      <trkpt lat="48.86941" lon="7.34346">
        <ele>306.4</ele>
        <time>2026-03-12T07:39:56Z</time>
      </trkpt>
      <trkpt lat="48.8694" lon="7.34338">
        <ele>307.1</ele>
        <time>2026-03-12T07:40:01Z</time>
      </trkpt>
      <trkpt lat="48.8694" lon="7.34332">
        <ele>307.9</ele>
        <time>2026-03-12T07:40:06Z</time>
      </trkpt>
      <trkpt lat="48.86939" lon="7.34325">
        <ele>308.3</ele>
        <time>2026-03-12T07:40:11Z</time>
      </trkpt>
      <trkpt lat="48.86938" lon="7.34318">
        <ele>308.7</ele>
        <time>2026-03-12T07:40:16Z</time>
      </trkpt>
      <trkpt lat="48.86937" lon="7.34311">
        <ele>309.1</ele>
        <time>2026-03-12T07:40:21Z</time>
      </trkpt>
      <trkpt lat="48.86936" lon="7.34303">
        <ele>309.6</ele>
        <time>2026-03-12T07:40:26Z</time>
      </trkpt>
      <trkpt lat="48.86935" lon="7.34293">
        <ele>310.4</ele>
        <time>2026-03-12T07:40:31Z</time>
      </trkpt>
      <trkpt lat="48.86933" lon="7.34282">
        <ele>310.9</ele>
        <time>2026-03-12T07:40:36Z</time>
      </trkpt>
      <trkpt lat="48.86931" lon="7.34274">
        <ele>311.1</ele>
        <time>2026-03-12T07:40:41Z</time>
      </trkpt>
      <trkpt lat="48.86927" lon="7.34267">
        <ele>310.5</ele>
        <time>2026-03-12T07:40:46Z</time>
      </trkpt>
      <trkpt lat="48.86925" lon="7.34261">
        <ele>310.5</ele>
        <time>2026-03-12T07:40:51Z</time>
      </trkpt>
      <trkpt lat="48.86926" lon="7.34254">
        <ele>311.5</ele>
        <time>2026-03-12T07:40:56Z</time>
      </trkpt>
      <trkpt lat="48.86925" lon="7.34248">
        <ele>311.7</ele>
        <time>2026-03-12T07:41:01Z</time>
      </trkpt>
      <trkpt lat="48.8692" lon="7.34239">
        <ele>310.8</ele>
        <time>2026-03-12T07:41:06Z</time>
      </trkpt>
      <trkpt lat="48.86917" lon="7.34228">
        <ele>310.7</ele>
        <time>2026-03-12T07:41:11Z</time>
      </trkpt>
      <trkpt lat="48.86916" lon="7.34218">
        <ele>311.2</ele>
        <time>2026-03-12T07:41:16Z</time>
      </trkpt>
      <trkpt lat="48.86914" lon="7.34212">
        <ele>311.1</ele>
        <time>2026-03-12T07:41:21Z</time>
      </trkpt>
      <trkpt lat="48.86912" lon="7.34204">
        <ele>311.3</ele>
        <time>2026-03-12T07:41:26Z</time>
      </trkpt>
      <trkpt lat="48.8691" lon="7.34197">
        <ele>311.3</ele>
        <time>2026-03-12T07:41:31Z</time>
      </trkpt>
      <trkpt lat="48.86908" lon="7.3419">
        <ele>311.4</ele>
        <time>2026-03-12T07:41:36Z</time>
      </trkpt>
      <trkpt lat="48.86906" lon="7.34182">
        <ele>311.5</ele>
        <time>2026-03-12T07:41:41Z</time>
      </trkpt>
      <trkpt lat="48.86903" lon="7.34177">
        <ele>311.3</ele>
        <time>2026-03-12T07:41:46Z</time>
      </trkpt>
      <trkpt lat="48.869" lon="7.34172">
        <ele>311</ele>
        <time>2026-03-12T07:41:51Z</time>
      </trkpt>
      <trkpt lat="48.86898" lon="7.34165">
        <ele>311.1</ele>
        <time>2026-03-12T07:41:56Z</time>
      </trkpt>
      <trkpt lat="48.86896" lon="7.34157">
        <ele>311.3</ele>
        <time>2026-03-12T07:42:01Z</time>
      </trkpt>
      <trkpt lat="48.86893" lon="7.34149">
        <ele>311.2</ele>
        <time>2026-03-12T07:42:06Z</time>
      </trkpt>
      <trkpt lat="48.86891" lon="7.34141">
        <ele>311.4</ele>
        <time>2026-03-12T07:42:11Z</time>
      </trkpt>
      <trkpt lat="48.86891" lon="7.34133">
        <ele>312</ele>
        <time>2026-03-12T07:42:16Z</time>
      </trkpt>
      <trkpt lat="48.86888" lon="7.34127">
        <ele>311.8</ele>
        <time>2026-03-12T07:42:21Z</time>
      </trkpt>
      <trkpt lat="48.86885" lon="7.3412">
        <ele>311.7</ele>
        <time>2026-03-12T07:42:26Z</time>
      </trkpt>
      <trkpt lat="48.86885" lon="7.3412">
        <ele>311.7</ele>
        <time>2026-03-12T07:42:31Z</time>
      </trkpt>
      <trkpt lat="48.86885" lon="7.3412">
        <ele>311.7</ele>
        <time>2026-03-12T07:42:36Z</time>
      </trkpt>
      <trkpt lat="48.86885" lon="7.3412">
        <ele>311.7</ele>
        <time>2026-03-12T07:42:41Z</time>
      </trkpt>
      <trkpt lat="48.86885" lon="7.3412">
        <ele>311.7</ele>
        <time>2026-03-12T07:42:46Z</time>
      </trkpt>
      <trkpt lat="48.86885" lon="7.34112">
        <ele>312.3</ele>
        <time>2026-03-12T07:42:51Z</time>
      </trkpt>
      <trkpt lat="48.8688" lon="7.34103">
        <ele>312</ele>
        <time>2026-03-12T07:42:56Z</time>
      </trkpt>
      <trkpt lat="48.86878" lon="7.34094">
        <ele>312.3</ele>
        <time>2026-03-12T07:43:01Z</time>
      </trkpt>
      <trkpt lat="48.86875" lon="7.34087">
        <ele>312.2</ele>
        <time>2026-03-12T07:43:06Z</time>
      </trkpt>
      <trkpt lat="48.86873" lon="7.3408">
        <ele>312.4</ele>
        <time>2026-03-12T07:43:11Z</time>
      </trkpt>
      <trkpt lat="48.86871" lon="7.34074">
        <ele>312.4</ele>
        <time>2026-03-12T07:43:16Z</time>
      </trkpt>
      <trkpt lat="48.86869" lon="7.34067">
        <ele>312.5</ele>
        <time>2026-03-12T07:43:21Z</time>
      </trkpt>
      <trkpt lat="48.86866" lon="7.3406">
        <ele>312.5</ele>
        <time>2026-03-12T07:43:26Z</time>
      </trkpt>
      <trkpt lat="48.86865" lon="7.34053">
        <ele>312.8</ele>
        <time>2026-03-12T07:43:31Z</time>
      </trkpt>
      <trkpt lat="48.86863" lon="7.34047">
        <ele>312.8</ele>
        <time>2026-03-12T07:43:36Z</time>
      </trkpt>
      <trkpt lat="48.8686" lon="7.34039">
        <ele>312.8</ele>
        <time>2026-03-12T07:43:41Z</time>
      </trkpt>
      <trkpt lat="48.86857" lon="7.34031">
        <ele>312.8</ele>
        <time>2026-03-12T07:43:46Z</time>
      </trkpt>
      <trkpt lat="48.86854" lon="7.34022">
        <ele>312.8</ele>
        <time>2026-03-12T07:43:51Z</time>
      </trkpt>
      <trkpt lat="48.86851" lon="7.34013">
        <ele>312.8</ele>
        <time>2026-03-12T07:43:56Z</time>
      </trkpt>
      <trkpt lat="48.86848" lon="7.34005">
        <ele>312.8</ele>
        <time>2026-03-12T07:44:01Z</time>
      </trkpt>
      <trkpt lat="48.86844" lon="7.33996">
        <ele>312.8</ele>
        <time>2026-03-12T07:44:06Z</time>
      </trkpt>
      <trkpt lat="48.86841" lon="7.33989">
        <ele>313.2</ele>
        <time>2026-03-12T07:44:11Z</time>
      </trkpt>
      <trkpt lat="48.86839" lon="7.33982">
        <ele>313.8</ele>
        <time>2026-03-12T07:44:16Z</time>
      </trkpt>
      <trkpt lat="48.86835" lon="7.33973">
        <ele>314.5</ele>
        <time>2026-03-12T07:44:21Z</time>
      </trkpt>
      <trkpt lat="48.86832" lon="7.33965">
        <ele>315.3</ele>
        <time>2026-03-12T07:44:26Z</time>
      </trkpt>
      <trkpt lat="48.86827" lon="7.33957">
        <ele>315.8</ele>
        <time>2026-03-12T07:44:31Z</time>
      </trkpt>
      <trkpt lat="48.86824" lon="7.33947">
        <ele>316.8</ele>
        <time>2026-03-12T07:44:36Z</time>
      </trkpt>
      <trkpt lat="48.8682" lon="7.33936">
        <ele>317.8</ele>
        <time>2026-03-12T07:44:41Z</time>
      </trkpt>
      <trkpt lat="48.86818" lon="7.3393">
        <ele>318.3</ele>
        <time>2026-03-12T07:44:46Z</time>
      </trkpt>
      <trkpt lat="48.86813" lon="7.33922">
        <ele>318.6</ele>
        <time>2026-03-12T07:44:51Z</time>
      </trkpt>
      <trkpt lat="48.86809" lon="7.33912">
        <ele>319.4</ele>
        <time>2026-03-12T07:44:56Z</time>
      </trkpt>
      <trkpt lat="48.86805" lon="7.33903">
        <ele>320.1</ele>
        <time>2026-03-12T07:45:01Z</time>
      </trkpt>
      <trkpt lat="48.868" lon="7.33892">
        <ele>321</ele>
        <time>2026-03-12T07:45:06Z</time>
      </trkpt>
      <trkpt lat="48.86795" lon="7.33882">
        <ele>321.9</ele>
        <time>2026-03-12T07:45:11Z</time>
      </trkpt>
      <trkpt lat="48.86793" lon="7.33875">
        <ele>322.7</ele>
        <time>2026-03-12T07:45:16Z</time>
      </trkpt>
      <trkpt lat="48.8679" lon="7.33865">
        <ele>323.9</ele>
        <time>2026-03-12T07:45:21Z</time>
      </trkpt>
      <trkpt lat="48.86785" lon="7.33854">
        <ele>325.1</ele>
        <time>2026-03-12T07:45:26Z</time>
      </trkpt>
      <trkpt lat="48.86782" lon="7.33845">
        <ele>326.2</ele>
        <time>2026-03-12T07:45:31Z</time>
      </trkpt>
      <trkpt lat="48.8678" lon="7.33837">
        <ele>327.3</ele>
        <time>2026-03-12T07:45:36Z</time>
      </trkpt>
      <trkpt lat="48.86776" lon="7.33828">
        <ele>328.2</ele>
        <time>2026-03-12T07:45:41Z</time>
      </trkpt>
      <trkpt lat="48.86773" lon="7.33818">
        <ele>329.4</ele>
        <time>2026-03-12T07:45:46Z</time>
      </trkpt>
      <trkpt lat="48.8677" lon="7.33808">
        <ele>330.7</ele>
        <time>2026-03-12T07:45:51Z</time>
      </trkpt>
      <trkpt lat="48.86766" lon="7.33798">
        <ele>332.1</ele>
        <time>2026-03-12T07:45:56Z</time>
      </trkpt>
      <trkpt lat="48.86763" lon="7.33789">
        <ele>333.5</ele>
        <time>2026-03-12T07:46:01Z</time>
      </trkpt>
      <trkpt lat="48.86759" lon="7.3378">
        <ele>335</ele>
        <time>2026-03-12T07:46:06Z</time>
      </trkpt>
      <trkpt lat="48.86755" lon="7.33773">
        <ele>336.3</ele>
        <time>2026-03-12T07:46:11Z</time>
      </trkpt>
      <trkpt lat="48.86753" lon="7.33765">
        <ele>337.9</ele>
        <time>2026-03-12T07:46:16Z</time>
      </trkpt>
      <trkpt lat="48.86748" lon="7.33756">
        <ele>339.3</ele>
        <time>2026-03-12T07:46:21Z</time>
      </trkpt>
      <trkpt lat="48.86742" lon="7.33747">
        <ele>339.1</ele>
        <time>2026-03-12T07:46:26Z</time>
      </trkpt>
      <trkpt lat="48.86738" lon="7.33739">
        <ele>338.7</ele>
        <time>2026-03-12T07:46:31Z</time>
      </trkpt>
      <trkpt lat="48.86735" lon="7.33732">
        <ele>338.6</ele>
        <time>2026-03-12T07:46:36Z</time>
      </trkpt>
      <trkpt lat="48.86732" lon="7.33725">
        <ele>338.5</ele>
        <time>2026-03-12T07:46:41Z</time>
      </trkpt>
      <trkpt lat="48.86726" lon="7.33718">
        <ele>338.1</ele>
        <time>2026-03-12T07:46:46Z</time>
      </trkpt>
      <trkpt lat="48.86722" lon="7.3371">
        <ele>338.3</ele>
        <time>2026-03-12T07:46:51Z</time>
      </trkpt>
      <trkpt lat="48.86719" lon="7.33702">
        <ele>338.8</ele>
        <time>2026-03-12T07:46:56Z</time>
      </trkpt>
      <trkpt lat="48.86716" lon="7.33694">
        <ele>339.4</ele>
        <time>2026-03-12T07:47:01Z</time>
      </trkpt>
      <trkpt lat="48.86712" lon="7.33688">
        <ele>339.7</ele>
        <time>2026-03-12T07:47:06Z</time>
      </trkpt>
      <trkpt lat="48.86707" lon="7.33681">
        <ele>340.2</ele>
        <time>2026-03-12T07:47:11Z</time>
      </trkpt>
      <trkpt lat="48.867" lon="7.33674">
        <ele>340.8</ele>
        <time>2026-03-12T07:47:16Z</time>
      </trkpt>
      <trkpt lat="48.86698" lon="7.33668">
        <ele>341.6</ele>
        <time>2026-03-12T07:47:21Z</time>
      </trkpt>
      <trkpt lat="48.86692" lon="7.33664">
        <ele>341.7</ele>
        <time>2026-03-12T07:47:26Z</time>
      </trkpt>
      <trkpt lat="48.86686" lon="7.33657">
        <ele>342.1</ele>
        <time>2026-03-12T07:47:31Z</time>
      </trkpt>
      <trkpt lat="48.86681" lon="7.33654">
        <ele>342.3</ele>
        <time>2026-03-12T07:47:36Z</time>
      </trkpt>
      <trkpt lat="48.86677" lon="7.33649">
        <ele>342.8</ele>
        <time>2026-03-12T07:47:41Z</time>
      </trkpt>
      <trkpt lat="48.86675" lon="7.33646">
        <ele>343.2</ele>
        <time>2026-03-12T07:47:46Z</time>
      </trkpt>
      <trkpt lat="48.86672" lon="7.33644">
        <ele>343.5</ele>
        <time>2026-03-12T07:47:51Z</time>
      </trkpt>
      <trkpt lat="48.86666" lon="7.33645">
        <ele>343.3</ele>
        <time>2026-03-12T07:47:56Z</time>
      </trkpt>
      <trkpt lat="48.86661" lon="7.33641">
        <ele>343.4</ele>
        <time>2026-03-12T07:48:01Z</time>
      </trkpt>
      <trkpt lat="48.86657" lon="7.3364">
        <ele>343.1</ele>
        <time>2026-03-12T07:48:06Z</time>
      </trkpt>
      <trkpt lat="48.86655" lon="7.33638">
        <ele>343.2</ele>
        <time>2026-03-12T07:48:11Z</time>
      </trkpt>
      <trkpt lat="48.86654" lon="7.33637">
        <ele>343.3</ele>
        <time>2026-03-12T07:48:16Z</time>
      </trkpt>
      <trkpt lat="48.86646" lon="7.33637">
        <ele>342.4</ele>
        <time>2026-03-12T07:48:21Z</time>
      </trkpt>
      <trkpt lat="48.86642" lon="7.33637">
        <ele>342</ele>
        <time>2026-03-12T07:48:26Z</time>
      </trkpt>
      <trkpt lat="48.86638" lon="7.33638">
        <ele>341.4</ele>
        <time>2026-03-12T07:48:31Z</time>
      </trkpt>
      <trkpt lat="48.86636" lon="7.33638">
        <ele>341.2</ele>
        <time>2026-03-12T07:48:36Z</time>
      </trkpt>
      <trkpt lat="48.86634" lon="7.33638">
        <ele>341</ele>
        <time>2026-03-12T07:48:41Z</time>
      </trkpt>
      <trkpt lat="48.86634" lon="7.33638">
        <ele>341</ele>
        <time>2026-03-12T07:48:46Z</time>
      </trkpt>
      <trkpt lat="48.86634" lon="7.33638">
        <ele>341</ele>
        <time>2026-03-12T07:48:51Z</time>
      </trkpt>
      <trkpt lat="48.86634" lon="7.33638">
        <ele>341</ele>
        <time>2026-03-12T07:48:56Z</time>
      </trkpt>
      <trkpt lat="48.86634" lon="7.33638">
        <ele>341</ele>
        <time>2026-03-12T07:49:01Z</time>
      </trkpt>
      <trkpt lat="48.86634" lon="7.33638">
        <ele>341</ele>
        <time>2026-03-12T07:49:06Z</time>
      </trkpt>
      <trkpt lat="48.86634" lon="7.33638">
        <ele>341</ele>
        <time>2026-03-12T07:49:11Z</time>
      </trkpt>
      <trkpt lat="48.86634" lon="7.33638">
        <ele>341</ele>
        <time>2026-03-12T07:49:16Z</time>
      </trkpt>
      <trkpt lat="48.86634" lon="7.33638">
        <ele>341</ele>
        <time>2026-03-12T07:49:21Z</time>
      </trkpt>
      <trkpt lat="48.86634" lon="7.33638">
        <ele>341</ele>
        <time>2026-03-12T07:49:26Z</time>
      </trkpt>
      <trkpt lat="48.86634" lon="7.33638">
        <ele>341</ele>
        <time>2026-03-12T07:49:31Z</time>
      </trkpt>
      <trkpt lat="48.86632" lon="7.33633">
        <ele>341.7</ele>
        <time>2026-03-12T07:49:36Z</time>
      </trkpt>
      <trkpt lat="48.86627" lon="7.33631">
        <ele>341.6</ele>
        <time>2026-03-12T07:49:41Z</time>
      </trkpt>
      <trkpt lat="48.86623" lon="7.33633">
        <ele>340.8</ele>
        <time>2026-03-12T07:49:46Z</time>
      </trkpt>
      <trkpt lat="48.8662" lon="7.33637">
        <ele>339.7</ele>
        <time>2026-03-12T07:49:51Z</time>
      </trkpt>
      <trkpt lat="48.86613" lon="7.33636">
        <ele>339.1</ele>
        <time>2026-03-12T07:49:56Z</time>
      </trkpt>
      <trkpt lat="48.86606" lon="7.33631">
        <ele>339.4</ele>
        <time>2026-03-12T07:50:01Z</time>
      </trkpt>
      <trkpt lat="48.866" lon="7.33627">
        <ele>339.7</ele>
        <time>2026-03-12T07:50:06Z</time>
      </trkpt>
      <trkpt lat="48.86595" lon="7.33624">
        <ele>339.8</ele>
        <time>2026-03-12T07:50:11Z</time>
      </trkpt>
      <trkpt lat="48.8659" lon="7.33622">
        <ele>339.8</ele>
        <time>2026-03-12T07:50:16Z</time>
      </trkpt>
      <trkpt lat="48.86584" lon="7.33615">
        <ele>340.8</ele>
        <time>2026-03-12T07:50:21Z</time>
      </trkpt>
      <trkpt lat="48.86577" lon="7.33609">
        <ele>342</ele>
        <time>2026-03-12T07:50:26Z</time>
      </trkpt>
      <trkpt lat="48.86573" lon="7.33603">
        <ele>343.2</ele>
        <time>2026-03-12T07:50:31Z</time>
      </trkpt>
      <trkpt lat="48.86569" lon="7.33596">
        <ele>344.7</ele>
        <time>2026-03-12T07:50:36Z</time>
      </trkpt>
      <trkpt lat="48.86567" lon="7.33586">
        <ele>347</ele>
        <time>2026-03-12T07:50:41Z</time>
      </trkpt>
      <trkpt lat="48.86563" lon="7.33576">
        <ele>348.5</ele>
        <time>2026-03-12T07:50:46Z</time>
      </trkpt>
      <trkpt lat="48.86557" lon="7.33567">
        <ele>349.8</ele>
        <time>2026-03-12T07:50:51Z</time>
      </trkpt>
      <trkpt lat="48.86551" lon="7.33562">
        <ele>350.5</ele>
        <time>2026-03-12T07:50:56Z</time>
      </trkpt>
      <trkpt lat="48.86544" lon="7.33559">
        <ele>350.9</ele>
        <time>2026-03-12T07:51:01Z</time>
      </trkpt>
      <trkpt lat="48.86539" lon="7.33554">
        <ele>351.8</ele>
        <time>2026-03-12T07:51:06Z</time>
      </trkpt>
      <trkpt lat="48.86533" lon="7.33546">
        <ele>353.2</ele>
        <time>2026-03-12T07:51:11Z</time>
      </trkpt>
      <trkpt lat="48.86529" lon="7.33539">
        <ele>354.4</ele>
        <time>2026-03-12T07:51:16Z</time>
      </trkpt>
      <trkpt lat="48.86523" lon="7.33532">
        <ele>355.8</ele>
        <time>2026-03-12T07:51:21Z</time>
      </trkpt>
      <trkpt lat="48.86519" lon="7.33528">
        <ele>356.7</ele>
        <time>2026-03-12T07:51:26Z</time>
      </trkpt>
      <trkpt lat="48.86513" lon="7.33524">
        <ele>357.6</ele>
        <time>2026-03-12T07:51:31Z</time>
      </trkpt>
      <trkpt lat="48.86505" lon="7.33519">
        <ele>358.9</ele>
        <time>2026-03-12T07:51:36Z</time>
      </trkpt>
      <trkpt lat="48.86498" lon="7.33517">
        <ele>359.4</ele>
        <time>2026-03-12T07:51:41Z</time>
      </trkpt>
      <trkpt lat="48.86493" lon="7.33515">
        <ele>359.6</ele>
        <time>2026-03-12T07:51:46Z</time>
      </trkpt>
      <trkpt lat="48.86488" lon="7.33511">
        <ele>360.1</ele>
        <time>2026-03-12T07:51:51Z</time>
      </trkpt>
      <trkpt lat="48.86482" lon="7.33509">
        <ele>360.2</ele>
        <time>2026-03-12T07:51:56Z</time>
      </trkpt>
      <trkpt lat="48.86475" lon="7.33507">
        <ele>360.2</ele>
        <time>2026-03-12T07:52:01Z</time>
      </trkpt>
      <trkpt lat="48.8647" lon="7.33504">
        <ele>360.5</ele>
        <time>2026-03-12T07:52:06Z</time>
      </trkpt>
      <trkpt lat="48.86464" lon="7.335">
        <ele>360.8</ele>
        <time>2026-03-12T07:52:11Z</time>
      </trkpt>
      <trkpt lat="48.86461" lon="7.33499">
        <ele>360.7</ele>
        <time>2026-03-12T07:52:16Z</time>
      </trkpt>
      <trkpt lat="48.86458" lon="7.33495">
        <ele>360.5</ele>
        <time>2026-03-12T07:52:21Z</time>
      </trkpt>
      <trkpt lat="48.86454" lon="7.33492">
        <ele>360.3</ele>
        <time>2026-03-12T07:52:26Z</time>
      </trkpt>
      <trkpt lat="48.86449" lon="7.33489">
        <ele>360.1</ele>
        <time>2026-03-12T07:52:31Z</time>
      </trkpt>
      <trkpt lat="48.86444" lon="7.33487">
        <ele>359.8</ele>
        <time>2026-03-12T07:52:36Z</time>
      </trkpt>
      <trkpt lat="48.86437" lon="7.33485">
        <ele>359.5</ele>
        <time>2026-03-12T07:52:41Z</time>
      </trkpt>
      <trkpt lat="48.86432" lon="7.33485">
        <ele>359.2</ele>
        <time>2026-03-12T07:52:46Z</time>
      </trkpt>
      <trkpt lat="48.86426" lon="7.33482">
        <ele>358.9</ele>
        <time>2026-03-12T07:52:51Z</time>
      </trkpt>
      <trkpt lat="48.86418" lon="7.33482">
        <ele>358.5</ele>
        <time>2026-03-12T07:52:56Z</time>
      </trkpt>
      <trkpt lat="48.8641" lon="7.3348">
        <ele>358.5</ele>
        <time>2026-03-12T07:53:01Z</time>
      </trkpt>
      <trkpt lat="48.86404" lon="7.3348">
        <ele>358.6</ele>
        <time>2026-03-12T07:53:06Z</time>
      </trkpt>
      <trkpt lat="48.86399" lon="7.3348">
        <ele>358.6</ele>
        <time>2026-03-12T07:53:11Z</time>
      </trkpt>
      <trkpt lat="48.86393" lon="7.3348">
        <ele>358.7</ele>
        <time>2026-03-12T07:53:16Z</time>
      </trkpt>
      <trkpt lat="48.86388" lon="7.3348">
        <ele>358.7</ele>
        <time>2026-03-12T07:53:21Z</time>
      </trkpt>
      <trkpt lat="48.86379" lon="7.33484">
        <ele>358.7</ele>
        <time>2026-03-12T07:53:26Z</time>
      </trkpt>
      <trkpt lat="48.86372" lon="7.33488">
        <ele>358.7</ele>
        <time>2026-03-12T07:53:31Z</time>
      </trkpt>
      <trkpt lat="48.86364" lon="7.3349">
        <ele>358.8</ele>
        <time>2026-03-12T07:53:36Z</time>
      </trkpt>
      <trkpt lat="48.86357" lon="7.3349">
        <ele>358.9</ele>
        <time>2026-03-12T07:53:41Z</time>
      </trkpt>
      <trkpt lat="48.8635" lon="7.33493">
        <ele>358.9</ele>
        <time>2026-03-12T07:53:46Z</time>
      </trkpt>
      <trkpt lat="48.86343" lon="7.33494">
        <ele>359</ele>
        <time>2026-03-12T07:53:51Z</time>
      </trkpt>
      <trkpt lat="48.86334" lon="7.33499">
        <ele>359</ele>
        <time>2026-03-12T07:53:56Z</time>
      </trkpt>
      <trkpt lat="48.86327" lon="7.33502">
        <ele>358.7</ele>
        <time>2026-03-12T07:54:01Z</time>
      </trkpt>
      <trkpt lat="48.86319" lon="7.33504">
        <ele>358.5</ele>
        <time>2026-03-12T07:54:06Z</time>
      </trkpt>
      <trkpt lat="48.86312" lon="7.33505">
        <ele>358.2</ele>
        <time>2026-03-12T07:54:11Z</time>
      </trkpt>
      <trkpt lat="48.86305" lon="7.33508">
        <ele>357.8</ele>
        <time>2026-03-12T07:54:16Z</time>
      </trkpt>
      <trkpt lat="48.86298" lon="7.3351">
        <ele>357.5</ele>
        <time>2026-03-12T07:54:21Z</time>
      </trkpt>
      <trkpt lat="48.86293" lon="7.33513">
        <ele>357</ele>
        <time>2026-03-12T07:54:26Z</time>
      </trkpt>
      <trkpt lat="48.86287" lon="7.33517">
        <ele>356.4</ele>
        <time>2026-03-12T07:54:31Z</time>
      </trkpt>
      <trkpt lat="48.86282" lon="7.33517">
        <ele>356.3</ele>
        <time>2026-03-12T07:54:36Z</time>
      </trkpt>
      <trkpt lat="48.86275" lon="7.33518">
        <ele>356</ele>
        <time>2026-03-12T07:54:41Z</time>
      </trkpt>
      <trkpt lat="48.86267" lon="7.33521">
        <ele>355.4</ele>
        <time>2026-03-12T07:54:46Z</time>
      </trkpt>
      <trkpt lat="48.86261" lon="7.33523">
        <ele>355</ele>
        <time>2026-03-12T07:54:51Z</time>
      </trkpt>
      <trkpt lat="48.86254" lon="7.33526">
        <ele>354.4</ele>
        <time>2026-03-12T07:54:56Z</time>
      </trkpt>
      <trkpt lat="48.86247" lon="7.33528">
        <ele>354.3</ele>
        <time>2026-03-12T07:55:01Z</time>
      </trkpt>
      <trkpt lat="48.86239" lon="7.3353">
        <ele>354.9</ele>
        <time>2026-03-12T07:55:06Z</time>
      </trkpt>
      <trkpt lat="48.86232" lon="7.3353">
        <ele>355.6</ele>
        <time>2026-03-12T07:55:11Z</time>
      </trkpt>
      <trkpt lat="48.86226" lon="7.33529">
        <ele>356.4</ele>
        <time>2026-03-12T07:55:16Z</time>
      </trkpt>
      <trkpt lat="48.86219" lon="7.33528">
        <ele>357.3</ele>
        <time>2026-03-12T07:55:21Z</time>
      </trkpt>
      <trkpt lat="48.86214" lon="7.33525">
        <ele>358.3</ele>
        <time>2026-03-12T07:55:26Z</time>
      </trkpt>
      <trkpt lat="48.86208" lon="7.33523">
        <ele>359.2</ele>
        <time>2026-03-12T07:55:31Z</time>
      </trkpt>
      <trkpt lat="48.86204" lon="7.3352">
        <ele>360.1</ele>
        <time>2026-03-12T07:55:36Z</time>
      </trkpt>
      <trkpt lat="48.86198" lon="7.33518">
        <ele>361</ele>
        <time>2026-03-12T07:55:41Z</time>
      </trkpt>
      <trkpt lat="48.86192" lon="7.33517">
        <ele>361.8</ele>
        <time>2026-03-12T07:55:46Z</time>
      </trkpt>
      <trkpt lat="48.86185" lon="7.33513">
        <ele>363.1</ele>
        <time>2026-03-12T07:55:51Z</time>
      </trkpt>
      <trkpt lat="48.86178" lon="7.33509">
        <ele>364.5</ele>
        <time>2026-03-12T07:55:56Z</time>
      </trkpt>
      <trkpt lat="48.86173" lon="7.33506">
        <ele>365.5</ele>
        <time>2026-03-12T07:56:01Z</time>
      </trkpt>
      <trkpt lat="48.86167" lon="7.33503">
        <ele>366.5</ele>
        <time>2026-03-12T07:56:06Z</time>
      </trkpt>
      <trkpt lat="48.86162" lon="7.335">
        <ele>367.4</ele>
        <time>2026-03-12T07:56:11Z</time>
      </trkpt>
      <trkpt lat="48.86155" lon="7.33494">
        <ele>368.7</ele>
        <time>2026-03-12T07:56:16Z</time>
      </trkpt>
      <trkpt lat="48.8615" lon="7.33491">
        <ele>369.4</ele>
        <time>2026-03-12T07:56:21Z</time>
      </trkpt>
      <trkpt lat="48.86145" lon="7.33488">
        <ele>370.2</ele>
        <time>2026-03-12T07:56:26Z</time>
      </trkpt>
      <trkpt lat="48.8614" lon="7.33485">
        <ele>370.8</ele>
        <time>2026-03-12T07:56:31Z</time>
      </trkpt>
      <trkpt lat="48.86136" lon="7.33487">
        <ele>371</ele>
        <time>2026-03-12T07:56:36Z</time>
      </trkpt>
      <trkpt lat="48.86132" lon="7.33491">
        <ele>371</ele>
        <time>2026-03-12T07:56:41Z</time>
      </trkpt>
      <trkpt lat="48.86127" lon="7.33494">
        <ele>371.3</ele>
        <time>2026-03-12T07:56:46Z</time>
      </trkpt>
      <trkpt lat="48.86123" lon="7.33497">
        <ele>371.4</ele>
        <time>2026-03-12T07:56:51Z</time>
      </trkpt>
      <trkpt lat="48.86118" lon="7.33499">
        <ele>371.7</ele>
        <time>2026-03-12T07:56:56Z</time>
      </trkpt>
      <trkpt lat="48.86114" lon="7.335">
        <ele>372.1</ele>
        <time>2026-03-12T07:57:01Z</time>
      </trkpt>
      <trkpt lat="48.8611" lon="7.33502">
        <ele>372.2</ele>
        <time>2026-03-12T07:57:06Z</time>
      </trkpt>
      <trkpt lat="48.86106" lon="7.33504">
        <ele>372.5</ele>
        <time>2026-03-12T07:57:11Z</time>
      </trkpt>
      <trkpt lat="48.86102" lon="7.33507">
        <ele>372.6</ele>
        <time>2026-03-12T07:57:16Z</time>
      </trkpt>
      <trkpt lat="48.86098" lon="7.33509">
        <ele>372.8</ele>
        <time>2026-03-12T07:57:21Z</time>
      </trkpt>
      <trkpt lat="48.86093" lon="7.3351">
        <ele>373.3</ele>
        <time>2026-03-12T07:57:26Z</time>
      </trkpt>
      <trkpt lat="48.86088" lon="7.33513">
        <ele>373.6</ele>
        <time>2026-03-12T07:57:31Z</time>
      </trkpt>
      <trkpt lat="48.86082" lon="7.33515">
        <ele>373.8</ele>
        <time>2026-03-12T07:57:36Z</time>
      </trkpt>
      <trkpt lat="48.86076" lon="7.33516">
        <ele>372.9</ele>
        <time>2026-03-12T07:57:41Z</time>
      </trkpt>
      <trkpt lat="48.86069" lon="7.33518">
        <ele>372</ele>
        <time>2026-03-12T07:57:46Z</time>
      </trkpt>
      <trkpt lat="48.86063" lon="7.33518">
        <ele>371.2</ele>
        <time>2026-03-12T07:57:51Z</time>
      </trkpt>
      <trkpt lat="48.86058" lon="7.33516">
        <ele>370.7</ele>
        <time>2026-03-12T07:57:56Z</time>
      </trkpt>
      <trkpt lat="48.86053" lon="7.33511">
        <ele>370.4</ele>
        <time>2026-03-12T07:58:01Z</time>
      </trkpt>
      <trkpt lat="48.86049" lon="7.33505">
        <ele>370.2</ele>
        <time>2026-03-12T07:58:06Z</time>
      </trkpt>
      <trkpt lat="48.86046" lon="7.33498">
        <ele>370.2</ele>
        <time>2026-03-12T07:58:11Z</time>
      </trkpt>
      <trkpt lat="48.86047" lon="7.33491">
        <ele>370.6</ele>
        <time>2026-03-12T07:58:16Z</time>
      </trkpt>
      <trkpt lat="48.86047" lon="7.33484">
        <ele>370.9</ele>
        <time>2026-03-12T07:58:21Z</time>
      </trkpt>
      <trkpt lat="48.86048" lon="7.33478">
        <ele>371.4</ele>
        <time>2026-03-12T07:58:26Z</time>
      </trkpt>
      <trkpt lat="48.86047" lon="7.3347">
        <ele>371.6</ele>
        <time>2026-03-12T07:58:31Z</time>
      </trkpt>
      <trkpt lat="48.86048" lon="7.33462">
        <ele>372.1</ele>
        <time>2026-03-12T07:58:36Z</time>
      </trkpt>
      <trkpt lat="48.86049" lon="7.33453">
        <ele>372.6</ele>
        <time>2026-03-12T07:58:41Z</time>
      </trkpt>
      <trkpt lat="48.8605" lon="7.33443">
        <ele>373.2</ele>
        <time>2026-03-12T07:58:46Z</time>
      </trkpt>
      <trkpt lat="48.8605" lon="7.33433">
        <ele>373.7</ele>
        <time>2026-03-12T07:58:51Z</time>
      </trkpt>
      <trkpt lat="48.8605" lon="7.33424">
        <ele>374.1</ele>
        <time>2026-03-12T07:58:56Z</time>
      </trkpt>
      <trkpt lat="48.8605" lon="7.33415">
        <ele>374.5</ele>
        <time>2026-03-12T07:59:01Z</time>
      </trkpt>
      <trkpt lat="48.8605" lon="7.33406">
        <ele>374.8</ele>
        <time>2026-03-12T07:59:06Z</time>
      </trkpt>
      <trkpt lat="48.86049" lon="7.33397">
        <ele>374.9</ele>
        <time>2026-03-12T07:59:11Z</time>
      </trkpt>
      <trkpt lat="48.86049" lon="7.33388">
        <ele>375.2</ele>
        <time>2026-03-12T07:59:16Z</time>
      </trkpt>
      <trkpt lat="48.86049" lon="7.3338">
        <ele>375.5</ele>
        <time>2026-03-12T07:59:21Z</time>
      </trkpt>
      <trkpt lat="48.8605" lon="7.33378">
        <ele>375.7</ele>
        <time>2026-03-12T07:59:26Z</time>
      </trkpt>
      <trkpt lat="48.86046" lon="7.33377">
        <ele>375.2</ele>
        <time>2026-03-12T07:59:31Z</time>
      </trkpt>
      <trkpt lat="48.86041" lon="7.33372">
        <ele>374.8</ele>
        <time>2026-03-12T07:59:36Z</time>
      </trkpt>
      <trkpt lat="48.86035" lon="7.33368">
        <ele>374.1</ele>
        <time>2026-03-12T07:59:41Z</time>
      </trkpt>
      <trkpt lat="48.8603" lon="7.33365">
        <ele>373.5</ele>
        <time>2026-03-12T07:59:46Z</time>
      </trkpt>
      <trkpt lat="48.86025" lon="7.33364">
        <ele>372.9</ele>
        <time>2026-03-12T07:59:51Z</time>
      </trkpt>
      <trkpt lat="48.86022" lon="7.33363">
        <ele>372.5</ele>
        <time>2026-03-12T07:59:56Z</time>
      </trkpt>
      <trkpt lat="48.86022" lon="7.33363">
        <ele>372.5</ele>
        <time>2026-03-12T08:00:01Z</time>
      </trkpt>
      <trkpt lat="48.86022" lon="7.33363">
        <ele>372.5</ele>
        <time>2026-03-12T08:00:06Z</time>
      </trkpt>
      <trkpt lat="48.86022" lon="7.33363">
        <ele>372.5</ele>
        <time>2026-03-12T08:00:11Z</time>
      </trkpt>
      <trkpt lat="48.86022" lon="7.33363">
        <ele>372.5</ele>
        <time>2026-03-12T08:00:16Z</time>
      </trkpt>
      <trkpt lat="48.86022" lon="7.33363">
        <ele>372.5</ele>
        <time>2026-03-12T08:00:21Z</time>
      </trkpt>
      <trkpt lat="48.86022" lon="7.33363">
        <ele>372.5</ele>
        <time>2026-03-12T08:00:26Z</time>
      </trkpt>
      <trkpt lat="48.86022" lon="7.33363">
        <ele>372.5</ele>
        <time>2026-03-12T08:00:31Z</time>
      </trkpt>
      <trkpt lat="48.86032" lon="7.33362">
        <ele>373.9</ele>
        <time>2026-03-12T08:00:36Z</time>
      </trkpt>
      <trkpt lat="48.86036" lon="7.33355">
        <ele>374.6</ele>
        <time>2026-03-12T08:00:41Z</time>
      </trkpt>
      <trkpt lat="48.86041" lon="7.33349">
        <ele>375.4</ele>
        <time>2026-03-12T08:00:46Z</time>
      </trkpt>
      <trkpt lat="48.86043" lon="7.33345">
        <ele>375.8</ele>
        <time>2026-03-12T08:00:51Z</time>
      </trkpt>
      <trkpt lat="48.86044" lon="7.33333">
        <ele>376.3</ele>
        <time>2026-03-12T08:00:56Z</time>
      </trkpt>
      <trkpt lat="48.86044" lon="7.33324">
        <ele>376.5</ele>
        <time>2026-03-12T08:01:01Z</time>
      </trkpt>
      <trkpt lat="48.86041" lon="7.33313">
        <ele>376.1</ele>
        <time>2026-03-12T08:01:06Z</time>
      </trkpt>
      <trkpt lat="48.8604" lon="7.33307">
        <ele>376.1</ele>
        <time>2026-03-12T08:01:11Z</time>
      </trkpt>
      <trkpt lat="48.86038" lon="7.33304">
        <ele>375.8</ele>
        <time>2026-03-12T08:01:16Z</time>
      </trkpt>
      <trkpt lat="48.86037" lon="7.33303">
        <ele>375.7</ele>
        <time>2026-03-12T08:01:21Z</time>
      </trkpt>
      <trkpt lat="48.86037" lon="7.33299">
        <ele>375.7</ele>
        <time>2026-03-12T08:01:26Z</time>
      </trkpt>
      <trkpt lat="48.86037" lon="7.3329">
        <ele>375.8</ele>
        <time>2026-03-12T08:01:31Z</time>
      </trkpt>
      <trkpt lat="48.86035" lon="7.33279">
        <ele>375.6</ele>
        <time>2026-03-12T08:01:36Z</time>
      </trkpt>
      <trkpt lat="48.86035" lon="7.3327">
        <ele>375.7</ele>
        <time>2026-03-12T08:01:41Z</time>
      </trkpt>
      <trkpt lat="48.86034" lon="7.33261">
        <ele>375.6</ele>
        <time>2026-03-12T08:01:46Z</time>
      </trkpt>
      <trkpt lat="48.86031" lon="7.33257">
        <ele>375.1</ele>
        <time>2026-03-12T08:01:51Z</time>
      </trkpt>
      <trkpt lat="48.86029" lon="7.33248">
        <ele>374.9</ele>
        <time>2026-03-12T08:01:56Z</time>
      </trkpt>
      <trkpt lat="48.86026" lon="7.3324">
        <ele>374.6</ele>
        <time>2026-03-12T08:02:01Z</time>
      </trkpt>
      <trkpt lat="48.86024" lon="7.33231">
        <ele>374.4</ele>
        <time>2026-03-12T08:02:06Z</time>
      </trkpt>
      <trkpt lat="48.86021" lon="7.33221">
        <ele>374.1</ele>
        <time>2026-03-12T08:02:11Z</time>
      </trkpt>
      <trkpt lat="48.86017" lon="7.33211">
        <ele>373.7</ele>
        <time>2026-03-12T08:02:16Z</time>
      </trkpt>
      <trkpt lat="48.86014" lon="7.33201">
        <ele>373.4</ele>
        <time>2026-03-12T08:02:21Z</time>
      </trkpt>
      <trkpt lat="48.8601" lon="7.33192">
        <ele>373</ele>
        <time>2026-03-12T08:02:26Z</time>
      </trkpt>
      <trkpt lat="48.86007" lon="7.33184">
        <ele>372.7</ele>
        <time>2026-03-12T08:02:31Z</time>
      </trkpt>
      <trkpt lat="48.86005" lon="7.33174">
        <ele>372.6</ele>
        <time>2026-03-12T08:02:36Z</time>
      </trkpt>
      <trkpt lat="48.86001" lon="7.33162">
        <ele>372.4</ele>
        <time>2026-03-12T08:02:41Z</time>
      </trkpt>
      <trkpt lat="48.85998" lon="7.33151">
        <ele>372.2</ele>
        <time>2026-03-12T08:02:46Z</time>
      </trkpt>
      <trkpt lat="48.85997" lon="7.33141">
        <ele>372.4</ele>
        <time>2026-03-12T08:02:51Z</time>
      </trkpt>
      <trkpt lat="48.85994" lon="7.33131">
        <ele>371.9</ele>
        <time>2026-03-12T08:02:56Z</time>
      </trkpt>
      <trkpt lat="48.85991" lon="7.33123">
        <ele>371.2</ele>
        <time>2026-03-12T08:03:01Z</time>
      </trkpt>
      <trkpt lat="48.8599" lon="7.33114">
        <ele>371.4</ele>
        <time>2026-03-12T08:03:06Z</time>
      </trkpt>
      <trkpt lat="48.85987" lon="7.33102">
        <ele>370.9</ele>
        <time>2026-03-12T08:03:11Z</time>
      </trkpt>
      <trkpt lat="48.85986" lon="7.33095">
        <ele>370.9</ele>
        <time>2026-03-12T08:03:16Z</time>
      </trkpt>
      <trkpt lat="48.85984" lon="7.33084">
        <ele>370.8</ele>
        <time>2026-03-12T08:03:21Z</time>
      </trkpt>
      <trkpt lat="48.85981" lon="7.33072">
        <ele>370.2</ele>
        <time>2026-03-12T08:03:26Z</time>
      </trkpt>
      <trkpt lat="48.8598" lon="7.33064">
        <ele>370.2</ele>
        <time>2026-03-12T08:03:31Z</time>
      </trkpt>
      <trkpt lat="48.85978" lon="7.33054">
        <ele>370</ele>
        <time>2026-03-12T08:03:36Z</time>
      </trkpt>
      <trkpt lat="48.85978" lon="7.33044">
        <ele>370.5</ele>
        <time>2026-03-12T08:03:41Z</time>
      </trkpt>
      <trkpt lat="48.85978" lon="7.33035">
        <ele>370.9</ele>
        <time>2026-03-12T08:03:46Z</time>
      </trkpt>
      <trkpt lat="48.85978" lon="7.33026">
        <ele>371.3</ele>
        <time>2026-03-12T08:03:51Z</time>
      </trkpt>
      <trkpt lat="48.85978" lon="7.33017">
        <ele>371.8</ele>
        <time>2026-03-12T08:03:56Z</time>
      </trkpt>
      <trkpt lat="48.85976" lon="7.33006">
        <ele>371.6</ele>
        <time>2026-03-12T08:04:01Z</time>
      </trkpt>
      <trkpt lat="48.85976" lon="7.32996">
        <ele>372.2</ele>
        <time>2026-03-12T08:04:06Z</time>
      </trkpt>
      <trkpt lat="48.85975" lon="7.32986">
        <ele>372.4</ele>
        <time>2026-03-12T08:04:11Z</time>
      </trkpt>
      <trkpt lat="48.85973" lon="7.32976">
        <ele>372.4</ele>
        <time>2026-03-12T08:04:16Z</time>
      </trkpt>
      <trkpt lat="48.85972" lon="7.32964">
        <ele>372.8</ele>
        <time>2026-03-12T08:04:21Z</time>
      </trkpt>
      <trkpt lat="48.85971" lon="7.32951">
        <ele>373.2</ele>
        <time>2026-03-12T08:04:26Z</time>
      </trkpt>
      <trkpt lat="48.85971" lon="7.3294">
        <ele>373.9</ele>
        <time>2026-03-12T08:04:31Z</time>
      </trkpt>
      <trkpt lat="48.85971" lon="7.32927">
        <ele>374.7</ele>
        <time>2026-03-12T08:04:36Z</time>
      </trkpt>
      <trkpt lat="48.85968" lon="7.32918">
        <ele>374.5</ele>
        <time>2026-03-12T08:04:41Z</time>
      </trkpt>
      <trkpt lat="48.85966" lon="7.32908">
        <ele>374.3</ele>
        <time>2026-03-12T08:04:46Z</time>
      </trkpt>
      <trkpt lat="48.85961" lon="7.329">
        <ele>373.3</ele>
        <time>2026-03-12T08:04:51Z</time>
      </trkpt>
      <trkpt lat="48.85958" lon="7.32889">
        <ele>372.9</ele>
        <time>2026-03-12T08:04:56Z</time>
      </trkpt>
      <trkpt lat="48.85956" lon="7.32879">
        <ele>372.8</ele>
        <time>2026-03-12T08:05:01Z</time>
      </trkpt>
      <trkpt lat="48.85954" lon="7.32869">
        <ele>372.8</ele>
        <time>2026-03-12T08:05:06Z</time>
      </trkpt>
      <trkpt lat="48.8595" lon="7.32859">
        <ele>372.3</ele>
        <time>2026-03-12T08:05:11Z</time>
      </trkpt>
      <trkpt lat="48.85947" lon="7.32851">
        <ele>372</ele>
        <time>2026-03-12T08:05:16Z</time>
      </trkpt>
      <trkpt lat="48.85944" lon="7.32844">
        <ele>371.7</ele>
        <time>2026-03-12T08:05:21Z</time>
      </trkpt>
      <trkpt lat="48.85942" lon="7.3283">
        <ele>371.9</ele>
        <time>2026-03-12T08:05:26Z</time>
      </trkpt>
      <trkpt lat="48.85941" lon="7.3282">
        <ele>371.7</ele>
        <time>2026-03-12T08:05:31Z</time>
      </trkpt>
      <trkpt lat="48.8594" lon="7.32811">
        <ele>371.6</ele>
        <time>2026-03-12T08:05:36Z</time>
      </trkpt>
      <trkpt lat="48.85938" lon="7.32803">
        <ele>371.3</ele>
        <time>2026-03-12T08:05:41Z</time>
      </trkpt>
      <trkpt lat="48.85938" lon="7.32792">
        <ele>371.3</ele>
        <time>2026-03-12T08:05:46Z</time>
      </trkpt>
      <trkpt lat="48.85937" lon="7.32782">
        <ele>371.2</ele>
        <time>2026-03-12T08:05:51Z</time>
      </trkpt>
      <trkpt lat="48.85938" lon="7.32772">
        <ele>371.4</ele>
        <time>2026-03-12T08:05:56Z</time>
      </trkpt>
      <trkpt lat="48.85938" lon="7.3276">
        <ele>371.5</ele>
        <time>2026-03-12T08:06:01Z</time>
      </trkpt>
      <trkpt lat="48.8594" lon="7.32749">
        <ele>371.8</ele>
        <time>2026-03-12T08:06:06Z</time>
      </trkpt>
      <trkpt lat="48.85942" lon="7.32737">
        <ele>372.2</ele>
        <time>2026-03-12T08:06:11Z</time>
      </trkpt>
      <trkpt lat="48.85946" lon="7.32728">
        <ele>372.8</ele>
        <time>2026-03-12T08:06:16Z</time>
      </trkpt>
      <trkpt lat="48.85949" lon="7.3272">
        <ele>373.2</ele>
        <time>2026-03-12T08:06:21Z</time>
      </trkpt>
      <trkpt lat="48.85951" lon="7.3271">
        <ele>373.5</ele>
        <time>2026-03-12T08:06:26Z</time>
      </trkpt>
      <trkpt lat="48.85953" lon="7.32701">
        <ele>373.8</ele>
        <time>2026-03-12T08:06:31Z</time>
      </trkpt>
      <trkpt lat="48.85955" lon="7.3269">
        <ele>374</ele>
        <time>2026-03-12T08:06:36Z</time>
      </trkpt>
      <trkpt lat="48.85956" lon="7.32675">
        <ele>374.2</ele>
        <time>2026-03-12T08:06:41Z</time>
      </trkpt>
      <trkpt lat="48.85957" lon="7.32665">
        <ele>374.4</ele>
        <time>2026-03-12T08:06:46Z</time>
      </trkpt>
      <trkpt lat="48.85957" lon="7.32656">
        <ele>374.3</ele>
        <time>2026-03-12T08:06:51Z</time>
      </trkpt>
      <trkpt lat="48.85955" lon="7.32652">
        <ele>374.1</ele>
        <time>2026-03-12T08:06:56Z</time>
      </trkpt>
      <trkpt lat="48.85953" lon="7.32654">
        <ele>374</ele>
        <time>2026-03-12T08:07:01Z</time>
      </trkpt>
      <trkpt lat="48.85952" lon="7.32654">
        <ele>373.9</ele>
        <time>2026-03-12T08:07:06Z</time>
      </trkpt>
      <trkpt lat="48.85952" lon="7.32654">
        <ele>373.9</ele>
        <time>2026-03-12T08:07:11Z</time>
      </trkpt>
      <trkpt lat="48.85952" lon="7.32654">
        <ele>373.9</ele>
        <time>2026-03-12T08:07:16Z</time>
      </trkpt>
      <trkpt lat="48.85952" lon="7.32654">
        <ele>373.9</ele>
        <time>2026-03-12T08:07:21Z</time>
      </trkpt>
      <trkpt lat="48.85952" lon="7.32654">
        <ele>373.9</ele>
        <time>2026-03-12T08:07:26Z</time>
      </trkpt>
      <trkpt lat="48.85952" lon="7.32654">
        <ele>373.9</ele>
        <time>2026-03-12T08:07:31Z</time>
      </trkpt>
      <trkpt lat="48.85952" lon="7.32654">
        <ele>373.9</ele>
        <time>2026-03-12T08:07:36Z</time>
      </trkpt>
      <trkpt lat="48.85952" lon="7.32654">
        <ele>373.9</ele>
        <time>2026-03-12T08:07:41Z</time>
      </trkpt>
      <trkpt lat="48.85952" lon="7.32654">
        <ele>373.9</ele>
        <time>2026-03-12T08:07:46Z</time>
      </trkpt>
      <trkpt lat="48.85958" lon="7.32644">
        <ele>374.3</ele>
        <time>2026-03-12T08:07:51Z</time>
      </trkpt>
      <trkpt lat="48.8596" lon="7.32633">
        <ele>374.4</ele>
        <time>2026-03-12T08:07:56Z</time>
      </trkpt>
      <trkpt lat="48.85959" lon="7.32623">
        <ele>374.3</ele>
        <time>2026-03-12T08:08:01Z</time>
      </trkpt>
      <trkpt lat="48.85959" lon="7.32613">
        <ele>374.2</ele>
        <time>2026-03-12T08:08:06Z</time>
      </trkpt>
      <trkpt lat="48.85958" lon="7.32598">
        <ele>374.1</ele>
        <time>2026-03-12T08:08:11Z</time>
      </trkpt>
      <trkpt lat="48.85958" lon="7.32591">
        <ele>374</ele>
        <time>2026-03-12T08:08:16Z</time>
      </trkpt>
      <trkpt lat="48.85957" lon="7.32581">
        <ele>373.8</ele>
        <time>2026-03-12T08:08:21Z</time>
      </trkpt>
      <trkpt lat="48.85957" lon="7.32569">
        <ele>373.3</ele>
        <time>2026-03-12T08:08:26Z</time>
      </trkpt>
      <trkpt lat="48.85956" lon="7.32558">
        <ele>372.8</ele>
        <time>2026-03-12T08:08:31Z</time>
      </trkpt>
      <trkpt lat="48.85957" lon="7.32546">
        <ele>372.3</ele>
        <time>2026-03-12T08:08:36Z</time>
      </trkpt>
      <trkpt lat="48.85957" lon="7.32536">
        <ele>371.9</ele>
        <time>2026-03-12T08:08:41Z</time>
      </trkpt>
      <trkpt lat="48.85955" lon="7.32526">
        <ele>371.4</ele>
        <time>2026-03-12T08:08:46Z</time>
      </trkpt>
      <trkpt lat="48.85954" lon="7.32515">
        <ele>370.9</ele>
        <time>2026-03-12T08:08:51Z</time>
      </trkpt>
      <trkpt lat="48.85953" lon="7.32505">
        <ele>370.4</ele>
        <time>2026-03-12T08:08:56Z</time>
      </trkpt>
      <trkpt lat="48.85953" lon="7.32494">
        <ele>369.9</ele>
        <time>2026-03-12T08:09:01Z</time>
      </trkpt>
      <trkpt lat="48.85953" lon="7.32483">
        <ele>369.2</ele>
        <time>2026-03-12T08:09:06Z</time>
      </trkpt>
      <trkpt lat="48.85951" lon="7.32472">
        <ele>368.5</ele>
        <time>2026-03-12T08:09:11Z</time>
      </trkpt>
      <trkpt lat="48.85951" lon="7.32462">
        <ele>368</ele>
        <time>2026-03-12T08:09:16Z</time>
      </trkpt>
      <trkpt lat="48.85951" lon="7.32451">
        <ele>367.4</ele>
        <time>2026-03-12T08:09:21Z</time>
      </trkpt>
      <trkpt lat="48.85951" lon="7.32441">
        <ele>366.8</ele>
        <time>2026-03-12T08:09:26Z</time>
      </trkpt>
      <trkpt lat="48.8595" lon="7.32431">
        <ele>366.2</ele>
        <time>2026-03-12T08:09:31Z</time>
      </trkpt>
      <trkpt lat="48.85949" lon="7.3242">
        <ele>365.5</ele>
        <time>2026-03-12T08:09:36Z</time>
      </trkpt>
      <trkpt lat="48.85948" lon="7.32407">
        <ele>364.6</ele>
        <time>2026-03-12T08:09:41Z</time>
      </trkpt>
      <trkpt lat="48.85949" lon="7.32398">
        <ele>364</ele>
        <time>2026-03-12T08:09:46Z</time>
      </trkpt>
      <trkpt lat="48.85949" lon="7.32389">
        <ele>363.4</ele>
        <time>2026-03-12T08:09:51Z</time>
      </trkpt>
      <trkpt lat="48.85948" lon="7.32379">
        <ele>362.6</ele>
        <time>2026-03-12T08:09:56Z</time>
      </trkpt>
      <trkpt lat="48.85948" lon="7.32372">
        <ele>362.1</ele>
        <time>2026-03-12T08:10:01Z</time>
      </trkpt>
      <trkpt lat="48.85948" lon="7.32362">
        <ele>361.4</ele>
        <time>2026-03-12T08:10:06Z</time>
      </trkpt>
      <trkpt lat="48.85947" lon="7.32353">
        <ele>360.7</ele>
        <time>2026-03-12T08:10:11Z</time>
      </trkpt>
      <trkpt lat="48.85944" lon="7.32343">
        <ele>359.6</ele>
        <time>2026-03-12T08:10:16Z</time>
      </trkpt>
      <trkpt lat="48.85942" lon="7.32334">
        <ele>358.8</ele>
        <time>2026-03-12T08:10:21Z</time>
      </trkpt>
      <trkpt lat="48.85941" lon="7.32324">
        <ele>357.9</ele>
        <time>2026-03-12T08:10:26Z</time>
      </trkpt>
      <trkpt lat="48.85941" lon="7.32313">
        <ele>357.1</ele>
        <time>2026-03-12T08:10:31Z</time>
      </trkpt>
      <trkpt lat="48.85941" lon="7.32303">
        <ele>356.4</ele>
        <time>2026-03-12T08:10:36Z</time>
      </trkpt>
      <trkpt lat="48.85942" lon="7.32293">
        <ele>355.7</ele>
        <time>2026-03-12T08:10:41Z</time>
      </trkpt>
      <trkpt lat="48.85942" lon="7.32285">
        <ele>355.1</ele>
        <time>2026-03-12T08:10:46Z</time>
      </trkpt>
      <trkpt lat="48.85939" lon="7.32274">
        <ele>354.1</ele>
        <time>2026-03-12T08:10:51Z</time>
      </trkpt>
      <trkpt lat="48.85937" lon="7.32265">
        <ele>353.3</ele>
        <time>2026-03-12T08:10:56Z</time>
      </trkpt>
      <trkpt lat="48.85935" lon="7.32258">
        <ele>352.7</ele>
        <time>2026-03-12T08:11:01Z</time>
      </trkpt>
      <trkpt lat="48.85933" lon="7.32248">
        <ele>351.9</ele>
        <time>2026-03-12T08:11:06Z</time>
      </trkpt>
      <trkpt lat="48.85931" lon="7.32238">
        <ele>351.3</ele>
        <time>2026-03-12T08:11:11Z</time>
      </trkpt>
      <trkpt lat="48.85931" lon="7.32231">
        <ele>351</ele>
        <time>2026-03-12T08:11:16Z</time>
      </trkpt>
      <trkpt lat="48.85929" lon="7.3222">
        <ele>350.4</ele>
        <time>2026-03-12T08:11:21Z</time>
      </trkpt>
      <trkpt lat="48.85928" lon="7.32208">
        <ele>349.8</ele>
        <time>2026-03-12T08:11:26Z</time>
      </trkpt>
      <trkpt lat="48.85927" lon="7.32196">
        <ele>349.3</ele>
        <time>2026-03-12T08:11:31Z</time>
      </trkpt>
      <trkpt lat="48.8593" lon="7.32188">
        <ele>349</ele>
        <time>2026-03-12T08:11:36Z</time>
      </trkpt>
      <trkpt lat="48.85931" lon="7.3218">
        <ele>348.6</ele>
        <time>2026-03-12T08:11:41Z</time>
      </trkpt>
      <trkpt lat="48.85932" lon="7.32172">
        <ele>348.3</ele>
        <time>2026-03-12T08:11:46Z</time>
      </trkpt>
      <trkpt lat="48.85933" lon="7.32163">
        <ele>347.7</ele>
        <time>2026-03-12T08:11:51Z</time>
      </trkpt>
      <trkpt lat="48.85936" lon="7.32151">
        <ele>346.6</ele>
        <time>2026-03-12T08:11:56Z</time>
      </trkpt>
      <trkpt lat="48.85937" lon="7.32141">
        <ele>345.7</ele>
        <time>2026-03-12T08:12:01Z</time>
      </trkpt>
      <trkpt lat="48.85936" lon="7.32133">
        <ele>345</ele>
        <time>2026-03-12T08:12:06Z</time>
      </trkpt>
      <trkpt lat="48.85936" lon="7.3212">
        <ele>343.8</ele>
        <time>2026-03-12T08:12:11Z</time>
      </trkpt>
      <trkpt lat="48.85938" lon="7.32111">
        <ele>343</ele>
        <time>2026-03-12T08:12:16Z</time>
      </trkpt>
      <trkpt lat="48.85939" lon="7.32101">
        <ele>342.1</ele>
        <time>2026-03-12T08:12:21Z</time>
      </trkpt>
      <trkpt lat="48.85938" lon="7.32093">
        <ele>341.4</ele>
        <time>2026-03-12T08:12:26Z</time>
      </trkpt>
      <trkpt lat="48.85941" lon="7.32086">
        <ele>340.7</ele>
        <time>2026-03-12T08:12:31Z</time>
      </trkpt>
      <trkpt lat="48.85944" lon="7.32079">
        <ele>339.7</ele>
        <time>2026-03-12T08:12:36Z</time>
      </trkpt>
      <trkpt lat="48.85951" lon="7.32079">
        <ele>339.6</ele>
        <time>2026-03-12T08:12:41Z</time>
      </trkpt>
      <trkpt lat="48.85957" lon="7.32077">
        <ele>339.2</ele>
        <time>2026-03-12T08:12:46Z</time>
      </trkpt>
      <trkpt lat="48.85965" lon="7.32075">
        <ele>338.8</ele>
        <time>2026-03-12T08:12:51Z</time>
      </trkpt>
      <trkpt lat="48.8597" lon="7.32076">
        <ele>338.8</ele>
        <time>2026-03-12T08:12:56Z</time>
      </trkpt>
      <trkpt lat="48.85974" lon="7.32069">
        <ele>337.9</ele>
        <time>2026-03-12T08:13:01Z</time>
      </trkpt>
      <trkpt lat="48.8598" lon="7.32063">
        <ele>337.2</ele>
        <time>2026-03-12T08:13:06Z</time>
      </trkpt>
      <trkpt lat="48.85992" lon="7.32057">
        <ele>336.5</ele>
        <time>2026-03-12T08:13:11Z</time>
      </trkpt>
      <trkpt lat="48.85999" lon="7.32058">
        <ele>336.6</ele>
        <time>2026-03-12T08:13:16Z</time>
      </trkpt>
      <trkpt lat="48.86" lon="7.32061">
        <ele>336.9</ele>
        <time>2026-03-12T08:13:21Z</time>
      </trkpt>
      <trkpt lat="48.86003" lon="7.3206">
        <ele>336.8</ele>
        <time>2026-03-12T08:13:26Z</time>
      </trkpt>
      <trkpt lat="48.86006" lon="7.32064">
        <ele>337.2</ele>
        <time>2026-03-12T08:13:31Z</time>
      </trkpt>
      <trkpt lat="48.85993" lon="7.32058">
        <ele>336.6</ele>
        <time>2026-03-12T08:59:20Z</time>
      </trkpt>
      <trkpt lat="48.85988" lon="7.3206">
        <ele>336.8</ele>
        <time>2026-03-12T08:59:25Z</time>
      </trkpt>
      <trkpt lat="48.85982" lon="7.3206">
        <ele>336.8</ele>
        <time>2026-03-12T08:59:30Z</time>
      </trkpt>
      <trkpt lat="48.85977" lon="7.32063">
        <ele>337.2</ele>
        <time>2026-03-12T08:59:35Z</time>
      </trkpt>
      <trkpt lat="48.85972" lon="7.32067">
        <ele>337.7</ele>
        <time>2026-03-12T08:59:40Z</time>
      </trkpt>
      <trkpt lat="48.85966" lon="7.3207">
        <ele>338.1</ele>
        <time>2026-03-12T08:59:45Z</time>
      </trkpt>
      <trkpt lat="48.85959" lon="7.32076">
        <ele>339</ele>
        <time>2026-03-12T08:59:50Z</time>
      </trkpt>
      <trkpt lat="48.85953" lon="7.32078">
        <ele>339.4</ele>
        <time>2026-03-12T08:59:55Z</time>
      </trkpt>
      <trkpt lat="48.85948" lon="7.32079">
        <ele>339.6</ele>
        <time>2026-03-12T09:00:00Z</time>
      </trkpt>
      <trkpt lat="48.85944" lon="7.3208">
        <ele>339.9</ele>
        <time>2026-03-12T09:00:05Z</time>
      </trkpt>
      <trkpt lat="48.85938" lon="7.3208">
        <ele>340</ele>
        <time>2026-03-12T09:00:10Z</time>
      </trkpt>
      <trkpt lat="48.85935" lon="7.32084">
        <ele>340.6</ele>
        <time>2026-03-12T09:00:15Z</time>
      </trkpt>
      <trkpt lat="48.85937" lon="7.32086">
        <ele>340.8</ele>
        <time>2026-03-12T09:00:20Z</time>
      </trkpt>
      <trkpt lat="48.85937" lon="7.32087">
        <ele>340.8</ele>
        <time>2026-03-12T09:00:25Z</time>
      </trkpt>
      <trkpt lat="48.85935" lon="7.32085">
        <ele>340.7</ele>
        <time>2026-03-12T09:00:30Z</time>
      </trkpt>
      <trkpt lat="48.85935" lon="7.32085">
        <ele>340.7</ele>
        <time>2026-03-12T09:00:35Z</time>
      </trkpt>
      <trkpt lat="48.85935" lon="7.32085">
        <ele>340.7</ele>
        <time>2026-03-12T09:00:40Z</time>
      </trkpt>
      <trkpt lat="48.85935" lon="7.32085">
        <ele>340.7</ele>
        <time>2026-03-12T09:00:45Z</time>
      </trkpt>
      <trkpt lat="48.85925" lon="7.32081">
        <ele>340.4</ele>
        <time>2026-03-12T09:00:50Z</time>
      </trkpt>
      <trkpt lat="48.85919" lon="7.32081">
        <ele>340.6</ele>
        <time>2026-03-12T09:00:55Z</time>
      </trkpt>
      <trkpt lat="48.85916" lon="7.32083">
        <ele>340.9</ele>
        <time>2026-03-12T09:01:00Z</time>
      </trkpt>
      <trkpt lat="48.8591" lon="7.32082">
        <ele>340.2</ele>
        <time>2026-03-12T09:01:05Z</time>
      </trkpt>
      <trkpt lat="48.85902" lon="7.32081">
        <ele>339.5</ele>
        <time>2026-03-12T09:01:10Z</time>
      </trkpt>
      <trkpt lat="48.85895" lon="7.32081">
        <ele>338.9</ele>
        <time>2026-03-12T09:01:15Z</time>
      </trkpt>
      <trkpt lat="48.85888" lon="7.32081">
        <ele>338.4</ele>
        <time>2026-03-12T09:01:20Z</time>
      </trkpt>
      <trkpt lat="48.85883" lon="7.32082">
        <ele>338.1</ele>
        <time>2026-03-12T09:01:25Z</time>
      </trkpt>
      <trkpt lat="48.85877" lon="7.3208">
        <ele>337.5</ele>
        <time>2026-03-12T09:01:30Z</time>
      </trkpt>
      <trkpt lat="48.85871" lon="7.32079">
        <ele>336.9</ele>
        <time>2026-03-12T09:01:35Z</time>
      </trkpt>
      <trkpt lat="48.85864" lon="7.32078">
        <ele>336.4</ele>
        <time>2026-03-12T09:01:40Z</time>
      </trkpt>
      <trkpt lat="48.85856" lon="7.3208">
        <ele>335.9</ele>
        <time>2026-03-12T09:01:45Z</time>
      </trkpt>
      <trkpt lat="48.85848" lon="7.32079">
        <ele>335.3</ele>
        <time>2026-03-12T09:01:50Z</time>
      </trkpt>
      <trkpt lat="48.85843" lon="7.32077">
        <ele>335</ele>
        <time>2026-03-12T09:01:55Z</time>
      </trkpt>
      <trkpt lat="48.85837" lon="7.32076">
        <ele>334.6</ele>
        <time>2026-03-12T09:02:00Z</time>
      </trkpt>
      <trkpt lat="48.85829" lon="7.32075">
        <ele>334.1</ele>
        <time>2026-03-12T09:02:05Z</time>
      </trkpt>
      <trkpt lat="48.85823" lon="7.32074">
        <ele>333.7</ele>
        <time>2026-03-12T09:02:10Z</time>
      </trkpt>
      <trkpt lat="48.85818" lon="7.32074">
        <ele>333.4</ele>
        <time>2026-03-12T09:02:15Z</time>
      </trkpt>
      <trkpt lat="48.85812" lon="7.32071">
        <ele>333.3</ele>
        <time>2026-03-12T09:02:20Z</time>
      </trkpt>
      <trkpt lat="48.85807" lon="7.32069">
        <ele>333.1</ele>
        <time>2026-03-12T09:02:25Z</time>
      </trkpt>
      <trkpt lat="48.85804" lon="7.32067">
        <ele>333.1</ele>
        <time>2026-03-12T09:02:30Z</time>
      </trkpt>
      <trkpt lat="48.85804" lon="7.32067">
        <ele>333.1</ele>
        <time>2026-03-12T09:02:35Z</time>
      </trkpt>
      <trkpt lat="48.85799" lon="7.32069">
        <ele>332.7</ele>
        <time>2026-03-12T09:02:40Z</time>
      </trkpt>
      <trkpt lat="48.85792" lon="7.32069">
        <ele>332.2</ele>
        <time>2026-03-12T09:02:45Z</time>
      </trkpt>
      <trkpt lat="48.85787" lon="7.32067">
        <ele>332.2</ele>
        <time>2026-03-12T09:02:50Z</time>
      </trkpt>
      <trkpt lat="48.85783" lon="7.32061">
        <ele>332.8</ele>
        <time>2026-03-12T09:02:55Z</time>
      </trkpt>
      <trkpt lat="48.85785" lon="7.32056">
        <ele>333.5</ele>
        <time>2026-03-12T09:03:00Z</time>
      </trkpt>
      <trkpt lat="48.85781" lon="7.32051">
        <ele>334.1</ele>
        <time>2026-03-12T09:03:05Z</time>
      </trkpt>
      <trkpt lat="48.85774" lon="7.32048">
        <ele>334.3</ele>
        <time>2026-03-12T09:03:10Z</time>
      </trkpt>
      <trkpt lat="48.85769" lon="7.32041">
        <ele>335.3</ele>
        <time>2026-03-12T09:03:15Z</time>
      </trkpt>
      <trkpt lat="48.85768" lon="7.32036">
        <ele>336.1</ele>
        <time>2026-03-12T09:03:20Z</time>
      </trkpt>
      <trkpt lat="48.85765" lon="7.32031">
        <ele>337</ele>
        <time>2026-03-12T09:03:25Z</time>
      </trkpt>
      <trkpt lat="48.85765" lon="7.32031">
        <ele>337</ele>
        <time>2026-03-12T09:03:30Z</time>
      </trkpt>
      <trkpt lat="48.85765" lon="7.32031">
        <ele>337</ele>
        <time>2026-03-12T09:03:35Z</time>
      </trkpt>
      <trkpt lat="48.85764" lon="7.32028">
        <ele>337.5</ele>
        <time>2026-03-12T09:03:40Z</time>
      </trkpt>
      <trkpt lat="48.8576" lon="7.32022">
        <ele>338.6</ele>
        <time>2026-03-12T09:03:45Z</time>
      </trkpt>
      <trkpt lat="48.85754" lon="7.32015">
        <ele>340</ele>
        <time>2026-03-12T09:03:50Z</time>
      </trkpt>
      <trkpt lat="48.8575" lon="7.32008">
        <ele>341.5</ele>
        <time>2026-03-12T09:03:55Z</time>
      </trkpt>
      <trkpt lat="48.85747" lon="7.32002">
        <ele>342.7</ele>
        <time>2026-03-12T09:04:00Z</time>
      </trkpt>
      <trkpt lat="48.85743" lon="7.31995">
        <ele>343.7</ele>
        <time>2026-03-12T09:04:05Z</time>
      </trkpt>
      <trkpt lat="48.85737" lon="7.31989">
        <ele>344.4</ele>
        <time>2026-03-12T09:04:10Z</time>
      </trkpt>
      <trkpt lat="48.8573" lon="7.31985">
        <ele>345</ele>
        <time>2026-03-12T09:04:15Z</time>
      </trkpt>
      <trkpt lat="48.85724" lon="7.31983">
        <ele>345.4</ele>
        <time>2026-03-12T09:04:20Z</time>
      </trkpt>
      <trkpt lat="48.85717" lon="7.31982">
        <ele>345.8</ele>
        <time>2026-03-12T09:04:25Z</time>
      </trkpt>
      <trkpt lat="48.8571" lon="7.31978">
        <ele>346.4</ele>
        <time>2026-03-12T09:04:30Z</time>
      </trkpt>
      <trkpt lat="48.85704" lon="7.31976">
        <ele>346.8</ele>
        <time>2026-03-12T09:04:35Z</time>
      </trkpt>
      <trkpt lat="48.85699" lon="7.31973">
        <ele>347.3</ele>
        <time>2026-03-12T09:04:40Z</time>
      </trkpt>
      <trkpt lat="48.85694" lon="7.31974">
        <ele>347.4</ele>
        <time>2026-03-12T09:04:45Z</time>
      </trkpt>
      <trkpt lat="48.85689" lon="7.31976">
        <ele>347.4</ele>
        <time>2026-03-12T09:04:50Z</time>
      </trkpt>
      <trkpt lat="48.85684" lon="7.31975">
        <ele>347.7</ele>
        <time>2026-03-12T09:04:55Z</time>
      </trkpt>
      <trkpt lat="48.85678" lon="7.31973">
        <ele>348.1</ele>
        <time>2026-03-12T09:05:00Z</time>
      </trkpt>
      <trkpt lat="48.85672" lon="7.31973">
        <ele>348.4</ele>
        <time>2026-03-12T09:05:05Z</time>
      </trkpt>
      <trkpt lat="48.85671" lon="7.31975">
        <ele>348.2</ele>
        <time>2026-03-12T09:05:10Z</time>
      </trkpt>
      <trkpt lat="48.85671" lon="7.31978">
        <ele>347.9</ele>
        <time>2026-03-12T09:05:15Z</time>
      </trkpt>
      <trkpt lat="48.85664" lon="7.3198">
        <ele>348.1</ele>
        <time>2026-03-12T09:05:20Z</time>
      </trkpt>
      <trkpt lat="48.85657" lon="7.31981">
        <ele>348.4</ele>
        <time>2026-03-12T09:05:25Z</time>
      </trkpt>
      <trkpt lat="48.8565" lon="7.31977">
        <ele>349.1</ele>
        <time>2026-03-12T09:05:30Z</time>
      </trkpt>
      <trkpt lat="48.85646" lon="7.31972">
        <ele>349.8</ele>
        <time>2026-03-12T09:05:35Z</time>
      </trkpt>
      <trkpt lat="48.85643" lon="7.31967">
        <ele>350.3</ele>
        <time>2026-03-12T09:05:40Z</time>
      </trkpt>
      <trkpt lat="48.85641" lon="7.31962">
        <ele>350.8</ele>
        <time>2026-03-12T09:05:45Z</time>
      </trkpt>
      <trkpt lat="48.85639" lon="7.31953">
        <ele>351.6</ele>
        <time>2026-03-12T09:05:50Z</time>
      </trkpt>
      <trkpt lat="48.85641" lon="7.31943">
        <ele>352.3</ele>
        <time>2026-03-12T09:05:55Z</time>
      </trkpt>
      <trkpt lat="48.85643" lon="7.31934">
        <ele>352.9</ele>
        <time>2026-03-12T09:06:00Z</time>
      </trkpt>
      <trkpt lat="48.85645" lon="7.31927">
        <ele>353.4</ele>
        <time>2026-03-12T09:06:05Z</time>
      </trkpt>
      <trkpt lat="48.85644" lon="7.31917">
        <ele>354.2</ele>
        <time>2026-03-12T09:06:10Z</time>
      </trkpt>
      <trkpt lat="48.85638" lon="7.31915">
        <ele>354</ele>
        <time>2026-03-12T09:06:15Z</time>
      </trkpt>
      <trkpt lat="48.85634" lon="7.3192">
        <ele>354.2</ele>
        <time>2026-03-12T09:06:20Z</time>
      </trkpt>
      <trkpt lat="48.8563" lon="7.31929">
        <ele>353.6</ele>
        <time>2026-03-12T09:06:25Z</time>
      </trkpt>
      <trkpt lat="48.85629" lon="7.31934">
        <ele>353.3</ele>
        <time>2026-03-12T09:06:30Z</time>
      </trkpt>
      <trkpt lat="48.85627" lon="7.31937">
        <ele>353.1</ele>
        <time>2026-03-12T09:06:35Z</time>
      </trkpt>
      <trkpt lat="48.85625" lon="7.31941">
        <ele>352.9</ele>
        <time>2026-03-12T09:06:40Z</time>
      </trkpt>
      <trkpt lat="48.85623" lon="7.31943">
        <ele>352.8</ele>
        <time>2026-03-12T09:06:45Z</time>
      </trkpt>
      <trkpt lat="48.8562" lon="7.31944">
        <ele>352.9</ele>
        <time>2026-03-12T09:06:50Z</time>
      </trkpt>
      <trkpt lat="48.85618" lon="7.31943">
        <ele>353</ele>
        <time>2026-03-12T09:06:55Z</time>
      </trkpt>
      <trkpt lat="48.85608" lon="7.31944">
        <ele>353.2</ele>
        <time>2026-03-12T09:07:00Z</time>
      </trkpt>
      <trkpt lat="48.85601" lon="7.31948">
        <ele>353.3</ele>
        <time>2026-03-12T09:07:05Z</time>
      </trkpt>
      <trkpt lat="48.85595" lon="7.31948">
        <ele>353.5</ele>
        <time>2026-03-12T09:07:10Z</time>
      </trkpt>
      <trkpt lat="48.85588" lon="7.31947">
        <ele>353.8</ele>
        <time>2026-03-12T09:07:15Z</time>
      </trkpt>
      <trkpt lat="48.85582" lon="7.31947">
        <ele>354</ele>
        <time>2026-03-12T09:07:20Z</time>
      </trkpt>
      <trkpt lat="48.85575" lon="7.31947">
        <ele>354.7</ele>
        <time>2026-03-12T09:07:25Z</time>
      </trkpt>
      <trkpt lat="48.85566" lon="7.31951">
        <ele>355.2</ele>
        <time>2026-03-12T09:07:30Z</time>
      </trkpt>
      <trkpt lat="48.85558" lon="7.3195">
        <ele>356</ele>
        <time>2026-03-12T09:07:35Z</time>
      </trkpt>
      <trkpt lat="48.85556" lon="7.31952">
        <ele>356</ele>
        <time>2026-03-12T09:07:40Z</time>
      </trkpt>
      <trkpt lat="48.85554" lon="7.31951">
        <ele>356.3</ele>
        <time>2026-03-12T09:07:45Z</time>
      </trkpt>
      <trkpt lat="48.85554" lon="7.31951">
        <ele>356.3</ele>
        <time>2026-03-12T09:07:50Z</time>
      </trkpt>
      <trkpt lat="48.85554" lon="7.31951">
        <ele>356.3</ele>
        <time>2026-03-12T09:07:55Z</time>
      </trkpt>
      <trkpt lat="48.85554" lon="7.31951">
        <ele>356.3</ele>
        <time>2026-03-12T09:08:00Z</time>
      </trkpt>
      <trkpt lat="48.85554" lon="7.31951">
        <ele>356.3</ele>
        <time>2026-03-12T09:08:05Z</time>
      </trkpt>
      <trkpt lat="48.85551" lon="7.31953">
        <ele>356.4</ele>
        <time>2026-03-12T09:08:10Z</time>
      </trkpt>
      <trkpt lat="48.85545" lon="7.31952">
        <ele>357</ele>
        <time>2026-03-12T09:08:15Z</time>
      </trkpt>
      <trkpt lat="48.85539" lon="7.31952">
        <ele>357.5</ele>
        <time>2026-03-12T09:08:20Z</time>
      </trkpt>
      <trkpt lat="48.85534" lon="7.31951">
        <ele>358</ele>
        <time>2026-03-12T09:08:25Z</time>
      </trkpt>
      <trkpt lat="48.85527" lon="7.31949">
        <ele>358.8</ele>
        <time>2026-03-12T09:08:30Z</time>
      </trkpt>
      <trkpt lat="48.8552" lon="7.3195">
        <ele>359.3</ele>
        <time>2026-03-12T09:08:35Z</time>
      </trkpt>
      <trkpt lat="48.85517" lon="7.31948">
        <ele>359.7</ele>
        <time>2026-03-12T09:08:40Z</time>
      </trkpt>
      <trkpt lat="48.8551" lon="7.31951">
        <ele>360</ele>
        <time>2026-03-12T09:08:45Z</time>
      </trkpt>
      <trkpt lat="48.85503" lon="7.31953">
        <ele>360.4</ele>
        <time>2026-03-12T09:08:50Z</time>
      </trkpt>
      <trkpt lat="48.85498" lon="7.31954">
        <ele>361</ele>
        <time>2026-03-12T09:08:55Z</time>
      </trkpt>
      <trkpt lat="48.85493" lon="7.31957">
        <ele>362</ele>
        <time>2026-03-12T09:09:00Z</time>
      </trkpt>
      <trkpt lat="48.8549" lon="7.31958">
        <ele>362.6</ele>
        <time>2026-03-12T09:09:05Z</time>
      </trkpt>
      <trkpt lat="48.85486" lon="7.31957">
        <ele>363.8</ele>
        <time>2026-03-12T09:09:10Z</time>
      </trkpt>
      <trkpt lat="48.8548" lon="7.31961">
        <ele>364.8</ele>
        <time>2026-03-12T09:09:15Z</time>
      </trkpt>
      <trkpt lat="48.85475" lon="7.31963">
        <ele>365.9</ele>
        <time>2026-03-12T09:09:20Z</time>
      </trkpt>
      <trkpt lat="48.8547" lon="7.31964">
        <ele>367.1</ele>
        <time>2026-03-12T09:09:25Z</time>
      </trkpt>
      <trkpt lat="48.85468" lon="7.31966">
        <ele>367.4</ele>
        <time>2026-03-12T09:09:30Z</time>
      </trkpt>
      <trkpt lat="48.85463" lon="7.31968">
        <ele>368.4</ele>
        <time>2026-03-12T09:09:35Z</time>
      </trkpt>
      <trkpt lat="48.85457" lon="7.31967">
        <ele>370.1</ele>
        <time>2026-03-12T09:09:40Z</time>
      </trkpt>
      <trkpt lat="48.8545" lon="7.31964">
        <ele>372.3</ele>
        <time>2026-03-12T09:09:45Z</time>
      </trkpt>
      <trkpt lat="48.85443" lon="7.3196">
        <ele>374.5</ele>
        <time>2026-03-12T09:09:50Z</time>
      </trkpt>
      <trkpt lat="48.85439" lon="7.31956">
        <ele>376</ele>
        <time>2026-03-12T09:09:55Z</time>
      </trkpt>
      <trkpt lat="48.85436" lon="7.3195">
        <ele>377.4</ele>
        <time>2026-03-12T09:10:00Z</time>
      </trkpt>
      <trkpt lat="48.85434" lon="7.31944">
        <ele>378.6</ele>
        <time>2026-03-12T09:10:05Z</time>
      </trkpt>
      <trkpt lat="48.85432" lon="7.31935">
        <ele>380.1</ele>
        <time>2026-03-12T09:10:10Z</time>
      </trkpt>
      <trkpt lat="48.8543" lon="7.31924">
        <ele>381.8</ele>
        <time>2026-03-12T09:10:15Z</time>
      </trkpt>
      <trkpt lat="48.85428" lon="7.31917">
        <ele>383.1</ele>
        <time>2026-03-12T09:10:20Z</time>
      </trkpt>
      <trkpt lat="48.85428" lon="7.3191">
        <ele>383.3</ele>
        <time>2026-03-12T09:10:25Z</time>
      </trkpt>
      <trkpt lat="48.85431" lon="7.31904">
        <ele>382.7</ele>
        <time>2026-03-12T09:10:30Z</time>
      </trkpt>
      <trkpt lat="48.85435" lon="7.31899">
        <ele>381.8</ele>
        <time>2026-03-12T09:10:35Z</time>
      </trkpt>
      <trkpt lat="48.85435" lon="7.31891">
        <ele>382</ele>
        <time>2026-03-12T09:10:40Z</time>
      </trkpt>
      <trkpt lat="48.85433" lon="7.31885">
        <ele>382.7</ele>
        <time>2026-03-12T09:10:45Z</time>
      </trkpt>
      <trkpt lat="48.85433" lon="7.3188">
        <ele>382.9</ele>
        <time>2026-03-12T09:10:50Z</time>
      </trkpt>
      <trkpt lat="48.85432" lon="7.31878">
        <ele>383.2</ele>
        <time>2026-03-12T09:10:55Z</time>
      </trkpt>
      <trkpt lat="48.85432" lon="7.31878">
        <ele>383.2</ele>
        <time>2026-03-12T09:11:00Z</time>
      </trkpt>
      <trkpt lat="48.85432" lon="7.31878">
        <ele>383.2</ele>
        <time>2026-03-12T09:11:05Z</time>
      </trkpt>
      <trkpt lat="48.85433" lon="7.31885">
        <ele>382.7</ele>
        <time>2026-03-12T09:11:10Z</time>
      </trkpt>
      <trkpt lat="48.85433" lon="7.31893">
        <ele>382.5</ele>
        <time>2026-03-12T09:11:15Z</time>
      </trkpt>
      <trkpt lat="48.85433" lon="7.31899">
        <ele>382.4</ele>
        <time>2026-03-12T09:11:20Z</time>
      </trkpt>
      <trkpt lat="48.85437" lon="7.31901">
        <ele>381.3</ele>
        <time>2026-03-12T09:11:25Z</time>
      </trkpt>
      <trkpt lat="48.85438" lon="7.31903">
        <ele>380.9</ele>
        <time>2026-03-12T09:11:30Z</time>
      </trkpt>
      <trkpt lat="48.85435" lon="7.31907">
        <ele>381.6</ele>
        <time>2026-03-12T09:11:35Z</time>
      </trkpt>
      <trkpt lat="48.85431" lon="7.31908">
        <ele>382.6</ele>
        <time>2026-03-12T09:11:40Z</time>
      </trkpt>
      <trkpt lat="48.85427" lon="7.31907">
        <ele>383.7</ele>
        <time>2026-03-12T09:11:45Z</time>
      </trkpt>
      <trkpt lat="48.85427" lon="7.31907">
        <ele>383.7</ele>
        <time>2026-03-12T09:11:50Z</time>
      </trkpt>
      <trkpt lat="48.85427" lon="7.31907">
        <ele>383.7</ele>
        <time>2026-03-12T09:11:55Z</time>
      </trkpt>
      <trkpt lat="48.85427" lon="7.31907">
        <ele>383.7</ele>
        <time>2026-03-12T09:12:00Z</time>
      </trkpt>
      <trkpt lat="48.85427" lon="7.31907">
        <ele>383.7</ele>
        <time>2026-03-12T09:12:05Z</time>
      </trkpt>
      <trkpt lat="48.85427" lon="7.31907">
        <ele>383.7</ele>
        <time>2026-03-12T09:12:10Z</time>
      </trkpt>
      <trkpt lat="48.85434" lon="7.31901">
        <ele>382</ele>
        <time>2026-03-12T09:12:15Z</time>
      </trkpt>
      <trkpt lat="48.85435" lon="7.31892">
        <ele>382</ele>
        <time>2026-03-12T09:12:20Z</time>
      </trkpt>
      <trkpt lat="48.85433" lon="7.31882">
        <ele>382.8</ele>
        <time>2026-03-12T09:12:25Z</time>
      </trkpt>
      <trkpt lat="48.85432" lon="7.31875">
        <ele>383.3</ele>
        <time>2026-03-12T09:12:30Z</time>
      </trkpt>
      <trkpt lat="48.8543" lon="7.31868">
        <ele>384</ele>
        <time>2026-03-12T09:12:35Z</time>
      </trkpt>
      <trkpt lat="48.85428" lon="7.31862">
        <ele>384.8</ele>
        <time>2026-03-12T09:12:40Z</time>
      </trkpt>
      <trkpt lat="48.85427" lon="7.31858">
        <ele>385.2</ele>
        <time>2026-03-12T09:12:45Z</time>
      </trkpt>
      <trkpt lat="48.85425" lon="7.31864">
        <ele>385.5</ele>
        <time>2026-03-12T09:12:50Z</time>
      </trkpt>
      <trkpt lat="48.85429" lon="7.31874">
        <ele>384.1</ele>
        <time>2026-03-12T09:12:55Z</time>
      </trkpt>
      <trkpt lat="48.85428" lon="7.31881">
        <ele>384.2</ele>
        <time>2026-03-12T09:13:00Z</time>
      </trkpt>
      <trkpt lat="48.85424" lon="7.31874">
        <ele>385.5</ele>
        <time>2026-03-12T09:13:05Z</time>
      </trkpt>
      <trkpt lat="48.8542" lon="7.31866">
        <ele>386.9</ele>
        <time>2026-03-12T09:13:10Z</time>
      </trkpt>
      <trkpt lat="48.85417" lon="7.3186">
        <ele>387.9</ele>
        <time>2026-03-12T09:13:15Z</time>
      </trkpt>
      <trkpt lat="48.85417" lon="7.31858">
        <ele>388</ele>
        <time>2026-03-12T09:13:20Z</time>
      </trkpt>
      <trkpt lat="48.85417" lon="7.31858">
        <ele>388</ele>
        <time>2026-03-12T09:13:25Z</time>
      </trkpt>
      <trkpt lat="48.85417" lon="7.31849">
        <ele>388.3</ele>
        <time>2026-03-12T09:13:30Z</time>
      </trkpt>
      <trkpt lat="48.85415" lon="7.31838">
        <ele>388.9</ele>
        <time>2026-03-12T09:13:35Z</time>
      </trkpt>
      <trkpt lat="48.85412" lon="7.31835">
        <ele>389.2</ele>
        <time>2026-03-12T09:13:40Z</time>
      </trkpt>
      <trkpt lat="48.85412" lon="7.31835">
        <ele>389.2</ele>
        <time>2026-03-12T09:13:45Z</time>
      </trkpt>
      <trkpt lat="48.85412" lon="7.31835">
        <ele>389.2</ele>
        <time>2026-03-12T09:13:50Z</time>
      </trkpt>
      <trkpt lat="48.85409" lon="7.31826">
        <ele>389.2</ele>
        <time>2026-03-12T09:13:55Z</time>
      </trkpt>
      <trkpt lat="48.85405" lon="7.31817">
        <ele>389.1</ele>
        <time>2026-03-12T09:14:00Z</time>
      </trkpt>
      <trkpt lat="48.85402" lon="7.31808">
        <ele>389</ele>
        <time>2026-03-12T09:14:05Z</time>
      </trkpt>
      <trkpt lat="48.85401" lon="7.318">
        <ele>388.7</ele>
        <time>2026-03-12T09:14:10Z</time>
      </trkpt>
      <trkpt lat="48.85398" lon="7.31793">
        <ele>388.7</ele>
        <time>2026-03-12T09:14:15Z</time>
      </trkpt>
      <trkpt lat="48.85394" lon="7.31785">
        <ele>388.6</ele>
        <time>2026-03-12T09:14:20Z</time>
      </trkpt>
      <trkpt lat="48.85391" lon="7.31776">
        <ele>388.5</ele>
        <time>2026-03-12T09:14:25Z</time>
      </trkpt>
      <trkpt lat="48.85388" lon="7.31766">
        <ele>388.3</ele>
        <time>2026-03-12T09:14:30Z</time>
      </trkpt>
      <trkpt lat="48.85384" lon="7.31757">
        <ele>388.2</ele>
        <time>2026-03-12T09:14:35Z</time>
      </trkpt>
      <trkpt lat="48.85381" lon="7.31748">
        <ele>388</ele>
        <time>2026-03-12T09:14:40Z</time>
      </trkpt>
      <trkpt lat="48.85377" lon="7.31738">
        <ele>387.4</ele>
        <time>2026-03-12T09:14:45Z</time>
      </trkpt>
      <trkpt lat="48.85377" lon="7.3173">
        <ele>386.8</ele>
        <time>2026-03-12T09:14:50Z</time>
      </trkpt>
      <trkpt lat="48.85376" lon="7.31722">
        <ele>386.2</ele>
        <time>2026-03-12T09:14:55Z</time>
      </trkpt>
      <trkpt lat="48.85373" lon="7.31713">
        <ele>385.8</ele>
        <time>2026-03-12T09:15:00Z</time>
      </trkpt>
      <trkpt lat="48.85372" lon="7.31707">
        <ele>385.4</ele>
        <time>2026-03-12T09:15:05Z</time>
      </trkpt>
      <trkpt lat="48.85373" lon="7.317">
        <ele>384.8</ele>
        <time>2026-03-12T09:15:10Z</time>
      </trkpt>
      <trkpt lat="48.85371" lon="7.31693">
        <ele>384.4</ele>
        <time>2026-03-12T09:15:15Z</time>
      </trkpt>
      <trkpt lat="48.85369" lon="7.31685">
        <ele>384</ele>
        <time>2026-03-12T09:15:20Z</time>
      </trkpt>
      <trkpt lat="48.85368" lon="7.31677">
        <ele>383.4</ele>
        <time>2026-03-12T09:15:25Z</time>
      </trkpt>
      <trkpt lat="48.85367" lon="7.31668">
        <ele>382.9</ele>
        <time>2026-03-12T09:15:30Z</time>
      </trkpt>
      <trkpt lat="48.85363" lon="7.3166">
        <ele>382.8</ele>
        <time>2026-03-12T09:15:35Z</time>
      </trkpt>
      <trkpt lat="48.85361" lon="7.31652">
        <ele>382.6</ele>
        <time>2026-03-12T09:15:40Z</time>
      </trkpt>
      <trkpt lat="48.85359" lon="7.31645">
        <ele>382.4</ele>
        <time>2026-03-12T09:15:45Z</time>
      </trkpt>
      <trkpt lat="48.85359" lon="7.31639">
        <ele>382.1</ele>
        <time>2026-03-12T09:15:50Z</time>
      </trkpt>
      <trkpt lat="48.85357" lon="7.31632">
        <ele>382</ele>
        <time>2026-03-12T09:15:55Z</time>
      </trkpt>
      <trkpt lat="48.85354" lon="7.31623">
        <ele>381.9</ele>
        <time>2026-03-12T09:16:00Z</time>
      </trkpt>
      <trkpt lat="48.85351" lon="7.31614">
        <ele>381.9</ele>
        <time>2026-03-12T09:16:05Z</time>
      </trkpt>
      <trkpt lat="48.85347" lon="7.31605">
        <ele>382</ele>
        <time>2026-03-12T09:16:10Z</time>
      </trkpt>
      <trkpt lat="48.85346" lon="7.316">
        <ele>381.9</ele>
        <time>2026-03-12T09:16:15Z</time>
      </trkpt>
      <trkpt lat="48.85346" lon="7.31594">
        <ele>381.6</ele>
        <time>2026-03-12T09:16:20Z</time>
      </trkpt>
      <trkpt lat="48.85343" lon="7.31586">
        <ele>381.7</ele>
        <time>2026-03-12T09:16:25Z</time>
      </trkpt>
      <trkpt lat="48.85339" lon="7.31578">
        <ele>381.5</ele>
        <time>2026-03-12T09:16:30Z</time>
      </trkpt>
      <trkpt lat="48.85335" lon="7.3157">
        <ele>381</ele>
        <time>2026-03-12T09:16:35Z</time>
      </trkpt>
      <trkpt lat="48.85331" lon="7.31562">
        <ele>380.2</ele>
        <time>2026-03-12T09:16:40Z</time>
      </trkpt>
      <trkpt lat="48.85326" lon="7.31554">
        <ele>379.2</ele>
        <time>2026-03-12T09:16:45Z</time>
      </trkpt>
      <trkpt lat="48.85321" lon="7.31548">
        <ele>378.5</ele>
        <time>2026-03-12T09:16:50Z</time>
      </trkpt>
      <trkpt lat="48.85318" lon="7.31542">
        <ele>377.8</ele>
        <time>2026-03-12T09:16:55Z</time>
      </trkpt>
      <trkpt lat="48.85313" lon="7.31533">
        <ele>376.8</ele>
        <time>2026-03-12T09:17:00Z</time>
      </trkpt>
      <trkpt lat="48.85307" lon="7.31529">
        <ele>376.4</ele>
        <time>2026-03-12T09:17:05Z</time>
      </trkpt>
      <trkpt lat="48.853" lon="7.31521">
        <ele>375.7</ele>
        <time>2026-03-12T09:17:10Z</time>
      </trkpt>
      <trkpt lat="48.85296" lon="7.31518">
        <ele>375.4</ele>
        <time>2026-03-12T09:17:15Z</time>
      </trkpt>
      <trkpt lat="48.85289" lon="7.31515">
        <ele>375.3</ele>
        <time>2026-03-12T09:17:20Z</time>
      </trkpt>
      <trkpt lat="48.85283" lon="7.31512">
        <ele>375.1</ele>
        <time>2026-03-12T09:17:25Z</time>
      </trkpt>
      <trkpt lat="48.85275" lon="7.31508">
        <ele>375</ele>
        <time>2026-03-12T09:17:30Z</time>
      </trkpt>
      <trkpt lat="48.85269" lon="7.31504">
        <ele>374.7</ele>
        <time>2026-03-12T09:17:35Z</time>
      </trkpt>
      <trkpt lat="48.85265" lon="7.315">
        <ele>374.5</ele>
        <time>2026-03-12T09:17:40Z</time>
      </trkpt>
      <trkpt lat="48.85259" lon="7.31494">
        <ele>373.7</ele>
        <time>2026-03-12T09:17:45Z</time>
      </trkpt>
      <trkpt lat="48.85253" lon="7.31486">
        <ele>372.7</ele>
        <time>2026-03-12T09:17:50Z</time>
      </trkpt>
      <trkpt lat="48.85245" lon="7.31478">
        <ele>371.6</ele>
        <time>2026-03-12T09:17:55Z</time>
      </trkpt>
      <trkpt lat="48.85239" lon="7.31473">
        <ele>371</ele>
        <time>2026-03-12T09:18:00Z</time>
      </trkpt>
      <trkpt lat="48.85232" lon="7.31468">
        <ele>370.4</ele>
        <time>2026-03-12T09:18:05Z</time>
      </trkpt>
      <trkpt lat="48.85226" lon="7.31462">
        <ele>369.7</ele>
        <time>2026-03-12T09:18:10Z</time>
      </trkpt>
      <trkpt lat="48.85221" lon="7.31458">
        <ele>369.3</ele>
        <time>2026-03-12T09:18:15Z</time>
      </trkpt>
      <trkpt lat="48.85217" lon="7.31454">
        <ele>369</ele>
        <time>2026-03-12T09:18:20Z</time>
      </trkpt>
      <trkpt lat="48.85212" lon="7.31452">
        <ele>368.9</ele>
        <time>2026-03-12T09:18:25Z</time>
      </trkpt>
      <trkpt lat="48.85207" lon="7.31449">
        <ele>368.7</ele>
        <time>2026-03-12T09:18:30Z</time>
      </trkpt>
      <trkpt lat="48.85202" lon="7.31445">
        <ele>368.5</ele>
        <time>2026-03-12T09:18:35Z</time>
      </trkpt>
      <trkpt lat="48.85196" lon="7.3144">
        <ele>368.3</ele>
        <time>2026-03-12T09:18:40Z</time>
      </trkpt>
      <trkpt lat="48.85191" lon="7.31435">
        <ele>368</ele>
        <time>2026-03-12T09:18:45Z</time>
      </trkpt>
      <trkpt lat="48.85186" lon="7.31431">
        <ele>367.9</ele>
        <time>2026-03-12T09:18:50Z</time>
      </trkpt>
      <trkpt lat="48.85181" lon="7.31427">
        <ele>367.9</ele>
        <time>2026-03-12T09:18:55Z</time>
      </trkpt>
      <trkpt lat="48.85177" lon="7.31426">
        <ele>368</ele>
        <time>2026-03-12T09:19:00Z</time>
      </trkpt>
      <trkpt lat="48.85175" lon="7.31422">
        <ele>367.8</ele>
        <time>2026-03-12T09:19:05Z</time>
      </trkpt>
      <trkpt lat="48.85167" lon="7.31417">
        <ele>368</ele>
        <time>2026-03-12T09:19:10Z</time>
      </trkpt>
      <trkpt lat="48.85158" lon="7.3141">
        <ele>366.7</ele>
        <time>2026-03-12T09:19:15Z</time>
      </trkpt>
      <trkpt lat="48.8515" lon="7.31405">
        <ele>365.7</ele>
        <time>2026-03-12T09:19:20Z</time>
      </trkpt>
      <trkpt lat="48.85144" lon="7.31401">
        <ele>364.9</ele>
        <time>2026-03-12T09:19:25Z</time>
      </trkpt>
      <trkpt lat="48.85138" lon="7.31398">
        <ele>364.2</ele>
        <time>2026-03-12T09:19:30Z</time>
      </trkpt>
      <trkpt lat="48.85132" lon="7.31396">
        <ele>363.7</ele>
        <time>2026-03-12T09:19:35Z</time>
      </trkpt>
      <trkpt lat="48.85126" lon="7.31394">
        <ele>363.1</ele>
        <time>2026-03-12T09:19:40Z</time>
      </trkpt>
      <trkpt lat="48.8512" lon="7.31392">
        <ele>362.6</ele>
        <time>2026-03-12T09:19:45Z</time>
      </trkpt>
      <trkpt lat="48.85113" lon="7.31389">
        <ele>361.9</ele>
        <time>2026-03-12T09:19:50Z</time>
      </trkpt>
      <trkpt lat="48.85105" lon="7.31387">
        <ele>361.2</ele>
        <time>2026-03-12T09:19:55Z</time>
      </trkpt>
      <trkpt lat="48.85098" lon="7.31386">
        <ele>360.8</ele>
        <time>2026-03-12T09:20:00Z</time>
      </trkpt>
      <trkpt lat="48.85092" lon="7.31386">
        <ele>360.6</ele>
        <time>2026-03-12T09:20:05Z</time>
      </trkpt>
      <trkpt lat="48.85086" lon="7.31384">
        <ele>360</ele>
        <time>2026-03-12T09:20:10Z</time>
      </trkpt>
      <trkpt lat="48.85079" lon="7.31384">
        <ele>360</ele>
        <time>2026-03-12T09:20:15Z</time>
      </trkpt>
      <trkpt lat="48.85072" lon="7.31387">
        <ele>360.5</ele>
        <time>2026-03-12T09:20:20Z</time>
      </trkpt>
      <trkpt lat="48.85064" lon="7.31389">
        <ele>360.8</ele>
        <time>2026-03-12T09:20:25Z</time>
      </trkpt>
      <trkpt lat="48.85058" lon="7.31388">
        <ele>360.8</ele>
        <time>2026-03-12T09:20:30Z</time>
      </trkpt>
      <trkpt lat="48.85057" lon="7.31386">
        <ele>360.5</ele>
        <time>2026-03-12T09:20:35Z</time>
      </trkpt>
      <trkpt lat="48.85055" lon="7.31386">
        <ele>360.6</ele>
        <time>2026-03-12T09:20:40Z</time>
      </trkpt>
      <trkpt lat="48.85055" lon="7.31386">
        <ele>360.6</ele>
        <time>2026-03-12T09:20:45Z</time>
      </trkpt>
      <trkpt lat="48.85055" lon="7.31386">
        <ele>360.6</ele>
        <time>2026-03-12T09:20:50Z</time>
      </trkpt>
      <trkpt lat="48.85055" lon="7.31386">
        <ele>360.6</ele>
        <time>2026-03-12T09:20:55Z</time>
      </trkpt>
      <trkpt lat="48.85055" lon="7.31386">
        <ele>360.6</ele>
        <time>2026-03-12T09:21:00Z</time>
      </trkpt>
      <trkpt lat="48.85055" lon="7.31386">
        <ele>360.6</ele>
        <time>2026-03-12T09:21:05Z</time>
      </trkpt>
      <trkpt lat="48.85051" lon="7.31385">
        <ele>360.5</ele>
        <time>2026-03-12T09:21:10Z</time>
      </trkpt>
      <trkpt lat="48.85048" lon="7.3138">
        <ele>360.1</ele>
        <time>2026-03-12T09:21:15Z</time>
      </trkpt>
      <trkpt lat="48.85044" lon="7.31374">
        <ele>359.6</ele>
        <time>2026-03-12T09:21:20Z</time>
      </trkpt>
      <trkpt lat="48.8504" lon="7.31369">
        <ele>359.3</ele>
        <time>2026-03-12T09:21:25Z</time>
      </trkpt>
      <trkpt lat="48.85034" lon="7.31364">
        <ele>359.1</ele>
        <time>2026-03-12T09:21:30Z</time>
      </trkpt>
      <trkpt lat="48.85026" lon="7.31359">
        <ele>359.2</ele>
        <time>2026-03-12T09:21:35Z</time>
      </trkpt>
      <trkpt lat="48.85019" lon="7.31357">
        <ele>359.5</ele>
        <time>2026-03-12T09:21:40Z</time>
      </trkpt>
      <trkpt lat="48.85012" lon="7.31359">
        <ele>360</ele>
        <time>2026-03-12T09:21:45Z</time>
      </trkpt>
      <trkpt lat="48.85005" lon="7.31359">
        <ele>360.3</ele>
        <time>2026-03-12T09:21:50Z</time>
      </trkpt>
      <trkpt lat="48.84999" lon="7.3136">
        <ele>360.7</ele>
        <time>2026-03-12T09:21:55Z</time>
      </trkpt>
      <trkpt lat="48.84993" lon="7.31358">
        <ele>360.9</ele>
        <time>2026-03-12T09:22:00Z</time>
      </trkpt>
      <trkpt lat="48.84985" lon="7.31356">
        <ele>361.1</ele>
        <time>2026-03-12T09:22:05Z</time>
      </trkpt>
      <trkpt lat="48.84976" lon="7.31354">
        <ele>361.4</ele>
        <time>2026-03-12T09:22:10Z</time>
      </trkpt>
      <trkpt lat="48.84968" lon="7.31354">
        <ele>361.7</ele>
        <time>2026-03-12T09:22:15Z</time>
      </trkpt>
      <trkpt lat="48.84962" lon="7.31351">
        <ele>362</ele>
        <time>2026-03-12T09:22:20Z</time>
      </trkpt>
      <trkpt lat="48.84955" lon="7.31348">
        <ele>362.2</ele>
        <time>2026-03-12T09:22:25Z</time>
      </trkpt>
      <trkpt lat="48.84949" lon="7.31347">
        <ele>362.5</ele>
        <time>2026-03-12T09:22:30Z</time>
      </trkpt>
      <trkpt lat="48.84942" lon="7.31343">
        <ele>362.8</ele>
        <time>2026-03-12T09:22:35Z</time>
      </trkpt>
      <trkpt lat="48.84935" lon="7.3134">
        <ele>363.1</ele>
        <time>2026-03-12T09:22:40Z</time>
      </trkpt>
      <trkpt lat="48.84927" lon="7.31338">
        <ele>363.5</ele>
        <time>2026-03-12T09:22:45Z</time>
      </trkpt>
      <trkpt lat="48.84922" lon="7.31333">
        <ele>363.7</ele>
        <time>2026-03-12T09:22:50Z</time>
      </trkpt>
      <trkpt lat="48.84917" lon="7.3133">
        <ele>363.7</ele>
        <time>2026-03-12T09:22:55Z</time>
      </trkpt>
      <trkpt lat="48.84911" lon="7.31326">
        <ele>362.6</ele>
        <time>2026-03-12T09:23:00Z</time>
      </trkpt>
      <trkpt lat="48.84905" lon="7.3132">
        <ele>361.4</ele>
        <time>2026-03-12T09:23:05Z</time>
      </trkpt>
      <trkpt lat="48.84899" lon="7.31311">
        <ele>360</ele>
        <time>2026-03-12T09:23:10Z</time>
      </trkpt>
      <trkpt lat="48.84892" lon="7.31306">
        <ele>358.9</ele>
        <time>2026-03-12T09:23:15Z</time>
      </trkpt>
      <trkpt lat="48.84886" lon="7.31303">
        <ele>358.1</ele>
        <time>2026-03-12T09:23:20Z</time>
      </trkpt>
      <trkpt lat="48.8488" lon="7.31298">
        <ele>357.3</ele>
        <time>2026-03-12T09:23:25Z</time>
      </trkpt>
      <trkpt lat="48.84873" lon="7.31293">
        <ele>356.4</ele>
        <time>2026-03-12T09:23:30Z</time>
      </trkpt>
      <trkpt lat="48.84867" lon="7.31291">
        <ele>355.8</ele>
        <time>2026-03-12T09:23:35Z</time>
      </trkpt>
      <trkpt lat="48.8486" lon="7.31287">
        <ele>355.1</ele>
        <time>2026-03-12T09:23:40Z</time>
      </trkpt>
      <trkpt lat="48.84854" lon="7.31281">
        <ele>354.5</ele>
        <time>2026-03-12T09:23:45Z</time>
      </trkpt>
      <trkpt lat="48.84848" lon="7.31278">
        <ele>354</ele>
        <time>2026-03-12T09:23:50Z</time>
      </trkpt>
      <trkpt lat="48.84843" lon="7.31275">
        <ele>353.6</ele>
        <time>2026-03-12T09:23:55Z</time>
      </trkpt>
      <trkpt lat="48.84837" lon="7.31272">
        <ele>353.2</ele>
        <time>2026-03-12T09:24:00Z</time>
      </trkpt>
      <trkpt lat="48.84831" lon="7.31271">
        <ele>352.1</ele>
        <time>2026-03-12T09:24:05Z</time>
      </trkpt>
      <trkpt lat="48.84825" lon="7.31268">
        <ele>349.8</ele>
        <time>2026-03-12T09:24:10Z</time>
      </trkpt>
      <trkpt lat="48.84818" lon="7.31264">
        <ele>347.1</ele>
        <time>2026-03-12T09:24:15Z</time>
      </trkpt>
      <trkpt lat="48.84812" lon="7.31263">
        <ele>344.8</ele>
        <time>2026-03-12T09:24:20Z</time>
      </trkpt>
      <trkpt lat="48.84807" lon="7.31262">
        <ele>342.9</ele>
        <time>2026-03-12T09:24:25Z</time>
      </trkpt>
      <trkpt lat="48.84801" lon="7.31262">
        <ele>340.6</ele>
        <time>2026-03-12T09:24:30Z</time>
      </trkpt>
      <trkpt lat="48.84794" lon="7.31264">
        <ele>337.9</ele>
        <time>2026-03-12T09:24:35Z</time>
      </trkpt>
      <trkpt lat="48.84788" lon="7.31265">
        <ele>335.5</ele>
        <time>2026-03-12T09:24:40Z</time>
      </trkpt>
      <trkpt lat="48.84781" lon="7.31264">
        <ele>332.9</ele>
        <time>2026-03-12T09:24:45Z</time>
      </trkpt>
      <trkpt lat="48.84774" lon="7.31266">
        <ele>330.1</ele>
        <time>2026-03-12T09:24:50Z</time>
      </trkpt>
      <trkpt lat="48.84768" lon="7.3127">
        <ele>327.6</ele>
        <time>2026-03-12T09:24:55Z</time>
      </trkpt>
      <trkpt lat="48.84762" lon="7.31273">
        <ele>325</ele>
        <time>2026-03-12T09:25:00Z</time>
      </trkpt>
      <trkpt lat="48.84758" lon="7.31279">
        <ele>323.1</ele>
        <time>2026-03-12T09:25:05Z</time>
      </trkpt>
      <trkpt lat="48.84753" lon="7.31283">
        <ele>320.8</ele>
        <time>2026-03-12T09:25:10Z</time>
      </trkpt>
      <trkpt lat="48.84747" lon="7.31285">
        <ele>318.2</ele>
        <time>2026-03-12T09:25:15Z</time>
      </trkpt>
      <trkpt lat="48.84739" lon="7.31279">
        <ele>315.2</ele>
        <time>2026-03-12T09:25:20Z</time>
      </trkpt>
      <trkpt lat="48.84731" lon="7.31274">
        <ele>312.1</ele>
        <time>2026-03-12T09:25:25Z</time>
      </trkpt>
      <trkpt lat="48.84726" lon="7.3127">
        <ele>310.2</ele>
        <time>2026-03-12T09:25:30Z</time>
      </trkpt>
      <trkpt lat="48.84722" lon="7.31264">
        <ele>308.9</ele>
        <time>2026-03-12T09:25:35Z</time>
      </trkpt>
      <trkpt lat="48.84719" lon="7.31258">
        <ele>308</ele>
        <time>2026-03-12T09:25:40Z</time>
      </trkpt>
      <trkpt lat="48.84716" lon="7.31252">
        <ele>307.2</ele>
        <time>2026-03-12T09:25:45Z</time>
      </trkpt>
      <trkpt lat="48.84715" lon="7.31243">
        <ele>306.9</ele>
        <time>2026-03-12T09:25:50Z</time>
      </trkpt>
      <trkpt lat="48.84713" lon="7.31235">
        <ele>306.1</ele>
        <time>2026-03-12T09:25:55Z</time>
      </trkpt>
      <trkpt lat="48.84711" lon="7.31226">
        <ele>305.2</ele>
        <time>2026-03-12T09:26:00Z</time>
      </trkpt>
      <trkpt lat="48.84708" lon="7.31218">
        <ele>304.1</ele>
        <time>2026-03-12T09:26:05Z</time>
      </trkpt>
      <trkpt lat="48.84706" lon="7.31211">
        <ele>303.3</ele>
        <time>2026-03-12T09:26:10Z</time>
      </trkpt>
      <trkpt lat="48.84705" lon="7.31202">
        <ele>303</ele>
        <time>2026-03-12T09:26:15Z</time>
      </trkpt>
      <trkpt lat="48.84701" lon="7.31193">
        <ele>301.5</ele>
        <time>2026-03-12T09:26:20Z</time>
      </trkpt>
      <trkpt lat="48.847" lon="7.31187">
        <ele>301.2</ele>
        <time>2026-03-12T09:26:25Z</time>
      </trkpt>
      <trkpt lat="48.84701" lon="7.31186">
        <ele>301.6</ele>
        <time>2026-03-12T09:26:30Z</time>
      </trkpt>
      <trkpt lat="48.84701" lon="7.31186">
        <ele>301.6</ele>
        <time>2026-03-12T09:26:35Z</time>
      </trkpt>
      <trkpt lat="48.84701" lon="7.31186">
        <ele>301.6</ele>
        <time>2026-03-12T09:26:40Z</time>
      </trkpt>
      <trkpt lat="48.84701" lon="7.31186">
        <ele>301.6</ele>
        <time>2026-03-12T09:26:45Z</time>
      </trkpt>
      <trkpt lat="48.84701" lon="7.31186">
        <ele>301.6</ele>
        <time>2026-03-12T09:26:50Z</time>
      </trkpt>
      <trkpt lat="48.84701" lon="7.31186">
        <ele>301.6</ele>
        <time>2026-03-12T09:26:55Z</time>
      </trkpt>
      <trkpt lat="48.84701" lon="7.31186">
        <ele>301.6</ele>
        <time>2026-03-12T09:27:00Z</time>
      </trkpt>
      <trkpt lat="48.84701" lon="7.31186">
        <ele>301.6</ele>
        <time>2026-03-12T09:27:05Z</time>
      </trkpt>
      <trkpt lat="48.84701" lon="7.31186">
        <ele>301.6</ele>
        <time>2026-03-12T09:27:10Z</time>
      </trkpt>
      <trkpt lat="48.84701" lon="7.31186">
        <ele>301.6</ele>
        <time>2026-03-12T09:27:15Z</time>
      </trkpt>
      <trkpt lat="48.84701" lon="7.31186">
        <ele>301.6</ele>
        <time>2026-03-12T09:27:20Z</time>
      </trkpt>
      <trkpt lat="48.84701" lon="7.31186">
        <ele>301.6</ele>
        <time>2026-03-12T09:27:25Z</time>
      </trkpt>
      <trkpt lat="48.84701" lon="7.31186">
        <ele>301.6</ele>
        <time>2026-03-12T09:27:30Z</time>
      </trkpt>
      <trkpt lat="48.84702" lon="7.31192">
        <ele>301.9</ele>
        <time>2026-03-12T09:27:35Z</time>
      </trkpt>
      <trkpt lat="48.84703" lon="7.31197">
        <ele>302.2</ele>
        <time>2026-03-12T09:27:40Z</time>
      </trkpt>
      <trkpt lat="48.84707" lon="7.31199">
        <ele>303.8</ele>
        <time>2026-03-12T09:27:45Z</time>
      </trkpt>
      <trkpt lat="48.84709" lon="7.31196">
        <ele>304.6</ele>
        <time>2026-03-12T09:27:50Z</time>
      </trkpt>
      <trkpt lat="48.84711" lon="7.31193">
        <ele>305.4</ele>
        <time>2026-03-12T09:27:55Z</time>
      </trkpt>
      <trkpt lat="48.84714" lon="7.31188">
        <ele>306.6</ele>
        <time>2026-03-12T09:28:00Z</time>
      </trkpt>
      <trkpt lat="48.84717" lon="7.31185">
        <ele>307.7</ele>
        <time>2026-03-12T09:28:05Z</time>
      </trkpt>
      <trkpt lat="48.84719" lon="7.31182">
        <ele>308.5</ele>
        <time>2026-03-12T09:28:10Z</time>
      </trkpt>
      <trkpt lat="48.84724" lon="7.3118">
        <ele>310.4</ele>
        <time>2026-03-12T09:28:15Z</time>
      </trkpt>
      <trkpt lat="48.84728" lon="7.31174">
        <ele>311.9</ele>
        <time>2026-03-12T09:28:20Z</time>
      </trkpt>
      <trkpt lat="48.84733" lon="7.31174">
        <ele>313.8</ele>
        <time>2026-03-12T09:28:25Z</time>
      </trkpt>
      <trkpt lat="48.84734" lon="7.31174">
        <ele>314.1</ele>
        <time>2026-03-12T09:28:30Z</time>
      </trkpt>
      <trkpt lat="48.84734" lon="7.31174">
        <ele>314.1</ele>
        <time>2026-03-12T09:28:35Z</time>
      </trkpt>
      <trkpt lat="48.84734" lon="7.31174">
        <ele>314.1</ele>
        <time>2026-03-12T09:28:40Z</time>
      </trkpt>
      <trkpt lat="48.84734" lon="7.31174">
        <ele>314.1</ele>
        <time>2026-03-12T09:28:45Z</time>
      </trkpt>
      <trkpt lat="48.84734" lon="7.31174">
        <ele>314.1</ele>
        <time>2026-03-12T09:28:50Z</time>
      </trkpt>
      <trkpt lat="48.84735" lon="7.31168">
        <ele>314.4</ele>
        <time>2026-03-12T09:28:55Z</time>
      </trkpt>
      <trkpt lat="48.84738" lon="7.31164">
        <ele>315.3</ele>
        <time>2026-03-12T09:29:00Z</time>
      </trkpt>
      <trkpt lat="48.84742" lon="7.31159">
        <ele>316.2</ele>
        <time>2026-03-12T09:29:05Z</time>
      </trkpt>
      <trkpt lat="48.84744" lon="7.31158">
        <ele>316.8</ele>
        <time>2026-03-12T09:29:10Z</time>
      </trkpt>
      <trkpt lat="48.84749" lon="7.31158">
        <ele>318.6</ele>
        <time>2026-03-12T09:29:15Z</time>
      </trkpt>
      <trkpt lat="48.84753" lon="7.31158">
        <ele>319.8</ele>
        <time>2026-03-12T09:29:20Z</time>
      </trkpt>
      <trkpt lat="48.84753" lon="7.3116">
        <ele>320.1</ele>
        <time>2026-03-12T09:29:25Z</time>
      </trkpt>
      <trkpt lat="48.84753" lon="7.3116">
        <ele>320.1</ele>
        <time>2026-03-12T09:29:30Z</time>
      </trkpt>
      <trkpt lat="48.84753" lon="7.3116">
        <ele>320.1</ele>
        <time>2026-03-12T09:29:35Z</time>
      </trkpt>
      <trkpt lat="48.84753" lon="7.3116">
        <ele>320.1</ele>
        <time>2026-03-12T09:29:40Z</time>
      </trkpt>
      <trkpt lat="48.8476" lon="7.31158">
        <ele>321.8</ele>
        <time>2026-03-12T09:29:45Z</time>
      </trkpt>
      <trkpt lat="48.84762" lon="7.31157">
        <ele>322.2</ele>
        <time>2026-03-12T09:29:50Z</time>
      </trkpt>
      <trkpt lat="48.84763" lon="7.31155">
        <ele>322.2</ele>
        <time>2026-03-12T09:29:55Z</time>
      </trkpt>
      <trkpt lat="48.84763" lon="7.31155">
        <ele>322.2</ele>
        <time>2026-03-12T09:30:00Z</time>
      </trkpt>
      <trkpt lat="48.84763" lon="7.31155">
        <ele>322.2</ele>
        <time>2026-03-12T09:30:05Z</time>
      </trkpt>
      <trkpt lat="48.84761" lon="7.31152">
        <ele>321.2</ele>
        <time>2026-03-12T09:30:10Z</time>
      </trkpt>
      <trkpt lat="48.84757" lon="7.31153">
        <ele>320.3</ele>
        <time>2026-03-12T09:30:15Z</time>
      </trkpt>
      <trkpt lat="48.84754" lon="7.3115">
        <ele>319.1</ele>
        <time>2026-03-12T09:30:20Z</time>
      </trkpt>
      <trkpt lat="48.84747" lon="7.31141">
        <ele>315.9</ele>
        <time>2026-03-12T09:30:25Z</time>
      </trkpt>
      <trkpt lat="48.8474" lon="7.31139">
        <ele>313.4</ele>
        <time>2026-03-12T09:30:30Z</time>
      </trkpt>
      <trkpt lat="48.84736" lon="7.31139">
        <ele>312</ele>
        <time>2026-03-12T09:30:35Z</time>
      </trkpt>
      <trkpt lat="48.84732" lon="7.31139">
        <ele>310.7</ele>
        <time>2026-03-12T09:30:40Z</time>
      </trkpt>
      <trkpt lat="48.84728" lon="7.3114">
        <ele>309.5</ele>
        <time>2026-03-12T09:30:45Z</time>
      </trkpt>
      <trkpt lat="48.84724" lon="7.31143">
        <ele>308.4</ele>
        <time>2026-03-12T09:30:50Z</time>
      </trkpt>
      <trkpt lat="48.84722" lon="7.31146">
        <ele>307.9</ele>
        <time>2026-03-12T09:30:55Z</time>
      </trkpt>
      <trkpt lat="48.84718" lon="7.31147">
        <ele>306.6</ele>
        <time>2026-03-12T09:31:00Z</time>
      </trkpt>
      <trkpt lat="48.84714" lon="7.31149">
        <ele>305.4</ele>
        <time>2026-03-12T09:31:05Z</time>
      </trkpt>
      <trkpt lat="48.84713" lon="7.31153">
        <ele>305.3</ele>
        <time>2026-03-12T09:31:10Z</time>
      </trkpt>
      <trkpt lat="48.84713" lon="7.31153">
        <ele>305.3</ele>
        <time>2026-03-12T09:31:15Z</time>
      </trkpt>
      <trkpt lat="48.84713" lon="7.31153">
        <ele>305.3</ele>
        <time>2026-03-12T09:31:20Z</time>
      </trkpt>
      <trkpt lat="48.84712" lon="7.31155">
        <ele>305.1</ele>
        <time>2026-03-12T09:31:25Z</time>
      </trkpt>
      <trkpt lat="48.84705" lon="7.31152">
        <ele>302.5</ele>
        <time>2026-03-12T09:31:30Z</time>
      </trkpt>
      <trkpt lat="48.84702" lon="7.31151">
        <ele>301.3</ele>
        <time>2026-03-12T09:31:35Z</time>
      </trkpt>
      <trkpt lat="48.84699" lon="7.3115">
        <ele>300.3</ele>
        <time>2026-03-12T09:31:40Z</time>
      </trkpt>
      <trkpt lat="48.84698" lon="7.3115">
        <ele>299.9</ele>
        <time>2026-03-12T09:31:45Z</time>
      </trkpt>
      <trkpt lat="48.84698" lon="7.3115">
        <ele>299.9</ele>
        <time>2026-03-12T09:31:50Z</time>
      </trkpt>
      <trkpt lat="48.84698" lon="7.3115">
        <ele>299.9</ele>
        <time>2026-03-12T09:31:55Z</time>
      </trkpt>
      <trkpt lat="48.84698" lon="7.3115">
        <ele>299.9</ele>
        <time>2026-03-12T09:32:00Z</time>
      </trkpt>
      <trkpt lat="48.84698" lon="7.3115">
        <ele>299.9</ele>
        <time>2026-03-12T09:32:05Z</time>
      </trkpt>
      <trkpt lat="48.84698" lon="7.3115">
        <ele>299.9</ele>
        <time>2026-03-12T09:32:10Z</time>
      </trkpt>
      <trkpt lat="48.84698" lon="7.3115">
        <ele>299.9</ele>
        <time>2026-03-12T09:32:15Z</time>
      </trkpt>
      <trkpt lat="48.84691" lon="7.31139">
        <ele>297.1</ele>
        <time>2026-03-12T09:32:20Z</time>
      </trkpt>
      <trkpt lat="48.84687" lon="7.31143">
        <ele>295.9</ele>
        <time>2026-03-12T09:32:25Z</time>
      </trkpt>
      <trkpt lat="48.84683" lon="7.31148">
        <ele>294.6</ele>
        <time>2026-03-12T09:32:30Z</time>
      </trkpt>
      <trkpt lat="48.8468" lon="7.31152">
        <ele>293.7</ele>
        <time>2026-03-12T09:32:35Z</time>
      </trkpt>
      <trkpt lat="48.84675" lon="7.31157">
        <ele>292</ele>
        <time>2026-03-12T09:32:40Z</time>
      </trkpt>
      <trkpt lat="48.84674" lon="7.31161">
        <ele>291.7</ele>
        <time>2026-03-12T09:32:45Z</time>
      </trkpt>
      <trkpt lat="48.84672" lon="7.31163">
        <ele>291</ele>
        <time>2026-03-12T09:32:50Z</time>
      </trkpt>
      <trkpt lat="48.84668" lon="7.3117">
        <ele>289.4</ele>
        <time>2026-03-12T09:32:55Z</time>
      </trkpt>
      <trkpt lat="48.84667" lon="7.31173">
        <ele>288.9</ele>
        <time>2026-03-12T09:33:00Z</time>
      </trkpt>
      <trkpt lat="48.84667" lon="7.31173">
        <ele>288.9</ele>
        <time>2026-03-12T09:33:05Z</time>
      </trkpt>
      <trkpt lat="48.84667" lon="7.31173">
        <ele>288.9</ele>
        <time>2026-03-12T09:33:10Z</time>
      </trkpt>
      <trkpt lat="48.8466" lon="7.31188">
        <ele>286.9</ele>
        <time>2026-03-12T09:33:15Z</time>
      </trkpt>
      <trkpt lat="48.8466" lon="7.31188">
        <ele>286.9</ele>
        <time>2026-03-12T09:33:20Z</time>
      </trkpt>
      <trkpt lat="48.8466" lon="7.31188">
        <ele>286.9</ele>
        <time>2026-03-12T09:33:25Z</time>
      </trkpt>
      <trkpt lat="48.8466" lon="7.31188">
        <ele>286.9</ele>
        <time>2026-03-12T09:33:30Z</time>
      </trkpt>
      <trkpt lat="48.84654" lon="7.31192">
        <ele>285.5</ele>
        <time>2026-03-12T09:33:35Z</time>
      </trkpt>
      <trkpt lat="48.84653" lon="7.312">
        <ele>284.9</ele>
        <time>2026-03-12T09:33:40Z</time>
      </trkpt>
      <trkpt lat="48.84649" lon="7.31206">
        <ele>283.8</ele>
        <time>2026-03-12T09:33:45Z</time>
      </trkpt>
      <trkpt lat="48.84646" lon="7.31211">
        <ele>282.9</ele>
        <time>2026-03-12T09:33:50Z</time>
      </trkpt>
      <trkpt lat="48.84643" lon="7.31214">
        <ele>282.1</ele>
        <time>2026-03-12T09:33:55Z</time>
      </trkpt>
      <trkpt lat="48.84643" lon="7.31216">
        <ele>282</ele>
        <time>2026-03-12T09:34:00Z</time>
      </trkpt>
      <trkpt lat="48.84648" lon="7.31214">
        <ele>283.2</ele>
        <time>2026-03-12T09:34:05Z</time>
      </trkpt>
      <trkpt lat="48.84646" lon="7.31214">
        <ele>282.8</ele>
        <time>2026-03-12T09:34:10Z</time>
      </trkpt>
      <trkpt lat="48.84638" lon="7.31226">
        <ele>280.4</ele>
        <time>2026-03-12T09:34:15Z</time>
      </trkpt>
      <trkpt lat="48.84636" lon="7.31232">
        <ele>279.6</ele>
        <time>2026-03-12T09:34:20Z</time>
      </trkpt>
      <trkpt lat="48.84635" lon="7.31241">
        <ele>278.9</ele>
        <time>2026-03-12T09:34:25Z</time>
      </trkpt>
      <trkpt lat="48.84633" lon="7.31248">
        <ele>278</ele>
        <time>2026-03-12T09:34:30Z</time>
      </trkpt>
      <trkpt lat="48.84632" lon="7.31257">
        <ele>277.1</ele>
        <time>2026-03-12T09:34:35Z</time>
      </trkpt>
      <trkpt lat="48.84631" lon="7.31263">
        <ele>276.4</ele>
        <time>2026-03-12T09:34:40Z</time>
      </trkpt>
      <trkpt lat="48.84628" lon="7.31269">
        <ele>275.1</ele>
        <time>2026-03-12T09:34:45Z</time>
      </trkpt>
      <trkpt lat="48.84626" lon="7.31273">
        <ele>274.3</ele>
        <time>2026-03-12T09:34:50Z</time>
      </trkpt>
      <trkpt lat="48.84625" lon="7.31276">
        <ele>273.8</ele>
        <time>2026-03-12T09:34:55Z</time>
      </trkpt>
      <trkpt lat="48.84624" lon="7.31281">
        <ele>273.1</ele>
        <time>2026-03-12T09:35:00Z</time>
      </trkpt>
      <trkpt lat="48.84623" lon="7.31288">
        <ele>272.3</ele>
        <time>2026-03-12T09:35:05Z</time>
      </trkpt>
      <trkpt lat="48.84619" lon="7.31297">
        <ele>270.5</ele>
        <time>2026-03-12T09:35:10Z</time>
      </trkpt>
      <trkpt lat="48.84617" lon="7.31301">
        <ele>269.7</ele>
        <time>2026-03-12T09:35:15Z</time>
      </trkpt>
      <trkpt lat="48.84617" lon="7.31305">
        <ele>269.3</ele>
        <time>2026-03-12T09:35:20Z</time>
      </trkpt>
      <trkpt lat="48.84616" lon="7.31309">
        <ele>268.7</ele>
        <time>2026-03-12T09:35:25Z</time>
      </trkpt>
      <trkpt lat="48.84616" lon="7.3131">
        <ele>268.6</ele>
        <time>2026-03-12T09:35:30Z</time>
      </trkpt>
      <trkpt lat="48.84607" lon="7.31311">
        <ele>266.2</ele>
        <time>2026-03-12T09:35:35Z</time>
      </trkpt>
      <trkpt lat="48.84605" lon="7.31314">
        <ele>265.5</ele>
        <time>2026-03-12T09:35:40Z</time>
      </trkpt>
      <trkpt lat="48.84604" lon="7.3132">
        <ele>264.7</ele>
        <time>2026-03-12T09:35:45Z</time>
      </trkpt>
      <trkpt lat="48.84605" lon="7.31326">
        <ele>264.4</ele>
        <time>2026-03-12T09:35:50Z</time>
      </trkpt>
      <trkpt lat="48.84605" lon="7.31335">
        <ele>263.6</ele>
        <time>2026-03-12T09:35:55Z</time>
      </trkpt>
      <trkpt lat="48.84603" lon="7.31342">
        <ele>262.4</ele>
        <time>2026-03-12T09:36:00Z</time>
      </trkpt>
      <trkpt lat="48.84603" lon="7.31349">
        <ele>261.8</ele>
        <time>2026-03-12T09:36:05Z</time>
      </trkpt>
      <trkpt lat="48.84603" lon="7.31353">
        <ele>261.4</ele>
        <time>2026-03-12T09:36:10Z</time>
      </trkpt>
      <trkpt lat="48.84603" lon="7.31361">
        <ele>260.7</ele>
        <time>2026-03-12T09:36:15Z</time>
      </trkpt>
      <trkpt lat="48.84602" lon="7.31367">
        <ele>259.9</ele>
        <time>2026-03-12T09:36:20Z</time>
      </trkpt>
      <trkpt lat="48.84602" lon="7.31376">
        <ele>259.1</ele>
        <time>2026-03-12T09:36:25Z</time>
      </trkpt>
      <trkpt lat="48.84602" lon="7.31382">
        <ele>258.6</ele>
        <time>2026-03-12T09:36:30Z</time>
      </trkpt>
      <trkpt lat="48.84601" lon="7.3139">
        <ele>257.6</ele>
        <time>2026-03-12T09:36:35Z</time>
      </trkpt>
      <trkpt lat="48.84602" lon="7.31399">
        <ele>257.1</ele>
        <time>2026-03-12T09:36:40Z</time>
      </trkpt>
      <trkpt lat="48.84602" lon="7.31407">
        <ele>256.3</ele>
        <time>2026-03-12T09:36:45Z</time>
      </trkpt>
      <trkpt lat="48.84601" lon="7.31413">
        <ele>255.6</ele>
        <time>2026-03-12T09:36:50Z</time>
      </trkpt>
      <trkpt lat="48.84601" lon="7.31421">
        <ele>254.8</ele>
        <time>2026-03-12T09:36:55Z</time>
      </trkpt>
      <trkpt lat="48.84602" lon="7.31429">
        <ele>254.1</ele>
        <time>2026-03-12T09:37:00Z</time>
      </trkpt>
      <trkpt lat="48.84603" lon="7.31437">
        <ele>253.5</ele>
        <time>2026-03-12T09:37:05Z</time>
      </trkpt>
      <trkpt lat="48.84604" lon="7.31447">
        <ele>252.7</ele>
        <time>2026-03-12T09:37:10Z</time>
      </trkpt>
      <trkpt lat="48.84605" lon="7.31453">
        <ele>252.3</ele>
        <time>2026-03-12T09:37:15Z</time>
      </trkpt>
      <trkpt lat="48.84605" lon="7.3146">
        <ele>251.5</ele>
        <time>2026-03-12T09:37:20Z</time>
      </trkpt>
      <trkpt lat="48.84604" lon="7.31462">
        <ele>251.1</ele>
        <time>2026-03-12T09:37:25Z</time>
      </trkpt>
      <trkpt lat="48.84602" lon="7.3146">
        <ele>250.8</ele>
        <time>2026-03-12T09:37:30Z</time>
      </trkpt>
      <trkpt lat="48.84597" lon="7.31461">
        <ele>249.5</ele>
        <time>2026-03-12T09:37:35Z</time>
      </trkpt>
      <trkpt lat="48.84598" lon="7.31467">
        <ele>249.1</ele>
        <time>2026-03-12T09:37:40Z</time>
      </trkpt>
      <trkpt lat="48.846" lon="7.31475">
        <ele>248.7</ele>
        <time>2026-03-12T09:37:45Z</time>
      </trkpt>
      <trkpt lat="48.84601" lon="7.31484">
        <ele>248</ele>
        <time>2026-03-12T09:37:50Z</time>
      </trkpt>
      <trkpt lat="48.84603" lon="7.31494">
        <ele>247.4</ele>
        <time>2026-03-12T09:37:55Z</time>
      </trkpt>
      <trkpt lat="48.84603" lon="7.31503">
        <ele>246.4</ele>
        <time>2026-03-12T09:38:00Z</time>
      </trkpt>
      <trkpt lat="48.84599" lon="7.31514">
        <ele>244.4</ele>
        <time>2026-03-12T09:38:05Z</time>
      </trkpt>
      <trkpt lat="48.84599" lon="7.31526">
        <ele>243.3</ele>
        <time>2026-03-12T09:38:10Z</time>
      </trkpt>
      <trkpt lat="48.84603" lon="7.31536">
        <ele>243.3</ele>
        <time>2026-03-12T09:38:15Z</time>
      </trkpt>
      <trkpt lat="48.84605" lon="7.31541">
        <ele>243.3</ele>
        <time>2026-03-12T09:38:20Z</time>
      </trkpt>
      <trkpt lat="48.84603" lon="7.31547">
        <ele>242.2</ele>
        <time>2026-03-12T09:38:25Z</time>
      </trkpt>
      <trkpt lat="48.84604" lon="7.31555">
        <ele>241.7</ele>
        <time>2026-03-12T09:38:30Z</time>
      </trkpt>
      <trkpt lat="48.84607" lon="7.31563">
        <ele>241.6</ele>
        <time>2026-03-12T09:38:35Z</time>
      </trkpt>
      <trkpt lat="48.84607" lon="7.31566">
        <ele>241.3</ele>
        <time>2026-03-12T09:38:40Z</time>
      </trkpt>
      <trkpt lat="48.84604" lon="7.31564">
        <ele>240.8</ele>
        <time>2026-03-12T09:38:45Z</time>
      </trkpt>
      <trkpt lat="48.84599" lon="7.31558">
        <ele>240.2</ele>
        <time>2026-03-12T09:38:50Z</time>
      </trkpt>
      <trkpt lat="48.84595" lon="7.31558">
        <ele>239.2</ele>
        <time>2026-03-12T09:38:55Z</time>
      </trkpt>
      <trkpt lat="48.84594" lon="7.31566">
        <ele>238.2</ele>
        <time>2026-03-12T09:39:00Z</time>
      </trkpt>
      <trkpt lat="48.84594" lon="7.31572">
        <ele>237.6</ele>
        <time>2026-03-12T09:39:05Z</time>
      </trkpt>
      <trkpt lat="48.84594" lon="7.31574">
        <ele>237.5</ele>
        <time>2026-03-12T09:39:10Z</time>
      </trkpt>
      <trkpt lat="48.84591" lon="7.3157">
        <ele>237.1</ele>
        <time>2026-03-12T09:39:15Z</time>
      </trkpt>
      <trkpt lat="48.84588" lon="7.31564">
        <ele>237</ele>
        <time>2026-03-12T09:39:20Z</time>
      </trkpt>
      <trkpt lat="48.84587" lon="7.31565">
        <ele>236.6</ele>
        <time>2026-03-12T09:39:25Z</time>
      </trkpt>
      <trkpt lat="48.84585" lon="7.31573">
        <ele>235.4</ele>
        <time>2026-03-12T09:39:30Z</time>
      </trkpt>
      <trkpt lat="48.84588" lon="7.31582">
        <ele>235.2</ele>
        <time>2026-03-12T09:39:35Z</time>
      </trkpt>
      <trkpt lat="48.84591" lon="7.31589">
        <ele>235.2</ele>
        <time>2026-03-12T09:39:40Z</time>
      </trkpt>
      <trkpt lat="48.84591" lon="7.31589">
        <ele>235.2</ele>
        <time>2026-03-12T09:39:45Z</time>
      </trkpt>
      <trkpt lat="48.84588" lon="7.31583">
        <ele>235.2</ele>
        <time>2026-03-12T09:39:50Z</time>
      </trkpt>
      <trkpt lat="48.84584" lon="7.3158">
        <ele>234.5</ele>
        <time>2026-03-12T09:39:55Z</time>
      </trkpt>
      <trkpt lat="48.84581" lon="7.31579">
        <ele>234</ele>
        <time>2026-03-12T09:40:00Z</time>
      </trkpt>
      <trkpt lat="48.84578" lon="7.31578">
        <ele>233.6</ele>
        <time>2026-03-12T09:40:05Z</time>
      </trkpt>
      <trkpt lat="48.84576" lon="7.31584">
        <ele>232.7</ele>
        <time>2026-03-12T09:40:10Z</time>
      </trkpt>
      <trkpt lat="48.84578" lon="7.31593">
        <ele>232.2</ele>
        <time>2026-03-12T09:40:15Z</time>
      </trkpt>
      <trkpt lat="48.84582" lon="7.31603">
        <ele>231.9</ele>
        <time>2026-03-12T09:40:20Z</time>
      </trkpt>
      <trkpt lat="48.84585" lon="7.31611">
        <ele>231.7</ele>
        <time>2026-03-12T09:40:25Z</time>
      </trkpt>
      <trkpt lat="48.84587" lon="7.31617">
        <ele>231.5</ele>
        <time>2026-03-12T09:40:30Z</time>
      </trkpt>
      <trkpt lat="48.84588" lon="7.31624">
        <ele>231</ele>
        <time>2026-03-12T09:40:35Z</time>
      </trkpt>
      <trkpt lat="48.84589" lon="7.31629">
        <ele>230.7</ele>
        <time>2026-03-12T09:40:40Z</time>
      </trkpt>
      <trkpt lat="48.84593" lon="7.31636">
        <ele>230.7</ele>
        <time>2026-03-12T09:40:45Z</time>
      </trkpt>
      <trkpt lat="48.84595" lon="7.31638">
        <ele>230.8</ele>
        <time>2026-03-12T09:40:50Z</time>
      </trkpt>
      <trkpt lat="48.84598" lon="7.31647">
        <ele>230.3</ele>
        <time>2026-03-12T09:40:55Z</time>
      </trkpt>
      <trkpt lat="48.846" lon="7.31655">
        <ele>229.7</ele>
        <time>2026-03-12T09:41:00Z</time>
      </trkpt>
      <trkpt lat="48.84602" lon="7.31663">
        <ele>229.1</ele>
        <time>2026-03-12T09:41:05Z</time>
      </trkpt>
      <trkpt lat="48.84606" lon="7.31668">
        <ele>229.2</ele>
        <time>2026-03-12T09:41:10Z</time>
      </trkpt>
      <trkpt lat="48.84609" lon="7.31672">
        <ele>229.4</ele>
        <time>2026-03-12T09:41:15Z</time>
      </trkpt>
      <trkpt lat="48.8461" lon="7.31679">
        <ele>229.1</ele>
        <time>2026-03-12T09:41:20Z</time>
      </trkpt>
      <trkpt lat="48.84615" lon="7.31688">
        <ele>229.1</ele>
        <time>2026-03-12T09:41:25Z</time>
      </trkpt>
      <trkpt lat="48.8462" lon="7.31694">
        <ele>229.3</ele>
        <time>2026-03-12T09:41:30Z</time>
      </trkpt>
      <trkpt lat="48.84623" lon="7.317">
        <ele>229.2</ele>
        <time>2026-03-12T09:41:35Z</time>
      </trkpt>
      <trkpt lat="48.84625" lon="7.31708">
        <ele>228.8</ele>
        <time>2026-03-12T09:41:40Z</time>
      </trkpt>
      <trkpt lat="48.8463" lon="7.31717">
        <ele>228.5</ele>
        <time>2026-03-12T09:41:45Z</time>
      </trkpt>
      <trkpt lat="48.84633" lon="7.31723">
        <ele>228.3</ele>
        <time>2026-03-12T09:41:50Z</time>
      </trkpt>
      <trkpt lat="48.84633" lon="7.3173">
        <ele>227.7</ele>
        <time>2026-03-12T09:41:55Z</time>
      </trkpt>
      <trkpt lat="48.8463" lon="7.31739">
        <ele>226.7</ele>
        <time>2026-03-12T09:42:00Z</time>
      </trkpt>
      <trkpt lat="48.84631" lon="7.31748">
        <ele>226</ele>
        <time>2026-03-12T09:42:05Z</time>
      </trkpt>
      <trkpt lat="48.84626" lon="7.31759">
        <ele>225.5</ele>
        <time>2026-03-12T09:42:10Z</time>
      </trkpt>
      <trkpt lat="48.84624" lon="7.31768">
        <ele>225.5</ele>
        <time>2026-03-12T09:42:15Z</time>
      </trkpt>
      <trkpt lat="48.84626" lon="7.31771">
        <ele>225.5</ele>
        <time>2026-03-12T09:42:20Z</time>
      </trkpt>
      <trkpt lat="48.84626" lon="7.31771">
        <ele>225.5</ele>
        <time>2026-03-12T09:42:25Z</time>
      </trkpt>
      <trkpt lat="48.84626" lon="7.31771">
        <ele>225.5</ele>
        <time>2026-03-12T09:42:30Z</time>
      </trkpt>
      <trkpt lat="48.84626" lon="7.31771">
        <ele>225.5</ele>
        <time>2026-03-12T09:42:35Z</time>
      </trkpt>
      <trkpt lat="48.84625" lon="7.31768">
        <ele>225.5</ele>
        <time>2026-03-12T09:42:40Z</time>
      </trkpt>
      <trkpt lat="48.84619" lon="7.31772">
        <ele>225.3</ele>
        <time>2026-03-12T09:42:45Z</time>
      </trkpt>
      <trkpt lat="48.84613" lon="7.31772">
        <ele>225.2</ele>
        <time>2026-03-12T09:42:50Z</time>
      </trkpt>
      <trkpt lat="48.84605" lon="7.31772">
        <ele>224.9</ele>
        <time>2026-03-12T09:42:55Z</time>
      </trkpt>
      <trkpt lat="48.846" lon="7.3177">
        <ele>224.7</ele>
        <time>2026-03-12T09:43:00Z</time>
      </trkpt>
      <trkpt lat="48.84593" lon="7.31771">
        <ele>224.5</ele>
        <time>2026-03-12T09:43:05Z</time>
      </trkpt>
      <trkpt lat="48.84587" lon="7.31773">
        <ele>224.5</ele>
        <time>2026-03-12T09:43:10Z</time>
      </trkpt>
      <trkpt lat="48.84579" lon="7.31774">
        <ele>224.7</ele>
        <time>2026-03-12T09:43:15Z</time>
      </trkpt>
      <trkpt lat="48.8457" lon="7.31775">
        <ele>225.4</ele>
        <time>2026-03-12T09:43:20Z</time>
      </trkpt>
      <trkpt lat="48.84563" lon="7.31778">
        <ele>226.1</ele>
        <time>2026-03-12T09:43:25Z</time>
      </trkpt>
      <trkpt lat="48.84554" lon="7.31779">
        <ele>226.8</ele>
        <time>2026-03-12T09:43:30Z</time>
      </trkpt>
      <trkpt lat="48.8455" lon="7.31782">
        <ele>227.3</ele>
        <time>2026-03-12T09:43:35Z</time>
      </trkpt>
      <trkpt lat="48.84543" lon="7.31784">
        <ele>228.1</ele>
        <time>2026-03-12T09:43:40Z</time>
      </trkpt>
      <trkpt lat="48.84538" lon="7.31785">
        <ele>228.6</ele>
        <time>2026-03-12T09:43:45Z</time>
      </trkpt>
      <trkpt lat="48.84535" lon="7.31787">
        <ele>229</ele>
        <time>2026-03-12T09:43:50Z</time>
      </trkpt>
      <trkpt lat="48.84535" lon="7.31787">
        <ele>229</ele>
        <time>2026-03-12T09:43:55Z</time>
      </trkpt>
      <trkpt lat="48.84535" lon="7.31787">
        <ele>229</ele>
        <time>2026-03-12T09:44:00Z</time>
      </trkpt>
      <trkpt lat="48.84532" lon="7.31784">
        <ele>228.9</ele>
        <time>2026-03-12T09:44:05Z</time>
      </trkpt>
      <trkpt lat="48.84526" lon="7.31782">
        <ele>229.1</ele>
        <time>2026-03-12T09:44:10Z</time>
      </trkpt>
      <trkpt lat="48.84519" lon="7.31781">
        <ele>229.5</ele>
        <time>2026-03-12T09:44:15Z</time>
      </trkpt>
      <trkpt lat="48.84515" lon="7.31779">
        <ele>229.5</ele>
        <time>2026-03-12T09:44:20Z</time>
      </trkpt>
      <trkpt lat="48.84509" lon="7.31778">
        <ele>229.8</ele>
        <time>2026-03-12T09:44:25Z</time>
      </trkpt>
      <trkpt lat="48.84502" lon="7.31775">
        <ele>229.8</ele>
        <time>2026-03-12T09:44:30Z</time>
      </trkpt>
      <trkpt lat="48.84497" lon="7.31771">
        <ele>229.4</ele>
        <time>2026-03-12T09:44:35Z</time>
      </trkpt>
      <trkpt lat="48.84491" lon="7.31767">
        <ele>229</ele>
        <time>2026-03-12T09:44:40Z</time>
      </trkpt>
      <trkpt lat="48.84485" lon="7.31762">
        <ele>228.5</ele>
        <time>2026-03-12T09:44:45Z</time>
      </trkpt>
      <trkpt lat="48.84478" lon="7.31758">
        <ele>228.2</ele>
        <time>2026-03-12T09:44:50Z</time>
      </trkpt>
      <trkpt lat="48.84472" lon="7.31754">
        <ele>227.9</ele>
        <time>2026-03-12T09:44:55Z</time>
      </trkpt>
      <trkpt lat="48.84467" lon="7.31752">
        <ele>227.8</ele>
        <time>2026-03-12T09:45:00Z</time>
      </trkpt>
      <trkpt lat="48.84461" lon="7.3175">
        <ele>227.9</ele>
        <time>2026-03-12T09:45:05Z</time>
      </trkpt>
      <trkpt lat="48.84454" lon="7.31748">
        <ele>228</ele>
        <time>2026-03-12T09:45:10Z</time>
      </trkpt>
      <trkpt lat="48.84447" lon="7.31741">
        <ele>227.7</ele>
        <time>2026-03-12T09:45:15Z</time>
      </trkpt>
      <trkpt lat="48.84441" lon="7.31734">
        <ele>227.3</ele>
        <time>2026-03-12T09:45:20Z</time>
      </trkpt>
      <trkpt lat="48.84435" lon="7.31728">
        <ele>226.9</ele>
        <time>2026-03-12T09:45:25Z</time>
      </trkpt>
      <trkpt lat="48.8443" lon="7.31722">
        <ele>226.5</ele>
        <time>2026-03-12T09:45:30Z</time>
      </trkpt>
      <trkpt lat="48.84425" lon="7.31716">
        <ele>226.1</ele>
        <time>2026-03-12T09:45:35Z</time>
      </trkpt>
      <trkpt lat="48.84419" lon="7.31712">
        <ele>225.8</ele>
        <time>2026-03-12T09:45:40Z</time>
      </trkpt>
      <trkpt lat="48.84413" lon="7.31705">
        <ele>225.3</ele>
        <time>2026-03-12T09:45:45Z</time>
      </trkpt>
      <trkpt lat="48.84408" lon="7.31699">
        <ele>224.8</ele>
        <time>2026-03-12T09:45:50Z</time>
      </trkpt>
      <trkpt lat="48.84403" lon="7.31691">
        <ele>224.1</ele>
        <time>2026-03-12T09:45:55Z</time>
      </trkpt>
      <trkpt lat="48.84398" lon="7.31684">
        <ele>223.5</ele>
        <time>2026-03-12T09:46:00Z</time>
      </trkpt>
      <trkpt lat="48.84392" lon="7.31678">
        <ele>223.1</ele>
        <time>2026-03-12T09:46:05Z</time>
      </trkpt>
      <trkpt lat="48.84387" lon="7.31672">
        <ele>222.6</ele>
        <time>2026-03-12T09:46:10Z</time>
      </trkpt>
      <trkpt lat="48.84383" lon="7.31667">
        <ele>222.2</ele>
        <time>2026-03-12T09:46:15Z</time>
      </trkpt>
      <trkpt lat="48.84378" lon="7.31661">
        <ele>222</ele>
        <time>2026-03-12T09:46:20Z</time>
      </trkpt>
      <trkpt lat="48.84372" lon="7.31653">
        <ele>221.6</ele>
        <time>2026-03-12T09:46:25Z</time>
      </trkpt>
      <trkpt lat="48.84367" lon="7.31645">
        <ele>221.2</ele>
        <time>2026-03-12T09:46:30Z</time>
      </trkpt>
      <trkpt lat="48.84361" lon="7.31637">
        <ele>220.7</ele>
        <time>2026-03-12T09:46:35Z</time>
      </trkpt>
      <trkpt lat="48.84355" lon="7.3163">
        <ele>220.4</ele>
        <time>2026-03-12T09:46:40Z</time>
      </trkpt>
      <trkpt lat="48.84351" lon="7.31624">
        <ele>220</ele>
        <time>2026-03-12T09:46:45Z</time>
      </trkpt>
      <trkpt lat="48.84348" lon="7.31618">
        <ele>219.6</ele>
        <time>2026-03-12T09:46:50Z</time>
      </trkpt>
      <trkpt lat="48.84347" lon="7.3161">
        <ele>219</ele>
        <time>2026-03-12T09:46:55Z</time>
      </trkpt>
      <trkpt lat="48.84344" lon="7.31599">
        <ele>218.1</ele>
        <time>2026-03-12T09:47:00Z</time>
      </trkpt>
      <trkpt lat="48.84341" lon="7.31587">
        <ele>217.2</ele>
        <time>2026-03-12T09:47:05Z</time>
      </trkpt>
      <trkpt lat="48.84339" lon="7.31579">
        <ele>216.7</ele>
        <time>2026-03-12T09:47:10Z</time>
      </trkpt>
      <trkpt lat="48.84337" lon="7.31569">
        <ele>216.3</ele>
        <time>2026-03-12T09:47:15Z</time>
      </trkpt>
      <trkpt lat="48.84335" lon="7.31569">
        <ele>216.3</ele>
        <time>2026-03-12T09:47:20Z</time>
      </trkpt>
      <trkpt lat="48.84333" lon="7.31571">
        <ele>216.5</ele>
        <time>2026-03-12T09:47:25Z</time>
      </trkpt>
      <trkpt lat="48.84333" lon="7.31571">
        <ele>216.5</ele>
        <time>2026-03-12T09:47:30Z</time>
      </trkpt>
      <trkpt lat="48.84333" lon="7.31571">
        <ele>216.5</ele>
        <time>2026-03-12T09:47:35Z</time>
      </trkpt>
      <trkpt lat="48.84333" lon="7.31571">
        <ele>216.5</ele>
        <time>2026-03-12T09:47:40Z</time>
      </trkpt>
      <trkpt lat="48.84333" lon="7.31571">
        <ele>216.5</ele>
        <time>2026-03-12T09:47:45Z</time>
      </trkpt>
      <trkpt lat="48.84333" lon="7.31571">
        <ele>216.5</ele>
        <time>2026-03-12T09:47:50Z</time>
      </trkpt>
      <trkpt lat="48.84333" lon="7.31571">
        <ele>216.5</ele>
        <time>2026-03-12T09:47:55Z</time>
      </trkpt>
      <trkpt lat="48.84333" lon="7.31571">
        <ele>216.5</ele>
        <time>2026-03-12T09:48:00Z</time>
      </trkpt>
      <trkpt lat="48.84333" lon="7.31571">
        <ele>216.5</ele>
        <time>2026-03-12T09:48:05Z</time>
      </trkpt>
      <trkpt lat="48.84336" lon="7.31567">
        <ele>216.2</ele>
        <time>2026-03-12T09:48:10Z</time>
      </trkpt>
      <trkpt lat="48.84333" lon="7.31552">
        <ele>215.6</ele>
        <time>2026-03-12T09:48:15Z</time>
      </trkpt>
      <trkpt lat="48.84328" lon="7.31542">
        <ele>216.3</ele>
        <time>2026-03-12T09:48:20Z</time>
      </trkpt>
      <trkpt lat="48.84323" lon="7.31538">
        <ele>217.3</ele>
        <time>2026-03-12T09:48:25Z</time>
      </trkpt>
      <trkpt lat="48.8432" lon="7.31531">
        <ele>217.6</ele>
        <time>2026-03-12T09:48:30Z</time>
      </trkpt>
      <trkpt lat="48.84316" lon="7.3152">
        <ele>217.8</ele>
        <time>2026-03-12T09:48:35Z</time>
      </trkpt>
      <trkpt lat="48.84313" lon="7.31505">
        <ele>217.5</ele>
        <time>2026-03-12T09:48:40Z</time>
      </trkpt>
      <trkpt lat="48.8431" lon="7.31496">
        <ele>217.9</ele>
        <time>2026-03-12T09:48:45Z</time>
      </trkpt>
      <trkpt lat="48.84308" lon="7.31487">
        <ele>218.5</ele>
        <time>2026-03-12T09:48:50Z</time>
      </trkpt>
      <trkpt lat="48.84307" lon="7.31479">
        <ele>218.9</ele>
        <time>2026-03-12T09:48:55Z</time>
      </trkpt>
      <trkpt lat="48.84307" lon="7.31472">
        <ele>219</ele>
        <time>2026-03-12T09:49:00Z</time>
      </trkpt>
      <trkpt lat="48.84305" lon="7.31471">
        <ele>219.3</ele>
        <time>2026-03-12T09:49:05Z</time>
      </trkpt>
      <trkpt lat="48.84304" lon="7.31468">
        <ele>219.5</ele>
        <time>2026-03-12T09:49:10Z</time>
      </trkpt>
      <trkpt lat="48.84307" lon="7.3146">
        <ele>219.3</ele>
        <time>2026-03-12T09:49:15Z</time>
      </trkpt>
      <trkpt lat="48.84311" lon="7.31452">
        <ele>219.1</ele>
        <time>2026-03-12T09:49:20Z</time>
      </trkpt>
      <trkpt lat="48.84313" lon="7.31442">
        <ele>219.3</ele>
        <time>2026-03-12T09:49:25Z</time>
      </trkpt>
      <trkpt lat="48.84314" lon="7.31432">
        <ele>219.6</ele>
        <time>2026-03-12T09:49:30Z</time>
      </trkpt>
      <trkpt lat="48.84313" lon="7.31427">
        <ele>219.9</ele>
        <time>2026-03-12T09:49:35Z</time>
      </trkpt>
      <trkpt lat="48.8431" lon="7.31421">
        <ele>220.1</ele>
        <time>2026-03-12T09:49:40Z</time>
      </trkpt>
      <trkpt lat="48.8431" lon="7.31421">
        <ele>220.1</ele>
        <time>2026-03-12T09:49:45Z</time>
      </trkpt>
      <trkpt lat="48.8431" lon="7.31421">
        <ele>220.1</ele>
        <time>2026-03-12T09:49:50Z</time>
      </trkpt>
      <trkpt lat="48.84308" lon="7.31416">
        <ele>220.4</ele>
        <time>2026-03-12T09:49:55Z</time>
      </trkpt>
      <trkpt lat="48.84303" lon="7.31415">
        <ele>220.5</ele>
        <time>2026-03-12T09:50:00Z</time>
      </trkpt>
      <trkpt lat="48.843" lon="7.31414">
        <ele>220.6</ele>
        <time>2026-03-12T09:50:05Z</time>
      </trkpt>
      <trkpt lat="48.84299" lon="7.3141">
        <ele>220.9</ele>
        <time>2026-03-12T09:50:10Z</time>
      </trkpt>
      <trkpt lat="48.84297" lon="7.31406">
        <ele>221.2</ele>
        <time>2026-03-12T09:50:15Z</time>
      </trkpt>
      <trkpt lat="48.84294" lon="7.31403">
        <ele>221.4</ele>
        <time>2026-03-12T09:50:20Z</time>
      </trkpt>
      <trkpt lat="48.84291" lon="7.31399">
        <ele>221.7</ele>
        <time>2026-03-12T09:50:25Z</time>
      </trkpt>
      <trkpt lat="48.84291" lon="7.31394">
        <ele>222</ele>
        <time>2026-03-12T09:50:30Z</time>
      </trkpt>
      <trkpt lat="48.84288" lon="7.31392">
        <ele>222</ele>
        <time>2026-03-12T09:50:35Z</time>
      </trkpt>
      <trkpt lat="48.84284" lon="7.3139">
        <ele>222</ele>
        <time>2026-03-12T09:50:40Z</time>
      </trkpt>
      <trkpt lat="48.84281" lon="7.31389">
        <ele>222</ele>
        <time>2026-03-12T09:50:45Z</time>
      </trkpt>
      <trkpt lat="48.84279" lon="7.31387">
        <ele>222</ele>
        <time>2026-03-12T09:50:50Z</time>
      </trkpt>
      <trkpt lat="48.84279" lon="7.31387">
        <ele>222</ele>
        <time>2026-03-12T09:50:55Z</time>
      </trkpt>
      <trkpt lat="48.84279" lon="7.31373">
        <ele>222.7</ele>
        <time>2026-03-12T09:51:00Z</time>
      </trkpt>
      <trkpt lat="48.84278" lon="7.3137">
        <ele>222.7</ele>
        <time>2026-03-12T09:51:05Z</time>
      </trkpt>
      <trkpt lat="48.84278" lon="7.3137">
        <ele>222.7</ele>
        <time>2026-03-12T09:51:10Z</time>
      </trkpt>
      <trkpt lat="48.84278" lon="7.3137">
        <ele>222.7</ele>
        <time>2026-03-12T09:51:15Z</time>
      </trkpt>
      <trkpt lat="48.8427" lon="7.31357">
        <ele>222.7</ele>
        <time>2026-03-12T09:51:20Z</time>
      </trkpt>
      <trkpt lat="48.84267" lon="7.31355">
        <ele>222.5</ele>
        <time>2026-03-12T09:51:25Z</time>
      </trkpt>
      <trkpt lat="48.84264" lon="7.31352">
        <ele>222.3</ele>
        <time>2026-03-12T09:51:30Z</time>
      </trkpt>
      <trkpt lat="48.84261" lon="7.31348">
        <ele>222.1</ele>
        <time>2026-03-12T09:51:35Z</time>
      </trkpt>
      <trkpt lat="48.84259" lon="7.31343">
        <ele>221.9</ele>
        <time>2026-03-12T09:51:40Z</time>
      </trkpt>
      <trkpt lat="48.84256" lon="7.31335">
        <ele>221.7</ele>
        <time>2026-03-12T09:51:45Z</time>
      </trkpt>
      <trkpt lat="48.84251" lon="7.3133">
        <ele>221.6</ele>
        <time>2026-03-12T09:51:50Z</time>
      </trkpt>
      <trkpt lat="48.8425" lon="7.31329">
        <ele>221.6</ele>
        <time>2026-03-12T09:51:55Z</time>
      </trkpt>
      <trkpt lat="48.84245" lon="7.31326">
        <ele>222.1</ele>
        <time>2026-03-12T09:52:00Z</time>
      </trkpt>
      <trkpt lat="48.84241" lon="7.31323">
        <ele>222.5</ele>
        <time>2026-03-12T09:52:05Z</time>
      </trkpt>
      <trkpt lat="48.84238" lon="7.31317">
        <ele>223.2</ele>
        <time>2026-03-12T09:52:10Z</time>
      </trkpt>
      <trkpt lat="48.84234" lon="7.31312">
        <ele>223.7</ele>
        <time>2026-03-12T09:52:15Z</time>
      </trkpt>
      <trkpt lat="48.8423" lon="7.31308">
        <ele>224</ele>
        <time>2026-03-12T09:52:20Z</time>
      </trkpt>
      <trkpt lat="48.84225" lon="7.31305">
        <ele>224.1</ele>
        <time>2026-03-12T09:52:25Z</time>
      </trkpt>
      <trkpt lat="48.84221" lon="7.31303">
        <ele>224.2</ele>
        <time>2026-03-12T09:52:30Z</time>
      </trkpt>
      <trkpt lat="48.84219" lon="7.31302">
        <ele>224.2</ele>
        <time>2026-03-12T09:52:35Z</time>
      </trkpt>
      <trkpt lat="48.84216" lon="7.31299">
        <ele>224.2</ele>
        <time>2026-03-12T09:52:40Z</time>
      </trkpt>
      <trkpt lat="48.8421" lon="7.31293">
        <ele>224.3</ele>
        <time>2026-03-12T09:52:45Z</time>
      </trkpt>
      <trkpt lat="48.84202" lon="7.31285">
        <ele>224.1</ele>
        <time>2026-03-12T09:52:50Z</time>
      </trkpt>
      <trkpt lat="48.84195" lon="7.31279">
        <ele>223.7</ele>
        <time>2026-03-12T09:52:55Z</time>
      </trkpt>
      <trkpt lat="48.84188" lon="7.31274">
        <ele>223.1</ele>
        <time>2026-03-12T09:53:00Z</time>
      </trkpt>
      <trkpt lat="48.84184" lon="7.31268">
        <ele>222.7</ele>
        <time>2026-03-12T09:53:05Z</time>
      </trkpt>
      <trkpt lat="48.8418" lon="7.31262">
        <ele>222.2</ele>
        <time>2026-03-12T09:53:10Z</time>
      </trkpt>
      <trkpt lat="48.84177" lon="7.31258">
        <ele>221.7</ele>
        <time>2026-03-12T09:53:15Z</time>
      </trkpt>
      <trkpt lat="48.84174" lon="7.31254">
        <ele>221.2</ele>
        <time>2026-03-12T09:53:20Z</time>
      </trkpt>
      <trkpt lat="48.84171" lon="7.31248">
        <ele>221.1</ele>
        <time>2026-03-12T09:53:25Z</time>
      </trkpt>
      <trkpt lat="48.84167" lon="7.31242">
        <ele>221.6</ele>
        <time>2026-03-12T09:53:30Z</time>
      </trkpt>
      <trkpt lat="48.84163" lon="7.31235">
        <ele>222.9</ele>
        <time>2026-03-12T09:53:35Z</time>
      </trkpt>
      <trkpt lat="48.84156" lon="7.31227">
        <ele>224.3</ele>
        <time>2026-03-12T09:53:40Z</time>
      </trkpt>
      <trkpt lat="48.84151" lon="7.31219">
        <ele>225.6</ele>
        <time>2026-03-12T09:53:45Z</time>
      </trkpt>
      <trkpt lat="48.84146" lon="7.31214">
        <ele>226.3</ele>
        <time>2026-03-12T09:53:50Z</time>
      </trkpt>
      <trkpt lat="48.84139" lon="7.31207">
        <ele>227</ele>
        <time>2026-03-12T09:53:55Z</time>
      </trkpt>
      <trkpt lat="48.84136" lon="7.31203">
        <ele>227.4</ele>
        <time>2026-03-12T09:54:00Z</time>
      </trkpt>
      <trkpt lat="48.84132" lon="7.31197">
        <ele>228</ele>
        <time>2026-03-12T09:54:05Z</time>
      </trkpt>
      <trkpt lat="48.84126" lon="7.31191">
        <ele>228.3</ele>
        <time>2026-03-12T09:54:10Z</time>
      </trkpt>
      <trkpt lat="48.84121" lon="7.31186">
        <ele>228.5</ele>
        <time>2026-03-12T09:54:15Z</time>
      </trkpt>
      <trkpt lat="48.84118" lon="7.3118">
        <ele>228.8</ele>
        <time>2026-03-12T09:54:20Z</time>
      </trkpt>
      <trkpt lat="48.84114" lon="7.31173">
        <ele>229.1</ele>
        <time>2026-03-12T09:54:25Z</time>
      </trkpt>
      <trkpt lat="48.84108" lon="7.3117">
        <ele>228.7</ele>
        <time>2026-03-12T09:54:30Z</time>
      </trkpt>
      <trkpt lat="48.84102" lon="7.31164">
        <ele>228.9</ele>
        <time>2026-03-12T09:54:35Z</time>
      </trkpt>
      <trkpt lat="48.84097" lon="7.31159">
        <ele>229.4</ele>
        <time>2026-03-12T09:54:40Z</time>
      </trkpt>
      <trkpt lat="48.84091" lon="7.31155">
        <ele>229.7</ele>
        <time>2026-03-12T09:54:45Z</time>
      </trkpt>
      <trkpt lat="48.84087" lon="7.31151">
        <ele>230.2</ele>
        <time>2026-03-12T09:54:50Z</time>
      </trkpt>
      <trkpt lat="48.8408" lon="7.31145">
        <ele>231.2</ele>
        <time>2026-03-12T09:54:55Z</time>
      </trkpt>
      <trkpt lat="48.84073" lon="7.31139">
        <ele>232.5</ele>
        <time>2026-03-12T09:55:00Z</time>
      </trkpt>
      <trkpt lat="48.84067" lon="7.31133">
        <ele>233.8</ele>
        <time>2026-03-12T09:55:05Z</time>
      </trkpt>
      <trkpt lat="48.84064" lon="7.31126">
        <ele>235.3</ele>
        <time>2026-03-12T09:55:10Z</time>
      </trkpt>
      <trkpt lat="48.84061" lon="7.31118">
        <ele>237</ele>
        <time>2026-03-12T09:55:15Z</time>
      </trkpt>
      <trkpt lat="48.84058" lon="7.31109">
        <ele>238.9</ele>
        <time>2026-03-12T09:55:20Z</time>
      </trkpt>
      <trkpt lat="48.84055" lon="7.31104">
        <ele>239.8</ele>
        <time>2026-03-12T09:55:25Z</time>
      </trkpt>
      <trkpt lat="48.84054" lon="7.31099">
        <ele>240.9</ele>
        <time>2026-03-12T09:55:30Z</time>
      </trkpt>
      <trkpt lat="48.84053" lon="7.31091">
        <ele>242.5</ele>
        <time>2026-03-12T09:55:35Z</time>
      </trkpt>
      <trkpt lat="48.84051" lon="7.31084">
        <ele>243.9</ele>
        <time>2026-03-12T09:55:40Z</time>
      </trkpt>
      <trkpt lat="48.84047" lon="7.31075">
        <ele>245.4</ele>
        <time>2026-03-12T09:55:45Z</time>
      </trkpt>
      <trkpt lat="48.84044" lon="7.31066">
        <ele>246.9</ele>
        <time>2026-03-12T09:55:50Z</time>
      </trkpt>
      <trkpt lat="48.8404" lon="7.31054">
        <ele>249.1</ele>
        <time>2026-03-12T09:55:55Z</time>
      </trkpt>
      <trkpt lat="48.84037" lon="7.31044">
        <ele>250.9</ele>
        <time>2026-03-12T09:56:00Z</time>
      </trkpt>
      <trkpt lat="48.84035" lon="7.31036">
        <ele>252.4</ele>
        <time>2026-03-12T09:56:05Z</time>
      </trkpt>
      <trkpt lat="48.8403" lon="7.31029">
        <ele>253.6</ele>
        <time>2026-03-12T09:56:10Z</time>
      </trkpt>
      <trkpt lat="48.84026" lon="7.31023">
        <ele>254.7</ele>
        <time>2026-03-12T09:56:15Z</time>
      </trkpt>
      <trkpt lat="48.84023" lon="7.31012">
        <ele>256.8</ele>
        <time>2026-03-12T09:56:20Z</time>
      </trkpt>
      <trkpt lat="48.84024" lon="7.31005">
        <ele>258.3</ele>
        <time>2026-03-12T09:56:25Z</time>
      </trkpt>
      <trkpt lat="48.84024" lon="7.30998">
        <ele>259.6</ele>
        <time>2026-03-12T09:56:30Z</time>
      </trkpt>
      <trkpt lat="48.84025" lon="7.3099">
        <ele>260.6</ele>
        <time>2026-03-12T09:56:35Z</time>
      </trkpt>
      <trkpt lat="48.84026" lon="7.30984">
        <ele>261.5</ele>
        <time>2026-03-12T09:56:40Z</time>
      </trkpt>
      <trkpt lat="48.84026" lon="7.30976">
        <ele>262.6</ele>
        <time>2026-03-12T09:56:45Z</time>
      </trkpt>
      <trkpt lat="48.84023" lon="7.30968">
        <ele>263.5</ele>
        <time>2026-03-12T09:56:50Z</time>
      </trkpt>
      <trkpt lat="48.84023" lon="7.30959">
        <ele>264.7</ele>
        <time>2026-03-12T09:56:55Z</time>
      </trkpt>
      <trkpt lat="48.8402" lon="7.30958">
        <ele>264.8</ele>
        <time>2026-03-12T09:57:00Z</time>
      </trkpt>
      <trkpt lat="48.84012" lon="7.30959">
        <ele>264.3</ele>
        <time>2026-03-12T09:57:05Z</time>
      </trkpt>
      <trkpt lat="48.84007" lon="7.30959">
        <ele>264.2</ele>
        <time>2026-03-12T09:57:10Z</time>
      </trkpt>
      <trkpt lat="48.84001" lon="7.30957">
        <ele>264.2</ele>
        <time>2026-03-12T09:57:15Z</time>
      </trkpt>
      <trkpt lat="48.84" lon="7.30955">
        <ele>264.4</ele>
        <time>2026-03-12T09:57:20Z</time>
      </trkpt>
      <trkpt lat="48.83998" lon="7.3095">
        <ele>264.9</ele>
        <time>2026-03-12T09:57:25Z</time>
      </trkpt>
      <trkpt lat="48.83993" lon="7.30943">
        <ele>265.6</ele>
        <time>2026-03-12T09:57:30Z</time>
      </trkpt>
      <trkpt lat="48.83987" lon="7.30941">
        <ele>265.7</ele>
        <time>2026-03-12T09:57:35Z</time>
      </trkpt>
      <trkpt lat="48.8398" lon="7.3094">
        <ele>265.7</ele>
        <time>2026-03-12T09:57:40Z</time>
      </trkpt>
      <trkpt lat="48.83974" lon="7.30942">
        <ele>265.3</ele>
        <time>2026-03-12T09:57:45Z</time>
      </trkpt>
      <trkpt lat="48.83971" lon="7.30945">
        <ele>264.8</ele>
        <time>2026-03-12T09:57:50Z</time>
      </trkpt>
      <trkpt lat="48.83966" lon="7.30947">
        <ele>264.4</ele>
        <time>2026-03-12T09:57:55Z</time>
      </trkpt>
      <trkpt lat="48.83962" lon="7.3095">
        <ele>263.8</ele>
        <time>2026-03-12T09:58:00Z</time>
      </trkpt>
      <trkpt lat="48.83957" lon="7.30956">
        <ele>262.8</ele>
        <time>2026-03-12T09:58:05Z</time>
      </trkpt>
      <trkpt lat="48.83954" lon="7.30962">
        <ele>261.8</ele>
        <time>2026-03-12T09:58:10Z</time>
      </trkpt>
      <trkpt lat="48.8395" lon="7.30965">
        <ele>261.2</ele>
        <time>2026-03-12T09:58:15Z</time>
      </trkpt>
      <trkpt lat="48.83945" lon="7.3097">
        <ele>260.3</ele>
        <time>2026-03-12T09:58:20Z</time>
      </trkpt>
      <trkpt lat="48.83941" lon="7.30973">
        <ele>259.6</ele>
        <time>2026-03-12T09:58:25Z</time>
      </trkpt>
      <trkpt lat="48.83937" lon="7.30974">
        <ele>259.3</ele>
        <time>2026-03-12T09:58:30Z</time>
      </trkpt>
      <trkpt lat="48.83931" lon="7.30977">
        <ele>258.5</ele>
        <time>2026-03-12T09:58:35Z</time>
      </trkpt>
      <trkpt lat="48.83921" lon="7.30977">
        <ele>258.1</ele>
        <time>2026-03-12T09:58:40Z</time>
      </trkpt>
      <trkpt lat="48.83914" lon="7.30973">
        <ele>258.3</ele>
        <time>2026-03-12T09:58:45Z</time>
      </trkpt>
      <trkpt lat="48.8391" lon="7.30968">
        <ele>258.8</ele>
        <time>2026-03-12T09:58:50Z</time>
      </trkpt>
      <trkpt lat="48.83905" lon="7.30962">
        <ele>259.3</ele>
        <time>2026-03-12T09:58:55Z</time>
      </trkpt>
      <trkpt lat="48.83902" lon="7.30961">
        <ele>259.2</ele>
        <time>2026-03-12T09:59:00Z</time>
      </trkpt>
      <trkpt lat="48.839" lon="7.30958">
        <ele>259.4</ele>
        <time>2026-03-12T09:59:05Z</time>
      </trkpt>
      <trkpt lat="48.839" lon="7.30958">
        <ele>259.4</ele>
        <time>2026-03-12T09:59:10Z</time>
      </trkpt>
      <trkpt lat="48.839" lon="7.30958">
        <ele>259.4</ele>
        <time>2026-03-12T09:59:15Z</time>
      </trkpt>
      <trkpt lat="48.839" lon="7.30958">
        <ele>259.4</ele>
        <time>2026-03-12T09:59:20Z</time>
      </trkpt>
      <trkpt lat="48.83891" lon="7.30953">
        <ele>259.2</ele>
        <time>2026-03-12T09:59:25Z</time>
      </trkpt>
      <trkpt lat="48.83888" lon="7.30952">
        <ele>259</ele>
        <time>2026-03-12T09:59:30Z</time>
      </trkpt>
      <trkpt lat="48.83888" lon="7.30952">
        <ele>259</ele>
        <time>2026-03-12T09:59:35Z</time>
      </trkpt>
      <trkpt lat="48.83888" lon="7.30952">
        <ele>259</ele>
        <time>2026-03-12T09:59:40Z</time>
      </trkpt>
      <trkpt lat="48.83882" lon="7.30942">
        <ele>259.4</ele>
        <time>2026-03-12T09:59:45Z</time>
      </trkpt>
      <trkpt lat="48.83879" lon="7.30941">
        <ele>259.2</ele>
        <time>2026-03-12T09:59:50Z</time>
      </trkpt>
      <trkpt lat="48.83875" lon="7.30941">
        <ele>258.7</ele>
        <time>2026-03-12T09:59:55Z</time>
      </trkpt>
      <trkpt lat="48.83871" lon="7.30939">
        <ele>258.3</ele>
        <time>2026-03-12T10:00:00Z</time>
      </trkpt>
      <trkpt lat="48.83865" lon="7.30933">
        <ele>258</ele>
        <time>2026-03-12T10:00:05Z</time>
      </trkpt>
      <trkpt lat="48.83861" lon="7.30927">
        <ele>257.9</ele>
        <time>2026-03-12T10:00:10Z</time>
      </trkpt>
      <trkpt lat="48.83857" lon="7.30923">
        <ele>257.6</ele>
        <time>2026-03-12T10:00:15Z</time>
      </trkpt>
      <trkpt lat="48.83854" lon="7.3092">
        <ele>257.3</ele>
        <time>2026-03-12T10:00:20Z</time>
      </trkpt>
      <trkpt lat="48.83852" lon="7.30915">
        <ele>257.2</ele>
        <time>2026-03-12T10:00:25Z</time>
      </trkpt>
      <trkpt lat="48.83847" lon="7.30909">
        <ele>256.6</ele>
        <time>2026-03-12T10:00:30Z</time>
      </trkpt>
      <trkpt lat="48.83843" lon="7.30903">
        <ele>256.1</ele>
        <time>2026-03-12T10:00:35Z</time>
      </trkpt>
      <trkpt lat="48.83839" lon="7.30895">
        <ele>255.6</ele>
        <time>2026-03-12T10:00:40Z</time>
      </trkpt>
      <trkpt lat="48.83834" lon="7.30887">
        <ele>254.8</ele>
        <time>2026-03-12T10:00:45Z</time>
      </trkpt>
      <trkpt lat="48.83828" lon="7.30876">
        <ele>253.8</ele>
        <time>2026-03-12T10:00:50Z</time>
      </trkpt>
      <trkpt lat="48.83823" lon="7.30869">
        <ele>252.8</ele>
        <time>2026-03-12T10:00:55Z</time>
      </trkpt>
      <trkpt lat="48.83819" lon="7.30866">
        <ele>251.9</ele>
        <time>2026-03-12T10:01:00Z</time>
      </trkpt>
      <trkpt lat="48.83817" lon="7.30862">
        <ele>251.6</ele>
        <time>2026-03-12T10:01:05Z</time>
      </trkpt>
      <trkpt lat="48.83814" lon="7.30857">
        <ele>251</ele>
        <time>2026-03-12T10:01:10Z</time>
      </trkpt>
      <trkpt lat="48.83812" lon="7.30853">
        <ele>250.7</ele>
        <time>2026-03-12T10:01:15Z</time>
      </trkpt>
      <trkpt lat="48.83808" lon="7.30848">
        <ele>249.9</ele>
        <time>2026-03-12T10:01:20Z</time>
      </trkpt>
      <trkpt lat="48.83804" lon="7.30843">
        <ele>249.1</ele>
        <time>2026-03-12T10:01:25Z</time>
      </trkpt>
      <trkpt lat="48.83802" lon="7.30839">
        <ele>248.7</ele>
        <time>2026-03-12T10:01:30Z</time>
      </trkpt>
      <trkpt lat="48.83802" lon="7.30838">
        <ele>248.7</ele>
        <time>2026-03-12T10:01:35Z</time>
      </trkpt>
      <trkpt lat="48.83802" lon="7.30838">
        <ele>248.7</ele>
        <time>2026-03-12T10:01:40Z</time>
      </trkpt>
      <trkpt lat="48.83802" lon="7.30838">
        <ele>248.7</ele>
        <time>2026-03-12T10:01:45Z</time>
      </trkpt>
      <trkpt lat="48.83796" lon="7.3083">
        <ele>247.6</ele>
        <time>2026-03-12T10:01:50Z</time>
      </trkpt>
      <trkpt lat="48.83795" lon="7.3082">
        <ele>247.6</ele>
        <time>2026-03-12T10:01:55Z</time>
      </trkpt>
      <trkpt lat="48.83794" lon="7.30813">
        <ele>247.6</ele>
        <time>2026-03-12T10:02:00Z</time>
      </trkpt>
      <trkpt lat="48.83794" lon="7.30805">
        <ele>247.9</ele>
        <time>2026-03-12T10:02:05Z</time>
      </trkpt>
      <trkpt lat="48.83793" lon="7.308">
        <ele>247.8</ele>
        <time>2026-03-12T10:02:10Z</time>
      </trkpt>
      <trkpt lat="48.83792" lon="7.30794">
        <ele>247.8</ele>
        <time>2026-03-12T10:02:15Z</time>
      </trkpt>
      <trkpt lat="48.83787" lon="7.30784">
        <ele>247</ele>
        <time>2026-03-12T10:02:20Z</time>
      </trkpt>
      <trkpt lat="48.83785" lon="7.30776">
        <ele>246.9</ele>
        <time>2026-03-12T10:02:25Z</time>
      </trkpt>
      <trkpt lat="48.83784" lon="7.30769">
        <ele>246.9</ele>
        <time>2026-03-12T10:02:30Z</time>
      </trkpt>
      <trkpt lat="48.83785" lon="7.30762">
        <ele>247.3</ele>
        <time>2026-03-12T10:02:35Z</time>
      </trkpt>
      <trkpt lat="48.83787" lon="7.30755">
        <ele>247.9</ele>
        <time>2026-03-12T10:02:40Z</time>
      </trkpt>
      <trkpt lat="48.83789" lon="7.30748">
        <ele>248.6</ele>
        <time>2026-03-12T10:02:45Z</time>
      </trkpt>
      <trkpt lat="48.83793" lon="7.30741">
        <ele>249.6</ele>
        <time>2026-03-12T10:02:50Z</time>
      </trkpt>
      <trkpt lat="48.83795" lon="7.30733">
        <ele>250.3</ele>
        <time>2026-03-12T10:02:55Z</time>
      </trkpt>
      <trkpt lat="48.83798" lon="7.30725">
        <ele>251.2</ele>
        <time>2026-03-12T10:03:00Z</time>
      </trkpt>
      <trkpt lat="48.83801" lon="7.30716">
        <ele>252.2</ele>
        <time>2026-03-12T10:03:05Z</time>
      </trkpt>
      <trkpt lat="48.83803" lon="7.30708">
        <ele>252.9</ele>
        <time>2026-03-12T10:03:10Z</time>
      </trkpt>
      <trkpt lat="48.83806" lon="7.30698">
        <ele>253.8</ele>
        <time>2026-03-12T10:03:15Z</time>
      </trkpt>
      <trkpt lat="48.83808" lon="7.30691">
        <ele>254.5</ele>
        <time>2026-03-12T10:03:20Z</time>
      </trkpt>
      <trkpt lat="48.83808" lon="7.30686">
        <ele>254.7</ele>
        <time>2026-03-12T10:03:25Z</time>
      </trkpt>
      <trkpt lat="48.83807" lon="7.30683">
        <ele>254.6</ele>
        <time>2026-03-12T10:03:30Z</time>
      </trkpt>
      <trkpt lat="48.83807" lon="7.30683">
        <ele>254.6</ele>
        <time>2026-03-12T10:03:35Z</time>
      </trkpt>
      <trkpt lat="48.83807" lon="7.30683">
        <ele>254.6</ele>
        <time>2026-03-12T10:03:40Z</time>
      </trkpt>
      <trkpt lat="48.83808" lon="7.30675">
        <ele>255.1</ele>
        <time>2026-03-12T10:03:45Z</time>
      </trkpt>
      <trkpt lat="48.83809" lon="7.3067">
        <ele>255.5</ele>
        <time>2026-03-12T10:03:50Z</time>
      </trkpt>
      <trkpt lat="48.83809" lon="7.30664">
        <ele>255.7</ele>
        <time>2026-03-12T10:03:55Z</time>
      </trkpt>
      <trkpt lat="48.83809" lon="7.30655">
        <ele>255.9</ele>
        <time>2026-03-12T10:04:00Z</time>
      </trkpt>
      <trkpt lat="48.8381" lon="7.30648">
        <ele>256.2</ele>
        <time>2026-03-12T10:04:05Z</time>
      </trkpt>
      <trkpt lat="48.83811" lon="7.30642">
        <ele>256.5</ele>
        <time>2026-03-12T10:04:10Z</time>
      </trkpt>
      <trkpt lat="48.83811" lon="7.30634">
        <ele>256.7</ele>
        <time>2026-03-12T10:04:15Z</time>
      </trkpt>
      <trkpt lat="48.83813" lon="7.30625">
        <ele>257.2</ele>
        <time>2026-03-12T10:04:20Z</time>
      </trkpt>
      <trkpt lat="48.83812" lon="7.30615">
        <ele>257.3</ele>
        <time>2026-03-12T10:04:25Z</time>
      </trkpt>
      <trkpt lat="48.83811" lon="7.30606">
        <ele>257.3</ele>
        <time>2026-03-12T10:04:30Z</time>
      </trkpt>
      <trkpt lat="48.83813" lon="7.30598">
        <ele>257.8</ele>
        <time>2026-03-12T10:04:35Z</time>
      </trkpt>
      <trkpt lat="48.83814" lon="7.3059">
        <ele>258.1</ele>
        <time>2026-03-12T10:04:40Z</time>
      </trkpt>
      <trkpt lat="48.83811" lon="7.3058">
        <ele>257.9</ele>
        <time>2026-03-12T10:04:45Z</time>
      </trkpt>
      <trkpt lat="48.83812" lon="7.30573">
        <ele>258.3</ele>
        <time>2026-03-12T10:04:50Z</time>
      </trkpt>
      <trkpt lat="48.83813" lon="7.30566">
        <ele>258.7</ele>
        <time>2026-03-12T10:04:55Z</time>
      </trkpt>
      <trkpt lat="48.83816" lon="7.30557">
        <ele>259.4</ele>
        <time>2026-03-12T10:05:00Z</time>
      </trkpt>
      <trkpt lat="48.83815" lon="7.3055">
        <ele>259.5</ele>
        <time>2026-03-12T10:05:05Z</time>
      </trkpt>
      <trkpt lat="48.83815" lon="7.30542">
        <ele>259.8</ele>
        <time>2026-03-12T10:05:10Z</time>
      </trkpt>
      <trkpt lat="48.83813" lon="7.30534">
        <ele>259.8</ele>
        <time>2026-03-12T10:05:15Z</time>
      </trkpt>
      <trkpt lat="48.83814" lon="7.30525">
        <ele>260.3</ele>
        <time>2026-03-12T10:05:20Z</time>
      </trkpt>
      <trkpt lat="48.83814" lon="7.30516">
        <ele>260.6</ele>
        <time>2026-03-12T10:05:25Z</time>
      </trkpt>
      <trkpt lat="48.83817" lon="7.3051">
        <ele>261.1</ele>
        <time>2026-03-12T10:05:30Z</time>
      </trkpt>
      <trkpt lat="48.83816" lon="7.30504">
        <ele>261.2</ele>
        <time>2026-03-12T10:05:35Z</time>
      </trkpt>
      <trkpt lat="48.83817" lon="7.30496">
        <ele>261.5</ele>
        <time>2026-03-12T10:05:40Z</time>
      </trkpt>
      <trkpt lat="48.83818" lon="7.30489">
        <ele>261.8</ele>
        <time>2026-03-12T10:05:45Z</time>
      </trkpt>
      <trkpt lat="48.83819" lon="7.3048">
        <ele>262.1</ele>
        <time>2026-03-12T10:05:50Z</time>
      </trkpt>
      <trkpt lat="48.8382" lon="7.30473">
        <ele>262.4</ele>
        <time>2026-03-12T10:05:55Z</time>
      </trkpt>
      <trkpt lat="48.83819" lon="7.30465">
        <ele>262.5</ele>
        <time>2026-03-12T10:06:00Z</time>
      </trkpt>
      <trkpt lat="48.8382" lon="7.30456">
        <ele>262.8</ele>
        <time>2026-03-12T10:06:05Z</time>
      </trkpt>
      <trkpt lat="48.83822" lon="7.30451">
        <ele>263</ele>
        <time>2026-03-12T10:06:10Z</time>
      </trkpt>
      <trkpt lat="48.83824" lon="7.30448">
        <ele>263.1</ele>
        <time>2026-03-12T10:06:15Z</time>
      </trkpt>
      <trkpt lat="48.83825" lon="7.30442">
        <ele>263.3</ele>
        <time>2026-03-12T10:06:20Z</time>
      </trkpt>
      <trkpt lat="48.83826" lon="7.30434">
        <ele>263.5</ele>
        <time>2026-03-12T10:06:25Z</time>
      </trkpt>
      <trkpt lat="48.83825" lon="7.30429">
        <ele>263.6</ele>
        <time>2026-03-12T10:06:30Z</time>
      </trkpt>
      <trkpt lat="48.83825" lon="7.30422">
        <ele>263.7</ele>
        <time>2026-03-12T10:06:35Z</time>
      </trkpt>
      <trkpt lat="48.83827" lon="7.30415">
        <ele>263.9</ele>
        <time>2026-03-12T10:06:40Z</time>
      </trkpt>
      <trkpt lat="48.83832" lon="7.30413">
        <ele>264.1</ele>
        <time>2026-03-12T10:06:45Z</time>
      </trkpt>
      <trkpt lat="48.83832" lon="7.30413">
        <ele>264.1</ele>
        <time>2026-03-12T10:06:50Z</time>
      </trkpt>
      <trkpt lat="48.83832" lon="7.30413">
        <ele>264.1</ele>
        <time>2026-03-12T10:06:55Z</time>
      </trkpt>
      <trkpt lat="48.83832" lon="7.30413">
        <ele>264.1</ele>
        <time>2026-03-12T10:07:00Z</time>
      </trkpt>
      <trkpt lat="48.83832" lon="7.30413">
        <ele>264.1</ele>
        <time>2026-03-12T10:07:05Z</time>
      </trkpt>
      <trkpt lat="48.83832" lon="7.30413">
        <ele>264.1</ele>
        <time>2026-03-12T10:07:10Z</time>
      </trkpt>
      <trkpt lat="48.83832" lon="7.30413">
        <ele>264.1</ele>
        <time>2026-03-12T10:07:15Z</time>
      </trkpt>
      <trkpt lat="48.83832" lon="7.30413">
        <ele>264.1</ele>
        <time>2026-03-12T10:07:20Z</time>
      </trkpt>
      <trkpt lat="48.83832" lon="7.30413">
        <ele>264.1</ele>
        <time>2026-03-12T10:07:25Z</time>
      </trkpt>
      <trkpt lat="48.83832" lon="7.30413">
        <ele>264.1</ele>
        <time>2026-03-12T10:07:30Z</time>
      </trkpt>
      <trkpt lat="48.83832" lon="7.30413">
        <ele>264.1</ele>
        <time>2026-03-12T10:07:35Z</time>
      </trkpt>
      <trkpt lat="48.83832" lon="7.30413">
        <ele>264.1</ele>
        <time>2026-03-12T10:07:40Z</time>
      </trkpt>
      <trkpt lat="48.83832" lon="7.30413">
        <ele>264.1</ele>
        <time>2026-03-12T10:07:45Z</time>
      </trkpt>
      <trkpt lat="48.83832" lon="7.30413">
        <ele>264.1</ele>
        <time>2026-03-12T10:07:50Z</time>
      </trkpt>
      <trkpt lat="48.83832" lon="7.30413">
        <ele>264.1</ele>
        <time>2026-03-12T10:07:55Z</time>
      </trkpt>
      <trkpt lat="48.83832" lon="7.30413">
        <ele>264.1</ele>
        <time>2026-03-12T10:08:00Z</time>
      </trkpt>
      <trkpt lat="48.83832" lon="7.30413">
        <ele>264.1</ele>
        <time>2026-03-12T10:08:05Z</time>
      </trkpt>
      <trkpt lat="48.83832" lon="7.30413">
        <ele>264.1</ele>
        <time>2026-03-12T10:08:10Z</time>
      </trkpt>
      <trkpt lat="48.83832" lon="7.30413">
        <ele>264.1</ele>
        <time>2026-03-12T10:08:15Z</time>
      </trkpt>
      <trkpt lat="48.83832" lon="7.30413">
        <ele>264.1</ele>
        <time>2026-03-12T10:08:20Z</time>
      </trkpt>
      <trkpt lat="48.83832" lon="7.30413">
        <ele>264.1</ele>
        <time>2026-03-12T10:08:25Z</time>
      </trkpt>
      <trkpt lat="48.83832" lon="7.30413">
        <ele>264.1</ele>
        <time>2026-03-12T10:08:30Z</time>
      </trkpt>
      <trkpt lat="48.83832" lon="7.30413">
        <ele>264.1</ele>
        <time>2026-03-12T10:08:35Z</time>
      </trkpt>
      <trkpt lat="48.83832" lon="7.30413">
        <ele>264.1</ele>
        <time>2026-03-12T10:08:40Z</time>
      </trkpt>
      <trkpt lat="48.83832" lon="7.30413">
        <ele>264.1</ele>
        <time>2026-03-12T10:08:45Z</time>
      </trkpt>
      <trkpt lat="48.83832" lon="7.30413">
        <ele>264.1</ele>
        <time>2026-03-12T10:08:50Z</time>
      </trkpt>
      <trkpt lat="48.83832" lon="7.30413">
        <ele>264.1</ele>
        <time>2026-03-12T10:08:55Z</time>
      </trkpt>
      <trkpt lat="48.83832" lon="7.30413">
        <ele>264.1</ele>
        <time>2026-03-12T10:09:00Z</time>
      </trkpt>
      <trkpt lat="48.83832" lon="7.30413">
        <ele>264.1</ele>
        <time>2026-03-12T10:09:05Z</time>
      </trkpt>
      <trkpt lat="48.83832" lon="7.30413">
        <ele>264.1</ele>
        <time>2026-03-12T10:09:10Z</time>
      </trkpt>
      <trkpt lat="48.83832" lon="7.30413">
        <ele>264.1</ele>
        <time>2026-03-12T10:09:15Z</time>
      </trkpt>
      <trkpt lat="48.83832" lon="7.30413">
        <ele>264.1</ele>
        <time>2026-03-12T10:09:20Z</time>
      </trkpt>
      <trkpt lat="48.83832" lon="7.30413">
        <ele>264.1</ele>
        <time>2026-03-12T10:09:25Z</time>
      </trkpt>
      <trkpt lat="48.83832" lon="7.30413">
        <ele>264.1</ele>
        <time>2026-03-12T10:09:30Z</time>
      </trkpt>
      <trkpt lat="48.83832" lon="7.30413">
        <ele>264.1</ele>
        <time>2026-03-12T10:09:35Z</time>
      </trkpt>
      <trkpt lat="48.83832" lon="7.30413">
        <ele>264.1</ele>
        <time>2026-03-12T10:09:40Z</time>
      </trkpt>
      <trkpt lat="48.83832" lon="7.30413">
        <ele>264.1</ele>
        <time>2026-03-12T10:09:45Z</time>
      </trkpt>
      <trkpt lat="48.83832" lon="7.30413">
        <ele>264.1</ele>
        <time>2026-03-12T10:09:50Z</time>
      </trkpt>
      <trkpt lat="48.83832" lon="7.30413">
        <ele>264.1</ele>
        <time>2026-03-12T10:09:55Z</time>
      </trkpt>
      <trkpt lat="48.83832" lon="7.30413">
        <ele>264.1</ele>
        <time>2026-03-12T10:10:00Z</time>
      </trkpt>
      <trkpt lat="48.83832" lon="7.30413">
        <ele>264.1</ele>
        <time>2026-03-12T10:10:05Z</time>
      </trkpt>
      <trkpt lat="48.83832" lon="7.30413">
        <ele>264.1</ele>
        <time>2026-03-12T10:10:10Z</time>
      </trkpt>
      <trkpt lat="48.83832" lon="7.30413">
        <ele>264.1</ele>
        <time>2026-03-12T10:10:15Z</time>
      </trkpt>
      <trkpt lat="48.83832" lon="7.30413">
        <ele>264.1</ele>
        <time>2026-03-12T10:10:20Z</time>
      </trkpt>
      <trkpt lat="48.83834" lon="7.30408">
        <ele>264.6</ele>
        <time>2026-03-12T10:10:25Z</time>
      </trkpt>
      <trkpt lat="48.83834" lon="7.30405">
        <ele>264.7</ele>
        <time>2026-03-12T10:10:30Z</time>
      </trkpt>
      <trkpt lat="48.83834" lon="7.30405">
        <ele>264.7</ele>
        <time>2026-03-12T10:10:35Z</time>
      </trkpt>
      <trkpt lat="48.83834" lon="7.30405">
        <ele>264.7</ele>
        <time>2026-03-12T10:10:40Z</time>
      </trkpt>
      <trkpt lat="48.83835" lon="7.30388">
        <ele>265.7</ele>
        <time>2026-03-12T10:10:45Z</time>
      </trkpt>
      <trkpt lat="48.83834" lon="7.30378">
        <ele>265.7</ele>
        <time>2026-03-12T10:10:50Z</time>
      </trkpt>
      <trkpt lat="48.83834" lon="7.30372">
        <ele>265.9</ele>
        <time>2026-03-12T10:10:55Z</time>
      </trkpt>
      <trkpt lat="48.83833" lon="7.30365">
        <ele>265.9</ele>
        <time>2026-03-12T10:11:00Z</time>
      </trkpt>
      <trkpt lat="48.83833" lon="7.30354">
        <ele>266.3</ele>
        <time>2026-03-12T10:11:05Z</time>
      </trkpt>
      <trkpt lat="48.83834" lon="7.30347">
        <ele>266.8</ele>
        <time>2026-03-12T10:11:10Z</time>
      </trkpt>
      <trkpt lat="48.83836" lon="7.3034">
        <ele>267.8</ele>
        <time>2026-03-12T10:11:15Z</time>
      </trkpt>
      <trkpt lat="48.8384" lon="7.30334">
        <ele>269.5</ele>
        <time>2026-03-12T10:11:20Z</time>
      </trkpt>
      <trkpt lat="48.8384" lon="7.30329">
        <ele>269.6</ele>
        <time>2026-03-12T10:11:25Z</time>
      </trkpt>
      <trkpt lat="48.83839" lon="7.30324">
        <ele>269.3</ele>
        <time>2026-03-12T10:11:30Z</time>
      </trkpt>
      <trkpt lat="48.83838" lon="7.30323">
        <ele>269</ele>
        <time>2026-03-12T10:11:35Z</time>
      </trkpt>
      <trkpt lat="48.83839" lon="7.30316">
        <ele>269.5</ele>
        <time>2026-03-12T10:11:40Z</time>
      </trkpt>
      <trkpt lat="48.8384" lon="7.30312">
        <ele>269.9</ele>
        <time>2026-03-12T10:11:45Z</time>
      </trkpt>
      <trkpt lat="48.83841" lon="7.30311">
        <ele>270.3</ele>
        <time>2026-03-12T10:11:50Z</time>
      </trkpt>
      <trkpt lat="48.83843" lon="7.30304">
        <ele>271.2</ele>
        <time>2026-03-12T10:11:55Z</time>
      </trkpt>
      <trkpt lat="48.83844" lon="7.30297">
        <ele>271.7</ele>
        <time>2026-03-12T10:12:00Z</time>
      </trkpt>
      <trkpt lat="48.83845" lon="7.30289">
        <ele>272.2</ele>
        <time>2026-03-12T10:12:05Z</time>
      </trkpt>
      <trkpt lat="48.83846" lon="7.30281">
        <ele>272.7</ele>
        <time>2026-03-12T10:12:10Z</time>
      </trkpt>
      <trkpt lat="48.83847" lon="7.30274">
        <ele>273.2</ele>
        <time>2026-03-12T10:12:15Z</time>
      </trkpt>
      <trkpt lat="48.83847" lon="7.30267">
        <ele>273.3</ele>
        <time>2026-03-12T10:12:20Z</time>
      </trkpt>
      <trkpt lat="48.83848" lon="7.30262">
        <ele>273.7</ele>
        <time>2026-03-12T10:12:25Z</time>
      </trkpt>
      <trkpt lat="48.8385" lon="7.30256">
        <ele>274.5</ele>
        <time>2026-03-12T10:12:30Z</time>
      </trkpt>
      <trkpt lat="48.83852" lon="7.30249">
        <ele>275.3</ele>
        <time>2026-03-12T10:12:35Z</time>
      </trkpt>
      <trkpt lat="48.83856" lon="7.30243">
        <ele>276.6</ele>
        <time>2026-03-12T10:12:40Z</time>
      </trkpt>
      <trkpt lat="48.83858" lon="7.30236">
        <ele>277.3</ele>
        <time>2026-03-12T10:12:45Z</time>
      </trkpt>
      <trkpt lat="48.83859" lon="7.30228">
        <ele>277.5</ele>
        <time>2026-03-12T10:12:50Z</time>
      </trkpt>
      <trkpt lat="48.83861" lon="7.3022">
        <ele>278.1</ele>
        <time>2026-03-12T10:12:55Z</time>
      </trkpt>
      <trkpt lat="48.83862" lon="7.30213">
        <ele>278.3</ele>
        <time>2026-03-12T10:13:00Z</time>
      </trkpt>
      <trkpt lat="48.83865" lon="7.30206">
        <ele>278.9</ele>
        <time>2026-03-12T10:13:05Z</time>
      </trkpt>
      <trkpt lat="48.83868" lon="7.30202">
        <ele>279.6</ele>
        <time>2026-03-12T10:13:10Z</time>
      </trkpt>
      <trkpt lat="48.8387" lon="7.30196">
        <ele>279.9</ele>
        <time>2026-03-12T10:13:15Z</time>
      </trkpt>
      <trkpt lat="48.83871" lon="7.30192">
        <ele>280</ele>
        <time>2026-03-12T10:13:20Z</time>
      </trkpt>
      <trkpt lat="48.83873" lon="7.30188">
        <ele>280.3</ele>
        <time>2026-03-12T10:13:25Z</time>
      </trkpt>
      <trkpt lat="48.83876" lon="7.30182">
        <ele>280.8</ele>
        <time>2026-03-12T10:13:30Z</time>
      </trkpt>
      <trkpt lat="48.83879" lon="7.30174">
        <ele>281</ele>
        <time>2026-03-12T10:13:35Z</time>
      </trkpt>
      <trkpt lat="48.83882" lon="7.30168">
        <ele>281.2</ele>
        <time>2026-03-12T10:13:40Z</time>
      </trkpt>
      <trkpt lat="48.83883" lon="7.30165">
        <ele>281.5</ele>
        <time>2026-03-12T10:13:45Z</time>
      </trkpt>
      <trkpt lat="48.83887" lon="7.30163">
        <ele>282.2</ele>
        <time>2026-03-12T10:13:50Z</time>
      </trkpt>
      <trkpt lat="48.83891" lon="7.30159">
        <ele>283.1</ele>
        <time>2026-03-12T10:13:55Z</time>
      </trkpt>
      <trkpt lat="48.83893" lon="7.30158">
        <ele>283.5</ele>
        <time>2026-03-12T10:14:00Z</time>
      </trkpt>
      <trkpt lat="48.83896" lon="7.30161">
        <ele>283.8</ele>
        <time>2026-03-12T10:14:05Z</time>
      </trkpt>
      <trkpt lat="48.83898" lon="7.30163">
        <ele>284</ele>
        <time>2026-03-12T10:14:10Z</time>
      </trkpt>
      <trkpt lat="48.83898" lon="7.30163">
        <ele>284</ele>
        <time>2026-03-12T10:14:15Z</time>
      </trkpt>
      <trkpt lat="48.83898" lon="7.30163">
        <ele>284</ele>
        <time>2026-03-12T10:14:20Z</time>
      </trkpt>
      <trkpt lat="48.83898" lon="7.30163">
        <ele>284</ele>
        <time>2026-03-12T10:14:25Z</time>
      </trkpt>
      <trkpt lat="48.83898" lon="7.30154">
        <ele>284.4</ele>
        <time>2026-03-12T10:14:30Z</time>
      </trkpt>
      <trkpt lat="48.83901" lon="7.30145">
        <ele>285.2</ele>
        <time>2026-03-12T10:14:35Z</time>
      </trkpt>
      <trkpt lat="48.83901" lon="7.30137">
        <ele>285.5</ele>
        <time>2026-03-12T10:14:40Z</time>
      </trkpt>
      <trkpt lat="48.83904" lon="7.30127">
        <ele>286.1</ele>
        <time>2026-03-12T10:14:45Z</time>
      </trkpt>
      <trkpt lat="48.83904" lon="7.30118">
        <ele>286.4</ele>
        <time>2026-03-12T10:14:50Z</time>
      </trkpt>
      <trkpt lat="48.83906" lon="7.30111">
        <ele>286.8</ele>
        <time>2026-03-12T10:14:55Z</time>
      </trkpt>
      <trkpt lat="48.83908" lon="7.30108">
        <ele>287.1</ele>
        <time>2026-03-12T10:15:00Z</time>
      </trkpt>
      <trkpt lat="48.83908" lon="7.30108">
        <ele>287.1</ele>
        <time>2026-03-12T10:15:05Z</time>
      </trkpt>
      <trkpt lat="48.83909" lon="7.30094">
        <ele>287.5</ele>
        <time>2026-03-12T10:15:10Z</time>
      </trkpt>
      <trkpt lat="48.83911" lon="7.30086">
        <ele>287.7</ele>
        <time>2026-03-12T10:15:15Z</time>
      </trkpt>
      <trkpt lat="48.83912" lon="7.30078">
        <ele>288.6</ele>
        <time>2026-03-12T10:15:20Z</time>
      </trkpt>
      <trkpt lat="48.83913" lon="7.3007">
        <ele>289.9</ele>
        <time>2026-03-12T10:15:25Z</time>
      </trkpt>
      <trkpt lat="48.83913" lon="7.30061">
        <ele>291.2</ele>
        <time>2026-03-12T10:15:30Z</time>
      </trkpt>
      <trkpt lat="48.83912" lon="7.30054">
        <ele>292.2</ele>
        <time>2026-03-12T10:15:35Z</time>
      </trkpt>
      <trkpt lat="48.83912" lon="7.30047">
        <ele>293.3</ele>
        <time>2026-03-12T10:15:40Z</time>
      </trkpt>
      <trkpt lat="48.83913" lon="7.30041">
        <ele>294.2</ele>
        <time>2026-03-12T10:15:45Z</time>
      </trkpt>
      <trkpt lat="48.83914" lon="7.30034">
        <ele>295.2</ele>
        <time>2026-03-12T10:15:50Z</time>
      </trkpt>
      <trkpt lat="48.83915" lon="7.30025">
        <ele>296.5</ele>
        <time>2026-03-12T10:15:55Z</time>
      </trkpt>
      <trkpt lat="48.83916" lon="7.30017">
        <ele>297.6</ele>
        <time>2026-03-12T10:16:00Z</time>
      </trkpt>
      <trkpt lat="48.83916" lon="7.3001">
        <ele>298.6</ele>
        <time>2026-03-12T10:16:05Z</time>
      </trkpt>
      <trkpt lat="48.83915" lon="7.30003">
        <ele>299.7</ele>
        <time>2026-03-12T10:16:10Z</time>
      </trkpt>
      <trkpt lat="48.83915" lon="7.29993">
        <ele>302.2</ele>
        <time>2026-03-12T10:16:15Z</time>
      </trkpt>
      <trkpt lat="48.83915" lon="7.29989">
        <ele>303.4</ele>
        <time>2026-03-12T10:16:20Z</time>
      </trkpt>
      <trkpt lat="48.83916" lon="7.29982">
        <ele>305.4</ele>
        <time>2026-03-12T10:16:25Z</time>
      </trkpt>
      <trkpt lat="48.83916" lon="7.29975">
        <ele>307.5</ele>
        <time>2026-03-12T10:16:30Z</time>
      </trkpt>
      <trkpt lat="48.83915" lon="7.29967">
        <ele>310</ele>
        <time>2026-03-12T10:16:35Z</time>
      </trkpt>
      <trkpt lat="48.83913" lon="7.29958">
        <ele>312.8</ele>
        <time>2026-03-12T10:16:40Z</time>
      </trkpt>
      <trkpt lat="48.8391" lon="7.29952">
        <ele>314.8</ele>
        <time>2026-03-12T10:16:45Z</time>
      </trkpt>
      <trkpt lat="48.83906" lon="7.29946">
        <ele>316.9</ele>
        <time>2026-03-12T10:16:50Z</time>
      </trkpt>
      <trkpt lat="48.83905" lon="7.29945">
        <ele>317.2</ele>
        <time>2026-03-12T10:16:55Z</time>
      </trkpt>
      <trkpt lat="48.83905" lon="7.29945">
        <ele>317.2</ele>
        <time>2026-03-12T10:17:00Z</time>
      </trkpt>
      <trkpt lat="48.83905" lon="7.29945">
        <ele>317.2</ele>
        <time>2026-03-12T10:17:05Z</time>
      </trkpt>
      <trkpt lat="48.83905" lon="7.29945">
        <ele>317.2</ele>
        <time>2026-03-12T10:17:10Z</time>
      </trkpt>
      <trkpt lat="48.83905" lon="7.29945">
        <ele>317.2</ele>
        <time>2026-03-12T10:17:15Z</time>
      </trkpt>
      <trkpt lat="48.83905" lon="7.29945">
        <ele>317.2</ele>
        <time>2026-03-12T10:17:20Z</time>
      </trkpt>
      <trkpt lat="48.83905" lon="7.29945">
        <ele>317.2</ele>
        <time>2026-03-12T10:17:25Z</time>
      </trkpt>
      <trkpt lat="48.83905" lon="7.29945">
        <ele>317.2</ele>
        <time>2026-03-12T10:17:30Z</time>
      </trkpt>
      <trkpt lat="48.83905" lon="7.29945">
        <ele>317.2</ele>
        <time>2026-03-12T10:17:35Z</time>
      </trkpt>
      <trkpt lat="48.83908" lon="7.29932">
        <ele>320.9</ele>
        <time>2026-03-12T10:17:40Z</time>
      </trkpt>
      <trkpt lat="48.83907" lon="7.29926">
        <ele>322.8</ele>
        <time>2026-03-12T10:17:45Z</time>
      </trkpt>
      <trkpt lat="48.83906" lon="7.29919">
        <ele>324.9</ele>
        <time>2026-03-12T10:17:50Z</time>
      </trkpt>
      <trkpt lat="48.83901" lon="7.29912">
        <ele>327.3</ele>
        <time>2026-03-12T10:17:55Z</time>
      </trkpt>
      <trkpt lat="48.83897" lon="7.29909">
        <ele>328.4</ele>
        <time>2026-03-12T10:18:00Z</time>
      </trkpt>
      <trkpt lat="48.83893" lon="7.29904">
        <ele>330.1</ele>
        <time>2026-03-12T10:18:05Z</time>
      </trkpt>
      <trkpt lat="48.83891" lon="7.299">
        <ele>331.4</ele>
        <time>2026-03-12T10:18:10Z</time>
      </trkpt>
      <trkpt lat="48.83888" lon="7.29893">
        <ele>333.6</ele>
        <time>2026-03-12T10:18:15Z</time>
      </trkpt>
      <trkpt lat="48.83888" lon="7.29886">
        <ele>335.7</ele>
        <time>2026-03-12T10:18:20Z</time>
      </trkpt>
      <trkpt lat="48.83887" lon="7.29879">
        <ele>337.8</ele>
        <time>2026-03-12T10:18:25Z</time>
      </trkpt>
      <trkpt lat="48.83887" lon="7.29873">
        <ele>339.6</ele>
        <time>2026-03-12T10:18:30Z</time>
      </trkpt>
      <trkpt lat="48.83885" lon="7.29867">
        <ele>341.5</ele>
        <time>2026-03-12T10:18:35Z</time>
      </trkpt>
      <trkpt lat="48.83883" lon="7.29862">
        <ele>343.2</ele>
        <time>2026-03-12T10:18:40Z</time>
      </trkpt>
      <trkpt lat="48.83882" lon="7.29857">
        <ele>344.7</ele>
        <time>2026-03-12T10:18:45Z</time>
      </trkpt>
      <trkpt lat="48.83882" lon="7.29857">
        <ele>344.7</ele>
        <time>2026-03-12T10:18:50Z</time>
      </trkpt>
      <trkpt lat="48.83882" lon="7.29857">
        <ele>344.7</ele>
        <time>2026-03-12T10:18:55Z</time>
      </trkpt>
      <trkpt lat="48.83882" lon="7.29857">
        <ele>344.7</ele>
        <time>2026-03-12T10:19:00Z</time>
      </trkpt>
      <trkpt lat="48.83877" lon="7.29844">
        <ele>349.1</ele>
        <time>2026-03-12T10:19:05Z</time>
      </trkpt>
      <trkpt lat="48.83875" lon="7.29843">
        <ele>349.6</ele>
        <time>2026-03-12T10:19:10Z</time>
      </trkpt>
      <trkpt lat="48.83869" lon="7.29837">
        <ele>352</ele>
        <time>2026-03-12T10:19:15Z</time>
      </trkpt>
      <trkpt lat="48.83864" lon="7.29836">
        <ele>352.9</ele>
        <time>2026-03-12T10:19:20Z</time>
      </trkpt>
      <trkpt lat="48.83862" lon="7.29834">
        <ele>353.7</ele>
        <time>2026-03-12T10:19:25Z</time>
      </trkpt>
      <trkpt lat="48.83861" lon="7.29825">
        <ele>355.7</ele>
        <time>2026-03-12T10:19:30Z</time>
      </trkpt>
      <trkpt lat="48.83862" lon="7.29823">
        <ele>356.1</ele>
        <time>2026-03-12T10:19:35Z</time>
      </trkpt>
      <trkpt lat="48.83862" lon="7.29823">
        <ele>356.1</ele>
        <time>2026-03-12T10:19:40Z</time>
      </trkpt>
      <trkpt lat="48.83862" lon="7.29823">
        <ele>356.1</ele>
        <time>2026-03-12T10:19:45Z</time>
      </trkpt>
      <trkpt lat="48.83862" lon="7.29823">
        <ele>356.1</ele>
        <time>2026-03-12T10:19:50Z</time>
      </trkpt>
      <trkpt lat="48.83862" lon="7.29823">
        <ele>356.1</ele>
        <time>2026-03-12T10:19:55Z</time>
      </trkpt>
      <trkpt lat="48.8385" lon="7.29822">
        <ele>357.6</ele>
        <time>2026-03-12T10:20:00Z</time>
      </trkpt>
      <trkpt lat="48.83845" lon="7.2982">
        <ele>358.6</ele>
        <time>2026-03-12T10:20:05Z</time>
      </trkpt>
      <trkpt lat="48.8384" lon="7.2982">
        <ele>359.1</ele>
        <time>2026-03-12T10:20:10Z</time>
      </trkpt>
      <trkpt lat="48.83835" lon="7.29822">
        <ele>359.3</ele>
        <time>2026-03-12T10:20:15Z</time>
      </trkpt>
      <trkpt lat="48.83831" lon="7.29823">
        <ele>359.4</ele>
        <time>2026-03-12T10:20:20Z</time>
      </trkpt>
      <trkpt lat="48.83827" lon="7.29824">
        <ele>359.6</ele>
        <time>2026-03-12T10:20:25Z</time>
      </trkpt>
      <trkpt lat="48.83821" lon="7.29824">
        <ele>360.1</ele>
        <time>2026-03-12T10:20:30Z</time>
      </trkpt>
      <trkpt lat="48.83815" lon="7.29824">
        <ele>360.6</ele>
        <time>2026-03-12T10:20:35Z</time>
      </trkpt>
      <trkpt lat="48.83809" lon="7.29825">
        <ele>361</ele>
        <time>2026-03-12T10:20:40Z</time>
      </trkpt>
      <trkpt lat="48.83802" lon="7.29828">
        <ele>361</ele>
        <time>2026-03-12T10:20:45Z</time>
      </trkpt>
      <trkpt lat="48.83801" lon="7.29827">
        <ele>361.3</ele>
        <time>2026-03-12T10:20:50Z</time>
      </trkpt>
      <trkpt lat="48.83801" lon="7.29827">
        <ele>361.3</ele>
        <time>2026-03-12T10:20:55Z</time>
      </trkpt>
      <trkpt lat="48.83801" lon="7.29827">
        <ele>361.3</ele>
        <time>2026-03-12T10:21:00Z</time>
      </trkpt>
      <trkpt lat="48.83801" lon="7.29827">
        <ele>361.3</ele>
        <time>2026-03-12T10:21:05Z</time>
      </trkpt>
      <trkpt lat="48.83801" lon="7.29827">
        <ele>361.3</ele>
        <time>2026-03-12T10:21:10Z</time>
      </trkpt>
      <trkpt lat="48.83801" lon="7.29827">
        <ele>361.3</ele>
        <time>2026-03-12T10:21:15Z</time>
      </trkpt>
      <trkpt lat="48.83801" lon="7.29827">
        <ele>361.3</ele>
        <time>2026-03-12T10:21:20Z</time>
      </trkpt>
      <trkpt lat="48.83801" lon="7.29827">
        <ele>361.3</ele>
        <time>2026-03-12T10:21:25Z</time>
      </trkpt>
      <trkpt lat="48.83801" lon="7.29827">
        <ele>361.3</ele>
        <time>2026-03-12T10:21:30Z</time>
      </trkpt>
      <trkpt lat="48.83801" lon="7.29827">
        <ele>361.3</ele>
        <time>2026-03-12T10:21:35Z</time>
      </trkpt>
      <trkpt lat="48.83801" lon="7.29827">
        <ele>361.3</ele>
        <time>2026-03-12T10:21:40Z</time>
      </trkpt>
      <trkpt lat="48.83801" lon="7.29827">
        <ele>361.3</ele>
        <time>2026-03-12T10:21:45Z</time>
      </trkpt>
      <trkpt lat="48.83801" lon="7.29827">
        <ele>361.3</ele>
        <time>2026-03-12T10:21:50Z</time>
      </trkpt>
      <trkpt lat="48.83801" lon="7.29827">
        <ele>361.3</ele>
        <time>2026-03-12T10:21:55Z</time>
      </trkpt>
      <trkpt lat="48.83801" lon="7.29827">
        <ele>361.3</ele>
        <time>2026-03-12T10:22:00Z</time>
      </trkpt>
      <trkpt lat="48.83799" lon="7.29829">
        <ele>361.1</ele>
        <time>2026-03-12T10:22:05Z</time>
      </trkpt>
      <trkpt lat="48.83795" lon="7.29829">
        <ele>361.5</ele>
        <time>2026-03-12T10:22:10Z</time>
      </trkpt>
      <trkpt lat="48.8379" lon="7.29827">
        <ele>362.3</ele>
        <time>2026-03-12T10:22:15Z</time>
      </trkpt>
      <trkpt lat="48.83786" lon="7.29826">
        <ele>362.8</ele>
        <time>2026-03-12T10:22:20Z</time>
      </trkpt>
      <trkpt lat="48.83781" lon="7.29825">
        <ele>363.4</ele>
        <time>2026-03-12T10:22:25Z</time>
      </trkpt>
      <trkpt lat="48.83776" lon="7.29826">
        <ele>363.7</ele>
        <time>2026-03-12T10:22:30Z</time>
      </trkpt>
      <trkpt lat="48.83771" lon="7.29827">
        <ele>364</ele>
        <time>2026-03-12T10:22:35Z</time>
      </trkpt>
      <trkpt lat="48.83767" lon="7.29826">
        <ele>364.5</ele>
        <time>2026-03-12T10:22:40Z</time>
      </trkpt>
      <trkpt lat="48.83762" lon="7.29824">
        <ele>365.3</ele>
        <time>2026-03-12T10:22:45Z</time>
      </trkpt>
      <trkpt lat="48.83758" lon="7.29823">
        <ele>365.8</ele>
        <time>2026-03-12T10:22:50Z</time>
      </trkpt>
      <trkpt lat="48.83754" lon="7.29819">
        <ele>366.7</ele>
        <time>2026-03-12T10:22:55Z</time>
      </trkpt>
      <trkpt lat="48.8375" lon="7.29819">
        <ele>367.1</ele>
        <time>2026-03-12T10:23:00Z</time>
      </trkpt>
      <trkpt lat="48.83745" lon="7.29819">
        <ele>367.2</ele>
        <time>2026-03-12T10:23:05Z</time>
      </trkpt>
      <trkpt lat="48.8374" lon="7.29821">
        <ele>367.1</ele>
        <time>2026-03-12T10:23:10Z</time>
      </trkpt>
      <trkpt lat="48.83738" lon="7.29821">
        <ele>367.2</ele>
        <time>2026-03-12T10:23:15Z</time>
      </trkpt>
      <trkpt lat="48.83736" lon="7.29821">
        <ele>367.2</ele>
        <time>2026-03-12T10:23:20Z</time>
      </trkpt>
      <trkpt lat="48.83732" lon="7.29819">
        <ele>367.6</ele>
        <time>2026-03-12T10:23:25Z</time>
      </trkpt>
      <trkpt lat="48.83726" lon="7.29817">
        <ele>368.1</ele>
        <time>2026-03-12T10:23:30Z</time>
      </trkpt>
      <trkpt lat="48.83721" lon="7.29814">
        <ele>368.7</ele>
        <time>2026-03-12T10:23:35Z</time>
      </trkpt>
      <trkpt lat="48.83714" lon="7.29814">
        <ele>368.9</ele>
        <time>2026-03-12T10:23:40Z</time>
      </trkpt>
      <trkpt lat="48.83709" lon="7.29813">
        <ele>369.2</ele>
        <time>2026-03-12T10:23:45Z</time>
      </trkpt>
      <trkpt lat="48.83705" lon="7.29813">
        <ele>369.3</ele>
        <time>2026-03-12T10:23:50Z</time>
      </trkpt>
      <trkpt lat="48.83699" lon="7.29815">
        <ele>369.2</ele>
        <time>2026-03-12T10:23:55Z</time>
      </trkpt>
      <trkpt lat="48.83694" lon="7.29815">
        <ele>369.4</ele>
        <time>2026-03-12T10:24:00Z</time>
      </trkpt>
      <trkpt lat="48.83689" lon="7.29813">
        <ele>369.8</ele>
        <time>2026-03-12T10:24:05Z</time>
      </trkpt>
      <trkpt lat="48.83685" lon="7.29814">
        <ele>369.8</ele>
        <time>2026-03-12T10:24:10Z</time>
      </trkpt>
      <trkpt lat="48.83681" lon="7.29814">
        <ele>369.9</ele>
        <time>2026-03-12T10:24:15Z</time>
      </trkpt>
      <trkpt lat="48.83676" lon="7.29817">
        <ele>369.7</ele>
        <time>2026-03-12T10:24:20Z</time>
      </trkpt>
      <trkpt lat="48.8367" lon="7.29817">
        <ele>369.9</ele>
        <time>2026-03-12T10:24:25Z</time>
      </trkpt>
      <trkpt lat="48.83666" lon="7.29816">
        <ele>370</ele>
        <time>2026-03-12T10:24:30Z</time>
      </trkpt>
      <trkpt lat="48.83662" lon="7.29816">
        <ele>369.8</ele>
        <time>2026-03-12T10:24:35Z</time>
      </trkpt>
      <trkpt lat="48.83657" lon="7.29818">
        <ele>369.3</ele>
        <time>2026-03-12T10:24:40Z</time>
      </trkpt>
      <trkpt lat="48.83652" lon="7.29821">
        <ele>368.7</ele>
        <time>2026-03-12T10:24:45Z</time>
      </trkpt>
      <trkpt lat="48.83647" lon="7.29821">
        <ele>368.5</ele>
        <time>2026-03-12T10:24:50Z</time>
      </trkpt>
      <trkpt lat="48.8364" lon="7.29823">
        <ele>368</ele>
        <time>2026-03-12T10:24:55Z</time>
      </trkpt>
      <trkpt lat="48.83635" lon="7.29825">
        <ele>367.6</ele>
        <time>2026-03-12T10:25:00Z</time>
      </trkpt>
      <trkpt lat="48.83631" lon="7.29827">
        <ele>367.2</ele>
        <time>2026-03-12T10:25:05Z</time>
      </trkpt>
      <trkpt lat="48.83625" lon="7.29831">
        <ele>366.7</ele>
        <time>2026-03-12T10:25:10Z</time>
      </trkpt>
      <trkpt lat="48.83621" lon="7.29834">
        <ele>366.3</ele>
        <time>2026-03-12T10:25:15Z</time>
      </trkpt>
      <trkpt lat="48.83616" lon="7.29837">
        <ele>366</ele>
        <time>2026-03-12T10:25:20Z</time>
      </trkpt>
      <trkpt lat="48.83611" lon="7.2984">
        <ele>365.8</ele>
        <time>2026-03-12T10:25:25Z</time>
      </trkpt>
      <trkpt lat="48.83606" lon="7.2984">
        <ele>365.6</ele>
        <time>2026-03-12T10:25:30Z</time>
      </trkpt>
      <trkpt lat="48.83601" lon="7.29838">
        <ele>365.5</ele>
        <time>2026-03-12T10:25:35Z</time>
      </trkpt>
      <trkpt lat="48.83595" lon="7.29834">
        <ele>365.4</ele>
        <time>2026-03-12T10:25:40Z</time>
      </trkpt>
      <trkpt lat="48.83591" lon="7.29827">
        <ele>365.5</ele>
        <time>2026-03-12T10:25:45Z</time>
      </trkpt>
      <trkpt lat="48.83589" lon="7.29821">
        <ele>365.6</ele>
        <time>2026-03-12T10:25:50Z</time>
      </trkpt>
      <trkpt lat="48.83591" lon="7.29814">
        <ele>365.9</ele>
        <time>2026-03-12T10:25:55Z</time>
      </trkpt>
      <trkpt lat="48.83592" lon="7.29805">
        <ele>366.3</ele>
        <time>2026-03-12T10:26:00Z</time>
      </trkpt>
      <trkpt lat="48.83594" lon="7.29799">
        <ele>366.6</ele>
        <time>2026-03-12T10:26:05Z</time>
      </trkpt>
      <trkpt lat="48.83597" lon="7.29794">
        <ele>367.1</ele>
        <time>2026-03-12T10:26:10Z</time>
      </trkpt>
      <trkpt lat="48.83599" lon="7.29789">
        <ele>367.4</ele>
        <time>2026-03-12T10:26:15Z</time>
      </trkpt>
      <trkpt lat="48.83601" lon="7.29784">
        <ele>367.8</ele>
        <time>2026-03-12T10:26:20Z</time>
      </trkpt>
      <trkpt lat="48.836" lon="7.29777">
        <ele>368</ele>
        <time>2026-03-12T10:26:25Z</time>
      </trkpt>
      <trkpt lat="48.83601" lon="7.29772">
        <ele>368.4</ele>
        <time>2026-03-12T10:26:30Z</time>
      </trkpt>
      <trkpt lat="48.83603" lon="7.29767">
        <ele>368.8</ele>
        <time>2026-03-12T10:26:35Z</time>
      </trkpt>
      <trkpt lat="48.83603" lon="7.2976">
        <ele>369.1</ele>
        <time>2026-03-12T10:26:40Z</time>
      </trkpt>
      <trkpt lat="48.83603" lon="7.29751">
        <ele>369.5</ele>
        <time>2026-03-12T10:26:45Z</time>
      </trkpt>
      <trkpt lat="48.83603" lon="7.29744">
        <ele>370</ele>
        <time>2026-03-12T10:26:50Z</time>
      </trkpt>
      <trkpt lat="48.83602" lon="7.29737">
        <ele>370.2</ele>
        <time>2026-03-12T10:26:55Z</time>
      </trkpt>
      <trkpt lat="48.836" lon="7.29732">
        <ele>370.2</ele>
        <time>2026-03-12T10:27:00Z</time>
      </trkpt>
      <trkpt lat="48.83597" lon="7.29727">
        <ele>370.1</ele>
        <time>2026-03-12T10:27:05Z</time>
      </trkpt>
      <trkpt lat="48.83594" lon="7.29722">
        <ele>369.9</ele>
        <time>2026-03-12T10:27:10Z</time>
      </trkpt>
      <trkpt lat="48.83591" lon="7.29716">
        <ele>369.8</ele>
        <time>2026-03-12T10:27:15Z</time>
      </trkpt>
      <trkpt lat="48.83588" lon="7.29711">
        <ele>369.6</ele>
        <time>2026-03-12T10:27:20Z</time>
      </trkpt>
      <trkpt lat="48.83585" lon="7.29705">
        <ele>369.4</ele>
        <time>2026-03-12T10:27:25Z</time>
      </trkpt>
      <trkpt lat="48.83581" lon="7.297">
        <ele>368.9</ele>
        <time>2026-03-12T10:27:30Z</time>
      </trkpt>
      <trkpt lat="48.83577" lon="7.29694">
        <ele>368.4</ele>
        <time>2026-03-12T10:27:35Z</time>
      </trkpt>
      <trkpt lat="48.83573" lon="7.29688">
        <ele>367.9</ele>
        <time>2026-03-12T10:27:40Z</time>
      </trkpt>
      <trkpt lat="48.83568" lon="7.29684">
        <ele>367</ele>
        <time>2026-03-12T10:27:45Z</time>
      </trkpt>
      <trkpt lat="48.83562" lon="7.29681">
        <ele>365.9</ele>
        <time>2026-03-12T10:27:50Z</time>
      </trkpt>
      <trkpt lat="48.83558" lon="7.29677">
        <ele>365.2</ele>
        <time>2026-03-12T10:27:55Z</time>
      </trkpt>
      <trkpt lat="48.83553" lon="7.29671">
        <ele>364.3</ele>
        <time>2026-03-12T10:28:00Z</time>
      </trkpt>
      <trkpt lat="48.83548" lon="7.29666">
        <ele>363.4</ele>
        <time>2026-03-12T10:28:05Z</time>
      </trkpt>
      <trkpt lat="48.83541" lon="7.2966">
        <ele>362</ele>
        <time>2026-03-12T10:28:10Z</time>
      </trkpt>
      <trkpt lat="48.83536" lon="7.29655">
        <ele>361.1</ele>
        <time>2026-03-12T10:28:15Z</time>
      </trkpt>
      <trkpt lat="48.83533" lon="7.29651">
        <ele>360.5</ele>
        <time>2026-03-12T10:28:20Z</time>
      </trkpt>
      <trkpt lat="48.83529" lon="7.29645">
        <ele>359.9</ele>
        <time>2026-03-12T10:28:25Z</time>
      </trkpt>
      <trkpt lat="48.83527" lon="7.29639">
        <ele>359.6</ele>
        <time>2026-03-12T10:28:30Z</time>
      </trkpt>
      <trkpt lat="48.83521" lon="7.29629">
        <ele>358.7</ele>
        <time>2026-03-12T10:28:35Z</time>
      </trkpt>
      <trkpt lat="48.83516" lon="7.29621">
        <ele>357.9</ele>
        <time>2026-03-12T10:28:40Z</time>
      </trkpt>
      <trkpt lat="48.83511" lon="7.29613">
        <ele>357.1</ele>
        <time>2026-03-12T10:28:45Z</time>
      </trkpt>
      <trkpt lat="48.83504" lon="7.29604">
        <ele>356</ele>
        <time>2026-03-12T10:28:50Z</time>
      </trkpt>
      <trkpt lat="48.83499" lon="7.29594">
        <ele>355.4</ele>
        <time>2026-03-12T10:28:55Z</time>
      </trkpt>
      <trkpt lat="48.83494" lon="7.29587">
        <ele>354.6</ele>
        <time>2026-03-12T10:29:00Z</time>
      </trkpt>
      <trkpt lat="48.83489" lon="7.29581">
        <ele>353.8</ele>
        <time>2026-03-12T10:29:05Z</time>
      </trkpt>
      <trkpt lat="48.83483" lon="7.29576">
        <ele>352.8</ele>
        <time>2026-03-12T10:29:10Z</time>
      </trkpt>
      <trkpt lat="48.83479" lon="7.2957">
        <ele>352.3</ele>
        <time>2026-03-12T10:29:15Z</time>
      </trkpt>
      <trkpt lat="48.83475" lon="7.29564">
        <ele>351.8</ele>
        <time>2026-03-12T10:29:20Z</time>
      </trkpt>
      <trkpt lat="48.83468" lon="7.29556">
        <ele>350.9</ele>
        <time>2026-03-12T10:29:25Z</time>
      </trkpt>
      <trkpt lat="48.83462" lon="7.29546">
        <ele>350.4</ele>
        <time>2026-03-12T10:29:30Z</time>
      </trkpt>
      <trkpt lat="48.83456" lon="7.29539">
        <ele>349.8</ele>
        <time>2026-03-12T10:29:35Z</time>
      </trkpt>
      <trkpt lat="48.83454" lon="7.29534">
        <ele>349.8</ele>
        <time>2026-03-12T10:29:40Z</time>
      </trkpt>
      <trkpt lat="48.83451" lon="7.29528">
        <ele>349.7</ele>
        <time>2026-03-12T10:29:45Z</time>
      </trkpt>
      <trkpt lat="48.83447" lon="7.2952">
        <ele>349.6</ele>
        <time>2026-03-12T10:29:50Z</time>
      </trkpt>
      <trkpt lat="48.8344" lon="7.29513">
        <ele>349.1</ele>
        <time>2026-03-12T10:29:55Z</time>
      </trkpt>
      <trkpt lat="48.83433" lon="7.29505">
        <ele>348.7</ele>
        <time>2026-03-12T10:30:00Z</time>
      </trkpt>
      <trkpt lat="48.83426" lon="7.29502">
        <ele>348.1</ele>
        <time>2026-03-12T10:30:05Z</time>
      </trkpt>
      <trkpt lat="48.8342" lon="7.29499">
        <ele>347.5</ele>
        <time>2026-03-12T10:30:10Z</time>
      </trkpt>
      <trkpt lat="48.83416" lon="7.29496">
        <ele>346.9</ele>
        <time>2026-03-12T10:30:15Z</time>
      </trkpt>
      <trkpt lat="48.83411" lon="7.29494">
        <ele>345.8</ele>
        <time>2026-03-12T10:30:20Z</time>
      </trkpt>
      <trkpt lat="48.83406" lon="7.29491">
        <ele>344.8</ele>
        <time>2026-03-12T10:30:25Z</time>
      </trkpt>
      <trkpt lat="48.83401" lon="7.29485">
        <ele>343.9</ele>
        <time>2026-03-12T10:30:30Z</time>
      </trkpt>
      <trkpt lat="48.83394" lon="7.29477">
        <ele>342.9</ele>
        <time>2026-03-12T10:30:35Z</time>
      </trkpt>
      <trkpt lat="48.8339" lon="7.29471">
        <ele>342.4</ele>
        <time>2026-03-12T10:30:40Z</time>
      </trkpt>
      <trkpt lat="48.83384" lon="7.29466">
        <ele>341.6</ele>
        <time>2026-03-12T10:30:45Z</time>
      </trkpt>
      <trkpt lat="48.83379" lon="7.29459">
        <ele>341.1</ele>
        <time>2026-03-12T10:30:50Z</time>
      </trkpt>
      <trkpt lat="48.83375" lon="7.29453">
        <ele>340.9</ele>
        <time>2026-03-12T10:30:55Z</time>
      </trkpt>
      <trkpt lat="48.83367" lon="7.29448">
        <ele>340</ele>
        <time>2026-03-12T10:31:00Z</time>
      </trkpt>
      <trkpt lat="48.83363" lon="7.2944">
        <ele>340.1</ele>
        <time>2026-03-12T10:31:05Z</time>
      </trkpt>
      <trkpt lat="48.83358" lon="7.29433">
        <ele>340.1</ele>
        <time>2026-03-12T10:31:10Z</time>
      </trkpt>
      <trkpt lat="48.83352" lon="7.29424">
        <ele>340.2</ele>
        <time>2026-03-12T10:31:15Z</time>
      </trkpt>
      <trkpt lat="48.83349" lon="7.29417">
        <ele>340.7</ele>
        <time>2026-03-12T10:31:20Z</time>
      </trkpt>
      <trkpt lat="48.83347" lon="7.2941">
        <ele>340.5</ele>
        <time>2026-03-12T10:31:25Z</time>
      </trkpt>
      <trkpt lat="48.83344" lon="7.294">
        <ele>340.3</ele>
        <time>2026-03-12T10:31:30Z</time>
      </trkpt>
      <trkpt lat="48.83339" lon="7.29391">
        <ele>339.9</ele>
        <time>2026-03-12T10:31:35Z</time>
      </trkpt>
      <trkpt lat="48.83333" lon="7.29382">
        <ele>339.4</ele>
        <time>2026-03-12T10:31:40Z</time>
      </trkpt>
      <trkpt lat="48.8333" lon="7.29374">
        <ele>339.1</ele>
        <time>2026-03-12T10:31:45Z</time>
      </trkpt>
      <trkpt lat="48.83327" lon="7.29365">
        <ele>338.8</ele>
        <time>2026-03-12T10:31:50Z</time>
      </trkpt>
      <trkpt lat="48.83324" lon="7.29356">
        <ele>338.6</ele>
        <time>2026-03-12T10:31:55Z</time>
      </trkpt>
      <trkpt lat="48.83318" lon="7.29347">
        <ele>338.1</ele>
        <time>2026-03-12T10:32:00Z</time>
      </trkpt>
      <trkpt lat="48.83315" lon="7.29339">
        <ele>337.9</ele>
        <time>2026-03-12T10:32:05Z</time>
      </trkpt>
      <trkpt lat="48.8331" lon="7.2933">
        <ele>337.4</ele>
        <time>2026-03-12T10:32:10Z</time>
      </trkpt>
      <trkpt lat="48.83311" lon="7.29319">
        <ele>337.2</ele>
        <time>2026-03-12T10:32:15Z</time>
      </trkpt>
      <trkpt lat="48.83312" lon="7.29309">
        <ele>337</ele>
        <time>2026-03-12T10:32:20Z</time>
      </trkpt>
      <trkpt lat="48.8331" lon="7.29298">
        <ele>336.6</ele>
        <time>2026-03-12T10:32:25Z</time>
      </trkpt>
      <trkpt lat="48.8331" lon="7.29289">
        <ele>336.3</ele>
        <time>2026-03-12T10:32:30Z</time>
      </trkpt>
      <trkpt lat="48.8331" lon="7.29281">
        <ele>336.1</ele>
        <time>2026-03-12T10:32:35Z</time>
      </trkpt>
      <trkpt lat="48.83307" lon="7.29275">
        <ele>335.7</ele>
        <time>2026-03-12T10:32:40Z</time>
      </trkpt>
      <trkpt lat="48.83306" lon="7.29269">
        <ele>335.5</ele>
        <time>2026-03-12T10:32:45Z</time>
      </trkpt>
      <trkpt lat="48.83304" lon="7.29261">
        <ele>335.1</ele>
        <time>2026-03-12T10:32:50Z</time>
      </trkpt>
      <trkpt lat="48.83299" lon="7.29255">
        <ele>334.6</ele>
        <time>2026-03-12T10:32:55Z</time>
      </trkpt>
      <trkpt lat="48.83295" lon="7.29247">
        <ele>334.2</ele>
        <time>2026-03-12T10:33:00Z</time>
      </trkpt>
      <trkpt lat="48.83291" lon="7.29239">
        <ele>333.8</ele>
        <time>2026-03-12T10:33:05Z</time>
      </trkpt>
      <trkpt lat="48.83286" lon="7.2923">
        <ele>333.4</ele>
        <time>2026-03-12T10:33:10Z</time>
      </trkpt>
      <trkpt lat="48.83281" lon="7.29222">
        <ele>333</ele>
        <time>2026-03-12T10:33:15Z</time>
      </trkpt>
      <trkpt lat="48.83279" lon="7.29213">
        <ele>332.8</ele>
        <time>2026-03-12T10:33:20Z</time>
      </trkpt>
      <trkpt lat="48.83273" lon="7.29208">
        <ele>332.4</ele>
        <time>2026-03-12T10:33:25Z</time>
      </trkpt>
      <trkpt lat="48.83268" lon="7.29204">
        <ele>332.1</ele>
        <time>2026-03-12T10:33:30Z</time>
      </trkpt>
      <trkpt lat="48.83267" lon="7.29197">
        <ele>332</ele>
        <time>2026-03-12T10:33:35Z</time>
      </trkpt>
      <trkpt lat="48.83269" lon="7.29189">
        <ele>332</ele>
        <time>2026-03-12T10:33:40Z</time>
      </trkpt>
      <trkpt lat="48.83271" lon="7.29178">
        <ele>332.1</ele>
        <time>2026-03-12T10:33:45Z</time>
      </trkpt>
      <trkpt lat="48.83273" lon="7.29167">
        <ele>332.1</ele>
        <time>2026-03-12T10:33:50Z</time>
      </trkpt>
      <trkpt lat="48.83272" lon="7.29158">
        <ele>331.9</ele>
        <time>2026-03-12T10:33:55Z</time>
      </trkpt>
      <trkpt lat="48.83266" lon="7.29149">
        <ele>331.4</ele>
        <time>2026-03-12T10:34:00Z</time>
      </trkpt>
      <trkpt lat="48.83265" lon="7.29141">
        <ele>331.2</ele>
        <time>2026-03-12T10:34:05Z</time>
      </trkpt>
      <trkpt lat="48.83261" lon="7.2913">
        <ele>330.8</ele>
        <time>2026-03-12T10:34:10Z</time>
      </trkpt>
      <trkpt lat="48.83258" lon="7.29119">
        <ele>330.3</ele>
        <time>2026-03-12T10:34:15Z</time>
      </trkpt>
      <trkpt lat="48.83252" lon="7.2911">
        <ele>329.8</ele>
        <time>2026-03-12T10:34:20Z</time>
      </trkpt>
      <trkpt lat="48.83249" lon="7.29104">
        <ele>329.6</ele>
        <time>2026-03-12T10:34:25Z</time>
      </trkpt>
      <trkpt lat="48.83244" lon="7.29094">
        <ele>329.6</ele>
        <time>2026-03-12T10:34:30Z</time>
      </trkpt>
      <trkpt lat="48.83237" lon="7.29085">
        <ele>330</ele>
        <time>2026-03-12T10:34:35Z</time>
      </trkpt>
      <trkpt lat="48.83231" lon="7.29081">
        <ele>330.2</ele>
        <time>2026-03-12T10:34:40Z</time>
      </trkpt>
      <trkpt lat="48.83223" lon="7.29081">
        <ele>330.8</ele>
        <time>2026-03-12T10:34:45Z</time>
      </trkpt>
      <trkpt lat="48.83216" lon="7.29083">
        <ele>331.4</ele>
        <time>2026-03-12T10:34:50Z</time>
      </trkpt>
      <trkpt lat="48.8321" lon="7.2908">
        <ele>331.7</ele>
        <time>2026-03-12T10:34:55Z</time>
      </trkpt>
      <trkpt lat="48.83207" lon="7.29072">
        <ele>331.6</ele>
        <time>2026-03-12T10:35:00Z</time>
      </trkpt>
      <trkpt lat="48.83208" lon="7.2906">
        <ele>330.9</ele>
        <time>2026-03-12T10:35:05Z</time>
      </trkpt>
      <trkpt lat="48.83211" lon="7.29049">
        <ele>330.1</ele>
        <time>2026-03-12T10:35:10Z</time>
      </trkpt>
      <trkpt lat="48.83208" lon="7.2904">
        <ele>330</ele>
        <time>2026-03-12T10:35:15Z</time>
      </trkpt>
      <trkpt lat="48.83202" lon="7.29034">
        <ele>330.3</ele>
        <time>2026-03-12T10:35:20Z</time>
      </trkpt>
      <trkpt lat="48.83193" lon="7.29034">
        <ele>331.2</ele>
        <time>2026-03-12T10:35:25Z</time>
      </trkpt>
      <trkpt lat="48.83185" lon="7.2904">
        <ele>332.2</ele>
        <time>2026-03-12T10:35:30Z</time>
      </trkpt>
      <trkpt lat="48.83179" lon="7.29044">
        <ele>332.9</ele>
        <time>2026-03-12T10:35:35Z</time>
      </trkpt>
      <trkpt lat="48.83172" lon="7.29048">
        <ele>333.7</ele>
        <time>2026-03-12T10:35:40Z</time>
      </trkpt>
      <trkpt lat="48.83164" lon="7.29052">
        <ele>334.5</ele>
        <time>2026-03-12T10:35:45Z</time>
      </trkpt>
      <trkpt lat="48.83158" lon="7.29057">
        <ele>335.2</ele>
        <time>2026-03-12T10:35:50Z</time>
      </trkpt>
      <trkpt lat="48.83153" lon="7.29058">
        <ele>335.6</ele>
        <time>2026-03-12T10:35:55Z</time>
      </trkpt>
      <trkpt lat="48.8315" lon="7.29051">
        <ele>335.8</ele>
        <time>2026-03-12T10:36:00Z</time>
      </trkpt>
      <trkpt lat="48.83148" lon="7.29048">
        <ele>336</ele>
        <time>2026-03-12T10:36:05Z</time>
      </trkpt>
      <trkpt lat="48.83146" lon="7.29043">
        <ele>336.1</ele>
        <time>2026-03-12T10:36:10Z</time>
      </trkpt>
      <trkpt lat="48.83144" lon="7.29042">
        <ele>336.3</ele>
        <time>2026-03-12T10:36:15Z</time>
      </trkpt>
      <trkpt lat="48.83144" lon="7.29042">
        <ele>336.3</ele>
        <time>2026-03-12T10:36:20Z</time>
      </trkpt>
      <trkpt lat="48.83144" lon="7.29042">
        <ele>336.3</ele>
        <time>2026-03-12T10:36:25Z</time>
      </trkpt>
      <trkpt lat="48.83144" lon="7.29042">
        <ele>336.3</ele>
        <time>2026-03-12T10:36:30Z</time>
      </trkpt>
      <trkpt lat="48.83144" lon="7.29042">
        <ele>336.3</ele>
        <time>2026-03-12T10:36:35Z</time>
      </trkpt>
      <trkpt lat="48.83144" lon="7.29042">
        <ele>336.3</ele>
        <time>2026-03-12T10:36:40Z</time>
      </trkpt>
      <trkpt lat="48.83144" lon="7.29042">
        <ele>336.3</ele>
        <time>2026-03-12T10:36:45Z</time>
      </trkpt>
      <trkpt lat="48.83144" lon="7.29042">
        <ele>336.3</ele>
        <time>2026-03-12T10:36:50Z</time>
      </trkpt>
      <trkpt lat="48.83144" lon="7.29042">
        <ele>336.3</ele>
        <time>2026-03-12T10:36:55Z</time>
      </trkpt>
      <trkpt lat="48.83144" lon="7.29042">
        <ele>336.3</ele>
        <time>2026-03-12T10:37:00Z</time>
      </trkpt>
      <trkpt lat="48.83144" lon="7.29042">
        <ele>336.3</ele>
        <time>2026-03-12T10:37:05Z</time>
      </trkpt>
      <trkpt lat="48.83144" lon="7.29042">
        <ele>336.3</ele>
        <time>2026-03-12T10:37:10Z</time>
      </trkpt>
      <trkpt lat="48.83144" lon="7.29042">
        <ele>336.3</ele>
        <time>2026-03-12T10:37:15Z</time>
      </trkpt>
      <trkpt lat="48.83144" lon="7.29042">
        <ele>336.3</ele>
        <time>2026-03-12T10:37:20Z</time>
      </trkpt>
      <trkpt lat="48.83144" lon="7.29042">
        <ele>336.3</ele>
        <time>2026-03-12T10:37:25Z</time>
      </trkpt>
      <trkpt lat="48.83144" lon="7.29042">
        <ele>336.3</ele>
        <time>2026-03-12T10:37:30Z</time>
      </trkpt>
      <trkpt lat="48.83144" lon="7.29042">
        <ele>336.3</ele>
        <time>2026-03-12T10:37:35Z</time>
      </trkpt>
      <trkpt lat="48.83144" lon="7.29042">
        <ele>336.3</ele>
        <time>2026-03-12T10:37:40Z</time>
      </trkpt>
      <trkpt lat="48.83144" lon="7.29042">
        <ele>336.3</ele>
        <time>2026-03-12T10:37:45Z</time>
      </trkpt>
      <trkpt lat="48.83138" lon="7.29035">
        <ele>336.9</ele>
        <time>2026-03-12T10:37:50Z</time>
      </trkpt>
      <trkpt lat="48.83135" lon="7.29026">
        <ele>337.2</ele>
        <time>2026-03-12T10:37:55Z</time>
      </trkpt>
      <trkpt lat="48.83129" lon="7.29011">
        <ele>337.9</ele>
        <time>2026-03-12T10:38:00Z</time>
      </trkpt>
      <trkpt lat="48.83122" lon="7.29002">
        <ele>338.9</ele>
        <time>2026-03-12T10:38:05Z</time>
      </trkpt>
      <trkpt lat="48.8312" lon="7.28993">
        <ele>338.6</ele>
        <time>2026-03-12T10:38:10Z</time>
      </trkpt>
      <trkpt lat="48.83122" lon="7.28983">
        <ele>337.5</ele>
        <time>2026-03-12T10:38:15Z</time>
      </trkpt>
      <trkpt lat="48.83124" lon="7.28976">
        <ele>336.6</ele>
        <time>2026-03-12T10:38:20Z</time>
      </trkpt>
      <trkpt lat="48.83124" lon="7.28964">
        <ele>335.6</ele>
        <time>2026-03-12T10:38:25Z</time>
      </trkpt>
      <trkpt lat="48.83124" lon="7.28955">
        <ele>334.9</ele>
        <time>2026-03-12T10:38:30Z</time>
      </trkpt>
      <trkpt lat="48.83121" lon="7.28944">
        <ele>334.6</ele>
        <time>2026-03-12T10:38:35Z</time>
      </trkpt>
      <trkpt lat="48.8312" lon="7.28935">
        <ele>334.1</ele>
        <time>2026-03-12T10:38:40Z</time>
      </trkpt>
      <trkpt lat="48.83122" lon="7.28924">
        <ele>332.8</ele>
        <time>2026-03-12T10:38:45Z</time>
      </trkpt>
      <trkpt lat="48.83122" lon="7.28914">
        <ele>331.9</ele>
        <time>2026-03-12T10:38:50Z</time>
      </trkpt>
      <trkpt lat="48.83123" lon="7.28905">
        <ele>330.8</ele>
        <time>2026-03-12T10:38:55Z</time>
      </trkpt>
      <trkpt lat="48.83123" lon="7.28895">
        <ele>329.9</ele>
        <time>2026-03-12T10:39:00Z</time>
      </trkpt>
      <trkpt lat="48.83122" lon="7.28886">
        <ele>329.2</ele>
        <time>2026-03-12T10:39:05Z</time>
      </trkpt>
      <trkpt lat="48.83123" lon="7.28874">
        <ele>327.8</ele>
        <time>2026-03-12T10:39:10Z</time>
      </trkpt>
      <trkpt lat="48.83126" lon="7.28863">
        <ele>326.1</ele>
        <time>2026-03-12T10:39:15Z</time>
      </trkpt>
      <trkpt lat="48.83128" lon="7.2885">
        <ele>324.5</ele>
        <time>2026-03-12T10:39:20Z</time>
      </trkpt>
      <trkpt lat="48.83127" lon="7.28841">
        <ele>323.8</ele>
        <time>2026-03-12T10:39:25Z</time>
      </trkpt>
      <trkpt lat="48.83126" lon="7.28833">
        <ele>323.3</ele>
        <time>2026-03-12T10:39:30Z</time>
      </trkpt>
      <trkpt lat="48.83122" lon="7.28823">
        <ele>323.1</ele>
        <time>2026-03-12T10:39:35Z</time>
      </trkpt>
      <trkpt lat="48.8312" lon="7.28812">
        <ele>322.4</ele>
        <time>2026-03-12T10:39:40Z</time>
      </trkpt>
      <trkpt lat="48.83119" lon="7.28802">
        <ele>321.6</ele>
        <time>2026-03-12T10:39:45Z</time>
      </trkpt>
      <trkpt lat="48.83118" lon="7.28793">
        <ele>320.9</ele>
        <time>2026-03-12T10:39:50Z</time>
      </trkpt>
      <trkpt lat="48.83118" lon="7.28785">
        <ele>320</ele>
        <time>2026-03-12T10:39:55Z</time>
      </trkpt>
      <trkpt lat="48.8312" lon="7.28776">
        <ele>318.7</ele>
        <time>2026-03-12T10:40:00Z</time>
      </trkpt>
      <trkpt lat="48.83121" lon="7.2877">
        <ele>317.9</ele>
        <time>2026-03-12T10:40:05Z</time>
      </trkpt>
      <trkpt lat="48.83116" lon="7.28761">
        <ele>318.1</ele>
        <time>2026-03-12T10:40:10Z</time>
      </trkpt>
      <trkpt lat="48.83113" lon="7.28751">
        <ele>317.7</ele>
        <time>2026-03-12T10:40:15Z</time>
      </trkpt>
      <trkpt lat="48.8311" lon="7.28744">
        <ele>317.6</ele>
        <time>2026-03-12T10:40:20Z</time>
      </trkpt>
      <trkpt lat="48.83107" lon="7.28734">
        <ele>317.2</ele>
        <time>2026-03-12T10:40:25Z</time>
      </trkpt>
      <trkpt lat="48.83104" lon="7.28723">
        <ele>316.8</ele>
        <time>2026-03-12T10:40:30Z</time>
      </trkpt>
      <trkpt lat="48.831" lon="7.2871">
        <ele>316.4</ele>
        <time>2026-03-12T10:40:35Z</time>
      </trkpt>
      <trkpt lat="48.83097" lon="7.28702">
        <ele>316.3</ele>
        <time>2026-03-12T10:40:40Z</time>
      </trkpt>
      <trkpt lat="48.83091" lon="7.28692">
        <ele>316.6</ele>
        <time>2026-03-12T10:40:45Z</time>
      </trkpt>
      <trkpt lat="48.83088" lon="7.28684">
        <ele>316.6</ele>
        <time>2026-03-12T10:40:50Z</time>
      </trkpt>
      <trkpt lat="48.83084" lon="7.28679">
        <ele>317</ele>
        <time>2026-03-12T10:40:55Z</time>
      </trkpt>
      <trkpt lat="48.83078" lon="7.28668">
        <ele>317.3</ele>
        <time>2026-03-12T10:41:00Z</time>
      </trkpt>
      <trkpt lat="48.83077" lon="7.28659">
        <ele>316.3</ele>
        <time>2026-03-12T10:41:05Z</time>
      </trkpt>
      <trkpt lat="48.83075" lon="7.28651">
        <ele>315.6</ele>
        <time>2026-03-12T10:41:10Z</time>
      </trkpt>
      <trkpt lat="48.83073" lon="7.28645">
        <ele>315.2</ele>
        <time>2026-03-12T10:41:15Z</time>
      </trkpt>
      <trkpt lat="48.83069" lon="7.28641">
        <ele>315.5</ele>
        <time>2026-03-12T10:41:20Z</time>
      </trkpt>
      <trkpt lat="48.83064" lon="7.28636">
        <ele>315.9</ele>
        <time>2026-03-12T10:41:25Z</time>
      </trkpt>
      <trkpt lat="48.83062" lon="7.28631">
        <ele>315.6</ele>
        <time>2026-03-12T10:41:30Z</time>
      </trkpt>
      <trkpt lat="48.83058" lon="7.28624">
        <ele>315.5</ele>
        <time>2026-03-12T10:41:35Z</time>
      </trkpt>
      <trkpt lat="48.83053" lon="7.28615">
        <ele>315.3</ele>
        <time>2026-03-12T10:41:40Z</time>
      </trkpt>
      <trkpt lat="48.83048" lon="7.28601">
        <ele>314.3</ele>
        <time>2026-03-12T10:41:45Z</time>
      </trkpt>
      <trkpt lat="48.83043" lon="7.28591">
        <ele>313.9</ele>
        <time>2026-03-12T10:41:50Z</time>
      </trkpt>
      <trkpt lat="48.83041" lon="7.28584">
        <ele>313.2</ele>
        <time>2026-03-12T10:41:55Z</time>
      </trkpt>
      <trkpt lat="48.83039" lon="7.28578">
        <ele>312.5</ele>
        <time>2026-03-12T10:42:00Z</time>
      </trkpt>
      <trkpt lat="48.83036" lon="7.28571">
        <ele>311.8</ele>
        <time>2026-03-12T10:42:05Z</time>
      </trkpt>
      <trkpt lat="48.83032" lon="7.28564">
        <ele>311.3</ele>
        <time>2026-03-12T10:42:10Z</time>
      </trkpt>
      <trkpt lat="48.83029" lon="7.28557">
        <ele>310.7</ele>
        <time>2026-03-12T10:42:15Z</time>
      </trkpt>
      <trkpt lat="48.83026" lon="7.2855">
        <ele>310</ele>
        <time>2026-03-12T10:42:20Z</time>
      </trkpt>
      <trkpt lat="48.83023" lon="7.28541">
        <ele>309</ele>
        <time>2026-03-12T10:42:25Z</time>
      </trkpt>
      <trkpt lat="48.83018" lon="7.28533">
        <ele>308.7</ele>
        <time>2026-03-12T10:42:30Z</time>
      </trkpt>
      <trkpt lat="48.83016" lon="7.28524">
        <ele>307.5</ele>
        <time>2026-03-12T10:42:35Z</time>
      </trkpt>
      <trkpt lat="48.83013" lon="7.28517">
        <ele>306.9</ele>
        <time>2026-03-12T10:42:40Z</time>
      </trkpt>
      <trkpt lat="48.83009" lon="7.2851">
        <ele>306.6</ele>
        <time>2026-03-12T10:42:45Z</time>
      </trkpt>
      <trkpt lat="48.83007" lon="7.28505">
        <ele>306.2</ele>
        <time>2026-03-12T10:42:50Z</time>
      </trkpt>
      <trkpt lat="48.83004" lon="7.28495">
        <ele>304.9</ele>
        <time>2026-03-12T10:42:55Z</time>
      </trkpt>
      <trkpt lat="48.83001" lon="7.28481">
        <ele>302.6</ele>
        <time>2026-03-12T10:43:00Z</time>
      </trkpt>
      <trkpt lat="48.82998" lon="7.28472">
        <ele>301.2</ele>
        <time>2026-03-12T10:43:05Z</time>
      </trkpt>
      <trkpt lat="48.82995" lon="7.28462">
        <ele>299.4</ele>
        <time>2026-03-12T10:43:10Z</time>
      </trkpt>
      <trkpt lat="48.8299" lon="7.28455">
        <ele>298.5</ele>
        <time>2026-03-12T10:43:15Z</time>
      </trkpt>
      <trkpt lat="48.82986" lon="7.28449">
        <ele>297.8</ele>
        <time>2026-03-12T10:43:20Z</time>
      </trkpt>
      <trkpt lat="48.82982" lon="7.28441">
        <ele>296.6</ele>
        <time>2026-03-12T10:43:25Z</time>
      </trkpt>
      <trkpt lat="48.82978" lon="7.28436">
        <ele>296</ele>
        <time>2026-03-12T10:43:30Z</time>
      </trkpt>
      <trkpt lat="48.82973" lon="7.28427">
        <ele>294.8</ele>
        <time>2026-03-12T10:43:35Z</time>
      </trkpt>
      <trkpt lat="48.8297" lon="7.28422">
        <ele>294.1</ele>
        <time>2026-03-12T10:43:40Z</time>
      </trkpt>
      <trkpt lat="48.82968" lon="7.28413">
        <ele>292.5</ele>
        <time>2026-03-12T10:43:45Z</time>
      </trkpt>
      <trkpt lat="48.82964" lon="7.28402">
        <ele>291</ele>
        <time>2026-03-12T10:43:50Z</time>
      </trkpt>
      <trkpt lat="48.8296" lon="7.28394">
        <ele>290.2</ele>
        <time>2026-03-12T10:43:55Z</time>
      </trkpt>
      <trkpt lat="48.82958" lon="7.28388">
        <ele>289.4</ele>
        <time>2026-03-12T10:44:00Z</time>
      </trkpt>
      <trkpt lat="48.82958" lon="7.28388">
        <ele>289.4</ele>
        <time>2026-03-12T10:44:05Z</time>
      </trkpt>
      <trkpt lat="48.82958" lon="7.28388">
        <ele>289.4</ele>
        <time>2026-03-12T10:44:10Z</time>
      </trkpt>
      <trkpt lat="48.82958" lon="7.28388">
        <ele>289.4</ele>
        <time>2026-03-12T10:44:15Z</time>
      </trkpt>
      <trkpt lat="48.82958" lon="7.28388">
        <ele>289.4</ele>
        <time>2026-03-12T10:44:20Z</time>
      </trkpt>
      <trkpt lat="48.82958" lon="7.28388">
        <ele>289.4</ele>
        <time>2026-03-12T10:44:25Z</time>
      </trkpt>
      <trkpt lat="48.82958" lon="7.28388">
        <ele>289.4</ele>
        <time>2026-03-12T10:44:30Z</time>
      </trkpt>
      <trkpt lat="48.82958" lon="7.28388">
        <ele>289.4</ele>
        <time>2026-03-12T10:44:35Z</time>
      </trkpt>
      <trkpt lat="48.82952" lon="7.28373">
        <ele>287.7</ele>
        <time>2026-03-12T10:44:40Z</time>
      </trkpt>
      <trkpt lat="48.82947" lon="7.28361">
        <ele>286.5</ele>
        <time>2026-03-12T10:44:45Z</time>
      </trkpt>
      <trkpt lat="48.82943" lon="7.28354">
        <ele>286.1</ele>
        <time>2026-03-12T10:44:50Z</time>
      </trkpt>
      <trkpt lat="48.82938" lon="7.28348">
        <ele>286</ele>
        <time>2026-03-12T10:44:55Z</time>
      </trkpt>
      <trkpt lat="48.82933" lon="7.2834">
        <ele>285.7</ele>
        <time>2026-03-12T10:45:00Z</time>
      </trkpt>
      <trkpt lat="48.82929" lon="7.28335">
        <ele>285.7</ele>
        <time>2026-03-12T10:45:05Z</time>
      </trkpt>
      <trkpt lat="48.82925" lon="7.28327">
        <ele>285.4</ele>
        <time>2026-03-12T10:45:10Z</time>
      </trkpt>
      <trkpt lat="48.82923" lon="7.28322">
        <ele>285.1</ele>
        <time>2026-03-12T10:45:15Z</time>
      </trkpt>
      <trkpt lat="48.8292" lon="7.28317">
        <ele>285</ele>
        <time>2026-03-12T10:45:20Z</time>
      </trkpt>
      <trkpt lat="48.82918" lon="7.28309">
        <ele>284.2</ele>
        <time>2026-03-12T10:45:25Z</time>
      </trkpt>
      <trkpt lat="48.82913" lon="7.283">
        <ele>283.5</ele>
        <time>2026-03-12T10:45:30Z</time>
      </trkpt>
      <trkpt lat="48.82911" lon="7.28295">
        <ele>283</ele>
        <time>2026-03-12T10:45:35Z</time>
      </trkpt>
      <trkpt lat="48.82908" lon="7.28291">
        <ele>282.6</ele>
        <time>2026-03-12T10:45:40Z</time>
      </trkpt>
      <trkpt lat="48.82901" lon="7.28285">
        <ele>282.3</ele>
        <time>2026-03-12T10:45:45Z</time>
      </trkpt>
      <trkpt lat="48.82894" lon="7.28274">
        <ele>281.1</ele>
        <time>2026-03-12T10:45:50Z</time>
      </trkpt>
      <trkpt lat="48.82889" lon="7.28262">
        <ele>279.6</ele>
        <time>2026-03-12T10:45:55Z</time>
      </trkpt>
      <trkpt lat="48.82887" lon="7.28257">
        <ele>278.9</ele>
        <time>2026-03-12T10:46:00Z</time>
      </trkpt>
      <trkpt lat="48.82882" lon="7.28249">
        <ele>277.8</ele>
        <time>2026-03-12T10:46:05Z</time>
      </trkpt>
      <trkpt lat="48.82878" lon="7.28241">
        <ele>276</ele>
        <time>2026-03-12T10:46:10Z</time>
      </trkpt>
      <trkpt lat="48.82874" lon="7.28233">
        <ele>274.1</ele>
        <time>2026-03-12T10:46:15Z</time>
      </trkpt>
      <trkpt lat="48.82869" lon="7.28227">
        <ele>272.7</ele>
        <time>2026-03-12T10:46:20Z</time>
      </trkpt>
      <trkpt lat="48.82865" lon="7.2822">
        <ele>271</ele>
        <time>2026-03-12T10:46:25Z</time>
      </trkpt>
      <trkpt lat="48.82862" lon="7.28213">
        <ele>269.2</ele>
        <time>2026-03-12T10:46:30Z</time>
      </trkpt>
      <trkpt lat="48.82859" lon="7.28198">
        <ele>265.3</ele>
        <time>2026-03-12T10:46:35Z</time>
      </trkpt>
      <trkpt lat="48.82855" lon="7.28188">
        <ele>262.6</ele>
        <time>2026-03-12T10:46:40Z</time>
      </trkpt>
      <trkpt lat="48.82852" lon="7.28181">
        <ele>260.7</ele>
        <time>2026-03-12T10:46:45Z</time>
      </trkpt>
      <trkpt lat="48.82852" lon="7.28176">
        <ele>259.4</ele>
        <time>2026-03-12T10:46:50Z</time>
      </trkpt>
      <trkpt lat="48.82848" lon="7.2817">
        <ele>257.8</ele>
        <time>2026-03-12T10:46:55Z</time>
      </trkpt>
      <trkpt lat="48.82845" lon="7.28162">
        <ele>255.2</ele>
        <time>2026-03-12T10:47:00Z</time>
      </trkpt>
      <trkpt lat="48.82841" lon="7.28154">
        <ele>252.4</ele>
        <time>2026-03-12T10:47:05Z</time>
      </trkpt>
      <trkpt lat="48.82837" lon="7.28148">
        <ele>250.3</ele>
        <time>2026-03-12T10:47:10Z</time>
      </trkpt>
      <trkpt lat="48.82833" lon="7.28143">
        <ele>248.5</ele>
        <time>2026-03-12T10:47:15Z</time>
      </trkpt>
      <trkpt lat="48.82827" lon="7.2814">
        <ele>247.2</ele>
        <time>2026-03-12T10:47:20Z</time>
      </trkpt>
      <trkpt lat="48.82822" lon="7.28136">
        <ele>245.7</ele>
        <time>2026-03-12T10:47:25Z</time>
      </trkpt>
      <trkpt lat="48.82814" lon="7.28138">
        <ele>246.2</ele>
        <time>2026-03-12T10:47:30Z</time>
      </trkpt>
      <trkpt lat="48.82808" lon="7.28138">
        <ele>246.1</ele>
        <time>2026-03-12T10:47:35Z</time>
      </trkpt>
      <trkpt lat="48.82802" lon="7.28138">
        <ele>246</ele>
        <time>2026-03-12T10:47:40Z</time>
      </trkpt>
      <trkpt lat="48.82798" lon="7.28139">
        <ele>246.2</ele>
        <time>2026-03-12T10:47:45Z</time>
      </trkpt>
      <trkpt lat="48.82792" lon="7.28139">
        <ele>246</ele>
        <time>2026-03-12T10:47:50Z</time>
      </trkpt>
      <trkpt lat="48.82786" lon="7.28143">
        <ele>247.2</ele>
        <time>2026-03-12T10:47:55Z</time>
      </trkpt>
      <trkpt lat="48.82779" lon="7.28143">
        <ele>247</ele>
        <time>2026-03-12T10:48:00Z</time>
      </trkpt>
      <trkpt lat="48.82773" lon="7.28145">
        <ele>247.4</ele>
        <time>2026-03-12T10:48:05Z</time>
      </trkpt>
      <trkpt lat="48.82767" lon="7.28146">
        <ele>247.6</ele>
        <time>2026-03-12T10:48:10Z</time>
      </trkpt>
      <trkpt lat="48.82762" lon="7.28147">
        <ele>247.7</ele>
        <time>2026-03-12T10:48:15Z</time>
      </trkpt>
      <trkpt lat="48.82756" lon="7.28148">
        <ele>247.8</ele>
        <time>2026-03-12T10:48:20Z</time>
      </trkpt>
      <trkpt lat="48.82751" lon="7.28146">
        <ele>247.1</ele>
        <time>2026-03-12T10:48:25Z</time>
      </trkpt>
      <trkpt lat="48.82744" lon="7.28143">
        <ele>245.3</ele>
        <time>2026-03-12T10:48:30Z</time>
      </trkpt>
      <trkpt lat="48.82736" lon="7.28142">
        <ele>243.8</ele>
        <time>2026-03-12T10:48:35Z</time>
      </trkpt>
      <trkpt lat="48.82728" lon="7.28141">
        <ele>242.3</ele>
        <time>2026-03-12T10:48:40Z</time>
      </trkpt>
      <trkpt lat="48.82722" lon="7.28141">
        <ele>241.4</ele>
        <time>2026-03-12T10:48:45Z</time>
      </trkpt>
      <trkpt lat="48.82717" lon="7.2814">
        <ele>240.4</ele>
        <time>2026-03-12T10:48:50Z</time>
      </trkpt>
      <trkpt lat="48.82711" lon="7.28138">
        <ele>239</ele>
        <time>2026-03-12T10:48:55Z</time>
      </trkpt>
      <trkpt lat="48.82706" lon="7.28139">
        <ele>238.5</ele>
        <time>2026-03-12T10:49:00Z</time>
      </trkpt>
      <trkpt lat="48.82701" lon="7.28137">
        <ele>237.3</ele>
        <time>2026-03-12T10:49:05Z</time>
      </trkpt>
      <trkpt lat="48.82694" lon="7.2814">
        <ele>237</ele>
        <time>2026-03-12T10:49:10Z</time>
      </trkpt>
      <trkpt lat="48.82687" lon="7.28138">
        <ele>235.5</ele>
        <time>2026-03-12T10:49:15Z</time>
      </trkpt>
      <trkpt lat="48.82681" lon="7.28137">
        <ele>234.4</ele>
        <time>2026-03-12T10:49:20Z</time>
      </trkpt>
      <trkpt lat="48.82673" lon="7.28136">
        <ele>233</ele>
        <time>2026-03-12T10:49:25Z</time>
      </trkpt>
      <trkpt lat="48.82666" lon="7.28132">
        <ele>231.2</ele>
        <time>2026-03-12T10:49:30Z</time>
      </trkpt>
      <trkpt lat="48.82663" lon="7.28135">
        <ele>231.2</ele>
        <time>2026-03-12T10:49:35Z</time>
      </trkpt>
      <trkpt lat="48.82657" lon="7.28133">
        <ele>229.7</ele>
        <time>2026-03-12T10:49:40Z</time>
      </trkpt>
      <trkpt lat="48.82651" lon="7.28132">
        <ele>228.4</ele>
        <time>2026-03-12T10:49:45Z</time>
      </trkpt>
      <trkpt lat="48.82644" lon="7.28131">
        <ele>226.9</ele>
        <time>2026-03-12T10:49:50Z</time>
      </trkpt>
      <trkpt lat="48.82639" lon="7.28133">
        <ele>226.2</ele>
        <time>2026-03-12T10:49:55Z</time>
      </trkpt>
      <trkpt lat="48.82632" lon="7.28135">
        <ele>225.2</ele>
        <time>2026-03-12T10:50:00Z</time>
      </trkpt>
      <trkpt lat="48.82626" lon="7.28133">
        <ele>223.7</ele>
        <time>2026-03-12T10:50:05Z</time>
      </trkpt>
      <trkpt lat="48.8262" lon="7.2813">
        <ele>222.2</ele>
        <time>2026-03-12T10:50:10Z</time>
      </trkpt>
      <trkpt lat="48.82612" lon="7.28131">
        <ele>220.8</ele>
        <time>2026-03-12T10:50:15Z</time>
      </trkpt>
      <trkpt lat="48.82605" lon="7.28135">
        <ele>219.9</ele>
        <time>2026-03-12T10:50:20Z</time>
      </trkpt>
      <trkpt lat="48.82598" lon="7.28137">
        <ele>218.8</ele>
        <time>2026-03-12T10:50:25Z</time>
      </trkpt>
      <trkpt lat="48.82592" lon="7.28137">
        <ele>217.6</ele>
        <time>2026-03-12T10:50:30Z</time>
      </trkpt>
      <trkpt lat="48.82585" lon="7.2814">
        <ele>216.4</ele>
        <time>2026-03-12T10:50:35Z</time>
      </trkpt>
      <trkpt lat="48.82577" lon="7.28139">
        <ele>215.6</ele>
        <time>2026-03-12T10:50:40Z</time>
      </trkpt>
      <trkpt lat="48.82568" lon="7.28141">
        <ele>215.2</ele>
        <time>2026-03-12T10:50:45Z</time>
      </trkpt>
      <trkpt lat="48.82562" lon="7.28142">
        <ele>214.9</ele>
        <time>2026-03-12T10:50:50Z</time>
      </trkpt>
      <trkpt lat="48.82555" lon="7.28146">
        <ele>214.8</ele>
        <time>2026-03-12T10:50:55Z</time>
      </trkpt>
      <trkpt lat="48.82549" lon="7.28146">
        <ele>214.5</ele>
        <time>2026-03-12T10:51:00Z</time>
      </trkpt>
      <trkpt lat="48.82543" lon="7.28145">
        <ele>214</ele>
        <time>2026-03-12T10:51:05Z</time>
      </trkpt>
      <trkpt lat="48.8254" lon="7.28151">
        <ele>214.3</ele>
        <time>2026-03-12T10:51:10Z</time>
      </trkpt>
      <trkpt lat="48.82533" lon="7.28155">
        <ele>214.1</ele>
        <time>2026-03-12T10:51:15Z</time>
      </trkpt>
      <trkpt lat="48.82525" lon="7.28157">
        <ele>213.8</ele>
        <time>2026-03-12T10:51:20Z</time>
      </trkpt>
      <trkpt lat="48.8252" lon="7.2816">
        <ele>213.7</ele>
        <time>2026-03-12T10:51:25Z</time>
      </trkpt>
      <trkpt lat="48.82515" lon="7.28163">
        <ele>213.6</ele>
        <time>2026-03-12T10:51:30Z</time>
      </trkpt>
      <trkpt lat="48.8251" lon="7.28167">
        <ele>213.7</ele>
        <time>2026-03-12T10:51:35Z</time>
      </trkpt>
      <trkpt lat="48.82502" lon="7.28167">
        <ele>213.2</ele>
        <time>2026-03-12T10:51:40Z</time>
      </trkpt>
      <trkpt lat="48.82498" lon="7.28171">
        <ele>214.4</ele>
        <time>2026-03-12T10:51:45Z</time>
      </trkpt>
      <trkpt lat="48.82492" lon="7.2817">
        <ele>214.2</ele>
        <time>2026-03-12T10:51:50Z</time>
      </trkpt>
      <trkpt lat="48.82484" lon="7.28172">
        <ele>214.9</ele>
        <time>2026-03-12T10:51:55Z</time>
      </trkpt>
      <trkpt lat="48.82478" lon="7.28179">
        <ele>217.3</ele>
        <time>2026-03-12T10:52:00Z</time>
      </trkpt>
      <trkpt lat="48.82472" lon="7.28182">
        <ele>218.4</ele>
        <time>2026-03-12T10:52:05Z</time>
      </trkpt>
      <trkpt lat="48.82466" lon="7.28183">
        <ele>218.9</ele>
        <time>2026-03-12T10:52:10Z</time>
      </trkpt>
      <trkpt lat="48.8246" lon="7.28185">
        <ele>219.6</ele>
        <time>2026-03-12T10:52:15Z</time>
      </trkpt>
      <trkpt lat="48.82455" lon="7.28189">
        <ele>221.1</ele>
        <time>2026-03-12T10:52:20Z</time>
      </trkpt>
      <trkpt lat="48.82448" lon="7.28192">
        <ele>222.2</ele>
        <time>2026-03-12T10:52:25Z</time>
      </trkpt>
      <trkpt lat="48.8244" lon="7.28193">
        <ele>222.7</ele>
        <time>2026-03-12T10:52:30Z</time>
      </trkpt>
      <trkpt lat="48.82434" lon="7.28198">
        <ele>224.5</ele>
        <time>2026-03-12T10:52:35Z</time>
      </trkpt>
      <trkpt lat="48.82426" lon="7.28205">
        <ele>227.1</ele>
        <time>2026-03-12T10:52:40Z</time>
      </trkpt>
      <trkpt lat="48.8242" lon="7.28206">
        <ele>227.6</ele>
        <time>2026-03-12T10:52:45Z</time>
      </trkpt>
      <trkpt lat="48.82417" lon="7.28205">
        <ele>227.3</ele>
        <time>2026-03-12T10:52:50Z</time>
      </trkpt>
      <trkpt lat="48.82414" lon="7.28207">
        <ele>228.2</ele>
        <time>2026-03-12T10:52:55Z</time>
      </trkpt>
      <trkpt lat="48.82409" lon="7.28208">
        <ele>228.8</ele>
        <time>2026-03-12T10:53:00Z</time>
      </trkpt>
      <trkpt lat="48.82403" lon="7.2821">
        <ele>229.7</ele>
        <time>2026-03-12T10:53:05Z</time>
      </trkpt>
      <trkpt lat="48.82398" lon="7.2821">
        <ele>230</ele>
        <time>2026-03-12T10:53:10Z</time>
      </trkpt>
      <trkpt lat="48.82392" lon="7.28208">
        <ele>229.6</ele>
        <time>2026-03-12T10:53:15Z</time>
      </trkpt>
      <trkpt lat="48.82387" lon="7.2821">
        <ele>230.5</ele>
        <time>2026-03-12T10:53:20Z</time>
      </trkpt>
      <trkpt lat="48.82381" lon="7.2821">
        <ele>230.8</ele>
        <time>2026-03-12T10:53:25Z</time>
      </trkpt>
      <trkpt lat="48.82375" lon="7.28208">
        <ele>230.4</ele>
        <time>2026-03-12T10:53:30Z</time>
      </trkpt>
      <trkpt lat="48.82368" lon="7.28207">
        <ele>230.4</ele>
        <time>2026-03-12T10:53:35Z</time>
      </trkpt>
      <trkpt lat="48.8236" lon="7.28205">
        <ele>230.1</ele>
        <time>2026-03-12T10:53:40Z</time>
      </trkpt>
      <trkpt lat="48.82354" lon="7.28202">
        <ele>229.3</ele>
        <time>2026-03-12T10:53:45Z</time>
      </trkpt>
      <trkpt lat="48.82348" lon="7.282">
        <ele>228.9</ele>
        <time>2026-03-12T10:53:50Z</time>
      </trkpt>
      <trkpt lat="48.82342" lon="7.28199">
        <ele>228.8</ele>
        <time>2026-03-12T10:53:55Z</time>
      </trkpt>
      <trkpt lat="48.82336" lon="7.28198">
        <ele>228.8</ele>
        <time>2026-03-12T10:54:00Z</time>
      </trkpt>
      <trkpt lat="48.8233" lon="7.28194">
        <ele>227.1</ele>
        <time>2026-03-12T10:54:05Z</time>
      </trkpt>
      <trkpt lat="48.8232" lon="7.28183">
        <ele>221.9</ele>
        <time>2026-03-12T10:54:10Z</time>
      </trkpt>
      <trkpt lat="48.8231" lon="7.2818">
        <ele>219.5</ele>
        <time>2026-03-12T10:54:15Z</time>
      </trkpt>
      <trkpt lat="48.82302" lon="7.28178">
        <ele>217.6</ele>
        <time>2026-03-12T10:54:20Z</time>
      </trkpt>
      <trkpt lat="48.82295" lon="7.28178">
        <ele>216.7</ele>
        <time>2026-03-12T10:54:25Z</time>
      </trkpt>
      <trkpt lat="48.82288" lon="7.28179">
        <ele>216.1</ele>
        <time>2026-03-12T10:54:30Z</time>
      </trkpt>
      <trkpt lat="48.82281" lon="7.2818">
        <ele>215.5</ele>
        <time>2026-03-12T10:54:35Z</time>
      </trkpt>
      <trkpt lat="48.82274" lon="7.28185">
        <ele>216.5</ele>
        <time>2026-03-12T10:54:40Z</time>
      </trkpt>
      <trkpt lat="48.82268" lon="7.28185">
        <ele>215.7</ele>
        <time>2026-03-12T10:54:45Z</time>
      </trkpt>
      <trkpt lat="48.82262" lon="7.28183">
        <ele>214.1</ele>
        <time>2026-03-12T10:54:50Z</time>
      </trkpt>
      <trkpt lat="48.82256" lon="7.28183">
        <ele>213.3</ele>
        <time>2026-03-12T10:54:55Z</time>
      </trkpt>
      <trkpt lat="48.82249" lon="7.28184">
        <ele>212.8</ele>
        <time>2026-03-12T10:55:00Z</time>
      </trkpt>
      <trkpt lat="48.82242" lon="7.28184">
        <ele>212.6</ele>
        <time>2026-03-12T10:55:05Z</time>
      </trkpt>
      <trkpt lat="48.82234" lon="7.28185">
        <ele>212.7</ele>
        <time>2026-03-12T10:55:10Z</time>
      </trkpt>
      <trkpt lat="48.82228" lon="7.28185">
        <ele>212.4</ele>
        <time>2026-03-12T10:55:15Z</time>
      </trkpt>
      <trkpt lat="48.82223" lon="7.28182">
        <ele>211.1</ele>
        <time>2026-03-12T10:55:20Z</time>
      </trkpt>
      <trkpt lat="48.82216" lon="7.28183">
        <ele>211.3</ele>
        <time>2026-03-12T10:55:25Z</time>
      </trkpt>
      <trkpt lat="48.8221" lon="7.28184">
        <ele>211.4</ele>
        <time>2026-03-12T10:55:30Z</time>
      </trkpt>
      <trkpt lat="48.82208" lon="7.28183">
        <ele>211</ele>
        <time>2026-03-12T10:55:35Z</time>
      </trkpt>
      <trkpt lat="48.82208" lon="7.28184">
        <ele>211.3</ele>
        <time>2026-03-12T10:55:40Z</time>
      </trkpt>
      <trkpt lat="48.82208" lon="7.28184">
        <ele>211.3</ele>
        <time>2026-03-12T10:55:45Z</time>
      </trkpt>
      <trkpt lat="48.82208" lon="7.28184">
        <ele>211.3</ele>
        <time>2026-03-12T10:55:50Z</time>
      </trkpt>
      <trkpt lat="48.82203" lon="7.28183">
        <ele>210.8</ele>
        <time>2026-03-12T10:55:55Z</time>
      </trkpt>
      <trkpt lat="48.82196" lon="7.28186">
        <ele>211.6</ele>
        <time>2026-03-12T10:56:00Z</time>
      </trkpt>
      <trkpt lat="48.8219" lon="7.28188">
        <ele>212.1</ele>
        <time>2026-03-12T10:56:05Z</time>
      </trkpt>
      <trkpt lat="48.82186" lon="7.28189">
        <ele>212.3</ele>
        <time>2026-03-12T10:56:10Z</time>
      </trkpt>
      <trkpt lat="48.82177" lon="7.28189">
        <ele>211.9</ele>
        <time>2026-03-12T10:56:15Z</time>
      </trkpt>
      <trkpt lat="48.8217" lon="7.28192">
        <ele>212.7</ele>
        <time>2026-03-12T10:56:20Z</time>
      </trkpt>
      <trkpt lat="48.82164" lon="7.28193">
        <ele>212.8</ele>
        <time>2026-03-12T10:56:25Z</time>
      </trkpt>
      <trkpt lat="48.82156" lon="7.28194">
        <ele>213.2</ele>
        <time>2026-03-12T10:56:30Z</time>
      </trkpt>
      <trkpt lat="48.82149" lon="7.28195">
        <ele>213.5</ele>
        <time>2026-03-12T10:56:35Z</time>
      </trkpt>
      <trkpt lat="48.82142" lon="7.28197">
        <ele>214.2</ele>
        <time>2026-03-12T10:56:40Z</time>
      </trkpt>
      <trkpt lat="48.82136" lon="7.28197">
        <ele>214.2</ele>
        <time>2026-03-12T10:56:45Z</time>
      </trkpt>
      <trkpt lat="48.82131" lon="7.28194">
        <ele>213.2</ele>
        <time>2026-03-12T10:56:50Z</time>
      </trkpt>
      <trkpt lat="48.82132" lon="7.28183">
        <ele>209.7</ele>
        <time>2026-03-12T10:56:55Z</time>
      </trkpt>
      <trkpt lat="48.82136" lon="7.28177">
        <ele>207.7</ele>
        <time>2026-03-12T10:57:00Z</time>
      </trkpt>
      <trkpt lat="48.82141" lon="7.28165">
        <ele>204.5</ele>
        <time>2026-03-12T10:57:05Z</time>
      </trkpt>
      <trkpt lat="48.82142" lon="7.28155">
        <ele>205.4</ele>
        <time>2026-03-12T10:57:10Z</time>
      </trkpt>
      <trkpt lat="48.82141" lon="7.28148">
        <ele>206.1</ele>
        <time>2026-03-12T10:57:15Z</time>
      </trkpt>
      <trkpt lat="48.8214" lon="7.28137">
        <ele>207.1</ele>
        <time>2026-03-12T10:57:20Z</time>
      </trkpt>
      <trkpt lat="48.82141" lon="7.28125">
        <ele>208.2</ele>
        <time>2026-03-12T10:57:25Z</time>
      </trkpt>
      <trkpt lat="48.82141" lon="7.28111">
        <ele>209.5</ele>
        <time>2026-03-12T10:57:30Z</time>
      </trkpt>
      <trkpt lat="48.8214" lon="7.28099">
        <ele>210.6</ele>
        <time>2026-03-12T10:57:35Z</time>
      </trkpt>
      <trkpt lat="48.82139" lon="7.28091">
        <ele>211.3</ele>
        <time>2026-03-12T10:57:40Z</time>
      </trkpt>
      <trkpt lat="48.8214" lon="7.28084">
        <ele>212</ele>
        <time>2026-03-12T10:57:45Z</time>
      </trkpt>
      <trkpt lat="48.82141" lon="7.28074">
        <ele>214.9</ele>
        <time>2026-03-12T10:57:50Z</time>
      </trkpt>
      <trkpt lat="48.82143" lon="7.28067">
        <ele>217.2</ele>
        <time>2026-03-12T10:57:55Z</time>
      </trkpt>
      <trkpt lat="48.82133" lon="7.28048">
        <ele>221.4</ele>
        <time>2026-03-12T10:58:00Z</time>
      </trkpt>
      <trkpt lat="48.82123" lon="7.28042">
        <ele>221.3</ele>
        <time>2026-03-12T10:58:05Z</time>
      </trkpt>
      <trkpt lat="48.82117" lon="7.28045">
        <ele>219.6</ele>
        <time>2026-03-12T10:58:10Z</time>
      </trkpt>
      <trkpt lat="48.8211" lon="7.28048">
        <ele>217.7</ele>
        <time>2026-03-12T10:58:15Z</time>
      </trkpt>
      <trkpt lat="48.82103" lon="7.2805">
        <ele>216.2</ele>
        <time>2026-03-12T10:58:20Z</time>
      </trkpt>
      <trkpt lat="48.82097" lon="7.28052">
        <ele>214.9</ele>
        <time>2026-03-12T10:58:25Z</time>
      </trkpt>
      <trkpt lat="48.82089" lon="7.28057">
        <ele>212.9</ele>
        <time>2026-03-12T10:58:30Z</time>
      </trkpt>
      <trkpt lat="48.82083" lon="7.28061">
        <ele>211.4</ele>
        <time>2026-03-12T10:58:35Z</time>
      </trkpt>
      <trkpt lat="48.82078" lon="7.28064">
        <ele>210.4</ele>
        <time>2026-03-12T10:58:40Z</time>
      </trkpt>
      <trkpt lat="48.82072" lon="7.28066">
        <ele>209.5</ele>
        <time>2026-03-12T10:58:45Z</time>
      </trkpt>
      <trkpt lat="48.82065" lon="7.28064">
        <ele>209</ele>
        <time>2026-03-12T10:58:50Z</time>
      </trkpt>
      <trkpt lat="48.8206" lon="7.28065">
        <ele>208.3</ele>
        <time>2026-03-12T10:58:55Z</time>
      </trkpt>
      <trkpt lat="48.82054" lon="7.28065">
        <ele>207.7</ele>
        <time>2026-03-12T10:59:00Z</time>
      </trkpt>
      <trkpt lat="48.82047" lon="7.28067">
        <ele>206.7</ele>
        <time>2026-03-12T10:59:05Z</time>
      </trkpt>
      <trkpt lat="48.82041" lon="7.28066">
        <ele>206.2</ele>
        <time>2026-03-12T10:59:10Z</time>
      </trkpt>
      <trkpt lat="48.82037" lon="7.28065">
        <ele>205.9</ele>
        <time>2026-03-12T10:59:15Z</time>
      </trkpt>
      <trkpt lat="48.8203" lon="7.28067">
        <ele>204.9</ele>
        <time>2026-03-12T10:59:20Z</time>
      </trkpt>
      <trkpt lat="48.82024" lon="7.28072">
        <ele>203.9</ele>
        <time>2026-03-12T10:59:25Z</time>
      </trkpt>
      <trkpt lat="48.82017" lon="7.28069">
        <ele>203.4</ele>
        <time>2026-03-12T10:59:30Z</time>
      </trkpt>
      <trkpt lat="48.82012" lon="7.28068">
        <ele>203</ele>
        <time>2026-03-12T10:59:35Z</time>
      </trkpt>
      <trkpt lat="48.82005" lon="7.28067">
        <ele>202.3</ele>
        <time>2026-03-12T10:59:40Z</time>
      </trkpt>
      <trkpt lat="48.81999" lon="7.28069">
        <ele>201.8</ele>
        <time>2026-03-12T10:59:45Z</time>
      </trkpt>
      <trkpt lat="48.81995" lon="7.28068">
        <ele>202.2</ele>
        <time>2026-03-12T10:59:50Z</time>
      </trkpt>
      <trkpt lat="48.81995" lon="7.28066">
        <ele>202.3</ele>
        <time>2026-03-12T10:59:55Z</time>
      </trkpt>
      <trkpt lat="48.81995" lon="7.28064">
        <ele>202.4</ele>
        <time>2026-03-12T11:00:00Z</time>
      </trkpt>
      <trkpt lat="48.81995" lon="7.28064">
        <ele>202.4</ele>
        <time>2026-03-12T11:00:05Z</time>
      </trkpt>
      <trkpt lat="48.81993" lon="7.2805">
        <ele>203.4</ele>
        <time>2026-03-12T11:00:10Z</time>
      </trkpt>
      <trkpt lat="48.81995" lon="7.28045">
        <ele>203.5</ele>
        <time>2026-03-12T11:00:15Z</time>
      </trkpt>
      <trkpt lat="48.81995" lon="7.28045">
        <ele>203.5</ele>
        <time>2026-03-12T11:00:20Z</time>
      </trkpt>
      <trkpt lat="48.81995" lon="7.28045">
        <ele>203.5</ele>
        <time>2026-03-12T11:00:25Z</time>
      </trkpt>
      <trkpt lat="48.81995" lon="7.28045">
        <ele>203.5</ele>
        <time>2026-03-12T11:00:30Z</time>
      </trkpt>
      <trkpt lat="48.81995" lon="7.28045">
        <ele>203.5</ele>
        <time>2026-03-12T11:00:35Z</time>
      </trkpt>
      <trkpt lat="48.81995" lon="7.28045">
        <ele>203.5</ele>
        <time>2026-03-12T11:00:40Z</time>
      </trkpt>
      <trkpt lat="48.81995" lon="7.28045">
        <ele>203.5</ele>
        <time>2026-03-12T11:00:45Z</time>
      </trkpt>
      <trkpt lat="48.81995" lon="7.28045">
        <ele>203.5</ele>
        <time>2026-03-12T11:00:50Z</time>
      </trkpt>
      <trkpt lat="48.81995" lon="7.28045">
        <ele>203.5</ele>
        <time>2026-03-12T11:00:55Z</time>
      </trkpt>
      <trkpt lat="48.81995" lon="7.28045">
        <ele>203.5</ele>
        <time>2026-03-12T11:01:00Z</time>
      </trkpt>
      <trkpt lat="48.81995" lon="7.28045">
        <ele>203.5</ele>
        <time>2026-03-12T11:01:05Z</time>
      </trkpt>
      <trkpt lat="48.81995" lon="7.28045">
        <ele>203.5</ele>
        <time>2026-03-12T11:01:10Z</time>
      </trkpt>
      <trkpt lat="48.81995" lon="7.28045">
        <ele>203.5</ele>
        <time>2026-03-12T11:01:15Z</time>
      </trkpt>
      <trkpt lat="48.81995" lon="7.28045">
        <ele>203.5</ele>
        <time>2026-03-12T11:01:20Z</time>
      </trkpt>
      <trkpt lat="48.81995" lon="7.28045">
        <ele>203.5</ele>
        <time>2026-03-12T11:01:25Z</time>
      </trkpt>
      <trkpt lat="48.81995" lon="7.28045">
        <ele>203.5</ele>
        <time>2026-03-12T11:01:30Z</time>
      </trkpt>
      <trkpt lat="48.81995" lon="7.28045">
        <ele>203.5</ele>
        <time>2026-03-12T11:01:35Z</time>
      </trkpt>
      <trkpt lat="48.81995" lon="7.28045">
        <ele>203.5</ele>
        <time>2026-03-12T11:01:40Z</time>
      </trkpt>
      <trkpt lat="48.81995" lon="7.28045">
        <ele>203.5</ele>
        <time>2026-03-12T11:01:45Z</time>
      </trkpt>
      <trkpt lat="48.81989" lon="7.28048">
        <ele>204</ele>
        <time>2026-03-12T11:01:50Z</time>
      </trkpt>
      <trkpt lat="48.81986" lon="7.28049">
        <ele>204.3</ele>
        <time>2026-03-12T11:01:55Z</time>
      </trkpt>
      <trkpt lat="48.81981" lon="7.28049">
        <ele>204.9</ele>
        <time>2026-03-12T11:02:00Z</time>
      </trkpt>
      <trkpt lat="48.81977" lon="7.28049">
        <ele>205.4</ele>
        <time>2026-03-12T11:02:05Z</time>
      </trkpt>
      <trkpt lat="48.81977" lon="7.28049">
        <ele>205.4</ele>
        <time>2026-03-12T11:02:10Z</time>
      </trkpt>
      <trkpt lat="48.81977" lon="7.28049">
        <ele>205.4</ele>
        <time>2026-03-12T11:02:15Z</time>
      </trkpt>
      <trkpt lat="48.81977" lon="7.28049">
        <ele>205.4</ele>
        <time>2026-03-12T11:02:20Z</time>
      </trkpt>
      <trkpt lat="48.81977" lon="7.28049">
        <ele>205.4</ele>
        <time>2026-03-12T11:02:25Z</time>
      </trkpt>
      <trkpt lat="48.81977" lon="7.28049">
        <ele>205.4</ele>
        <time>2026-03-12T11:02:30Z</time>
      </trkpt>
      <trkpt lat="48.81977" lon="7.28049">
        <ele>205.4</ele>
        <time>2026-03-12T11:02:35Z</time>
      </trkpt>
      <trkpt lat="48.81977" lon="7.28049">
        <ele>205.4</ele>
        <time>2026-03-12T11:02:40Z</time>
      </trkpt>
      <trkpt lat="48.81977" lon="7.28049">
        <ele>205.4</ele>
        <time>2026-03-12T11:02:45Z</time>
      </trkpt>
      <trkpt lat="48.81977" lon="7.28049">
        <ele>205.4</ele>
        <time>2026-03-12T11:02:50Z</time>
      </trkpt>
      <trkpt lat="48.81977" lon="7.28049">
        <ele>205.4</ele>
        <time>2026-03-12T11:02:55Z</time>
      </trkpt>
      <trkpt lat="48.81977" lon="7.28049">
        <ele>205.4</ele>
        <time>2026-03-12T11:03:00Z</time>
      </trkpt>
      <trkpt lat="48.81977" lon="7.28049">
        <ele>205.4</ele>
        <time>2026-03-12T11:03:05Z</time>
      </trkpt>
      <trkpt lat="48.81977" lon="7.28049">
        <ele>205.4</ele>
        <time>2026-03-12T11:03:10Z</time>
      </trkpt>
      <trkpt lat="48.81976" lon="7.28045">
        <ele>205.9</ele>
        <time>2026-03-12T11:03:15Z</time>
      </trkpt>
      <trkpt lat="48.8197" lon="7.28043">
        <ele>206.8</ele>
        <time>2026-03-12T11:03:20Z</time>
      </trkpt>
      <trkpt lat="48.81968" lon="7.28039">
        <ele>207.5</ele>
        <time>2026-03-12T11:03:25Z</time>
      </trkpt>
      <trkpt lat="48.81965" lon="7.28035">
        <ele>208.3</ele>
        <time>2026-03-12T11:03:30Z</time>
      </trkpt>
      <trkpt lat="48.81959" lon="7.28029">
        <ele>209.9</ele>
        <time>2026-03-12T11:03:35Z</time>
      </trkpt>
      <trkpt lat="48.81952" lon="7.28034">
        <ele>210.3</ele>
        <time>2026-03-12T11:03:40Z</time>
      </trkpt>
      <trkpt lat="48.81946" lon="7.28045">
        <ele>209.7</ele>
        <time>2026-03-12T11:03:45Z</time>
      </trkpt>
      <trkpt lat="48.81945" lon="7.28054">
        <ele>208.5</ele>
        <time>2026-03-12T11:03:50Z</time>
      </trkpt>
      <trkpt lat="48.81944" lon="7.28063">
        <ele>207.3</ele>
        <time>2026-03-12T11:03:55Z</time>
      </trkpt>
      <trkpt lat="48.81944" lon="7.2807">
        <ele>206.3</ele>
        <time>2026-03-12T11:04:00Z</time>
      </trkpt>
      <trkpt lat="48.81944" lon="7.2808">
        <ele>204.8</ele>
        <time>2026-03-12T11:04:05Z</time>
      </trkpt>
      <trkpt lat="48.81947" lon="7.2809">
        <ele>204.1</ele>
        <time>2026-03-12T11:04:10Z</time>
      </trkpt>
      <trkpt lat="48.81947" lon="7.2809">
        <ele>204.1</ele>
        <time>2026-03-12T11:04:15Z</time>
      </trkpt>
      <trkpt lat="48.81947" lon="7.2809">
        <ele>204.1</ele>
        <time>2026-03-12T11:04:20Z</time>
      </trkpt>
      <trkpt lat="48.81947" lon="7.2809">
        <ele>204.1</ele>
        <time>2026-03-12T11:04:25Z</time>
      </trkpt>
      <trkpt lat="48.81947" lon="7.2809">
        <ele>204.1</ele>
        <time>2026-03-12T11:04:30Z</time>
      </trkpt>
      <trkpt lat="48.81947" lon="7.2809">
        <ele>204.1</ele>
        <time>2026-03-12T11:04:35Z</time>
      </trkpt>
      <trkpt lat="48.81947" lon="7.2809">
        <ele>204.1</ele>
        <time>2026-03-12T11:04:40Z</time>
      </trkpt>
      <trkpt lat="48.81947" lon="7.2809">
        <ele>204.1</ele>
        <time>2026-03-12T11:04:45Z</time>
      </trkpt>
      <trkpt lat="48.81937" lon="7.28096">
        <ele>204.5</ele>
        <time>2026-03-12T11:04:50Z</time>
      </trkpt>
      <trkpt lat="48.81933" lon="7.28102">
        <ele>204.6</ele>
        <time>2026-03-12T11:04:55Z</time>
      </trkpt>
      <trkpt lat="48.81928" lon="7.28104">
        <ele>204.8</ele>
        <time>2026-03-12T11:05:00Z</time>
      </trkpt>
      <trkpt lat="48.81925" lon="7.28104">
        <ele>204.9</ele>
        <time>2026-03-12T11:05:05Z</time>
      </trkpt>
      <trkpt lat="48.81925" lon="7.28104">
        <ele>204.9</ele>
        <time>2026-03-12T11:05:10Z</time>
      </trkpt>
      <trkpt lat="48.81925" lon="7.28104">
        <ele>204.9</ele>
        <time>2026-03-12T11:05:15Z</time>
      </trkpt>
      <trkpt lat="48.81925" lon="7.28104">
        <ele>204.9</ele>
        <time>2026-03-12T11:05:20Z</time>
      </trkpt>
      <trkpt lat="48.81925" lon="7.28104">
        <ele>204.9</ele>
        <time>2026-03-12T11:05:25Z</time>
      </trkpt>
      <trkpt lat="48.81925" lon="7.28104">
        <ele>204.9</ele>
        <time>2026-03-12T11:05:30Z</time>
      </trkpt>
      <trkpt lat="48.81925" lon="7.28104">
        <ele>204.9</ele>
        <time>2026-03-12T11:05:35Z</time>
      </trkpt>
      <trkpt lat="48.81925" lon="7.28104">
        <ele>204.9</ele>
        <time>2026-03-12T11:05:40Z</time>
      </trkpt>
      <trkpt lat="48.81925" lon="7.28104">
        <ele>204.9</ele>
        <time>2026-03-12T11:05:45Z</time>
      </trkpt>
      <trkpt lat="48.81924" lon="7.28124">
        <ele>204.4</ele>
        <time>2026-03-12T11:05:50Z</time>
      </trkpt>
      <trkpt lat="48.81924" lon="7.28137">
        <ele>204</ele>
        <time>2026-03-12T11:05:55Z</time>
      </trkpt>
      <trkpt lat="48.81922" lon="7.28147">
        <ele>203.7</ele>
        <time>2026-03-12T11:06:00Z</time>
      </trkpt>
      <trkpt lat="48.81921" lon="7.28153">
        <ele>203.5</ele>
        <time>2026-03-12T11:06:05Z</time>
      </trkpt>
      <trkpt lat="48.81921" lon="7.28157">
        <ele>203.4</ele>
        <time>2026-03-12T11:06:10Z</time>
      </trkpt>
      <trkpt lat="48.81917" lon="7.28166">
        <ele>203</ele>
        <time>2026-03-12T11:06:15Z</time>
      </trkpt>
      <trkpt lat="48.81912" lon="7.28172">
        <ele>203.9</ele>
        <time>2026-03-12T11:06:20Z</time>
      </trkpt>
      <trkpt lat="48.81907" lon="7.28174">
        <ele>204.3</ele>
        <time>2026-03-12T11:06:25Z</time>
      </trkpt>
      <trkpt lat="48.81901" lon="7.28179">
        <ele>204.9</ele>
        <time>2026-03-12T11:06:30Z</time>
      </trkpt>
      <trkpt lat="48.81894" lon="7.2818">
        <ele>205</ele>
        <time>2026-03-12T11:06:35Z</time>
      </trkpt>
      <trkpt lat="48.81887" lon="7.28178">
        <ele>204.7</ele>
        <time>2026-03-12T11:06:40Z</time>
      </trkpt>
      <trkpt lat="48.81884" lon="7.28181">
        <ele>204.9</ele>
        <time>2026-03-12T11:06:45Z</time>
      </trkpt>
      <trkpt lat="48.81883" lon="7.28185">
        <ele>205.2</ele>
        <time>2026-03-12T11:06:50Z</time>
      </trkpt>
      <trkpt lat="48.81883" lon="7.28185">
        <ele>205.2</ele>
        <time>2026-03-12T11:06:55Z</time>
      </trkpt>
      <trkpt lat="48.81883" lon="7.28185">
        <ele>205.2</ele>
        <time>2026-03-12T11:07:00Z</time>
      </trkpt>
      <trkpt lat="48.81883" lon="7.28185">
        <ele>205.2</ele>
        <time>2026-03-12T11:07:05Z</time>
      </trkpt>
      <trkpt lat="48.81877" lon="7.28181">
        <ele>204.8</ele>
        <time>2026-03-12T11:07:10Z</time>
      </trkpt>
      <trkpt lat="48.81871" lon="7.28181">
        <ele>204.7</ele>
        <time>2026-03-12T11:07:15Z</time>
      </trkpt>
      <trkpt lat="48.81865" lon="7.28182">
        <ele>204.6</ele>
        <time>2026-03-12T11:07:20Z</time>
      </trkpt>
      <trkpt lat="48.81858" lon="7.28184">
        <ele>204.5</ele>
        <time>2026-03-12T11:07:25Z</time>
      </trkpt>
      <trkpt lat="48.81852" lon="7.28184">
        <ele>204.4</ele>
        <time>2026-03-12T11:07:30Z</time>
      </trkpt>
      <trkpt lat="48.81846" lon="7.28185">
        <ele>204.2</ele>
        <time>2026-03-12T11:07:35Z</time>
      </trkpt>
      <trkpt lat="48.8184" lon="7.28191">
        <ele>203.8</ele>
        <time>2026-03-12T11:07:40Z</time>
      </trkpt>
      <trkpt lat="48.81836" lon="7.28196">
        <ele>203.4</ele>
        <time>2026-03-12T11:07:45Z</time>
      </trkpt>
      <trkpt lat="48.81836" lon="7.28199">
        <ele>203.2</ele>
        <time>2026-03-12T11:07:50Z</time>
      </trkpt>
      <trkpt lat="48.81835" lon="7.28199">
        <ele>203.2</ele>
        <time>2026-03-12T11:07:55Z</time>
      </trkpt>
      <trkpt lat="48.81835" lon="7.28199">
        <ele>203.2</ele>
        <time>2026-03-12T11:08:00Z</time>
      </trkpt>
      <trkpt lat="48.81832" lon="7.28197">
        <ele>203.3</ele>
        <time>2026-03-12T11:08:05Z</time>
      </trkpt>
      <trkpt lat="48.81827" lon="7.28201">
        <ele>203.7</ele>
        <time>2026-03-12T11:08:10Z</time>
      </trkpt>
      <trkpt lat="48.81822" lon="7.28207">
        <ele>203.8</ele>
        <time>2026-03-12T11:08:15Z</time>
      </trkpt>
      <trkpt lat="48.81816" lon="7.28213">
        <ele>204</ele>
        <time>2026-03-12T11:08:20Z</time>
      </trkpt>
      <trkpt lat="48.81809" lon="7.28217">
        <ele>204.4</ele>
        <time>2026-03-12T11:08:25Z</time>
      </trkpt>
      <trkpt lat="48.81804" lon="7.28219">
        <ele>204.7</ele>
        <time>2026-03-12T11:08:30Z</time>
      </trkpt>
      <trkpt lat="48.818" lon="7.28224">
        <ele>204.6</ele>
        <time>2026-03-12T11:08:35Z</time>
      </trkpt>
      <trkpt lat="48.818" lon="7.28233">
        <ele>203.7</ele>
        <time>2026-03-12T11:08:40Z</time>
      </trkpt>
      <trkpt lat="48.818" lon="7.2824">
        <ele>203</ele>
        <time>2026-03-12T11:08:45Z</time>
      </trkpt>
      <trkpt lat="48.81791" lon="7.2824">
        <ele>203.6</ele>
        <time>2026-03-12T11:08:50Z</time>
      </trkpt>
      <trkpt lat="48.81787" lon="7.2824">
        <ele>203.9</ele>
        <time>2026-03-12T11:08:55Z</time>
      </trkpt>
      <trkpt lat="48.81786" lon="7.28242">
        <ele>203.8</ele>
        <time>2026-03-12T11:09:00Z</time>
      </trkpt>
      <trkpt lat="48.81786" lon="7.28243">
        <ele>203.6</ele>
        <time>2026-03-12T11:09:05Z</time>
      </trkpt>
      <trkpt lat="48.81786" lon="7.28243">
        <ele>203.6</ele>
        <time>2026-03-12T11:09:10Z</time>
      </trkpt>
      <trkpt lat="48.81786" lon="7.28243">
        <ele>203.6</ele>
        <time>2026-03-12T11:09:15Z</time>
      </trkpt>
      <trkpt lat="48.8178" lon="7.28247">
        <ele>203.6</ele>
        <time>2026-03-12T11:09:20Z</time>
      </trkpt>
      <trkpt lat="48.81774" lon="7.2825">
        <ele>203.6</ele>
        <time>2026-03-12T11:09:25Z</time>
      </trkpt>
      <trkpt lat="48.81769" lon="7.28251">
        <ele>203.8</ele>
        <time>2026-03-12T11:09:30Z</time>
      </trkpt>
      <trkpt lat="48.81764" lon="7.28255">
        <ele>203.9</ele>
        <time>2026-03-12T11:09:35Z</time>
      </trkpt>
      <trkpt lat="48.81759" lon="7.28261">
        <ele>203.8</ele>
        <time>2026-03-12T11:09:40Z</time>
      </trkpt>
      <trkpt lat="48.81755" lon="7.28266">
        <ele>203.7</ele>
        <time>2026-03-12T11:09:45Z</time>
      </trkpt>
      <trkpt lat="48.81751" lon="7.28272">
        <ele>203.4</ele>
        <time>2026-03-12T11:09:50Z</time>
      </trkpt>
      <trkpt lat="48.81747" lon="7.28277">
        <ele>204</ele>
        <time>2026-03-12T11:09:55Z</time>
      </trkpt>
      <trkpt lat="48.8174" lon="7.28285">
        <ele>205.4</ele>
        <time>2026-03-12T11:10:00Z</time>
      </trkpt>
      <trkpt lat="48.81734" lon="7.28292">
        <ele>206.5</ele>
        <time>2026-03-12T11:10:05Z</time>
      </trkpt>
      <trkpt lat="48.81731" lon="7.283">
        <ele>206.4</ele>
        <time>2026-03-12T11:10:10Z</time>
      </trkpt>
      <trkpt lat="48.81725" lon="7.28309">
        <ele>206.9</ele>
        <time>2026-03-12T11:10:15Z</time>
      </trkpt>
      <trkpt lat="48.81721" lon="7.28315">
        <ele>207</ele>
        <time>2026-03-12T11:10:20Z</time>
      </trkpt>
      <trkpt lat="48.81717" lon="7.2832">
        <ele>207.2</ele>
        <time>2026-03-12T11:10:25Z</time>
      </trkpt>
      <trkpt lat="48.81711" lon="7.28328">
        <ele>207.3</ele>
        <time>2026-03-12T11:10:30Z</time>
      </trkpt>
      <trkpt lat="48.81708" lon="7.28334">
        <ele>207.1</ele>
        <time>2026-03-12T11:10:35Z</time>
      </trkpt>
      <trkpt lat="48.81703" lon="7.28341">
        <ele>207.8</ele>
        <time>2026-03-12T11:10:40Z</time>
      </trkpt>
      <trkpt lat="48.81699" lon="7.28349">
        <ele>208.2</ele>
        <time>2026-03-12T11:10:45Z</time>
      </trkpt>
      <trkpt lat="48.81694" lon="7.28356">
        <ele>208.6</ele>
        <time>2026-03-12T11:10:50Z</time>
      </trkpt>
      <trkpt lat="48.81688" lon="7.28362">
        <ele>209.1</ele>
        <time>2026-03-12T11:10:55Z</time>
      </trkpt>
      <trkpt lat="48.81684" lon="7.28369">
        <ele>209.2</ele>
        <time>2026-03-12T11:11:00Z</time>
      </trkpt>
      <trkpt lat="48.81677" lon="7.28379">
        <ele>209.1</ele>
        <time>2026-03-12T11:11:05Z</time>
      </trkpt>
      <trkpt lat="48.81673" lon="7.28388">
        <ele>208.6</ele>
        <time>2026-03-12T11:11:10Z</time>
      </trkpt>
      <trkpt lat="48.8167" lon="7.28395">
        <ele>208.1</ele>
        <time>2026-03-12T11:11:15Z</time>
      </trkpt>
      <trkpt lat="48.81666" lon="7.28402">
        <ele>207.9</ele>
        <time>2026-03-12T11:11:20Z</time>
      </trkpt>
      <trkpt lat="48.81663" lon="7.28412">
        <ele>208.4</ele>
        <time>2026-03-12T11:11:25Z</time>
      </trkpt>
      <trkpt lat="48.8166" lon="7.28421">
        <ele>209.2</ele>
        <time>2026-03-12T11:11:30Z</time>
      </trkpt>
      <trkpt lat="48.81659" lon="7.28433">
        <ele>209</ele>
        <time>2026-03-12T11:11:35Z</time>
      </trkpt>
      <trkpt lat="48.81654" lon="7.28443">
        <ele>210.7</ele>
        <time>2026-03-12T11:11:40Z</time>
      </trkpt>
      <trkpt lat="48.81653" lon="7.28452">
        <ele>210.5</ele>
        <time>2026-03-12T11:11:45Z</time>
      </trkpt>
      <trkpt lat="48.8165" lon="7.28461">
        <ele>211.1</ele>
        <time>2026-03-12T11:11:50Z</time>
      </trkpt>
      <trkpt lat="48.81643" lon="7.28468">
        <ele>213.4</ele>
        <time>2026-03-12T11:11:55Z</time>
      </trkpt>
      <trkpt lat="48.81635" lon="7.2847">
        <ele>216.5</ele>
        <time>2026-03-12T11:12:00Z</time>
      </trkpt>
      <trkpt lat="48.81626" lon="7.28468">
        <ele>220.5</ele>
        <time>2026-03-12T11:12:05Z</time>
      </trkpt>
      <trkpt lat="48.8162" lon="7.28463">
        <ele>223.7</ele>
        <time>2026-03-12T11:12:10Z</time>
      </trkpt>
      <trkpt lat="48.81614" lon="7.28458">
        <ele>227.1</ele>
        <time>2026-03-12T11:12:15Z</time>
      </trkpt>
      <trkpt lat="48.81607" lon="7.28455">
        <ele>230.7</ele>
        <time>2026-03-12T11:12:20Z</time>
      </trkpt>
      <trkpt lat="48.81601" lon="7.2845">
        <ele>234.3</ele>
        <time>2026-03-12T11:12:25Z</time>
      </trkpt>
      <trkpt lat="48.81594" lon="7.28444">
        <ele>238.8</ele>
        <time>2026-03-12T11:12:30Z</time>
      </trkpt>
      <trkpt lat="48.81588" lon="7.28441">
        <ele>242.2</ele>
        <time>2026-03-12T11:12:35Z</time>
      </trkpt>
      <trkpt lat="48.81581" lon="7.28436">
        <ele>246.6</ele>
        <time>2026-03-12T11:12:40Z</time>
      </trkpt>
      <trkpt lat="48.81573" lon="7.28433">
        <ele>250.7</ele>
        <time>2026-03-12T11:12:45Z</time>
      </trkpt>
      <trkpt lat="48.81568" lon="7.28429">
        <ele>253.7</ele>
        <time>2026-03-12T11:12:50Z</time>
      </trkpt>
      <trkpt lat="48.81563" lon="7.28423">
        <ele>257.1</ele>
        <time>2026-03-12T11:12:55Z</time>
      </trkpt>
      <trkpt lat="48.81558" lon="7.28419">
        <ele>260.1</ele>
        <time>2026-03-12T11:13:00Z</time>
      </trkpt>
      <trkpt lat="48.81553" lon="7.28416">
        <ele>262.8</ele>
        <time>2026-03-12T11:13:05Z</time>
      </trkpt>
      <trkpt lat="48.81549" lon="7.28408">
        <ele>265.5</ele>
        <time>2026-03-12T11:13:10Z</time>
      </trkpt>
      <trkpt lat="48.81545" lon="7.28402">
        <ele>267.9</ele>
        <time>2026-03-12T11:13:15Z</time>
      </trkpt>
      <trkpt lat="48.8154" lon="7.28396">
        <ele>270.7</ele>
        <time>2026-03-12T11:13:20Z</time>
      </trkpt>
      <trkpt lat="48.81532" lon="7.28387">
        <ele>275</ele>
        <time>2026-03-12T11:13:25Z</time>
      </trkpt>
      <trkpt lat="48.81531" lon="7.28389">
        <ele>275.2</ele>
        <time>2026-03-12T11:13:30Z</time>
      </trkpt>
      <trkpt lat="48.81533" lon="7.28402">
        <ele>272.9</ele>
        <time>2026-03-12T11:13:35Z</time>
      </trkpt>
      <trkpt lat="48.81535" lon="7.28416">
        <ele>270.4</ele>
        <time>2026-03-12T11:13:40Z</time>
      </trkpt>
      <trkpt lat="48.81534" lon="7.28428">
        <ele>268.3</ele>
        <time>2026-03-12T11:13:45Z</time>
      </trkpt>
      <trkpt lat="48.81532" lon="7.28436">
        <ele>267.4</ele>
        <time>2026-03-12T11:13:50Z</time>
      </trkpt>
      <trkpt lat="48.8153" lon="7.28446">
        <ele>266.2</ele>
        <time>2026-03-12T11:13:55Z</time>
      </trkpt>
      <trkpt lat="48.8153" lon="7.28456">
        <ele>264</ele>
        <time>2026-03-12T11:14:00Z</time>
      </trkpt>
      <trkpt lat="48.81528" lon="7.28465">
        <ele>263</ele>
        <time>2026-03-12T11:14:05Z</time>
      </trkpt>
      <trkpt lat="48.81526" lon="7.28477">
        <ele>261.3</ele>
        <time>2026-03-12T11:14:10Z</time>
      </trkpt>
      <trkpt lat="48.81525" lon="7.28486">
        <ele>259.9</ele>
        <time>2026-03-12T11:14:15Z</time>
      </trkpt>
      <trkpt lat="48.81526" lon="7.28489">
        <ele>258.8</ele>
        <time>2026-03-12T11:14:20Z</time>
      </trkpt>
      <trkpt lat="48.81526" lon="7.28489">
        <ele>258.8</ele>
        <time>2026-03-12T11:14:25Z</time>
      </trkpt>
      <trkpt lat="48.81526" lon="7.28489">
        <ele>258.8</ele>
        <time>2026-03-12T11:14:30Z</time>
      </trkpt>
      <trkpt lat="48.81526" lon="7.28489">
        <ele>258.8</ele>
        <time>2026-03-12T11:14:35Z</time>
      </trkpt>
      <trkpt lat="48.81526" lon="7.28489">
        <ele>258.8</ele>
        <time>2026-03-12T11:14:40Z</time>
      </trkpt>
      <trkpt lat="48.81526" lon="7.28489">
        <ele>258.8</ele>
        <time>2026-03-12T11:14:45Z</time>
      </trkpt>
      <trkpt lat="48.81526" lon="7.28489">
        <ele>258.8</ele>
        <time>2026-03-12T11:14:50Z</time>
      </trkpt>
      <trkpt lat="48.81526" lon="7.28489">
        <ele>258.8</ele>
        <time>2026-03-12T11:14:55Z</time>
      </trkpt>
      <trkpt lat="48.81526" lon="7.28489">
        <ele>258.8</ele>
        <time>2026-03-12T11:15:00Z</time>
      </trkpt>
      <trkpt lat="48.81526" lon="7.28489">
        <ele>258.8</ele>
        <time>2026-03-12T11:15:05Z</time>
      </trkpt>
      <trkpt lat="48.81526" lon="7.28489">
        <ele>258.8</ele>
        <time>2026-03-12T11:15:10Z</time>
      </trkpt>
      <trkpt lat="48.81526" lon="7.28489">
        <ele>258.8</ele>
        <time>2026-03-12T11:15:15Z</time>
      </trkpt>
      <trkpt lat="48.81526" lon="7.28489">
        <ele>258.8</ele>
        <time>2026-03-12T11:15:20Z</time>
      </trkpt>
      <trkpt lat="48.81526" lon="7.28489">
        <ele>258.8</ele>
        <time>2026-03-12T11:15:25Z</time>
      </trkpt>
      <trkpt lat="48.81526" lon="7.28489">
        <ele>258.8</ele>
        <time>2026-03-12T11:15:30Z</time>
      </trkpt>
      <trkpt lat="48.81526" lon="7.28489">
        <ele>258.8</ele>
        <time>2026-03-12T11:15:35Z</time>
      </trkpt>
      <trkpt lat="48.81526" lon="7.28489">
        <ele>258.8</ele>
        <time>2026-03-12T11:15:40Z</time>
      </trkpt>
      <trkpt lat="48.81526" lon="7.28489">
        <ele>258.8</ele>
        <time>2026-03-12T11:15:45Z</time>
      </trkpt>
      <trkpt lat="48.81526" lon="7.28489">
        <ele>258.8</ele>
        <time>2026-03-12T11:15:50Z</time>
      </trkpt>
      <trkpt lat="48.81526" lon="7.28489">
        <ele>258.8</ele>
        <time>2026-03-12T11:15:55Z</time>
      </trkpt>
      <trkpt lat="48.81526" lon="7.28489">
        <ele>258.8</ele>
        <time>2026-03-12T11:16:00Z</time>
      </trkpt>
      <trkpt lat="48.81526" lon="7.28489">
        <ele>258.8</ele>
        <time>2026-03-12T11:16:05Z</time>
      </trkpt>
      <trkpt lat="48.81526" lon="7.28489">
        <ele>258.8</ele>
        <time>2026-03-12T11:16:10Z</time>
      </trkpt>
      <trkpt lat="48.81526" lon="7.28489">
        <ele>258.8</ele>
        <time>2026-03-12T11:16:15Z</time>
      </trkpt>
      <trkpt lat="48.81526" lon="7.28489">
        <ele>258.8</ele>
        <time>2026-03-12T11:16:20Z</time>
      </trkpt>
      <trkpt lat="48.81526" lon="7.28489">
        <ele>258.8</ele>
        <time>2026-03-12T11:16:25Z</time>
      </trkpt>
      <trkpt lat="48.81526" lon="7.28489">
        <ele>258.8</ele>
        <time>2026-03-12T11:16:30Z</time>
      </trkpt>
      <trkpt lat="48.81526" lon="7.28489">
        <ele>258.8</ele>
        <time>2026-03-12T11:16:35Z</time>
      </trkpt>
      <trkpt lat="48.81523" lon="7.285">
        <ele>257.8</ele>
        <time>2026-03-12T11:16:40Z</time>
      </trkpt>
      <trkpt lat="48.81525" lon="7.28508">
        <ele>254.3</ele>
        <time>2026-03-12T11:16:45Z</time>
      </trkpt>
      <trkpt lat="48.81523" lon="7.28518">
        <ele>251.8</ele>
        <time>2026-03-12T11:16:50Z</time>
      </trkpt>
      <trkpt lat="48.8152" lon="7.28527">
        <ele>250</ele>
        <time>2026-03-12T11:16:55Z</time>
      </trkpt>
      <trkpt lat="48.81516" lon="7.28535">
        <ele>248.8</ele>
        <time>2026-03-12T11:17:00Z</time>
      </trkpt>
      <trkpt lat="48.81513" lon="7.28541">
        <ele>247.9</ele>
        <time>2026-03-12T11:17:05Z</time>
      </trkpt>
      <trkpt lat="48.81507" lon="7.28547">
        <ele>248</ele>
        <time>2026-03-12T11:17:10Z</time>
      </trkpt>
      <trkpt lat="48.81504" lon="7.28552">
        <ele>247.2</ele>
        <time>2026-03-12T11:17:15Z</time>
      </trkpt>
      <trkpt lat="48.81501" lon="7.28558">
        <ele>246.1</ele>
        <time>2026-03-12T11:17:20Z</time>
      </trkpt>
      <trkpt lat="48.81496" lon="7.28561">
        <ele>246.5</ele>
        <time>2026-03-12T11:17:25Z</time>
      </trkpt>
      <trkpt lat="48.81497" lon="7.28562">
        <ele>245.8</ele>
        <time>2026-03-12T11:17:30Z</time>
      </trkpt>
      <trkpt lat="48.81497" lon="7.28564">
        <ele>245.1</ele>
        <time>2026-03-12T11:17:35Z</time>
      </trkpt>
      <trkpt lat="48.81493" lon="7.28568">
        <ele>244.8</ele>
        <time>2026-03-12T11:17:40Z</time>
      </trkpt>
      <trkpt lat="48.81489" lon="7.28574">
        <ele>243.8</ele>
        <time>2026-03-12T11:17:45Z</time>
      </trkpt>
      <trkpt lat="48.81484" lon="7.28579">
        <ele>243.5</ele>
        <time>2026-03-12T11:17:50Z</time>
      </trkpt>
      <trkpt lat="48.81481" lon="7.28583">
        <ele>243</ele>
        <time>2026-03-12T11:17:55Z</time>
      </trkpt>
      <trkpt lat="48.81476" lon="7.28585">
        <ele>243.9</ele>
        <time>2026-03-12T11:18:00Z</time>
      </trkpt>
      <trkpt lat="48.81472" lon="7.28592">
        <ele>242.9</ele>
        <time>2026-03-12T11:18:05Z</time>
      </trkpt>
      <trkpt lat="48.81468" lon="7.28598">
        <ele>242</ele>
        <time>2026-03-12T11:18:10Z</time>
      </trkpt>
      <trkpt lat="48.81466" lon="7.28602">
        <ele>241.2</ele>
        <time>2026-03-12T11:18:15Z</time>
      </trkpt>
      <trkpt lat="48.81465" lon="7.28605">
        <ele>240.5</ele>
        <time>2026-03-12T11:18:20Z</time>
      </trkpt>
      <trkpt lat="48.81466" lon="7.28606">
        <ele>239.9</ele>
        <time>2026-03-12T11:18:25Z</time>
      </trkpt>
      <trkpt lat="48.81466" lon="7.28606">
        <ele>239.9</ele>
        <time>2026-03-12T11:18:30Z</time>
      </trkpt>
      <trkpt lat="48.81462" lon="7.28609">
        <ele>239.9</ele>
        <time>2026-03-12T11:18:35Z</time>
      </trkpt>
      <trkpt lat="48.81456" lon="7.2861">
        <ele>241.2</ele>
        <time>2026-03-12T11:18:40Z</time>
      </trkpt>
      <trkpt lat="48.8145" lon="7.28613">
        <ele>241.7</ele>
        <time>2026-03-12T11:18:45Z</time>
      </trkpt>
      <trkpt lat="48.81447" lon="7.28612">
        <ele>242.9</ele>
        <time>2026-03-12T11:18:50Z</time>
      </trkpt>
      <trkpt lat="48.81446" lon="7.28611">
        <ele>243.5</ele>
        <time>2026-03-12T11:18:55Z</time>
      </trkpt>
      <trkpt lat="48.81445" lon="7.28615">
        <ele>242.3</ele>
        <time>2026-03-12T11:19:00Z</time>
      </trkpt>
      <trkpt lat="48.81443" lon="7.28616">
        <ele>242.4</ele>
        <time>2026-03-12T11:19:05Z</time>
      </trkpt>
      <trkpt lat="48.81443" lon="7.28616">
        <ele>242.4</ele>
        <time>2026-03-12T11:19:10Z</time>
      </trkpt>
      <trkpt lat="48.81443" lon="7.28616">
        <ele>242.4</ele>
        <time>2026-03-12T11:19:15Z</time>
      </trkpt>
      <trkpt lat="48.81443" lon="7.28616">
        <ele>242.4</ele>
        <time>2026-03-12T11:19:20Z</time>
      </trkpt>
      <trkpt lat="48.81443" lon="7.28616">
        <ele>242.4</ele>
        <time>2026-03-12T11:19:25Z</time>
      </trkpt>
      <trkpt lat="48.81443" lon="7.28616">
        <ele>242.4</ele>
        <time>2026-03-12T11:19:30Z</time>
      </trkpt>
      <trkpt lat="48.81443" lon="7.28616">
        <ele>242.4</ele>
        <time>2026-03-12T11:19:35Z</time>
      </trkpt>
      <trkpt lat="48.81443" lon="7.28616">
        <ele>242.4</ele>
        <time>2026-03-12T11:19:40Z</time>
      </trkpt>
      <trkpt lat="48.81443" lon="7.28616">
        <ele>242.4</ele>
        <time>2026-03-12T11:19:45Z</time>
      </trkpt>
      <trkpt lat="48.81443" lon="7.28616">
        <ele>242.4</ele>
        <time>2026-03-12T11:19:50Z</time>
      </trkpt>
      <trkpt lat="48.81443" lon="7.28616">
        <ele>242.4</ele>
        <time>2026-03-12T11:19:55Z</time>
      </trkpt>
      <trkpt lat="48.81443" lon="7.28616">
        <ele>242.4</ele>
        <time>2026-03-12T11:20:00Z</time>
      </trkpt>
      <trkpt lat="48.81443" lon="7.28616">
        <ele>242.4</ele>
        <time>2026-03-12T11:20:05Z</time>
      </trkpt>
      <trkpt lat="48.81443" lon="7.28616">
        <ele>242.4</ele>
        <time>2026-03-12T11:20:10Z</time>
      </trkpt>
      <trkpt lat="48.81443" lon="7.28616">
        <ele>242.4</ele>
        <time>2026-03-12T11:20:15Z</time>
      </trkpt>
      <trkpt lat="48.81443" lon="7.28616">
        <ele>242.4</ele>
        <time>2026-03-12T11:20:20Z</time>
      </trkpt>
      <trkpt lat="48.81443" lon="7.28616">
        <ele>242.4</ele>
        <time>2026-03-12T11:20:25Z</time>
      </trkpt>
      <trkpt lat="48.81443" lon="7.28616">
        <ele>242.4</ele>
        <time>2026-03-12T11:20:30Z</time>
      </trkpt>
      <trkpt lat="48.81443" lon="7.28616">
        <ele>242.4</ele>
        <time>2026-03-12T11:20:35Z</time>
      </trkpt>
      <trkpt lat="48.81443" lon="7.28616">
        <ele>242.4</ele>
        <time>2026-03-12T11:20:40Z</time>
      </trkpt>
      <trkpt lat="48.81443" lon="7.28616">
        <ele>242.4</ele>
        <time>2026-03-12T11:20:45Z</time>
      </trkpt>
      <trkpt lat="48.81443" lon="7.28616">
        <ele>242.4</ele>
        <time>2026-03-12T11:20:50Z</time>
      </trkpt>
      <trkpt lat="48.81443" lon="7.28616">
        <ele>242.4</ele>
        <time>2026-03-12T11:20:55Z</time>
      </trkpt>
      <trkpt lat="48.81443" lon="7.28616">
        <ele>242.4</ele>
        <time>2026-03-12T11:21:00Z</time>
      </trkpt>
      <trkpt lat="48.81443" lon="7.28616">
        <ele>242.4</ele>
        <time>2026-03-12T11:21:05Z</time>
      </trkpt>
      <trkpt lat="48.81443" lon="7.28616">
        <ele>242.4</ele>
        <time>2026-03-12T11:21:10Z</time>
      </trkpt>
      <trkpt lat="48.81443" lon="7.28616">
        <ele>242.4</ele>
        <time>2026-03-12T11:21:15Z</time>
      </trkpt>
      <trkpt lat="48.81443" lon="7.28616">
        <ele>242.4</ele>
        <time>2026-03-12T11:21:20Z</time>
      </trkpt>
      <trkpt lat="48.81443" lon="7.28616">
        <ele>242.4</ele>
        <time>2026-03-12T11:21:25Z</time>
      </trkpt>
      <trkpt lat="48.81443" lon="7.28616">
        <ele>242.4</ele>
        <time>2026-03-12T11:21:30Z</time>
      </trkpt>
      <trkpt lat="48.81443" lon="7.28616">
        <ele>242.4</ele>
        <time>2026-03-12T11:21:35Z</time>
      </trkpt>
      <trkpt lat="48.81443" lon="7.28616">
        <ele>242.4</ele>
        <time>2026-03-12T11:21:40Z</time>
      </trkpt>
      <trkpt lat="48.81433" lon="7.28622">
        <ele>242.7</ele>
        <time>2026-03-12T11:21:45Z</time>
      </trkpt>
      <trkpt lat="48.81427" lon="7.28626">
        <ele>242.6</ele>
        <time>2026-03-12T11:21:50Z</time>
      </trkpt>
      <trkpt lat="48.81422" lon="7.28627">
        <ele>243.4</ele>
        <time>2026-03-12T11:21:55Z</time>
      </trkpt>
      <trkpt lat="48.81418" lon="7.2863">
        <ele>243.1</ele>
        <time>2026-03-12T11:22:00Z</time>
      </trkpt>
      <trkpt lat="48.81415" lon="7.28633">
        <ele>242.3</ele>
        <time>2026-03-12T11:22:05Z</time>
      </trkpt>
      <trkpt lat="48.81408" lon="7.28637">
        <ele>241.4</ele>
        <time>2026-03-12T11:22:10Z</time>
      </trkpt>
      <trkpt lat="48.814" lon="7.28646">
        <ele>238.8</ele>
        <time>2026-03-12T11:22:15Z</time>
      </trkpt>
      <trkpt lat="48.81394" lon="7.28648">
        <ele>238.8</ele>
        <time>2026-03-12T11:22:20Z</time>
      </trkpt>
      <trkpt lat="48.81388" lon="7.28653">
        <ele>237.9</ele>
        <time>2026-03-12T11:22:25Z</time>
      </trkpt>
      <trkpt lat="48.81382" lon="7.28653">
        <ele>238.8</ele>
        <time>2026-03-12T11:22:30Z</time>
      </trkpt>
      <trkpt lat="48.81377" lon="7.28653">
        <ele>239.5</ele>
        <time>2026-03-12T11:22:35Z</time>
      </trkpt>
      <trkpt lat="48.8137" lon="7.28658">
        <ele>239</ele>
        <time>2026-03-12T11:22:40Z</time>
      </trkpt>
      <trkpt lat="48.81363" lon="7.28661">
        <ele>239.3</ele>
        <time>2026-03-12T11:22:45Z</time>
      </trkpt>
      <trkpt lat="48.81356" lon="7.28664">
        <ele>239.6</ele>
        <time>2026-03-12T11:22:50Z</time>
      </trkpt>
      <trkpt lat="48.8135" lon="7.28669">
        <ele>239.4</ele>
        <time>2026-03-12T11:22:55Z</time>
      </trkpt>
      <trkpt lat="48.81345" lon="7.28671">
        <ele>239.9</ele>
        <time>2026-03-12T11:23:00Z</time>
      </trkpt>
      <trkpt lat="48.8134" lon="7.28676">
        <ele>239.6</ele>
        <time>2026-03-12T11:23:05Z</time>
      </trkpt>
      <trkpt lat="48.81333" lon="7.28679">
        <ele>240.2</ele>
        <time>2026-03-12T11:23:10Z</time>
      </trkpt>
      <trkpt lat="48.81325" lon="7.28683">
        <ele>242.4</ele>
        <time>2026-03-12T11:23:15Z</time>
      </trkpt>
      <trkpt lat="48.81319" lon="7.28687">
        <ele>243.8</ele>
        <time>2026-03-12T11:23:20Z</time>
      </trkpt>
      <trkpt lat="48.81311" lon="7.28693">
        <ele>245.8</ele>
        <time>2026-03-12T11:23:25Z</time>
      </trkpt>
      <trkpt lat="48.81301" lon="7.287">
        <ele>248.4</ele>
        <time>2026-03-12T11:23:30Z</time>
      </trkpt>
      <trkpt lat="48.81295" lon="7.28705">
        <ele>250</ele>
        <time>2026-03-12T11:23:35Z</time>
      </trkpt>
      <trkpt lat="48.8129" lon="7.28707">
        <ele>251.7</ele>
        <time>2026-03-12T11:23:40Z</time>
      </trkpt>
      <trkpt lat="48.81284" lon="7.28708">
        <ele>254.1</ele>
        <time>2026-03-12T11:23:45Z</time>
      </trkpt>
      <trkpt lat="48.81277" lon="7.28704">
        <ele>257.7</ele>
        <time>2026-03-12T11:23:50Z</time>
      </trkpt>
      <trkpt lat="48.8127" lon="7.28699">
        <ele>261.5</ele>
        <time>2026-03-12T11:23:55Z</time>
      </trkpt>
      <trkpt lat="48.81262" lon="7.28693">
        <ele>265.7</ele>
        <time>2026-03-12T11:24:00Z</time>
      </trkpt>
      <trkpt lat="48.81257" lon="7.28687">
        <ele>268.5</ele>
        <time>2026-03-12T11:24:05Z</time>
      </trkpt>
      <trkpt lat="48.81249" lon="7.28683">
        <ele>272.2</ele>
        <time>2026-03-12T11:24:10Z</time>
      </trkpt>
      <trkpt lat="48.81247" lon="7.28687">
        <ele>272.3</ele>
        <time>2026-03-12T11:24:15Z</time>
      </trkpt>
      <trkpt lat="48.81248" lon="7.28699">
        <ele>270.3</ele>
        <time>2026-03-12T11:24:20Z</time>
      </trkpt>
      <trkpt lat="48.81252" lon="7.2871">
        <ele>267.4</ele>
        <time>2026-03-12T11:24:25Z</time>
      </trkpt>
      <trkpt lat="48.81253" lon="7.28721">
        <ele>265.5</ele>
        <time>2026-03-12T11:24:30Z</time>
      </trkpt>
      <trkpt lat="48.81249" lon="7.28733">
        <ele>265.5</ele>
        <time>2026-03-12T11:24:35Z</time>
      </trkpt>
      <trkpt lat="48.81244" lon="7.28744">
        <ele>265.5</ele>
        <time>2026-03-12T11:24:40Z</time>
      </trkpt>
      <trkpt lat="48.81238" lon="7.28752">
        <ele>265.9</ele>
        <time>2026-03-12T11:24:45Z</time>
      </trkpt>
      <trkpt lat="48.81235" lon="7.2876">
        <ele>265</ele>
        <time>2026-03-12T11:24:50Z</time>
      </trkpt>
      <trkpt lat="48.81231" lon="7.28765">
        <ele>265.1</ele>
        <time>2026-03-12T11:24:55Z</time>
      </trkpt>
      <trkpt lat="48.81226" lon="7.28771">
        <ele>265.3</ele>
        <time>2026-03-12T11:25:00Z</time>
      </trkpt>
      <trkpt lat="48.81222" lon="7.2878">
        <ele>264.6</ele>
        <time>2026-03-12T11:25:05Z</time>
      </trkpt>
      <trkpt lat="48.81219" lon="7.28789">
        <ele>263.7</ele>
        <time>2026-03-12T11:25:10Z</time>
      </trkpt>
      <trkpt lat="48.81213" lon="7.28797">
        <ele>263.8</ele>
        <time>2026-03-12T11:25:15Z</time>
      </trkpt>
      <trkpt lat="48.81209" lon="7.28805">
        <ele>263.4</ele>
        <time>2026-03-12T11:25:20Z</time>
      </trkpt>
      <trkpt lat="48.81206" lon="7.28813">
        <ele>262.7</ele>
        <time>2026-03-12T11:25:25Z</time>
      </trkpt>
      <trkpt lat="48.81203" lon="7.28822">
        <ele>261.9</ele>
        <time>2026-03-12T11:25:30Z</time>
      </trkpt>
      <trkpt lat="48.81198" lon="7.28829">
        <ele>262.1</ele>
        <time>2026-03-12T11:25:35Z</time>
      </trkpt>
      <trkpt lat="48.81193" lon="7.28836">
        <ele>261.9</ele>
        <time>2026-03-12T11:25:40Z</time>
      </trkpt>
      <trkpt lat="48.81187" lon="7.28843">
        <ele>261.3</ele>
        <time>2026-03-12T11:25:45Z</time>
      </trkpt>
      <trkpt lat="48.81183" lon="7.28854">
        <ele>258.8</ele>
        <time>2026-03-12T11:25:50Z</time>
      </trkpt>
      <trkpt lat="48.8118" lon="7.28865">
        <ele>255.9</ele>
        <time>2026-03-12T11:25:55Z</time>
      </trkpt>
      <trkpt lat="48.81175" lon="7.28875">
        <ele>254</ele>
        <time>2026-03-12T11:26:00Z</time>
      </trkpt>
      <trkpt lat="48.81168" lon="7.28889">
        <ele>251.2</ele>
        <time>2026-03-12T11:26:05Z</time>
      </trkpt>
      <trkpt lat="48.81163" lon="7.28898">
        <ele>248.8</ele>
        <time>2026-03-12T11:26:10Z</time>
      </trkpt>
      <trkpt lat="48.81156" lon="7.28908">
        <ele>246</ele>
        <time>2026-03-12T11:26:15Z</time>
      </trkpt>
      <trkpt lat="48.81151" lon="7.28916">
        <ele>243.9</ele>
        <time>2026-03-12T11:26:20Z</time>
      </trkpt>
      <trkpt lat="48.81145" lon="7.2892">
        <ele>243.3</ele>
        <time>2026-03-12T11:26:25Z</time>
      </trkpt>
      <trkpt lat="48.8114" lon="7.28925">
        <ele>242.2</ele>
        <time>2026-03-12T11:26:30Z</time>
      </trkpt>
      <trkpt lat="48.81133" lon="7.28934">
        <ele>240.3</ele>
        <time>2026-03-12T11:26:35Z</time>
      </trkpt>
      <trkpt lat="48.81127" lon="7.2894">
        <ele>239.2</ele>
        <time>2026-03-12T11:26:40Z</time>
      </trkpt>
      <trkpt lat="48.81121" lon="7.28946">
        <ele>238.3</ele>
        <time>2026-03-12T11:26:45Z</time>
      </trkpt>
      <trkpt lat="48.81117" lon="7.2895">
        <ele>237.7</ele>
        <time>2026-03-12T11:26:50Z</time>
      </trkpt>
      <trkpt lat="48.81112" lon="7.28955">
        <ele>237</ele>
        <time>2026-03-12T11:26:55Z</time>
      </trkpt>
      <trkpt lat="48.81106" lon="7.28962">
        <ele>235.9</ele>
        <time>2026-03-12T11:27:00Z</time>
      </trkpt>
      <trkpt lat="48.811" lon="7.28971">
        <ele>234.5</ele>
        <time>2026-03-12T11:27:05Z</time>
      </trkpt>
      <trkpt lat="48.81093" lon="7.28978">
        <ele>233.8</ele>
        <time>2026-03-12T11:27:10Z</time>
      </trkpt>
      <trkpt lat="48.81085" lon="7.28984">
        <ele>233.7</ele>
        <time>2026-03-12T11:27:15Z</time>
      </trkpt>
      <trkpt lat="48.8108" lon="7.28993">
        <ele>232.6</ele>
        <time>2026-03-12T11:27:20Z</time>
      </trkpt>
      <trkpt lat="48.81075" lon="7.28998">
        <ele>232.6</ele>
        <time>2026-03-12T11:27:25Z</time>
      </trkpt>
      <trkpt lat="48.81068" lon="7.29003">
        <ele>233.1</ele>
        <time>2026-03-12T11:27:30Z</time>
      </trkpt>
      <trkpt lat="48.81062" lon="7.29007">
        <ele>233.6</ele>
        <time>2026-03-12T11:27:35Z</time>
      </trkpt>
      <trkpt lat="48.81056" lon="7.29011">
        <ele>234.1</ele>
        <time>2026-03-12T11:27:40Z</time>
      </trkpt>
      <trkpt lat="48.8105" lon="7.29015">
        <ele>234.5</ele>
        <time>2026-03-12T11:27:45Z</time>
      </trkpt>
      <trkpt lat="48.81046" lon="7.29021">
        <ele>234</ele>
        <time>2026-03-12T11:27:50Z</time>
      </trkpt>
      <trkpt lat="48.81042" lon="7.2903">
        <ele>232.7</ele>
        <time>2026-03-12T11:27:55Z</time>
      </trkpt>
      <trkpt lat="48.81039" lon="7.29039">
        <ele>231.1</ele>
        <time>2026-03-12T11:28:00Z</time>
      </trkpt>
      <trkpt lat="48.81039" lon="7.29047">
        <ele>229</ele>
        <time>2026-03-12T11:28:05Z</time>
      </trkpt>
      <trkpt lat="48.81035" lon="7.29052">
        <ele>228.7</ele>
        <time>2026-03-12T11:28:10Z</time>
      </trkpt>
      <trkpt lat="48.81032" lon="7.29058">
        <ele>227.9</ele>
        <time>2026-03-12T11:28:15Z</time>
      </trkpt>
      <trkpt lat="48.81026" lon="7.29062">
        <ele>228.3</ele>
        <time>2026-03-12T11:28:20Z</time>
      </trkpt>
      <trkpt lat="48.81023" lon="7.29065">
        <ele>228.3</ele>
        <time>2026-03-12T11:28:25Z</time>
      </trkpt>
      <trkpt lat="48.81018" lon="7.2907">
        <ele>228.2</ele>
        <time>2026-03-12T11:28:30Z</time>
      </trkpt>
      <trkpt lat="48.81014" lon="7.29076">
        <ele>227.6</ele>
        <time>2026-03-12T11:28:35Z</time>
      </trkpt>
      <trkpt lat="48.8101" lon="7.29081">
        <ele>227.2</ele>
        <time>2026-03-12T11:28:40Z</time>
      </trkpt>
      <trkpt lat="48.81006" lon="7.29081">
        <ele>228.2</ele>
        <time>2026-03-12T11:28:45Z</time>
      </trkpt>
      <trkpt lat="48.81006" lon="7.29081">
        <ele>228.2</ele>
        <time>2026-03-12T11:28:50Z</time>
      </trkpt>
      <trkpt lat="48.81006" lon="7.29081">
        <ele>228.2</ele>
        <time>2026-03-12T11:28:55Z</time>
      </trkpt>
      <trkpt lat="48.81006" lon="7.29081">
        <ele>228.2</ele>
        <time>2026-03-12T11:29:00Z</time>
      </trkpt>
      <trkpt lat="48.81006" lon="7.29083">
        <ele>227.6</ele>
        <time>2026-03-12T11:29:05Z</time>
      </trkpt>
      <trkpt lat="48.80999" lon="7.29083">
        <ele>229.2</ele>
        <time>2026-03-12T11:29:10Z</time>
      </trkpt>
      <trkpt lat="48.80992" lon="7.2909">
        <ele>228.4</ele>
        <time>2026-03-12T11:29:15Z</time>
      </trkpt>
      <trkpt lat="48.80986" lon="7.29099">
        <ele>227.3</ele>
        <time>2026-03-12T11:29:20Z</time>
      </trkpt>
      <trkpt lat="48.8098" lon="7.29107">
        <ele>226.6</ele>
        <time>2026-03-12T11:29:25Z</time>
      </trkpt>
      <trkpt lat="48.80974" lon="7.29112">
        <ele>226.6</ele>
        <time>2026-03-12T11:29:30Z</time>
      </trkpt>
      <trkpt lat="48.80971" lon="7.29117">
        <ele>226.2</ele>
        <time>2026-03-12T11:29:35Z</time>
      </trkpt>
      <trkpt lat="48.80967" lon="7.29121">
        <ele>226.2</ele>
        <time>2026-03-12T11:29:40Z</time>
      </trkpt>
      <trkpt lat="48.80962" lon="7.29126">
        <ele>226.2</ele>
        <time>2026-03-12T11:29:45Z</time>
      </trkpt>
      <trkpt lat="48.80955" lon="7.29133">
        <ele>226.5</ele>
        <time>2026-03-12T11:29:50Z</time>
      </trkpt>
      <trkpt lat="48.80948" lon="7.29135">
        <ele>227.5</ele>
        <time>2026-03-12T11:29:55Z</time>
      </trkpt>
      <trkpt lat="48.80942" lon="7.29137">
        <ele>228.4</ele>
        <time>2026-03-12T11:30:00Z</time>
      </trkpt>
      <trkpt lat="48.80937" lon="7.29142">
        <ele>228.8</ele>
        <time>2026-03-12T11:30:05Z</time>
      </trkpt>
      <trkpt lat="48.80929" lon="7.29144">
        <ele>230.2</ele>
        <time>2026-03-12T11:30:10Z</time>
      </trkpt>
      <trkpt lat="48.80923" lon="7.29149">
        <ele>230.9</ele>
        <time>2026-03-12T11:30:15Z</time>
      </trkpt>
      <trkpt lat="48.80915" lon="7.29154">
        <ele>232.3</ele>
        <time>2026-03-12T11:30:20Z</time>
      </trkpt>
      <trkpt lat="48.80908" lon="7.29159">
        <ele>233.8</ele>
        <time>2026-03-12T11:30:25Z</time>
      </trkpt>
      <trkpt lat="48.80903" lon="7.29165">
        <ele>234.6</ele>
        <time>2026-03-12T11:30:30Z</time>
      </trkpt>
      <trkpt lat="48.80898" lon="7.29173">
        <ele>234.3</ele>
        <time>2026-03-12T11:30:35Z</time>
      </trkpt>
      <trkpt lat="48.80892" lon="7.29177">
        <ele>234.9</ele>
        <time>2026-03-12T11:30:40Z</time>
      </trkpt>
      <trkpt lat="48.80886" lon="7.29181">
        <ele>235.4</ele>
        <time>2026-03-12T11:30:45Z</time>
      </trkpt>
      <trkpt lat="48.8088" lon="7.29186">
        <ele>235.8</ele>
        <time>2026-03-12T11:30:50Z</time>
      </trkpt>
      <trkpt lat="48.80873" lon="7.29193">
        <ele>235.8</ele>
        <time>2026-03-12T11:30:55Z</time>
      </trkpt>
      <trkpt lat="48.80868" lon="7.29199">
        <ele>235.6</ele>
        <time>2026-03-12T11:31:00Z</time>
      </trkpt>
      <trkpt lat="48.80862" lon="7.29206">
        <ele>235.4</ele>
        <time>2026-03-12T11:31:05Z</time>
      </trkpt>
      <trkpt lat="48.80857" lon="7.29212">
        <ele>235.1</ele>
        <time>2026-03-12T11:31:10Z</time>
      </trkpt>
      <trkpt lat="48.80852" lon="7.2922">
        <ele>234.3</ele>
        <time>2026-03-12T11:31:15Z</time>
      </trkpt>
      <trkpt lat="48.80845" lon="7.29224">
        <ele>234.9</ele>
        <time>2026-03-12T11:31:20Z</time>
      </trkpt>
      <trkpt lat="48.80839" lon="7.29227">
        <ele>235.5</ele>
        <time>2026-03-12T11:31:25Z</time>
      </trkpt>
      <trkpt lat="48.80835" lon="7.29233">
        <ele>234.9</ele>
        <time>2026-03-12T11:31:30Z</time>
      </trkpt>
      <trkpt lat="48.8083" lon="7.29237">
        <ele>234.8</ele>
        <time>2026-03-12T11:31:35Z</time>
      </trkpt>
      <trkpt lat="48.80823" lon="7.29245">
        <ele>234.1</ele>
        <time>2026-03-12T11:31:40Z</time>
      </trkpt>
      <trkpt lat="48.80816" lon="7.2925">
        <ele>234.1</ele>
        <time>2026-03-12T11:31:45Z</time>
      </trkpt>
      <trkpt lat="48.80811" lon="7.29256">
        <ele>233.5</ele>
        <time>2026-03-12T11:31:50Z</time>
      </trkpt>
      <trkpt lat="48.80806" lon="7.29263">
        <ele>232.7</ele>
        <time>2026-03-12T11:31:55Z</time>
      </trkpt>
      <trkpt lat="48.808" lon="7.2927">
        <ele>232.2</ele>
        <time>2026-03-12T11:32:00Z</time>
      </trkpt>
      <trkpt lat="48.80793" lon="7.29277">
        <ele>231.9</ele>
        <time>2026-03-12T11:32:05Z</time>
      </trkpt>
      <trkpt lat="48.80789" lon="7.29282">
        <ele>231.6</ele>
        <time>2026-03-12T11:32:10Z</time>
      </trkpt>
      <trkpt lat="48.80784" lon="7.29286">
        <ele>231.7</ele>
        <time>2026-03-12T11:32:15Z</time>
      </trkpt>
      <trkpt lat="48.80777" lon="7.2929">
        <ele>232.2</ele>
        <time>2026-03-12T11:32:20Z</time>
      </trkpt>
      <trkpt lat="48.80771" lon="7.29295">
        <ele>232.4</ele>
        <time>2026-03-12T11:32:25Z</time>
      </trkpt>
      <trkpt lat="48.80764" lon="7.29299">
        <ele>233</ele>
        <time>2026-03-12T11:32:30Z</time>
      </trkpt>
      <trkpt lat="48.80757" lon="7.29303">
        <ele>233.7</ele>
        <time>2026-03-12T11:32:35Z</time>
      </trkpt>
      <trkpt lat="48.80749" lon="7.29307">
        <ele>234.7</ele>
        <time>2026-03-12T11:32:40Z</time>
      </trkpt>
      <trkpt lat="48.80745" lon="7.29306">
        <ele>236.1</ele>
        <time>2026-03-12T11:32:45Z</time>
      </trkpt>
      <trkpt lat="48.8074" lon="7.29312">
        <ele>236.3</ele>
        <time>2026-03-12T11:32:50Z</time>
      </trkpt>
      <trkpt lat="48.80734" lon="7.2932">
        <ele>236.6</ele>
        <time>2026-03-12T11:32:55Z</time>
      </trkpt>
      <trkpt lat="48.80728" lon="7.29324">
        <ele>237.6</ele>
        <time>2026-03-12T11:33:00Z</time>
      </trkpt>
      <trkpt lat="48.80724" lon="7.2933">
        <ele>237.7</ele>
        <time>2026-03-12T11:33:05Z</time>
      </trkpt>
      <trkpt lat="48.80718" lon="7.29336">
        <ele>238.5</ele>
        <time>2026-03-12T11:33:10Z</time>
      </trkpt>
      <trkpt lat="48.80712" lon="7.29343">
        <ele>239</ele>
        <time>2026-03-12T11:33:15Z</time>
      </trkpt>
      <trkpt lat="48.80705" lon="7.2935">
        <ele>240</ele>
        <time>2026-03-12T11:33:20Z</time>
      </trkpt>
      <trkpt lat="48.80699" lon="7.2936">
        <ele>240.1</ele>
        <time>2026-03-12T11:33:25Z</time>
      </trkpt>
      <trkpt lat="48.80693" lon="7.29365">
        <ele>241.2</ele>
        <time>2026-03-12T11:33:30Z</time>
      </trkpt>
      <trkpt lat="48.80688" lon="7.2937">
        <ele>242.1</ele>
        <time>2026-03-12T11:33:35Z</time>
      </trkpt>
      <trkpt lat="48.80683" lon="7.29378">
        <ele>242.4</ele>
        <time>2026-03-12T11:33:40Z</time>
      </trkpt>
      <trkpt lat="48.80677" lon="7.29383">
        <ele>243.7</ele>
        <time>2026-03-12T11:33:45Z</time>
      </trkpt>
      <trkpt lat="48.80672" lon="7.29386">
        <ele>244.9</ele>
        <time>2026-03-12T11:33:50Z</time>
      </trkpt>
      <trkpt lat="48.80667" lon="7.2939">
        <ele>246</ele>
        <time>2026-03-12T11:33:55Z</time>
      </trkpt>
      <trkpt lat="48.80661" lon="7.29387">
        <ele>248.5</ele>
        <time>2026-03-12T11:34:00Z</time>
      </trkpt>
      <trkpt lat="48.80654" lon="7.29385">
        <ele>251.1</ele>
        <time>2026-03-12T11:34:05Z</time>
      </trkpt>
      <trkpt lat="48.80645" lon="7.29384">
        <ele>254.2</ele>
        <time>2026-03-12T11:34:10Z</time>
      </trkpt>
      <trkpt lat="48.8064" lon="7.29389">
        <ele>255.2</ele>
        <time>2026-03-12T11:34:15Z</time>
      </trkpt>
      <trkpt lat="48.80635" lon="7.29394">
        <ele>256.2</ele>
        <time>2026-03-12T11:34:20Z</time>
      </trkpt>
      <trkpt lat="48.80634" lon="7.29406">
        <ele>255.1</ele>
        <time>2026-03-12T11:34:25Z</time>
      </trkpt>
      <trkpt lat="48.80631" lon="7.29418">
        <ele>254.7</ele>
        <time>2026-03-12T11:34:30Z</time>
      </trkpt>
      <trkpt lat="48.8063" lon="7.29427">
        <ele>254</ele>
        <time>2026-03-12T11:34:35Z</time>
      </trkpt>
      <trkpt lat="48.80629" lon="7.29436">
        <ele>253.4</ele>
        <time>2026-03-12T11:34:40Z</time>
      </trkpt>
      <trkpt lat="48.80626" lon="7.29448">
        <ele>253.2</ele>
        <time>2026-03-12T11:34:45Z</time>
      </trkpt>
      <trkpt lat="48.80624" lon="7.29458">
        <ele>252.9</ele>
        <time>2026-03-12T11:34:50Z</time>
      </trkpt>
      <trkpt lat="48.80623" lon="7.29468">
        <ele>252.3</ele>
        <time>2026-03-12T11:34:55Z</time>
      </trkpt>
      <trkpt lat="48.80622" lon="7.29475">
        <ele>252</ele>
        <time>2026-03-12T11:35:00Z</time>
      </trkpt>
      <trkpt lat="48.80622" lon="7.29485">
        <ele>250.9</ele>
        <time>2026-03-12T11:35:05Z</time>
      </trkpt>
      <trkpt lat="48.80618" lon="7.29497">
        <ele>251.5</ele>
        <time>2026-03-12T11:35:10Z</time>
      </trkpt>
      <trkpt lat="48.80618" lon="7.29506">
        <ele>250.7</ele>
        <time>2026-03-12T11:35:15Z</time>
      </trkpt>
      <trkpt lat="48.80616" lon="7.29516">
        <ele>250.7</ele>
        <time>2026-03-12T11:35:20Z</time>
      </trkpt>
      <trkpt lat="48.80613" lon="7.29527">
        <ele>251.1</ele>
        <time>2026-03-12T11:35:25Z</time>
      </trkpt>
      <trkpt lat="48.80612" lon="7.29534">
        <ele>250.9</ele>
        <time>2026-03-12T11:35:30Z</time>
      </trkpt>
      <trkpt lat="48.80612" lon="7.29542">
        <ele>250.2</ele>
        <time>2026-03-12T11:35:35Z</time>
      </trkpt>
      <trkpt lat="48.80609" lon="7.29553">
        <ele>250.6</ele>
        <time>2026-03-12T11:35:40Z</time>
      </trkpt>
      <trkpt lat="48.80607" lon="7.29564">
        <ele>250.6</ele>
        <time>2026-03-12T11:35:45Z</time>
      </trkpt>
      <trkpt lat="48.80604" lon="7.29574">
        <ele>251.1</ele>
        <time>2026-03-12T11:35:50Z</time>
      </trkpt>
      <trkpt lat="48.80604" lon="7.29583">
        <ele>250.4</ele>
        <time>2026-03-12T11:35:55Z</time>
      </trkpt>
      <trkpt lat="48.80601" lon="7.29594">
        <ele>251.4</ele>
        <time>2026-03-12T11:36:00Z</time>
      </trkpt>
      <trkpt lat="48.80599" lon="7.29606">
        <ele>252</ele>
        <time>2026-03-12T11:36:05Z</time>
      </trkpt>
      <trkpt lat="48.80596" lon="7.29618">
        <ele>253.2</ele>
        <time>2026-03-12T11:36:10Z</time>
      </trkpt>
      <trkpt lat="48.80594" lon="7.2963">
        <ele>253.9</ele>
        <time>2026-03-12T11:36:15Z</time>
      </trkpt>
      <trkpt lat="48.80593" lon="7.29641">
        <ele>254.2</ele>
        <time>2026-03-12T11:36:20Z</time>
      </trkpt>
      <trkpt lat="48.8059" lon="7.2965">
        <ele>255.6</ele>
        <time>2026-03-12T11:36:25Z</time>
      </trkpt>
      <trkpt lat="48.8059" lon="7.2965">
        <ele>255.6</ele>
        <time>2026-03-12T11:36:30Z</time>
      </trkpt>
      <trkpt lat="48.80587" lon="7.29653">
        <ele>257.2</ele>
        <time>2026-03-12T11:36:35Z</time>
      </trkpt>
      <trkpt lat="48.80588" lon="7.2966">
        <ele>256.5</ele>
        <time>2026-03-12T11:36:40Z</time>
      </trkpt>
      <trkpt lat="48.80589" lon="7.29669">
        <ele>255.9</ele>
        <time>2026-03-12T11:36:45Z</time>
      </trkpt>
      <trkpt lat="48.80589" lon="7.29681">
        <ele>256</ele>
        <time>2026-03-12T11:36:50Z</time>
      </trkpt>
      <trkpt lat="48.80587" lon="7.29689">
        <ele>257.2</ele>
        <time>2026-03-12T11:36:55Z</time>
      </trkpt>
      <trkpt lat="48.80585" lon="7.29698">
        <ele>258.4</ele>
        <time>2026-03-12T11:37:00Z</time>
      </trkpt>
      <trkpt lat="48.8058" lon="7.2971">
        <ele>260.9</ele>
        <time>2026-03-12T11:37:05Z</time>
      </trkpt>
      <trkpt lat="48.80579" lon="7.29719">
        <ele>261.4</ele>
        <time>2026-03-12T11:37:10Z</time>
      </trkpt>
      <trkpt lat="48.80578" lon="7.29731">
        <ele>262</ele>
        <time>2026-03-12T11:37:15Z</time>
      </trkpt>
      <trkpt lat="48.80579" lon="7.2974">
        <ele>261.7</ele>
        <time>2026-03-12T11:37:20Z</time>
      </trkpt>
      <trkpt lat="48.80579" lon="7.29749">
        <ele>261.8</ele>
        <time>2026-03-12T11:37:25Z</time>
      </trkpt>
      <trkpt lat="48.80576" lon="7.29759">
        <ele>261.9</ele>
        <time>2026-03-12T11:37:30Z</time>
      </trkpt>
      <trkpt lat="48.80572" lon="7.29769">
        <ele>262.3</ele>
        <time>2026-03-12T11:37:35Z</time>
      </trkpt>
      <trkpt lat="48.8057" lon="7.2978">
        <ele>261.9</ele>
        <time>2026-03-12T11:37:40Z</time>
      </trkpt>
      <trkpt lat="48.80569" lon="7.29788">
        <ele>261.3</ele>
        <time>2026-03-12T11:37:45Z</time>
      </trkpt>
      <trkpt lat="48.80567" lon="7.29799">
        <ele>261</ele>
        <time>2026-03-12T11:37:50Z</time>
      </trkpt>
      <trkpt lat="48.80565" lon="7.29811">
        <ele>260.5</ele>
        <time>2026-03-12T11:37:55Z</time>
      </trkpt>
      <trkpt lat="48.80564" lon="7.29823">
        <ele>259.6</ele>
        <time>2026-03-12T11:38:00Z</time>
      </trkpt>
      <trkpt lat="48.80562" lon="7.29835">
        <ele>259.2</ele>
        <time>2026-03-12T11:38:05Z</time>
      </trkpt>
      <trkpt lat="48.80561" lon="7.29844">
        <ele>258.1</ele>
        <time>2026-03-12T11:38:10Z</time>
      </trkpt>
      <trkpt lat="48.80559" lon="7.29853">
        <ele>257.6</ele>
        <time>2026-03-12T11:38:15Z</time>
      </trkpt>
      <trkpt lat="48.80557" lon="7.29864">
        <ele>256.7</ele>
        <time>2026-03-12T11:38:20Z</time>
      </trkpt>
      <trkpt lat="48.80555" lon="7.29877">
        <ele>255.5</ele>
        <time>2026-03-12T11:38:25Z</time>
      </trkpt>
      <trkpt lat="48.80554" lon="7.29886">
        <ele>254.4</ele>
        <time>2026-03-12T11:38:30Z</time>
      </trkpt>
      <trkpt lat="48.80553" lon="7.29893">
        <ele>253.7</ele>
        <time>2026-03-12T11:38:35Z</time>
      </trkpt>
      <trkpt lat="48.80551" lon="7.29902">
        <ele>253.2</ele>
        <time>2026-03-12T11:38:40Z</time>
      </trkpt>
      <trkpt lat="48.80547" lon="7.29914">
        <ele>253.4</ele>
        <time>2026-03-12T11:38:45Z</time>
      </trkpt>
      <trkpt lat="48.80546" lon="7.29924">
        <ele>251.5</ele>
        <time>2026-03-12T11:38:50Z</time>
      </trkpt>
      <trkpt lat="48.80543" lon="7.29933">
        <ele>250.6</ele>
        <time>2026-03-12T11:38:55Z</time>
      </trkpt>
      <trkpt lat="48.8054" lon="7.29944">
        <ele>249.2</ele>
        <time>2026-03-12T11:39:00Z</time>
      </trkpt>
      <trkpt lat="48.80534" lon="7.29952">
        <ele>250.3</ele>
        <time>2026-03-12T11:39:05Z</time>
      </trkpt>
      <trkpt lat="48.80531" lon="7.29959">
        <ele>249.9</ele>
        <time>2026-03-12T11:39:10Z</time>
      </trkpt>
      <trkpt lat="48.80526" lon="7.29968">
        <ele>250</ele>
        <time>2026-03-12T11:39:15Z</time>
      </trkpt>
      <trkpt lat="48.80521" lon="7.29976">
        <ele>250.3</ele>
        <time>2026-03-12T11:39:20Z</time>
      </trkpt>
      <trkpt lat="48.80516" lon="7.29982">
        <ele>251.2</ele>
        <time>2026-03-12T11:39:25Z</time>
      </trkpt>
      <trkpt lat="48.80511" lon="7.29987">
        <ele>252.3</ele>
        <time>2026-03-12T11:39:30Z</time>
      </trkpt>
      <trkpt lat="48.80506" lon="7.29992">
        <ele>253.4</ele>
        <time>2026-03-12T11:39:35Z</time>
      </trkpt>
      <trkpt lat="48.80503" lon="7.29999">
        <ele>252.8</ele>
        <time>2026-03-12T11:39:40Z</time>
      </trkpt>
      <trkpt lat="48.80499" lon="7.30007">
        <ele>251.3</ele>
        <time>2026-03-12T11:39:45Z</time>
      </trkpt>
      <trkpt lat="48.80496" lon="7.30016">
        <ele>248.3</ele>
        <time>2026-03-12T11:39:50Z</time>
      </trkpt>
      <trkpt lat="48.8049" lon="7.30023">
        <ele>247</ele>
        <time>2026-03-12T11:39:55Z</time>
      </trkpt>
      <trkpt lat="48.80485" lon="7.3003">
        <ele>245.6</ele>
        <time>2026-03-12T11:40:00Z</time>
      </trkpt>
      <trkpt lat="48.80481" lon="7.30035">
        <ele>244.7</ele>
        <time>2026-03-12T11:40:05Z</time>
      </trkpt>
      <trkpt lat="48.80477" lon="7.30041">
        <ele>243.5</ele>
        <time>2026-03-12T11:40:10Z</time>
      </trkpt>
      <trkpt lat="48.80473" lon="7.30049">
        <ele>241.6</ele>
        <time>2026-03-12T11:40:15Z</time>
      </trkpt>
      <trkpt lat="48.80466" lon="7.30058">
        <ele>240.4</ele>
        <time>2026-03-12T11:40:20Z</time>
      </trkpt>
      <trkpt lat="48.80461" lon="7.30064">
        <ele>239.7</ele>
        <time>2026-03-12T11:40:25Z</time>
      </trkpt>
      <trkpt lat="48.80457" lon="7.3007">
        <ele>238.8</ele>
        <time>2026-03-12T11:40:30Z</time>
      </trkpt>
      <trkpt lat="48.80451" lon="7.30076">
        <ele>238.7</ele>
        <time>2026-03-12T11:40:35Z</time>
      </trkpt>
      <trkpt lat="48.80446" lon="7.30081">
        <ele>238.6</ele>
        <time>2026-03-12T11:40:40Z</time>
      </trkpt>
      <trkpt lat="48.80441" lon="7.30091">
        <ele>237.5</ele>
        <time>2026-03-12T11:40:45Z</time>
      </trkpt>
      <trkpt lat="48.80439" lon="7.30097">
        <ele>236.5</ele>
        <time>2026-03-12T11:40:50Z</time>
      </trkpt>
      <trkpt lat="48.80441" lon="7.301">
        <ele>235</ele>
        <time>2026-03-12T11:40:55Z</time>
      </trkpt>
      <trkpt lat="48.80441" lon="7.30102">
        <ele>234.5</ele>
        <time>2026-03-12T11:41:00Z</time>
      </trkpt>
      <trkpt lat="48.80437" lon="7.30107">
        <ele>234.5</ele>
        <time>2026-03-12T11:41:05Z</time>
      </trkpt>
      <trkpt lat="48.80432" lon="7.30111">
        <ele>235.2</ele>
        <time>2026-03-12T11:41:10Z</time>
      </trkpt>
      <trkpt lat="48.80428" lon="7.30115">
        <ele>235.4</ele>
        <time>2026-03-12T11:41:15Z</time>
      </trkpt>
      <trkpt lat="48.80424" lon="7.30121">
        <ele>235.1</ele>
        <time>2026-03-12T11:41:20Z</time>
      </trkpt>
      <trkpt lat="48.8042" lon="7.30126">
        <ele>235.1</ele>
        <time>2026-03-12T11:41:25Z</time>
      </trkpt>
      <trkpt lat="48.80417" lon="7.30126">
        <ele>236.1</ele>
        <time>2026-03-12T11:41:30Z</time>
      </trkpt>
      <trkpt lat="48.80413" lon="7.3013">
        <ele>236.4</ele>
        <time>2026-03-12T11:41:35Z</time>
      </trkpt>
      <trkpt lat="48.80408" lon="7.30135">
        <ele>236.9</ele>
        <time>2026-03-12T11:41:40Z</time>
      </trkpt>
      <trkpt lat="48.80405" lon="7.30139">
        <ele>237</ele>
        <time>2026-03-12T11:41:45Z</time>
      </trkpt>
      <trkpt lat="48.80398" lon="7.30147">
        <ele>237.6</ele>
        <time>2026-03-12T11:41:50Z</time>
      </trkpt>
      <trkpt lat="48.8039" lon="7.30154">
        <ele>239.1</ele>
        <time>2026-03-12T11:41:55Z</time>
      </trkpt>
      <trkpt lat="48.80384" lon="7.30159">
        <ele>240.4</ele>
        <time>2026-03-12T11:42:00Z</time>
      </trkpt>
      <trkpt lat="48.80378" lon="7.30166">
        <ele>241.4</ele>
        <time>2026-03-12T11:42:05Z</time>
      </trkpt>
      <trkpt lat="48.80373" lon="7.3017">
        <ele>242.7</ele>
        <time>2026-03-12T11:42:10Z</time>
      </trkpt>
      <trkpt lat="48.80365" lon="7.30176">
        <ele>245</ele>
        <time>2026-03-12T11:42:15Z</time>
      </trkpt>
      <trkpt lat="48.80359" lon="7.30182">
        <ele>246.3</ele>
        <time>2026-03-12T11:42:20Z</time>
      </trkpt>
      <trkpt lat="48.80355" lon="7.30192">
        <ele>246</ele>
        <time>2026-03-12T11:42:25Z</time>
      </trkpt>
      <trkpt lat="48.8035" lon="7.30198">
        <ele>246.9</ele>
        <time>2026-03-12T11:42:30Z</time>
      </trkpt>
      <trkpt lat="48.80348" lon="7.30203">
        <ele>246.7</ele>
        <time>2026-03-12T11:42:35Z</time>
      </trkpt>
      <trkpt lat="48.80345" lon="7.30211">
        <ele>246.4</ele>
        <time>2026-03-12T11:42:40Z</time>
      </trkpt>
      <trkpt lat="48.80341" lon="7.30215">
        <ele>247.1</ele>
        <time>2026-03-12T11:42:45Z</time>
      </trkpt>
      <trkpt lat="48.80337" lon="7.3022">
        <ele>247.7</ele>
        <time>2026-03-12T11:42:50Z</time>
      </trkpt>
      <trkpt lat="48.80334" lon="7.30225">
        <ele>247.8</ele>
        <time>2026-03-12T11:42:55Z</time>
      </trkpt>
      <trkpt lat="48.80331" lon="7.3023">
        <ele>248.2</ele>
        <time>2026-03-12T11:43:00Z</time>
      </trkpt>
      <trkpt lat="48.80326" lon="7.30235">
        <ele>249.6</ele>
        <time>2026-03-12T11:43:05Z</time>
      </trkpt>
      <trkpt lat="48.80322" lon="7.30241">
        <ele>250.4</ele>
        <time>2026-03-12T11:43:10Z</time>
      </trkpt>
      <trkpt lat="48.80316" lon="7.30248">
        <ele>252.1</ele>
        <time>2026-03-12T11:43:15Z</time>
      </trkpt>
      <trkpt lat="48.80312" lon="7.30257">
        <ele>252.6</ele>
        <time>2026-03-12T11:43:20Z</time>
      </trkpt>
      <trkpt lat="48.80309" lon="7.30267">
        <ele>252.5</ele>
        <time>2026-03-12T11:43:25Z</time>
      </trkpt>
      <trkpt lat="48.80306" lon="7.30274">
        <ele>252.8</ele>
        <time>2026-03-12T11:43:30Z</time>
      </trkpt>
      <trkpt lat="48.80303" lon="7.30285">
        <ele>252.6</ele>
        <time>2026-03-12T11:43:35Z</time>
      </trkpt>
      <trkpt lat="48.803" lon="7.30294">
        <ele>252.6</ele>
        <time>2026-03-12T11:43:40Z</time>
      </trkpt>
      <trkpt lat="48.80298" lon="7.30303">
        <ele>252.2</ele>
        <time>2026-03-12T11:43:45Z</time>
      </trkpt>
      <trkpt lat="48.80296" lon="7.30313">
        <ele>251.6</ele>
        <time>2026-03-12T11:43:50Z</time>
      </trkpt>
      <trkpt lat="48.80295" lon="7.30319">
        <ele>251.1</ele>
        <time>2026-03-12T11:43:55Z</time>
      </trkpt>
      <trkpt lat="48.80292" lon="7.30328">
        <ele>251.2</ele>
        <time>2026-03-12T11:44:00Z</time>
      </trkpt>
      <trkpt lat="48.8029" lon="7.30338">
        <ele>250.6</ele>
        <time>2026-03-12T11:44:05Z</time>
      </trkpt>
      <trkpt lat="48.80289" lon="7.30347">
        <ele>249.5</ele>
        <time>2026-03-12T11:44:10Z</time>
      </trkpt>
      <trkpt lat="48.80285" lon="7.30358">
        <ele>249.7</ele>
        <time>2026-03-12T11:44:15Z</time>
      </trkpt>
      <trkpt lat="48.80282" lon="7.30371">
        <ele>248.8</ele>
        <time>2026-03-12T11:44:20Z</time>
      </trkpt>
      <trkpt lat="48.80278" lon="7.30385">
        <ele>248.3</ele>
        <time>2026-03-12T11:44:25Z</time>
      </trkpt>
      <trkpt lat="48.80272" lon="7.30398">
        <ele>248.7</ele>
        <time>2026-03-12T11:44:30Z</time>
      </trkpt>
      <trkpt lat="48.80269" lon="7.30409">
        <ele>248</ele>
        <time>2026-03-12T11:44:35Z</time>
      </trkpt>
      <trkpt lat="48.80267" lon="7.30419">
        <ele>247</ele>
        <time>2026-03-12T11:44:40Z</time>
      </trkpt>
      <trkpt lat="48.80264" lon="7.3043">
        <ele>246.2</ele>
        <time>2026-03-12T11:44:45Z</time>
      </trkpt>
      <trkpt lat="48.80261" lon="7.30439">
        <ele>245.6</ele>
        <time>2026-03-12T11:44:50Z</time>
      </trkpt>
      <trkpt lat="48.80259" lon="7.30446">
        <ele>245</ele>
        <time>2026-03-12T11:44:55Z</time>
      </trkpt>
      <trkpt lat="48.80258" lon="7.3045">
        <ele>244.6</ele>
        <time>2026-03-12T11:45:00Z</time>
      </trkpt>
      <trkpt lat="48.80257" lon="7.30455">
        <ele>244</ele>
        <time>2026-03-12T11:45:05Z</time>
      </trkpt>
      <trkpt lat="48.80254" lon="7.30461">
        <ele>243.9</ele>
        <time>2026-03-12T11:45:10Z</time>
      </trkpt>
      <trkpt lat="48.80252" lon="7.30468">
        <ele>243.2</ele>
        <time>2026-03-12T11:45:15Z</time>
      </trkpt>
      <trkpt lat="48.8025" lon="7.30477">
        <ele>242</ele>
        <time>2026-03-12T11:45:20Z</time>
      </trkpt>
      <trkpt lat="48.80247" lon="7.30485">
        <ele>240.9</ele>
        <time>2026-03-12T11:45:25Z</time>
      </trkpt>
      <trkpt lat="48.80244" lon="7.30494">
        <ele>239.7</ele>
        <time>2026-03-12T11:45:30Z</time>
      </trkpt>
      <trkpt lat="48.80243" lon="7.30502">
        <ele>238.2</ele>
        <time>2026-03-12T11:45:35Z</time>
      </trkpt>
      <trkpt lat="48.8024" lon="7.30509">
        <ele>237.7</ele>
        <time>2026-03-12T11:45:40Z</time>
      </trkpt>
      <trkpt lat="48.80237" lon="7.30517">
        <ele>236.9</ele>
        <time>2026-03-12T11:45:45Z</time>
      </trkpt>
      <trkpt lat="48.80232" lon="7.30522">
        <ele>237.1</ele>
        <time>2026-03-12T11:45:50Z</time>
      </trkpt>
      <trkpt lat="48.80229" lon="7.3053">
        <ele>236.3</ele>
        <time>2026-03-12T11:45:55Z</time>
      </trkpt>
      <trkpt lat="48.80226" lon="7.30539">
        <ele>235.2</ele>
        <time>2026-03-12T11:46:00Z</time>
      </trkpt>
      <trkpt lat="48.80224" lon="7.30547">
        <ele>234.2</ele>
        <time>2026-03-12T11:46:05Z</time>
      </trkpt>
      <trkpt lat="48.80221" lon="7.30556">
        <ele>233</ele>
        <time>2026-03-12T11:46:10Z</time>
      </trkpt>
      <trkpt lat="48.80218" lon="7.30565">
        <ele>231.9</ele>
        <time>2026-03-12T11:46:15Z</time>
      </trkpt>
      <trkpt lat="48.80218" lon="7.30574">
        <ele>230.2</ele>
        <time>2026-03-12T11:46:20Z</time>
      </trkpt>
      <trkpt lat="48.80216" lon="7.30582">
        <ele>229</ele>
        <time>2026-03-12T11:46:25Z</time>
      </trkpt>
      <trkpt lat="48.80214" lon="7.3059">
        <ele>227.7</ele>
        <time>2026-03-12T11:46:30Z</time>
      </trkpt>
      <trkpt lat="48.8021" lon="7.306">
        <ele>226.4</ele>
        <time>2026-03-12T11:46:35Z</time>
      </trkpt>
      <trkpt lat="48.80206" lon="7.30606">
        <ele>225.9</ele>
        <time>2026-03-12T11:46:40Z</time>
      </trkpt>
      <trkpt lat="48.80201" lon="7.30612">
        <ele>225.6</ele>
        <time>2026-03-12T11:46:45Z</time>
      </trkpt>
      <trkpt lat="48.80197" lon="7.30617">
        <ele>225.3</ele>
        <time>2026-03-12T11:46:50Z</time>
      </trkpt>
      <trkpt lat="48.80193" lon="7.30624">
        <ele>224.6</ele>
        <time>2026-03-12T11:46:55Z</time>
      </trkpt>
      <trkpt lat="48.80189" lon="7.30628">
        <ele>224.5</ele>
        <time>2026-03-12T11:47:00Z</time>
      </trkpt>
      <trkpt lat="48.80185" lon="7.30634">
        <ele>224.1</ele>
        <time>2026-03-12T11:47:05Z</time>
      </trkpt>
      <trkpt lat="48.8018" lon="7.30636">
        <ele>224.5</ele>
        <time>2026-03-12T11:47:10Z</time>
      </trkpt>
      <trkpt lat="48.80179" lon="7.30634">
        <ele>225.1</ele>
        <time>2026-03-12T11:47:15Z</time>
      </trkpt>
      <trkpt lat="48.80179" lon="7.30634">
        <ele>225.1</ele>
        <time>2026-03-12T11:47:20Z</time>
      </trkpt>
      <trkpt lat="48.80179" lon="7.30634">
        <ele>225.1</ele>
        <time>2026-03-12T11:47:25Z</time>
      </trkpt>
      <trkpt lat="48.80175" lon="7.30647">
        <ele>223.3</ele>
        <time>2026-03-12T11:47:30Z</time>
      </trkpt>
      <trkpt lat="48.80171" lon="7.30653">
        <ele>222.9</ele>
        <time>2026-03-12T11:47:35Z</time>
      </trkpt>
      <trkpt lat="48.80167" lon="7.30657">
        <ele>222.8</ele>
        <time>2026-03-12T11:47:40Z</time>
      </trkpt>
      <trkpt lat="48.80164" lon="7.30664">
        <ele>221.9</ele>
        <time>2026-03-12T11:47:45Z</time>
      </trkpt>
      <trkpt lat="48.8016" lon="7.30668">
        <ele>221.7</ele>
        <time>2026-03-12T11:47:50Z</time>
      </trkpt>
      <trkpt lat="48.80155" lon="7.30674">
        <ele>221.3</ele>
        <time>2026-03-12T11:47:55Z</time>
      </trkpt>
      <trkpt lat="48.80148" lon="7.30679">
        <ele>221.4</ele>
        <time>2026-03-12T11:48:00Z</time>
      </trkpt>
      <trkpt lat="48.80143" lon="7.30685">
        <ele>220.9</ele>
        <time>2026-03-12T11:48:05Z</time>
      </trkpt>
      <trkpt lat="48.80136" lon="7.3069">
        <ele>220.9</ele>
        <time>2026-03-12T11:48:10Z</time>
      </trkpt>
      <trkpt lat="48.80129" lon="7.30692">
        <ele>221.5</ele>
        <time>2026-03-12T11:48:15Z</time>
      </trkpt>
      <trkpt lat="48.80125" lon="7.30694">
        <ele>221.6</ele>
        <time>2026-03-12T11:48:20Z</time>
      </trkpt>
      <trkpt lat="48.80118" lon="7.307">
        <ele>221.3</ele>
        <time>2026-03-12T11:48:25Z</time>
      </trkpt>
      <trkpt lat="48.80111" lon="7.30706">
        <ele>221</ele>
        <time>2026-03-12T11:48:30Z</time>
      </trkpt>
      <trkpt lat="48.80104" lon="7.30708">
        <ele>221.5</ele>
        <time>2026-03-12T11:48:35Z</time>
      </trkpt>
      <trkpt lat="48.80099" lon="7.30711">
        <ele>221.5</ele>
        <time>2026-03-12T11:48:40Z</time>
      </trkpt>
      <trkpt lat="48.80095" lon="7.30714">
        <ele>221.3</ele>
        <time>2026-03-12T11:48:45Z</time>
      </trkpt>
      <trkpt lat="48.8009" lon="7.30717">
        <ele>221.3</ele>
        <time>2026-03-12T11:48:50Z</time>
      </trkpt>
      <trkpt lat="48.80084" lon="7.30719">
        <ele>221.6</ele>
        <time>2026-03-12T11:48:55Z</time>
      </trkpt>
      <trkpt lat="48.80076" lon="7.30722">
        <ele>221.5</ele>
        <time>2026-03-12T11:49:00Z</time>
      </trkpt>
      <trkpt lat="48.80069" lon="7.30724">
        <ele>221.6</ele>
        <time>2026-03-12T11:49:05Z</time>
      </trkpt>
      <trkpt lat="48.80061" lon="7.30726">
        <ele>221.8</ele>
        <time>2026-03-12T11:49:10Z</time>
      </trkpt>
      <trkpt lat="48.80056" lon="7.30731">
        <ele>221.3</ele>
        <time>2026-03-12T11:49:15Z</time>
      </trkpt>
      <trkpt lat="48.8005" lon="7.30734">
        <ele>221.3</ele>
        <time>2026-03-12T11:49:20Z</time>
      </trkpt>
      <trkpt lat="48.80045" lon="7.3074">
        <ele>220.7</ele>
        <time>2026-03-12T11:49:25Z</time>
      </trkpt>
      <trkpt lat="48.80039" lon="7.30744">
        <ele>220.7</ele>
        <time>2026-03-12T11:49:30Z</time>
      </trkpt>
      <trkpt lat="48.80034" lon="7.30751">
        <ele>220.2</ele>
        <time>2026-03-12T11:49:35Z</time>
      </trkpt>
      <trkpt lat="48.80028" lon="7.30758">
        <ele>219.6</ele>
        <time>2026-03-12T11:49:40Z</time>
      </trkpt>
      <trkpt lat="48.80022" lon="7.30768">
        <ele>218.4</ele>
        <time>2026-03-12T11:49:45Z</time>
      </trkpt>
      <trkpt lat="48.80017" lon="7.30776">
        <ele>217.5</ele>
        <time>2026-03-12T11:49:50Z</time>
      </trkpt>
      <trkpt lat="48.80011" lon="7.30783">
        <ele>216.9</ele>
        <time>2026-03-12T11:49:55Z</time>
      </trkpt>
      <trkpt lat="48.80005" lon="7.30789">
        <ele>216.5</ele>
        <time>2026-03-12T11:50:00Z</time>
      </trkpt>
      <trkpt lat="48.79999" lon="7.30797">
        <ele>215.4</ele>
        <time>2026-03-12T11:50:05Z</time>
      </trkpt>
      <trkpt lat="48.79995" lon="7.308">
        <ele>214.4</ele>
        <time>2026-03-12T11:50:10Z</time>
      </trkpt>
      <trkpt lat="48.79992" lon="7.30803">
        <ele>213.5</ele>
        <time>2026-03-12T11:50:15Z</time>
      </trkpt>
      <trkpt lat="48.79991" lon="7.30809">
        <ele>212.4</ele>
        <time>2026-03-12T11:50:20Z</time>
      </trkpt>
      <trkpt lat="48.79989" lon="7.30819">
        <ele>210.6</ele>
        <time>2026-03-12T11:50:25Z</time>
      </trkpt>
      <trkpt lat="48.79985" lon="7.30824">
        <ele>209.4</ele>
        <time>2026-03-12T11:50:30Z</time>
      </trkpt>
      <trkpt lat="48.79979" lon="7.30829">
        <ele>208.1</ele>
        <time>2026-03-12T11:50:35Z</time>
      </trkpt>
      <trkpt lat="48.79975" lon="7.30836">
        <ele>206.9</ele>
        <time>2026-03-12T11:50:40Z</time>
      </trkpt>
      <trkpt lat="48.79971" lon="7.3084">
        <ele>206.1</ele>
        <time>2026-03-12T11:50:45Z</time>
      </trkpt>
      <trkpt lat="48.79967" lon="7.30848">
        <ele>204.8</ele>
        <time>2026-03-12T11:50:50Z</time>
      </trkpt>
      <trkpt lat="48.79964" lon="7.30855">
        <ele>203.8</ele>
        <time>2026-03-12T11:50:55Z</time>
      </trkpt>
      <trkpt lat="48.7996" lon="7.30861">
        <ele>202.9</ele>
        <time>2026-03-12T11:51:00Z</time>
      </trkpt>
      <trkpt lat="48.79957" lon="7.30868">
        <ele>202</ele>
        <time>2026-03-12T11:51:05Z</time>
      </trkpt>
      <trkpt lat="48.79958" lon="7.30875">
        <ele>201.2</ele>
        <time>2026-03-12T11:51:10Z</time>
      </trkpt>
      <trkpt lat="48.79961" lon="7.3088">
        <ele>200.7</ele>
        <time>2026-03-12T11:51:15Z</time>
      </trkpt>
      <trkpt lat="48.79962" lon="7.3088">
        <ele>200.8</ele>
        <time>2026-03-12T11:51:20Z</time>
      </trkpt>
      <trkpt lat="48.79962" lon="7.3088">
        <ele>200.8</ele>
        <time>2026-03-12T11:51:25Z</time>
      </trkpt>
      <trkpt lat="48.79962" lon="7.3088">
        <ele>200.8</ele>
        <time>2026-03-12T11:51:30Z</time>
      </trkpt>
      <trkpt lat="48.7996" lon="7.30877">
        <ele>201.1</ele>
        <time>2026-03-12T11:51:35Z</time>
      </trkpt>
      <trkpt lat="48.79951" lon="7.3088">
        <ele>200.5</ele>
        <time>2026-03-12T11:51:40Z</time>
      </trkpt>
      <trkpt lat="48.79947" lon="7.30887">
        <ele>199.7</ele>
        <time>2026-03-12T11:51:45Z</time>
      </trkpt>
      <trkpt lat="48.79942" lon="7.30893">
        <ele>199</ele>
        <time>2026-03-12T11:51:50Z</time>
      </trkpt>
      <trkpt lat="48.79937" lon="7.30896">
        <ele>198.7</ele>
        <time>2026-03-12T11:51:55Z</time>
      </trkpt>
      <trkpt lat="48.79934" lon="7.30898">
        <ele>198.5</ele>
        <time>2026-03-12T11:52:00Z</time>
      </trkpt>
      <trkpt lat="48.79927" lon="7.30902">
        <ele>198.1</ele>
        <time>2026-03-12T11:52:05Z</time>
      </trkpt>
      <trkpt lat="48.79921" lon="7.30904">
        <ele>197.9</ele>
        <time>2026-03-12T11:52:10Z</time>
      </trkpt>
      <trkpt lat="48.79917" lon="7.30907">
        <ele>197.7</ele>
        <time>2026-03-12T11:52:15Z</time>
      </trkpt>
      <trkpt lat="48.79911" lon="7.30907">
        <ele>199.3</ele>
        <time>2026-03-12T11:52:20Z</time>
      </trkpt>
      <trkpt lat="48.79907" lon="7.30906">
        <ele>200.5</ele>
        <time>2026-03-12T11:52:25Z</time>
      </trkpt>
      <trkpt lat="48.79901" lon="7.30904">
        <ele>202.3</ele>
        <time>2026-03-12T11:52:30Z</time>
      </trkpt>
      <trkpt lat="48.79897" lon="7.30902">
        <ele>203.7</ele>
        <time>2026-03-12T11:52:35Z</time>
      </trkpt>
      <trkpt lat="48.7989" lon="7.30901">
        <ele>205.8</ele>
        <time>2026-03-12T11:52:40Z</time>
      </trkpt>
      <trkpt lat="48.79887" lon="7.30897">
        <ele>207.1</ele>
        <time>2026-03-12T11:52:45Z</time>
      </trkpt>
      <trkpt lat="48.79884" lon="7.30892">
        <ele>208.6</ele>
        <time>2026-03-12T11:52:50Z</time>
      </trkpt>
      <trkpt lat="48.79882" lon="7.30886">
        <ele>209.9</ele>
        <time>2026-03-12T11:52:55Z</time>
      </trkpt>
      <trkpt lat="48.7988" lon="7.30878">
        <ele>211.5</ele>
        <time>2026-03-12T11:53:00Z</time>
      </trkpt>
      <trkpt lat="48.79878" lon="7.30871">
        <ele>213</ele>
        <time>2026-03-12T11:53:05Z</time>
      </trkpt>
      <trkpt lat="48.79878" lon="7.30866">
        <ele>213.7</ele>
        <time>2026-03-12T11:53:10Z</time>
      </trkpt>
      <trkpt lat="48.79876" lon="7.30862">
        <ele>214.9</ele>
        <time>2026-03-12T11:53:15Z</time>
      </trkpt>
      <trkpt lat="48.79876" lon="7.30861">
        <ele>215</ele>
        <time>2026-03-12T11:53:20Z</time>
      </trkpt>
      <trkpt lat="48.79876" lon="7.30861">
        <ele>215</ele>
        <time>2026-03-12T11:53:25Z</time>
      </trkpt>
      <trkpt lat="48.79872" lon="7.30852">
        <ele>217.6</ele>
        <time>2026-03-12T11:53:30Z</time>
      </trkpt>
      <trkpt lat="48.79869" lon="7.30849">
        <ele>219.1</ele>
        <time>2026-03-12T11:53:35Z</time>
      </trkpt>
      <trkpt lat="48.79869" lon="7.30841">
        <ele>220.2</ele>
        <time>2026-03-12T11:53:40Z</time>
      </trkpt>
      <trkpt lat="48.79866" lon="7.30834">
        <ele>222.4</ele>
        <time>2026-03-12T11:53:45Z</time>
      </trkpt>
      <trkpt lat="48.79863" lon="7.30828">
        <ele>223.8</ele>
        <time>2026-03-12T11:53:50Z</time>
      </trkpt>
      <trkpt lat="48.79862" lon="7.30821">
        <ele>224.5</ele>
        <time>2026-03-12T11:53:55Z</time>
      </trkpt>
      <trkpt lat="48.7986" lon="7.30815">
        <ele>225.6</ele>
        <time>2026-03-12T11:54:00Z</time>
      </trkpt>
      <trkpt lat="48.79858" lon="7.30806">
        <ele>226.7</ele>
        <time>2026-03-12T11:54:05Z</time>
      </trkpt>
      <trkpt lat="48.79855" lon="7.308">
        <ele>228.1</ele>
        <time>2026-03-12T11:54:10Z</time>
      </trkpt>
      <trkpt lat="48.79852" lon="7.30792">
        <ele>229.5</ele>
        <time>2026-03-12T11:54:15Z</time>
      </trkpt>
      <trkpt lat="48.79845" lon="7.30783">
        <ele>232.5</ele>
        <time>2026-03-12T11:54:20Z</time>
      </trkpt>
      <trkpt lat="48.79841" lon="7.30776">
        <ele>234.2</ele>
        <time>2026-03-12T11:54:25Z</time>
      </trkpt>
      <trkpt lat="48.79833" lon="7.30769">
        <ele>237.4</ele>
        <time>2026-03-12T11:54:30Z</time>
      </trkpt>
      <trkpt lat="48.79829" lon="7.30767">
        <ele>238.9</ele>
        <time>2026-03-12T11:54:35Z</time>
      </trkpt>
      <trkpt lat="48.79829" lon="7.30767">
        <ele>238.9</ele>
        <time>2026-03-12T11:54:40Z</time>
      </trkpt>
      <trkpt lat="48.79829" lon="7.30767">
        <ele>238.9</ele>
        <time>2026-03-12T11:54:45Z</time>
      </trkpt>
      <trkpt lat="48.79829" lon="7.30767">
        <ele>238.9</ele>
        <time>2026-03-12T11:54:50Z</time>
      </trkpt>
      <trkpt lat="48.79829" lon="7.30767">
        <ele>238.9</ele>
        <time>2026-03-12T11:54:55Z</time>
      </trkpt>
      <trkpt lat="48.79829" lon="7.30767">
        <ele>238.9</ele>
        <time>2026-03-12T11:55:00Z</time>
      </trkpt>
      <trkpt lat="48.79831" lon="7.30761">
        <ele>238.4</ele>
        <time>2026-03-12T11:55:05Z</time>
      </trkpt>
      <trkpt lat="48.79832" lon="7.30755">
        <ele>238.3</ele>
        <time>2026-03-12T11:55:10Z</time>
      </trkpt>
      <trkpt lat="48.79833" lon="7.30754">
        <ele>238</ele>
        <time>2026-03-12T11:55:15Z</time>
      </trkpt>
      <trkpt lat="48.79834" lon="7.30755">
        <ele>237.6</ele>
        <time>2026-03-12T11:55:20Z</time>
      </trkpt>
      <trkpt lat="48.79832" lon="7.30764">
        <ele>238</ele>
        <time>2026-03-12T11:55:25Z</time>
      </trkpt>
      <trkpt lat="48.79829" lon="7.30774">
        <ele>238.6</ele>
        <time>2026-03-12T11:55:30Z</time>
      </trkpt>
      <trkpt lat="48.79825" lon="7.30782">
        <ele>239.6</ele>
        <time>2026-03-12T11:55:35Z</time>
      </trkpt>
      <trkpt lat="48.79821" lon="7.30791">
        <ele>240.5</ele>
        <time>2026-03-12T11:55:40Z</time>
      </trkpt>
      <trkpt lat="48.79817" lon="7.30799">
        <ele>241.4</ele>
        <time>2026-03-12T11:55:45Z</time>
      </trkpt>
      <trkpt lat="48.79816" lon="7.30811">
        <ele>241</ele>
        <time>2026-03-12T11:55:50Z</time>
      </trkpt>
      <trkpt lat="48.79815" lon="7.3082">
        <ele>240.8</ele>
        <time>2026-03-12T11:55:55Z</time>
      </trkpt>
      <trkpt lat="48.7981" lon="7.30829">
        <ele>241.7</ele>
        <time>2026-03-12T11:56:00Z</time>
      </trkpt>
      <trkpt lat="48.79805" lon="7.30841">
        <ele>241.4</ele>
        <time>2026-03-12T11:56:05Z</time>
      </trkpt>
      <trkpt lat="48.79805" lon="7.30853">
        <ele>239.2</ele>
        <time>2026-03-12T11:56:10Z</time>
      </trkpt>
      <trkpt lat="48.79803" lon="7.30864">
        <ele>237.8</ele>
        <time>2026-03-12T11:56:15Z</time>
      </trkpt>
      <trkpt lat="48.79804" lon="7.30877">
        <ele>235.1</ele>
        <time>2026-03-12T11:56:20Z</time>
      </trkpt>
      <trkpt lat="48.79803" lon="7.30887">
        <ele>233.5</ele>
        <time>2026-03-12T11:56:25Z</time>
      </trkpt>
      <trkpt lat="48.79802" lon="7.30897">
        <ele>232</ele>
        <time>2026-03-12T11:56:30Z</time>
      </trkpt>
      <trkpt lat="48.79802" lon="7.30904">
        <ele>230.7</ele>
        <time>2026-03-12T11:56:35Z</time>
      </trkpt>
      <trkpt lat="48.79802" lon="7.30919">
        <ele>228.1</ele>
        <time>2026-03-12T11:56:40Z</time>
      </trkpt>
      <trkpt lat="48.79803" lon="7.3093">
        <ele>226.2</ele>
        <time>2026-03-12T11:56:45Z</time>
      </trkpt>
      <trkpt lat="48.79803" lon="7.3094">
        <ele>224.7</ele>
        <time>2026-03-12T11:56:50Z</time>
      </trkpt>
      <trkpt lat="48.79802" lon="7.30948">
        <ele>223.8</ele>
        <time>2026-03-12T11:56:55Z</time>
      </trkpt>
      <trkpt lat="48.79801" lon="7.3096">
        <ele>222.4</ele>
        <time>2026-03-12T11:57:00Z</time>
      </trkpt>
      <trkpt lat="48.79802" lon="7.3097">
        <ele>220.6</ele>
        <time>2026-03-12T11:57:05Z</time>
      </trkpt>
      <trkpt lat="48.79804" lon="7.30978">
        <ele>218.9</ele>
        <time>2026-03-12T11:57:10Z</time>
      </trkpt>
      <trkpt lat="48.79804" lon="7.30984">
        <ele>218.1</ele>
        <time>2026-03-12T11:57:15Z</time>
      </trkpt>
      <trkpt lat="48.79805" lon="7.30994">
        <ele>216.3</ele>
        <time>2026-03-12T11:57:20Z</time>
      </trkpt>
      <trkpt lat="48.79807" lon="7.31005">
        <ele>214.7</ele>
        <time>2026-03-12T11:57:25Z</time>
      </trkpt>
      <trkpt lat="48.79808" lon="7.31013">
        <ele>214.1</ele>
        <time>2026-03-12T11:57:30Z</time>
      </trkpt>
      <trkpt lat="48.79811" lon="7.31025">
        <ele>212.9</ele>
        <time>2026-03-12T11:57:35Z</time>
      </trkpt>
      <trkpt lat="48.79815" lon="7.31035">
        <ele>211.5</ele>
        <time>2026-03-12T11:57:40Z</time>
      </trkpt>
      <trkpt lat="48.79818" lon="7.31047">
        <ele>210.4</ele>
        <time>2026-03-12T11:57:45Z</time>
      </trkpt>
      <trkpt lat="48.79821" lon="7.31053">
        <ele>209.5</ele>
        <time>2026-03-12T11:57:50Z</time>
      </trkpt>
      <trkpt lat="48.79825" lon="7.31062">
        <ele>208.3</ele>
        <time>2026-03-12T11:57:55Z</time>
      </trkpt>
      <trkpt lat="48.79829" lon="7.31072">
        <ele>207.2</ele>
        <time>2026-03-12T11:58:00Z</time>
      </trkpt>
      <trkpt lat="48.79833" lon="7.31081">
        <ele>206.1</ele>
        <time>2026-03-12T11:58:05Z</time>
      </trkpt>
      <trkpt lat="48.7984" lon="7.31088">
        <ele>204.9</ele>
        <time>2026-03-12T11:58:10Z</time>
      </trkpt>
      <trkpt lat="48.7985" lon="7.31095">
        <ele>203.3</ele>
        <time>2026-03-12T11:58:15Z</time>
      </trkpt>
      <trkpt lat="48.79855" lon="7.31099">
        <ele>202.5</ele>
        <time>2026-03-12T11:58:20Z</time>
      </trkpt>
      <trkpt lat="48.79861" lon="7.31102">
        <ele>201.5</ele>
        <time>2026-03-12T11:58:25Z</time>
      </trkpt>
      <trkpt lat="48.79867" lon="7.31106">
        <ele>200.6</ele>
        <time>2026-03-12T11:58:30Z</time>
      </trkpt>
      <trkpt lat="48.7987" lon="7.31115">
        <ele>200.1</ele>
        <time>2026-03-12T11:58:35Z</time>
      </trkpt>
      <trkpt lat="48.79865" lon="7.3112">
        <ele>200.8</ele>
        <time>2026-03-12T11:58:40Z</time>
      </trkpt>
      <trkpt lat="48.79858" lon="7.31124">
        <ele>201.8</ele>
        <time>2026-03-12T11:58:45Z</time>
      </trkpt>
      <trkpt lat="48.79852" lon="7.31131">
        <ele>202.6</ele>
        <time>2026-03-12T11:58:50Z</time>
      </trkpt>
      <trkpt lat="48.79846" lon="7.31139">
        <ele>203.5</ele>
        <time>2026-03-12T11:58:55Z</time>
      </trkpt>
      <trkpt lat="48.79838" lon="7.31145">
        <ele>204.6</ele>
        <time>2026-03-12T11:59:00Z</time>
      </trkpt>
      <trkpt lat="48.79831" lon="7.31154">
        <ele>205.7</ele>
        <time>2026-03-12T11:59:05Z</time>
      </trkpt>
      <trkpt lat="48.79825" lon="7.31162">
        <ele>206.9</ele>
        <time>2026-03-12T11:59:10Z</time>
      </trkpt>
      <trkpt lat="48.79821" lon="7.31169">
        <ele>208</ele>
        <time>2026-03-12T11:59:15Z</time>
      </trkpt>
      <trkpt lat="48.79817" lon="7.31178">
        <ele>209.9</ele>
        <time>2026-03-12T11:59:20Z</time>
      </trkpt>
      <trkpt lat="48.79812" lon="7.31192">
        <ele>212.5</ele>
        <time>2026-03-12T11:59:25Z</time>
      </trkpt>
      <trkpt lat="48.79808" lon="7.31204">
        <ele>214.9</ele>
        <time>2026-03-12T11:59:30Z</time>
      </trkpt>
      <trkpt lat="48.79806" lon="7.31211">
        <ele>216.2</ele>
        <time>2026-03-12T11:59:35Z</time>
      </trkpt>
      <trkpt lat="48.79806" lon="7.31216">
        <ele>216.7</ele>
        <time>2026-03-12T11:59:40Z</time>
      </trkpt>
      <trkpt lat="48.79805" lon="7.31227">
        <ele>218.3</ele>
        <time>2026-03-12T11:59:45Z</time>
      </trkpt>
      <trkpt lat="48.79805" lon="7.31235">
        <ele>219.2</ele>
        <time>2026-03-12T11:59:50Z</time>
      </trkpt>
      <trkpt lat="48.79805" lon="7.31247">
        <ele>220.5</ele>
        <time>2026-03-12T11:59:55Z</time>
      </trkpt>
      <trkpt lat="48.79804" lon="7.31256">
        <ele>222</ele>
        <time>2026-03-12T12:00:00Z</time>
      </trkpt>
      <trkpt lat="48.79803" lon="7.31265">
        <ele>223.6</ele>
        <time>2026-03-12T12:00:05Z</time>
      </trkpt>
      <trkpt lat="48.79796" lon="7.31271">
        <ele>226.8</ele>
        <time>2026-03-12T12:00:10Z</time>
      </trkpt>
      <trkpt lat="48.79792" lon="7.31274">
        <ele>228.6</ele>
        <time>2026-03-12T12:00:15Z</time>
      </trkpt>
      <trkpt lat="48.7979" lon="7.31276">
        <ele>229.6</ele>
        <time>2026-03-12T12:00:20Z</time>
      </trkpt>
      <trkpt lat="48.79787" lon="7.31275">
        <ele>230.5</ele>
        <time>2026-03-12T12:00:25Z</time>
      </trkpt>
      <trkpt lat="48.79785" lon="7.31275">
        <ele>231.2</ele>
        <time>2026-03-12T12:00:30Z</time>
      </trkpt>
      <trkpt lat="48.79781" lon="7.31276">
        <ele>232.7</ele>
        <time>2026-03-12T12:00:35Z</time>
      </trkpt>
      <trkpt lat="48.79778" lon="7.31276">
        <ele>233.7</ele>
        <time>2026-03-12T12:00:40Z</time>
      </trkpt>
      <trkpt lat="48.79775" lon="7.31279">
        <ele>235.3</ele>
        <time>2026-03-12T12:00:45Z</time>
      </trkpt>
      <trkpt lat="48.79771" lon="7.31282">
        <ele>237.2</ele>
        <time>2026-03-12T12:00:50Z</time>
      </trkpt>
      <trkpt lat="48.79765" lon="7.31283">
        <ele>239.5</ele>
        <time>2026-03-12T12:00:55Z</time>
      </trkpt>
      <trkpt lat="48.79761" lon="7.31284">
        <ele>241.1</ele>
        <time>2026-03-12T12:01:00Z</time>
      </trkpt>
      <trkpt lat="48.79757" lon="7.31285">
        <ele>242.7</ele>
        <time>2026-03-12T12:01:05Z</time>
      </trkpt>
      <trkpt lat="48.79756" lon="7.31283">
        <ele>242.6</ele>
        <time>2026-03-12T12:01:10Z</time>
      </trkpt>
      <trkpt lat="48.79752" lon="7.31284">
        <ele>244.2</ele>
        <time>2026-03-12T12:01:15Z</time>
      </trkpt>
      <trkpt lat="48.79747" lon="7.31285">
        <ele>246</ele>
        <time>2026-03-12T12:01:20Z</time>
      </trkpt>
      <trkpt lat="48.79743" lon="7.31279">
        <ele>245.9</ele>
        <time>2026-03-12T12:01:25Z</time>
      </trkpt>
      <trkpt lat="48.79742" lon="7.31278">
        <ele>246</ele>
        <time>2026-03-12T12:01:30Z</time>
      </trkpt>
      <trkpt lat="48.79742" lon="7.31278">
        <ele>246</ele>
        <time>2026-03-12T12:01:35Z</time>
      </trkpt>
      <trkpt lat="48.79742" lon="7.31278">
        <ele>246</ele>
        <time>2026-03-12T12:01:40Z</time>
      </trkpt>
      <trkpt lat="48.79742" lon="7.31278">
        <ele>246</ele>
        <time>2026-03-12T12:01:45Z</time>
      </trkpt>
      <trkpt lat="48.79742" lon="7.31278">
        <ele>246</ele>
        <time>2026-03-12T12:01:50Z</time>
      </trkpt>
      <trkpt lat="48.79742" lon="7.31278">
        <ele>246</ele>
        <time>2026-03-12T12:01:55Z</time>
      </trkpt>
      <trkpt lat="48.79735" lon="7.31285">
        <ele>249.4</ele>
        <time>2026-03-12T12:02:00Z</time>
      </trkpt>
      <trkpt lat="48.79731" lon="7.31287">
        <ele>250.9</ele>
        <time>2026-03-12T12:02:05Z</time>
      </trkpt>
      <trkpt lat="48.79729" lon="7.31284">
        <ele>250.9</ele>
        <time>2026-03-12T12:02:10Z</time>
      </trkpt>
      <trkpt lat="48.79726" lon="7.3128">
        <ele>251</ele>
        <time>2026-03-12T12:02:15Z</time>
      </trkpt>
      <trkpt lat="48.79726" lon="7.31278">
        <ele>250.6</ele>
        <time>2026-03-12T12:02:20Z</time>
      </trkpt>
      <trkpt lat="48.79719" lon="7.31277">
        <ele>252.5</ele>
        <time>2026-03-12T12:02:25Z</time>
      </trkpt>
      <trkpt lat="48.79717" lon="7.31273">
        <ele>252.3</ele>
        <time>2026-03-12T12:02:30Z</time>
      </trkpt>
      <trkpt lat="48.79715" lon="7.3127">
        <ele>252.4</ele>
        <time>2026-03-12T12:02:35Z</time>
      </trkpt>
      <trkpt lat="48.79715" lon="7.3127">
        <ele>252.4</ele>
        <time>2026-03-12T12:02:40Z</time>
      </trkpt>
      <trkpt lat="48.79715" lon="7.3127">
        <ele>252.4</ele>
        <time>2026-03-12T12:02:45Z</time>
      </trkpt>
      <trkpt lat="48.79715" lon="7.3127">
        <ele>252.4</ele>
        <time>2026-03-12T12:02:50Z</time>
      </trkpt>
      <trkpt lat="48.79715" lon="7.3127">
        <ele>252.4</ele>
        <time>2026-03-12T12:02:55Z</time>
      </trkpt>
      <trkpt lat="48.79705" lon="7.31263">
        <ele>254.2</ele>
        <time>2026-03-12T12:03:00Z</time>
      </trkpt>
      <trkpt lat="48.79704" lon="7.31262">
        <ele>254.3</ele>
        <time>2026-03-12T12:03:05Z</time>
      </trkpt>
      <trkpt lat="48.79704" lon="7.31262">
        <ele>254.3</ele>
        <time>2026-03-12T12:03:10Z</time>
      </trkpt>
      <trkpt lat="48.79695" lon="7.3126">
        <ele>256.7</ele>
        <time>2026-03-12T12:03:15Z</time>
      </trkpt>
      <trkpt lat="48.79692" lon="7.31257">
        <ele>257.2</ele>
        <time>2026-03-12T12:03:20Z</time>
      </trkpt>
      <trkpt lat="48.79692" lon="7.31257">
        <ele>257.2</ele>
        <time>2026-03-12T12:03:25Z</time>
      </trkpt>
      <trkpt lat="48.79686" lon="7.31258">
        <ele>259.2</ele>
        <time>2026-03-12T12:03:30Z</time>
      </trkpt>
      <trkpt lat="48.79684" lon="7.31255">
        <ele>259.3</ele>
        <time>2026-03-12T12:03:35Z</time>
      </trkpt>
      <trkpt lat="48.7968" lon="7.31252">
        <ele>260.1</ele>
        <time>2026-03-12T12:03:40Z</time>
      </trkpt>
      <trkpt lat="48.79679" lon="7.31252">
        <ele>260.4</ele>
        <time>2026-03-12T12:03:45Z</time>
      </trkpt>
      <trkpt lat="48.79679" lon="7.31252">
        <ele>260.4</ele>
        <time>2026-03-12T12:03:50Z</time>
      </trkpt>
      <trkpt lat="48.79672" lon="7.3125">
        <ele>262.3</ele>
        <time>2026-03-12T12:03:55Z</time>
      </trkpt>
      <trkpt lat="48.79668" lon="7.31248">
        <ele>263.2</ele>
        <time>2026-03-12T12:04:00Z</time>
      </trkpt>
      <trkpt lat="48.79665" lon="7.31247">
        <ele>263.7</ele>
        <time>2026-03-12T12:04:05Z</time>
      </trkpt>
      <trkpt lat="48.79663" lon="7.31246">
        <ele>263.9</ele>
        <time>2026-03-12T12:04:10Z</time>
      </trkpt>
      <trkpt lat="48.79662" lon="7.31245">
        <ele>263.9</ele>
        <time>2026-03-12T12:04:15Z</time>
      </trkpt>
      <trkpt lat="48.79662" lon="7.31245">
        <ele>263.9</ele>
        <time>2026-03-12T12:04:20Z</time>
      </trkpt>
      <trkpt lat="48.79662" lon="7.31245">
        <ele>263.9</ele>
        <time>2026-03-12T12:04:25Z</time>
      </trkpt>
      <trkpt lat="48.79652" lon="7.31237">
        <ele>264.2</ele>
        <time>2026-03-12T12:04:30Z</time>
      </trkpt>
      <trkpt lat="48.79649" lon="7.31238">
        <ele>265</ele>
        <time>2026-03-12T12:04:35Z</time>
      </trkpt>
      <trkpt lat="48.79644" lon="7.3124">
        <ele>266.4</ele>
        <time>2026-03-12T12:04:40Z</time>
      </trkpt>
      <trkpt lat="48.7964" lon="7.3124">
        <ele>267.2</ele>
        <time>2026-03-12T12:04:45Z</time>
      </trkpt>
      <trkpt lat="48.79637" lon="7.31237">
        <ele>267.2</ele>
        <time>2026-03-12T12:04:50Z</time>
      </trkpt>
      <trkpt lat="48.79635" lon="7.31237">
        <ele>267.6</ele>
        <time>2026-03-12T12:04:55Z</time>
      </trkpt>
      <trkpt lat="48.79631" lon="7.31237">
        <ele>268.4</ele>
        <time>2026-03-12T12:05:00Z</time>
      </trkpt>
      <trkpt lat="48.79629" lon="7.31234">
        <ele>268.2</ele>
        <time>2026-03-12T12:05:05Z</time>
      </trkpt>
      <trkpt lat="48.79625" lon="7.31232">
        <ele>268.7</ele>
        <time>2026-03-12T12:05:10Z</time>
      </trkpt>
      <trkpt lat="48.79625" lon="7.31227">
        <ele>267.7</ele>
        <time>2026-03-12T12:05:15Z</time>
      </trkpt>
      <trkpt lat="48.79624" lon="7.31225">
        <ele>267.6</ele>
        <time>2026-03-12T12:05:20Z</time>
      </trkpt>
      <trkpt lat="48.79624" lon="7.31225">
        <ele>267.6</ele>
        <time>2026-03-12T12:05:25Z</time>
      </trkpt>
      <trkpt lat="48.79616" lon="7.31223">
        <ele>268.8</ele>
        <time>2026-03-12T12:05:30Z</time>
      </trkpt>
      <trkpt lat="48.79613" lon="7.31219">
        <ele>268.7</ele>
        <time>2026-03-12T12:05:35Z</time>
      </trkpt>
      <trkpt lat="48.79612" lon="7.31215">
        <ele>268.2</ele>
        <time>2026-03-12T12:05:40Z</time>
      </trkpt>
      <trkpt lat="48.79609" lon="7.31216">
        <ele>269</ele>
        <time>2026-03-12T12:05:45Z</time>
      </trkpt>
      <trkpt lat="48.79609" lon="7.31216">
        <ele>269</ele>
        <time>2026-03-12T12:05:50Z</time>
      </trkpt>
      <trkpt lat="48.79609" lon="7.31216">
        <ele>269</ele>
        <time>2026-03-12T12:05:55Z</time>
      </trkpt>
      <trkpt lat="48.79603" lon="7.31214">
        <ele>269.9</ele>
        <time>2026-03-12T12:06:00Z</time>
      </trkpt>
      <trkpt lat="48.79598" lon="7.31215">
        <ele>271.1</ele>
        <time>2026-03-12T12:06:05Z</time>
      </trkpt>
      <trkpt lat="48.79594" lon="7.3121">
        <ele>271</ele>
        <time>2026-03-12T12:06:10Z</time>
      </trkpt>
      <trkpt lat="48.7959" lon="7.31205">
        <ele>271</ele>
        <time>2026-03-12T12:06:15Z</time>
      </trkpt>
      <trkpt lat="48.79586" lon="7.31205">
        <ele>271.9</ele>
        <time>2026-03-12T12:06:20Z</time>
      </trkpt>
      <trkpt lat="48.79584" lon="7.31204">
        <ele>272.1</ele>
        <time>2026-03-12T12:06:25Z</time>
      </trkpt>
      <trkpt lat="48.79584" lon="7.31202">
        <ele>271.8</ele>
        <time>2026-03-12T12:06:30Z</time>
      </trkpt>
      <trkpt lat="48.79584" lon="7.31202">
        <ele>271.8</ele>
        <time>2026-03-12T12:06:35Z</time>
      </trkpt>
      <trkpt lat="48.79584" lon="7.31202">
        <ele>271.8</ele>
        <time>2026-03-12T12:06:40Z</time>
      </trkpt>
      <trkpt lat="48.79584" lon="7.31202">
        <ele>271.8</ele>
        <time>2026-03-12T12:06:45Z</time>
      </trkpt>
      <trkpt lat="48.79574" lon="7.31201">
        <ele>273.4</ele>
        <time>2026-03-12T12:06:50Z</time>
      </trkpt>
      <trkpt lat="48.79573" lon="7.31201">
        <ele>273.6</ele>
        <time>2026-03-12T12:06:55Z</time>
      </trkpt>
      <trkpt lat="48.79569" lon="7.31201">
        <ele>274.3</ele>
        <time>2026-03-12T12:07:00Z</time>
      </trkpt>
      <trkpt lat="48.79566" lon="7.312">
        <ele>274.7</ele>
        <time>2026-03-12T12:07:05Z</time>
      </trkpt>
      <trkpt lat="48.79563" lon="7.31195">
        <ele>274.5</ele>
        <time>2026-03-12T12:07:10Z</time>
      </trkpt>
      <trkpt lat="48.79559" lon="7.31194">
        <ele>275.1</ele>
        <time>2026-03-12T12:07:15Z</time>
      </trkpt>
      <trkpt lat="48.79556" lon="7.31195">
        <ele>275.8</ele>
        <time>2026-03-12T12:07:20Z</time>
      </trkpt>
      <trkpt lat="48.79554" lon="7.31195">
        <ele>276.1</ele>
        <time>2026-03-12T12:07:25Z</time>
      </trkpt>
      <trkpt lat="48.79552" lon="7.31196">
        <ele>276.7</ele>
        <time>2026-03-12T12:07:30Z</time>
      </trkpt>
      <trkpt lat="48.79549" lon="7.31194">
        <ele>276.9</ele>
        <time>2026-03-12T12:07:35Z</time>
      </trkpt>
      <trkpt lat="48.79547" lon="7.31192">
        <ele>277</ele>
        <time>2026-03-12T12:07:40Z</time>
      </trkpt>
      <trkpt lat="48.79547" lon="7.31192">
        <ele>277</ele>
        <time>2026-03-12T12:07:45Z</time>
      </trkpt>
      <trkpt lat="48.79547" lon="7.31192">
        <ele>277</ele>
        <time>2026-03-12T12:07:50Z</time>
      </trkpt>
      <trkpt lat="48.79547" lon="7.31192">
        <ele>277</ele>
        <time>2026-03-12T12:07:55Z</time>
      </trkpt>
      <trkpt lat="48.79532" lon="7.31195">
        <ele>280.2</ele>
        <time>2026-03-12T12:08:00Z</time>
      </trkpt>
      <trkpt lat="48.79528" lon="7.31196">
        <ele>281</ele>
        <time>2026-03-12T12:08:05Z</time>
      </trkpt>
      <trkpt lat="48.79525" lon="7.31195">
        <ele>281.5</ele>
        <time>2026-03-12T12:08:10Z</time>
      </trkpt>
      <trkpt lat="48.79523" lon="7.31195">
        <ele>281.8</ele>
        <time>2026-03-12T12:08:15Z</time>
      </trkpt>
      <trkpt lat="48.79519" lon="7.31199">
        <ele>283.1</ele>
        <time>2026-03-12T12:08:20Z</time>
      </trkpt>
      <trkpt lat="48.79516" lon="7.31201">
        <ele>283.8</ele>
        <time>2026-03-12T12:08:25Z</time>
      </trkpt>
      <trkpt lat="48.7951" lon="7.31201">
        <ele>284.9</ele>
        <time>2026-03-12T12:08:30Z</time>
      </trkpt>
      <trkpt lat="48.79505" lon="7.31204">
        <ele>286.1</ele>
        <time>2026-03-12T12:08:35Z</time>
      </trkpt>
      <trkpt lat="48.79505" lon="7.31204">
        <ele>286.1</ele>
        <time>2026-03-12T12:08:40Z</time>
      </trkpt>
      <trkpt lat="48.79505" lon="7.31204">
        <ele>286.1</ele>
        <time>2026-03-12T12:08:45Z</time>
      </trkpt>
      <trkpt lat="48.79505" lon="7.31204">
        <ele>286.1</ele>
        <time>2026-03-12T12:08:50Z</time>
      </trkpt>
      <trkpt lat="48.79505" lon="7.31204">
        <ele>286.1</ele>
        <time>2026-03-12T12:08:55Z</time>
      </trkpt>
      <trkpt lat="48.79505" lon="7.31204">
        <ele>286.1</ele>
        <time>2026-03-12T12:09:00Z</time>
      </trkpt>
      <trkpt lat="48.79505" lon="7.31204">
        <ele>286.1</ele>
        <time>2026-03-12T12:09:05Z</time>
      </trkpt>
      <trkpt lat="48.79505" lon="7.31204">
        <ele>286.1</ele>
        <time>2026-03-12T12:09:10Z</time>
      </trkpt>
      <trkpt lat="48.79505" lon="7.31204">
        <ele>286.1</ele>
        <time>2026-03-12T12:09:15Z</time>
      </trkpt>
      <trkpt lat="48.79505" lon="7.31204">
        <ele>286.1</ele>
        <time>2026-03-12T12:09:20Z</time>
      </trkpt>
      <trkpt lat="48.79505" lon="7.31204">
        <ele>286.1</ele>
        <time>2026-03-12T12:09:25Z</time>
      </trkpt>
      <trkpt lat="48.79505" lon="7.31204">
        <ele>286.1</ele>
        <time>2026-03-12T12:09:30Z</time>
      </trkpt>
      <trkpt lat="48.79505" lon="7.31204">
        <ele>286.1</ele>
        <time>2026-03-12T12:09:35Z</time>
      </trkpt>
      <trkpt lat="48.79505" lon="7.31204">
        <ele>286.1</ele>
        <time>2026-03-12T12:09:40Z</time>
      </trkpt>
      <trkpt lat="48.79505" lon="7.31204">
        <ele>286.1</ele>
        <time>2026-03-12T12:09:45Z</time>
      </trkpt>
      <trkpt lat="48.79505" lon="7.31204">
        <ele>286.1</ele>
        <time>2026-03-12T12:09:50Z</time>
      </trkpt>
      <trkpt lat="48.79505" lon="7.31204">
        <ele>286.1</ele>
        <time>2026-03-12T12:09:55Z</time>
      </trkpt>
      <trkpt lat="48.79502" lon="7.31209">
        <ele>287.2</ele>
        <time>2026-03-12T12:10:00Z</time>
      </trkpt>
      <trkpt lat="48.79498" lon="7.31212">
        <ele>288.1</ele>
        <time>2026-03-12T12:10:05Z</time>
      </trkpt>
      <trkpt lat="48.79493" lon="7.31216">
        <ele>288.9</ele>
        <time>2026-03-12T12:10:10Z</time>
      </trkpt>
      <trkpt lat="48.79487" lon="7.31222">
        <ele>290.1</ele>
        <time>2026-03-12T12:10:15Z</time>
      </trkpt>
      <trkpt lat="48.79483" lon="7.31227">
        <ele>290.9</ele>
        <time>2026-03-12T12:10:20Z</time>
      </trkpt>
      <trkpt lat="48.7948" lon="7.3123">
        <ele>291.5</ele>
        <time>2026-03-12T12:10:25Z</time>
      </trkpt>
      <trkpt lat="48.79478" lon="7.31232">
        <ele>291.8</ele>
        <time>2026-03-12T12:10:30Z</time>
      </trkpt>
      <trkpt lat="48.79476" lon="7.31233">
        <ele>292.1</ele>
        <time>2026-03-12T12:10:35Z</time>
      </trkpt>
      <trkpt lat="48.79475" lon="7.31232">
        <ele>292.1</ele>
        <time>2026-03-12T12:10:40Z</time>
      </trkpt>
      <trkpt lat="48.79475" lon="7.31232">
        <ele>292.1</ele>
        <time>2026-03-12T12:10:45Z</time>
      </trkpt>
      <trkpt lat="48.79475" lon="7.31232">
        <ele>292.1</ele>
        <time>2026-03-12T12:10:50Z</time>
      </trkpt>
      <trkpt lat="48.79463" lon="7.31233">
        <ele>293.1</ele>
        <time>2026-03-12T12:10:55Z</time>
      </trkpt>
      <trkpt lat="48.79458" lon="7.31233">
        <ele>293.5</ele>
        <time>2026-03-12T12:11:00Z</time>
      </trkpt>
      <trkpt lat="48.79455" lon="7.31229">
        <ele>293.4</ele>
        <time>2026-03-12T12:11:05Z</time>
      </trkpt>
      <trkpt lat="48.79455" lon="7.31229">
        <ele>293.4</ele>
        <time>2026-03-12T12:11:10Z</time>
      </trkpt>
      <trkpt lat="48.79455" lon="7.31229">
        <ele>293.4</ele>
        <time>2026-03-12T12:11:15Z</time>
      </trkpt>
      <trkpt lat="48.79455" lon="7.31229">
        <ele>293.4</ele>
        <time>2026-03-12T12:11:20Z</time>
      </trkpt>
      <trkpt lat="48.79455" lon="7.31229">
        <ele>293.4</ele>
        <time>2026-03-12T12:11:25Z</time>
      </trkpt>
      <trkpt lat="48.79455" lon="7.31229">
        <ele>293.4</ele>
        <time>2026-03-12T12:11:30Z</time>
      </trkpt>
      <trkpt lat="48.79455" lon="7.31229">
        <ele>293.4</ele>
        <time>2026-03-12T12:11:35Z</time>
      </trkpt>
      <trkpt lat="48.79455" lon="7.31229">
        <ele>293.4</ele>
        <time>2026-03-12T12:11:40Z</time>
      </trkpt>
      <trkpt lat="48.79455" lon="7.31229">
        <ele>293.4</ele>
        <time>2026-03-12T12:11:45Z</time>
      </trkpt>
      <trkpt lat="48.79443" lon="7.31233">
        <ele>294.7</ele>
        <time>2026-03-12T12:11:50Z</time>
      </trkpt>
      <trkpt lat="48.79441" lon="7.31229">
        <ele>294.5</ele>
        <time>2026-03-12T12:11:55Z</time>
      </trkpt>
      <trkpt lat="48.79437" lon="7.31228">
        <ele>294.8</ele>
        <time>2026-03-12T12:12:00Z</time>
      </trkpt>
      <trkpt lat="48.79433" lon="7.31225">
        <ele>294.8</ele>
        <time>2026-03-12T12:12:05Z</time>
      </trkpt>
      <trkpt lat="48.79426" lon="7.31223">
        <ele>295.3</ele>
        <time>2026-03-12T12:12:10Z</time>
      </trkpt>
      <trkpt lat="48.79423" lon="7.31223">
        <ele>295.5</ele>
        <time>2026-03-12T12:12:15Z</time>
      </trkpt>
      <trkpt lat="48.79419" lon="7.31225">
        <ele>296</ele>
        <time>2026-03-12T12:12:20Z</time>
      </trkpt>
      <trkpt lat="48.79417" lon="7.31226">
        <ele>296.2</ele>
        <time>2026-03-12T12:12:25Z</time>
      </trkpt>
      <trkpt lat="48.79414" lon="7.31226">
        <ele>296.7</ele>
        <time>2026-03-12T12:12:30Z</time>
      </trkpt>
      <trkpt lat="48.7941" lon="7.31226">
        <ele>297.4</ele>
        <time>2026-03-12T12:12:35Z</time>
      </trkpt>
      <trkpt lat="48.79407" lon="7.31226">
        <ele>297.9</ele>
        <time>2026-03-12T12:12:40Z</time>
      </trkpt>
      <trkpt lat="48.79405" lon="7.31224">
        <ele>298.1</ele>
        <time>2026-03-12T12:12:45Z</time>
      </trkpt>
      <trkpt lat="48.79403" lon="7.31219">
        <ele>298</ele>
        <time>2026-03-12T12:12:50Z</time>
      </trkpt>
      <trkpt lat="48.79402" lon="7.31217">
        <ele>298</ele>
        <time>2026-03-12T12:12:55Z</time>
      </trkpt>
      <trkpt lat="48.79402" lon="7.31217">
        <ele>298</ele>
        <time>2026-03-12T12:13:00Z</time>
      </trkpt>
      <trkpt lat="48.79402" lon="7.31217">
        <ele>298</ele>
        <time>2026-03-12T12:13:05Z</time>
      </trkpt>
      <trkpt lat="48.79402" lon="7.31217">
        <ele>298</ele>
        <time>2026-03-12T12:13:10Z</time>
      </trkpt>
      <trkpt lat="48.79402" lon="7.31217">
        <ele>298</ele>
        <time>2026-03-12T12:13:15Z</time>
      </trkpt>
      <trkpt lat="48.79402" lon="7.31217">
        <ele>298</ele>
        <time>2026-03-12T12:13:20Z</time>
      </trkpt>
      <trkpt lat="48.79402" lon="7.31217">
        <ele>298</ele>
        <time>2026-03-12T12:13:25Z</time>
      </trkpt>
      <trkpt lat="48.79396" lon="7.31213">
        <ele>298.6</ele>
        <time>2026-03-12T12:13:30Z</time>
      </trkpt>
      <trkpt lat="48.79393" lon="7.31212">
        <ele>299</ele>
        <time>2026-03-12T12:13:35Z</time>
      </trkpt>
      <trkpt lat="48.7939" lon="7.31212">
        <ele>299.5</ele>
        <time>2026-03-12T12:13:40Z</time>
      </trkpt>
      <trkpt lat="48.79386" lon="7.31211">
        <ele>300</ele>
        <time>2026-03-12T12:13:45Z</time>
      </trkpt>
      <trkpt lat="48.79384" lon="7.31209">
        <ele>300.2</ele>
        <time>2026-03-12T12:13:50Z</time>
      </trkpt>
      <trkpt lat="48.79383" lon="7.31208">
        <ele>300.2</ele>
        <time>2026-03-12T12:13:55Z</time>
      </trkpt>
      <trkpt lat="48.79382" lon="7.31208">
        <ele>300.4</ele>
        <time>2026-03-12T12:14:00Z</time>
      </trkpt>
      <trkpt lat="48.79375" lon="7.31205">
        <ele>301.2</ele>
        <time>2026-03-12T12:14:05Z</time>
      </trkpt>
      <trkpt lat="48.79366" lon="7.31199">
        <ele>302</ele>
        <time>2026-03-12T12:14:10Z</time>
      </trkpt>
      <trkpt lat="48.79362" lon="7.31197">
        <ele>302.4</ele>
        <time>2026-03-12T12:14:15Z</time>
      </trkpt>
      <trkpt lat="48.79359" lon="7.312">
        <ele>303.1</ele>
        <time>2026-03-12T12:14:20Z</time>
      </trkpt>
      <trkpt lat="48.79357" lon="7.31202">
        <ele>303.6</ele>
        <time>2026-03-12T12:14:25Z</time>
      </trkpt>
      <trkpt lat="48.79354" lon="7.31203">
        <ele>304.2</ele>
        <time>2026-03-12T12:14:30Z</time>
      </trkpt>
      <trkpt lat="48.79351" lon="7.31205">
        <ele>304.9</ele>
        <time>2026-03-12T12:14:35Z</time>
      </trkpt>
      <trkpt lat="48.79348" lon="7.31204">
        <ele>305.2</ele>
        <time>2026-03-12T12:14:40Z</time>
      </trkpt>
      <trkpt lat="48.79344" lon="7.31202">
        <ele>305.6</ele>
        <time>2026-03-12T12:14:45Z</time>
      </trkpt>
      <trkpt lat="48.79339" lon="7.31199">
        <ele>306</ele>
        <time>2026-03-12T12:14:50Z</time>
      </trkpt>
      <trkpt lat="48.79336" lon="7.31198">
        <ele>306.4</ele>
        <time>2026-03-12T12:14:55Z</time>
      </trkpt>
      <trkpt lat="48.79331" lon="7.31192">
        <ele>306.2</ele>
        <time>2026-03-12T12:15:00Z</time>
      </trkpt>
      <trkpt lat="48.79327" lon="7.31191">
        <ele>306.4</ele>
        <time>2026-03-12T12:15:05Z</time>
      </trkpt>
      <trkpt lat="48.79324" lon="7.31191">
        <ele>306.6</ele>
        <time>2026-03-12T12:15:10Z</time>
      </trkpt>
      <trkpt lat="48.79321" lon="7.31192">
        <ele>306.9</ele>
        <time>2026-03-12T12:15:15Z</time>
      </trkpt>
      <trkpt lat="48.79316" lon="7.31192">
        <ele>307.2</ele>
        <time>2026-03-12T12:15:20Z</time>
      </trkpt>
      <trkpt lat="48.79312" lon="7.31193">
        <ele>307.6</ele>
        <time>2026-03-12T12:15:25Z</time>
      </trkpt>
      <trkpt lat="48.7931" lon="7.31192">
        <ele>307.6</ele>
        <time>2026-03-12T12:15:30Z</time>
      </trkpt>
      <trkpt lat="48.79308" lon="7.31191">
        <ele>307.7</ele>
        <time>2026-03-12T12:15:35Z</time>
      </trkpt>
      <trkpt lat="48.79308" lon="7.31192">
        <ele>307.8</ele>
        <time>2026-03-12T12:15:40Z</time>
      </trkpt>
      <trkpt lat="48.79303" lon="7.31194">
        <ele>308.3</ele>
        <time>2026-03-12T12:15:45Z</time>
      </trkpt>
      <trkpt lat="48.79299" lon="7.31193">
        <ele>308.5</ele>
        <time>2026-03-12T12:15:50Z</time>
      </trkpt>
      <trkpt lat="48.79296" lon="7.31192">
        <ele>308.6</ele>
        <time>2026-03-12T12:15:55Z</time>
      </trkpt>
      <trkpt lat="48.79292" lon="7.31191">
        <ele>308.8</ele>
        <time>2026-03-12T12:16:00Z</time>
      </trkpt>
      <trkpt lat="48.79288" lon="7.3119">
        <ele>308.9</ele>
        <time>2026-03-12T12:16:05Z</time>
      </trkpt>
      <trkpt lat="48.79284" lon="7.31188">
        <ele>309</ele>
        <time>2026-03-12T12:16:10Z</time>
      </trkpt>
      <trkpt lat="48.7928" lon="7.31187">
        <ele>309.1</ele>
        <time>2026-03-12T12:16:15Z</time>
      </trkpt>
      <trkpt lat="48.79276" lon="7.31187">
        <ele>309.4</ele>
        <time>2026-03-12T12:16:20Z</time>
      </trkpt>
      <trkpt lat="48.79272" lon="7.31185">
        <ele>309.5</ele>
        <time>2026-03-12T12:16:25Z</time>
      </trkpt>
      <trkpt lat="48.79267" lon="7.31185">
        <ele>309.8</ele>
        <time>2026-03-12T12:16:30Z</time>
      </trkpt>
      <trkpt lat="48.79264" lon="7.31185">
        <ele>310</ele>
        <time>2026-03-12T12:16:35Z</time>
      </trkpt>
      <trkpt lat="48.79261" lon="7.31183">
        <ele>310</ele>
        <time>2026-03-12T12:16:40Z</time>
      </trkpt>
      <trkpt lat="48.79256" lon="7.31182">
        <ele>310.2</ele>
        <time>2026-03-12T12:16:45Z</time>
      </trkpt>
      <trkpt lat="48.79251" lon="7.31182">
        <ele>310.6</ele>
        <time>2026-03-12T12:16:50Z</time>
      </trkpt>
      <trkpt lat="48.79248" lon="7.31179">
        <ele>310.4</ele>
        <time>2026-03-12T12:16:55Z</time>
      </trkpt>
      <trkpt lat="48.79244" lon="7.3118">
        <ele>310.7</ele>
        <time>2026-03-12T12:17:00Z</time>
      </trkpt>
      <trkpt lat="48.79241" lon="7.31179">
        <ele>310.8</ele>
        <time>2026-03-12T12:17:05Z</time>
      </trkpt>
      <trkpt lat="48.79237" lon="7.31178">
        <ele>310.9</ele>
        <time>2026-03-12T12:17:10Z</time>
      </trkpt>
      <trkpt lat="48.79234" lon="7.3118">
        <ele>311.2</ele>
        <time>2026-03-12T12:17:15Z</time>
      </trkpt>
      <trkpt lat="48.79234" lon="7.3118">
        <ele>311.2</ele>
        <time>2026-03-12T12:17:20Z</time>
      </trkpt>
      <trkpt lat="48.79227" lon="7.31187">
        <ele>312.4</ele>
        <time>2026-03-12T12:17:25Z</time>
      </trkpt>
      <trkpt lat="48.79223" lon="7.3119">
        <ele>312.9</ele>
        <time>2026-03-12T12:17:30Z</time>
      </trkpt>
      <trkpt lat="48.7922" lon="7.31193">
        <ele>313.4</ele>
        <time>2026-03-12T12:17:35Z</time>
      </trkpt>
      <trkpt lat="48.79215" lon="7.31194">
        <ele>313.8</ele>
        <time>2026-03-12T12:17:40Z</time>
      </trkpt>
      <trkpt lat="48.79212" lon="7.31195">
        <ele>314</ele>
        <time>2026-03-12T12:17:45Z</time>
      </trkpt>
      <trkpt lat="48.79208" lon="7.31198">
        <ele>314.6</ele>
        <time>2026-03-12T12:17:50Z</time>
      </trkpt>
      <trkpt lat="48.79205" lon="7.31201">
        <ele>315.1</ele>
        <time>2026-03-12T12:17:55Z</time>
      </trkpt>
      <trkpt lat="48.79203" lon="7.31199">
        <ele>315</ele>
        <time>2026-03-12T12:18:00Z</time>
      </trkpt>
      <trkpt lat="48.792" lon="7.312">
        <ele>315.2</ele>
        <time>2026-03-12T12:18:05Z</time>
      </trkpt>
      <trkpt lat="48.792" lon="7.312">
        <ele>315.2</ele>
        <time>2026-03-12T12:18:10Z</time>
      </trkpt>
      <trkpt lat="48.792" lon="7.312">
        <ele>315.2</ele>
        <time>2026-03-12T12:18:15Z</time>
      </trkpt>
      <trkpt lat="48.792" lon="7.312">
        <ele>315.2</ele>
        <time>2026-03-12T12:18:20Z</time>
      </trkpt>
      <trkpt lat="48.792" lon="7.312">
        <ele>315.2</ele>
        <time>2026-03-12T12:18:25Z</time>
      </trkpt>
      <trkpt lat="48.792" lon="7.312">
        <ele>315.2</ele>
        <time>2026-03-12T12:18:30Z</time>
      </trkpt>
      <trkpt lat="48.792" lon="7.312">
        <ele>315.2</ele>
        <time>2026-03-12T12:18:35Z</time>
      </trkpt>
      <trkpt lat="48.79192" lon="7.31202">
        <ele>315.9</ele>
        <time>2026-03-12T12:18:40Z</time>
      </trkpt>
      <trkpt lat="48.79188" lon="7.31204">
        <ele>316.3</ele>
        <time>2026-03-12T12:18:45Z</time>
      </trkpt>
      <trkpt lat="48.79183" lon="7.31206">
        <ele>316.8</ele>
        <time>2026-03-12T12:18:50Z</time>
      </trkpt>
      <trkpt lat="48.7918" lon="7.31213">
        <ele>317.8</ele>
        <time>2026-03-12T12:18:55Z</time>
      </trkpt>
      <trkpt lat="48.79175" lon="7.31219">
        <ele>318.8</ele>
        <time>2026-03-12T12:19:00Z</time>
      </trkpt>
      <trkpt lat="48.79171" lon="7.31218">
        <ele>318.9</ele>
        <time>2026-03-12T12:19:05Z</time>
      </trkpt>
      <trkpt lat="48.79168" lon="7.31218">
        <ele>319.1</ele>
        <time>2026-03-12T12:19:10Z</time>
      </trkpt>
      <trkpt lat="48.79162" lon="7.3122">
        <ele>319.9</ele>
        <time>2026-03-12T12:19:15Z</time>
      </trkpt>
      <trkpt lat="48.79157" lon="7.31222">
        <ele>320.6</ele>
        <time>2026-03-12T12:19:20Z</time>
      </trkpt>
      <trkpt lat="48.7915" lon="7.31225">
        <ele>321.7</ele>
        <time>2026-03-12T12:19:25Z</time>
      </trkpt>
      <trkpt lat="48.79144" lon="7.31226">
        <ele>322.4</ele>
        <time>2026-03-12T12:19:30Z</time>
      </trkpt>
      <trkpt lat="48.79139" lon="7.31226">
        <ele>322.9</ele>
        <time>2026-03-12T12:19:35Z</time>
      </trkpt>
      <trkpt lat="48.79134" lon="7.31231">
        <ele>323.9</ele>
        <time>2026-03-12T12:19:40Z</time>
      </trkpt>
      <trkpt lat="48.7913" lon="7.31232">
        <ele>324.4</ele>
        <time>2026-03-12T12:19:45Z</time>
      </trkpt>
      <trkpt lat="48.79125" lon="7.31234">
        <ele>325.1</ele>
        <time>2026-03-12T12:19:50Z</time>
      </trkpt>
      <trkpt lat="48.7912" lon="7.31236">
        <ele>325.7</ele>
        <time>2026-03-12T12:19:55Z</time>
      </trkpt>
      <trkpt lat="48.79115" lon="7.31238">
        <ele>326.3</ele>
        <time>2026-03-12T12:20:00Z</time>
      </trkpt>
      <trkpt lat="48.7911" lon="7.3124">
        <ele>327</ele>
        <time>2026-03-12T12:20:05Z</time>
      </trkpt>
      <trkpt lat="48.79106" lon="7.31241">
        <ele>327.4</ele>
        <time>2026-03-12T12:20:10Z</time>
      </trkpt>
      <trkpt lat="48.79101" lon="7.31242">
        <ele>327.9</ele>
        <time>2026-03-12T12:20:15Z</time>
      </trkpt>
      <trkpt lat="48.79094" lon="7.31244">
        <ele>328.7</ele>
        <time>2026-03-12T12:20:20Z</time>
      </trkpt>
      <trkpt lat="48.79088" lon="7.31244">
        <ele>329.2</ele>
        <time>2026-03-12T12:20:25Z</time>
      </trkpt>
      <trkpt lat="48.79083" lon="7.31245">
        <ele>329.8</ele>
        <time>2026-03-12T12:20:30Z</time>
      </trkpt>
      <trkpt lat="48.79076" lon="7.31245">
        <ele>330.9</ele>
        <time>2026-03-12T12:20:35Z</time>
      </trkpt>
      <trkpt lat="48.79072" lon="7.31244">
        <ele>331.4</ele>
        <time>2026-03-12T12:20:40Z</time>
      </trkpt>
      <trkpt lat="48.79067" lon="7.31245">
        <ele>332.3</ele>
        <time>2026-03-12T12:20:45Z</time>
      </trkpt>
      <trkpt lat="48.79062" lon="7.31247">
        <ele>333.2</ele>
        <time>2026-03-12T12:20:50Z</time>
      </trkpt>
      <trkpt lat="48.79057" lon="7.31246">
        <ele>333.9</ele>
        <time>2026-03-12T12:20:55Z</time>
      </trkpt>
      <trkpt lat="48.79053" lon="7.31245">
        <ele>334.5</ele>
        <time>2026-03-12T12:21:00Z</time>
      </trkpt>
      <trkpt lat="48.79049" lon="7.31241">
        <ele>334.9</ele>
        <time>2026-03-12T12:21:05Z</time>
      </trkpt>
      <trkpt lat="48.79043" lon="7.31241">
        <ele>335.9</ele>
        <time>2026-03-12T12:21:10Z</time>
      </trkpt>
      <trkpt lat="48.79038" lon="7.31245">
        <ele>336.8</ele>
        <time>2026-03-12T12:21:15Z</time>
      </trkpt>
      <trkpt lat="48.79032" lon="7.31247">
        <ele>337.9</ele>
        <time>2026-03-12T12:21:20Z</time>
      </trkpt>
      <trkpt lat="48.79029" lon="7.31247">
        <ele>338.3</ele>
        <time>2026-03-12T12:21:25Z</time>
      </trkpt>
      <trkpt lat="48.79025" lon="7.31248">
        <ele>339</ele>
        <time>2026-03-12T12:21:30Z</time>
      </trkpt>
      <trkpt lat="48.7902" lon="7.31247">
        <ele>339.8</ele>
        <time>2026-03-12T12:21:35Z</time>
      </trkpt>
      <trkpt lat="48.79018" lon="7.31245">
        <ele>340</ele>
        <time>2026-03-12T12:21:40Z</time>
      </trkpt>
      <trkpt lat="48.79013" lon="7.31244">
        <ele>340.7</ele>
        <time>2026-03-12T12:21:45Z</time>
      </trkpt>
      <trkpt lat="48.79009" lon="7.31241">
        <ele>341.2</ele>
        <time>2026-03-12T12:21:50Z</time>
      </trkpt>
      <trkpt lat="48.79006" lon="7.31239">
        <ele>341.6</ele>
        <time>2026-03-12T12:21:55Z</time>
      </trkpt>
      <trkpt lat="48.79006" lon="7.31236">
        <ele>341.5</ele>
        <time>2026-03-12T12:22:00Z</time>
      </trkpt>
      <trkpt lat="48.79005" lon="7.31233">
        <ele>341.6</ele>
        <time>2026-03-12T12:22:05Z</time>
      </trkpt>
      <trkpt lat="48.78998" lon="7.31233">
        <ele>342.5</ele>
        <time>2026-03-12T12:22:10Z</time>
      </trkpt>
      <trkpt lat="48.78993" lon="7.31231">
        <ele>342.7</ele>
        <time>2026-03-12T12:22:15Z</time>
      </trkpt>
      <trkpt lat="48.78988" lon="7.31233">
        <ele>343.1</ele>
        <time>2026-03-12T12:22:20Z</time>
      </trkpt>
      <trkpt lat="48.78984" lon="7.31229">
        <ele>343.2</ele>
        <time>2026-03-12T12:22:25Z</time>
      </trkpt>
      <trkpt lat="48.78981" lon="7.31227">
        <ele>343.3</ele>
        <time>2026-03-12T12:22:30Z</time>
      </trkpt>
      <trkpt lat="48.78978" lon="7.31225">
        <ele>343.4</ele>
        <time>2026-03-12T12:22:35Z</time>
      </trkpt>
      <trkpt lat="48.78971" lon="7.31226">
        <ele>343.8</ele>
        <time>2026-03-12T12:22:40Z</time>
      </trkpt>
      <trkpt lat="48.78964" lon="7.31228">
        <ele>344.3</ele>
        <time>2026-03-12T12:22:45Z</time>
      </trkpt>
      <trkpt lat="48.78961" lon="7.31234">
        <ele>344.6</ele>
        <time>2026-03-12T12:22:50Z</time>
      </trkpt>
      <trkpt lat="48.78958" lon="7.31238">
        <ele>344.8</ele>
        <time>2026-03-12T12:22:55Z</time>
      </trkpt>
      <trkpt lat="48.78952" lon="7.31242">
        <ele>345.2</ele>
        <time>2026-03-12T12:23:00Z</time>
      </trkpt>
      <trkpt lat="48.78949" lon="7.31248">
        <ele>345.4</ele>
        <time>2026-03-12T12:23:05Z</time>
      </trkpt>
      <trkpt lat="48.78945" lon="7.31251">
        <ele>345.7</ele>
        <time>2026-03-12T12:23:10Z</time>
      </trkpt>
      <trkpt lat="48.78944" lon="7.31255">
        <ele>345.8</ele>
        <time>2026-03-12T12:23:15Z</time>
      </trkpt>
      <trkpt lat="48.78939" lon="7.31255">
        <ele>346</ele>
        <time>2026-03-12T12:23:20Z</time>
      </trkpt>
      <trkpt lat="48.78933" lon="7.31254">
        <ele>346.3</ele>
        <time>2026-03-12T12:23:25Z</time>
      </trkpt>
      <trkpt lat="48.78928" lon="7.31249">
        <ele>346.5</ele>
        <time>2026-03-12T12:23:30Z</time>
      </trkpt>
      <trkpt lat="48.78924" lon="7.31246">
        <ele>346.6</ele>
        <time>2026-03-12T12:23:35Z</time>
      </trkpt>
      <trkpt lat="48.78919" lon="7.31243">
        <ele>346.9</ele>
        <time>2026-03-12T12:23:40Z</time>
      </trkpt>
      <trkpt lat="48.78913" lon="7.31248">
        <ele>346.8</ele>
        <time>2026-03-12T12:23:45Z</time>
      </trkpt>
      <trkpt lat="48.78909" lon="7.31253">
        <ele>346.6</ele>
        <time>2026-03-12T12:23:50Z</time>
      </trkpt>
      <trkpt lat="48.78905" lon="7.31256">
        <ele>346.5</ele>
        <time>2026-03-12T12:23:55Z</time>
      </trkpt>
      <trkpt lat="48.78899" lon="7.31259">
        <ele>346.2</ele>
        <time>2026-03-12T12:24:00Z</time>
      </trkpt>
      <trkpt lat="48.78893" lon="7.31261">
        <ele>345.9</ele>
        <time>2026-03-12T12:24:05Z</time>
      </trkpt>
      <trkpt lat="48.78889" lon="7.31263">
        <ele>345.8</ele>
        <time>2026-03-12T12:24:10Z</time>
      </trkpt>
      <trkpt lat="48.78886" lon="7.31266">
        <ele>345.7</ele>
        <time>2026-03-12T12:24:15Z</time>
      </trkpt>
      <trkpt lat="48.78882" lon="7.31267">
        <ele>345.5</ele>
        <time>2026-03-12T12:24:20Z</time>
      </trkpt>
      <trkpt lat="48.78876" lon="7.31269">
        <ele>345.2</ele>
        <time>2026-03-12T12:24:25Z</time>
      </trkpt>
      <trkpt lat="48.7887" lon="7.31273">
        <ele>345.1</ele>
        <time>2026-03-12T12:24:30Z</time>
      </trkpt>
      <trkpt lat="48.78865" lon="7.31274">
        <ele>344.8</ele>
        <time>2026-03-12T12:24:35Z</time>
      </trkpt>
      <trkpt lat="48.78861" lon="7.31275">
        <ele>344.7</ele>
        <time>2026-03-12T12:24:40Z</time>
      </trkpt>
      <trkpt lat="48.78856" lon="7.31277">
        <ele>344.5</ele>
        <time>2026-03-12T12:24:45Z</time>
      </trkpt>
      <trkpt lat="48.7885" lon="7.31276">
        <ele>344.1</ele>
        <time>2026-03-12T12:24:50Z</time>
      </trkpt>
      <trkpt lat="48.78844" lon="7.31279">
        <ele>343.9</ele>
        <time>2026-03-12T12:24:55Z</time>
      </trkpt>
      <trkpt lat="48.78838" lon="7.3128">
        <ele>343.7</ele>
        <time>2026-03-12T12:25:00Z</time>
      </trkpt>
      <trkpt lat="48.78834" lon="7.31283">
        <ele>343.6</ele>
        <time>2026-03-12T12:25:05Z</time>
      </trkpt>
      <trkpt lat="48.7883" lon="7.31283">
        <ele>343.3</ele>
        <time>2026-03-12T12:25:10Z</time>
      </trkpt>
      <trkpt lat="48.78824" lon="7.31286">
        <ele>343.1</ele>
        <time>2026-03-12T12:25:15Z</time>
      </trkpt>
      <trkpt lat="48.78817" lon="7.31287">
        <ele>342.6</ele>
        <time>2026-03-12T12:25:20Z</time>
      </trkpt>
      <trkpt lat="48.78811" lon="7.31288">
        <ele>342.2</ele>
        <time>2026-03-12T12:25:25Z</time>
      </trkpt>
      <trkpt lat="48.78804" lon="7.3129">
        <ele>341.8</ele>
        <time>2026-03-12T12:25:30Z</time>
      </trkpt>
      <trkpt lat="48.78798" lon="7.31292">
        <ele>341.5</ele>
        <time>2026-03-12T12:25:35Z</time>
      </trkpt>
      <trkpt lat="48.78792" lon="7.31291">
        <ele>341</ele>
        <time>2026-03-12T12:25:40Z</time>
      </trkpt>
      <trkpt lat="48.78787" lon="7.3129">
        <ele>340.6</ele>
        <time>2026-03-12T12:25:45Z</time>
      </trkpt>
      <trkpt lat="48.78783" lon="7.31291">
        <ele>340.3</ele>
        <time>2026-03-12T12:25:50Z</time>
      </trkpt>
      <trkpt lat="48.78777" lon="7.31296">
        <ele>340.2</ele>
        <time>2026-03-12T12:25:55Z</time>
      </trkpt>
      <trkpt lat="48.78772" lon="7.313">
        <ele>340</ele>
        <time>2026-03-12T12:26:00Z</time>
      </trkpt>
      <trkpt lat="48.7877" lon="7.31298">
        <ele>339.7</ele>
        <time>2026-03-12T12:26:05Z</time>
      </trkpt>
      <trkpt lat="48.78764" lon="7.31295">
        <ele>339.2</ele>
        <time>2026-03-12T12:26:10Z</time>
      </trkpt>
      <trkpt lat="48.78757" lon="7.31289">
        <ele>338.4</ele>
        <time>2026-03-12T12:26:15Z</time>
      </trkpt>
      <trkpt lat="48.78752" lon="7.31289">
        <ele>338</ele>
        <time>2026-03-12T12:26:20Z</time>
      </trkpt>
      <trkpt lat="48.78747" lon="7.31287">
        <ele>337.5</ele>
        <time>2026-03-12T12:26:25Z</time>
      </trkpt>
      <trkpt lat="48.78741" lon="7.31288">
        <ele>336.9</ele>
        <time>2026-03-12T12:26:30Z</time>
      </trkpt>
      <trkpt lat="48.78735" lon="7.31287">
        <ele>336.2</ele>
        <time>2026-03-12T12:26:35Z</time>
      </trkpt>
      <trkpt lat="48.78729" lon="7.31287">
        <ele>335.6</ele>
        <time>2026-03-12T12:26:40Z</time>
      </trkpt>
      <trkpt lat="48.78724" lon="7.31287">
        <ele>335</ele>
        <time>2026-03-12T12:26:45Z</time>
      </trkpt>
      <trkpt lat="48.78719" lon="7.31285">
        <ele>334.5</ele>
        <time>2026-03-12T12:26:50Z</time>
      </trkpt>
      <trkpt lat="48.78713" lon="7.31285">
        <ele>333.8</ele>
        <time>2026-03-12T12:26:55Z</time>
      </trkpt>
      <trkpt lat="48.78706" lon="7.31284">
        <ele>333.1</ele>
        <time>2026-03-12T12:27:00Z</time>
      </trkpt>
      <trkpt lat="48.78699" lon="7.31286">
        <ele>332.4</ele>
        <time>2026-03-12T12:27:05Z</time>
      </trkpt>
      <trkpt lat="48.78692" lon="7.31286">
        <ele>331.7</ele>
        <time>2026-03-12T12:27:10Z</time>
      </trkpt>
      <trkpt lat="48.78684" lon="7.31287">
        <ele>330.8</ele>
        <time>2026-03-12T12:27:15Z</time>
      </trkpt>
      <trkpt lat="48.78678" lon="7.3129">
        <ele>330.2</ele>
        <time>2026-03-12T12:27:20Z</time>
      </trkpt>
      <trkpt lat="48.78671" lon="7.31289">
        <ele>329.5</ele>
        <time>2026-03-12T12:27:25Z</time>
      </trkpt>
      <trkpt lat="48.78661" lon="7.31287">
        <ele>329</ele>
        <time>2026-03-12T12:27:30Z</time>
      </trkpt>
      <trkpt lat="48.78653" lon="7.31288">
        <ele>329</ele>
        <time>2026-03-12T12:27:35Z</time>
      </trkpt>
      <trkpt lat="48.78645" lon="7.3129">
        <ele>329</ele>
        <time>2026-03-12T12:27:40Z</time>
      </trkpt>
      <trkpt lat="48.78639" lon="7.31292">
        <ele>329</ele>
        <time>2026-03-12T12:27:45Z</time>
      </trkpt>
      <trkpt lat="48.78631" lon="7.31292">
        <ele>329</ele>
        <time>2026-03-12T12:27:50Z</time>
      </trkpt>
      <trkpt lat="48.78624" lon="7.3129">
        <ele>329</ele>
        <time>2026-03-12T12:27:55Z</time>
      </trkpt>
      <trkpt lat="48.78616" lon="7.31291">
        <ele>329</ele>
        <time>2026-03-12T12:28:00Z</time>
      </trkpt>
      <trkpt lat="48.78608" lon="7.3129">
        <ele>329</ele>
        <time>2026-03-12T12:28:05Z</time>
      </trkpt>
      <trkpt lat="48.78604" lon="7.31288">
        <ele>329.1</ele>
        <time>2026-03-12T12:28:10Z</time>
      </trkpt>
      <trkpt lat="48.78599" lon="7.31287">
        <ele>329.1</ele>
        <time>2026-03-12T12:28:15Z</time>
      </trkpt>
      <trkpt lat="48.78592" lon="7.31285">
        <ele>329.1</ele>
        <time>2026-03-12T12:28:20Z</time>
      </trkpt>
      <trkpt lat="48.78586" lon="7.31279">
        <ele>329.3</ele>
        <time>2026-03-12T12:28:25Z</time>
      </trkpt>
      <trkpt lat="48.7858" lon="7.31274">
        <ele>328.8</ele>
        <time>2026-03-12T12:28:30Z</time>
      </trkpt>
      <trkpt lat="48.78575" lon="7.31268">
        <ele>328.1</ele>
        <time>2026-03-12T12:28:35Z</time>
      </trkpt>
      <trkpt lat="48.7857" lon="7.31262">
        <ele>327.5</ele>
        <time>2026-03-12T12:28:40Z</time>
      </trkpt>
      <trkpt lat="48.78564" lon="7.31255">
        <ele>326.9</ele>
        <time>2026-03-12T12:28:45Z</time>
      </trkpt>
      <trkpt lat="48.78564" lon="7.31253">
        <ele>327</ele>
        <time>2026-03-12T12:28:50Z</time>
      </trkpt>
      <trkpt lat="48.78563" lon="7.31251">
        <ele>327</ele>
        <time>2026-03-12T12:28:55Z</time>
      </trkpt>
      <trkpt lat="48.78556" lon="7.31248">
        <ele>326.1</ele>
        <time>2026-03-12T12:29:00Z</time>
      </trkpt>
      <trkpt lat="48.78549" lon="7.31242">
        <ele>325.4</ele>
        <time>2026-03-12T12:29:05Z</time>
      </trkpt>
      <trkpt lat="48.78544" lon="7.31233">
        <ele>325.2</ele>
        <time>2026-03-12T12:29:10Z</time>
      </trkpt>
      <trkpt lat="48.7854" lon="7.31224">
        <ele>325.2</ele>
        <time>2026-03-12T12:29:15Z</time>
      </trkpt>
      <trkpt lat="48.78535" lon="7.31217">
        <ele>325.2</ele>
        <time>2026-03-12T12:29:20Z</time>
      </trkpt>
      <trkpt lat="48.7853" lon="7.31207">
        <ele>325.4</ele>
        <time>2026-03-12T12:29:25Z</time>
      </trkpt>
      <trkpt lat="48.78523" lon="7.31201">
        <ele>325.4</ele>
        <time>2026-03-12T12:29:30Z</time>
      </trkpt>
      <trkpt lat="48.78518" lon="7.31194">
        <ele>325.7</ele>
        <time>2026-03-12T12:29:35Z</time>
      </trkpt>
      <trkpt lat="48.78512" lon="7.31189">
        <ele>325.9</ele>
        <time>2026-03-12T12:29:40Z</time>
      </trkpt>
      <trkpt lat="48.78506" lon="7.31186">
        <ele>325.9</ele>
        <time>2026-03-12T12:29:45Z</time>
      </trkpt>
      <trkpt lat="48.78498" lon="7.31181">
        <ele>325.9</ele>
        <time>2026-03-12T12:29:50Z</time>
      </trkpt>
      <trkpt lat="48.78491" lon="7.31176">
        <ele>325.3</ele>
        <time>2026-03-12T12:29:55Z</time>
      </trkpt>
      <trkpt lat="48.78486" lon="7.31171">
        <ele>325.1</ele>
        <time>2026-03-12T12:30:00Z</time>
      </trkpt>
      <trkpt lat="48.7848" lon="7.31168">
        <ele>324.5</ele>
        <time>2026-03-12T12:30:05Z</time>
      </trkpt>
      <trkpt lat="48.78472" lon="7.31162">
        <ele>323.4</ele>
        <time>2026-03-12T12:30:10Z</time>
      </trkpt>
      <trkpt lat="48.78465" lon="7.31156">
        <ele>322.5</ele>
        <time>2026-03-12T12:30:15Z</time>
      </trkpt>
      <trkpt lat="48.78458" lon="7.3115">
        <ele>321.6</ele>
        <time>2026-03-12T12:30:20Z</time>
      </trkpt>
      <trkpt lat="48.7845" lon="7.31147">
        <ele>320.6</ele>
        <time>2026-03-12T12:30:25Z</time>
      </trkpt>
      <trkpt lat="48.78443" lon="7.31144">
        <ele>319.7</ele>
        <time>2026-03-12T12:30:30Z</time>
      </trkpt>
      <trkpt lat="48.78436" lon="7.31138">
        <ele>319.1</ele>
        <time>2026-03-12T12:30:35Z</time>
      </trkpt>
      <trkpt lat="48.78429" lon="7.31138">
        <ele>318.1</ele>
        <time>2026-03-12T12:30:40Z</time>
      </trkpt>
      <trkpt lat="48.78419" lon="7.31139">
        <ele>316.7</ele>
        <time>2026-03-12T12:30:45Z</time>
      </trkpt>
      <trkpt lat="48.7841" lon="7.31135">
        <ele>315.8</ele>
        <time>2026-03-12T12:30:50Z</time>
      </trkpt>
      <trkpt lat="48.78404" lon="7.31137">
        <ele>314.9</ele>
        <time>2026-03-12T12:30:55Z</time>
      </trkpt>
      <trkpt lat="48.78397" lon="7.31137">
        <ele>314.1</ele>
        <time>2026-03-12T12:31:00Z</time>
      </trkpt>
      <trkpt lat="48.78389" lon="7.31135">
        <ele>313.3</ele>
        <time>2026-03-12T12:31:05Z</time>
      </trkpt>
      <trkpt lat="48.78383" lon="7.31134">
        <ele>312.6</ele>
        <time>2026-03-12T12:31:10Z</time>
      </trkpt>
      <trkpt lat="48.78377" lon="7.31134">
        <ele>311.9</ele>
        <time>2026-03-12T12:31:15Z</time>
      </trkpt>
      <trkpt lat="48.7837" lon="7.31133">
        <ele>311.1</ele>
        <time>2026-03-12T12:31:20Z</time>
      </trkpt>
      <trkpt lat="48.7836" lon="7.3113">
        <ele>310.2</ele>
        <time>2026-03-12T12:31:25Z</time>
      </trkpt>
      <trkpt lat="48.78351" lon="7.31129">
        <ele>309.2</ele>
        <time>2026-03-12T12:31:30Z</time>
      </trkpt>
      <trkpt lat="48.78344" lon="7.31129">
        <ele>308.4</ele>
        <time>2026-03-12T12:31:35Z</time>
      </trkpt>
      <trkpt lat="48.78337" lon="7.31126">
        <ele>307.8</ele>
        <time>2026-03-12T12:31:40Z</time>
      </trkpt>
      <trkpt lat="48.78329" lon="7.31125">
        <ele>307.8</ele>
        <time>2026-03-12T12:31:45Z</time>
      </trkpt>
      <trkpt lat="48.78323" lon="7.31122">
        <ele>308.5</ele>
        <time>2026-03-12T12:31:50Z</time>
      </trkpt>
      <trkpt lat="48.78318" lon="7.31118">
        <ele>309.3</ele>
        <time>2026-03-12T12:31:55Z</time>
      </trkpt>
      <trkpt lat="48.78312" lon="7.31116">
        <ele>309.8</ele>
        <time>2026-03-12T12:32:00Z</time>
      </trkpt>
      <trkpt lat="48.78306" lon="7.31113">
        <ele>310.5</ele>
        <time>2026-03-12T12:32:05Z</time>
      </trkpt>
      <trkpt lat="48.783" lon="7.31111">
        <ele>311</ele>
        <time>2026-03-12T12:32:10Z</time>
      </trkpt>
      <trkpt lat="48.78293" lon="7.31109">
        <ele>311.6</ele>
        <time>2026-03-12T12:32:15Z</time>
      </trkpt>
      <trkpt lat="48.78286" lon="7.3111">
        <ele>311.9</ele>
        <time>2026-03-12T12:32:20Z</time>
      </trkpt>
      <trkpt lat="48.78281" lon="7.31107">
        <ele>312.4</ele>
        <time>2026-03-12T12:32:25Z</time>
      </trkpt>
      <trkpt lat="48.78272" lon="7.31105">
        <ele>313</ele>
        <time>2026-03-12T12:32:30Z</time>
      </trkpt>
      <trkpt lat="48.78265" lon="7.311">
        <ele>313.6</ele>
        <time>2026-03-12T12:32:35Z</time>
      </trkpt>
      <trkpt lat="48.78258" lon="7.31096">
        <ele>314.2</ele>
        <time>2026-03-12T12:32:40Z</time>
      </trkpt>
      <trkpt lat="48.78252" lon="7.31092">
        <ele>314.6</ele>
        <time>2026-03-12T12:32:45Z</time>
      </trkpt>
      <trkpt lat="48.78245" lon="7.31092">
        <ele>315.1</ele>
        <time>2026-03-12T12:32:50Z</time>
      </trkpt>
      <trkpt lat="48.78239" lon="7.31091">
        <ele>315.7</ele>
        <time>2026-03-12T12:32:55Z</time>
      </trkpt>
      <trkpt lat="48.78231" lon="7.31093">
        <ele>316.4</ele>
        <time>2026-03-12T12:33:00Z</time>
      </trkpt>
      <trkpt lat="48.78224" lon="7.31095">
        <ele>317</ele>
        <time>2026-03-12T12:33:05Z</time>
      </trkpt>
      <trkpt lat="48.78218" lon="7.31097">
        <ele>317.5</ele>
        <time>2026-03-12T12:33:10Z</time>
      </trkpt>
      <trkpt lat="48.78211" lon="7.31101">
        <ele>318.1</ele>
        <time>2026-03-12T12:33:15Z</time>
      </trkpt>
      <trkpt lat="48.78204" lon="7.31104">
        <ele>318.8</ele>
        <time>2026-03-12T12:33:20Z</time>
      </trkpt>
      <trkpt lat="48.78196" lon="7.31106">
        <ele>319.6</ele>
        <time>2026-03-12T12:33:25Z</time>
      </trkpt>
      <trkpt lat="48.78191" lon="7.31111">
        <ele>320.1</ele>
        <time>2026-03-12T12:33:30Z</time>
      </trkpt>
      <trkpt lat="48.78186" lon="7.31115">
        <ele>320.7</ele>
        <time>2026-03-12T12:33:35Z</time>
      </trkpt>
      <trkpt lat="48.78181" lon="7.3112">
        <ele>321.3</ele>
        <time>2026-03-12T12:33:40Z</time>
      </trkpt>
      <trkpt lat="48.78176" lon="7.31122">
        <ele>321.9</ele>
        <time>2026-03-12T12:33:45Z</time>
      </trkpt>
      <trkpt lat="48.7817" lon="7.31125">
        <ele>322.6</ele>
        <time>2026-03-12T12:33:50Z</time>
      </trkpt>
      <trkpt lat="48.78165" lon="7.31132">
        <ele>323.3</ele>
        <time>2026-03-12T12:33:55Z</time>
      </trkpt>
      <trkpt lat="48.78157" lon="7.31139">
        <ele>324.1</ele>
        <time>2026-03-12T12:34:00Z</time>
      </trkpt>
      <trkpt lat="48.78151" lon="7.31144">
        <ele>324.7</ele>
        <time>2026-03-12T12:34:05Z</time>
      </trkpt>
      <trkpt lat="48.78146" lon="7.31149">
        <ele>325.3</ele>
        <time>2026-03-12T12:34:10Z</time>
      </trkpt>
      <trkpt lat="48.78141" lon="7.31158">
        <ele>325.9</ele>
        <time>2026-03-12T12:34:15Z</time>
      </trkpt>
      <trkpt lat="48.78137" lon="7.31165">
        <ele>326.4</ele>
        <time>2026-03-12T12:34:20Z</time>
      </trkpt>
      <trkpt lat="48.78134" lon="7.31176">
        <ele>326.7</ele>
        <time>2026-03-12T12:34:25Z</time>
      </trkpt>
      <trkpt lat="48.78133" lon="7.31184">
        <ele>326.7</ele>
        <time>2026-03-12T12:34:30Z</time>
      </trkpt>
      <trkpt lat="48.78131" lon="7.31191">
        <ele>326.9</ele>
        <time>2026-03-12T12:34:35Z</time>
      </trkpt>
      <trkpt lat="48.7813" lon="7.31202">
        <ele>326.9</ele>
        <time>2026-03-12T12:34:40Z</time>
      </trkpt>
      <trkpt lat="48.7813" lon="7.31212">
        <ele>326.8</ele>
        <time>2026-03-12T12:34:45Z</time>
      </trkpt>
      <trkpt lat="48.78128" lon="7.31221">
        <ele>326.9</ele>
        <time>2026-03-12T12:34:50Z</time>
      </trkpt>
      <trkpt lat="48.78126" lon="7.31231">
        <ele>327</ele>
        <time>2026-03-12T12:34:55Z</time>
      </trkpt>
      <trkpt lat="48.78124" lon="7.3124">
        <ele>327.1</ele>
        <time>2026-03-12T12:35:00Z</time>
      </trkpt>
      <trkpt lat="48.78121" lon="7.3125">
        <ele>327.3</ele>
        <time>2026-03-12T12:35:05Z</time>
      </trkpt>
      <trkpt lat="48.78118" lon="7.31256">
        <ele>327.4</ele>
        <time>2026-03-12T12:35:10Z</time>
      </trkpt>
      <trkpt lat="48.78115" lon="7.31264">
        <ele>327.4</ele>
        <time>2026-03-12T12:35:15Z</time>
      </trkpt>
      <trkpt lat="48.78111" lon="7.31275">
        <ele>327.5</ele>
        <time>2026-03-12T12:35:20Z</time>
      </trkpt>
      <trkpt lat="48.78108" lon="7.31285">
        <ele>327.5</ele>
        <time>2026-03-12T12:35:25Z</time>
      </trkpt>
      <trkpt lat="48.78107" lon="7.31294">
        <ele>327.4</ele>
        <time>2026-03-12T12:35:30Z</time>
      </trkpt>
      <trkpt lat="48.78102" lon="7.31305">
        <ele>327.5</ele>
        <time>2026-03-12T12:35:35Z</time>
      </trkpt>
      <trkpt lat="48.78098" lon="7.31313">
        <ele>327.6</ele>
        <time>2026-03-12T12:35:40Z</time>
      </trkpt>
      <trkpt lat="48.78093" lon="7.31322">
        <ele>327.7</ele>
        <time>2026-03-12T12:35:45Z</time>
      </trkpt>
      <trkpt lat="48.7809" lon="7.3133">
        <ele>327.7</ele>
        <time>2026-03-12T12:35:50Z</time>
      </trkpt>
      <trkpt lat="48.78085" lon="7.31341">
        <ele>327.6</ele>
        <time>2026-03-12T12:35:55Z</time>
      </trkpt>
      <trkpt lat="48.7808" lon="7.31348">
        <ele>327.4</ele>
        <time>2026-03-12T12:36:00Z</time>
      </trkpt>
      <trkpt lat="48.78076" lon="7.31355">
        <ele>327</ele>
        <time>2026-03-12T12:36:05Z</time>
      </trkpt>
      <trkpt lat="48.78072" lon="7.31362">
        <ele>326.7</ele>
        <time>2026-03-12T12:36:10Z</time>
      </trkpt>
      <trkpt lat="48.78067" lon="7.3137">
        <ele>326.3</ele>
        <time>2026-03-12T12:36:15Z</time>
      </trkpt>
      <trkpt lat="48.7806" lon="7.31376">
        <ele>325.9</ele>
        <time>2026-03-12T12:36:20Z</time>
      </trkpt>
      <trkpt lat="48.78054" lon="7.31383">
        <ele>325.6</ele>
        <time>2026-03-12T12:36:25Z</time>
      </trkpt>
      <trkpt lat="48.78048" lon="7.31388">
        <ele>325.3</ele>
        <time>2026-03-12T12:36:30Z</time>
      </trkpt>
      <trkpt lat="48.78043" lon="7.31395">
        <ele>325</ele>
        <time>2026-03-12T12:36:35Z</time>
      </trkpt>
      <trkpt lat="48.78038" lon="7.31401">
        <ele>324.8</ele>
        <time>2026-03-12T12:36:40Z</time>
      </trkpt>
      <trkpt lat="48.78032" lon="7.31407">
        <ele>324.6</ele>
        <time>2026-03-12T12:36:45Z</time>
      </trkpt>
      <trkpt lat="48.78026" lon="7.31412">
        <ele>324.4</ele>
        <time>2026-03-12T12:36:50Z</time>
      </trkpt>
      <trkpt lat="48.78019" lon="7.31418">
        <ele>324.1</ele>
        <time>2026-03-12T12:36:55Z</time>
      </trkpt>
      <trkpt lat="48.78013" lon="7.31425">
        <ele>323.5</ele>
        <time>2026-03-12T12:37:00Z</time>
      </trkpt>
      <trkpt lat="48.78008" lon="7.31433">
        <ele>323</ele>
        <time>2026-03-12T12:37:05Z</time>
      </trkpt>
      <trkpt lat="48.78001" lon="7.31439">
        <ele>322.6</ele>
        <time>2026-03-12T12:37:10Z</time>
      </trkpt>
      <trkpt lat="48.77996" lon="7.31445">
        <ele>322.5</ele>
        <time>2026-03-12T12:37:15Z</time>
      </trkpt>
      <trkpt lat="48.77991" lon="7.31452">
        <ele>322.3</ele>
        <time>2026-03-12T12:37:20Z</time>
      </trkpt>
      <trkpt lat="48.77985" lon="7.31457">
        <ele>322.4</ele>
        <time>2026-03-12T12:37:25Z</time>
      </trkpt>
      <trkpt lat="48.77978" lon="7.31463">
        <ele>322.5</ele>
        <time>2026-03-12T12:37:30Z</time>
      </trkpt>
      <trkpt lat="48.77971" lon="7.3147">
        <ele>322.5</ele>
        <time>2026-03-12T12:37:35Z</time>
      </trkpt>
      <trkpt lat="48.77966" lon="7.31478">
        <ele>322.4</ele>
        <time>2026-03-12T12:37:40Z</time>
      </trkpt>
      <trkpt lat="48.77961" lon="7.31485">
        <ele>322.5</ele>
        <time>2026-03-12T12:37:45Z</time>
      </trkpt>
      <trkpt lat="48.77955" lon="7.31493">
        <ele>322.5</ele>
        <time>2026-03-12T12:37:50Z</time>
      </trkpt>
      <trkpt lat="48.77949" lon="7.31499">
        <ele>322.7</ele>
        <time>2026-03-12T12:37:55Z</time>
      </trkpt>
      <trkpt lat="48.77947" lon="7.31504">
        <ele>322.8</ele>
        <time>2026-03-12T12:38:00Z</time>
      </trkpt>
      <trkpt lat="48.77946" lon="7.31505">
        <ele>322.9</ele>
        <time>2026-03-12T12:38:05Z</time>
      </trkpt>
      <trkpt lat="48.77942" lon="7.31509">
        <ele>323.2</ele>
        <time>2026-03-12T12:38:10Z</time>
      </trkpt>
      <trkpt lat="48.77937" lon="7.31515">
        <ele>323.6</ele>
        <time>2026-03-12T12:38:15Z</time>
      </trkpt>
      <trkpt lat="48.77934" lon="7.31518">
        <ele>323.8</ele>
        <time>2026-03-12T12:38:20Z</time>
      </trkpt>
      <trkpt lat="48.77929" lon="7.31524">
        <ele>324.3</ele>
        <time>2026-03-12T12:38:25Z</time>
      </trkpt>
      <trkpt lat="48.77924" lon="7.31531">
        <ele>324.7</ele>
        <time>2026-03-12T12:38:30Z</time>
      </trkpt>
      <trkpt lat="48.7792" lon="7.31537">
        <ele>325.2</ele>
        <time>2026-03-12T12:38:35Z</time>
      </trkpt>
      <trkpt lat="48.77916" lon="7.31541">
        <ele>325.5</ele>
        <time>2026-03-12T12:38:40Z</time>
      </trkpt>
      <trkpt lat="48.77912" lon="7.31547">
        <ele>325.8</ele>
        <time>2026-03-12T12:38:45Z</time>
      </trkpt>
      <trkpt lat="48.77907" lon="7.31554">
        <ele>326.2</ele>
        <time>2026-03-12T12:38:50Z</time>
      </trkpt>
      <trkpt lat="48.77903" lon="7.31561">
        <ele>326.5</ele>
        <time>2026-03-12T12:38:55Z</time>
      </trkpt>
      <trkpt lat="48.77899" lon="7.31568">
        <ele>326.8</ele>
        <time>2026-03-12T12:39:00Z</time>
      </trkpt>
      <trkpt lat="48.77897" lon="7.31573">
        <ele>327</ele>
        <time>2026-03-12T12:39:05Z</time>
      </trkpt>
      <trkpt lat="48.77894" lon="7.31581">
        <ele>327.3</ele>
        <time>2026-03-12T12:39:10Z</time>
      </trkpt>
      <trkpt lat="48.77891" lon="7.31589">
        <ele>327.4</ele>
        <time>2026-03-12T12:39:15Z</time>
      </trkpt>
      <trkpt lat="48.77887" lon="7.31595">
        <ele>327.5</ele>
        <time>2026-03-12T12:39:20Z</time>
      </trkpt>
      <trkpt lat="48.77882" lon="7.31602">
        <ele>327.5</ele>
        <time>2026-03-12T12:39:25Z</time>
      </trkpt>
      <trkpt lat="48.77877" lon="7.31611">
        <ele>327.6</ele>
        <time>2026-03-12T12:39:30Z</time>
      </trkpt>
      <trkpt lat="48.77872" lon="7.31618">
        <ele>327.6</ele>
        <time>2026-03-12T12:39:35Z</time>
      </trkpt>
      <trkpt lat="48.77869" lon="7.31625">
        <ele>327.6</ele>
        <time>2026-03-12T12:39:40Z</time>
      </trkpt>
      <trkpt lat="48.77863" lon="7.3163">
        <ele>327.7</ele>
        <time>2026-03-12T12:39:45Z</time>
      </trkpt>
      <trkpt lat="48.77859" lon="7.31636">
        <ele>327.8</ele>
        <time>2026-03-12T12:39:50Z</time>
      </trkpt>
      <trkpt lat="48.77853" lon="7.31639">
        <ele>328</ele>
        <time>2026-03-12T12:39:55Z</time>
      </trkpt>
      <trkpt lat="48.77845" lon="7.31641">
        <ele>328.3</ele>
        <time>2026-03-12T12:40:00Z</time>
      </trkpt>
      <trkpt lat="48.77837" lon="7.31645">
        <ele>328.6</ele>
        <time>2026-03-12T12:40:05Z</time>
      </trkpt>
      <trkpt lat="48.7783" lon="7.31648">
        <ele>328.4</ele>
        <time>2026-03-12T12:40:10Z</time>
      </trkpt>
      <trkpt lat="48.77823" lon="7.31647">
        <ele>327.7</ele>
        <time>2026-03-12T12:40:15Z</time>
      </trkpt>
      <trkpt lat="48.77817" lon="7.31646">
        <ele>327.2</ele>
        <time>2026-03-12T12:40:20Z</time>
      </trkpt>
      <trkpt lat="48.77811" lon="7.31645">
        <ele>326.7</ele>
        <time>2026-03-12T12:40:25Z</time>
      </trkpt>
      <trkpt lat="48.77805" lon="7.31643">
        <ele>326.3</ele>
        <time>2026-03-12T12:40:30Z</time>
      </trkpt>
      <trkpt lat="48.77799" lon="7.31642">
        <ele>325.8</ele>
        <time>2026-03-12T12:40:35Z</time>
      </trkpt>
      <trkpt lat="48.77794" lon="7.31638">
        <ele>325.6</ele>
        <time>2026-03-12T12:40:40Z</time>
      </trkpt>
      <trkpt lat="48.77789" lon="7.31638">
        <ele>325.2</ele>
        <time>2026-03-12T12:40:45Z</time>
      </trkpt>
      <trkpt lat="48.77782" lon="7.31637">
        <ele>324.6</ele>
        <time>2026-03-12T12:40:50Z</time>
      </trkpt>
      <trkpt lat="48.77775" lon="7.31636">
        <ele>324.1</ele>
        <time>2026-03-12T12:40:55Z</time>
      </trkpt>
      <trkpt lat="48.77769" lon="7.31634">
        <ele>323.7</ele>
        <time>2026-03-12T12:41:00Z</time>
      </trkpt>
      <trkpt lat="48.77763" lon="7.31628">
        <ele>323.8</ele>
        <time>2026-03-12T12:41:05Z</time>
      </trkpt>
      <trkpt lat="48.77756" lon="7.31629">
        <ele>323.1</ele>
        <time>2026-03-12T12:41:10Z</time>
      </trkpt>
      <trkpt lat="48.77749" lon="7.31626">
        <ele>322.8</ele>
        <time>2026-03-12T12:41:15Z</time>
      </trkpt>
      <trkpt lat="48.77742" lon="7.3162">
        <ele>322.4</ele>
        <time>2026-03-12T12:41:20Z</time>
      </trkpt>
      <trkpt lat="48.77735" lon="7.31614">
        <ele>322.2</ele>
        <time>2026-03-12T12:41:25Z</time>
      </trkpt>
      <trkpt lat="48.77728" lon="7.31612">
        <ele>321.5</ele>
        <time>2026-03-12T12:41:30Z</time>
      </trkpt>
      <trkpt lat="48.77722" lon="7.31608">
        <ele>321.2</ele>
        <time>2026-03-12T12:41:35Z</time>
      </trkpt>
      <trkpt lat="48.77715" lon="7.31603">
        <ele>320.9</ele>
        <time>2026-03-12T12:41:40Z</time>
      </trkpt>
      <trkpt lat="48.77709" lon="7.316">
        <ele>320.6</ele>
        <time>2026-03-12T12:41:45Z</time>
      </trkpt>
      <trkpt lat="48.77704" lon="7.31595">
        <ele>320.6</ele>
        <time>2026-03-12T12:41:50Z</time>
      </trkpt>
      <trkpt lat="48.77696" lon="7.31589">
        <ele>320.4</ele>
        <time>2026-03-12T12:41:55Z</time>
      </trkpt>
      <trkpt lat="48.77691" lon="7.31582">
        <ele>320.8</ele>
        <time>2026-03-12T12:42:00Z</time>
      </trkpt>
      <trkpt lat="48.77687" lon="7.31578">
        <ele>320.7</ele>
        <time>2026-03-12T12:42:05Z</time>
      </trkpt>
      <trkpt lat="48.77682" lon="7.31571">
        <ele>321</ele>
        <time>2026-03-12T12:42:10Z</time>
      </trkpt>
      <trkpt lat="48.77676" lon="7.31568">
        <ele>320.7</ele>
        <time>2026-03-12T12:42:15Z</time>
      </trkpt>
      <trkpt lat="48.7767" lon="7.31566">
        <ele>320.4</ele>
        <time>2026-03-12T12:42:20Z</time>
      </trkpt>
      <trkpt lat="48.77664" lon="7.31562">
        <ele>320.6</ele>
        <time>2026-03-12T12:42:25Z</time>
      </trkpt>
      <trkpt lat="48.77659" lon="7.31556">
        <ele>321.5</ele>
        <time>2026-03-12T12:42:30Z</time>
      </trkpt>
      <trkpt lat="48.77654" lon="7.31549">
        <ele>322.4</ele>
        <time>2026-03-12T12:42:35Z</time>
      </trkpt>
      <trkpt lat="48.77647" lon="7.31541">
        <ele>323.4</ele>
        <time>2026-03-12T12:42:40Z</time>
      </trkpt>
      <trkpt lat="48.7764" lon="7.31536">
        <ele>324.1</ele>
        <time>2026-03-12T12:42:45Z</time>
      </trkpt>
      <trkpt lat="48.77635" lon="7.31532">
        <ele>324.6</ele>
        <time>2026-03-12T12:42:50Z</time>
      </trkpt>
      <trkpt lat="48.77629" lon="7.31528">
        <ele>325.1</ele>
        <time>2026-03-12T12:42:55Z</time>
      </trkpt>
      <trkpt lat="48.77623" lon="7.31521">
        <ele>325.9</ele>
        <time>2026-03-12T12:43:00Z</time>
      </trkpt>
      <trkpt lat="48.77618" lon="7.31514">
        <ele>326.6</ele>
        <time>2026-03-12T12:43:05Z</time>
      </trkpt>
      <trkpt lat="48.77612" lon="7.31509">
        <ele>327.1</ele>
        <time>2026-03-12T12:43:10Z</time>
      </trkpt>
      <trkpt lat="48.77605" lon="7.31506">
        <ele>327.4</ele>
        <time>2026-03-12T12:43:15Z</time>
      </trkpt>
      <trkpt lat="48.77599" lon="7.31508">
        <ele>327.3</ele>
        <time>2026-03-12T12:43:20Z</time>
      </trkpt>
      <trkpt lat="48.7759" lon="7.31511">
        <ele>327</ele>
        <time>2026-03-12T12:43:25Z</time>
      </trkpt>
      <trkpt lat="48.77583" lon="7.31512">
        <ele>327.1</ele>
        <time>2026-03-12T12:43:30Z</time>
      </trkpt>
      <trkpt lat="48.77582" lon="7.31509">
        <ele>327.5</ele>
        <time>2026-03-12T12:43:35Z</time>
      </trkpt>
      <trkpt lat="48.77581" lon="7.3151">
        <ele>327.6</ele>
        <time>2026-03-12T12:43:40Z</time>
      </trkpt>
      <trkpt lat="48.77577" lon="7.31506">
        <ele>328.8</ele>
        <time>2026-03-12T12:43:45Z</time>
      </trkpt>
      <trkpt lat="48.77573" lon="7.31505">
        <ele>329.7</ele>
        <time>2026-03-12T12:43:50Z</time>
      </trkpt>
      <trkpt lat="48.77568" lon="7.31504">
        <ele>330.8</ele>
        <time>2026-03-12T12:43:55Z</time>
      </trkpt>
      <trkpt lat="48.77565" lon="7.31505">
        <ele>331.3</ele>
        <time>2026-03-12T12:44:00Z</time>
      </trkpt>
      <trkpt lat="48.7756" lon="7.31503">
        <ele>332.5</ele>
        <time>2026-03-12T12:44:05Z</time>
      </trkpt>
      <trkpt lat="48.77558" lon="7.31501">
        <ele>333.1</ele>
        <time>2026-03-12T12:44:10Z</time>
      </trkpt>
      <trkpt lat="48.77555" lon="7.31498">
        <ele>333.8</ele>
        <time>2026-03-12T12:44:15Z</time>
      </trkpt>
      <trkpt lat="48.77551" lon="7.31498">
        <ele>334.6</ele>
        <time>2026-03-12T12:44:20Z</time>
      </trkpt>
      <trkpt lat="48.77546" lon="7.315">
        <ele>335.6</ele>
        <time>2026-03-12T12:44:25Z</time>
      </trkpt>
      <trkpt lat="48.7754" lon="7.315">
        <ele>336.8</ele>
        <time>2026-03-12T12:44:30Z</time>
      </trkpt>
      <trkpt lat="48.77536" lon="7.31501">
        <ele>337.6</ele>
        <time>2026-03-12T12:44:35Z</time>
      </trkpt>
      <trkpt lat="48.77532" lon="7.31504">
        <ele>338.1</ele>
        <time>2026-03-12T12:44:40Z</time>
      </trkpt>
      <trkpt lat="48.77527" lon="7.31503">
        <ele>339.2</ele>
        <time>2026-03-12T12:44:45Z</time>
      </trkpt>
      <trkpt lat="48.77522" lon="7.31502">
        <ele>340.3</ele>
        <time>2026-03-12T12:44:50Z</time>
      </trkpt>
      <trkpt lat="48.77517" lon="7.315">
        <ele>341.5</ele>
        <time>2026-03-12T12:44:55Z</time>
      </trkpt>
      <trkpt lat="48.77513" lon="7.31501">
        <ele>342.3</ele>
        <time>2026-03-12T12:45:00Z</time>
      </trkpt>
      <trkpt lat="48.77509" lon="7.31505">
        <ele>342.7</ele>
        <time>2026-03-12T12:45:05Z</time>
      </trkpt>
      <trkpt lat="48.77505" lon="7.31508">
        <ele>343.3</ele>
        <time>2026-03-12T12:45:10Z</time>
      </trkpt>
      <trkpt lat="48.775" lon="7.31508">
        <ele>344.3</ele>
        <time>2026-03-12T12:45:15Z</time>
      </trkpt>
      <trkpt lat="48.77495" lon="7.3151">
        <ele>344.5</ele>
        <time>2026-03-12T12:45:20Z</time>
      </trkpt>
      <trkpt lat="48.77491" lon="7.3151">
        <ele>344.8</ele>
        <time>2026-03-12T12:45:25Z</time>
      </trkpt>
      <trkpt lat="48.77487" lon="7.31512">
        <ele>345</ele>
        <time>2026-03-12T12:45:30Z</time>
      </trkpt>
      <trkpt lat="48.77484" lon="7.31514">
        <ele>345</ele>
        <time>2026-03-12T12:45:35Z</time>
      </trkpt>
      <trkpt lat="48.77478" lon="7.31518">
        <ele>345.2</ele>
        <time>2026-03-12T12:45:40Z</time>
      </trkpt>
      <trkpt lat="48.77472" lon="7.31521">
        <ele>345.4</ele>
        <time>2026-03-12T12:45:45Z</time>
      </trkpt>
      <trkpt lat="48.77467" lon="7.31523">
        <ele>345.7</ele>
        <time>2026-03-12T12:45:50Z</time>
      </trkpt>
      <trkpt lat="48.77464" lon="7.31525">
        <ele>345.8</ele>
        <time>2026-03-12T12:45:55Z</time>
      </trkpt>
      <trkpt lat="48.7746" lon="7.31527">
        <ele>345.9</ele>
        <time>2026-03-12T12:46:00Z</time>
      </trkpt>
      <trkpt lat="48.77455" lon="7.31531">
        <ele>346</ele>
        <time>2026-03-12T12:46:05Z</time>
      </trkpt>
      <trkpt lat="48.7745" lon="7.31536">
        <ele>346.1</ele>
        <time>2026-03-12T12:46:10Z</time>
      </trkpt>
      <trkpt lat="48.77445" lon="7.3154">
        <ele>346.2</ele>
        <time>2026-03-12T12:46:15Z</time>
      </trkpt>
      <trkpt lat="48.7744" lon="7.31543">
        <ele>346.5</ele>
        <time>2026-03-12T12:46:20Z</time>
      </trkpt>
      <trkpt lat="48.77437" lon="7.31548">
        <ele>346.4</ele>
        <time>2026-03-12T12:46:25Z</time>
      </trkpt>
      <trkpt lat="48.77431" lon="7.31556">
        <ele>346.4</ele>
        <time>2026-03-12T12:46:30Z</time>
      </trkpt>
      <trkpt lat="48.77425" lon="7.31559">
        <ele>346.7</ele>
        <time>2026-03-12T12:46:35Z</time>
      </trkpt>
      <trkpt lat="48.77423" lon="7.31562">
        <ele>346.7</ele>
        <time>2026-03-12T12:46:40Z</time>
      </trkpt>
      <trkpt lat="48.77419" lon="7.31565">
        <ele>346.9</ele>
        <time>2026-03-12T12:46:45Z</time>
      </trkpt>
      <trkpt lat="48.77416" lon="7.3157">
        <ele>346.9</ele>
        <time>2026-03-12T12:46:50Z</time>
      </trkpt>
      <trkpt lat="48.77415" lon="7.31575">
        <ele>346.6</ele>
        <time>2026-03-12T12:46:55Z</time>
      </trkpt>
      <trkpt lat="48.77411" lon="7.3158">
        <ele>346.7</ele>
        <time>2026-03-12T12:47:00Z</time>
      </trkpt>
      <trkpt lat="48.77406" lon="7.31584">
        <ele>346.8</ele>
        <time>2026-03-12T12:47:05Z</time>
      </trkpt>
      <trkpt lat="48.77401" lon="7.31588">
        <ele>346.8</ele>
        <time>2026-03-12T12:47:10Z</time>
      </trkpt>
      <trkpt lat="48.77398" lon="7.31594">
        <ele>346.4</ele>
        <time>2026-03-12T12:47:15Z</time>
      </trkpt>
      <trkpt lat="48.77394" lon="7.31597">
        <ele>346.5</ele>
        <time>2026-03-12T12:47:20Z</time>
      </trkpt>
      <trkpt lat="48.7739" lon="7.31599">
        <ele>346.6</ele>
        <time>2026-03-12T12:47:25Z</time>
      </trkpt>
      <trkpt lat="48.77387" lon="7.31602">
        <ele>346.6</ele>
        <time>2026-03-12T12:47:30Z</time>
      </trkpt>
      <trkpt lat="48.77384" lon="7.31606">
        <ele>346.4</ele>
        <time>2026-03-12T12:47:35Z</time>
      </trkpt>
      <trkpt lat="48.77381" lon="7.3161">
        <ele>346.3</ele>
        <time>2026-03-12T12:47:40Z</time>
      </trkpt>
      <trkpt lat="48.77377" lon="7.31611">
        <ele>346.5</ele>
        <time>2026-03-12T12:47:45Z</time>
      </trkpt>
      <trkpt lat="48.77374" lon="7.31614">
        <ele>346.5</ele>
        <time>2026-03-12T12:47:50Z</time>
      </trkpt>
      <trkpt lat="48.7737" lon="7.3162">
        <ele>346.2</ele>
        <time>2026-03-12T12:47:55Z</time>
      </trkpt>
      <trkpt lat="48.77366" lon="7.31626">
        <ele>346</ele>
        <time>2026-03-12T12:48:00Z</time>
      </trkpt>
      <trkpt lat="48.7736" lon="7.31625">
        <ele>346.6</ele>
        <time>2026-03-12T12:48:05Z</time>
      </trkpt>
      <trkpt lat="48.77354" lon="7.31623">
        <ele>347.3</ele>
        <time>2026-03-12T12:48:10Z</time>
      </trkpt>
      <trkpt lat="48.7735" lon="7.31619">
        <ele>348.1</ele>
        <time>2026-03-12T12:48:15Z</time>
      </trkpt>
      <trkpt lat="48.77348" lon="7.31613">
        <ele>348.9</ele>
        <time>2026-03-12T12:48:20Z</time>
      </trkpt>
      <trkpt lat="48.77349" lon="7.31602">
        <ele>349.8</ele>
        <time>2026-03-12T12:48:25Z</time>
      </trkpt>
      <trkpt lat="48.7735" lon="7.31592">
        <ele>350.7</ele>
        <time>2026-03-12T12:48:30Z</time>
      </trkpt>
      <trkpt lat="48.7735" lon="7.31583">
        <ele>351.6</ele>
        <time>2026-03-12T12:48:35Z</time>
      </trkpt>
      <trkpt lat="48.77351" lon="7.31575">
        <ele>351.9</ele>
        <time>2026-03-12T12:48:40Z</time>
      </trkpt>
      <trkpt lat="48.77351" lon="7.31567">
        <ele>352.2</ele>
        <time>2026-03-12T12:48:45Z</time>
      </trkpt>
      <trkpt lat="48.77351" lon="7.31557">
        <ele>352.6</ele>
        <time>2026-03-12T12:48:50Z</time>
      </trkpt>
      <trkpt lat="48.77352" lon="7.31547">
        <ele>352.9</ele>
        <time>2026-03-12T12:48:55Z</time>
      </trkpt>
      <trkpt lat="48.77351" lon="7.31538">
        <ele>353.4</ele>
        <time>2026-03-12T12:49:00Z</time>
      </trkpt>
      <trkpt lat="48.77352" lon="7.31529">
        <ele>353.7</ele>
        <time>2026-03-12T12:49:05Z</time>
      </trkpt>
      <trkpt lat="48.77353" lon="7.31521">
        <ele>353.9</ele>
        <time>2026-03-12T12:49:10Z</time>
      </trkpt>
      <trkpt lat="48.77352" lon="7.31511">
        <ele>354.4</ele>
        <time>2026-03-12T12:49:15Z</time>
      </trkpt>
      <trkpt lat="48.77351" lon="7.31502">
        <ele>354.9</ele>
        <time>2026-03-12T12:49:20Z</time>
      </trkpt>
      <trkpt lat="48.7735" lon="7.31492">
        <ele>354.9</ele>
        <time>2026-03-12T12:49:25Z</time>
      </trkpt>
      <trkpt lat="48.77349" lon="7.31483">
        <ele>354.8</ele>
        <time>2026-03-12T12:49:30Z</time>
      </trkpt>
      <trkpt lat="48.77348" lon="7.31472">
        <ele>354.7</ele>
        <time>2026-03-12T12:49:35Z</time>
      </trkpt>
      <trkpt lat="48.77349" lon="7.31463">
        <ele>354.4</ele>
        <time>2026-03-12T12:49:40Z</time>
      </trkpt>
      <trkpt lat="48.77352" lon="7.31454">
        <ele>354.1</ele>
        <time>2026-03-12T12:49:45Z</time>
      </trkpt>
      <trkpt lat="48.77354" lon="7.31444">
        <ele>353.8</ele>
        <time>2026-03-12T12:49:50Z</time>
      </trkpt>
      <trkpt lat="48.77356" lon="7.31435">
        <ele>353.4</ele>
        <time>2026-03-12T12:49:55Z</time>
      </trkpt>
      <trkpt lat="48.77361" lon="7.31427">
        <ele>352.9</ele>
        <time>2026-03-12T12:50:00Z</time>
      </trkpt>
      <trkpt lat="48.77365" lon="7.31419">
        <ele>352.4</ele>
        <time>2026-03-12T12:50:05Z</time>
      </trkpt>
      <trkpt lat="48.77368" lon="7.3141">
        <ele>352.1</ele>
        <time>2026-03-12T12:50:10Z</time>
      </trkpt>
      <trkpt lat="48.77372" lon="7.31403">
        <ele>351.8</ele>
        <time>2026-03-12T12:50:15Z</time>
      </trkpt>
      <trkpt lat="48.77375" lon="7.31394">
        <ele>351.6</ele>
        <time>2026-03-12T12:50:20Z</time>
      </trkpt>
      <trkpt lat="48.77373" lon="7.31387">
        <ele>351.9</ele>
        <time>2026-03-12T12:50:25Z</time>
      </trkpt>
      <trkpt lat="48.77373" lon="7.31384">
        <ele>351.9</ele>
        <time>2026-03-12T12:50:30Z</time>
      </trkpt>
      <trkpt lat="48.77373" lon="7.31384">
        <ele>351.9</ele>
        <time>2026-03-12T12:50:35Z</time>
      </trkpt>
      <trkpt lat="48.77373" lon="7.31384">
        <ele>351.9</ele>
        <time>2026-03-12T12:50:40Z</time>
      </trkpt>
      <trkpt lat="48.77375" lon="7.31375">
        <ele>351.8</ele>
        <time>2026-03-12T12:50:45Z</time>
      </trkpt>
      <trkpt lat="48.77376" lon="7.31363">
        <ele>351.7</ele>
        <time>2026-03-12T12:50:50Z</time>
      </trkpt>
      <trkpt lat="48.77373" lon="7.31362">
        <ele>352</ele>
        <time>2026-03-12T12:50:55Z</time>
      </trkpt>
      <trkpt lat="48.77372" lon="7.31364">
        <ele>352.1</ele>
        <time>2026-03-12T12:51:00Z</time>
      </trkpt>
      <trkpt lat="48.7737" lon="7.31371">
        <ele>352.2</ele>
        <time>2026-03-12T12:51:05Z</time>
      </trkpt>
      <trkpt lat="48.77368" lon="7.31377">
        <ele>352.4</ele>
        <time>2026-03-12T12:51:10Z</time>
      </trkpt>
      <trkpt lat="48.77363" lon="7.31379">
        <ele>352.8</ele>
        <time>2026-03-12T12:51:15Z</time>
      </trkpt>
      <trkpt lat="48.77357" lon="7.31379">
        <ele>353.3</ele>
        <time>2026-03-12T12:51:20Z</time>
      </trkpt>
      <trkpt lat="48.7735" lon="7.31377">
        <ele>354</ele>
        <time>2026-03-12T12:51:25Z</time>
      </trkpt>
      <trkpt lat="48.77343" lon="7.31375">
        <ele>354.6</ele>
        <time>2026-03-12T12:51:30Z</time>
      </trkpt>
      <trkpt lat="48.77339" lon="7.31374">
        <ele>355</ele>
        <time>2026-03-12T12:51:35Z</time>
      </trkpt>
      <trkpt lat="48.77335" lon="7.31375">
        <ele>355.4</ele>
        <time>2026-03-12T12:51:40Z</time>
      </trkpt>
      <trkpt lat="48.77329" lon="7.31374">
        <ele>355.6</ele>
        <time>2026-03-12T12:51:45Z</time>
      </trkpt>
      <trkpt lat="48.77323" lon="7.31376">
        <ele>355.7</ele>
        <time>2026-03-12T12:51:50Z</time>
      </trkpt>
      <trkpt lat="48.77316" lon="7.31375">
        <ele>355.8</ele>
        <time>2026-03-12T12:51:55Z</time>
      </trkpt>
      <trkpt lat="48.77311" lon="7.31375">
        <ele>355.9</ele>
        <time>2026-03-12T12:52:00Z</time>
      </trkpt>
      <trkpt lat="48.77305" lon="7.31375">
        <ele>356</ele>
        <time>2026-03-12T12:52:05Z</time>
      </trkpt>
      <trkpt lat="48.77299" lon="7.31374">
        <ele>356.1</ele>
        <time>2026-03-12T12:52:10Z</time>
      </trkpt>
      <trkpt lat="48.77293" lon="7.31374">
        <ele>356.2</ele>
        <time>2026-03-12T12:52:15Z</time>
      </trkpt>
      <trkpt lat="48.77287" lon="7.31375">
        <ele>356.3</ele>
        <time>2026-03-12T12:52:20Z</time>
      </trkpt>
      <trkpt lat="48.77281" lon="7.31375">
        <ele>356.4</ele>
        <time>2026-03-12T12:52:25Z</time>
      </trkpt>
      <trkpt lat="48.77275" lon="7.31377">
        <ele>356.6</ele>
        <time>2026-03-12T12:52:30Z</time>
      </trkpt>
      <trkpt lat="48.77269" lon="7.31376">
        <ele>356.7</ele>
        <time>2026-03-12T12:52:35Z</time>
      </trkpt>
      <trkpt lat="48.77263" lon="7.31375">
        <ele>356.8</ele>
        <time>2026-03-12T12:52:40Z</time>
      </trkpt>
      <trkpt lat="48.77257" lon="7.31375">
        <ele>356.9</ele>
        <time>2026-03-12T12:52:45Z</time>
      </trkpt>
      <trkpt lat="48.77251" lon="7.31374">
        <ele>357</ele>
        <time>2026-03-12T12:52:50Z</time>
      </trkpt>
      <trkpt lat="48.77245" lon="7.31377">
        <ele>357.3</ele>
        <time>2026-03-12T12:52:55Z</time>
      </trkpt>
      <trkpt lat="48.7724" lon="7.31376">
        <ele>357.6</ele>
        <time>2026-03-12T12:53:00Z</time>
      </trkpt>
      <trkpt lat="48.77234" lon="7.31376">
        <ele>358</ele>
        <time>2026-03-12T12:53:05Z</time>
      </trkpt>
      <trkpt lat="48.77227" lon="7.31376">
        <ele>358.4</ele>
        <time>2026-03-12T12:53:10Z</time>
      </trkpt>
      <trkpt lat="48.77222" lon="7.31376">
        <ele>358.7</ele>
        <time>2026-03-12T12:53:15Z</time>
      </trkpt>
      <trkpt lat="48.77216" lon="7.31375">
        <ele>359</ele>
        <time>2026-03-12T12:53:20Z</time>
      </trkpt>
      <trkpt lat="48.77211" lon="7.31375">
        <ele>359.3</ele>
        <time>2026-03-12T12:53:25Z</time>
      </trkpt>
      <trkpt lat="48.7721" lon="7.31373">
        <ele>359.4</ele>
        <time>2026-03-12T12:53:30Z</time>
      </trkpt>
      <trkpt lat="48.7721" lon="7.31372">
        <ele>359.4</ele>
        <time>2026-03-12T12:53:35Z</time>
      </trkpt>
      <trkpt lat="48.77204" lon="7.31373">
        <ele>359.7</ele>
        <time>2026-03-12T12:53:40Z</time>
      </trkpt>
      <trkpt lat="48.77196" lon="7.31374">
        <ele>360.2</ele>
        <time>2026-03-12T12:53:45Z</time>
      </trkpt>
      <trkpt lat="48.77193" lon="7.31373">
        <ele>360.4</ele>
        <time>2026-03-12T12:53:50Z</time>
      </trkpt>
      <trkpt lat="48.77186" lon="7.31372">
        <ele>360.8</ele>
        <time>2026-03-12T12:53:55Z</time>
      </trkpt>
      <trkpt lat="48.77179" lon="7.31371">
        <ele>361.2</ele>
        <time>2026-03-12T12:54:00Z</time>
      </trkpt>
      <trkpt lat="48.77172" lon="7.31372">
        <ele>361.7</ele>
        <time>2026-03-12T12:54:05Z</time>
      </trkpt>
      <trkpt lat="48.77166" lon="7.31371">
        <ele>362.1</ele>
        <time>2026-03-12T12:54:10Z</time>
      </trkpt>
      <trkpt lat="48.7716" lon="7.31371">
        <ele>362.6</ele>
        <time>2026-03-12T12:54:15Z</time>
      </trkpt>
      <trkpt lat="48.77151" lon="7.31371">
        <ele>363.5</ele>
        <time>2026-03-12T12:54:20Z</time>
      </trkpt>
      <trkpt lat="48.77142" lon="7.31371">
        <ele>364.4</ele>
        <time>2026-03-12T12:54:25Z</time>
      </trkpt>
      <trkpt lat="48.77134" lon="7.31368">
        <ele>365.2</ele>
        <time>2026-03-12T12:54:30Z</time>
      </trkpt>
      <trkpt lat="48.77126" lon="7.31369">
        <ele>366</ele>
        <time>2026-03-12T12:54:35Z</time>
      </trkpt>
      <trkpt lat="48.7712" lon="7.31371">
        <ele>366.5</ele>
        <time>2026-03-12T12:54:40Z</time>
      </trkpt>
      <trkpt lat="48.77113" lon="7.3137">
        <ele>367.2</ele>
        <time>2026-03-12T12:54:45Z</time>
      </trkpt>
      <trkpt lat="48.77106" lon="7.31368">
        <ele>367.9</ele>
        <time>2026-03-12T12:54:50Z</time>
      </trkpt>
      <trkpt lat="48.771" lon="7.31369">
        <ele>368.5</ele>
        <time>2026-03-12T12:54:55Z</time>
      </trkpt>
      <trkpt lat="48.77094" lon="7.31369">
        <ele>369.1</ele>
        <time>2026-03-12T12:55:00Z</time>
      </trkpt>
      <trkpt lat="48.77088" lon="7.31368">
        <ele>369.7</ele>
        <time>2026-03-12T12:55:05Z</time>
      </trkpt>
      <trkpt lat="48.7708" lon="7.31371">
        <ele>370.4</ele>
        <time>2026-03-12T12:55:10Z</time>
      </trkpt>
      <trkpt lat="48.77072" lon="7.3137">
        <ele>371</ele>
        <time>2026-03-12T12:55:15Z</time>
      </trkpt>
      <trkpt lat="48.77065" lon="7.31373">
        <ele>371.5</ele>
        <time>2026-03-12T12:55:20Z</time>
      </trkpt>
      <trkpt lat="48.7706" lon="7.31372">
        <ele>371.9</ele>
        <time>2026-03-12T12:55:25Z</time>
      </trkpt>
      <trkpt lat="48.77053" lon="7.31376">
        <ele>372.3</ele>
        <time>2026-03-12T12:55:30Z</time>
      </trkpt>
      <trkpt lat="48.77046" lon="7.31378">
        <ele>372.8</ele>
        <time>2026-03-12T12:55:35Z</time>
      </trkpt>
      <trkpt lat="48.7704" lon="7.31384">
        <ele>373.1</ele>
        <time>2026-03-12T12:55:40Z</time>
      </trkpt>
      <trkpt lat="48.77034" lon="7.31388">
        <ele>373.4</ele>
        <time>2026-03-12T12:55:45Z</time>
      </trkpt>
      <trkpt lat="48.77026" lon="7.31391">
        <ele>374</ele>
        <time>2026-03-12T12:55:50Z</time>
      </trkpt>
      <trkpt lat="48.7702" lon="7.31397">
        <ele>374.2</ele>
        <time>2026-03-12T12:55:55Z</time>
      </trkpt>
      <trkpt lat="48.77014" lon="7.31403">
        <ele>374.5</ele>
        <time>2026-03-12T12:56:00Z</time>
      </trkpt>
      <trkpt lat="48.77009" lon="7.31408">
        <ele>374.7</ele>
        <time>2026-03-12T12:56:05Z</time>
      </trkpt>
      <trkpt lat="48.77001" lon="7.31411">
        <ele>375.1</ele>
        <time>2026-03-12T12:56:10Z</time>
      </trkpt>
      <trkpt lat="48.76997" lon="7.31417">
        <ele>375</ele>
        <time>2026-03-12T12:56:15Z</time>
      </trkpt>
      <trkpt lat="48.76995" lon="7.31427">
        <ele>374.7</ele>
        <time>2026-03-12T12:56:20Z</time>
      </trkpt>
      <trkpt lat="48.76997" lon="7.31437">
        <ele>374.5</ele>
        <time>2026-03-12T12:56:25Z</time>
      </trkpt>
      <trkpt lat="48.77001" lon="7.31444">
        <ele>374.3</ele>
        <time>2026-03-12T12:56:30Z</time>
      </trkpt>
      <trkpt lat="48.77002" lon="7.31452">
        <ele>374.1</ele>
        <time>2026-03-12T12:56:35Z</time>
      </trkpt>
      <trkpt lat="48.76999" lon="7.31456">
        <ele>374</ele>
        <time>2026-03-12T12:56:40Z</time>
      </trkpt>
      <trkpt lat="48.76995" lon="7.31462">
        <ele>373.9</ele>
        <time>2026-03-12T12:56:45Z</time>
      </trkpt>
      <trkpt lat="48.7699" lon="7.31465">
        <ele>373.8</ele>
        <time>2026-03-12T12:56:50Z</time>
      </trkpt>
      <trkpt lat="48.76985" lon="7.31467">
        <ele>373.7</ele>
        <time>2026-03-12T12:56:55Z</time>
      </trkpt>
      <trkpt lat="48.76979" lon="7.31473">
        <ele>373.6</ele>
        <time>2026-03-12T12:57:00Z</time>
      </trkpt>
      <trkpt lat="48.76973" lon="7.31478">
        <ele>373.4</ele>
        <time>2026-03-12T12:57:05Z</time>
      </trkpt>
      <trkpt lat="48.76967" lon="7.31479">
        <ele>373.4</ele>
        <time>2026-03-12T12:57:10Z</time>
      </trkpt>
      <trkpt lat="48.76961" lon="7.31482">
        <ele>373.3</ele>
        <time>2026-03-12T12:57:15Z</time>
      </trkpt>
      <trkpt lat="48.76955" lon="7.31484">
        <ele>373.3</ele>
        <time>2026-03-12T12:57:20Z</time>
      </trkpt>
      <trkpt lat="48.76949" lon="7.31485">
        <ele>373.2</ele>
        <time>2026-03-12T12:57:25Z</time>
      </trkpt>
      <trkpt lat="48.76945" lon="7.31485">
        <ele>373.2</ele>
        <time>2026-03-12T12:57:30Z</time>
      </trkpt>
      <trkpt lat="48.7694" lon="7.31489">
        <ele>373.2</ele>
        <time>2026-03-12T12:57:35Z</time>
      </trkpt>
      <trkpt lat="48.76936" lon="7.31495">
        <ele>373.1</ele>
        <time>2026-03-12T12:57:40Z</time>
      </trkpt>
      <trkpt lat="48.76933" lon="7.315">
        <ele>373</ele>
        <time>2026-03-12T12:57:45Z</time>
      </trkpt>
      <trkpt lat="48.7693" lon="7.31505">
        <ele>373.1</ele>
        <time>2026-03-12T12:57:50Z</time>
      </trkpt>
      <trkpt lat="48.76925" lon="7.3151">
        <ele>373.2</ele>
        <time>2026-03-12T12:57:55Z</time>
      </trkpt>
      <trkpt lat="48.76918" lon="7.31515">
        <ele>373.4</ele>
        <time>2026-03-12T12:58:00Z</time>
      </trkpt>
      <trkpt lat="48.76913" lon="7.31519">
        <ele>373.2</ele>
        <time>2026-03-12T12:58:05Z</time>
      </trkpt>
      <trkpt lat="48.7691" lon="7.31526">
        <ele>373.2</ele>
        <time>2026-03-12T12:58:10Z</time>
      </trkpt>
      <trkpt lat="48.76908" lon="7.31535">
        <ele>373.4</ele>
        <time>2026-03-12T12:58:15Z</time>
      </trkpt>
      <trkpt lat="48.76906" lon="7.31543">
        <ele>373.5</ele>
        <time>2026-03-12T12:58:20Z</time>
      </trkpt>
      <trkpt lat="48.76903" lon="7.31553">
        <ele>373.7</ele>
        <time>2026-03-12T12:58:25Z</time>
      </trkpt>
      <trkpt lat="48.769" lon="7.31562">
        <ele>373.9</ele>
        <time>2026-03-12T12:58:30Z</time>
      </trkpt>
      <trkpt lat="48.76897" lon="7.3157">
        <ele>374.1</ele>
        <time>2026-03-12T12:58:35Z</time>
      </trkpt>
      <trkpt lat="48.76895" lon="7.31578">
        <ele>374.3</ele>
        <time>2026-03-12T12:58:40Z</time>
      </trkpt>
      <trkpt lat="48.76892" lon="7.31585">
        <ele>374.4</ele>
        <time>2026-03-12T12:58:45Z</time>
      </trkpt>
      <trkpt lat="48.76888" lon="7.31592">
        <ele>374.5</ele>
        <time>2026-03-12T12:58:50Z</time>
      </trkpt>
      <trkpt lat="48.76883" lon="7.31596">
        <ele>374.5</ele>
        <time>2026-03-12T12:58:55Z</time>
      </trkpt>
      <trkpt lat="48.76879" lon="7.31603">
        <ele>374.7</ele>
        <time>2026-03-12T12:59:00Z</time>
      </trkpt>
      <trkpt lat="48.76875" lon="7.31612">
        <ele>374.9</ele>
        <time>2026-03-12T12:59:05Z</time>
      </trkpt>
      <trkpt lat="48.7687" lon="7.3162">
        <ele>375.1</ele>
        <time>2026-03-12T12:59:10Z</time>
      </trkpt>
      <trkpt lat="48.76867" lon="7.31627">
        <ele>375.3</ele>
        <time>2026-03-12T12:59:15Z</time>
      </trkpt>
      <trkpt lat="48.76864" lon="7.31634">
        <ele>375.5</ele>
        <time>2026-03-12T12:59:20Z</time>
      </trkpt>
      <trkpt lat="48.76861" lon="7.31641">
        <ele>375.7</ele>
        <time>2026-03-12T12:59:25Z</time>
      </trkpt>
      <trkpt lat="48.76858" lon="7.31648">
        <ele>376</ele>
        <time>2026-03-12T12:59:30Z</time>
      </trkpt>
      <trkpt lat="48.76856" lon="7.31657">
        <ele>376.4</ele>
        <time>2026-03-12T12:59:35Z</time>
      </trkpt>
      <trkpt lat="48.76853" lon="7.31662">
        <ele>376.6</ele>
        <time>2026-03-12T12:59:40Z</time>
      </trkpt>
      <trkpt lat="48.7685" lon="7.3167">
        <ele>377.2</ele>
        <time>2026-03-12T12:59:45Z</time>
      </trkpt>
      <trkpt lat="48.76846" lon="7.31676">
        <ele>377.9</ele>
        <time>2026-03-12T12:59:50Z</time>
      </trkpt>
      <trkpt lat="48.7684" lon="7.31682">
        <ele>378.7</ele>
        <time>2026-03-12T12:59:55Z</time>
      </trkpt>
      <trkpt lat="48.76835" lon="7.31686">
        <ele>379.3</ele>
        <time>2026-03-12T13:00:00Z</time>
      </trkpt>
      <trkpt lat="48.76832" lon="7.31695">
        <ele>380.4</ele>
        <time>2026-03-12T13:00:05Z</time>
      </trkpt>
      <trkpt lat="48.7683" lon="7.31704">
        <ele>381.4</ele>
        <time>2026-03-12T13:00:10Z</time>
      </trkpt>
      <trkpt lat="48.76824" lon="7.31706">
        <ele>381.6</ele>
        <time>2026-03-12T13:00:15Z</time>
      </trkpt>
      <trkpt lat="48.76815" lon="7.31706">
        <ele>381.4</ele>
        <time>2026-03-12T13:00:20Z</time>
      </trkpt>
      <trkpt lat="48.76811" lon="7.31707">
        <ele>381.4</ele>
        <time>2026-03-12T13:00:25Z</time>
      </trkpt>
      <trkpt lat="48.76805" lon="7.31709">
        <ele>381.6</ele>
        <time>2026-03-12T13:00:30Z</time>
      </trkpt>
      <trkpt lat="48.76801" lon="7.31713">
        <ele>382</ele>
        <time>2026-03-12T13:00:35Z</time>
      </trkpt>
      <trkpt lat="48.76796" lon="7.31714">
        <ele>382</ele>
        <time>2026-03-12T13:00:40Z</time>
      </trkpt>
      <trkpt lat="48.76789" lon="7.31712">
        <ele>381.6</ele>
        <time>2026-03-12T13:00:45Z</time>
      </trkpt>
      <trkpt lat="48.76783" lon="7.3171">
        <ele>381.3</ele>
        <time>2026-03-12T13:00:50Z</time>
      </trkpt>
      <trkpt lat="48.76778" lon="7.3171">
        <ele>381.2</ele>
        <time>2026-03-12T13:00:55Z</time>
      </trkpt>
      <trkpt lat="48.76772" lon="7.31711">
        <ele>381.2</ele>
        <time>2026-03-12T13:01:00Z</time>
      </trkpt>
      <trkpt lat="48.76766" lon="7.31712">
        <ele>381.2</ele>
        <time>2026-03-12T13:01:05Z</time>
      </trkpt>
      <trkpt lat="48.7676" lon="7.31717">
        <ele>381.6</ele>
        <time>2026-03-12T13:01:10Z</time>
      </trkpt>
      <trkpt lat="48.76753" lon="7.3172">
        <ele>381.8</ele>
        <time>2026-03-12T13:01:15Z</time>
      </trkpt>
      <trkpt lat="48.7675" lon="7.31728">
        <ele>382.6</ele>
        <time>2026-03-12T13:01:20Z</time>
      </trkpt>
      <trkpt lat="48.76747" lon="7.31733">
        <ele>383.3</ele>
        <time>2026-03-12T13:01:25Z</time>
      </trkpt>
      <trkpt lat="48.76745" lon="7.31739">
        <ele>384.1</ele>
        <time>2026-03-12T13:01:30Z</time>
      </trkpt>
      <trkpt lat="48.76743" lon="7.31746">
        <ele>384.9</ele>
        <time>2026-03-12T13:01:35Z</time>
      </trkpt>
      <trkpt lat="48.7674" lon="7.31754">
        <ele>385.8</ele>
        <time>2026-03-12T13:01:40Z</time>
      </trkpt>
      <trkpt lat="48.76735" lon="7.31759">
        <ele>386.5</ele>
        <time>2026-03-12T13:01:45Z</time>
      </trkpt>
      <trkpt lat="48.76732" lon="7.31765">
        <ele>387.1</ele>
        <time>2026-03-12T13:01:50Z</time>
      </trkpt>
      <trkpt lat="48.7673" lon="7.31771">
        <ele>387.7</ele>
        <time>2026-03-12T13:01:55Z</time>
      </trkpt>
      <trkpt lat="48.7673" lon="7.31779">
        <ele>388.4</ele>
        <time>2026-03-12T13:02:00Z</time>
      </trkpt>
      <trkpt lat="48.76732" lon="7.31786">
        <ele>388.9</ele>
        <time>2026-03-12T13:02:05Z</time>
      </trkpt>
      <trkpt lat="48.76733" lon="7.31792">
        <ele>389.4</ele>
        <time>2026-03-12T13:02:10Z</time>
      </trkpt>
      <trkpt lat="48.76734" lon="7.31799">
        <ele>390</ele>
        <time>2026-03-12T13:02:15Z</time>
      </trkpt>
      <trkpt lat="48.76735" lon="7.31808">
        <ele>390.8</ele>
        <time>2026-03-12T13:02:20Z</time>
      </trkpt>
      <trkpt lat="48.76737" lon="7.31819">
        <ele>391.7</ele>
        <time>2026-03-12T13:02:25Z</time>
      </trkpt>
      <trkpt lat="48.76736" lon="7.31827">
        <ele>392.4</ele>
        <time>2026-03-12T13:02:30Z</time>
      </trkpt>
      <trkpt lat="48.76735" lon="7.31832">
        <ele>392.9</ele>
        <time>2026-03-12T13:02:35Z</time>
      </trkpt>
      <trkpt lat="48.76736" lon="7.31839">
        <ele>393.4</ele>
        <time>2026-03-12T13:02:40Z</time>
      </trkpt>
      <trkpt lat="48.76736" lon="7.31847">
        <ele>393.9</ele>
        <time>2026-03-12T13:02:45Z</time>
      </trkpt>
      <trkpt lat="48.76735" lon="7.31853">
        <ele>394.3</ele>
        <time>2026-03-12T13:02:50Z</time>
      </trkpt>
      <trkpt lat="48.76734" lon="7.3186">
        <ele>394.8</ele>
        <time>2026-03-12T13:02:55Z</time>
      </trkpt>
      <trkpt lat="48.76733" lon="7.31868">
        <ele>395.3</ele>
        <time>2026-03-12T13:03:00Z</time>
      </trkpt>
      <trkpt lat="48.76734" lon="7.31874">
        <ele>395.7</ele>
        <time>2026-03-12T13:03:05Z</time>
      </trkpt>
      <trkpt lat="48.76735" lon="7.31882">
        <ele>396.3</ele>
        <time>2026-03-12T13:03:10Z</time>
      </trkpt>
      <trkpt lat="48.76736" lon="7.31888">
        <ele>396.7</ele>
        <time>2026-03-12T13:03:15Z</time>
      </trkpt>
      <trkpt lat="48.76736" lon="7.31897">
        <ele>397.3</ele>
        <time>2026-03-12T13:03:20Z</time>
      </trkpt>
      <trkpt lat="48.76735" lon="7.31905">
        <ele>397.9</ele>
        <time>2026-03-12T13:03:25Z</time>
      </trkpt>
      <trkpt lat="48.76734" lon="7.31913">
        <ele>398.4</ele>
        <time>2026-03-12T13:03:30Z</time>
      </trkpt>
      <trkpt lat="48.76734" lon="7.3192">
        <ele>398.7</ele>
        <time>2026-03-12T13:03:35Z</time>
      </trkpt>
      <trkpt lat="48.76735" lon="7.31927">
        <ele>398.9</ele>
        <time>2026-03-12T13:03:40Z</time>
      </trkpt>
      <trkpt lat="48.76734" lon="7.3193">
        <ele>398.9</ele>
        <time>2026-03-12T13:03:45Z</time>
      </trkpt>
      <trkpt lat="48.76734" lon="7.3193">
        <ele>398.9</ele>
        <time>2026-03-12T13:03:50Z</time>
      </trkpt>
      <trkpt lat="48.76732" lon="7.31931">
        <ele>398.9</ele>
        <time>2026-03-12T13:03:55Z</time>
      </trkpt>
      <trkpt lat="48.76732" lon="7.31934">
        <ele>398.9</ele>
        <time>2026-03-12T13:04:00Z</time>
      </trkpt>
      <trkpt lat="48.7673" lon="7.31938">
        <ele>399</ele>
        <time>2026-03-12T13:04:05Z</time>
      </trkpt>
      <trkpt lat="48.76728" lon="7.31945">
        <ele>399.1</ele>
        <time>2026-03-12T13:04:10Z</time>
      </trkpt>
      <trkpt lat="48.76725" lon="7.31951">
        <ele>399.1</ele>
        <time>2026-03-12T13:04:15Z</time>
      </trkpt>
      <trkpt lat="48.76723" lon="7.31957">
        <ele>399.2</ele>
        <time>2026-03-12T13:04:20Z</time>
      </trkpt>
      <trkpt lat="48.76721" lon="7.31963">
        <ele>399.2</ele>
        <time>2026-03-12T13:04:24Z</time>
      </trkpt>
      <trkpt lat="48.76719" lon="7.31972">
        <ele>399.3</ele>
        <time>2026-03-12T13:04:30Z</time>
      </trkpt>
      <trkpt lat="48.76715" lon="7.3198">
        <ele>399.4</ele>
        <time>2026-03-12T13:04:35Z</time>
      </trkpt>
      <trkpt lat="48.76712" lon="7.31988">
        <ele>399.4</ele>
        <time>2026-03-12T13:04:40Z</time>
      </trkpt>
      <trkpt lat="48.7671" lon="7.31994">
        <ele>399.5</ele>
        <time>2026-03-12T13:04:45Z</time>
      </trkpt>
      <trkpt lat="48.76708" lon="7.32">
        <ele>399.5</ele>
        <time>2026-03-12T13:04:50Z</time>
      </trkpt>
      <trkpt lat="48.76706" lon="7.32009">
        <ele>399.2</ele>
        <time>2026-03-12T13:04:55Z</time>
      </trkpt>
      <trkpt lat="48.76702" lon="7.32017">
        <ele>398.9</ele>
        <time>2026-03-12T13:05:00Z</time>
      </trkpt>
      <trkpt lat="48.76697" lon="7.32027">
        <ele>398.6</ele>
        <time>2026-03-12T13:05:05Z</time>
      </trkpt>
      <trkpt lat="48.76692" lon="7.32036">
        <ele>398.4</ele>
        <time>2026-03-12T13:05:10Z</time>
      </trkpt>
      <trkpt lat="48.76687" lon="7.32043">
        <ele>398.2</ele>
        <time>2026-03-12T13:05:15Z</time>
      </trkpt>
      <trkpt lat="48.7668" lon="7.32051">
        <ele>398.1</ele>
        <time>2026-03-12T13:05:20Z</time>
      </trkpt>
      <trkpt lat="48.76676" lon="7.32057">
        <ele>398</ele>
        <time>2026-03-12T13:05:25Z</time>
      </trkpt>
      <trkpt lat="48.76672" lon="7.32066">
        <ele>398</ele>
        <time>2026-03-12T13:05:30Z</time>
      </trkpt>
      <trkpt lat="48.76668" lon="7.32074">
        <ele>398</ele>
        <time>2026-03-12T13:05:35Z</time>
      </trkpt>
      <trkpt lat="48.76661" lon="7.32078">
        <ele>397.9</ele>
        <time>2026-03-12T13:05:40Z</time>
      </trkpt>
      <trkpt lat="48.76653" lon="7.32072">
        <ele>397.8</ele>
        <time>2026-03-12T13:05:45Z</time>
      </trkpt>
      <trkpt lat="48.76647" lon="7.32067">
        <ele>397.7</ele>
        <time>2026-03-12T13:05:50Z</time>
      </trkpt>
      <trkpt lat="48.76641" lon="7.32059">
        <ele>397.5</ele>
        <time>2026-03-12T13:05:55Z</time>
      </trkpt>
      <trkpt lat="48.76634" lon="7.32054">
        <ele>397.3</ele>
        <time>2026-03-12T13:06:00Z</time>
      </trkpt>
      <trkpt lat="48.76629" lon="7.32048">
        <ele>397.2</ele>
        <time>2026-03-12T13:06:05Z</time>
      </trkpt>
      <trkpt lat="48.76623" lon="7.32043">
        <ele>397</ele>
        <time>2026-03-12T13:06:10Z</time>
      </trkpt>
      <trkpt lat="48.76618" lon="7.32037">
        <ele>396.8</ele>
        <time>2026-03-12T13:06:15Z</time>
      </trkpt>
      <trkpt lat="48.76612" lon="7.3203">
        <ele>396.5</ele>
        <time>2026-03-12T13:06:20Z</time>
      </trkpt>
      <trkpt lat="48.76606" lon="7.32023">
        <ele>396.2</ele>
        <time>2026-03-12T13:06:25Z</time>
      </trkpt>
      <trkpt lat="48.766" lon="7.32017">
        <ele>395.9</ele>
        <time>2026-03-12T13:06:30Z</time>
      </trkpt>
      <trkpt lat="48.76594" lon="7.32011">
        <ele>395.6</ele>
        <time>2026-03-12T13:06:35Z</time>
      </trkpt>
      <trkpt lat="48.76591" lon="7.32007">
        <ele>395.4</ele>
        <time>2026-03-12T13:06:40Z</time>
      </trkpt>
      <trkpt lat="48.76588" lon="7.32005">
        <ele>395.3</ele>
        <time>2026-03-12T13:06:45Z</time>
      </trkpt>
      <trkpt lat="48.76581" lon="7.32003">
        <ele>395.3</ele>
        <time>2026-03-12T13:06:50Z</time>
      </trkpt>
      <trkpt lat="48.76579" lon="7.32001">
        <ele>395.4</ele>
        <time>2026-03-12T13:06:55Z</time>
      </trkpt>
      <trkpt lat="48.76579" lon="7.32001">
        <ele>395.4</ele>
        <time>2026-03-12T13:07:00Z</time>
      </trkpt>
      <trkpt lat="48.76579" lon="7.32001">
        <ele>395.4</ele>
        <time>2026-03-12T13:07:05Z</time>
      </trkpt>
      <trkpt lat="48.76576" lon="7.32007">
        <ele>395.8</ele>
        <time>2026-03-12T13:07:10Z</time>
      </trkpt>
      <trkpt lat="48.76571" lon="7.32008">
        <ele>396.3</ele>
        <time>2026-03-12T13:07:15Z</time>
      </trkpt>
      <trkpt lat="48.76563" lon="7.3201">
        <ele>397</ele>
        <time>2026-03-12T13:07:20Z</time>
      </trkpt>
      <trkpt lat="48.76554" lon="7.32011">
        <ele>397.8</ele>
        <time>2026-03-12T13:07:25Z</time>
      </trkpt>
      <trkpt lat="48.76548" lon="7.32006">
        <ele>398.4</ele>
        <time>2026-03-12T13:07:30Z</time>
      </trkpt>
      <trkpt lat="48.76545" lon="7.31995">
        <ele>398.7</ele>
        <time>2026-03-12T13:07:35Z</time>
      </trkpt>
      <trkpt lat="48.76542" lon="7.31988">
        <ele>399.1</ele>
        <time>2026-03-12T13:07:40Z</time>
      </trkpt>
      <trkpt lat="48.76541" lon="7.3198">
        <ele>399.3</ele>
        <time>2026-03-12T13:07:45Z</time>
      </trkpt>
      <trkpt lat="48.76542" lon="7.3197">
        <ele>399.3</ele>
        <time>2026-03-12T13:07:50Z</time>
      </trkpt>
      <trkpt lat="48.76542" lon="7.31963">
        <ele>399.4</ele>
        <time>2026-03-12T13:07:55Z</time>
      </trkpt>
      <trkpt lat="48.7654" lon="7.31957">
        <ele>399.7</ele>
        <time>2026-03-12T13:08:00Z</time>
      </trkpt>
      <trkpt lat="48.76536" lon="7.31952">
        <ele>400.1</ele>
        <time>2026-03-12T13:08:05Z</time>
      </trkpt>
      <trkpt lat="48.76533" lon="7.31948">
        <ele>400.5</ele>
        <time>2026-03-12T13:08:10Z</time>
      </trkpt>
      <trkpt lat="48.76529" lon="7.3194">
        <ele>400.9</ele>
        <time>2026-03-12T13:08:15Z</time>
      </trkpt>
      <trkpt lat="48.76524" lon="7.31933">
        <ele>401.5</ele>
        <time>2026-03-12T13:08:20Z</time>
      </trkpt>
      <trkpt lat="48.7652" lon="7.31925">
        <ele>402</ele>
        <time>2026-03-12T13:08:25Z</time>
      </trkpt>
      <trkpt lat="48.76517" lon="7.31918">
        <ele>402.4</ele>
        <time>2026-03-12T13:08:30Z</time>
      </trkpt>
      <trkpt lat="48.76513" lon="7.31914">
        <ele>402.7</ele>
        <time>2026-03-12T13:08:35Z</time>
      </trkpt>
      <trkpt lat="48.76508" lon="7.31903">
        <ele>402.9</ele>
        <time>2026-03-12T13:08:40Z</time>
      </trkpt>
      <trkpt lat="48.76502" lon="7.31893">
        <ele>403.3</ele>
        <time>2026-03-12T13:08:45Z</time>
      </trkpt>
      <trkpt lat="48.76497" lon="7.31885">
        <ele>403.7</ele>
        <time>2026-03-12T13:08:50Z</time>
      </trkpt>
      <trkpt lat="48.76493" lon="7.31878">
        <ele>404.2</ele>
        <time>2026-03-12T13:08:55Z</time>
      </trkpt>
      <trkpt lat="48.76488" lon="7.31871">
        <ele>404.9</ele>
        <time>2026-03-12T13:09:00Z</time>
      </trkpt>
      <trkpt lat="48.76482" lon="7.31863">
        <ele>405.7</ele>
        <time>2026-03-12T13:09:05Z</time>
      </trkpt>
      <trkpt lat="48.7648" lon="7.31859">
        <ele>405.9</ele>
        <time>2026-03-12T13:09:10Z</time>
      </trkpt>
      <trkpt lat="48.76477" lon="7.31859">
        <ele>406.4</ele>
        <time>2026-03-12T13:09:15Z</time>
      </trkpt>
      <trkpt lat="48.76477" lon="7.31864">
        <ele>406.5</ele>
        <time>2026-03-12T13:09:20Z</time>
      </trkpt>
      <trkpt lat="48.76474" lon="7.31867">
        <ele>407</ele>
        <time>2026-03-12T13:09:25Z</time>
      </trkpt>
      <trkpt lat="48.7647" lon="7.31873">
        <ele>407.8</ele>
        <time>2026-03-12T13:09:30Z</time>
      </trkpt>
      <trkpt lat="48.76466" lon="7.3188">
        <ele>408.6</ele>
        <time>2026-03-12T13:09:35Z</time>
      </trkpt>
      <trkpt lat="48.7646" lon="7.31887">
        <ele>409.7</ele>
        <time>2026-03-12T13:09:40Z</time>
      </trkpt>
      <trkpt lat="48.76456" lon="7.3189">
        <ele>410.4</ele>
        <time>2026-03-12T13:09:45Z</time>
      </trkpt>
      <trkpt lat="48.76452" lon="7.31894">
        <ele>411.1</ele>
        <time>2026-03-12T13:09:50Z</time>
      </trkpt>
      <trkpt lat="48.76445" lon="7.31896">
        <ele>412.2</ele>
        <time>2026-03-12T13:09:55Z</time>
      </trkpt>
      <trkpt lat="48.76437" lon="7.31902">
        <ele>413.6</ele>
        <time>2026-03-12T13:10:00Z</time>
      </trkpt>
      <trkpt lat="48.76433" lon="7.31909">
        <ele>414.3</ele>
        <time>2026-03-12T13:10:05Z</time>
      </trkpt>
      <trkpt lat="48.76429" lon="7.31915">
        <ele>415.1</ele>
        <time>2026-03-12T13:10:10Z</time>
      </trkpt>
      <trkpt lat="48.76426" lon="7.3192">
        <ele>415.6</ele>
        <time>2026-03-12T13:10:15Z</time>
      </trkpt>
      <trkpt lat="48.76422" lon="7.31928">
        <ele>416.3</ele>
        <time>2026-03-12T13:10:20Z</time>
      </trkpt>
      <trkpt lat="48.76418" lon="7.31935">
        <ele>417</ele>
        <time>2026-03-12T13:10:25Z</time>
      </trkpt>
      <trkpt lat="48.76413" lon="7.31939">
        <ele>417.4</ele>
        <time>2026-03-12T13:10:30Z</time>
      </trkpt>
      <trkpt lat="48.76409" lon="7.31943">
        <ele>417.7</ele>
        <time>2026-03-12T13:10:35Z</time>
      </trkpt>
      <trkpt lat="48.76405" lon="7.31945">
        <ele>417.9</ele>
        <time>2026-03-12T13:10:40Z</time>
      </trkpt>
      <trkpt lat="48.76398" lon="7.31954">
        <ele>418.2</ele>
        <time>2026-03-12T13:10:45Z</time>
      </trkpt>
      <trkpt lat="48.76393" lon="7.3196">
        <ele>418.5</ele>
        <time>2026-03-12T13:10:50Z</time>
      </trkpt>
      <trkpt lat="48.76387" lon="7.31966">
        <ele>418.8</ele>
        <time>2026-03-12T13:10:55Z</time>
      </trkpt>
      <trkpt lat="48.76383" lon="7.31972">
        <ele>419</ele>
        <time>2026-03-12T13:11:00Z</time>
      </trkpt>
      <trkpt lat="48.76379" lon="7.3198">
        <ele>419.2</ele>
        <time>2026-03-12T13:11:05Z</time>
      </trkpt>
      <trkpt lat="48.76375" lon="7.31985">
        <ele>419.4</ele>
        <time>2026-03-12T13:11:10Z</time>
      </trkpt>
      <trkpt lat="48.76373" lon="7.3199">
        <ele>419.5</ele>
        <time>2026-03-12T13:11:15Z</time>
      </trkpt>
      <trkpt lat="48.76371" lon="7.31998">
        <ele>419.6</ele>
        <time>2026-03-12T13:11:20Z</time>
      </trkpt>
      <trkpt lat="48.76369" lon="7.32008">
        <ele>419.4</ele>
        <time>2026-03-12T13:11:25Z</time>
      </trkpt>
      <trkpt lat="48.76363" lon="7.32015">
        <ele>419.3</ele>
        <time>2026-03-12T13:11:30Z</time>
      </trkpt>
      <trkpt lat="48.76359" lon="7.32021">
        <ele>419.1</ele>
        <time>2026-03-12T13:11:35Z</time>
      </trkpt>
      <trkpt lat="48.76355" lon="7.32029">
        <ele>418.9</ele>
        <time>2026-03-12T13:11:40Z</time>
      </trkpt>
      <trkpt lat="48.76352" lon="7.32035">
        <ele>418.7</ele>
        <time>2026-03-12T13:11:45Z</time>
      </trkpt>
      <trkpt lat="48.76348" lon="7.3204">
        <ele>418.6</ele>
        <time>2026-03-12T13:11:50Z</time>
      </trkpt>
      <trkpt lat="48.76343" lon="7.32044">
        <ele>418.6</ele>
        <time>2026-03-12T13:11:55Z</time>
      </trkpt>
      <trkpt lat="48.76337" lon="7.32052">
        <ele>418.4</ele>
        <time>2026-03-12T13:12:00Z</time>
      </trkpt>
      <trkpt lat="48.76333" lon="7.32059">
        <ele>418.1</ele>
        <time>2026-03-12T13:12:05Z</time>
      </trkpt>
      <trkpt lat="48.76328" lon="7.32064">
        <ele>417.6</ele>
        <time>2026-03-12T13:12:10Z</time>
      </trkpt>
      <trkpt lat="48.76324" lon="7.32067">
        <ele>417.2</ele>
        <time>2026-03-12T13:12:15Z</time>
      </trkpt>
      <trkpt lat="48.7632" lon="7.32073">
        <ele>416.7</ele>
        <time>2026-03-12T13:12:20Z</time>
      </trkpt>
      <trkpt lat="48.76315" lon="7.32079">
        <ele>416.1</ele>
        <time>2026-03-12T13:12:25Z</time>
      </trkpt>
      <trkpt lat="48.7631" lon="7.32086">
        <ele>415.5</ele>
        <time>2026-03-12T13:12:30Z</time>
      </trkpt>
      <trkpt lat="48.76305" lon="7.32091">
        <ele>415</ele>
        <time>2026-03-12T13:12:35Z</time>
      </trkpt>
      <trkpt lat="48.763" lon="7.32098">
        <ele>414.4</ele>
        <time>2026-03-12T13:12:40Z</time>
      </trkpt>
      <trkpt lat="48.76294" lon="7.32104">
        <ele>413.8</ele>
        <time>2026-03-12T13:12:45Z</time>
      </trkpt>
      <trkpt lat="48.76289" lon="7.32112">
        <ele>413.1</ele>
        <time>2026-03-12T13:12:50Z</time>
      </trkpt>
      <trkpt lat="48.76285" lon="7.32119">
        <ele>412.6</ele>
        <time>2026-03-12T13:12:55Z</time>
      </trkpt>
      <trkpt lat="48.7628" lon="7.32127">
        <ele>411.9</ele>
        <time>2026-03-12T13:13:00Z</time>
      </trkpt>
      <trkpt lat="48.76275" lon="7.32133">
        <ele>411.3</ele>
        <time>2026-03-12T13:13:05Z</time>
      </trkpt>
      <trkpt lat="48.76271" lon="7.32139">
        <ele>410.8</ele>
        <time>2026-03-12T13:13:10Z</time>
      </trkpt>
      <trkpt lat="48.76267" lon="7.32146">
        <ele>410.2</ele>
        <time>2026-03-12T13:13:15Z</time>
      </trkpt>
      <trkpt lat="48.76261" lon="7.32152">
        <ele>409.5</ele>
        <time>2026-03-12T13:13:20Z</time>
      </trkpt>
      <trkpt lat="48.76255" lon="7.32158">
        <ele>408.8</ele>
        <time>2026-03-12T13:13:25Z</time>
      </trkpt>
      <trkpt lat="48.76248" lon="7.32161">
        <ele>408.1</ele>
        <time>2026-03-12T13:13:30Z</time>
      </trkpt>
      <trkpt lat="48.76241" lon="7.32164">
        <ele>407.3</ele>
        <time>2026-03-12T13:13:35Z</time>
      </trkpt>
      <trkpt lat="48.76235" lon="7.32167">
        <ele>406.5</ele>
        <time>2026-03-12T13:13:40Z</time>
      </trkpt>
      <trkpt lat="48.76229" lon="7.32168">
        <ele>405.9</ele>
        <time>2026-03-12T13:13:45Z</time>
      </trkpt>
      <trkpt lat="48.76223" lon="7.3217">
        <ele>405.2</ele>
        <time>2026-03-12T13:13:50Z</time>
      </trkpt>
      <trkpt lat="48.76214" lon="7.32172">
        <ele>404.3</ele>
        <time>2026-03-12T13:13:55Z</time>
      </trkpt>
      <trkpt lat="48.76207" lon="7.3217">
        <ele>403.7</ele>
        <time>2026-03-12T13:14:00Z</time>
      </trkpt>
      <trkpt lat="48.76202" lon="7.32169">
        <ele>403.3</ele>
        <time>2026-03-12T13:14:05Z</time>
      </trkpt>
      <trkpt lat="48.76194" lon="7.32169">
        <ele>402.5</ele>
        <time>2026-03-12T13:14:10Z</time>
      </trkpt>
      <trkpt lat="48.76185" lon="7.3217">
        <ele>401.6</ele>
        <time>2026-03-12T13:14:15Z</time>
      </trkpt>
      <trkpt lat="48.7618" lon="7.32169">
        <ele>401.2</ele>
        <time>2026-03-12T13:14:20Z</time>
      </trkpt>
      <trkpt lat="48.76174" lon="7.32167">
        <ele>400.7</ele>
        <time>2026-03-12T13:14:25Z</time>
      </trkpt>
      <trkpt lat="48.7617" lon="7.32168">
        <ele>400.3</ele>
        <time>2026-03-12T13:14:30Z</time>
      </trkpt>
      <trkpt lat="48.76163" lon="7.32171">
        <ele>399.4</ele>
        <time>2026-03-12T13:14:35Z</time>
      </trkpt>
      <trkpt lat="48.76155" lon="7.32175">
        <ele>398.2</ele>
        <time>2026-03-12T13:14:40Z</time>
      </trkpt>
      <trkpt lat="48.76148" lon="7.32179">
        <ele>397.2</ele>
        <time>2026-03-12T13:14:45Z</time>
      </trkpt>
      <trkpt lat="48.76141" lon="7.32182">
        <ele>396.3</ele>
        <time>2026-03-12T13:14:50Z</time>
      </trkpt>
      <trkpt lat="48.76134" lon="7.32185">
        <ele>395.4</ele>
        <time>2026-03-12T13:14:55Z</time>
      </trkpt>
      <trkpt lat="48.76128" lon="7.32186">
        <ele>394.6</ele>
        <time>2026-03-12T13:15:00Z</time>
      </trkpt>
      <trkpt lat="48.76123" lon="7.3219">
        <ele>394</ele>
        <time>2026-03-12T13:15:05Z</time>
      </trkpt>
      <trkpt lat="48.76121" lon="7.32196">
        <ele>393.7</ele>
        <time>2026-03-12T13:15:10Z</time>
      </trkpt>
      <trkpt lat="48.76117" lon="7.32202">
        <ele>393.2</ele>
        <time>2026-03-12T13:15:15Z</time>
      </trkpt>
      <trkpt lat="48.76112" lon="7.32207">
        <ele>392.6</ele>
        <time>2026-03-12T13:15:20Z</time>
      </trkpt>
      <trkpt lat="48.76105" lon="7.32213">
        <ele>391.8</ele>
        <time>2026-03-12T13:15:25Z</time>
      </trkpt>
      <trkpt lat="48.76097" lon="7.32222">
        <ele>391</ele>
        <time>2026-03-12T13:15:30Z</time>
      </trkpt>
      <trkpt lat="48.7609" lon="7.32228">
        <ele>390.4</ele>
        <time>2026-03-12T13:15:35Z</time>
      </trkpt>
      <trkpt lat="48.76083" lon="7.32233">
        <ele>389.8</ele>
        <time>2026-03-12T13:15:40Z</time>
      </trkpt>
      <trkpt lat="48.76077" lon="7.3224">
        <ele>389.4</ele>
        <time>2026-03-12T13:15:45Z</time>
      </trkpt>
      <trkpt lat="48.76071" lon="7.32246">
        <ele>389</ele>
        <time>2026-03-12T13:15:50Z</time>
      </trkpt>
      <trkpt lat="48.76066" lon="7.32248">
        <ele>388.7</ele>
        <time>2026-03-12T13:15:55Z</time>
      </trkpt>
      <trkpt lat="48.76057" lon="7.3225">
        <ele>388.1</ele>
        <time>2026-03-12T13:16:00Z</time>
      </trkpt>
      <trkpt lat="48.76047" lon="7.32257">
        <ele>387.9</ele>
        <time>2026-03-12T13:16:05Z</time>
      </trkpt>
      <trkpt lat="48.76039" lon="7.3226">
        <ele>387.5</ele>
        <time>2026-03-12T13:16:10Z</time>
      </trkpt>
      <trkpt lat="48.76033" lon="7.32263">
        <ele>387.2</ele>
        <time>2026-03-12T13:16:15Z</time>
      </trkpt>
      <trkpt lat="48.76026" lon="7.32264">
        <ele>386.8</ele>
        <time>2026-03-12T13:16:20Z</time>
      </trkpt>
      <trkpt lat="48.76021" lon="7.32263">
        <ele>386.3</ele>
        <time>2026-03-12T13:16:25Z</time>
      </trkpt>
      <trkpt lat="48.76016" lon="7.32265">
        <ele>386.1</ele>
        <time>2026-03-12T13:16:30Z</time>
      </trkpt>
      <trkpt lat="48.76014" lon="7.32264">
        <ele>385.9</ele>
        <time>2026-03-12T13:16:35Z</time>
      </trkpt>
      <trkpt lat="48.76012" lon="7.32262">
        <ele>385.6</ele>
        <time>2026-03-12T13:16:40Z</time>
      </trkpt>
      <trkpt lat="48.76012" lon="7.32261">
        <ele>385.5</ele>
        <time>2026-03-12T13:16:45Z</time>
      </trkpt>
      <trkpt lat="48.76012" lon="7.32261">
        <ele>385.5</ele>
        <time>2026-03-12T13:16:50Z</time>
      </trkpt>
      <trkpt lat="48.76012" lon="7.32261">
        <ele>385.5</ele>
        <time>2026-03-12T13:16:55Z</time>
      </trkpt>
      <trkpt lat="48.76012" lon="7.32261">
        <ele>385.5</ele>
        <time>2026-03-12T13:17:00Z</time>
      </trkpt>
      <trkpt lat="48.76012" lon="7.32261">
        <ele>385.5</ele>
        <time>2026-03-12T13:17:05Z</time>
      </trkpt>
      <trkpt lat="48.76012" lon="7.32261">
        <ele>385.5</ele>
        <time>2026-03-12T13:17:10Z</time>
      </trkpt>
      <trkpt lat="48.76012" lon="7.32261">
        <ele>385.5</ele>
        <time>2026-03-12T13:17:15Z</time>
      </trkpt>
      <trkpt lat="48.76012" lon="7.32261">
        <ele>385.5</ele>
        <time>2026-03-12T13:17:20Z</time>
      </trkpt>
      <trkpt lat="48.76012" lon="7.32261">
        <ele>385.5</ele>
        <time>2026-03-12T13:17:25Z</time>
      </trkpt>
      <trkpt lat="48.76012" lon="7.32261">
        <ele>385.5</ele>
        <time>2026-03-12T13:17:30Z</time>
      </trkpt>
      <trkpt lat="48.7602" lon="7.32258">
        <ele>385.9</ele>
        <time>2026-03-12T13:17:35Z</time>
      </trkpt>
      <trkpt lat="48.76023" lon="7.32254">
        <ele>385.9</ele>
        <time>2026-03-12T13:17:40Z</time>
      </trkpt>
      <trkpt lat="48.76025" lon="7.32253">
        <ele>386</ele>
        <time>2026-03-12T13:17:45Z</time>
      </trkpt>
      <trkpt lat="48.76026" lon="7.32254">
        <ele>386.1</ele>
        <time>2026-03-12T13:17:50Z</time>
      </trkpt>
      <trkpt lat="48.76026" lon="7.32254">
        <ele>386.1</ele>
        <time>2026-03-12T13:17:55Z</time>
      </trkpt>
      <trkpt lat="48.76026" lon="7.32254">
        <ele>386.1</ele>
        <time>2026-03-12T13:18:00Z</time>
      </trkpt>
      <trkpt lat="48.76026" lon="7.32254">
        <ele>386.1</ele>
        <time>2026-03-12T13:18:05Z</time>
      </trkpt>
      <trkpt lat="48.76026" lon="7.32254">
        <ele>386.1</ele>
        <time>2026-03-12T13:18:10Z</time>
      </trkpt>
      <trkpt lat="48.76026" lon="7.32254">
        <ele>386.1</ele>
        <time>2026-03-12T13:18:15Z</time>
      </trkpt>
      <trkpt lat="48.76026" lon="7.32254">
        <ele>386.1</ele>
        <time>2026-03-12T13:18:20Z</time>
      </trkpt>
      <trkpt lat="48.76026" lon="7.32254">
        <ele>386.1</ele>
        <time>2026-03-12T13:18:25Z</time>
      </trkpt>
      <trkpt lat="48.76026" lon="7.32254">
        <ele>386.1</ele>
        <time>2026-03-12T13:18:30Z</time>
      </trkpt>
      <trkpt lat="48.76026" lon="7.32254">
        <ele>386.1</ele>
        <time>2026-03-12T13:18:35Z</time>
      </trkpt>
      <trkpt lat="48.76026" lon="7.32254">
        <ele>386.1</ele>
        <time>2026-03-12T13:18:40Z</time>
      </trkpt>
      <trkpt lat="48.76026" lon="7.32254">
        <ele>386.1</ele>
        <time>2026-03-12T13:18:45Z</time>
      </trkpt>
      <trkpt lat="48.76026" lon="7.32254">
        <ele>386.1</ele>
        <time>2026-03-12T13:18:50Z</time>
      </trkpt>
      <trkpt lat="48.76026" lon="7.32254">
        <ele>386.1</ele>
        <time>2026-03-12T13:18:55Z</time>
      </trkpt>
      <trkpt lat="48.76026" lon="7.32254">
        <ele>386.1</ele>
        <time>2026-03-12T13:19:00Z</time>
      </trkpt>
      <trkpt lat="48.76026" lon="7.32254">
        <ele>386.1</ele>
        <time>2026-03-12T13:19:05Z</time>
      </trkpt>
      <trkpt lat="48.76026" lon="7.32254">
        <ele>386.1</ele>
        <time>2026-03-12T13:19:10Z</time>
      </trkpt>
      <trkpt lat="48.76017" lon="7.32253">
        <ele>385.4</ele>
        <time>2026-03-12T13:19:15Z</time>
      </trkpt>
      <trkpt lat="48.76015" lon="7.32255">
        <ele>385.4</ele>
        <time>2026-03-12T13:19:20Z</time>
      </trkpt>
      <trkpt lat="48.76015" lon="7.32255">
        <ele>385.4</ele>
        <time>2026-03-12T13:19:25Z</time>
      </trkpt>
      <trkpt lat="48.76015" lon="7.32255">
        <ele>385.4</ele>
        <time>2026-03-12T13:19:30Z</time>
      </trkpt>
      <trkpt lat="48.76015" lon="7.32255">
        <ele>385.4</ele>
        <time>2026-03-12T13:19:35Z</time>
      </trkpt>
      <trkpt lat="48.76015" lon="7.32255">
        <ele>385.4</ele>
        <time>2026-03-12T13:19:40Z</time>
      </trkpt>
      <trkpt lat="48.76015" lon="7.32255">
        <ele>385.4</ele>
        <time>2026-03-12T13:19:45Z</time>
      </trkpt>
      <trkpt lat="48.76015" lon="7.32255">
        <ele>385.4</ele>
        <time>2026-03-12T13:19:50Z</time>
      </trkpt>
      <trkpt lat="48.76015" lon="7.32255">
        <ele>385.4</ele>
        <time>2026-03-12T13:19:56Z</time>
      </trkpt>
      <trkpt lat="48.76015" lon="7.32255">
        <ele>385.4</ele>
        <time>2026-03-12T13:20:01Z</time>
      </trkpt>
      <trkpt lat="48.76015" lon="7.32255">
        <ele>385.4</ele>
        <time>2026-03-12T13:20:06Z</time>
      </trkpt>
      <trkpt lat="48.76015" lon="7.32255">
        <ele>385.4</ele>
        <time>2026-03-12T13:20:11Z</time>
      </trkpt>
      <trkpt lat="48.76015" lon="7.32255">
        <ele>385.4</ele>
        <time>2026-03-12T13:20:16Z</time>
      </trkpt>
      <trkpt lat="48.76015" lon="7.32255">
        <ele>385.4</ele>
        <time>2026-03-12T13:20:21Z</time>
      </trkpt>
      <trkpt lat="48.76015" lon="7.32255">
        <ele>385.4</ele>
        <time>2026-03-12T13:20:26Z</time>
      </trkpt>
      <trkpt lat="48.76015" lon="7.32255">
        <ele>385.4</ele>
        <time>2026-03-12T13:20:31Z</time>
      </trkpt>
      <trkpt lat="48.76015" lon="7.32255">
        <ele>385.4</ele>
        <time>2026-03-12T13:20:36Z</time>
      </trkpt>
      <trkpt lat="48.76015" lon="7.32255">
        <ele>385.4</ele>
        <time>2026-03-12T13:20:41Z</time>
      </trkpt>
      <trkpt lat="48.76015" lon="7.32255">
        <ele>385.4</ele>
        <time>2026-03-12T13:20:46Z</time>
      </trkpt>
      <trkpt lat="48.76015" lon="7.32255">
        <ele>385.4</ele>
        <time>2026-03-12T13:20:51Z</time>
      </trkpt>
      <trkpt lat="48.76016" lon="7.32272">
        <ele>386.5</ele>
        <time>2026-03-12T13:20:56Z</time>
      </trkpt>
      <trkpt lat="48.76016" lon="7.32272">
        <ele>386.5</ele>
        <time>2026-03-12T13:21:01Z</time>
      </trkpt>
      <trkpt lat="48.76016" lon="7.32272">
        <ele>386.5</ele>
        <time>2026-03-12T13:21:06Z</time>
      </trkpt>
      <trkpt lat="48.76016" lon="7.32272">
        <ele>386.5</ele>
        <time>2026-03-12T13:21:11Z</time>
      </trkpt>
      <trkpt lat="48.76016" lon="7.32272">
        <ele>386.5</ele>
        <time>2026-03-12T13:21:16Z</time>
      </trkpt>
      <trkpt lat="48.76016" lon="7.32272">
        <ele>386.5</ele>
        <time>2026-03-12T13:21:21Z</time>
      </trkpt>
      <trkpt lat="48.76016" lon="7.32272">
        <ele>386.5</ele>
        <time>2026-03-12T13:21:26Z</time>
      </trkpt>
      <trkpt lat="48.76016" lon="7.32272">
        <ele>386.5</ele>
        <time>2026-03-12T13:21:31Z</time>
      </trkpt>
      <trkpt lat="48.76016" lon="7.32272">
        <ele>386.5</ele>
        <time>2026-03-12T13:21:36Z</time>
      </trkpt>
      <trkpt lat="48.76016" lon="7.32272">
        <ele>386.5</ele>
        <time>2026-03-12T13:21:41Z</time>
      </trkpt>
      <trkpt lat="48.76016" lon="7.32272">
        <ele>386.5</ele>
        <time>2026-03-12T13:21:46Z</time>
      </trkpt>
      <trkpt lat="48.76016" lon="7.32272">
        <ele>386.5</ele>
        <time>2026-03-12T13:21:51Z</time>
      </trkpt>
      <trkpt lat="48.76016" lon="7.32272">
        <ele>386.5</ele>
        <time>2026-03-12T13:21:56Z</time>
      </trkpt>
      <trkpt lat="48.76016" lon="7.32272">
        <ele>386.5</ele>
        <time>2026-03-12T13:22:01Z</time>
      </trkpt>
      <trkpt lat="48.76016" lon="7.32272">
        <ele>386.5</ele>
        <time>2026-03-12T13:22:06Z</time>
      </trkpt>
      <trkpt lat="48.76016" lon="7.32272">
        <ele>386.5</ele>
        <time>2026-03-12T13:22:11Z</time>
      </trkpt>
      <trkpt lat="48.76016" lon="7.32272">
        <ele>386.5</ele>
        <time>2026-03-12T13:22:16Z</time>
      </trkpt>
      <trkpt lat="48.76016" lon="7.32272">
        <ele>386.5</ele>
        <time>2026-03-12T13:22:21Z</time>
      </trkpt>
      <trkpt lat="48.76016" lon="7.32272">
        <ele>386.5</ele>
        <time>2026-03-12T13:22:26Z</time>
      </trkpt>
      <trkpt lat="48.76016" lon="7.32272">
        <ele>386.5</ele>
        <time>2026-03-12T13:22:31Z</time>
      </trkpt>
      <trkpt lat="48.76016" lon="7.32272">
        <ele>386.5</ele>
        <time>2026-03-12T13:22:36Z</time>
      </trkpt>
      <trkpt lat="48.76016" lon="7.32272">
        <ele>386.5</ele>
        <time>2026-03-12T13:22:41Z</time>
      </trkpt>
      <trkpt lat="48.76016" lon="7.32272">
        <ele>386.5</ele>
        <time>2026-03-12T13:22:46Z</time>
      </trkpt>
      <trkpt lat="48.76016" lon="7.32272">
        <ele>386.5</ele>
        <time>2026-03-12T13:22:51Z</time>
      </trkpt>
      <trkpt lat="48.76016" lon="7.32272">
        <ele>386.5</ele>
        <time>2026-03-12T13:22:56Z</time>
      </trkpt>
      <trkpt lat="48.76016" lon="7.32272">
        <ele>386.5</ele>
        <time>2026-03-12T13:23:01Z</time>
      </trkpt>
      <trkpt lat="48.76016" lon="7.32272">
        <ele>386.5</ele>
        <time>2026-03-12T13:23:06Z</time>
      </trkpt>
      <trkpt lat="48.76016" lon="7.32272">
        <ele>386.5</ele>
        <time>2026-03-12T13:23:11Z</time>
      </trkpt>
      <trkpt lat="48.76016" lon="7.32272">
        <ele>386.5</ele>
        <time>2026-03-12T13:23:16Z</time>
      </trkpt>
      <trkpt lat="48.76016" lon="7.32272">
        <ele>386.5</ele>
        <time>2026-03-12T13:23:21Z</time>
      </trkpt>
      <trkpt lat="48.76016" lon="7.32272">
        <ele>386.5</ele>
        <time>2026-03-12T13:23:26Z</time>
      </trkpt>
      <trkpt lat="48.76016" lon="7.32272">
        <ele>386.5</ele>
        <time>2026-03-12T13:23:31Z</time>
      </trkpt>
      <trkpt lat="48.76016" lon="7.32272">
        <ele>386.5</ele>
        <time>2026-03-12T13:23:36Z</time>
      </trkpt>
      <trkpt lat="48.76016" lon="7.32272">
        <ele>386.5</ele>
        <time>2026-03-12T13:23:41Z</time>
      </trkpt>
      <trkpt lat="48.76016" lon="7.32272">
        <ele>386.5</ele>
        <time>2026-03-12T13:23:46Z</time>
      </trkpt>
      <trkpt lat="48.76016" lon="7.32272">
        <ele>386.5</ele>
        <time>2026-03-12T13:23:51Z</time>
      </trkpt>
      <trkpt lat="48.76016" lon="7.32272">
        <ele>386.5</ele>
        <time>2026-03-12T13:23:56Z</time>
      </trkpt>
      <trkpt lat="48.76017" lon="7.3226">
        <ele>385.8</ele>
        <time>2026-03-12T13:24:01Z</time>
      </trkpt>
      <trkpt lat="48.7602" lon="7.32257">
        <ele>385.9</ele>
        <time>2026-03-12T13:24:06Z</time>
      </trkpt>
      <trkpt lat="48.76023" lon="7.32256">
        <ele>386</ele>
        <time>2026-03-12T13:24:11Z</time>
      </trkpt>
      <trkpt lat="48.76025" lon="7.32253">
        <ele>386</ele>
        <time>2026-03-12T13:24:16Z</time>
      </trkpt>
      <trkpt lat="48.76026" lon="7.32253">
        <ele>386.1</ele>
        <time>2026-03-12T13:24:21Z</time>
      </trkpt>
      <trkpt lat="48.76026" lon="7.32253">
        <ele>386.1</ele>
        <time>2026-03-12T13:24:26Z</time>
      </trkpt>
      <trkpt lat="48.76026" lon="7.32253">
        <ele>386.1</ele>
        <time>2026-03-12T13:24:31Z</time>
      </trkpt>
      <trkpt lat="48.76026" lon="7.32253">
        <ele>386.1</ele>
        <time>2026-03-12T13:24:36Z</time>
      </trkpt>
      <trkpt lat="48.76026" lon="7.32253">
        <ele>386.1</ele>
        <time>2026-03-12T13:24:41Z</time>
      </trkpt>
      <trkpt lat="48.76026" lon="7.32253">
        <ele>386.1</ele>
        <time>2026-03-12T13:24:46Z</time>
      </trkpt>
      <trkpt lat="48.76026" lon="7.32253">
        <ele>386.1</ele>
        <time>2026-03-12T13:24:51Z</time>
      </trkpt>
      <trkpt lat="48.76026" lon="7.32253">
        <ele>386.1</ele>
        <time>2026-03-12T13:24:56Z</time>
      </trkpt>
      <trkpt lat="48.76026" lon="7.32253">
        <ele>386.1</ele>
        <time>2026-03-12T13:25:01Z</time>
      </trkpt>
      <trkpt lat="48.76026" lon="7.32253">
        <ele>386.1</ele>
        <time>2026-03-12T13:25:06Z</time>
      </trkpt>
      <trkpt lat="48.76026" lon="7.32253">
        <ele>386.1</ele>
        <time>2026-03-12T13:25:11Z</time>
      </trkpt>
      <trkpt lat="48.76026" lon="7.32253">
        <ele>386.1</ele>
        <time>2026-03-12T13:25:16Z</time>
      </trkpt>
      <trkpt lat="48.76026" lon="7.32253">
        <ele>386.1</ele>
        <time>2026-03-12T13:25:21Z</time>
      </trkpt>
      <trkpt lat="48.76026" lon="7.32253">
        <ele>386.1</ele>
        <time>2026-03-12T13:25:26Z</time>
      </trkpt>
      <trkpt lat="48.76026" lon="7.32253">
        <ele>386.1</ele>
        <time>2026-03-12T13:25:31Z</time>
      </trkpt>
      <trkpt lat="48.76026" lon="7.32253">
        <ele>386.1</ele>
        <time>2026-03-12T13:25:36Z</time>
      </trkpt>
      <trkpt lat="48.76026" lon="7.32253">
        <ele>386.1</ele>
        <time>2026-03-12T13:25:41Z</time>
      </trkpt>
      <trkpt lat="48.7602" lon="7.32261">
        <ele>386.1</ele>
        <time>2026-03-12T13:25:46Z</time>
      </trkpt>
      <trkpt lat="48.76019" lon="7.32265">
        <ele>386.3</ele>
        <time>2026-03-12T13:25:51Z</time>
      </trkpt>
      <trkpt lat="48.76018" lon="7.32265">
        <ele>386.2</ele>
        <time>2026-03-12T13:25:56Z</time>
      </trkpt>
      <trkpt lat="48.76018" lon="7.32265">
        <ele>386.2</ele>
        <time>2026-03-12T13:26:01Z</time>
      </trkpt>
      <trkpt lat="48.76018" lon="7.32265">
        <ele>386.2</ele>
        <time>2026-03-12T13:26:06Z</time>
      </trkpt>
      <trkpt lat="48.76018" lon="7.32265">
        <ele>386.2</ele>
        <time>2026-03-12T13:26:11Z</time>
      </trkpt>
      <trkpt lat="48.76018" lon="7.32265">
        <ele>386.2</ele>
        <time>2026-03-12T13:26:16Z</time>
      </trkpt>
      <trkpt lat="48.76018" lon="7.32265">
        <ele>386.2</ele>
        <time>2026-03-12T13:26:21Z</time>
      </trkpt>
      <trkpt lat="48.76018" lon="7.32265">
        <ele>386.2</ele>
        <time>2026-03-12T13:26:26Z</time>
      </trkpt>
      <trkpt lat="48.76018" lon="7.32265">
        <ele>386.2</ele>
        <time>2026-03-12T13:26:31Z</time>
      </trkpt>
      <trkpt lat="48.76018" lon="7.32265">
        <ele>386.2</ele>
        <time>2026-03-12T13:26:36Z</time>
      </trkpt>
      <trkpt lat="48.76018" lon="7.32265">
        <ele>386.2</ele>
        <time>2026-03-12T13:26:41Z</time>
      </trkpt>
      <trkpt lat="48.76018" lon="7.32265">
        <ele>386.2</ele>
        <time>2026-03-12T13:26:46Z</time>
      </trkpt>
      <trkpt lat="48.76018" lon="7.32265">
        <ele>386.2</ele>
        <time>2026-03-12T13:26:51Z</time>
      </trkpt>
      <trkpt lat="48.76018" lon="7.32265">
        <ele>386.2</ele>
        <time>2026-03-12T13:26:56Z</time>
      </trkpt>
      <trkpt lat="48.76018" lon="7.32265">
        <ele>386.2</ele>
        <time>2026-03-12T13:27:01Z</time>
      </trkpt>
      <trkpt lat="48.76018" lon="7.32265">
        <ele>386.2</ele>
        <time>2026-03-12T13:27:06Z</time>
      </trkpt>
      <trkpt lat="48.76018" lon="7.32265">
        <ele>386.2</ele>
        <time>2026-03-12T13:27:11Z</time>
      </trkpt>
      <trkpt lat="48.76018" lon="7.32265">
        <ele>386.2</ele>
        <time>2026-03-12T13:27:16Z</time>
      </trkpt>
      <trkpt lat="48.76018" lon="7.32265">
        <ele>386.2</ele>
        <time>2026-03-12T13:27:21Z</time>
      </trkpt>
      <trkpt lat="48.76018" lon="7.32265">
        <ele>386.2</ele>
        <time>2026-03-12T13:27:26Z</time>
      </trkpt>
      <trkpt lat="48.76018" lon="7.32265">
        <ele>386.2</ele>
        <time>2026-03-12T13:27:31Z</time>
      </trkpt>
      <trkpt lat="48.76018" lon="7.32265">
        <ele>386.2</ele>
        <time>2026-03-12T13:27:36Z</time>
      </trkpt>
      <trkpt lat="48.76018" lon="7.32265">
        <ele>386.2</ele>
        <time>2026-03-12T13:27:41Z</time>
      </trkpt>
      <trkpt lat="48.76018" lon="7.32265">
        <ele>386.2</ele>
        <time>2026-03-12T13:27:46Z</time>
      </trkpt>
      <trkpt lat="48.76018" lon="7.32265">
        <ele>386.2</ele>
        <time>2026-03-12T13:27:51Z</time>
      </trkpt>
      <trkpt lat="48.76018" lon="7.32265">
        <ele>386.2</ele>
        <time>2026-03-12T13:27:56Z</time>
      </trkpt>
      <trkpt lat="48.76018" lon="7.32265">
        <ele>386.2</ele>
        <time>2026-03-12T13:28:01Z</time>
      </trkpt>
      <trkpt lat="48.76018" lon="7.32265">
        <ele>386.2</ele>
        <time>2026-03-12T13:28:06Z</time>
      </trkpt>
      <trkpt lat="48.76018" lon="7.32265">
        <ele>386.2</ele>
        <time>2026-03-12T13:28:11Z</time>
      </trkpt>
      <trkpt lat="48.76018" lon="7.32265">
        <ele>386.2</ele>
        <time>2026-03-12T13:28:16Z</time>
      </trkpt>
      <trkpt lat="48.76018" lon="7.32265">
        <ele>386.2</ele>
        <time>2026-03-12T13:28:21Z</time>
      </trkpt>
      <trkpt lat="48.76018" lon="7.32265">
        <ele>386.2</ele>
        <time>2026-03-12T13:28:26Z</time>
      </trkpt>
      <trkpt lat="48.76018" lon="7.32265">
        <ele>386.2</ele>
        <time>2026-03-12T13:28:31Z</time>
      </trkpt>
      <trkpt lat="48.76018" lon="7.32265">
        <ele>386.2</ele>
        <time>2026-03-12T13:28:36Z</time>
      </trkpt>
      <trkpt lat="48.76018" lon="7.32265">
        <ele>386.2</ele>
        <time>2026-03-12T13:28:41Z</time>
      </trkpt>
      <trkpt lat="48.76018" lon="7.32265">
        <ele>386.2</ele>
        <time>2026-03-12T13:28:46Z</time>
      </trkpt>
      <trkpt lat="48.76018" lon="7.32265">
        <ele>386.2</ele>
        <time>2026-03-12T13:28:51Z</time>
      </trkpt>
      <trkpt lat="48.7601" lon="7.32256">
        <ele>385.1</ele>
        <time>2026-03-12T13:28:56Z</time>
      </trkpt>
      <trkpt lat="48.7601" lon="7.32256">
        <ele>385.1</ele>
        <time>2026-03-12T13:29:01Z</time>
      </trkpt>
      <trkpt lat="48.7601" lon="7.32256">
        <ele>385.1</ele>
        <time>2026-03-12T13:29:06Z</time>
      </trkpt>
      <trkpt lat="48.7601" lon="7.32256">
        <ele>385.1</ele>
        <time>2026-03-12T13:29:11Z</time>
      </trkpt>
      <trkpt lat="48.7601" lon="7.32256">
        <ele>385.1</ele>
        <time>2026-03-12T13:29:16Z</time>
      </trkpt>
      <trkpt lat="48.7601" lon="7.32256">
        <ele>385.1</ele>
        <time>2026-03-12T13:29:21Z</time>
      </trkpt>
      <trkpt lat="48.7601" lon="7.32256">
        <ele>385.1</ele>
        <time>2026-03-12T13:29:26Z</time>
      </trkpt>
      <trkpt lat="48.7601" lon="7.32256">
        <ele>385.1</ele>
        <time>2026-03-12T13:29:31Z</time>
      </trkpt>
      <trkpt lat="48.7601" lon="7.32256">
        <ele>385.1</ele>
        <time>2026-03-12T13:29:36Z</time>
      </trkpt>
      <trkpt lat="48.7601" lon="7.32256">
        <ele>385.1</ele>
        <time>2026-03-12T13:29:41Z</time>
      </trkpt>
      <trkpt lat="48.7601" lon="7.32256">
        <ele>385.1</ele>
        <time>2026-03-12T13:29:46Z</time>
      </trkpt>
      <trkpt lat="48.7601" lon="7.32256">
        <ele>385.1</ele>
        <time>2026-03-12T13:29:51Z</time>
      </trkpt>
      <trkpt lat="48.7601" lon="7.32256">
        <ele>385.1</ele>
        <time>2026-03-12T13:29:56Z</time>
      </trkpt>
      <trkpt lat="48.7601" lon="7.32256">
        <ele>385.1</ele>
        <time>2026-03-12T13:30:01Z</time>
      </trkpt>
      <trkpt lat="48.7601" lon="7.32256">
        <ele>385.1</ele>
        <time>2026-03-12T13:30:06Z</time>
      </trkpt>
      <trkpt lat="48.7601" lon="7.32256">
        <ele>385.1</ele>
        <time>2026-03-12T13:30:11Z</time>
      </trkpt>
      <trkpt lat="48.7601" lon="7.32256">
        <ele>385.1</ele>
        <time>2026-03-12T13:30:16Z</time>
      </trkpt>
      <trkpt lat="48.7601" lon="7.32256">
        <ele>385.1</ele>
        <time>2026-03-12T13:30:21Z</time>
      </trkpt>
      <trkpt lat="48.7601" lon="7.32256">
        <ele>385.1</ele>
        <time>2026-03-12T13:30:26Z</time>
      </trkpt>
      <trkpt lat="48.7601" lon="7.32256">
        <ele>385.1</ele>
        <time>2026-03-12T13:30:31Z</time>
      </trkpt>
      <trkpt lat="48.7601" lon="7.32256">
        <ele>385.1</ele>
        <time>2026-03-12T13:30:36Z</time>
      </trkpt>
      <trkpt lat="48.7601" lon="7.32256">
        <ele>385.1</ele>
        <time>2026-03-12T13:30:41Z</time>
      </trkpt>
      <trkpt lat="48.7601" lon="7.32256">
        <ele>385.1</ele>
        <time>2026-03-12T13:30:46Z</time>
      </trkpt>
      <trkpt lat="48.7601" lon="7.32256">
        <ele>385.1</ele>
        <time>2026-03-12T13:30:51Z</time>
      </trkpt>
      <trkpt lat="48.7601" lon="7.32256">
        <ele>385.1</ele>
        <time>2026-03-12T13:30:56Z</time>
      </trkpt>
      <trkpt lat="48.7601" lon="7.32256">
        <ele>385.1</ele>
        <time>2026-03-12T13:31:01Z</time>
      </trkpt>
      <trkpt lat="48.7601" lon="7.32256">
        <ele>385.1</ele>
        <time>2026-03-12T13:31:06Z</time>
      </trkpt>
      <trkpt lat="48.7601" lon="7.32256">
        <ele>385.1</ele>
        <time>2026-03-12T13:31:11Z</time>
      </trkpt>
      <trkpt lat="48.7601" lon="7.32256">
        <ele>385.1</ele>
        <time>2026-03-12T13:31:16Z</time>
      </trkpt>
      <trkpt lat="48.7601" lon="7.32256">
        <ele>385.1</ele>
        <time>2026-03-12T13:31:21Z</time>
      </trkpt>
      <trkpt lat="48.7601" lon="7.32256">
        <ele>385.1</ele>
        <time>2026-03-12T13:31:26Z</time>
      </trkpt>
      <trkpt lat="48.7601" lon="7.32256">
        <ele>385.1</ele>
        <time>2026-03-12T13:31:31Z</time>
      </trkpt>
      <trkpt lat="48.7601" lon="7.32256">
        <ele>385.1</ele>
        <time>2026-03-12T13:31:36Z</time>
      </trkpt>
      <trkpt lat="48.7601" lon="7.32256">
        <ele>385.1</ele>
        <time>2026-03-12T13:31:41Z</time>
      </trkpt>
      <trkpt lat="48.7601" lon="7.32256">
        <ele>385.1</ele>
        <time>2026-03-12T13:31:46Z</time>
      </trkpt>
      <trkpt lat="48.7601" lon="7.32256">
        <ele>385.1</ele>
        <time>2026-03-12T13:31:51Z</time>
      </trkpt>
      <trkpt lat="48.7601" lon="7.32256">
        <ele>385.1</ele>
        <time>2026-03-12T13:31:56Z</time>
      </trkpt>
      <trkpt lat="48.7601" lon="7.32256">
        <ele>385.1</ele>
        <time>2026-03-12T13:32:01Z</time>
      </trkpt>
      <trkpt lat="48.7601" lon="7.32256">
        <ele>385.1</ele>
        <time>2026-03-12T13:32:06Z</time>
      </trkpt>
      <trkpt lat="48.7601" lon="7.32256">
        <ele>385.1</ele>
        <time>2026-03-12T13:32:11Z</time>
      </trkpt>
      <trkpt lat="48.7601" lon="7.32256">
        <ele>385.1</ele>
        <time>2026-03-12T13:32:16Z</time>
      </trkpt>
      <trkpt lat="48.7601" lon="7.32256">
        <ele>385.1</ele>
        <time>2026-03-12T13:32:21Z</time>
      </trkpt>
      <trkpt lat="48.7601" lon="7.32256">
        <ele>385.1</ele>
        <time>2026-03-12T13:32:26Z</time>
      </trkpt>
      <trkpt lat="48.7601" lon="7.32256">
        <ele>385.1</ele>
        <time>2026-03-12T13:32:31Z</time>
      </trkpt>
      <trkpt lat="48.7601" lon="7.32256">
        <ele>385.1</ele>
        <time>2026-03-12T13:32:36Z</time>
      </trkpt>
      <trkpt lat="48.7601" lon="7.32256">
        <ele>385.1</ele>
        <time>2026-03-12T13:32:41Z</time>
      </trkpt>
      <trkpt lat="48.7601" lon="7.32256">
        <ele>385.1</ele>
        <time>2026-03-12T13:32:46Z</time>
      </trkpt>
      <trkpt lat="48.7601" lon="7.32256">
        <ele>385.1</ele>
        <time>2026-03-12T13:32:51Z</time>
      </trkpt>
      <trkpt lat="48.7601" lon="7.32256">
        <ele>385.1</ele>
        <time>2026-03-12T13:32:56Z</time>
      </trkpt>
      <trkpt lat="48.7601" lon="7.32256">
        <ele>385.1</ele>
        <time>2026-03-12T13:33:01Z</time>
      </trkpt>
      <trkpt lat="48.7601" lon="7.32256">
        <ele>385.1</ele>
        <time>2026-03-12T13:33:06Z</time>
      </trkpt>
      <trkpt lat="48.7601" lon="7.32256">
        <ele>385.1</ele>
        <time>2026-03-12T13:33:11Z</time>
      </trkpt>
      <trkpt lat="48.7601" lon="7.32256">
        <ele>385.1</ele>
        <time>2026-03-12T13:33:16Z</time>
      </trkpt>
      <trkpt lat="48.7601" lon="7.32256">
        <ele>385.1</ele>
        <time>2026-03-12T13:33:21Z</time>
      </trkpt>
      <trkpt lat="48.7601" lon="7.32256">
        <ele>385.1</ele>
        <time>2026-03-12T13:33:26Z</time>
      </trkpt>
      <trkpt lat="48.7601" lon="7.32256">
        <ele>385.1</ele>
        <time>2026-03-12T13:33:31Z</time>
      </trkpt>
      <trkpt lat="48.7601" lon="7.32256">
        <ele>385.1</ele>
        <time>2026-03-12T13:33:36Z</time>
      </trkpt>
      <trkpt lat="48.7601" lon="7.32256">
        <ele>385.1</ele>
        <time>2026-03-12T13:33:41Z</time>
      </trkpt>
      <trkpt lat="48.7601" lon="7.32256">
        <ele>385.1</ele>
        <time>2026-03-12T13:33:46Z</time>
      </trkpt>
      <trkpt lat="48.7601" lon="7.32256">
        <ele>385.1</ele>
        <time>2026-03-12T13:33:51Z</time>
      </trkpt>
      <trkpt lat="48.7601" lon="7.32256">
        <ele>385.1</ele>
        <time>2026-03-12T13:33:56Z</time>
      </trkpt>
      <trkpt lat="48.7601" lon="7.32256">
        <ele>385.1</ele>
        <time>2026-03-12T13:34:01Z</time>
      </trkpt>
      <trkpt lat="48.7601" lon="7.32256">
        <ele>385.1</ele>
        <time>2026-03-12T13:34:06Z</time>
      </trkpt>
      <trkpt lat="48.7601" lon="7.32256">
        <ele>385.1</ele>
        <time>2026-03-12T13:34:11Z</time>
      </trkpt>
      <trkpt lat="48.7601" lon="7.32256">
        <ele>385.1</ele>
        <time>2026-03-12T13:34:16Z</time>
      </trkpt>
      <trkpt lat="48.7601" lon="7.32256">
        <ele>385.1</ele>
        <time>2026-03-12T13:34:21Z</time>
      </trkpt>
      <trkpt lat="48.7601" lon="7.32256">
        <ele>385.1</ele>
        <time>2026-03-12T13:34:26Z</time>
      </trkpt>
      <trkpt lat="48.7601" lon="7.32256">
        <ele>385.1</ele>
        <time>2026-03-12T13:34:31Z</time>
      </trkpt>
      <trkpt lat="48.7601" lon="7.32256">
        <ele>385.1</ele>
        <time>2026-03-12T13:34:36Z</time>
      </trkpt>
      <trkpt lat="48.7601" lon="7.32256">
        <ele>385.1</ele>
        <time>2026-03-12T13:34:41Z</time>
      </trkpt>
      <trkpt lat="48.7601" lon="7.32256">
        <ele>385.1</ele>
        <time>2026-03-12T13:34:46Z</time>
      </trkpt>
      <trkpt lat="48.7601" lon="7.32256">
        <ele>385.1</ele>
        <time>2026-03-12T13:34:51Z</time>
      </trkpt>
      <trkpt lat="48.7601" lon="7.32256">
        <ele>385.1</ele>
        <time>2026-03-12T13:34:56Z</time>
      </trkpt>
      <trkpt lat="48.7601" lon="7.32256">
        <ele>385.1</ele>
        <time>2026-03-12T13:35:01Z</time>
      </trkpt>
      <trkpt lat="48.7601" lon="7.32256">
        <ele>385.1</ele>
        <time>2026-03-12T13:35:06Z</time>
      </trkpt>
      <trkpt lat="48.7601" lon="7.32256">
        <ele>385.1</ele>
        <time>2026-03-12T13:35:11Z</time>
      </trkpt>
      <trkpt lat="48.7601" lon="7.32256">
        <ele>385.1</ele>
        <time>2026-03-12T13:35:16Z</time>
      </trkpt>
      <trkpt lat="48.7601" lon="7.32256">
        <ele>385.1</ele>
        <time>2026-03-12T13:35:21Z</time>
      </trkpt>
      <trkpt lat="48.7601" lon="7.32256">
        <ele>385.1</ele>
        <time>2026-03-12T13:35:26Z</time>
      </trkpt>
      <trkpt lat="48.7601" lon="7.32256">
        <ele>385.1</ele>
        <time>2026-03-12T13:35:31Z</time>
      </trkpt>
      <trkpt lat="48.7601" lon="7.32256">
        <ele>385.1</ele>
        <time>2026-03-12T13:35:36Z</time>
      </trkpt>
      <trkpt lat="48.7601" lon="7.32256">
        <ele>385.1</ele>
        <time>2026-03-12T13:35:41Z</time>
      </trkpt>
      <trkpt lat="48.7601" lon="7.32256">
        <ele>385.1</ele>
        <time>2026-03-12T13:35:46Z</time>
      </trkpt>
      <trkpt lat="48.7601" lon="7.32256">
        <ele>385.1</ele>
        <time>2026-03-12T13:35:51Z</time>
      </trkpt>
      <trkpt lat="48.7601" lon="7.32256">
        <ele>385.1</ele>
        <time>2026-03-12T13:35:56Z</time>
      </trkpt>
      <trkpt lat="48.7601" lon="7.32256">
        <ele>385.1</ele>
        <time>2026-03-12T13:36:01Z</time>
      </trkpt>
      <trkpt lat="48.7601" lon="7.32256">
        <ele>385.1</ele>
        <time>2026-03-12T13:36:06Z</time>
      </trkpt>
      <trkpt lat="48.7601" lon="7.32256">
        <ele>385.1</ele>
        <time>2026-03-12T13:36:11Z</time>
      </trkpt>
      <trkpt lat="48.7601" lon="7.32256">
        <ele>385.1</ele>
        <time>2026-03-12T13:36:16Z</time>
      </trkpt>
      <trkpt lat="48.7601" lon="7.32256">
        <ele>385.1</ele>
        <time>2026-03-12T13:36:21Z</time>
      </trkpt>
      <trkpt lat="48.7601" lon="7.32256">
        <ele>385.1</ele>
        <time>2026-03-12T13:36:26Z</time>
      </trkpt>
      <trkpt lat="48.7601" lon="7.32256">
        <ele>385.1</ele>
        <time>2026-03-12T13:36:31Z</time>
      </trkpt>
      <trkpt lat="48.7601" lon="7.32256">
        <ele>385.1</ele>
        <time>2026-03-12T13:36:36Z</time>
      </trkpt>
      <trkpt lat="48.7601" lon="7.32256">
        <ele>385.1</ele>
        <time>2026-03-12T13:36:41Z</time>
      </trkpt>
      <trkpt lat="48.7601" lon="7.32256">
        <ele>385.1</ele>
        <time>2026-03-12T13:36:46Z</time>
      </trkpt>
      <trkpt lat="48.7601" lon="7.32256">
        <ele>385.1</ele>
        <time>2026-03-12T13:36:51Z</time>
      </trkpt>
      <trkpt lat="48.7601" lon="7.32256">
        <ele>385.1</ele>
        <time>2026-03-12T13:36:56Z</time>
      </trkpt>
      <trkpt lat="48.7601" lon="7.32256">
        <ele>385.1</ele>
        <time>2026-03-12T13:37:01Z</time>
      </trkpt>
      <trkpt lat="48.7601" lon="7.32256">
        <ele>385.1</ele>
        <time>2026-03-12T13:37:06Z</time>
      </trkpt>
      <trkpt lat="48.7601" lon="7.32256">
        <ele>385.1</ele>
        <time>2026-03-12T13:37:11Z</time>
      </trkpt>
      <trkpt lat="48.7601" lon="7.32256">
        <ele>385.1</ele>
        <time>2026-03-12T13:37:16Z</time>
      </trkpt>
      <trkpt lat="48.7601" lon="7.32256">
        <ele>385.1</ele>
        <time>2026-03-12T13:37:21Z</time>
      </trkpt>
      <trkpt lat="48.7601" lon="7.32256">
        <ele>385.1</ele>
        <time>2026-03-12T13:37:26Z</time>
      </trkpt>
      <trkpt lat="48.7601" lon="7.32256">
        <ele>385.1</ele>
        <time>2026-03-12T13:37:31Z</time>
      </trkpt>
      <trkpt lat="48.7601" lon="7.32256">
        <ele>385.1</ele>
        <time>2026-03-12T13:37:36Z</time>
      </trkpt>
      <trkpt lat="48.7601" lon="7.32256">
        <ele>385.1</ele>
        <time>2026-03-12T13:37:41Z</time>
      </trkpt>
      <trkpt lat="48.7601" lon="7.32256">
        <ele>385.1</ele>
        <time>2026-03-12T13:37:46Z</time>
      </trkpt>
      <trkpt lat="48.7601" lon="7.32256">
        <ele>385.1</ele>
        <time>2026-03-12T13:37:51Z</time>
      </trkpt>
      <trkpt lat="48.7601" lon="7.32256">
        <ele>385.1</ele>
        <time>2026-03-12T13:37:56Z</time>
      </trkpt>
      <trkpt lat="48.7601" lon="7.32256">
        <ele>385.1</ele>
        <time>2026-03-12T13:38:01Z</time>
      </trkpt>
      <trkpt lat="48.7601" lon="7.32256">
        <ele>385.1</ele>
        <time>2026-03-12T13:38:06Z</time>
      </trkpt>
      <trkpt lat="48.7601" lon="7.32256">
        <ele>385.1</ele>
        <time>2026-03-12T13:38:11Z</time>
      </trkpt>
      <trkpt lat="48.7601" lon="7.32256">
        <ele>385.1</ele>
        <time>2026-03-12T13:38:16Z</time>
      </trkpt>
      <trkpt lat="48.7601" lon="7.32256">
        <ele>385.1</ele>
        <time>2026-03-12T13:38:21Z</time>
      </trkpt>
      <trkpt lat="48.7601" lon="7.32256">
        <ele>385.1</ele>
        <time>2026-03-12T13:38:26Z</time>
      </trkpt>
      <trkpt lat="48.7601" lon="7.32256">
        <ele>385.1</ele>
        <time>2026-03-12T13:38:31Z</time>
      </trkpt>
      <trkpt lat="48.7601" lon="7.32256">
        <ele>385.1</ele>
        <time>2026-03-12T13:38:36Z</time>
      </trkpt>
      <trkpt lat="48.7601" lon="7.32256">
        <ele>385.1</ele>
        <time>2026-03-12T13:38:41Z</time>
      </trkpt>
      <trkpt lat="48.7601" lon="7.32256">
        <ele>385.1</ele>
        <time>2026-03-12T13:38:46Z</time>
      </trkpt>
      <trkpt lat="48.7601" lon="7.32256">
        <ele>385.1</ele>
        <time>2026-03-12T13:38:51Z</time>
      </trkpt>
      <trkpt lat="48.7601" lon="7.32256">
        <ele>385.1</ele>
        <time>2026-03-12T13:38:56Z</time>
      </trkpt>
      <trkpt lat="48.7601" lon="7.32256">
        <ele>385.1</ele>
        <time>2026-03-12T13:39:01Z</time>
      </trkpt>
      <trkpt lat="48.7601" lon="7.32256">
        <ele>385.1</ele>
        <time>2026-03-12T13:39:06Z</time>
      </trkpt>
      <trkpt lat="48.7601" lon="7.32256">
        <ele>385.1</ele>
        <time>2026-03-12T13:39:11Z</time>
      </trkpt>
      <trkpt lat="48.7601" lon="7.32256">
        <ele>385.1</ele>
        <time>2026-03-12T13:39:16Z</time>
      </trkpt>
      <trkpt lat="48.7601" lon="7.32256">
        <ele>385.1</ele>
        <time>2026-03-12T13:39:21Z</time>
      </trkpt>
      <trkpt lat="48.7601" lon="7.32256">
        <ele>385.1</ele>
        <time>2026-03-12T13:39:26Z</time>
      </trkpt>
      <trkpt lat="48.7601" lon="7.32256">
        <ele>385.1</ele>
        <time>2026-03-12T13:39:31Z</time>
      </trkpt>
      <trkpt lat="48.7601" lon="7.32256">
        <ele>385.1</ele>
        <time>2026-03-12T13:39:36Z</time>
      </trkpt>
      <trkpt lat="48.7601" lon="7.32256">
        <ele>385.1</ele>
        <time>2026-03-12T13:39:41Z</time>
      </trkpt>
      <trkpt lat="48.7601" lon="7.32256">
        <ele>385.1</ele>
        <time>2026-03-12T13:39:46Z</time>
      </trkpt>
      <trkpt lat="48.7601" lon="7.32256">
        <ele>385.1</ele>
        <time>2026-03-12T13:39:51Z</time>
      </trkpt>
      <trkpt lat="48.7601" lon="7.32256">
        <ele>385.1</ele>
        <time>2026-03-12T13:39:56Z</time>
      </trkpt>
      <trkpt lat="48.7601" lon="7.32256">
        <ele>385.1</ele>
        <time>2026-03-12T13:40:01Z</time>
      </trkpt>
      <trkpt lat="48.7601" lon="7.32256">
        <ele>385.1</ele>
        <time>2026-03-12T13:40:06Z</time>
      </trkpt>
      <trkpt lat="48.7601" lon="7.32256">
        <ele>385.1</ele>
        <time>2026-03-12T13:40:11Z</time>
      </trkpt>
      <trkpt lat="48.7601" lon="7.32256">
        <ele>385.1</ele>
        <time>2026-03-12T13:40:16Z</time>
      </trkpt>
      <trkpt lat="48.7601" lon="7.32256">
        <ele>385.1</ele>
        <time>2026-03-12T13:40:21Z</time>
      </trkpt>
      <trkpt lat="48.7601" lon="7.32256">
        <ele>385.1</ele>
        <time>2026-03-12T13:40:26Z</time>
      </trkpt>
      <trkpt lat="48.7601" lon="7.32256">
        <ele>385.1</ele>
        <time>2026-03-12T13:40:31Z</time>
      </trkpt>
      <trkpt lat="48.7601" lon="7.32256">
        <ele>385.1</ele>
        <time>2026-03-12T13:40:36Z</time>
      </trkpt>
      <trkpt lat="48.7601" lon="7.32256">
        <ele>385.1</ele>
        <time>2026-03-12T13:40:41Z</time>
      </trkpt>
      <trkpt lat="48.7601" lon="7.32256">
        <ele>385.1</ele>
        <time>2026-03-12T13:40:46Z</time>
      </trkpt>
      <trkpt lat="48.7601" lon="7.32256">
        <ele>385.1</ele>
        <time>2026-03-12T13:40:51Z</time>
      </trkpt>
      <trkpt lat="48.7601" lon="7.32256">
        <ele>385.1</ele>
        <time>2026-03-12T13:40:56Z</time>
      </trkpt>
      <trkpt lat="48.7601" lon="7.32256">
        <ele>385.1</ele>
        <time>2026-03-12T13:41:01Z</time>
      </trkpt>
      <trkpt lat="48.7601" lon="7.32256">
        <ele>385.1</ele>
        <time>2026-03-12T13:41:06Z</time>
      </trkpt>
      <trkpt lat="48.7601" lon="7.32256">
        <ele>385.1</ele>
        <time>2026-03-12T13:41:11Z</time>
      </trkpt>
      <trkpt lat="48.7601" lon="7.32256">
        <ele>385.1</ele>
        <time>2026-03-12T13:41:16Z</time>
      </trkpt>
      <trkpt lat="48.7601" lon="7.32256">
        <ele>385.1</ele>
        <time>2026-03-12T13:41:21Z</time>
      </trkpt>
      <trkpt lat="48.7601" lon="7.32264">
        <ele>385.6</ele>
        <time>2026-03-12T13:41:26Z</time>
      </trkpt>
      <trkpt lat="48.7601" lon="7.32264">
        <ele>385.6</ele>
        <time>2026-03-12T13:41:31Z</time>
      </trkpt>
      <trkpt lat="48.7601" lon="7.32264">
        <ele>385.6</ele>
        <time>2026-03-12T13:41:36Z</time>
      </trkpt>
      <trkpt lat="48.7601" lon="7.32264">
        <ele>385.6</ele>
        <time>2026-03-12T13:41:41Z</time>
      </trkpt>
      <trkpt lat="48.7601" lon="7.32264">
        <ele>385.6</ele>
        <time>2026-03-12T13:41:46Z</time>
      </trkpt>
      <trkpt lat="48.7601" lon="7.32264">
        <ele>385.6</ele>
        <time>2026-03-12T13:41:51Z</time>
      </trkpt>
      <trkpt lat="48.7601" lon="7.32264">
        <ele>385.6</ele>
        <time>2026-03-12T13:41:56Z</time>
      </trkpt>
      <trkpt lat="48.7601" lon="7.32264">
        <ele>385.6</ele>
        <time>2026-03-12T13:42:01Z</time>
      </trkpt>
      <trkpt lat="48.76006" lon="7.3228">
        <ele>386.3</ele>
        <time>2026-03-12T13:42:06Z</time>
      </trkpt>
      <trkpt lat="48.76001" lon="7.32284">
        <ele>386.1</ele>
        <time>2026-03-12T13:42:11Z</time>
      </trkpt>
      <trkpt lat="48.75996" lon="7.32289">
        <ele>386.1</ele>
        <time>2026-03-12T13:42:16Z</time>
      </trkpt>
      <trkpt lat="48.75992" lon="7.32294">
        <ele>386.1</ele>
        <time>2026-03-12T13:42:21Z</time>
      </trkpt>
      <trkpt lat="48.75992" lon="7.323">
        <ele>386.5</ele>
        <time>2026-03-12T13:42:26Z</time>
      </trkpt>
      <trkpt lat="48.75991" lon="7.32307">
        <ele>386.8</ele>
        <time>2026-03-12T13:42:31Z</time>
      </trkpt>
      <trkpt lat="48.7599" lon="7.32314">
        <ele>387.2</ele>
        <time>2026-03-12T13:42:36Z</time>
      </trkpt>
      <trkpt lat="48.75989" lon="7.32322">
        <ele>387.6</ele>
        <time>2026-03-12T13:42:41Z</time>
      </trkpt>
      <trkpt lat="48.75989" lon="7.3233">
        <ele>388.1</ele>
        <time>2026-03-12T13:42:46Z</time>
      </trkpt>
      <trkpt lat="48.75989" lon="7.32341">
        <ele>388.8</ele>
        <time>2026-03-12T13:42:51Z</time>
      </trkpt>
      <trkpt lat="48.7599" lon="7.32347">
        <ele>389.2</ele>
        <time>2026-03-12T13:42:56Z</time>
      </trkpt>
      <trkpt lat="48.75988" lon="7.32353">
        <ele>389.5</ele>
        <time>2026-03-12T13:43:01Z</time>
      </trkpt>
      <trkpt lat="48.75985" lon="7.32362">
        <ele>389.8</ele>
        <time>2026-03-12T13:43:06Z</time>
      </trkpt>
      <trkpt lat="48.75982" lon="7.3237">
        <ele>390.1</ele>
        <time>2026-03-12T13:43:11Z</time>
      </trkpt>
      <trkpt lat="48.7598" lon="7.32377">
        <ele>390.4</ele>
        <time>2026-03-12T13:43:16Z</time>
      </trkpt>
      <trkpt lat="48.75976" lon="7.32384">
        <ele>390.6</ele>
        <time>2026-03-12T13:43:21Z</time>
      </trkpt>
      <trkpt lat="48.75971" lon="7.32393">
        <ele>390.8</ele>
        <time>2026-03-12T13:43:26Z</time>
      </trkpt>
      <trkpt lat="48.75966" lon="7.32401">
        <ele>391</ele>
        <time>2026-03-12T13:43:31Z</time>
      </trkpt>
      <trkpt lat="48.75962" lon="7.32407">
        <ele>391.1</ele>
        <time>2026-03-12T13:43:36Z</time>
      </trkpt>
      <trkpt lat="48.75957" lon="7.32415">
        <ele>391.3</ele>
        <time>2026-03-12T13:43:41Z</time>
      </trkpt>
      <trkpt lat="48.75954" lon="7.32424">
        <ele>391.6</ele>
        <time>2026-03-12T13:43:46Z</time>
      </trkpt>
      <trkpt lat="48.75951" lon="7.32429">
        <ele>391.7</ele>
        <time>2026-03-12T13:43:51Z</time>
      </trkpt>
      <trkpt lat="48.75946" lon="7.32435">
        <ele>391.6</ele>
        <time>2026-03-12T13:43:56Z</time>
      </trkpt>
      <trkpt lat="48.75942" lon="7.32441">
        <ele>391.7</ele>
        <time>2026-03-12T13:44:01Z</time>
      </trkpt>
      <trkpt lat="48.75939" lon="7.32446">
        <ele>391.7</ele>
        <time>2026-03-12T13:44:06Z</time>
      </trkpt>
      <trkpt lat="48.75932" lon="7.32451">
        <ele>391.6</ele>
        <time>2026-03-12T13:44:11Z</time>
      </trkpt>
      <trkpt lat="48.75926" lon="7.32457">
        <ele>391.5</ele>
        <time>2026-03-12T13:44:16Z</time>
      </trkpt>
      <trkpt lat="48.75921" lon="7.32462">
        <ele>391.4</ele>
        <time>2026-03-12T13:44:21Z</time>
      </trkpt>
      <trkpt lat="48.75918" lon="7.3247">
        <ele>391.6</ele>
        <time>2026-03-12T13:44:26Z</time>
      </trkpt>
      <trkpt lat="48.75914" lon="7.32478">
        <ele>391.9</ele>
        <time>2026-03-12T13:44:31Z</time>
      </trkpt>
      <trkpt lat="48.75909" lon="7.32484">
        <ele>392.1</ele>
        <time>2026-03-12T13:44:36Z</time>
      </trkpt>
      <trkpt lat="48.75902" lon="7.32491">
        <ele>392.4</ele>
        <time>2026-03-12T13:44:41Z</time>
      </trkpt>
      <trkpt lat="48.75897" lon="7.325">
        <ele>392.8</ele>
        <time>2026-03-12T13:44:46Z</time>
      </trkpt>
      <trkpt lat="48.75892" lon="7.32508">
        <ele>393.3</ele>
        <time>2026-03-12T13:44:51Z</time>
      </trkpt>
      <trkpt lat="48.75887" lon="7.32512">
        <ele>393.5</ele>
        <time>2026-03-12T13:44:56Z</time>
      </trkpt>
      <trkpt lat="48.75882" lon="7.32515">
        <ele>393.6</ele>
        <time>2026-03-12T13:45:01Z</time>
      </trkpt>
      <trkpt lat="48.75877" lon="7.3252">
        <ele>393.8</ele>
        <time>2026-03-12T13:45:06Z</time>
      </trkpt>
      <trkpt lat="48.75872" lon="7.32525">
        <ele>394.1</ele>
        <time>2026-03-12T13:45:11Z</time>
      </trkpt>
      <trkpt lat="48.75866" lon="7.32529">
        <ele>394.3</ele>
        <time>2026-03-12T13:45:16Z</time>
      </trkpt>
      <trkpt lat="48.75861" lon="7.32535">
        <ele>394.6</ele>
        <time>2026-03-12T13:45:21Z</time>
      </trkpt>
      <trkpt lat="48.75856" lon="7.3254">
        <ele>394.8</ele>
        <time>2026-03-12T13:45:26Z</time>
      </trkpt>
      <trkpt lat="48.7585" lon="7.32548">
        <ele>395.2</ele>
        <time>2026-03-12T13:45:31Z</time>
      </trkpt>
      <trkpt lat="48.75845" lon="7.32555">
        <ele>395.5</ele>
        <time>2026-03-12T13:45:36Z</time>
      </trkpt>
      <trkpt lat="48.75841" lon="7.32561">
        <ele>395.8</ele>
        <time>2026-03-12T13:45:41Z</time>
      </trkpt>
      <trkpt lat="48.75837" lon="7.32566">
        <ele>396</ele>
        <time>2026-03-12T13:45:46Z</time>
      </trkpt>
      <trkpt lat="48.75832" lon="7.32574">
        <ele>396.4</ele>
        <time>2026-03-12T13:45:51Z</time>
      </trkpt>
      <trkpt lat="48.75828" lon="7.3258">
        <ele>396.7</ele>
        <time>2026-03-12T13:45:56Z</time>
      </trkpt>
      <trkpt lat="48.75823" lon="7.32584">
        <ele>396.9</ele>
        <time>2026-03-12T13:46:01Z</time>
      </trkpt>
      <trkpt lat="48.75819" lon="7.32587">
        <ele>396.9</ele>
        <time>2026-03-12T13:46:06Z</time>
      </trkpt>
      <trkpt lat="48.75814" lon="7.32593">
        <ele>397.1</ele>
        <time>2026-03-12T13:46:11Z</time>
      </trkpt>
      <trkpt lat="48.75809" lon="7.32598">
        <ele>397.2</ele>
        <time>2026-03-12T13:46:16Z</time>
      </trkpt>
      <trkpt lat="48.75805" lon="7.32604">
        <ele>397.4</ele>
        <time>2026-03-12T13:46:21Z</time>
      </trkpt>
      <trkpt lat="48.75802" lon="7.32612">
        <ele>397.7</ele>
        <time>2026-03-12T13:46:26Z</time>
      </trkpt>
      <trkpt lat="48.75797" lon="7.32619">
        <ele>398</ele>
        <time>2026-03-12T13:46:31Z</time>
      </trkpt>
      <trkpt lat="48.75791" lon="7.32626">
        <ele>398.3</ele>
        <time>2026-03-12T13:46:36Z</time>
      </trkpt>
      <trkpt lat="48.75785" lon="7.32633">
        <ele>398.6</ele>
        <time>2026-03-12T13:46:41Z</time>
      </trkpt>
      <trkpt lat="48.7578" lon="7.32638">
        <ele>398.9</ele>
        <time>2026-03-12T13:46:46Z</time>
      </trkpt>
      <trkpt lat="48.75774" lon="7.32642">
        <ele>399.2</ele>
        <time>2026-03-12T13:46:51Z</time>
      </trkpt>
      <trkpt lat="48.75767" lon="7.32646">
        <ele>399.5</ele>
        <time>2026-03-12T13:46:56Z</time>
      </trkpt>
      <trkpt lat="48.7576" lon="7.32652">
        <ele>399.9</ele>
        <time>2026-03-12T13:47:01Z</time>
      </trkpt>
      <trkpt lat="48.75753" lon="7.32659">
        <ele>400.5</ele>
        <time>2026-03-12T13:47:06Z</time>
      </trkpt>
      <trkpt lat="48.75747" lon="7.32663">
        <ele>401</ele>
        <time>2026-03-12T13:47:11Z</time>
      </trkpt>
      <trkpt lat="48.75739" lon="7.32667">
        <ele>401.7</ele>
        <time>2026-03-12T13:47:16Z</time>
      </trkpt>
      <trkpt lat="48.75732" lon="7.32671">
        <ele>402.3</ele>
        <time>2026-03-12T13:47:21Z</time>
      </trkpt>
      <trkpt lat="48.75726" lon="7.32675">
        <ele>402.9</ele>
        <time>2026-03-12T13:47:26Z</time>
      </trkpt>
      <trkpt lat="48.75721" lon="7.32675">
        <ele>403.2</ele>
        <time>2026-03-12T13:47:31Z</time>
      </trkpt>
      <trkpt lat="48.75713" lon="7.32679">
        <ele>404</ele>
        <time>2026-03-12T13:47:36Z</time>
      </trkpt>
      <trkpt lat="48.75707" lon="7.3268">
        <ele>404.4</ele>
        <time>2026-03-12T13:47:41Z</time>
      </trkpt>
      <trkpt lat="48.75701" lon="7.32683">
        <ele>404.9</ele>
        <time>2026-03-12T13:47:46Z</time>
      </trkpt>
      <trkpt lat="48.75696" lon="7.32684">
        <ele>405.3</ele>
        <time>2026-03-12T13:47:51Z</time>
      </trkpt>
      <trkpt lat="48.75689" lon="7.32684">
        <ele>405.7</ele>
        <time>2026-03-12T13:47:56Z</time>
      </trkpt>
      <trkpt lat="48.75683" lon="7.32682">
        <ele>405.9</ele>
        <time>2026-03-12T13:48:01Z</time>
      </trkpt>
      <trkpt lat="48.75677" lon="7.3268">
        <ele>406.2</ele>
        <time>2026-03-12T13:48:06Z</time>
      </trkpt>
      <trkpt lat="48.75671" lon="7.32679">
        <ele>406.5</ele>
        <time>2026-03-12T13:48:11Z</time>
      </trkpt>
      <trkpt lat="48.75665" lon="7.3268">
        <ele>406.9</ele>
        <time>2026-03-12T13:48:16Z</time>
      </trkpt>
      <trkpt lat="48.75662" lon="7.32682">
        <ele>407.3</ele>
        <time>2026-03-12T13:48:21Z</time>
      </trkpt>
      <trkpt lat="48.75658" lon="7.32683">
        <ele>407.7</ele>
        <time>2026-03-12T13:48:26Z</time>
      </trkpt>
      <trkpt lat="48.75655" lon="7.32686">
        <ele>408.2</ele>
        <time>2026-03-12T13:48:31Z</time>
      </trkpt>
      <trkpt lat="48.75653" lon="7.3269">
        <ele>408.6</ele>
        <time>2026-03-12T13:48:36Z</time>
      </trkpt>
      <trkpt lat="48.75651" lon="7.32695">
        <ele>409.1</ele>
        <time>2026-03-12T13:48:41Z</time>
      </trkpt>
      <trkpt lat="48.75651" lon="7.32695">
        <ele>409.1</ele>
        <time>2026-03-12T13:48:46Z</time>
      </trkpt>
      <trkpt lat="48.75651" lon="7.32703">
        <ele>409.7</ele>
        <time>2026-03-12T13:48:51Z</time>
      </trkpt>
      <trkpt lat="48.75647" lon="7.32709">
        <ele>410.6</ele>
        <time>2026-03-12T13:48:56Z</time>
      </trkpt>
      <trkpt lat="48.75643" lon="7.32715">
        <ele>411.4</ele>
        <time>2026-03-12T13:49:01Z</time>
      </trkpt>
      <trkpt lat="48.75639" lon="7.32719">
        <ele>412.2</ele>
        <time>2026-03-12T13:49:06Z</time>
      </trkpt>
      <trkpt lat="48.75635" lon="7.32725">
        <ele>413.1</ele>
        <time>2026-03-12T13:49:11Z</time>
      </trkpt>
      <trkpt lat="48.75631" lon="7.32733">
        <ele>414.3</ele>
        <time>2026-03-12T13:49:16Z</time>
      </trkpt>
      <trkpt lat="48.75628" lon="7.32741">
        <ele>415.3</ele>
        <time>2026-03-12T13:49:21Z</time>
      </trkpt>
      <trkpt lat="48.75624" lon="7.32748">
        <ele>416.5</ele>
        <time>2026-03-12T13:49:26Z</time>
      </trkpt>
      <trkpt lat="48.75619" lon="7.32755">
        <ele>417.8</ele>
        <time>2026-03-12T13:49:31Z</time>
      </trkpt>
      <trkpt lat="48.75616" lon="7.3276">
        <ele>418.7</ele>
        <time>2026-03-12T13:49:36Z</time>
      </trkpt>
      <trkpt lat="48.75614" lon="7.32766">
        <ele>419.6</ele>
        <time>2026-03-12T13:49:41Z</time>
      </trkpt>
      <trkpt lat="48.7561" lon="7.32771">
        <ele>420.6</ele>
        <time>2026-03-12T13:49:46Z</time>
      </trkpt>
      <trkpt lat="48.75608" lon="7.32775">
        <ele>421.2</ele>
        <time>2026-03-12T13:49:51Z</time>
      </trkpt>
      <trkpt lat="48.75603" lon="7.32785">
        <ele>422.7</ele>
        <time>2026-03-12T13:49:56Z</time>
      </trkpt>
      <trkpt lat="48.75599" lon="7.32791">
        <ele>423.7</ele>
        <time>2026-03-12T13:50:01Z</time>
      </trkpt>
      <trkpt lat="48.75597" lon="7.32795">
        <ele>424.3</ele>
        <time>2026-03-12T13:50:06Z</time>
      </trkpt>
      <trkpt lat="48.75593" lon="7.32801">
        <ele>425.3</ele>
        <time>2026-03-12T13:50:11Z</time>
      </trkpt>
      <trkpt lat="48.75589" lon="7.32807">
        <ele>426.2</ele>
        <time>2026-03-12T13:50:16Z</time>
      </trkpt>
      <trkpt lat="48.75584" lon="7.32814">
        <ele>427.3</ele>
        <time>2026-03-12T13:50:21Z</time>
      </trkpt>
      <trkpt lat="48.75581" lon="7.3282">
        <ele>427.7</ele>
        <time>2026-03-12T13:50:26Z</time>
      </trkpt>
      <trkpt lat="48.75577" lon="7.32826">
        <ele>428</ele>
        <time>2026-03-12T13:50:31Z</time>
      </trkpt>
      <trkpt lat="48.75572" lon="7.32832">
        <ele>428.1</ele>
        <time>2026-03-12T13:50:36Z</time>
      </trkpt>
      <trkpt lat="48.75564" lon="7.32839">
        <ele>427.5</ele>
        <time>2026-03-12T13:50:41Z</time>
      </trkpt>
      <trkpt lat="48.75559" lon="7.3285">
        <ele>426.8</ele>
        <time>2026-03-12T13:50:46Z</time>
      </trkpt>
      <trkpt lat="48.75556" lon="7.32856">
        <ele>426.4</ele>
        <time>2026-03-12T13:50:51Z</time>
      </trkpt>
      <trkpt lat="48.75551" lon="7.32863">
        <ele>425.8</ele>
        <time>2026-03-12T13:50:56Z</time>
      </trkpt>
      <trkpt lat="48.75548" lon="7.32871">
        <ele>425.4</ele>
        <time>2026-03-12T13:51:01Z</time>
      </trkpt>
      <trkpt lat="48.75544" lon="7.32876">
        <ele>424.9</ele>
        <time>2026-03-12T13:51:06Z</time>
      </trkpt>
      <trkpt lat="48.7554" lon="7.32881">
        <ele>424.4</ele>
        <time>2026-03-12T13:51:11Z</time>
      </trkpt>
      <trkpt lat="48.75537" lon="7.32887">
        <ele>424</ele>
        <time>2026-03-12T13:51:16Z</time>
      </trkpt>
      <trkpt lat="48.75533" lon="7.32893">
        <ele>423.5</ele>
        <time>2026-03-12T13:51:21Z</time>
      </trkpt>
      <trkpt lat="48.75528" lon="7.329">
        <ele>422.9</ele>
        <time>2026-03-12T13:51:26Z</time>
      </trkpt>
      <trkpt lat="48.75523" lon="7.32904">
        <ele>422.3</ele>
        <time>2026-03-12T13:51:31Z</time>
      </trkpt>
      <trkpt lat="48.75516" lon="7.3291">
        <ele>421.6</ele>
        <time>2026-03-12T13:51:36Z</time>
      </trkpt>
      <trkpt lat="48.75509" lon="7.32913">
        <ele>420.9</ele>
        <time>2026-03-12T13:51:41Z</time>
      </trkpt>
      <trkpt lat="48.75505" lon="7.3292">
        <ele>420.4</ele>
        <time>2026-03-12T13:51:46Z</time>
      </trkpt>
      <trkpt lat="48.75505" lon="7.3293">
        <ele>420.2</ele>
        <time>2026-03-12T13:51:51Z</time>
      </trkpt>
      <trkpt lat="48.75502" lon="7.32939">
        <ele>419.9</ele>
        <time>2026-03-12T13:51:56Z</time>
      </trkpt>
      <trkpt lat="48.75498" lon="7.32948">
        <ele>419.7</ele>
        <time>2026-03-12T13:52:01Z</time>
      </trkpt>
      <trkpt lat="48.75495" lon="7.32956">
        <ele>419.7</ele>
        <time>2026-03-12T13:52:06Z</time>
      </trkpt>
      <trkpt lat="48.75492" lon="7.32964">
        <ele>419.7</ele>
        <time>2026-03-12T13:52:11Z</time>
      </trkpt>
      <trkpt lat="48.75487" lon="7.3297">
        <ele>419.8</ele>
        <time>2026-03-12T13:52:16Z</time>
      </trkpt>
      <trkpt lat="48.75481" lon="7.32971">
        <ele>420</ele>
        <time>2026-03-12T13:52:21Z</time>
      </trkpt>
      <trkpt lat="48.75476" lon="7.32971">
        <ele>420.2</ele>
        <time>2026-03-12T13:52:26Z</time>
      </trkpt>
      <trkpt lat="48.75469" lon="7.32972">
        <ele>420.5</ele>
        <time>2026-03-12T13:52:31Z</time>
      </trkpt>
      <trkpt lat="48.75463" lon="7.32974">
        <ele>420.6</ele>
        <time>2026-03-12T13:52:36Z</time>
      </trkpt>
      <trkpt lat="48.75459" lon="7.32975">
        <ele>420.8</ele>
        <time>2026-03-12T13:52:41Z</time>
      </trkpt>
      <trkpt lat="48.75453" lon="7.32978">
        <ele>421</ele>
        <time>2026-03-12T13:52:46Z</time>
      </trkpt>
      <trkpt lat="48.75446" lon="7.32982">
        <ele>421.2</ele>
        <time>2026-03-12T13:52:51Z</time>
      </trkpt>
      <trkpt lat="48.75438" lon="7.32983">
        <ele>421.4</ele>
        <time>2026-03-12T13:52:56Z</time>
      </trkpt>
      <trkpt lat="48.75433" lon="7.32985">
        <ele>421.6</ele>
        <time>2026-03-12T13:53:01Z</time>
      </trkpt>
      <trkpt lat="48.75427" lon="7.32988">
        <ele>421.8</ele>
        <time>2026-03-12T13:53:06Z</time>
      </trkpt>
      <trkpt lat="48.7542" lon="7.32991">
        <ele>422</ele>
        <time>2026-03-12T13:53:11Z</time>
      </trkpt>
      <trkpt lat="48.75415" lon="7.32996">
        <ele>422.1</ele>
        <time>2026-03-12T13:53:16Z</time>
      </trkpt>
      <trkpt lat="48.75408" lon="7.33003">
        <ele>421.9</ele>
        <time>2026-03-12T13:53:21Z</time>
      </trkpt>
      <trkpt lat="48.75403" lon="7.33011">
        <ele>421.6</ele>
        <time>2026-03-12T13:53:26Z</time>
      </trkpt>
      <trkpt lat="48.75398" lon="7.33018">
        <ele>421.3</ele>
        <time>2026-03-12T13:53:31Z</time>
      </trkpt>
      <trkpt lat="48.75394" lon="7.33027">
        <ele>420.9</ele>
        <time>2026-03-12T13:53:36Z</time>
      </trkpt>
      <trkpt lat="48.75391" lon="7.33036">
        <ele>420.5</ele>
        <time>2026-03-12T13:53:41Z</time>
      </trkpt>
      <trkpt lat="48.75387" lon="7.33043">
        <ele>420</ele>
        <time>2026-03-12T13:53:46Z</time>
      </trkpt>
      <trkpt lat="48.75384" lon="7.33051">
        <ele>419.6</ele>
        <time>2026-03-12T13:53:51Z</time>
      </trkpt>
      <trkpt lat="48.75379" lon="7.33057">
        <ele>419.1</ele>
        <time>2026-03-12T13:53:56Z</time>
      </trkpt>
      <trkpt lat="48.75374" lon="7.33064">
        <ele>418.5</ele>
        <time>2026-03-12T13:54:01Z</time>
      </trkpt>
      <trkpt lat="48.75369" lon="7.3307">
        <ele>417.9</ele>
        <time>2026-03-12T13:54:06Z</time>
      </trkpt>
      <trkpt lat="48.75363" lon="7.33076">
        <ele>417.2</ele>
        <time>2026-03-12T13:54:11Z</time>
      </trkpt>
      <trkpt lat="48.75355" lon="7.3308">
        <ele>416.5</ele>
        <time>2026-03-12T13:54:16Z</time>
      </trkpt>
      <trkpt lat="48.75349" lon="7.33084">
        <ele>415.9</ele>
        <time>2026-03-12T13:54:21Z</time>
      </trkpt>
      <trkpt lat="48.75343" lon="7.33088">
        <ele>415.1</ele>
        <time>2026-03-12T13:54:26Z</time>
      </trkpt>
      <trkpt lat="48.75339" lon="7.33092">
        <ele>414.5</ele>
        <time>2026-03-12T13:54:31Z</time>
      </trkpt>
      <trkpt lat="48.75333" lon="7.33097">
        <ele>413.6</ele>
        <time>2026-03-12T13:54:36Z</time>
      </trkpt>
      <trkpt lat="48.75328" lon="7.33105">
        <ele>412.2</ele>
        <time>2026-03-12T13:54:41Z</time>
      </trkpt>
      <trkpt lat="48.75322" lon="7.33112">
        <ele>410.8</ele>
        <time>2026-03-12T13:54:46Z</time>
      </trkpt>
      <trkpt lat="48.75317" lon="7.33121">
        <ele>409.2</ele>
        <time>2026-03-12T13:54:51Z</time>
      </trkpt>
      <trkpt lat="48.75312" lon="7.33132">
        <ele>407.5</ele>
        <time>2026-03-12T13:54:56Z</time>
      </trkpt>
      <trkpt lat="48.75307" lon="7.33139">
        <ele>406.1</ele>
        <time>2026-03-12T13:55:01Z</time>
      </trkpt>
      <trkpt lat="48.75303" lon="7.33146">
        <ele>404.8</ele>
        <time>2026-03-12T13:55:06Z</time>
      </trkpt>
      <trkpt lat="48.75298" lon="7.33153">
        <ele>403.4</ele>
        <time>2026-03-12T13:55:11Z</time>
      </trkpt>
      <trkpt lat="48.75293" lon="7.33161">
        <ele>401.8</ele>
        <time>2026-03-12T13:55:16Z</time>
      </trkpt>
      <trkpt lat="48.75288" lon="7.33168">
        <ele>400.3</ele>
        <time>2026-03-12T13:55:21Z</time>
      </trkpt>
      <trkpt lat="48.75286" lon="7.33175">
        <ele>399.3</ele>
        <time>2026-03-12T13:55:26Z</time>
      </trkpt>
      <trkpt lat="48.75282" lon="7.33185">
        <ele>397.6</ele>
        <time>2026-03-12T13:55:31Z</time>
      </trkpt>
      <trkpt lat="48.75278" lon="7.33196">
        <ele>395.7</ele>
        <time>2026-03-12T13:55:36Z</time>
      </trkpt>
      <trkpt lat="48.75275" lon="7.33206">
        <ele>394.2</ele>
        <time>2026-03-12T13:55:41Z</time>
      </trkpt>
      <trkpt lat="48.75272" lon="7.33218">
        <ele>392.3</ele>
        <time>2026-03-12T13:55:46Z</time>
      </trkpt>
      <trkpt lat="48.7527" lon="7.33229">
        <ele>390.8</ele>
        <time>2026-03-12T13:55:51Z</time>
      </trkpt>
      <trkpt lat="48.75268" lon="7.3324">
        <ele>389.2</ele>
        <time>2026-03-12T13:55:56Z</time>
      </trkpt>
      <trkpt lat="48.75267" lon="7.3325">
        <ele>387.9</ele>
        <time>2026-03-12T13:56:01Z</time>
      </trkpt>
      <trkpt lat="48.75267" lon="7.33259">
        <ele>386.7</ele>
        <time>2026-03-12T13:56:06Z</time>
      </trkpt>
      <trkpt lat="48.75264" lon="7.33266">
        <ele>385.3</ele>
        <time>2026-03-12T13:56:11Z</time>
      </trkpt>
      <trkpt lat="48.7526" lon="7.33273">
        <ele>383.7</ele>
        <time>2026-03-12T13:56:16Z</time>
      </trkpt>
      <trkpt lat="48.75256" lon="7.33279">
        <ele>382.3</ele>
        <time>2026-03-12T13:56:21Z</time>
      </trkpt>
      <trkpt lat="48.75251" lon="7.33284">
        <ele>380.7</ele>
        <time>2026-03-12T13:56:26Z</time>
      </trkpt>
      <trkpt lat="48.75248" lon="7.33291">
        <ele>378.9</ele>
        <time>2026-03-12T13:56:31Z</time>
      </trkpt>
      <trkpt lat="48.75246" lon="7.33298">
        <ele>377.2</ele>
        <time>2026-03-12T13:56:36Z</time>
      </trkpt>
      <trkpt lat="48.75242" lon="7.33305">
        <ele>374.7</ele>
        <time>2026-03-12T13:56:41Z</time>
      </trkpt>
      <trkpt lat="48.75236" lon="7.33312">
        <ele>371.4</ele>
        <time>2026-03-12T13:56:46Z</time>
      </trkpt>
      <trkpt lat="48.7523" lon="7.33315">
        <ele>368.6</ele>
        <time>2026-03-12T13:56:51Z</time>
      </trkpt>
      <trkpt lat="48.75226" lon="7.33317">
        <ele>366.8</ele>
        <time>2026-03-12T13:56:56Z</time>
      </trkpt>
      <trkpt lat="48.75221" lon="7.33321">
        <ele>364.2</ele>
        <time>2026-03-12T13:57:01Z</time>
      </trkpt>
      <trkpt lat="48.75215" lon="7.33321">
        <ele>361.8</ele>
        <time>2026-03-12T13:57:06Z</time>
      </trkpt>
      <trkpt lat="48.75209" lon="7.33318">
        <ele>359.9</ele>
        <time>2026-03-12T13:57:11Z</time>
      </trkpt>
      <trkpt lat="48.75204" lon="7.3332">
        <ele>357.6</ele>
        <time>2026-03-12T13:57:16Z</time>
      </trkpt>
      <trkpt lat="48.752" lon="7.33326">
        <ele>354.9</ele>
        <time>2026-03-12T13:57:21Z</time>
      </trkpt>
      <trkpt lat="48.75193" lon="7.33335">
        <ele>350.6</ele>
        <time>2026-03-12T13:57:26Z</time>
      </trkpt>
      <trkpt lat="48.75186" lon="7.33338">
        <ele>347.5</ele>
        <time>2026-03-12T13:57:31Z</time>
      </trkpt>
      <trkpt lat="48.75181" lon="7.33336">
        <ele>345.6</ele>
        <time>2026-03-12T13:57:36Z</time>
      </trkpt>
      <trkpt lat="48.75177" lon="7.33342">
        <ele>343.4</ele>
        <time>2026-03-12T13:57:41Z</time>
      </trkpt>
      <trkpt lat="48.75176" lon="7.33348">
        <ele>342.3</ele>
        <time>2026-03-12T13:57:46Z</time>
      </trkpt>
      <trkpt lat="48.75175" lon="7.33354">
        <ele>341.3</ele>
        <time>2026-03-12T13:57:51Z</time>
      </trkpt>
      <trkpt lat="48.75173" lon="7.33359">
        <ele>340</ele>
        <time>2026-03-12T13:57:56Z</time>
      </trkpt>
      <trkpt lat="48.75171" lon="7.33369">
        <ele>338</ele>
        <time>2026-03-12T13:58:01Z</time>
      </trkpt>
      <trkpt lat="48.75171" lon="7.33377">
        <ele>337.2</ele>
        <time>2026-03-12T13:58:06Z</time>
      </trkpt>
      <trkpt lat="48.75169" lon="7.33384">
        <ele>335.6</ele>
        <time>2026-03-12T13:58:11Z</time>
      </trkpt>
      <trkpt lat="48.75168" lon="7.33391">
        <ele>334.4</ele>
        <time>2026-03-12T13:58:16Z</time>
      </trkpt>
      <trkpt lat="48.75168" lon="7.33399">
        <ele>333.5</ele>
        <time>2026-03-12T13:58:21Z</time>
      </trkpt>
      <trkpt lat="48.75166" lon="7.33407">
        <ele>331.9</ele>
        <time>2026-03-12T13:58:26Z</time>
      </trkpt>
      <trkpt lat="48.75163" lon="7.33414">
        <ele>330.3</ele>
        <time>2026-03-12T13:58:31Z</time>
      </trkpt>
      <trkpt lat="48.75161" lon="7.3342">
        <ele>329.7</ele>
        <time>2026-03-12T13:58:36Z</time>
      </trkpt>
      <trkpt lat="48.7516" lon="7.33431">
        <ele>330</ele>
        <time>2026-03-12T13:58:41Z</time>
      </trkpt>
      <trkpt lat="48.7516" lon="7.3344">
        <ele>330.5</ele>
        <time>2026-03-12T13:58:46Z</time>
      </trkpt>
      <trkpt lat="48.7516" lon="7.33446">
        <ele>330.8</ele>
        <time>2026-03-12T13:58:51Z</time>
      </trkpt>
      <trkpt lat="48.75158" lon="7.33455">
        <ele>330.6</ele>
        <time>2026-03-12T13:58:56Z</time>
      </trkpt>
      <trkpt lat="48.75155" lon="7.33466">
        <ele>330</ele>
        <time>2026-03-12T13:59:01Z</time>
      </trkpt>
      <trkpt lat="48.7515" lon="7.33478">
        <ele>328.4</ele>
        <time>2026-03-12T13:59:06Z</time>
      </trkpt>
      <trkpt lat="48.75151" lon="7.33484">
        <ele>329</ele>
        <time>2026-03-12T13:59:11Z</time>
      </trkpt>
      <trkpt lat="48.75153" lon="7.33487">
        <ele>330</ele>
        <time>2026-03-12T13:59:16Z</time>
      </trkpt>
      <trkpt lat="48.75154" lon="7.33488">
        <ele>330.4</ele>
        <time>2026-03-12T13:59:21Z</time>
      </trkpt>
      <trkpt lat="48.75154" lon="7.33488">
        <ele>330.4</ele>
        <time>2026-03-12T13:59:26Z</time>
      </trkpt>
      <trkpt lat="48.75154" lon="7.33488">
        <ele>330.4</ele>
        <time>2026-03-12T13:59:31Z</time>
      </trkpt>
      <trkpt lat="48.75146" lon="7.335">
        <ele>327.1</ele>
        <time>2026-03-12T13:59:36Z</time>
      </trkpt>
      <trkpt lat="48.75143" lon="7.33506">
        <ele>326</ele>
        <time>2026-03-12T13:59:41Z</time>
      </trkpt>
      <trkpt lat="48.7514" lon="7.33513">
        <ele>324.9</ele>
        <time>2026-03-12T13:59:46Z</time>
      </trkpt>
      <trkpt lat="48.75137" lon="7.3352">
        <ele>323.9</ele>
        <time>2026-03-12T13:59:51Z</time>
      </trkpt>
      <trkpt lat="48.75136" lon="7.33526">
        <ele>323.7</ele>
        <time>2026-03-12T13:59:56Z</time>
      </trkpt>
      <trkpt lat="48.75137" lon="7.33533">
        <ele>324.6</ele>
        <time>2026-03-12T14:00:01Z</time>
      </trkpt>
      <trkpt lat="48.75136" lon="7.33533">
        <ele>324.1</ele>
        <time>2026-03-12T14:00:06Z</time>
      </trkpt>
      <trkpt lat="48.75135" lon="7.33538">
        <ele>323.9</ele>
        <time>2026-03-12T14:00:11Z</time>
      </trkpt>
      <trkpt lat="48.7513" lon="7.33544">
        <ele>321.8</ele>
        <time>2026-03-12T14:00:16Z</time>
      </trkpt>
      <trkpt lat="48.75128" lon="7.33551">
        <ele>321.2</ele>
        <time>2026-03-12T14:00:21Z</time>
      </trkpt>
      <trkpt lat="48.75125" lon="7.33558">
        <ele>320.1</ele>
        <time>2026-03-12T14:00:26Z</time>
      </trkpt>
      <trkpt lat="48.75123" lon="7.33562">
        <ele>319.4</ele>
        <time>2026-03-12T14:00:31Z</time>
      </trkpt>
      <trkpt lat="48.75123" lon="7.33563">
        <ele>319.4</ele>
        <time>2026-03-12T14:00:36Z</time>
      </trkpt>
      <trkpt lat="48.75123" lon="7.33563">
        <ele>319.4</ele>
        <time>2026-03-12T14:00:41Z</time>
      </trkpt>
      <trkpt lat="48.75123" lon="7.33563">
        <ele>319.4</ele>
        <time>2026-03-12T14:00:46Z</time>
      </trkpt>
      <trkpt lat="48.75123" lon="7.33563">
        <ele>319.4</ele>
        <time>2026-03-12T14:00:51Z</time>
      </trkpt>
      <trkpt lat="48.75123" lon="7.33563">
        <ele>319.4</ele>
        <time>2026-03-12T14:00:56Z</time>
      </trkpt>
      <trkpt lat="48.75123" lon="7.33563">
        <ele>319.4</ele>
        <time>2026-03-12T14:01:01Z</time>
      </trkpt>
      <trkpt lat="48.75123" lon="7.33563">
        <ele>319.4</ele>
        <time>2026-03-12T14:01:06Z</time>
      </trkpt>
      <trkpt lat="48.75119" lon="7.33567">
        <ele>317.7</ele>
        <time>2026-03-12T14:01:11Z</time>
      </trkpt>
      <trkpt lat="48.75115" lon="7.33578">
        <ele>316.3</ele>
        <time>2026-03-12T14:01:16Z</time>
      </trkpt>
      <trkpt lat="48.75115" lon="7.33585">
        <ele>316.8</ele>
        <time>2026-03-12T14:01:21Z</time>
      </trkpt>
      <trkpt lat="48.75112" lon="7.33592">
        <ele>316</ele>
        <time>2026-03-12T14:01:26Z</time>
      </trkpt>
      <trkpt lat="48.75108" lon="7.33598">
        <ele>314.7</ele>
        <time>2026-03-12T14:01:31Z</time>
      </trkpt>
      <trkpt lat="48.75106" lon="7.33605">
        <ele>314.5</ele>
        <time>2026-03-12T14:01:36Z</time>
      </trkpt>
      <trkpt lat="48.75104" lon="7.33612">
        <ele>314.4</ele>
        <time>2026-03-12T14:01:41Z</time>
      </trkpt>
      <trkpt lat="48.75101" lon="7.33618">
        <ele>313.6</ele>
        <time>2026-03-12T14:01:46Z</time>
      </trkpt>
      <trkpt lat="48.75097" lon="7.33624">
        <ele>312.4</ele>
        <time>2026-03-12T14:01:51Z</time>
      </trkpt>
      <trkpt lat="48.75094" lon="7.33631">
        <ele>311.7</ele>
        <time>2026-03-12T14:01:56Z</time>
      </trkpt>
      <trkpt lat="48.7509" lon="7.33641">
        <ele>311</ele>
        <time>2026-03-12T14:02:01Z</time>
      </trkpt>
      <trkpt lat="48.75088" lon="7.33648">
        <ele>310.9</ele>
        <time>2026-03-12T14:02:06Z</time>
      </trkpt>
      <trkpt lat="48.75086" lon="7.33656">
        <ele>310.9</ele>
        <time>2026-03-12T14:02:11Z</time>
      </trkpt>
      <trkpt lat="48.75087" lon="7.33665">
        <ele>312.5</ele>
        <time>2026-03-12T14:02:16Z</time>
      </trkpt>
      <trkpt lat="48.75086" lon="7.33674">
        <ele>313.5</ele>
        <time>2026-03-12T14:02:21Z</time>
      </trkpt>
      <trkpt lat="48.75084" lon="7.33683">
        <ele>314.2</ele>
        <time>2026-03-12T14:02:26Z</time>
      </trkpt>
      <trkpt lat="48.75081" lon="7.3369">
        <ele>314.2</ele>
        <time>2026-03-12T14:02:31Z</time>
      </trkpt>
      <trkpt lat="48.75079" lon="7.33697">
        <ele>314.7</ele>
        <time>2026-03-12T14:02:36Z</time>
      </trkpt>
      <trkpt lat="48.75076" lon="7.33705">
        <ele>314.9</ele>
        <time>2026-03-12T14:02:41Z</time>
      </trkpt>
      <trkpt lat="48.75072" lon="7.33711">
        <ele>314.4</ele>
        <time>2026-03-12T14:02:46Z</time>
      </trkpt>
      <trkpt lat="48.75067" lon="7.33715">
        <ele>313</ele>
        <time>2026-03-12T14:02:51Z</time>
      </trkpt>
      <trkpt lat="48.75063" lon="7.33719">
        <ele>312.1</ele>
        <time>2026-03-12T14:02:56Z</time>
      </trkpt>
      <trkpt lat="48.75058" lon="7.33724">
        <ele>311</ele>
        <time>2026-03-12T14:03:01Z</time>
      </trkpt>
      <trkpt lat="48.75053" lon="7.3373">
        <ele>310</ele>
        <time>2026-03-12T14:03:06Z</time>
      </trkpt>
      <trkpt lat="48.75049" lon="7.33738">
        <ele>309.8</ele>
        <time>2026-03-12T14:03:11Z</time>
      </trkpt>
      <trkpt lat="48.75044" lon="7.33743">
        <ele>308.7</ele>
        <time>2026-03-12T14:03:16Z</time>
      </trkpt>
      <trkpt lat="48.75041" lon="7.33744">
        <ele>307.6</ele>
        <time>2026-03-12T14:03:21Z</time>
      </trkpt>
      <trkpt lat="48.75036" lon="7.33746">
        <ele>306</ele>
        <time>2026-03-12T14:03:26Z</time>
      </trkpt>
      <trkpt lat="48.75031" lon="7.33749">
        <ele>304.5</ele>
        <time>2026-03-12T14:03:31Z</time>
      </trkpt>
      <trkpt lat="48.75026" lon="7.33752">
        <ele>303</ele>
        <time>2026-03-12T14:03:36Z</time>
      </trkpt>
      <trkpt lat="48.75022" lon="7.33755">
        <ele>301.9</ele>
        <time>2026-03-12T14:03:41Z</time>
      </trkpt>
      <trkpt lat="48.75016" lon="7.3376">
        <ele>300.3</ele>
        <time>2026-03-12T14:03:46Z</time>
      </trkpt>
      <trkpt lat="48.75011" lon="7.33764">
        <ele>299</ele>
        <time>2026-03-12T14:03:51Z</time>
      </trkpt>
      <trkpt lat="48.75007" lon="7.33766">
        <ele>297.7</ele>
        <time>2026-03-12T14:03:56Z</time>
      </trkpt>
      <trkpt lat="48.75005" lon="7.33766">
        <ele>296.9</ele>
        <time>2026-03-12T14:04:01Z</time>
      </trkpt>
      <trkpt lat="48.75004" lon="7.33767">
        <ele>296.7</ele>
        <time>2026-03-12T14:04:06Z</time>
      </trkpt>
      <trkpt lat="48.74999" lon="7.33777">
        <ele>296.5</ele>
        <time>2026-03-12T14:04:11Z</time>
      </trkpt>
      <trkpt lat="48.74995" lon="7.33783">
        <ele>296.1</ele>
        <time>2026-03-12T14:04:16Z</time>
      </trkpt>
      <trkpt lat="48.74992" lon="7.33788">
        <ele>295.8</ele>
        <time>2026-03-12T14:04:21Z</time>
      </trkpt>
      <trkpt lat="48.74989" lon="7.33795">
        <ele>295.9</ele>
        <time>2026-03-12T14:04:26Z</time>
      </trkpt>
      <trkpt lat="48.74985" lon="7.33805">
        <ele>296.1</ele>
        <time>2026-03-12T14:04:31Z</time>
      </trkpt>
      <trkpt lat="48.74981" lon="7.33812">
        <ele>295.8</ele>
        <time>2026-03-12T14:04:36Z</time>
      </trkpt>
      <trkpt lat="48.74977" lon="7.3382">
        <ele>295.6</ele>
        <time>2026-03-12T14:04:41Z</time>
      </trkpt>
      <trkpt lat="48.74972" lon="7.33828">
        <ele>295</ele>
        <time>2026-03-12T14:04:46Z</time>
      </trkpt>
      <trkpt lat="48.74968" lon="7.33835">
        <ele>294.5</ele>
        <time>2026-03-12T14:04:51Z</time>
      </trkpt>
      <trkpt lat="48.74964" lon="7.33842">
        <ele>293.6</ele>
        <time>2026-03-12T14:04:56Z</time>
      </trkpt>
      <trkpt lat="48.74959" lon="7.3385">
        <ele>292.5</ele>
        <time>2026-03-12T14:05:01Z</time>
      </trkpt>
      <trkpt lat="48.74956" lon="7.33858">
        <ele>292.1</ele>
        <time>2026-03-12T14:05:06Z</time>
      </trkpt>
      <trkpt lat="48.74952" lon="7.33864">
        <ele>291.1</ele>
        <time>2026-03-12T14:05:11Z</time>
      </trkpt>
      <trkpt lat="48.74952" lon="7.33868">
        <ele>291.5</ele>
        <time>2026-03-12T14:05:16Z</time>
      </trkpt>
      <trkpt lat="48.74952" lon="7.33872">
        <ele>291.9</ele>
        <time>2026-03-12T14:05:21Z</time>
      </trkpt>
      <trkpt lat="48.74952" lon="7.33872">
        <ele>291.9</ele>
        <time>2026-03-12T14:05:26Z</time>
      </trkpt>
      <trkpt lat="48.74952" lon="7.33872">
        <ele>291.9</ele>
        <time>2026-03-12T14:05:31Z</time>
      </trkpt>
      <trkpt lat="48.74952" lon="7.33872">
        <ele>291.9</ele>
        <time>2026-03-12T14:05:36Z</time>
      </trkpt>
      <trkpt lat="48.74952" lon="7.33872">
        <ele>291.9</ele>
        <time>2026-03-12T14:05:41Z</time>
      </trkpt>
      <trkpt lat="48.74952" lon="7.33872">
        <ele>291.9</ele>
        <time>2026-03-12T14:05:46Z</time>
      </trkpt>
      <trkpt lat="48.74952" lon="7.33872">
        <ele>291.9</ele>
        <time>2026-03-12T14:05:51Z</time>
      </trkpt>
      <trkpt lat="48.74952" lon="7.33872">
        <ele>291.9</ele>
        <time>2026-03-12T14:05:56Z</time>
      </trkpt>
      <trkpt lat="48.74947" lon="7.33879">
        <ele>290.6</ele>
        <time>2026-03-12T14:06:01Z</time>
      </trkpt>
      <trkpt lat="48.74942" lon="7.33882">
        <ele>288.9</ele>
        <time>2026-03-12T14:06:06Z</time>
      </trkpt>
      <trkpt lat="48.74941" lon="7.33887">
        <ele>289</ele>
        <time>2026-03-12T14:06:11Z</time>
      </trkpt>
      <trkpt lat="48.74943" lon="7.33894">
        <ele>290.5</ele>
        <time>2026-03-12T14:06:16Z</time>
      </trkpt>
      <trkpt lat="48.74941" lon="7.33899">
        <ele>290.2</ele>
        <time>2026-03-12T14:06:21Z</time>
      </trkpt>
      <trkpt lat="48.74939" lon="7.339">
        <ele>289.5</ele>
        <time>2026-03-12T14:06:26Z</time>
      </trkpt>
      <trkpt lat="48.74938" lon="7.339">
        <ele>289.1</ele>
        <time>2026-03-12T14:06:31Z</time>
      </trkpt>
      <trkpt lat="48.74938" lon="7.339">
        <ele>289.1</ele>
        <time>2026-03-12T14:06:36Z</time>
      </trkpt>
      <trkpt lat="48.74938" lon="7.339">
        <ele>289.1</ele>
        <time>2026-03-12T14:06:41Z</time>
      </trkpt>
      <trkpt lat="48.74938" lon="7.339">
        <ele>289.1</ele>
        <time>2026-03-12T14:06:46Z</time>
      </trkpt>
      <trkpt lat="48.74936" lon="7.33909">
        <ele>289.1</ele>
        <time>2026-03-12T14:06:51Z</time>
      </trkpt>
      <trkpt lat="48.74933" lon="7.33909">
        <ele>287.9</ele>
        <time>2026-03-12T14:06:56Z</time>
      </trkpt>
      <trkpt lat="48.74928" lon="7.33912">
        <ele>286.2</ele>
        <time>2026-03-12T14:07:01Z</time>
      </trkpt>
      <trkpt lat="48.74926" lon="7.33914">
        <ele>285.5</ele>
        <time>2026-03-12T14:07:06Z</time>
      </trkpt>
      <trkpt lat="48.74922" lon="7.3392">
        <ele>284.4</ele>
        <time>2026-03-12T14:07:11Z</time>
      </trkpt>
      <trkpt lat="48.7492" lon="7.33926">
        <ele>283.9</ele>
        <time>2026-03-12T14:07:16Z</time>
      </trkpt>
      <trkpt lat="48.74917" lon="7.33932">
        <ele>283.1</ele>
        <time>2026-03-12T14:07:21Z</time>
      </trkpt>
      <trkpt lat="48.74915" lon="7.33938">
        <ele>282.6</ele>
        <time>2026-03-12T14:07:26Z</time>
      </trkpt>
      <trkpt lat="48.74915" lon="7.33943">
        <ele>282.9</ele>
        <time>2026-03-12T14:07:31Z</time>
      </trkpt>
      <trkpt lat="48.74914" lon="7.33944">
        <ele>282.6</ele>
        <time>2026-03-12T14:07:36Z</time>
      </trkpt>
      <trkpt lat="48.74912" lon="7.33955">
        <ele>282.5</ele>
        <time>2026-03-12T14:07:41Z</time>
      </trkpt>
      <trkpt lat="48.74909" lon="7.3396">
        <ele>281.6</ele>
        <time>2026-03-12T14:07:46Z</time>
      </trkpt>
      <trkpt lat="48.74907" lon="7.33964">
        <ele>281</ele>
        <time>2026-03-12T14:07:51Z</time>
      </trkpt>
      <trkpt lat="48.74905" lon="7.33968">
        <ele>280.4</ele>
        <time>2026-03-12T14:07:56Z</time>
      </trkpt>
      <trkpt lat="48.74903" lon="7.33974">
        <ele>280</ele>
        <time>2026-03-12T14:08:01Z</time>
      </trkpt>
      <trkpt lat="48.74901" lon="7.33983">
        <ele>279.7</ele>
        <time>2026-03-12T14:08:06Z</time>
      </trkpt>
      <trkpt lat="48.74898" lon="7.33991">
        <ele>278.9</ele>
        <time>2026-03-12T14:08:11Z</time>
      </trkpt>
      <trkpt lat="48.74895" lon="7.33997">
        <ele>278</ele>
        <time>2026-03-12T14:08:16Z</time>
      </trkpt>
      <trkpt lat="48.74892" lon="7.34004">
        <ele>277.1</ele>
        <time>2026-03-12T14:08:21Z</time>
      </trkpt>
      <trkpt lat="48.74889" lon="7.34007">
        <ele>276.1</ele>
        <time>2026-03-12T14:08:26Z</time>
      </trkpt>
      <trkpt lat="48.74889" lon="7.34007">
        <ele>276.1</ele>
        <time>2026-03-12T14:08:31Z</time>
      </trkpt>
      <trkpt lat="48.74889" lon="7.34007">
        <ele>276.1</ele>
        <time>2026-03-12T14:08:36Z</time>
      </trkpt>
      <trkpt lat="48.74889" lon="7.34007">
        <ele>276.1</ele>
        <time>2026-03-12T14:08:41Z</time>
      </trkpt>
      <trkpt lat="48.74889" lon="7.34007">
        <ele>276.1</ele>
        <time>2026-03-12T14:08:46Z</time>
      </trkpt>
      <trkpt lat="48.74889" lon="7.34007">
        <ele>276.1</ele>
        <time>2026-03-12T14:08:51Z</time>
      </trkpt>
      <trkpt lat="48.74889" lon="7.34007">
        <ele>276.1</ele>
        <time>2026-03-12T14:08:56Z</time>
      </trkpt>
      <trkpt lat="48.74889" lon="7.34007">
        <ele>276.1</ele>
        <time>2026-03-12T14:09:01Z</time>
      </trkpt>
      <trkpt lat="48.74889" lon="7.34007">
        <ele>276.1</ele>
        <time>2026-03-12T14:09:06Z</time>
      </trkpt>
      <trkpt lat="48.74889" lon="7.34007">
        <ele>276.1</ele>
        <time>2026-03-12T14:09:11Z</time>
      </trkpt>
      <trkpt lat="48.74889" lon="7.34007">
        <ele>276.1</ele>
        <time>2026-03-12T14:09:16Z</time>
      </trkpt>
      <trkpt lat="48.74889" lon="7.34007">
        <ele>276.1</ele>
        <time>2026-03-12T14:09:21Z</time>
      </trkpt>
      <trkpt lat="48.74889" lon="7.34007">
        <ele>276.1</ele>
        <time>2026-03-12T14:09:26Z</time>
      </trkpt>
      <trkpt lat="48.74889" lon="7.34007">
        <ele>276.1</ele>
        <time>2026-03-12T14:09:31Z</time>
      </trkpt>
      <trkpt lat="48.74889" lon="7.34007">
        <ele>276.1</ele>
        <time>2026-03-12T14:09:36Z</time>
      </trkpt>
      <trkpt lat="48.74889" lon="7.34007">
        <ele>276.1</ele>
        <time>2026-03-12T14:09:41Z</time>
      </trkpt>
      <trkpt lat="48.74889" lon="7.34007">
        <ele>276.1</ele>
        <time>2026-03-12T14:09:46Z</time>
      </trkpt>
      <trkpt lat="48.74889" lon="7.34007">
        <ele>276.1</ele>
        <time>2026-03-12T14:09:51Z</time>
      </trkpt>
      <trkpt lat="48.74889" lon="7.34007">
        <ele>276.1</ele>
        <time>2026-03-12T14:09:56Z</time>
      </trkpt>
      <trkpt lat="48.74889" lon="7.34007">
        <ele>276.1</ele>
        <time>2026-03-12T14:10:01Z</time>
      </trkpt>
      <trkpt lat="48.74889" lon="7.34007">
        <ele>276.1</ele>
        <time>2026-03-12T14:10:06Z</time>
      </trkpt>
      <trkpt lat="48.74889" lon="7.34007">
        <ele>276.1</ele>
        <time>2026-03-12T14:10:11Z</time>
      </trkpt>
      <trkpt lat="48.74889" lon="7.34007">
        <ele>276.1</ele>
        <time>2026-03-12T14:10:16Z</time>
      </trkpt>
      <trkpt lat="48.74889" lon="7.34007">
        <ele>276.1</ele>
        <time>2026-03-12T14:10:21Z</time>
      </trkpt>
      <trkpt lat="48.74889" lon="7.34007">
        <ele>276.1</ele>
        <time>2026-03-12T14:10:26Z</time>
      </trkpt>
      <trkpt lat="48.74889" lon="7.34007">
        <ele>276.1</ele>
        <time>2026-03-12T14:10:31Z</time>
      </trkpt>
      <trkpt lat="48.74889" lon="7.34007">
        <ele>276.1</ele>
        <time>2026-03-12T14:10:36Z</time>
      </trkpt>
      <trkpt lat="48.74889" lon="7.34007">
        <ele>276.1</ele>
        <time>2026-03-12T14:10:41Z</time>
      </trkpt>
      <trkpt lat="48.74889" lon="7.34007">
        <ele>276.1</ele>
        <time>2026-03-12T14:10:46Z</time>
      </trkpt>
      <trkpt lat="48.74889" lon="7.34007">
        <ele>276.1</ele>
        <time>2026-03-12T14:10:51Z</time>
      </trkpt>
      <trkpt lat="48.74889" lon="7.34007">
        <ele>276.1</ele>
        <time>2026-03-12T14:10:56Z</time>
      </trkpt>
      <trkpt lat="48.74889" lon="7.34007">
        <ele>276.1</ele>
        <time>2026-03-12T14:11:01Z</time>
      </trkpt>
      <trkpt lat="48.74889" lon="7.34007">
        <ele>276.1</ele>
        <time>2026-03-12T14:11:06Z</time>
      </trkpt>
      <trkpt lat="48.74889" lon="7.34007">
        <ele>276.1</ele>
        <time>2026-03-12T14:11:11Z</time>
      </trkpt>
      <trkpt lat="48.74889" lon="7.34007">
        <ele>276.1</ele>
        <time>2026-03-12T14:11:16Z</time>
      </trkpt>
      <trkpt lat="48.74889" lon="7.34007">
        <ele>276.1</ele>
        <time>2026-03-12T14:11:21Z</time>
      </trkpt>
      <trkpt lat="48.74889" lon="7.34007">
        <ele>276.1</ele>
        <time>2026-03-12T14:11:26Z</time>
      </trkpt>
      <trkpt lat="48.74889" lon="7.34007">
        <ele>276.1</ele>
        <time>2026-03-12T14:11:31Z</time>
      </trkpt>
      <trkpt lat="48.74889" lon="7.34007">
        <ele>276.1</ele>
        <time>2026-03-12T14:11:36Z</time>
      </trkpt>
      <trkpt lat="48.74889" lon="7.34007">
        <ele>276.1</ele>
        <time>2026-03-12T14:11:41Z</time>
      </trkpt>
      <trkpt lat="48.74893" lon="7.34012">
        <ele>278</ele>
        <time>2026-03-12T14:11:46Z</time>
      </trkpt>
      <trkpt lat="48.74889" lon="7.3402">
        <ele>276.8</ele>
        <time>2026-03-12T14:11:51Z</time>
      </trkpt>
      <trkpt lat="48.7489" lon="7.34025">
        <ele>277.4</ele>
        <time>2026-03-12T14:11:56Z</time>
      </trkpt>
      <trkpt lat="48.74895" lon="7.34027">
        <ele>279.5</ele>
        <time>2026-03-12T14:12:01Z</time>
      </trkpt>
      <trkpt lat="48.74896" lon="7.34028">
        <ele>280</ele>
        <time>2026-03-12T14:12:06Z</time>
      </trkpt>
      <trkpt lat="48.7489" lon="7.34033">
        <ele>277.8</ele>
        <time>2026-03-12T14:12:11Z</time>
      </trkpt>
      <trkpt lat="48.74888" lon="7.34033">
        <ele>277</ele>
        <time>2026-03-12T14:12:16Z</time>
      </trkpt>
      <trkpt lat="48.74885" lon="7.34036">
        <ele>276</ele>
        <time>2026-03-12T14:12:21Z</time>
      </trkpt>
      <trkpt lat="48.74878" lon="7.34035">
        <ele>273.1</ele>
        <time>2026-03-12T14:12:26Z</time>
      </trkpt>
      <trkpt lat="48.74877" lon="7.34032">
        <ele>272.5</ele>
        <time>2026-03-12T14:12:31Z</time>
      </trkpt>
      <trkpt lat="48.74876" lon="7.34039">
        <ele>272.5</ele>
        <time>2026-03-12T14:12:36Z</time>
      </trkpt>
      <trkpt lat="48.74876" lon="7.3405">
        <ele>273.1</ele>
        <time>2026-03-12T14:12:41Z</time>
      </trkpt>
      <trkpt lat="48.74876" lon="7.34056">
        <ele>273.4</ele>
        <time>2026-03-12T14:12:46Z</time>
      </trkpt>
      <trkpt lat="48.74875" lon="7.34062">
        <ele>273.3</ele>
        <time>2026-03-12T14:12:51Z</time>
      </trkpt>
      <trkpt lat="48.74872" lon="7.34066">
        <ele>272.4</ele>
        <time>2026-03-12T14:12:56Z</time>
      </trkpt>
      <trkpt lat="48.74872" lon="7.3407">
        <ele>272.6</ele>
        <time>2026-03-12T14:13:01Z</time>
      </trkpt>
      <trkpt lat="48.7487" lon="7.34076">
        <ele>272.1</ele>
        <time>2026-03-12T14:13:06Z</time>
      </trkpt>
      <trkpt lat="48.74867" lon="7.34082">
        <ele>271.3</ele>
        <time>2026-03-12T14:13:11Z</time>
      </trkpt>
      <trkpt lat="48.74865" lon="7.34088">
        <ele>270.6</ele>
        <time>2026-03-12T14:13:16Z</time>
      </trkpt>
      <trkpt lat="48.74865" lon="7.34094">
        <ele>270.6</ele>
        <time>2026-03-12T14:13:21Z</time>
      </trkpt>
      <trkpt lat="48.74864" lon="7.34101">
        <ele>270.2</ele>
        <time>2026-03-12T14:13:26Z</time>
      </trkpt>
      <trkpt lat="48.74863" lon="7.34108">
        <ele>269.8</ele>
        <time>2026-03-12T14:13:31Z</time>
      </trkpt>
      <trkpt lat="48.74861" lon="7.34112">
        <ele>269.1</ele>
        <time>2026-03-12T14:13:36Z</time>
      </trkpt>
      <trkpt lat="48.74861" lon="7.34117">
        <ele>269.1</ele>
        <time>2026-03-12T14:13:41Z</time>
      </trkpt>
      <trkpt lat="48.74858" lon="7.34127">
        <ele>268</ele>
        <time>2026-03-12T14:13:46Z</time>
      </trkpt>
      <trkpt lat="48.74855" lon="7.34135">
        <ele>266.9</ele>
        <time>2026-03-12T14:13:51Z</time>
      </trkpt>
      <trkpt lat="48.74854" lon="7.34142">
        <ele>266.5</ele>
        <time>2026-03-12T14:13:56Z</time>
      </trkpt>
      <trkpt lat="48.74853" lon="7.3415">
        <ele>266.2</ele>
        <time>2026-03-12T14:14:01Z</time>
      </trkpt>
      <trkpt lat="48.74852" lon="7.3416">
        <ele>265.9</ele>
        <time>2026-03-12T14:14:06Z</time>
      </trkpt>
      <trkpt lat="48.7485" lon="7.34169">
        <ele>265.3</ele>
        <time>2026-03-12T14:14:11Z</time>
      </trkpt>
      <trkpt lat="48.74849" lon="7.34176">
        <ele>265.2</ele>
        <time>2026-03-12T14:14:16Z</time>
      </trkpt>
      <trkpt lat="48.74845" lon="7.34183">
        <ele>264</ele>
        <time>2026-03-12T14:14:21Z</time>
      </trkpt>
      <trkpt lat="48.74843" lon="7.3419">
        <ele>263.6</ele>
        <time>2026-03-12T14:14:26Z</time>
      </trkpt>
      <trkpt lat="48.74843" lon="7.34199">
        <ele>264</ele>
        <time>2026-03-12T14:14:31Z</time>
      </trkpt>
      <trkpt lat="48.7484" lon="7.34205">
        <ele>263.2</ele>
        <time>2026-03-12T14:14:36Z</time>
      </trkpt>
      <trkpt lat="48.74838" lon="7.34212">
        <ele>262.8</ele>
        <time>2026-03-12T14:14:41Z</time>
      </trkpt>
      <trkpt lat="48.74835" lon="7.34219">
        <ele>262.1</ele>
        <time>2026-03-12T14:14:46Z</time>
      </trkpt>
      <trkpt lat="48.74833" lon="7.34225">
        <ele>261.7</ele>
        <time>2026-03-12T14:14:51Z</time>
      </trkpt>
      <trkpt lat="48.74831" lon="7.34232">
        <ele>261.4</ele>
        <time>2026-03-12T14:14:56Z</time>
      </trkpt>
      <trkpt lat="48.74829" lon="7.34238">
        <ele>261.1</ele>
        <time>2026-03-12T14:15:01Z</time>
      </trkpt>
      <trkpt lat="48.74825" lon="7.3424">
        <ele>259.9</ele>
        <time>2026-03-12T14:15:06Z</time>
      </trkpt>
      <trkpt lat="48.74825" lon="7.34248">
        <ele>260.3</ele>
        <time>2026-03-12T14:15:11Z</time>
      </trkpt>
      <trkpt lat="48.74823" lon="7.34258">
        <ele>260.6</ele>
        <time>2026-03-12T14:15:16Z</time>
      </trkpt>
      <trkpt lat="48.74821" lon="7.34267">
        <ele>260.9</ele>
        <time>2026-03-12T14:15:21Z</time>
      </trkpt>
      <trkpt lat="48.7482" lon="7.34271">
        <ele>261</ele>
        <time>2026-03-12T14:15:26Z</time>
      </trkpt>
      <trkpt lat="48.74817" lon="7.34279">
        <ele>260.9</ele>
        <time>2026-03-12T14:15:31Z</time>
      </trkpt>
      <trkpt lat="48.74815" lon="7.34285">
        <ele>260.9</ele>
        <time>2026-03-12T14:15:36Z</time>
      </trkpt>
      <trkpt lat="48.74813" lon="7.34293">
        <ele>261.2</ele>
        <time>2026-03-12T14:15:41Z</time>
      </trkpt>
      <trkpt lat="48.7481" lon="7.343">
        <ele>261</ele>
        <time>2026-03-12T14:15:46Z</time>
      </trkpt>
      <trkpt lat="48.74807" lon="7.34306">
        <ele>260.8</ele>
        <time>2026-03-12T14:15:51Z</time>
      </trkpt>
      <trkpt lat="48.74803" lon="7.34311">
        <ele>260.2</ele>
        <time>2026-03-12T14:15:56Z</time>
      </trkpt>
      <trkpt lat="48.74798" lon="7.34317">
        <ele>259.4</ele>
        <time>2026-03-12T14:16:01Z</time>
      </trkpt>
      <trkpt lat="48.74793" lon="7.34322">
        <ele>258.6</ele>
        <time>2026-03-12T14:16:06Z</time>
      </trkpt>
      <trkpt lat="48.74789" lon="7.34328">
        <ele>258.1</ele>
        <time>2026-03-12T14:16:11Z</time>
      </trkpt>
      <trkpt lat="48.74785" lon="7.34334">
        <ele>257.8</ele>
        <time>2026-03-12T14:16:16Z</time>
      </trkpt>
      <trkpt lat="48.7478" lon="7.34339">
        <ele>257.2</ele>
        <time>2026-03-12T14:16:21Z</time>
      </trkpt>
      <trkpt lat="48.74776" lon="7.34344">
        <ele>256.9</ele>
        <time>2026-03-12T14:16:26Z</time>
      </trkpt>
      <trkpt lat="48.74772" lon="7.34347">
        <ele>256.3</ele>
        <time>2026-03-12T14:16:31Z</time>
      </trkpt>
      <trkpt lat="48.74766" lon="7.34351">
        <ele>255.5</ele>
        <time>2026-03-12T14:16:36Z</time>
      </trkpt>
      <trkpt lat="48.74761" lon="7.34356">
        <ele>255.1</ele>
        <time>2026-03-12T14:16:41Z</time>
      </trkpt>
      <trkpt lat="48.74755" lon="7.34359">
        <ele>254.2</ele>
        <time>2026-03-12T14:16:46Z</time>
      </trkpt>
      <trkpt lat="48.74749" lon="7.34361">
        <ele>253</ele>
        <time>2026-03-12T14:16:51Z</time>
      </trkpt>
      <trkpt lat="48.74745" lon="7.34367">
        <ele>253</ele>
        <time>2026-03-12T14:16:56Z</time>
      </trkpt>
      <trkpt lat="48.7474" lon="7.34372">
        <ele>252.5</ele>
        <time>2026-03-12T14:17:01Z</time>
      </trkpt>
      <trkpt lat="48.74736" lon="7.34376">
        <ele>252</ele>
        <time>2026-03-12T14:17:06Z</time>
      </trkpt>
      <trkpt lat="48.7473" lon="7.34382">
        <ele>251.1</ele>
        <time>2026-03-12T14:17:11Z</time>
      </trkpt>
      <trkpt lat="48.74725" lon="7.3439">
        <ele>250.8</ele>
        <time>2026-03-12T14:17:16Z</time>
      </trkpt>
      <trkpt lat="48.74721" lon="7.34394">
        <ele>250.2</ele>
        <time>2026-03-12T14:17:21Z</time>
      </trkpt>
      <trkpt lat="48.74717" lon="7.34397">
        <ele>249.3</ele>
        <time>2026-03-12T14:17:26Z</time>
      </trkpt>
      <trkpt lat="48.74711" lon="7.34401">
        <ele>247.8</ele>
        <time>2026-03-12T14:17:31Z</time>
      </trkpt>
      <trkpt lat="48.74708" lon="7.34408">
        <ele>247.7</ele>
        <time>2026-03-12T14:17:36Z</time>
      </trkpt>
      <trkpt lat="48.74703" lon="7.34411">
        <ele>246.4</ele>
        <time>2026-03-12T14:17:41Z</time>
      </trkpt>
      <trkpt lat="48.74697" lon="7.34413">
        <ele>244.5</ele>
        <time>2026-03-12T14:17:46Z</time>
      </trkpt>
      <trkpt lat="48.74691" lon="7.34413">
        <ele>242.4</ele>
        <time>2026-03-12T14:17:51Z</time>
      </trkpt>
      <trkpt lat="48.74687" lon="7.34415">
        <ele>241.2</ele>
        <time>2026-03-12T14:17:56Z</time>
      </trkpt>
      <trkpt lat="48.74682" lon="7.34419">
        <ele>239.8</ele>
        <time>2026-03-12T14:18:01Z</time>
      </trkpt>
      <trkpt lat="48.74677" lon="7.34422">
        <ele>238.3</ele>
        <time>2026-03-12T14:18:06Z</time>
      </trkpt>
      <trkpt lat="48.74673" lon="7.34428">
        <ele>237.6</ele>
        <time>2026-03-12T14:18:11Z</time>
      </trkpt>
      <trkpt lat="48.74669" lon="7.34434">
        <ele>236.9</ele>
        <time>2026-03-12T14:18:16Z</time>
      </trkpt>
      <trkpt lat="48.74667" lon="7.34442">
        <ele>237.2</ele>
        <time>2026-03-12T14:18:21Z</time>
      </trkpt>
      <trkpt lat="48.74663" lon="7.34448">
        <ele>237.1</ele>
        <time>2026-03-12T14:18:26Z</time>
      </trkpt>
      <trkpt lat="48.74662" lon="7.34451">
        <ele>237.3</ele>
        <time>2026-03-12T14:18:31Z</time>
      </trkpt>
      <trkpt lat="48.7466" lon="7.34448">
        <ele>236.6</ele>
        <time>2026-03-12T14:18:36Z</time>
      </trkpt>
      <trkpt lat="48.74655" lon="7.3445">
        <ele>236</ele>
        <time>2026-03-12T14:18:41Z</time>
      </trkpt>
      <trkpt lat="48.74649" lon="7.34455">
        <ele>235.3</ele>
        <time>2026-03-12T14:18:46Z</time>
      </trkpt>
      <trkpt lat="48.74644" lon="7.34458">
        <ele>234.5</ele>
        <time>2026-03-12T14:18:51Z</time>
      </trkpt>
      <trkpt lat="48.7464" lon="7.34461">
        <ele>233.8</ele>
        <time>2026-03-12T14:18:56Z</time>
      </trkpt>
      <trkpt lat="48.74636" lon="7.34468">
        <ele>233.2</ele>
        <time>2026-03-12T14:19:01Z</time>
      </trkpt>
      <trkpt lat="48.74632" lon="7.34479">
        <ele>232.4</ele>
        <time>2026-03-12T14:19:06Z</time>
      </trkpt>
      <trkpt lat="48.74627" lon="7.34487">
        <ele>231.1</ele>
        <time>2026-03-12T14:19:11Z</time>
      </trkpt>
      <trkpt lat="48.74622" lon="7.34492">
        <ele>229.6</ele>
        <time>2026-03-12T14:19:16Z</time>
      </trkpt>
      <trkpt lat="48.74619" lon="7.34494">
        <ele>228.7</ele>
        <time>2026-03-12T14:19:21Z</time>
      </trkpt>
      <trkpt lat="48.74615" lon="7.34497">
        <ele>227.4</ele>
        <time>2026-03-12T14:19:26Z</time>
      </trkpt>
      <trkpt lat="48.74615" lon="7.34497">
        <ele>227.4</ele>
        <time>2026-03-12T14:19:31Z</time>
      </trkpt>
      <trkpt lat="48.74615" lon="7.34497">
        <ele>227.4</ele>
        <time>2026-03-12T14:19:36Z</time>
      </trkpt>
      <trkpt lat="48.74615" lon="7.34497">
        <ele>227.4</ele>
        <time>2026-03-12T14:19:41Z</time>
      </trkpt>
      <trkpt lat="48.74618" lon="7.34492">
        <ele>228.4</ele>
        <time>2026-03-12T14:19:46Z</time>
      </trkpt>
      <trkpt lat="48.74621" lon="7.34488">
        <ele>229.4</ele>
        <time>2026-03-12T14:19:51Z</time>
      </trkpt>
      <trkpt lat="48.74624" lon="7.34482">
        <ele>230.3</ele>
        <time>2026-03-12T14:19:56Z</time>
      </trkpt>
      <trkpt lat="48.74625" lon="7.34478">
        <ele>230.6</ele>
        <time>2026-03-12T14:20:01Z</time>
      </trkpt>
      <trkpt lat="48.74625" lon="7.34478">
        <ele>230.6</ele>
        <time>2026-03-12T14:20:06Z</time>
      </trkpt>
      <trkpt lat="48.74625" lon="7.34478">
        <ele>230.6</ele>
        <time>2026-03-12T14:20:11Z</time>
      </trkpt>
      <trkpt lat="48.74625" lon="7.34478">
        <ele>230.6</ele>
        <time>2026-03-12T14:20:16Z</time>
      </trkpt>
      <trkpt lat="48.74625" lon="7.34478">
        <ele>230.6</ele>
        <time>2026-03-12T14:20:21Z</time>
      </trkpt>
      <trkpt lat="48.74625" lon="7.34478">
        <ele>230.6</ele>
        <time>2026-03-12T14:20:26Z</time>
      </trkpt>
      <trkpt lat="48.74625" lon="7.34478">
        <ele>230.6</ele>
        <time>2026-03-12T14:20:31Z</time>
      </trkpt>
      <trkpt lat="48.74628" lon="7.34467">
        <ele>231.4</ele>
        <time>2026-03-12T14:20:36Z</time>
      </trkpt>
      <trkpt lat="48.7463" lon="7.34458">
        <ele>231.7</ele>
        <time>2026-03-12T14:20:41Z</time>
      </trkpt>
      <trkpt lat="48.74632" lon="7.34453">
        <ele>232.1</ele>
        <time>2026-03-12T14:20:46Z</time>
      </trkpt>
      <trkpt lat="48.74634" lon="7.34446">
        <ele>232.3</ele>
        <time>2026-03-12T14:20:51Z</time>
      </trkpt>
      <trkpt lat="48.74637" lon="7.34439">
        <ele>232.5</ele>
        <time>2026-03-12T14:20:56Z</time>
      </trkpt>
      <trkpt lat="48.74639" lon="7.34433">
        <ele>232.6</ele>
        <time>2026-03-12T14:21:01Z</time>
      </trkpt>
      <trkpt lat="48.74641" lon="7.34428">
        <ele>232.6</ele>
        <time>2026-03-12T14:21:06Z</time>
      </trkpt>
      <trkpt lat="48.74642" lon="7.34421">
        <ele>232.4</ele>
        <time>2026-03-12T14:21:11Z</time>
      </trkpt>
      <trkpt lat="48.74644" lon="7.34415">
        <ele>232.4</ele>
        <time>2026-03-12T14:21:16Z</time>
      </trkpt>
      <trkpt lat="48.74648" lon="7.34408">
        <ele>232.5</ele>
        <time>2026-03-12T14:21:21Z</time>
      </trkpt>
      <trkpt lat="48.7465" lon="7.344">
        <ele>232.4</ele>
        <time>2026-03-12T14:21:26Z</time>
      </trkpt>
      <trkpt lat="48.7465" lon="7.34393">
        <ele>232.3</ele>
        <time>2026-03-12T14:21:31Z</time>
      </trkpt>
      <trkpt lat="48.74652" lon="7.34386">
        <ele>232.1</ele>
        <time>2026-03-12T14:21:36Z</time>
      </trkpt>
      <trkpt lat="48.74656" lon="7.34381">
        <ele>231.8</ele>
        <time>2026-03-12T14:21:41Z</time>
      </trkpt>
      <trkpt lat="48.74659" lon="7.34376">
        <ele>231.5</ele>
        <time>2026-03-12T14:21:46Z</time>
      </trkpt>
      <trkpt lat="48.7466" lon="7.34368">
        <ele>231</ele>
        <time>2026-03-12T14:21:51Z</time>
      </trkpt>
      <trkpt lat="48.74661" lon="7.34361">
        <ele>230.5</ele>
        <time>2026-03-12T14:21:56Z</time>
      </trkpt>
      <trkpt lat="48.7466" lon="7.34355">
        <ele>230.3</ele>
        <time>2026-03-12T14:22:01Z</time>
      </trkpt>
      <trkpt lat="48.74662" lon="7.34348">
        <ele>229.7</ele>
        <time>2026-03-12T14:22:06Z</time>
      </trkpt>
      <trkpt lat="48.74665" lon="7.34342">
        <ele>228.9</ele>
        <time>2026-03-12T14:22:11Z</time>
      </trkpt>
      <trkpt lat="48.74666" lon="7.34338">
        <ele>228.4</ele>
        <time>2026-03-12T14:22:16Z</time>
      </trkpt>
      <trkpt lat="48.74666" lon="7.34338">
        <ele>228.4</ele>
        <time>2026-03-12T14:22:21Z</time>
      </trkpt>
      <trkpt lat="48.74666" lon="7.34338">
        <ele>228.4</ele>
        <time>2026-03-12T14:22:26Z</time>
      </trkpt>
      <trkpt lat="48.74666" lon="7.34338">
        <ele>228.4</ele>
        <time>2026-03-12T14:22:31Z</time>
      </trkpt>
      <trkpt lat="48.74666" lon="7.34338">
        <ele>228.4</ele>
        <time>2026-03-12T14:22:36Z</time>
      </trkpt>
      <trkpt lat="48.74666" lon="7.34338">
        <ele>228.4</ele>
        <time>2026-03-12T14:22:41Z</time>
      </trkpt>
      <trkpt lat="48.74661" lon="7.34329">
        <ele>229.4</ele>
        <time>2026-03-12T14:22:46Z</time>
      </trkpt>
      <trkpt lat="48.74666" lon="7.34315">
        <ele>229.5</ele>
        <time>2026-03-12T14:22:51Z</time>
      </trkpt>
      <trkpt lat="48.74669" lon="7.34302">
        <ele>230.6</ele>
        <time>2026-03-12T14:22:56Z</time>
      </trkpt>
      <trkpt lat="48.74669" lon="7.34296">
        <ele>231</ele>
        <time>2026-03-12T14:23:01Z</time>
      </trkpt>
      <trkpt lat="48.74663" lon="7.34288">
        <ele>232.2</ele>
        <time>2026-03-12T14:23:06Z</time>
      </trkpt>
      <trkpt lat="48.74657" lon="7.34283">
        <ele>234.3</ele>
        <time>2026-03-12T14:23:11Z</time>
      </trkpt>
      <trkpt lat="48.74647" lon="7.34283">
        <ele>237</ele>
        <time>2026-03-12T14:23:16Z</time>
      </trkpt>
      <trkpt lat="48.74639" lon="7.34287">
        <ele>238.7</ele>
        <time>2026-03-12T14:23:21Z</time>
      </trkpt>
      <trkpt lat="48.74638" lon="7.34287">
        <ele>239</ele>
        <time>2026-03-12T14:23:26Z</time>
      </trkpt>
      <trkpt lat="48.74638" lon="7.34287">
        <ele>239</ele>
        <time>2026-03-12T14:23:31Z</time>
      </trkpt>
      <trkpt lat="48.74638" lon="7.34287">
        <ele>239</ele>
        <time>2026-03-12T14:23:36Z</time>
      </trkpt>
      <trkpt lat="48.74638" lon="7.34287">
        <ele>239</ele>
        <time>2026-03-12T14:23:41Z</time>
      </trkpt>
      <trkpt lat="48.74638" lon="7.34287">
        <ele>239</ele>
        <time>2026-03-12T14:23:46Z</time>
      </trkpt>
      <trkpt lat="48.74638" lon="7.34287">
        <ele>239</ele>
        <time>2026-03-12T14:23:51Z</time>
      </trkpt>
      <trkpt lat="48.74637" lon="7.34302">
        <ele>237.3</ele>
        <time>2026-03-12T14:23:56Z</time>
      </trkpt>
      <trkpt lat="48.74633" lon="7.34313">
        <ele>236.8</ele>
        <time>2026-03-12T14:24:01Z</time>
      </trkpt>
      <trkpt lat="48.74631" lon="7.34305">
        <ele>238.4</ele>
        <time>2026-03-12T14:24:06Z</time>
      </trkpt>
      <trkpt lat="48.74632" lon="7.34293">
        <ele>239.8</ele>
        <time>2026-03-12T14:24:11Z</time>
      </trkpt>
      <trkpt lat="48.74633" lon="7.34291">
        <ele>239.8</ele>
        <time>2026-03-12T14:24:16Z</time>
      </trkpt>
      <trkpt lat="48.74633" lon="7.34291">
        <ele>239.8</ele>
        <time>2026-03-12T14:24:21Z</time>
      </trkpt>
      <trkpt lat="48.74634" lon="7.34309">
        <ele>237.1</ele>
        <time>2026-03-12T14:24:26Z</time>
      </trkpt>
      <trkpt lat="48.74627" lon="7.34317">
        <ele>237.5</ele>
        <time>2026-03-12T14:24:31Z</time>
      </trkpt>
      <trkpt lat="48.74619" lon="7.34325">
        <ele>237.9</ele>
        <time>2026-03-12T14:24:36Z</time>
      </trkpt>
      <trkpt lat="48.74613" lon="7.34332">
        <ele>237.9</ele>
        <time>2026-03-12T14:24:41Z</time>
      </trkpt>
      <trkpt lat="48.74608" lon="7.34338">
        <ele>238.1</ele>
        <time>2026-03-12T14:24:46Z</time>
      </trkpt>
      <trkpt lat="48.74604" lon="7.34346">
        <ele>237.8</ele>
        <time>2026-03-12T14:24:51Z</time>
      </trkpt>
      <trkpt lat="48.746" lon="7.34356">
        <ele>237.1</ele>
        <time>2026-03-12T14:24:56Z</time>
      </trkpt>
      <trkpt lat="48.74596" lon="7.34364">
        <ele>236.4</ele>
        <time>2026-03-12T14:25:01Z</time>
      </trkpt>
      <trkpt lat="48.74593" lon="7.3437">
        <ele>235.7</ele>
        <time>2026-03-12T14:25:06Z</time>
      </trkpt>
      <trkpt lat="48.7459" lon="7.34377">
        <ele>234.8</ele>
        <time>2026-03-12T14:25:11Z</time>
      </trkpt>
      <trkpt lat="48.74587" lon="7.34384">
        <ele>233.8</ele>
        <time>2026-03-12T14:25:16Z</time>
      </trkpt>
      <trkpt lat="48.74584" lon="7.34393">
        <ele>232.3</ele>
        <time>2026-03-12T14:25:21Z</time>
      </trkpt>
      <trkpt lat="48.74581" lon="7.34401">
        <ele>231.7</ele>
        <time>2026-03-12T14:25:26Z</time>
      </trkpt>
      <trkpt lat="48.74578" lon="7.34409">
        <ele>231.4</ele>
        <time>2026-03-12T14:25:31Z</time>
      </trkpt>
      <trkpt lat="48.74575" lon="7.34416">
        <ele>231.2</ele>
        <time>2026-03-12T14:25:36Z</time>
      </trkpt>
      <trkpt lat="48.74573" lon="7.34425">
        <ele>230.6</ele>
        <time>2026-03-12T14:25:41Z</time>
      </trkpt>
      <trkpt lat="48.7457" lon="7.34433">
        <ele>230.5</ele>
        <time>2026-03-12T14:25:46Z</time>
      </trkpt>
      <trkpt lat="48.74566" lon="7.34441">
        <ele>230.7</ele>
        <time>2026-03-12T14:25:51Z</time>
      </trkpt>
      <trkpt lat="48.74563" lon="7.34449">
        <ele>230.4</ele>
        <time>2026-03-12T14:25:56Z</time>
      </trkpt>
      <trkpt lat="48.74559" lon="7.34458">
        <ele>230.3</ele>
        <time>2026-03-12T14:26:01Z</time>
      </trkpt>
      <trkpt lat="48.74554" lon="7.34468">
        <ele>230.2</ele>
        <time>2026-03-12T14:26:06Z</time>
      </trkpt>
      <trkpt lat="48.7455" lon="7.34475">
        <ele>230.2</ele>
        <time>2026-03-12T14:26:11Z</time>
      </trkpt>
      <trkpt lat="48.74545" lon="7.34482">
        <ele>230.4</ele>
        <time>2026-03-12T14:26:16Z</time>
      </trkpt>
      <trkpt lat="48.74542" lon="7.34491">
        <ele>229.6</ele>
        <time>2026-03-12T14:26:21Z</time>
      </trkpt>
      <trkpt lat="48.74539" lon="7.34499">
        <ele>228.9</ele>
        <time>2026-03-12T14:26:26Z</time>
      </trkpt>
      <trkpt lat="48.74537" lon="7.34509">
        <ele>227.6</ele>
        <time>2026-03-12T14:26:31Z</time>
      </trkpt>
      <trkpt lat="48.74536" lon="7.34519">
        <ele>226</ele>
        <time>2026-03-12T14:26:36Z</time>
      </trkpt>
      <trkpt lat="48.74534" lon="7.34528">
        <ele>224.6</ele>
        <time>2026-03-12T14:26:41Z</time>
      </trkpt>
      <trkpt lat="48.74531" lon="7.34538">
        <ele>223.1</ele>
        <time>2026-03-12T14:26:46Z</time>
      </trkpt>
      <trkpt lat="48.74528" lon="7.34549">
        <ele>221.3</ele>
        <time>2026-03-12T14:26:51Z</time>
      </trkpt>
      <trkpt lat="48.74527" lon="7.34557">
        <ele>219.6</ele>
        <time>2026-03-12T14:26:56Z</time>
      </trkpt>
      <trkpt lat="48.74524" lon="7.34564">
        <ele>218.3</ele>
        <time>2026-03-12T14:27:01Z</time>
      </trkpt>
      <trkpt lat="48.74522" lon="7.34571">
        <ele>216.8</ele>
        <time>2026-03-12T14:27:06Z</time>
      </trkpt>
      <trkpt lat="48.74518" lon="7.3457">
        <ele>217.2</ele>
        <time>2026-03-12T14:27:11Z</time>
      </trkpt>
      <trkpt lat="48.7452" lon="7.34569">
        <ele>217.4</ele>
        <time>2026-03-12T14:27:16Z</time>
      </trkpt>
      <trkpt lat="48.7452" lon="7.34569">
        <ele>217.4</ele>
        <time>2026-03-12T14:27:21Z</time>
      </trkpt>
      <trkpt lat="48.7452" lon="7.34569">
        <ele>217.4</ele>
        <time>2026-03-12T14:27:26Z</time>
      </trkpt>
      <trkpt lat="48.74522" lon="7.34575">
        <ele>215.9</ele>
        <time>2026-03-12T14:27:31Z</time>
      </trkpt>
      <trkpt lat="48.74523" lon="7.34586">
        <ele>213.8</ele>
        <time>2026-03-12T14:27:36Z</time>
      </trkpt>
      <trkpt lat="48.74524" lon="7.34597">
        <ele>213.1</ele>
        <time>2026-03-12T14:27:41Z</time>
      </trkpt>
      <trkpt lat="48.74525" lon="7.34608">
        <ele>212.4</ele>
        <time>2026-03-12T14:27:46Z</time>
      </trkpt>
      <trkpt lat="48.74525" lon="7.34621">
        <ele>211.5</ele>
        <time>2026-03-12T14:27:51Z</time>
      </trkpt>
      <trkpt lat="48.74525" lon="7.34634">
        <ele>210.7</ele>
        <time>2026-03-12T14:27:56Z</time>
      </trkpt>
      <trkpt lat="48.74525" lon="7.34647">
        <ele>209.8</ele>
        <time>2026-03-12T14:28:01Z</time>
      </trkpt>
      <trkpt lat="48.74524" lon="7.34658">
        <ele>209</ele>
        <time>2026-03-12T14:28:06Z</time>
      </trkpt>
      <trkpt lat="48.74523" lon="7.34667">
        <ele>208.4</ele>
        <time>2026-03-12T14:28:11Z</time>
      </trkpt>
      <trkpt lat="48.74523" lon="7.34677">
        <ele>208.1</ele>
        <time>2026-03-12T14:28:16Z</time>
      </trkpt>
      <trkpt lat="48.74523" lon="7.34687">
        <ele>207.8</ele>
        <time>2026-03-12T14:28:21Z</time>
      </trkpt>
      <trkpt lat="48.74523" lon="7.34697">
        <ele>207.6</ele>
        <time>2026-03-12T14:28:26Z</time>
      </trkpt>
      <trkpt lat="48.74523" lon="7.34707">
        <ele>207.3</ele>
        <time>2026-03-12T14:28:31Z</time>
      </trkpt>
      <trkpt lat="48.74522" lon="7.34718">
        <ele>206.9</ele>
        <time>2026-03-12T14:28:36Z</time>
      </trkpt>
      <trkpt lat="48.74522" lon="7.34728">
        <ele>206.7</ele>
        <time>2026-03-12T14:28:41Z</time>
      </trkpt>
      <trkpt lat="48.7452" lon="7.34738">
        <ele>206.3</ele>
        <time>2026-03-12T14:28:46Z</time>
      </trkpt>
      <trkpt lat="48.7452" lon="7.34747">
        <ele>206</ele>
        <time>2026-03-12T14:28:51Z</time>
      </trkpt>
      <trkpt lat="48.7452" lon="7.34757">
        <ele>205.5</ele>
        <time>2026-03-12T14:28:56Z</time>
      </trkpt>
      <trkpt lat="48.74521" lon="7.34769">
        <ele>204.8</ele>
        <time>2026-03-12T14:29:01Z</time>
      </trkpt>
      <trkpt lat="48.74522" lon="7.34777">
        <ele>204.4</ele>
        <time>2026-03-12T14:29:06Z</time>
      </trkpt>
      <trkpt lat="48.74521" lon="7.3479">
        <ele>203.5</ele>
        <time>2026-03-12T14:29:11Z</time>
      </trkpt>
      <trkpt lat="48.7452" lon="7.34802">
        <ele>202.7</ele>
        <time>2026-03-12T14:29:16Z</time>
      </trkpt>
      <trkpt lat="48.74519" lon="7.34813">
        <ele>202</ele>
        <time>2026-03-12T14:29:21Z</time>
      </trkpt>
      <trkpt lat="48.74518" lon="7.34823">
        <ele>201.3</ele>
        <time>2026-03-12T14:29:26Z</time>
      </trkpt>
      <trkpt lat="48.74518" lon="7.34833">
        <ele>200.7</ele>
        <time>2026-03-12T14:29:31Z</time>
      </trkpt>
      <trkpt lat="48.74518" lon="7.34842">
        <ele>200</ele>
        <time>2026-03-12T14:29:36Z</time>
      </trkpt>
      <trkpt lat="48.74516" lon="7.34851">
        <ele>199.2</ele>
        <time>2026-03-12T14:29:41Z</time>
      </trkpt>
      <trkpt lat="48.74516" lon="7.34862">
        <ele>198.4</ele>
        <time>2026-03-12T14:29:46Z</time>
      </trkpt>
      <trkpt lat="48.74517" lon="7.34871">
        <ele>197.7</ele>
        <time>2026-03-12T14:29:51Z</time>
      </trkpt>
      <trkpt lat="48.74517" lon="7.34881">
        <ele>197</ele>
        <time>2026-03-12T14:29:56Z</time>
      </trkpt>
      <trkpt lat="48.74519" lon="7.34885">
        <ele>196.8</ele>
        <time>2026-03-12T14:30:01Z</time>
      </trkpt>
      <trkpt lat="48.74517" lon="7.34891">
        <ele>196.2</ele>
        <time>2026-03-12T14:30:06Z</time>
      </trkpt>
      <trkpt lat="48.74516" lon="7.349">
        <ele>195.4</ele>
        <time>2026-03-12T14:30:11Z</time>
      </trkpt>
      <trkpt lat="48.74516" lon="7.34909">
        <ele>194.7</ele>
        <time>2026-03-12T14:30:16Z</time>
      </trkpt>
      <trkpt lat="48.74515" lon="7.3492">
        <ele>194</ele>
        <time>2026-03-12T14:30:21Z</time>
      </trkpt>
      <trkpt lat="48.74515" lon="7.34928">
        <ele>193.7</ele>
        <time>2026-03-12T14:30:26Z</time>
      </trkpt>
      <trkpt lat="48.74516" lon="7.3494">
        <ele>193.3</ele>
        <time>2026-03-12T14:30:31Z</time>
      </trkpt>
      <trkpt lat="48.74515" lon="7.34949">
        <ele>192.9</ele>
        <time>2026-03-12T14:30:36Z</time>
      </trkpt>
      <trkpt lat="48.74516" lon="7.34959">
        <ele>192.6</ele>
        <time>2026-03-12T14:30:41Z</time>
      </trkpt>
      <trkpt lat="48.74514" lon="7.34967">
        <ele>192.2</ele>
        <time>2026-03-12T14:30:46Z</time>
      </trkpt>
      <trkpt lat="48.74513" lon="7.34977">
        <ele>191.8</ele>
        <time>2026-03-12T14:30:51Z</time>
      </trkpt>
      <trkpt lat="48.74513" lon="7.34989">
        <ele>191.3</ele>
        <time>2026-03-12T14:30:56Z</time>
      </trkpt>
      <trkpt lat="48.74512" lon="7.35002">
        <ele>190.9</ele>
        <time>2026-03-12T14:31:01Z</time>
      </trkpt>
      <trkpt lat="48.74511" lon="7.35014">
        <ele>190.7</ele>
        <time>2026-03-12T14:31:06Z</time>
      </trkpt>
      <trkpt lat="48.74512" lon="7.35027">
        <ele>190.7</ele>
        <time>2026-03-12T14:31:11Z</time>
      </trkpt>
      <trkpt lat="48.74515" lon="7.35039">
        <ele>190.8</ele>
        <time>2026-03-12T14:31:16Z</time>
      </trkpt>
      <trkpt lat="48.74519" lon="7.35048">
        <ele>191</ele>
        <time>2026-03-12T14:31:21Z</time>
      </trkpt>
      <trkpt lat="48.74522" lon="7.35057">
        <ele>191</ele>
        <time>2026-03-12T14:31:26Z</time>
      </trkpt>
      <trkpt lat="48.74526" lon="7.35063">
        <ele>191.2</ele>
        <time>2026-03-12T14:31:31Z</time>
      </trkpt>
      <trkpt lat="48.7453" lon="7.3507">
        <ele>191.3</ele>
        <time>2026-03-12T14:31:36Z</time>
      </trkpt>
      <trkpt lat="48.74532" lon="7.35083">
        <ele>191.2</ele>
        <time>2026-03-12T14:31:41Z</time>
      </trkpt>
      <trkpt lat="48.74536" lon="7.35093">
        <ele>191.4</ele>
        <time>2026-03-12T14:31:46Z</time>
      </trkpt>
      <trkpt lat="48.74539" lon="7.35103">
        <ele>191.7</ele>
        <time>2026-03-12T14:31:51Z</time>
      </trkpt>
      <trkpt lat="48.74541" lon="7.35113">
        <ele>191.8</ele>
        <time>2026-03-12T14:31:56Z</time>
      </trkpt>
      <trkpt lat="48.74541" lon="7.35125">
        <ele>192</ele>
        <time>2026-03-12T14:32:01Z</time>
      </trkpt>
      <trkpt lat="48.74544" lon="7.35139">
        <ele>192.2</ele>
        <time>2026-03-12T14:32:06Z</time>
      </trkpt>
      <trkpt lat="48.74548" lon="7.3515">
        <ele>192.4</ele>
        <time>2026-03-12T14:32:11Z</time>
      </trkpt>
      <trkpt lat="48.74554" lon="7.35162">
        <ele>192.6</ele>
        <time>2026-03-12T14:32:16Z</time>
      </trkpt>
      <trkpt lat="48.74556" lon="7.35169">
        <ele>192.6</ele>
        <time>2026-03-12T14:32:21Z</time>
      </trkpt>
      <trkpt lat="48.74561" lon="7.35173">
        <ele>192.6</ele>
        <time>2026-03-12T14:32:26Z</time>
      </trkpt>
      <trkpt lat="48.74569" lon="7.35181">
        <ele>192.6</ele>
        <time>2026-03-12T14:32:31Z</time>
      </trkpt>
      <trkpt lat="48.74572" lon="7.35187">
        <ele>192.6</ele>
        <time>2026-03-12T14:32:36Z</time>
      </trkpt>
      <trkpt lat="48.74576" lon="7.35194">
        <ele>192.6</ele>
        <time>2026-03-12T14:32:41Z</time>
      </trkpt>
      <trkpt lat="48.74581" lon="7.35202">
        <ele>192.5</ele>
        <time>2026-03-12T14:32:46Z</time>
      </trkpt>
      <trkpt lat="48.74587" lon="7.35209">
        <ele>192.7</ele>
        <time>2026-03-12T14:32:51Z</time>
      </trkpt>
      <trkpt lat="48.74591" lon="7.35215">
        <ele>192.9</ele>
        <time>2026-03-12T14:32:56Z</time>
      </trkpt>
      <trkpt lat="48.74595" lon="7.35224">
        <ele>193</ele>
        <time>2026-03-12T14:33:01Z</time>
      </trkpt>
      <trkpt lat="48.74599" lon="7.3523">
        <ele>193.2</ele>
        <time>2026-03-12T14:33:06Z</time>
      </trkpt>
      <trkpt lat="48.74603" lon="7.35239">
        <ele>193.3</ele>
        <time>2026-03-12T14:33:11Z</time>
      </trkpt>
      <trkpt lat="48.74607" lon="7.35249">
        <ele>193.4</ele>
        <time>2026-03-12T14:33:16Z</time>
      </trkpt>
      <trkpt lat="48.74611" lon="7.35257">
        <ele>193.6</ele>
        <time>2026-03-12T14:33:21Z</time>
      </trkpt>
      <trkpt lat="48.74614" lon="7.35266">
        <ele>193.7</ele>
        <time>2026-03-12T14:33:26Z</time>
      </trkpt>
      <trkpt lat="48.74616" lon="7.35277">
        <ele>193.7</ele>
        <time>2026-03-12T14:33:31Z</time>
      </trkpt>
      <trkpt lat="48.74616" lon="7.3529">
        <ele>193.6</ele>
        <time>2026-03-12T14:33:36Z</time>
      </trkpt>
      <trkpt lat="48.74616" lon="7.35302">
        <ele>193.4</ele>
        <time>2026-03-12T14:33:41Z</time>
      </trkpt>
      <trkpt lat="48.74612" lon="7.3531">
        <ele>193</ele>
        <time>2026-03-12T14:33:46Z</time>
      </trkpt>
      <trkpt lat="48.74609" lon="7.3532">
        <ele>192.6</ele>
        <time>2026-03-12T14:33:51Z</time>
      </trkpt>
      <trkpt lat="48.74607" lon="7.3533">
        <ele>192.3</ele>
        <time>2026-03-12T14:33:56Z</time>
      </trkpt>
      <trkpt lat="48.74602" lon="7.35337">
        <ele>191.7</ele>
        <time>2026-03-12T14:34:01Z</time>
      </trkpt>
      <trkpt lat="48.746" lon="7.35347">
        <ele>191.4</ele>
        <time>2026-03-12T14:34:06Z</time>
      </trkpt>
      <trkpt lat="48.74599" lon="7.35356">
        <ele>191.2</ele>
        <time>2026-03-12T14:34:11Z</time>
      </trkpt>
      <trkpt lat="48.74599" lon="7.35364">
        <ele>191.1</ele>
        <time>2026-03-12T14:34:16Z</time>
      </trkpt>
      <trkpt lat="48.74597" lon="7.35375">
        <ele>190.7</ele>
        <time>2026-03-12T14:34:21Z</time>
      </trkpt>
      <trkpt lat="48.74596" lon="7.35382">
        <ele>190.5</ele>
        <time>2026-03-12T14:34:26Z</time>
      </trkpt>
      <trkpt lat="48.74593" lon="7.3539">
        <ele>190.2</ele>
        <time>2026-03-12T14:34:31Z</time>
      </trkpt>
      <trkpt lat="48.74591" lon="7.35404">
        <ele>189.8</ele>
        <time>2026-03-12T14:34:36Z</time>
      </trkpt>
      <trkpt lat="48.74589" lon="7.35414">
        <ele>189.5</ele>
        <time>2026-03-12T14:34:41Z</time>
      </trkpt>
      <trkpt lat="48.74586" lon="7.35425">
        <ele>189.2</ele>
        <time>2026-03-12T14:34:46Z</time>
      </trkpt>
      <trkpt lat="48.74589" lon="7.35432">
        <ele>189.5</ele>
        <time>2026-03-12T14:34:51Z</time>
      </trkpt>
      <trkpt lat="48.74587" lon="7.3544">
        <ele>189.3</ele>
        <time>2026-03-12T14:34:56Z</time>
      </trkpt>
      <trkpt lat="48.74583" lon="7.35453">
        <ele>189</ele>
        <time>2026-03-12T14:35:01Z</time>
      </trkpt>
      <trkpt lat="48.74584" lon="7.35466">
        <ele>189.1</ele>
        <time>2026-03-12T14:35:06Z</time>
      </trkpt>
      <trkpt lat="48.74581" lon="7.35475">
        <ele>188.9</ele>
        <time>2026-03-12T14:35:11Z</time>
      </trkpt>
      <trkpt lat="48.74577" lon="7.35485">
        <ele>188.8</ele>
        <time>2026-03-12T14:35:16Z</time>
      </trkpt>
      <trkpt lat="48.74573" lon="7.3549">
        <ele>188.8</ele>
        <time>2026-03-12T14:35:21Z</time>
      </trkpt>
      <trkpt lat="48.7457" lon="7.35497">
        <ele>188.7</ele>
        <time>2026-03-12T14:35:26Z</time>
      </trkpt>
      <trkpt lat="48.74567" lon="7.35514">
        <ele>189.1</ele>
        <time>2026-03-12T14:35:31Z</time>
      </trkpt>
      <trkpt lat="48.74566" lon="7.35524">
        <ele>189.4</ele>
        <time>2026-03-12T14:35:36Z</time>
      </trkpt>
      <trkpt lat="48.74566" lon="7.3553">
        <ele>189.6</ele>
        <time>2026-03-12T14:35:41Z</time>
      </trkpt>
      <trkpt lat="48.74564" lon="7.35538">
        <ele>189.8</ele>
        <time>2026-03-12T14:35:46Z</time>
      </trkpt>
      <trkpt lat="48.74562" lon="7.35549">
        <ele>190.1</ele>
        <time>2026-03-12T14:35:51Z</time>
      </trkpt>
      <trkpt lat="48.74558" lon="7.35553">
        <ele>190</ele>
        <time>2026-03-12T14:35:56Z</time>
      </trkpt>
      <trkpt lat="48.74554" lon="7.35556">
        <ele>189.8</ele>
        <time>2026-03-12T14:36:01Z</time>
      </trkpt>
      <trkpt lat="48.74548" lon="7.35557">
        <ele>189.4</ele>
        <time>2026-03-12T14:36:06Z</time>
      </trkpt>
      <trkpt lat="48.7454" lon="7.3556">
        <ele>189</ele>
        <time>2026-03-12T14:36:11Z</time>
      </trkpt>
      <trkpt lat="48.74534" lon="7.35558">
        <ele>188.5</ele>
        <time>2026-03-12T14:36:16Z</time>
      </trkpt>
      <trkpt lat="48.7453" lon="7.35558">
        <ele>188.3</ele>
        <time>2026-03-12T14:36:21Z</time>
      </trkpt>
      <trkpt lat="48.74523" lon="7.3556">
        <ele>187.8</ele>
        <time>2026-03-12T14:36:26Z</time>
      </trkpt>
      <trkpt lat="48.74518" lon="7.35564">
        <ele>187.5</ele>
        <time>2026-03-12T14:36:31Z</time>
      </trkpt>
      <trkpt lat="48.74516" lon="7.35568">
        <ele>187.4</ele>
        <time>2026-03-12T14:36:36Z</time>
      </trkpt>
      <trkpt lat="48.7451" lon="7.35576">
        <ele>186.9</ele>
        <time>2026-03-12T14:36:41Z</time>
      </trkpt>
      <trkpt lat="48.74504" lon="7.35581">
        <ele>186.4</ele>
        <time>2026-03-12T14:36:46Z</time>
      </trkpt>
      <trkpt lat="48.74498" lon="7.35582">
        <ele>186</ele>
        <time>2026-03-12T14:36:51Z</time>
      </trkpt>
      <trkpt lat="48.7449" lon="7.35586">
        <ele>185.8</ele>
        <time>2026-03-12T14:36:56Z</time>
      </trkpt>
      <trkpt lat="48.7448" lon="7.35589">
        <ele>185.6</ele>
        <time>2026-03-12T14:37:01Z</time>
      </trkpt>
      <trkpt lat="48.74474" lon="7.35592">
        <ele>185.4</ele>
        <time>2026-03-12T14:37:06Z</time>
      </trkpt>
      <trkpt lat="48.74467" lon="7.35596">
        <ele>185.2</ele>
        <time>2026-03-12T14:37:11Z</time>
      </trkpt>
      <trkpt lat="48.74462" lon="7.35598">
        <ele>185.1</ele>
        <time>2026-03-12T14:37:16Z</time>
      </trkpt>
      <trkpt lat="48.74457" lon="7.35599">
        <ele>185</ele>
        <time>2026-03-12T14:37:21Z</time>
      </trkpt>
      <trkpt lat="48.74452" lon="7.356">
        <ele>184.8</ele>
        <time>2026-03-12T14:37:26Z</time>
      </trkpt>
      <trkpt lat="48.74446" lon="7.35603">
        <ele>184.6</ele>
        <time>2026-03-12T14:37:31Z</time>
      </trkpt>
      <trkpt lat="48.7444" lon="7.35605">
        <ele>184.4</ele>
        <time>2026-03-12T14:37:36Z</time>
      </trkpt>
      <trkpt lat="48.74433" lon="7.3561">
        <ele>184.2</ele>
        <time>2026-03-12T14:37:41Z</time>
      </trkpt>
      <trkpt lat="48.74427" lon="7.35617">
        <ele>183.9</ele>
        <time>2026-03-12T14:37:46Z</time>
      </trkpt>
      <trkpt lat="48.74421" lon="7.35623">
        <ele>183.7</ele>
        <time>2026-03-12T14:37:51Z</time>
      </trkpt>
      <trkpt lat="48.74415" lon="7.35629">
        <ele>183.5</ele>
        <time>2026-03-12T14:37:56Z</time>
      </trkpt>
      <trkpt lat="48.74408" lon="7.35634">
        <ele>183.6</ele>
        <time>2026-03-12T14:38:01Z</time>
      </trkpt>
      <trkpt lat="48.74402" lon="7.3564">
        <ele>183.7</ele>
        <time>2026-03-12T14:38:06Z</time>
      </trkpt>
      <trkpt lat="48.74398" lon="7.35645">
        <ele>183.8</ele>
        <time>2026-03-12T14:38:11Z</time>
      </trkpt>
      <trkpt lat="48.74394" lon="7.35648">
        <ele>183.8</ele>
        <time>2026-03-12T14:38:16Z</time>
      </trkpt>
      <trkpt lat="48.74393" lon="7.35649">
        <ele>183.8</ele>
        <time>2026-03-12T14:38:21Z</time>
      </trkpt>
      <trkpt lat="48.74393" lon="7.35649">
        <ele>183.8</ele>
        <time>2026-03-12T14:38:26Z</time>
      </trkpt>
      <trkpt lat="48.74388" lon="7.35655">
        <ele>183.9</ele>
        <time>2026-03-12T14:38:31Z</time>
      </trkpt>
      <trkpt lat="48.74386" lon="7.35658">
        <ele>183.9</ele>
        <time>2026-03-12T14:38:36Z</time>
      </trkpt>
      <trkpt lat="48.74385" lon="7.35658">
        <ele>183.9</ele>
        <time>2026-03-12T14:38:41Z</time>
      </trkpt>
      <trkpt lat="48.74382" lon="7.35659">
        <ele>184</ele>
        <time>2026-03-12T14:38:46Z</time>
      </trkpt>
      <trkpt lat="48.74376" lon="7.35664">
        <ele>184</ele>
        <time>2026-03-12T14:38:51Z</time>
      </trkpt>
      <trkpt lat="48.74372" lon="7.35669">
        <ele>184.1</ele>
        <time>2026-03-12T14:38:56Z</time>
      </trkpt>
      <trkpt lat="48.74372" lon="7.35669">
        <ele>184.1</ele>
        <time>2026-03-12T14:39:01Z</time>
      </trkpt>
      <trkpt lat="48.74368" lon="7.35672">
        <ele>184.2</ele>
        <time>2026-03-12T14:39:06Z</time>
      </trkpt>
      <trkpt lat="48.74365" lon="7.35675">
        <ele>184.3</ele>
        <time>2026-03-12T14:39:11Z</time>
      </trkpt>
      <trkpt lat="48.74362" lon="7.35677">
        <ele>184.4</ele>
        <time>2026-03-12T14:39:16Z</time>
      </trkpt>
      <trkpt lat="48.74358" lon="7.3568">
        <ele>184.5</ele>
        <time>2026-03-12T14:39:21Z</time>
      </trkpt>
      <trkpt lat="48.74359" lon="7.35687">
        <ele>184.5</ele>
        <time>2026-03-12T14:39:26Z</time>
      </trkpt>
      <trkpt lat="48.74363" lon="7.35696">
        <ele>184.5</ele>
        <time>2026-03-12T14:39:31Z</time>
      </trkpt>
      <trkpt lat="48.74368" lon="7.35703">
        <ele>184.5</ele>
        <time>2026-03-12T14:39:36Z</time>
      </trkpt>
      <trkpt lat="48.74369" lon="7.35713">
        <ele>184.6</ele>
        <time>2026-03-12T14:39:41Z</time>
      </trkpt>
      <trkpt lat="48.74369" lon="7.35725">
        <ele>184.7</ele>
        <time>2026-03-12T14:39:46Z</time>
      </trkpt>
      <trkpt lat="48.74369" lon="7.35736">
        <ele>184.9</ele>
        <time>2026-03-12T14:39:51Z</time>
      </trkpt>
      <trkpt lat="48.74368" lon="7.35748">
        <ele>185</ele>
        <time>2026-03-12T14:39:56Z</time>
      </trkpt>
      <trkpt lat="48.74368" lon="7.35758">
        <ele>185.2</ele>
        <time>2026-03-12T14:40:01Z</time>
      </trkpt>
      <trkpt lat="48.74368" lon="7.35768">
        <ele>185.5</ele>
        <time>2026-03-12T14:40:06Z</time>
      </trkpt>
      <trkpt lat="48.74368" lon="7.35775">
        <ele>185.7</ele>
        <time>2026-03-12T14:40:11Z</time>
      </trkpt>
      <trkpt lat="48.74368" lon="7.35783">
        <ele>185.9</ele>
        <time>2026-03-12T14:40:16Z</time>
      </trkpt>
      <trkpt lat="48.74369" lon="7.35787">
        <ele>186</ele>
        <time>2026-03-12T14:40:21Z</time>
      </trkpt>
      <trkpt lat="48.7437" lon="7.35791">
        <ele>186</ele>
        <time>2026-03-12T14:40:26Z</time>
      </trkpt>
      <trkpt lat="48.74368" lon="7.35801">
        <ele>186.3</ele>
        <time>2026-03-12T14:40:31Z</time>
      </trkpt>
      <trkpt lat="48.74367" lon="7.3581">
        <ele>186.6</ele>
        <time>2026-03-12T14:40:36Z</time>
      </trkpt>
      <trkpt lat="48.74366" lon="7.35819">
        <ele>186.8</ele>
        <time>2026-03-12T14:40:41Z</time>
      </trkpt>
      <trkpt lat="48.74366" lon="7.35827">
        <ele>187</ele>
        <time>2026-03-12T14:40:46Z</time>
      </trkpt>
      <trkpt lat="48.74365" lon="7.35836">
        <ele>187.3</ele>
        <time>2026-03-12T14:40:51Z</time>
      </trkpt>
      <trkpt lat="48.74369" lon="7.3585">
        <ele>187.7</ele>
        <time>2026-03-12T14:40:56Z</time>
      </trkpt>
      <trkpt lat="48.7437" lon="7.35858">
        <ele>187.9</ele>
        <time>2026-03-12T14:41:01Z</time>
      </trkpt>
      <trkpt lat="48.7437" lon="7.35863">
        <ele>188</ele>
        <time>2026-03-12T14:41:06Z</time>
      </trkpt>
      <trkpt lat="48.74372" lon="7.35874">
        <ele>188.3</ele>
        <time>2026-03-12T14:41:11Z</time>
      </trkpt>
      <trkpt lat="48.74372" lon="7.35881">
        <ele>188.5</ele>
        <time>2026-03-12T14:41:16Z</time>
      </trkpt>
      <trkpt lat="48.74372" lon="7.35882">
        <ele>188.6</ele>
        <time>2026-03-12T14:41:21Z</time>
      </trkpt>
      <trkpt lat="48.74372" lon="7.35883">
        <ele>188.6</ele>
        <time>2026-03-12T14:41:26Z</time>
      </trkpt>
      <trkpt lat="48.74372" lon="7.35883">
        <ele>188.6</ele>
        <time>2026-03-12T14:41:31Z</time>
      </trkpt>
      <trkpt lat="48.74372" lon="7.35883">
        <ele>188.6</ele>
        <time>2026-03-12T14:41:36Z</time>
      </trkpt>
      <trkpt lat="48.74364" lon="7.35881">
        <ele>188.8</ele>
        <time>2026-03-12T14:41:41Z</time>
      </trkpt>
      <trkpt lat="48.7436" lon="7.35882">
        <ele>188.9</ele>
        <time>2026-03-12T14:41:46Z</time>
      </trkpt>
      <trkpt lat="48.74353" lon="7.35885">
        <ele>189.2</ele>
        <time>2026-03-12T14:41:51Z</time>
      </trkpt>
      <trkpt lat="48.74347" lon="7.35888">
        <ele>189.5</ele>
        <time>2026-03-12T14:41:56Z</time>
      </trkpt>
      <trkpt lat="48.74341" lon="7.35895">
        <ele>190</ele>
        <time>2026-03-12T14:42:01Z</time>
      </trkpt>
      <trkpt lat="48.74336" lon="7.35901">
        <ele>190.3</ele>
        <time>2026-03-12T14:42:06Z</time>
      </trkpt>
      <trkpt lat="48.74329" lon="7.35909">
        <ele>190.8</ele>
        <time>2026-03-12T14:42:11Z</time>
      </trkpt>
      <trkpt lat="48.74324" lon="7.35916">
        <ele>191.2</ele>
        <time>2026-03-12T14:42:16Z</time>
      </trkpt>
      <trkpt lat="48.74323" lon="7.35917">
        <ele>191.3</ele>
        <time>2026-03-12T14:42:21Z</time>
      </trkpt>
      <trkpt lat="48.7432" lon="7.35917">
        <ele>191.3</ele>
        <time>2026-03-12T14:42:26Z</time>
      </trkpt>
      <trkpt lat="48.74319" lon="7.35918">
        <ele>191.4</ele>
        <time>2026-03-12T14:42:31Z</time>
      </trkpt>
      <trkpt lat="48.74319" lon="7.35918">
        <ele>191.4</ele>
        <time>2026-03-12T14:42:36Z</time>
      </trkpt>
      <trkpt lat="48.74319" lon="7.35918">
        <ele>191.4</ele>
        <time>2026-03-12T14:42:41Z</time>
      </trkpt>
      <trkpt lat="48.74319" lon="7.35918">
        <ele>191.4</ele>
        <time>2026-03-12T14:42:46Z</time>
      </trkpt>
      <trkpt lat="48.74319" lon="7.35918">
        <ele>191.4</ele>
        <time>2026-03-12T14:42:51Z</time>
      </trkpt>
      <trkpt lat="48.74319" lon="7.35918">
        <ele>191.4</ele>
        <time>2026-03-12T14:42:56Z</time>
      </trkpt>
      <trkpt lat="48.74319" lon="7.35918">
        <ele>191.4</ele>
        <time>2026-03-12T14:43:01Z</time>
      </trkpt>
      <trkpt lat="48.74319" lon="7.35918">
        <ele>191.4</ele>
        <time>2026-03-12T14:43:06Z</time>
      </trkpt>
      <trkpt lat="48.74319" lon="7.35918">
        <ele>191.4</ele>
        <time>2026-03-12T14:43:11Z</time>
      </trkpt>
      <trkpt lat="48.74319" lon="7.35918">
        <ele>191.4</ele>
        <time>2026-03-12T14:43:16Z</time>
      </trkpt>
      <trkpt lat="48.74319" lon="7.35918">
        <ele>191.4</ele>
        <time>2026-03-12T14:43:21Z</time>
      </trkpt>
      <trkpt lat="48.74319" lon="7.35918">
        <ele>191.4</ele>
        <time>2026-03-12T14:43:26Z</time>
      </trkpt>
      <trkpt lat="48.74319" lon="7.35918">
        <ele>191.4</ele>
        <time>2026-03-12T14:43:31Z</time>
      </trkpt>
      <trkpt lat="48.74319" lon="7.35918">
        <ele>191.4</ele>
        <time>2026-03-12T14:43:36Z</time>
      </trkpt>
      <trkpt lat="48.74319" lon="7.35918">
        <ele>191.4</ele>
        <time>2026-03-12T14:43:41Z</time>
      </trkpt>
      <trkpt lat="48.7432" lon="7.35924">
        <ele>191.5</ele>
        <time>2026-03-12T14:43:46Z</time>
      </trkpt>
      <trkpt lat="48.74318" lon="7.3593">
        <ele>191.7</ele>
        <time>2026-03-12T14:43:51Z</time>
      </trkpt>
      <trkpt lat="48.74315" lon="7.35936">
        <ele>191.9</ele>
        <time>2026-03-12T14:43:56Z</time>
      </trkpt>
      <trkpt lat="48.74312" lon="7.35942">
        <ele>192</ele>
        <time>2026-03-12T14:44:01Z</time>
      </trkpt>
      <trkpt lat="48.74308" lon="7.35947">
        <ele>192.2</ele>
        <time>2026-03-12T14:44:06Z</time>
      </trkpt>
      <trkpt lat="48.74303" lon="7.35954">
        <ele>192.5</ele>
        <time>2026-03-12T14:44:11Z</time>
      </trkpt>
      <trkpt lat="48.743" lon="7.35962">
        <ele>192.7</ele>
        <time>2026-03-12T14:44:16Z</time>
      </trkpt>
      <trkpt lat="48.74295" lon="7.3597">
        <ele>192.9</ele>
        <time>2026-03-12T14:44:21Z</time>
      </trkpt>
      <trkpt lat="48.7429" lon="7.35974">
        <ele>193.1</ele>
        <time>2026-03-12T14:44:26Z</time>
      </trkpt>
      <trkpt lat="48.74291" lon="7.35988">
        <ele>193.3</ele>
        <time>2026-03-12T14:44:31Z</time>
      </trkpt>
      <trkpt lat="48.74286" lon="7.35997">
        <ele>193.5</ele>
        <time>2026-03-12T14:44:36Z</time>
      </trkpt>
      <trkpt lat="48.74282" lon="7.36002">
        <ele>193.7</ele>
        <time>2026-03-12T14:44:41Z</time>
      </trkpt>
      <trkpt lat="48.74277" lon="7.36004">
        <ele>193.8</ele>
        <time>2026-03-12T14:44:46Z</time>
      </trkpt>
      <trkpt lat="48.74273" lon="7.36007">
        <ele>193.9</ele>
        <time>2026-03-12T14:44:51Z</time>
      </trkpt>
      <trkpt lat="48.74267" lon="7.36012">
        <ele>194.3</ele>
        <time>2026-03-12T14:44:56Z</time>
      </trkpt>
      <trkpt lat="48.74263" lon="7.36017">
        <ele>194.6</ele>
        <time>2026-03-12T14:45:01Z</time>
      </trkpt>
      <trkpt lat="48.74257" lon="7.36023">
        <ele>195.1</ele>
        <time>2026-03-12T14:45:06Z</time>
      </trkpt>
      <trkpt lat="48.74253" lon="7.3603">
        <ele>195.6</ele>
        <time>2026-03-12T14:45:11Z</time>
      </trkpt>
      <trkpt lat="48.74251" lon="7.36035">
        <ele>196</ele>
        <time>2026-03-12T14:45:16Z</time>
      </trkpt>
      <trkpt lat="48.74245" lon="7.36045">
        <ele>197.2</ele>
        <time>2026-03-12T14:45:21Z</time>
      </trkpt>
      <trkpt lat="48.74242" lon="7.36051">
        <ele>197.8</ele>
        <time>2026-03-12T14:45:26Z</time>
      </trkpt>
      <trkpt lat="48.74247" lon="7.3606">
        <ele>197.9</ele>
        <time>2026-03-12T14:45:31Z</time>
      </trkpt>
      <trkpt lat="48.74249" lon="7.36063">
        <ele>197.9</ele>
        <time>2026-03-12T14:45:36Z</time>
      </trkpt>
      <trkpt lat="48.74249" lon="7.36063">
        <ele>197.9</ele>
        <time>2026-03-12T14:45:41Z</time>
      </trkpt>
      <trkpt lat="48.74247" lon="7.36067">
        <ele>198.3</ele>
        <time>2026-03-12T14:45:46Z</time>
      </trkpt>
      <trkpt lat="48.74241" lon="7.36068">
        <ele>198.9</ele>
        <time>2026-03-12T14:45:51Z</time>
      </trkpt>
      <trkpt lat="48.74237" lon="7.36072">
        <ele>199.6</ele>
        <time>2026-03-12T14:45:56Z</time>
      </trkpt>
      <trkpt lat="48.74234" lon="7.36078">
        <ele>200.2</ele>
        <time>2026-03-12T14:46:01Z</time>
      </trkpt>
      <trkpt lat="48.7423" lon="7.36084">
        <ele>200.9</ele>
        <time>2026-03-12T14:46:06Z</time>
      </trkpt>
      <trkpt lat="48.74225" lon="7.3609">
        <ele>201.6</ele>
        <time>2026-03-12T14:46:11Z</time>
      </trkpt>
      <trkpt lat="48.7422" lon="7.36097">
        <ele>202.3</ele>
        <time>2026-03-12T14:46:16Z</time>
      </trkpt>
      <trkpt lat="48.74217" lon="7.36105">
        <ele>202.8</ele>
        <time>2026-03-12T14:46:21Z</time>
      </trkpt>
      <trkpt lat="48.74214" lon="7.3611">
        <ele>203.3</ele>
        <time>2026-03-12T14:46:26Z</time>
      </trkpt>
      <trkpt lat="48.74211" lon="7.36117">
        <ele>203.8</ele>
        <time>2026-03-12T14:46:31Z</time>
      </trkpt>
      <trkpt lat="48.74209" lon="7.3612">
        <ele>204</ele>
        <time>2026-03-12T14:46:36Z</time>
      </trkpt>
      <trkpt lat="48.74205" lon="7.36126">
        <ele>204.6</ele>
        <time>2026-03-12T14:46:41Z</time>
      </trkpt>
      <trkpt lat="48.74201" lon="7.36131">
        <ele>205.1</ele>
        <time>2026-03-12T14:46:46Z</time>
      </trkpt>
      <trkpt lat="48.74197" lon="7.36135">
        <ele>205.6</ele>
        <time>2026-03-12T14:46:51Z</time>
      </trkpt>
      <trkpt lat="48.74194" lon="7.36139">
        <ele>205.9</ele>
        <time>2026-03-12T14:46:56Z</time>
      </trkpt>
      <trkpt lat="48.7419" lon="7.36144">
        <ele>206.4</ele>
        <time>2026-03-12T14:47:01Z</time>
      </trkpt>
      <trkpt lat="48.74186" lon="7.36148">
        <ele>206.9</ele>
        <time>2026-03-12T14:47:06Z</time>
      </trkpt>
      <trkpt lat="48.74182" lon="7.36157">
        <ele>207.5</ele>
        <time>2026-03-12T14:47:11Z</time>
      </trkpt>
      <trkpt lat="48.74179" lon="7.36165">
        <ele>207.9</ele>
        <time>2026-03-12T14:47:16Z</time>
      </trkpt>
      <trkpt lat="48.74177" lon="7.36171">
        <ele>208.1</ele>
        <time>2026-03-12T14:47:21Z</time>
      </trkpt>
      <trkpt lat="48.74174" lon="7.36178">
        <ele>208.2</ele>
        <time>2026-03-12T14:47:26Z</time>
      </trkpt>
      <trkpt lat="48.74173" lon="7.36188">
        <ele>208.2</ele>
        <time>2026-03-12T14:47:31Z</time>
      </trkpt>
      <trkpt lat="48.74173" lon="7.36196">
        <ele>208.1</ele>
        <time>2026-03-12T14:47:36Z</time>
      </trkpt>
      <trkpt lat="48.74173" lon="7.36201">
        <ele>208</ele>
        <time>2026-03-12T14:47:41Z</time>
      </trkpt>
      <trkpt lat="48.74173" lon="7.36203">
        <ele>208</ele>
        <time>2026-03-12T14:47:46Z</time>
      </trkpt>
      <trkpt lat="48.74169" lon="7.36207">
        <ele>208.3</ele>
        <time>2026-03-12T14:47:51Z</time>
      </trkpt>
      <trkpt lat="48.74162" lon="7.3621">
        <ele>208.6</ele>
        <time>2026-03-12T14:47:56Z</time>
      </trkpt>
      <trkpt lat="48.74157" lon="7.36214">
        <ele>208.7</ele>
        <time>2026-03-12T14:48:01Z</time>
      </trkpt>
      <trkpt lat="48.74154" lon="7.36219">
        <ele>208.8</ele>
        <time>2026-03-12T14:48:06Z</time>
      </trkpt>
      <trkpt lat="48.74151" lon="7.36221">
        <ele>208.8</ele>
        <time>2026-03-12T14:48:11Z</time>
      </trkpt>
      <trkpt lat="48.74151" lon="7.36226">
        <ele>208.8</ele>
        <time>2026-03-12T14:48:16Z</time>
      </trkpt>
      <trkpt lat="48.74148" lon="7.36232">
        <ele>208.8</ele>
        <time>2026-03-12T14:48:21Z</time>
      </trkpt>
      <trkpt lat="48.74146" lon="7.36235">
        <ele>208.9</ele>
        <time>2026-03-12T14:48:26Z</time>
      </trkpt>
      <trkpt lat="48.74142" lon="7.3624">
        <ele>209</ele>
        <time>2026-03-12T14:48:31Z</time>
      </trkpt>
      <trkpt lat="48.74138" lon="7.36243">
        <ele>209.1</ele>
        <time>2026-03-12T14:48:36Z</time>
      </trkpt>
      <trkpt lat="48.74132" lon="7.36249">
        <ele>209.3</ele>
        <time>2026-03-12T14:48:41Z</time>
      </trkpt>
      <trkpt lat="48.74129" lon="7.36255">
        <ele>209.3</ele>
        <time>2026-03-12T14:48:46Z</time>
      </trkpt>
      <trkpt lat="48.74126" lon="7.36257">
        <ele>209.4</ele>
        <time>2026-03-12T14:48:51Z</time>
      </trkpt>
      <trkpt lat="48.74121" lon="7.36262">
        <ele>209.5</ele>
        <time>2026-03-12T14:48:56Z</time>
      </trkpt>
      <trkpt lat="48.74118" lon="7.36268">
        <ele>209.5</ele>
        <time>2026-03-12T14:49:01Z</time>
      </trkpt>
      <trkpt lat="48.74114" lon="7.36272">
        <ele>209.6</ele>
        <time>2026-03-12T14:49:06Z</time>
      </trkpt>
      <trkpt lat="48.74112" lon="7.36273">
        <ele>209.6</ele>
        <time>2026-03-12T14:49:11Z</time>
      </trkpt>
      <trkpt lat="48.74112" lon="7.36273">
        <ele>209.6</ele>
        <time>2026-03-12T14:49:16Z</time>
      </trkpt>
      <trkpt lat="48.74109" lon="7.36277">
        <ele>209.6</ele>
        <time>2026-03-12T14:49:21Z</time>
      </trkpt>
      <trkpt lat="48.74107" lon="7.36281">
        <ele>209.6</ele>
        <time>2026-03-12T14:49:26Z</time>
      </trkpt>
      <trkpt lat="48.74106" lon="7.36291">
        <ele>209.5</ele>
        <time>2026-03-12T14:49:31Z</time>
      </trkpt>
      <trkpt lat="48.74103" lon="7.36296">
        <ele>209.4</ele>
        <time>2026-03-12T14:49:36Z</time>
      </trkpt>
      <trkpt lat="48.74097" lon="7.36301">
        <ele>209.5</ele>
        <time>2026-03-12T14:49:41Z</time>
      </trkpt>
      <trkpt lat="48.74093" lon="7.36308">
        <ele>209.4</ele>
        <time>2026-03-12T14:49:46Z</time>
      </trkpt>
      <trkpt lat="48.74088" lon="7.36314">
        <ele>209.4</ele>
        <time>2026-03-12T14:49:51Z</time>
      </trkpt>
      <trkpt lat="48.74083" lon="7.3632">
        <ele>209.3</ele>
        <time>2026-03-12T14:49:56Z</time>
      </trkpt>
      <trkpt lat="48.74078" lon="7.36328">
        <ele>208.9</ele>
        <time>2026-03-12T14:50:01Z</time>
      </trkpt>
      <trkpt lat="48.74077" lon="7.36339">
        <ele>208.7</ele>
        <time>2026-03-12T14:50:06Z</time>
      </trkpt>
      <trkpt lat="48.74077" lon="7.36345">
        <ele>208.6</ele>
        <time>2026-03-12T14:50:11Z</time>
      </trkpt>
      <trkpt lat="48.74079" lon="7.36346">
        <ele>208.7</ele>
        <time>2026-03-12T14:50:16Z</time>
      </trkpt>
      <trkpt lat="48.74079" lon="7.36346">
        <ele>208.7</ele>
        <time>2026-03-12T14:50:21Z</time>
      </trkpt>
      <trkpt lat="48.74078" lon="7.36351">
        <ele>208.6</ele>
        <time>2026-03-12T14:50:26Z</time>
      </trkpt>
      <trkpt lat="48.74078" lon="7.36351">
        <ele>208.6</ele>
        <time>2026-03-12T14:50:31Z</time>
      </trkpt>
      <trkpt lat="48.74078" lon="7.36351">
        <ele>208.6</ele>
        <time>2026-03-12T14:50:36Z</time>
      </trkpt>
      <trkpt lat="48.74078" lon="7.36351">
        <ele>208.6</ele>
        <time>2026-03-12T14:50:41Z</time>
      </trkpt>
      <trkpt lat="48.74078" lon="7.36351">
        <ele>208.6</ele>
        <time>2026-03-12T14:50:46Z</time>
      </trkpt>
      <trkpt lat="48.74073" lon="7.36338">
        <ele>208.6</ele>
        <time>2026-03-12T14:50:51Z</time>
      </trkpt>
      <trkpt lat="48.74073" lon="7.36337">
        <ele>208.6</ele>
        <time>2026-03-12T14:50:56Z</time>
      </trkpt>
      <trkpt lat="48.74078" lon="7.36334">
        <ele>208.8</ele>
        <time>2026-03-12T14:51:01Z</time>
      </trkpt>
      <trkpt lat="48.74084" lon="7.36328">
        <ele>209.1</ele>
        <time>2026-03-12T14:51:06Z</time>
      </trkpt>
      <trkpt lat="48.74092" lon="7.36323">
        <ele>209.1</ele>
        <time>2026-03-12T14:51:11Z</time>
      </trkpt>
      <trkpt lat="48.74099" lon="7.3632">
        <ele>209.1</ele>
        <time>2026-03-12T14:51:16Z</time>
      </trkpt>
      <trkpt lat="48.74099" lon="7.3632">
        <ele>209.1</ele>
        <time>2026-03-12T14:51:21Z</time>
      </trkpt>
      <trkpt lat="48.74099" lon="7.3632">
        <ele>209.1</ele>
        <time>2026-03-12T14:51:26Z</time>
      </trkpt>
      <trkpt lat="48.74099" lon="7.3632">
        <ele>209.1</ele>
        <time>2026-03-12T14:51:31Z</time>
      </trkpt>
      <trkpt lat="48.74099" lon="7.3632">
        <ele>209.1</ele>
        <time>2026-03-12T14:51:36Z</time>
      </trkpt>
      <trkpt lat="48.74099" lon="7.3632">
        <ele>209.1</ele>
        <time>2026-03-12T14:51:41Z</time>
      </trkpt>
      <trkpt lat="48.74099" lon="7.3632">
        <ele>209.1</ele>
        <time>2026-03-12T14:51:46Z</time>
      </trkpt>
      <trkpt lat="48.74099" lon="7.3632">
        <ele>209.1</ele>
        <time>2026-03-12T14:51:51Z</time>
      </trkpt>
      <trkpt lat="48.74104" lon="7.36313">
        <ele>209.1</ele>
        <time>2026-03-12T14:51:56Z</time>
      </trkpt>
      <trkpt lat="48.74107" lon="7.36308">
        <ele>209.2</ele>
        <time>2026-03-12T14:52:01Z</time>
      </trkpt>
      <trkpt lat="48.74111" lon="7.36303">
        <ele>209.2</ele>
        <time>2026-03-12T14:52:06Z</time>
      </trkpt>
      <trkpt lat="48.74116" lon="7.36292">
        <ele>209.2</ele>
        <time>2026-03-12T14:52:11Z</time>
      </trkpt>
      <trkpt lat="48.74122" lon="7.36285">
        <ele>209.2</ele>
        <time>2026-03-12T14:52:16Z</time>
      </trkpt>
      <trkpt lat="48.74123" lon="7.36277">
        <ele>209.2</ele>
        <time>2026-03-12T14:52:21Z</time>
      </trkpt>
      <trkpt lat="48.74124" lon="7.36272">
        <ele>209.3</ele>
        <time>2026-03-12T14:52:26Z</time>
      </trkpt>
      <trkpt lat="48.74124" lon="7.36272">
        <ele>209.3</ele>
        <time>2026-03-12T14:52:31Z</time>
      </trkpt>
      <trkpt lat="48.74122" lon="7.36268">
        <ele>209.4</ele>
        <time>2026-03-12T14:52:36Z</time>
      </trkpt>
      <trkpt lat="48.74122" lon="7.3626">
        <ele>209.5</ele>
        <time>2026-03-12T14:52:41Z</time>
      </trkpt>
      <trkpt lat="48.74126" lon="7.3625">
        <ele>209.5</ele>
        <time>2026-03-12T14:52:46Z</time>
      </trkpt>
      <trkpt lat="48.74129" lon="7.36247">
        <ele>209.4</ele>
        <time>2026-03-12T14:52:51Z</time>
      </trkpt>
      <trkpt lat="48.74137" lon="7.36245">
        <ele>209.1</ele>
        <time>2026-03-12T14:52:56Z</time>
      </trkpt>
      <trkpt lat="48.74143" lon="7.3624">
        <ele>208.9</ele>
        <time>2026-03-12T14:53:01Z</time>
      </trkpt>
      <trkpt lat="48.74147" lon="7.3623">
        <ele>208.9</ele>
        <time>2026-03-12T14:53:06Z</time>
      </trkpt>
      <trkpt lat="48.74148" lon="7.3622">
        <ele>209</ele>
        <time>2026-03-12T14:53:11Z</time>
      </trkpt>
      <trkpt lat="48.74151" lon="7.36213">
        <ele>208.9</ele>
        <time>2026-03-12T14:53:16Z</time>
      </trkpt>
      <trkpt lat="48.74153" lon="7.36206">
        <ele>208.9</ele>
        <time>2026-03-12T14:53:21Z</time>
      </trkpt>
      <trkpt lat="48.74157" lon="7.362">
        <ele>208.9</ele>
        <time>2026-03-12T14:53:26Z</time>
      </trkpt>
      <trkpt lat="48.74159" lon="7.36195">
        <ele>208.9</ele>
        <time>2026-03-12T14:53:31Z</time>
      </trkpt>
      <trkpt lat="48.74162" lon="7.36191">
        <ele>208.8</ele>
        <time>2026-03-12T14:53:36Z</time>
      </trkpt>
      <trkpt lat="48.74161" lon="7.3619">
        <ele>208.9</ele>
        <time>2026-03-12T14:53:41Z</time>
      </trkpt>
      <trkpt lat="48.74158" lon="7.36187">
        <ele>209</ele>
        <time>2026-03-12T14:53:46Z</time>
      </trkpt>
      <trkpt lat="48.74153" lon="7.36183">
        <ele>209.2</ele>
        <time>2026-03-12T14:53:51Z</time>
      </trkpt>
      <trkpt lat="48.74148" lon="7.36177">
        <ele>209.4</ele>
        <time>2026-03-12T14:53:56Z</time>
      </trkpt>
      <trkpt lat="48.74144" lon="7.36176">
        <ele>209.5</ele>
        <time>2026-03-12T14:54:01Z</time>
      </trkpt>
      <trkpt lat="48.74144" lon="7.36171">
        <ele>209.5</ele>
        <time>2026-03-12T14:54:06Z</time>
      </trkpt>
      <trkpt lat="48.74143" lon="7.36165">
        <ele>209.5</ele>
        <time>2026-03-12T14:54:11Z</time>
      </trkpt>
      <trkpt lat="48.7414" lon="7.3616">
        <ele>209.5</ele>
        <time>2026-03-12T14:54:16Z</time>
      </trkpt>
      <trkpt lat="48.74136" lon="7.36151">
        <ele>209.5</ele>
        <time>2026-03-12T14:54:21Z</time>
      </trkpt>
      <trkpt lat="48.74131" lon="7.36146">
        <ele>209.6</ele>
        <time>2026-03-12T14:54:26Z</time>
      </trkpt>
      <trkpt lat="48.7413" lon="7.36134">
        <ele>209.4</ele>
        <time>2026-03-12T14:54:31Z</time>
      </trkpt>
      <trkpt lat="48.74126" lon="7.36129">
        <ele>209.5</ele>
        <time>2026-03-12T14:54:36Z</time>
      </trkpt>
      <trkpt lat="48.74118" lon="7.36131">
        <ele>209.8</ele>
        <time>2026-03-12T14:54:41Z</time>
      </trkpt>
      <trkpt lat="48.74116" lon="7.36128">
        <ele>209.9</ele>
        <time>2026-03-12T14:54:46Z</time>
      </trkpt>
      <trkpt lat="48.74117" lon="7.36126">
        <ele>209.8</ele>
        <time>2026-03-12T14:54:51Z</time>
      </trkpt>
      <trkpt lat="48.74117" lon="7.36126">
        <ele>209.8</ele>
        <time>2026-03-12T14:54:56Z</time>
      </trkpt>
      <trkpt lat="48.74117" lon="7.36126">
        <ele>209.8</ele>
        <time>2026-03-12T14:55:01Z</time>
      </trkpt>
      <trkpt lat="48.74113" lon="7.36117">
        <ele>209.9</ele>
        <time>2026-03-12T14:55:06Z</time>
      </trkpt>
      <trkpt lat="48.74108" lon="7.36114">
        <ele>210</ele>
        <time>2026-03-12T14:55:11Z</time>
      </trkpt>
      <trkpt lat="48.74102" lon="7.36113">
        <ele>210.3</ele>
        <time>2026-03-12T14:55:16Z</time>
      </trkpt>
      <trkpt lat="48.74099" lon="7.36107">
        <ele>210.4</ele>
        <time>2026-03-12T14:55:21Z</time>
      </trkpt>
      <trkpt lat="48.74095" lon="7.36099">
        <ele>210.5</ele>
        <time>2026-03-12T14:55:26Z</time>
      </trkpt>
      <trkpt lat="48.74088" lon="7.36092">
        <ele>210.8</ele>
        <time>2026-03-12T14:55:31Z</time>
      </trkpt>
      <trkpt lat="48.7408" lon="7.36088">
        <ele>211.2</ele>
        <time>2026-03-12T14:55:36Z</time>
      </trkpt>
      <trkpt lat="48.74072" lon="7.36083">
        <ele>211.7</ele>
        <time>2026-03-12T14:55:41Z</time>
      </trkpt>
      <trkpt lat="48.74066" lon="7.36075">
        <ele>211.9</ele>
        <time>2026-03-12T14:55:46Z</time>
      </trkpt>
      <trkpt lat="48.74063" lon="7.36065">
        <ele>211.9</ele>
        <time>2026-03-12T14:55:51Z</time>
      </trkpt>
      <trkpt lat="48.74062" lon="7.36053">
        <ele>211.7</ele>
        <time>2026-03-12T14:55:56Z</time>
      </trkpt>
      <trkpt lat="48.7406" lon="7.36042">
        <ele>211.7</ele>
        <time>2026-03-12T14:56:01Z</time>
      </trkpt>
      <trkpt lat="48.7406" lon="7.36032">
        <ele>211.5</ele>
        <time>2026-03-12T14:56:06Z</time>
      </trkpt>
      <trkpt lat="48.74058" lon="7.36032">
        <ele>211.7</ele>
        <time>2026-03-12T14:56:11Z</time>
      </trkpt>
      <trkpt lat="48.74054" lon="7.36037">
        <ele>212</ele>
        <time>2026-03-12T14:56:16Z</time>
      </trkpt>
      <trkpt lat="48.74048" lon="7.36036">
        <ele>212.5</ele>
        <time>2026-03-12T14:56:21Z</time>
      </trkpt>
      <trkpt lat="48.74043" lon="7.36038">
        <ele>212.9</ele>
        <time>2026-03-12T14:56:26Z</time>
      </trkpt>
      <trkpt lat="48.74037" lon="7.36042">
        <ele>213.3</ele>
        <time>2026-03-12T14:56:31Z</time>
      </trkpt>
      <trkpt lat="48.74032" lon="7.36047">
        <ele>213.7</ele>
        <time>2026-03-12T14:56:36Z</time>
      </trkpt>
      <trkpt lat="48.74027" lon="7.36052">
        <ele>214.1</ele>
        <time>2026-03-12T14:56:41Z</time>
      </trkpt>
      <trkpt lat="48.7402" lon="7.36058">
        <ele>214.7</ele>
        <time>2026-03-12T14:56:46Z</time>
      </trkpt>
      <trkpt lat="48.74013" lon="7.36066">
        <ele>215.2</ele>
        <time>2026-03-12T14:56:51Z</time>
      </trkpt>
      <trkpt lat="48.74009" lon="7.36074">
        <ele>215.4</ele>
        <time>2026-03-12T14:56:56Z</time>
      </trkpt>
      <trkpt lat="48.74005" lon="7.36082">
        <ele>215.7</ele>
        <time>2026-03-12T14:57:01Z</time>
      </trkpt>
      <trkpt lat="48.74001" lon="7.36092">
        <ele>215.3</ele>
        <time>2026-03-12T14:57:06Z</time>
      </trkpt>
      <trkpt lat="48.73997" lon="7.361">
        <ele>214.8</ele>
        <time>2026-03-12T14:57:11Z</time>
      </trkpt>
      <trkpt lat="48.73993" lon="7.36106">
        <ele>214.4</ele>
        <time>2026-03-12T14:57:16Z</time>
      </trkpt>
      <trkpt lat="48.73988" lon="7.36106">
        <ele>214.4</ele>
        <time>2026-03-12T14:57:21Z</time>
      </trkpt>
      <trkpt lat="48.73984" lon="7.36109">
        <ele>214.3</ele>
        <time>2026-03-12T14:57:26Z</time>
      </trkpt>
      <trkpt lat="48.73979" lon="7.36109">
        <ele>214.3</ele>
        <time>2026-03-12T14:57:31Z</time>
      </trkpt>
      <trkpt lat="48.73974" lon="7.36108">
        <ele>214.4</ele>
        <time>2026-03-12T14:57:36Z</time>
      </trkpt>
      <trkpt lat="48.73966" lon="7.36104">
        <ele>214.7</ele>
        <time>2026-03-12T14:57:41Z</time>
      </trkpt>
      <trkpt lat="48.73963" lon="7.36099">
        <ele>215</ele>
        <time>2026-03-12T14:57:46Z</time>
      </trkpt>
      <trkpt lat="48.73963" lon="7.36099">
        <ele>215</ele>
        <time>2026-03-12T14:57:51Z</time>
      </trkpt>
      <trkpt lat="48.73961" lon="7.36108">
        <ele>214.5</ele>
        <time>2026-03-12T14:57:56Z</time>
      </trkpt>
      <trkpt lat="48.73959" lon="7.36113">
        <ele>214.2</ele>
        <time>2026-03-12T14:58:01Z</time>
      </trkpt>
      <trkpt lat="48.73956" lon="7.3612">
        <ele>213.8</ele>
        <time>2026-03-12T14:58:06Z</time>
      </trkpt>
      <trkpt lat="48.73952" lon="7.36128">
        <ele>213.4</ele>
        <time>2026-03-12T14:58:11Z</time>
      </trkpt>
      <trkpt lat="48.73949" lon="7.36138">
        <ele>212.9</ele>
        <time>2026-03-12T14:58:16Z</time>
      </trkpt>
      <trkpt lat="48.73947" lon="7.36144">
        <ele>212.6</ele>
        <time>2026-03-12T14:58:21Z</time>
      </trkpt>
      <trkpt lat="48.73946" lon="7.36146">
        <ele>212.5</ele>
        <time>2026-03-12T14:58:26Z</time>
      </trkpt>
      <trkpt lat="48.73946" lon="7.36145">
        <ele>212.5</ele>
        <time>2026-03-12T14:58:31Z</time>
      </trkpt>
      <trkpt lat="48.73946" lon="7.36145">
        <ele>212.5</ele>
        <time>2026-03-12T14:58:36Z</time>
      </trkpt>
      <trkpt lat="48.73946" lon="7.36136">
        <ele>213</ele>
        <time>2026-03-12T14:58:41Z</time>
      </trkpt>
      <trkpt lat="48.7395" lon="7.36126">
        <ele>213.5</ele>
        <time>2026-03-12T14:58:46Z</time>
      </trkpt>
      <trkpt lat="48.73952" lon="7.36119">
        <ele>213.9</ele>
        <time>2026-03-12T14:58:51Z</time>
      </trkpt>
      <trkpt lat="48.7395" lon="7.36116">
        <ele>214.1</ele>
        <time>2026-03-12T14:58:56Z</time>
      </trkpt>
      <trkpt lat="48.73946" lon="7.36113">
        <ele>214.3</ele>
        <time>2026-03-12T14:59:01Z</time>
      </trkpt>
      <trkpt lat="48.73942" lon="7.36108">
        <ele>214.6</ele>
        <time>2026-03-12T14:59:06Z</time>
      </trkpt>
      <trkpt lat="48.73937" lon="7.36104">
        <ele>214.9</ele>
        <time>2026-03-12T14:59:11Z</time>
      </trkpt>
      <trkpt lat="48.73936" lon="7.36099">
        <ele>215.2</ele>
        <time>2026-03-12T14:59:16Z</time>
      </trkpt>
      <trkpt lat="48.73932" lon="7.36092">
        <ele>215.5</ele>
        <time>2026-03-12T14:59:21Z</time>
      </trkpt>
      <trkpt lat="48.73929" lon="7.36083">
        <ele>216</ele>
        <time>2026-03-12T14:59:26Z</time>
      </trkpt>
      <trkpt lat="48.73926" lon="7.36078">
        <ele>216.2</ele>
        <time>2026-03-12T14:59:31Z</time>
      </trkpt>
      <trkpt lat="48.73926" lon="7.3607">
        <ele>216.4</ele>
        <time>2026-03-12T14:59:36Z</time>
      </trkpt>
      <trkpt lat="48.73922" lon="7.36065">
        <ele>216.6</ele>
        <time>2026-03-12T14:59:41Z</time>
      </trkpt>
      <trkpt lat="48.73916" lon="7.36057">
        <ele>217</ele>
        <time>2026-03-12T14:59:46Z</time>
      </trkpt>
      <trkpt lat="48.73912" lon="7.36049">
        <ele>217.5</ele>
        <time>2026-03-12T14:59:51Z</time>
      </trkpt>
      <trkpt lat="48.73908" lon="7.36044">
        <ele>217.8</ele>
        <time>2026-03-12T14:59:56Z</time>
      </trkpt>
      <trkpt lat="48.73903" lon="7.36038">
        <ele>218.3</ele>
        <time>2026-03-12T15:00:01Z</time>
      </trkpt>
      <trkpt lat="48.73898" lon="7.36032">
        <ele>218.7</ele>
        <time>2026-03-12T15:00:06Z</time>
      </trkpt>
      <trkpt lat="48.73892" lon="7.36024">
        <ele>219.2</ele>
        <time>2026-03-12T15:00:11Z</time>
      </trkpt>
      <trkpt lat="48.73884" lon="7.36022">
        <ele>219.6</ele>
        <time>2026-03-12T15:00:16Z</time>
      </trkpt>
      <trkpt lat="48.7388" lon="7.36016">
        <ele>219.9</ele>
        <time>2026-03-12T15:00:21Z</time>
      </trkpt>
      <trkpt lat="48.73877" lon="7.36009">
        <ele>220.2</ele>
        <time>2026-03-12T15:00:26Z</time>
      </trkpt>
      <trkpt lat="48.73869" lon="7.36004">
        <ele>220.6</ele>
        <time>2026-03-12T15:00:31Z</time>
      </trkpt>
      <trkpt lat="48.73864" lon="7.35998">
        <ele>220.9</ele>
        <time>2026-03-12T15:00:36Z</time>
      </trkpt>
      <trkpt lat="48.73861" lon="7.35989">
        <ele>221.1</ele>
        <time>2026-03-12T15:00:41Z</time>
      </trkpt>
      <trkpt lat="48.73855" lon="7.35986">
        <ele>221.4</ele>
        <time>2026-03-12T15:00:46Z</time>
      </trkpt>
      <trkpt lat="48.73848" lon="7.35982">
        <ele>221.7</ele>
        <time>2026-03-12T15:00:51Z</time>
      </trkpt>
      <trkpt lat="48.73843" lon="7.35977">
        <ele>221.9</ele>
        <time>2026-03-12T15:00:56Z</time>
      </trkpt>
      <trkpt lat="48.73839" lon="7.35969">
        <ele>222.2</ele>
        <time>2026-03-12T15:01:01Z</time>
      </trkpt>
      <trkpt lat="48.73834" lon="7.35965">
        <ele>222.4</ele>
        <time>2026-03-12T15:01:06Z</time>
      </trkpt>
      <trkpt lat="48.73829" lon="7.35959">
        <ele>222.8</ele>
        <time>2026-03-12T15:01:11Z</time>
      </trkpt>
      <trkpt lat="48.73824" lon="7.35955">
        <ele>223.1</ele>
        <time>2026-03-12T15:01:16Z</time>
      </trkpt>
      <trkpt lat="48.73819" lon="7.35951">
        <ele>223.4</ele>
        <time>2026-03-12T15:01:21Z</time>
      </trkpt>
      <trkpt lat="48.73814" lon="7.35945">
        <ele>223.8</ele>
        <time>2026-03-12T15:01:26Z</time>
      </trkpt>
      <trkpt lat="48.73811" lon="7.35934">
        <ele>224.1</ele>
        <time>2026-03-12T15:01:31Z</time>
      </trkpt>
      <trkpt lat="48.73808" lon="7.35924">
        <ele>224.4</ele>
        <time>2026-03-12T15:01:36Z</time>
      </trkpt>
      <trkpt lat="48.73809" lon="7.35912">
        <ele>224.7</ele>
        <time>2026-03-12T15:01:41Z</time>
      </trkpt>
      <trkpt lat="48.73806" lon="7.35905">
        <ele>225.3</ele>
        <time>2026-03-12T15:01:46Z</time>
      </trkpt>
      <trkpt lat="48.73803" lon="7.35897">
        <ele>225.9</ele>
        <time>2026-03-12T15:01:51Z</time>
      </trkpt>
      <trkpt lat="48.73799" lon="7.35891">
        <ele>226.5</ele>
        <time>2026-03-12T15:01:56Z</time>
      </trkpt>
      <trkpt lat="48.73795" lon="7.35884">
        <ele>227.2</ele>
        <time>2026-03-12T15:02:01Z</time>
      </trkpt>
      <trkpt lat="48.73794" lon="7.35875">
        <ele>227.8</ele>
        <time>2026-03-12T15:02:06Z</time>
      </trkpt>
      <trkpt lat="48.73791" lon="7.35866">
        <ele>228.6</ele>
        <time>2026-03-12T15:02:11Z</time>
      </trkpt>
      <trkpt lat="48.73789" lon="7.35858">
        <ele>229.2</ele>
        <time>2026-03-12T15:02:16Z</time>
      </trkpt>
      <trkpt lat="48.73789" lon="7.35849">
        <ele>229.8</ele>
        <time>2026-03-12T15:02:21Z</time>
      </trkpt>
      <trkpt lat="48.73789" lon="7.35841">
        <ele>230.3</ele>
        <time>2026-03-12T15:02:26Z</time>
      </trkpt>
      <trkpt lat="48.73789" lon="7.35827">
        <ele>231</ele>
        <time>2026-03-12T15:02:31Z</time>
      </trkpt>
      <trkpt lat="48.73787" lon="7.35818">
        <ele>231.4</ele>
        <time>2026-03-12T15:02:36Z</time>
      </trkpt>
      <trkpt lat="48.73785" lon="7.35811">
        <ele>231.9</ele>
        <time>2026-03-12T15:02:41Z</time>
      </trkpt>
      <trkpt lat="48.73783" lon="7.35797">
        <ele>232.5</ele>
        <time>2026-03-12T15:02:46Z</time>
      </trkpt>
      <trkpt lat="48.73781" lon="7.35788">
        <ele>233</ele>
        <time>2026-03-12T15:02:51Z</time>
      </trkpt>
      <trkpt lat="48.73779" lon="7.3578">
        <ele>233.5</ele>
        <time>2026-03-12T15:02:56Z</time>
      </trkpt>
      <trkpt lat="48.73774" lon="7.35773">
        <ele>234.2</ele>
        <time>2026-03-12T15:03:01Z</time>
      </trkpt>
      <trkpt lat="48.7377" lon="7.35769">
        <ele>234.6</ele>
        <time>2026-03-12T15:03:06Z</time>
      </trkpt>
      <trkpt lat="48.73764" lon="7.35765">
        <ele>235.3</ele>
        <time>2026-03-12T15:03:11Z</time>
      </trkpt>
      <trkpt lat="48.73757" lon="7.3576">
        <ele>236.1</ele>
        <time>2026-03-12T15:03:16Z</time>
      </trkpt>
      <trkpt lat="48.73751" lon="7.3576">
        <ele>236.6</ele>
        <time>2026-03-12T15:03:21Z</time>
      </trkpt>
      <trkpt lat="48.73745" lon="7.35756">
        <ele>237.2</ele>
        <time>2026-03-12T15:03:26Z</time>
      </trkpt>
      <trkpt lat="48.73737" lon="7.3576">
        <ele>237.7</ele>
        <time>2026-03-12T15:03:31Z</time>
      </trkpt>
      <trkpt lat="48.73733" lon="7.3576">
        <ele>238.1</ele>
        <time>2026-03-12T15:03:36Z</time>
      </trkpt>
      <trkpt lat="48.73727" lon="7.35764">
        <ele>238.4</ele>
        <time>2026-03-12T15:03:41Z</time>
      </trkpt>
      <trkpt lat="48.73721" lon="7.3577">
        <ele>238.7</ele>
        <time>2026-03-12T15:03:46Z</time>
      </trkpt>
      <trkpt lat="48.73716" lon="7.35778">
        <ele>238.8</ele>
        <time>2026-03-12T15:03:51Z</time>
      </trkpt>
      <trkpt lat="48.73712" lon="7.35784">
        <ele>239</ele>
        <time>2026-03-12T15:03:56Z</time>
      </trkpt>
      <trkpt lat="48.73707" lon="7.35789">
        <ele>239.2</ele>
        <time>2026-03-12T15:04:01Z</time>
      </trkpt>
      <trkpt lat="48.73701" lon="7.35796">
        <ele>239.5</ele>
        <time>2026-03-12T15:04:06Z</time>
      </trkpt>
      <trkpt lat="48.73696" lon="7.35798">
        <ele>239.8</ele>
        <time>2026-03-12T15:04:11Z</time>
      </trkpt>
      <trkpt lat="48.73692" lon="7.35805">
        <ele>239.9</ele>
        <time>2026-03-12T15:04:16Z</time>
      </trkpt>
      <trkpt lat="48.73688" lon="7.35811">
        <ele>240</ele>
        <time>2026-03-12T15:04:21Z</time>
      </trkpt>
      <trkpt lat="48.73684" lon="7.35812">
        <ele>240.3</ele>
        <time>2026-03-12T15:04:26Z</time>
      </trkpt>
      <trkpt lat="48.73677" lon="7.35819">
        <ele>240.6</ele>
        <time>2026-03-12T15:04:31Z</time>
      </trkpt>
      <trkpt lat="48.73672" lon="7.35823">
        <ele>240.9</ele>
        <time>2026-03-12T15:04:36Z</time>
      </trkpt>
      <trkpt lat="48.73667" lon="7.35827">
        <ele>241.2</ele>
        <time>2026-03-12T15:04:41Z</time>
      </trkpt>
      <trkpt lat="48.73662" lon="7.3583">
        <ele>241.1</ele>
        <time>2026-03-12T15:04:46Z</time>
      </trkpt>
      <trkpt lat="48.73657" lon="7.35834">
        <ele>240.9</ele>
        <time>2026-03-12T15:04:51Z</time>
      </trkpt>
      <trkpt lat="48.7365" lon="7.35839">
        <ele>240.6</ele>
        <time>2026-03-12T15:04:56Z</time>
      </trkpt>
      <trkpt lat="48.73644" lon="7.35844">
        <ele>240.3</ele>
        <time>2026-03-12T15:05:01Z</time>
      </trkpt>
      <trkpt lat="48.73638" lon="7.35848">
        <ele>240.1</ele>
        <time>2026-03-12T15:05:06Z</time>
      </trkpt>
      <trkpt lat="48.73633" lon="7.35848">
        <ele>240.1</ele>
        <time>2026-03-12T15:05:11Z</time>
      </trkpt>
      <trkpt lat="48.73626" lon="7.35848">
        <ele>240</ele>
        <time>2026-03-12T15:05:16Z</time>
      </trkpt>
      <trkpt lat="48.73618" lon="7.35849">
        <ele>239.9</ele>
        <time>2026-03-12T15:05:21Z</time>
      </trkpt>
      <trkpt lat="48.73612" lon="7.35849">
        <ele>239.8</ele>
        <time>2026-03-12T15:05:26Z</time>
      </trkpt>
      <trkpt lat="48.73608" lon="7.35847">
        <ele>239.8</ele>
        <time>2026-03-12T15:05:31Z</time>
      </trkpt>
      <trkpt lat="48.73603" lon="7.35846">
        <ele>239.8</ele>
        <time>2026-03-12T15:05:36Z</time>
      </trkpt>
      <trkpt lat="48.73598" lon="7.35847">
        <ele>239.7</ele>
        <time>2026-03-12T15:05:41Z</time>
      </trkpt>
      <trkpt lat="48.73592" lon="7.35843">
        <ele>239.8</ele>
        <time>2026-03-12T15:05:46Z</time>
      </trkpt>
      <trkpt lat="48.73586" lon="7.35838">
        <ele>239.9</ele>
        <time>2026-03-12T15:05:51Z</time>
      </trkpt>
      <trkpt lat="48.7358" lon="7.35832">
        <ele>239.9</ele>
        <time>2026-03-12T15:05:56Z</time>
      </trkpt>
      <trkpt lat="48.73577" lon="7.35828">
        <ele>239.9</ele>
        <time>2026-03-12T15:06:01Z</time>
      </trkpt>
      <trkpt lat="48.73571" lon="7.35823">
        <ele>239.8</ele>
        <time>2026-03-12T15:06:06Z</time>
      </trkpt>
      <trkpt lat="48.73566" lon="7.35816">
        <ele>239.8</ele>
        <time>2026-03-12T15:06:11Z</time>
      </trkpt>
      <trkpt lat="48.7356" lon="7.35808">
        <ele>239.9</ele>
        <time>2026-03-12T15:06:16Z</time>
      </trkpt>
      <trkpt lat="48.73556" lon="7.35802">
        <ele>240</ele>
        <time>2026-03-12T15:06:21Z</time>
      </trkpt>
      <trkpt lat="48.73552" lon="7.35798">
        <ele>240</ele>
        <time>2026-03-12T15:06:26Z</time>
      </trkpt>
      <trkpt lat="48.73549" lon="7.3579">
        <ele>240.2</ele>
        <time>2026-03-12T15:06:31Z</time>
      </trkpt>
      <trkpt lat="48.73544" lon="7.35785">
        <ele>240.2</ele>
        <time>2026-03-12T15:06:36Z</time>
      </trkpt>
      <trkpt lat="48.73538" lon="7.35778">
        <ele>240.3</ele>
        <time>2026-03-12T15:06:41Z</time>
      </trkpt>
      <trkpt lat="48.73534" lon="7.35768">
        <ele>240.6</ele>
        <time>2026-03-12T15:06:46Z</time>
      </trkpt>
      <trkpt lat="48.73528" lon="7.35762">
        <ele>240.7</ele>
        <time>2026-03-12T15:06:51Z</time>
      </trkpt>
      <trkpt lat="48.73525" lon="7.35748">
        <ele>241.2</ele>
        <time>2026-03-12T15:06:56Z</time>
      </trkpt>
      <trkpt lat="48.73521" lon="7.3574">
        <ele>241.2</ele>
        <time>2026-03-12T15:07:01Z</time>
      </trkpt>
      <trkpt lat="48.73517" lon="7.35731">
        <ele>241.1</ele>
        <time>2026-03-12T15:07:06Z</time>
      </trkpt>
      <trkpt lat="48.73514" lon="7.35722">
        <ele>241.1</ele>
        <time>2026-03-12T15:07:11Z</time>
      </trkpt>
      <trkpt lat="48.7351" lon="7.35714">
        <ele>241</ele>
        <time>2026-03-12T15:07:16Z</time>
      </trkpt>
      <trkpt lat="48.73505" lon="7.35704">
        <ele>240.8</ele>
        <time>2026-03-12T15:07:21Z</time>
      </trkpt>
      <trkpt lat="48.73499" lon="7.35692">
        <ele>240.6</ele>
        <time>2026-03-12T15:07:26Z</time>
      </trkpt>
      <trkpt lat="48.73498" lon="7.35683">
        <ele>240.7</ele>
        <time>2026-03-12T15:07:31Z</time>
      </trkpt>
      <trkpt lat="48.73496" lon="7.35676">
        <ele>240.7</ele>
        <time>2026-03-12T15:07:36Z</time>
      </trkpt>
      <trkpt lat="48.73493" lon="7.35666">
        <ele>240.7</ele>
        <time>2026-03-12T15:07:41Z</time>
      </trkpt>
      <trkpt lat="48.73489" lon="7.35659">
        <ele>240.7</ele>
        <time>2026-03-12T15:07:46Z</time>
      </trkpt>
      <trkpt lat="48.73486" lon="7.35651">
        <ele>240.9</ele>
        <time>2026-03-12T15:07:51Z</time>
      </trkpt>
      <trkpt lat="48.73482" lon="7.35641">
        <ele>241.1</ele>
        <time>2026-03-12T15:07:56Z</time>
      </trkpt>
      <trkpt lat="48.73478" lon="7.35633">
        <ele>241.2</ele>
        <time>2026-03-12T15:08:01Z</time>
      </trkpt>
      <trkpt lat="48.73476" lon="7.35624">
        <ele>241.4</ele>
        <time>2026-03-12T15:08:06Z</time>
      </trkpt>
      <trkpt lat="48.73476" lon="7.35611">
        <ele>241.9</ele>
        <time>2026-03-12T15:08:11Z</time>
      </trkpt>
      <trkpt lat="48.73473" lon="7.35604">
        <ele>242</ele>
        <time>2026-03-12T15:08:16Z</time>
      </trkpt>
      <trkpt lat="48.7347" lon="7.35596">
        <ele>242.1</ele>
        <time>2026-03-12T15:08:21Z</time>
      </trkpt>
      <trkpt lat="48.73468" lon="7.35587">
        <ele>242.3</ele>
        <time>2026-03-12T15:08:26Z</time>
      </trkpt>
      <trkpt lat="48.73465" lon="7.35577">
        <ele>242.5</ele>
        <time>2026-03-12T15:08:31Z</time>
      </trkpt>
      <trkpt lat="48.73458" lon="7.35569">
        <ele>242.4</ele>
        <time>2026-03-12T15:08:36Z</time>
      </trkpt>
      <trkpt lat="48.73454" lon="7.35558">
        <ele>242.6</ele>
        <time>2026-03-12T15:08:41Z</time>
      </trkpt>
      <trkpt lat="48.7345" lon="7.35548">
        <ele>242.7</ele>
        <time>2026-03-12T15:08:46Z</time>
      </trkpt>
      <trkpt lat="48.73448" lon="7.35535">
        <ele>243</ele>
        <time>2026-03-12T15:08:51Z</time>
      </trkpt>
      <trkpt lat="48.73444" lon="7.3553">
        <ele>243</ele>
        <time>2026-03-12T15:08:56Z</time>
      </trkpt>
      <trkpt lat="48.73444" lon="7.35521">
        <ele>243.3</ele>
        <time>2026-03-12T15:09:01Z</time>
      </trkpt>
      <trkpt lat="48.73442" lon="7.35512">
        <ele>243.5</ele>
        <time>2026-03-12T15:09:06Z</time>
      </trkpt>
      <trkpt lat="48.73438" lon="7.35505">
        <ele>243.6</ele>
        <time>2026-03-12T15:09:11Z</time>
      </trkpt>
      <trkpt lat="48.73435" lon="7.35491">
        <ele>243.7</ele>
        <time>2026-03-12T15:09:16Z</time>
      </trkpt>
      <trkpt lat="48.73433" lon="7.35482">
        <ele>243.8</ele>
        <time>2026-03-12T15:09:21Z</time>
      </trkpt>
      <trkpt lat="48.73428" lon="7.35471">
        <ele>243.7</ele>
        <time>2026-03-12T15:09:26Z</time>
      </trkpt>
      <trkpt lat="48.73424" lon="7.35462">
        <ele>243.7</ele>
        <time>2026-03-12T15:09:31Z</time>
      </trkpt>
      <trkpt lat="48.7342" lon="7.35453">
        <ele>243.7</ele>
        <time>2026-03-12T15:09:36Z</time>
      </trkpt>
      <trkpt lat="48.73416" lon="7.35445">
        <ele>243.6</ele>
        <time>2026-03-12T15:09:41Z</time>
      </trkpt>
      <trkpt lat="48.73413" lon="7.35434">
        <ele>243.6</ele>
        <time>2026-03-12T15:09:46Z</time>
      </trkpt>
      <trkpt lat="48.73411" lon="7.35426">
        <ele>243.7</ele>
        <time>2026-03-12T15:09:51Z</time>
      </trkpt>
      <trkpt lat="48.73408" lon="7.35417">
        <ele>243.7</ele>
        <time>2026-03-12T15:09:56Z</time>
      </trkpt>
      <trkpt lat="48.73408" lon="7.35405">
        <ele>243.8</ele>
        <time>2026-03-12T15:10:01Z</time>
      </trkpt>
      <trkpt lat="48.73403" lon="7.35398">
        <ele>243.7</ele>
        <time>2026-03-12T15:10:06Z</time>
      </trkpt>
      <trkpt lat="48.73398" lon="7.35389">
        <ele>243.6</ele>
        <time>2026-03-12T15:10:11Z</time>
      </trkpt>
      <trkpt lat="48.73394" lon="7.35379">
        <ele>243.5</ele>
        <time>2026-03-12T15:10:16Z</time>
      </trkpt>
      <trkpt lat="48.73393" lon="7.35371">
        <ele>243.5</ele>
        <time>2026-03-12T15:10:21Z</time>
      </trkpt>
      <trkpt lat="48.73392" lon="7.35362">
        <ele>243.6</ele>
        <time>2026-03-12T15:10:26Z</time>
      </trkpt>
      <trkpt lat="48.73389" lon="7.35351">
        <ele>243.5</ele>
        <time>2026-03-12T15:10:31Z</time>
      </trkpt>
      <trkpt lat="48.73385" lon="7.35339">
        <ele>243.4</ele>
        <time>2026-03-12T15:10:36Z</time>
      </trkpt>
      <trkpt lat="48.73381" lon="7.35332">
        <ele>243.3</ele>
        <time>2026-03-12T15:10:41Z</time>
      </trkpt>
      <trkpt lat="48.73376" lon="7.35324">
        <ele>243.3</ele>
        <time>2026-03-12T15:10:46Z</time>
      </trkpt>
      <trkpt lat="48.73375" lon="7.3532">
        <ele>243.3</ele>
        <time>2026-03-12T15:10:51Z</time>
      </trkpt>
      <trkpt lat="48.73374" lon="7.35321">
        <ele>243.2</ele>
        <time>2026-03-12T15:10:56Z</time>
      </trkpt>
      <trkpt lat="48.73372" lon="7.35321">
        <ele>243.2</ele>
        <time>2026-03-12T15:11:01Z</time>
      </trkpt>
      <trkpt lat="48.73369" lon="7.35316">
        <ele>243.1</ele>
        <time>2026-03-12T15:11:06Z</time>
      </trkpt>
      <trkpt lat="48.73369" lon="7.35306">
        <ele>243.4</ele>
        <time>2026-03-12T15:11:11Z</time>
      </trkpt>
      <trkpt lat="48.73367" lon="7.35296">
        <ele>243.5</ele>
        <time>2026-03-12T15:11:16Z</time>
      </trkpt>
      <trkpt lat="48.73364" lon="7.35285">
        <ele>243.6</ele>
        <time>2026-03-12T15:11:21Z</time>
      </trkpt>
      <trkpt lat="48.73362" lon="7.35276">
        <ele>243.8</ele>
        <time>2026-03-12T15:11:26Z</time>
      </trkpt>
      <trkpt lat="48.73361" lon="7.35267">
        <ele>243.9</ele>
        <time>2026-03-12T15:11:31Z</time>
      </trkpt>
      <trkpt lat="48.73364" lon="7.35263">
        <ele>244.2</ele>
        <time>2026-03-12T15:11:36Z</time>
      </trkpt>
      <trkpt lat="48.73366" lon="7.35253">
        <ele>244.5</ele>
        <time>2026-03-12T15:11:41Z</time>
      </trkpt>
      <trkpt lat="48.73367" lon="7.35244">
        <ele>244.8</ele>
        <time>2026-03-12T15:11:46Z</time>
      </trkpt>
      <trkpt lat="48.73367" lon="7.35234">
        <ele>245.2</ele>
        <time>2026-03-12T15:11:51Z</time>
      </trkpt>
      <trkpt lat="48.73366" lon="7.35223">
        <ele>245.6</ele>
        <time>2026-03-12T15:11:56Z</time>
      </trkpt>
      <trkpt lat="48.73366" lon="7.35212">
        <ele>246</ele>
        <time>2026-03-12T15:12:01Z</time>
      </trkpt>
      <trkpt lat="48.73366" lon="7.35202">
        <ele>246.4</ele>
        <time>2026-03-12T15:12:06Z</time>
      </trkpt>
      <trkpt lat="48.73366" lon="7.35194">
        <ele>246.7</ele>
        <time>2026-03-12T15:12:11Z</time>
      </trkpt>
      <trkpt lat="48.73367" lon="7.35192">
        <ele>246.8</ele>
        <time>2026-03-12T15:12:16Z</time>
      </trkpt>
      <trkpt lat="48.73368" lon="7.35184">
        <ele>247.2</ele>
        <time>2026-03-12T15:12:21Z</time>
      </trkpt>
      <trkpt lat="48.73367" lon="7.35176">
        <ele>247.5</ele>
        <time>2026-03-12T15:12:26Z</time>
      </trkpt>
      <trkpt lat="48.73368" lon="7.35166">
        <ele>247.9</ele>
        <time>2026-03-12T15:12:31Z</time>
      </trkpt>
      <trkpt lat="48.7337" lon="7.35157">
        <ele>248.6</ele>
        <time>2026-03-12T15:12:36Z</time>
      </trkpt>
      <trkpt lat="48.73372" lon="7.35147">
        <ele>249.4</ele>
        <time>2026-03-12T15:12:41Z</time>
      </trkpt>
      <trkpt lat="48.73374" lon="7.35136">
        <ele>250.2</ele>
        <time>2026-03-12T15:12:46Z</time>
      </trkpt>
      <trkpt lat="48.73375" lon="7.35125">
        <ele>251</ele>
        <time>2026-03-12T15:12:51Z</time>
      </trkpt>
      <trkpt lat="48.73377" lon="7.35116">
        <ele>251.7</ele>
        <time>2026-03-12T15:12:56Z</time>
      </trkpt>
      <trkpt lat="48.73376" lon="7.35104">
        <ele>252.5</ele>
        <time>2026-03-12T15:13:01Z</time>
      </trkpt>
      <trkpt lat="48.73377" lon="7.35094">
        <ele>253.2</ele>
        <time>2026-03-12T15:13:06Z</time>
      </trkpt>
      <trkpt lat="48.73375" lon="7.35085">
        <ele>253.9</ele>
        <time>2026-03-12T15:13:11Z</time>
      </trkpt>
      <trkpt lat="48.73376" lon="7.35077">
        <ele>254.6</ele>
        <time>2026-03-12T15:13:16Z</time>
      </trkpt>
      <trkpt lat="48.73376" lon="7.35069">
        <ele>255.3</ele>
        <time>2026-03-12T15:13:21Z</time>
      </trkpt>
      <trkpt lat="48.73376" lon="7.35058">
        <ele>256.3</ele>
        <time>2026-03-12T15:13:26Z</time>
      </trkpt>
      <trkpt lat="48.73376" lon="7.3505">
        <ele>257</ele>
        <time>2026-03-12T15:13:31Z</time>
      </trkpt>
      <trkpt lat="48.73376" lon="7.35047">
        <ele>257.3</ele>
        <time>2026-03-12T15:13:36Z</time>
      </trkpt>
      <trkpt lat="48.73376" lon="7.35047">
        <ele>257.3</ele>
        <time>2026-03-12T15:13:41Z</time>
      </trkpt>
      <trkpt lat="48.73376" lon="7.35047">
        <ele>257.3</ele>
        <time>2026-03-12T15:13:46Z</time>
      </trkpt>
      <trkpt lat="48.73374" lon="7.35041">
        <ele>257.8</ele>
        <time>2026-03-12T15:13:51Z</time>
      </trkpt>
      <trkpt lat="48.73371" lon="7.35034">
        <ele>258.4</ele>
        <time>2026-03-12T15:13:56Z</time>
      </trkpt>
      <trkpt lat="48.73367" lon="7.35033">
        <ele>258.5</ele>
        <time>2026-03-12T15:14:01Z</time>
      </trkpt>
      <trkpt lat="48.73363" lon="7.3503">
        <ele>258.7</ele>
        <time>2026-03-12T15:14:06Z</time>
      </trkpt>
      <trkpt lat="48.73359" lon="7.35026">
        <ele>259</ele>
        <time>2026-03-12T15:14:11Z</time>
      </trkpt>
      <trkpt lat="48.73354" lon="7.35021">
        <ele>259.4</ele>
        <time>2026-03-12T15:14:16Z</time>
      </trkpt>
      <trkpt lat="48.73349" lon="7.35017">
        <ele>259.7</ele>
        <time>2026-03-12T15:14:21Z</time>
      </trkpt>
      <trkpt lat="48.73342" lon="7.35013">
        <ele>260</ele>
        <time>2026-03-12T15:14:26Z</time>
      </trkpt>
      <trkpt lat="48.73337" lon="7.35006">
        <ele>260.5</ele>
        <time>2026-03-12T15:14:31Z</time>
      </trkpt>
      <trkpt lat="48.73332" lon="7.35001">
        <ele>260.9</ele>
        <time>2026-03-12T15:14:36Z</time>
      </trkpt>
      <trkpt lat="48.73325" lon="7.34998">
        <ele>260.8</ele>
        <time>2026-03-12T15:14:41Z</time>
      </trkpt>
      <trkpt lat="48.73319" lon="7.34993">
        <ele>261.1</ele>
        <time>2026-03-12T15:14:46Z</time>
      </trkpt>
      <trkpt lat="48.73314" lon="7.34984">
        <ele>261.8</ele>
        <time>2026-03-12T15:14:51Z</time>
      </trkpt>
      <trkpt lat="48.73308" lon="7.34977">
        <ele>262.2</ele>
        <time>2026-03-12T15:14:56Z</time>
      </trkpt>
      <trkpt lat="48.73301" lon="7.34972">
        <ele>262.3</ele>
        <time>2026-03-12T15:15:01Z</time>
      </trkpt>
      <trkpt lat="48.73296" lon="7.34968">
        <ele>262.4</ele>
        <time>2026-03-12T15:15:06Z</time>
      </trkpt>
      <trkpt lat="48.73292" lon="7.34965">
        <ele>262.4</ele>
        <time>2026-03-12T15:15:11Z</time>
      </trkpt>
      <trkpt lat="48.73286" lon="7.34961">
        <ele>262.3</ele>
        <time>2026-03-12T15:15:16Z</time>
      </trkpt>
      <trkpt lat="48.73281" lon="7.34957">
        <ele>262.4</ele>
        <time>2026-03-12T15:15:21Z</time>
      </trkpt>
      <trkpt lat="48.73276" lon="7.34949">
        <ele>262.7</ele>
        <time>2026-03-12T15:15:26Z</time>
      </trkpt>
      <trkpt lat="48.73274" lon="7.34943">
        <ele>263</ele>
        <time>2026-03-12T15:15:31Z</time>
      </trkpt>
      <trkpt lat="48.73276" lon="7.3494">
        <ele>263.5</ele>
        <time>2026-03-12T15:15:36Z</time>
      </trkpt>
      <trkpt lat="48.73277" lon="7.34939">
        <ele>263.6</ele>
        <time>2026-03-12T15:15:41Z</time>
      </trkpt>
      <trkpt lat="48.73282" lon="7.34937">
        <ele>264.2</ele>
        <time>2026-03-12T15:15:46Z</time>
      </trkpt>
      <trkpt lat="48.73291" lon="7.34926">
        <ele>266</ele>
        <time>2026-03-12T15:15:51Z</time>
      </trkpt>
      <trkpt lat="48.73296" lon="7.34923">
        <ele>266.8</ele>
        <time>2026-03-12T15:15:56Z</time>
      </trkpt>
      <trkpt lat="48.73296" lon="7.34923">
        <ele>266.8</ele>
        <time>2026-03-12T15:16:01Z</time>
      </trkpt>
      <trkpt lat="48.73296" lon="7.34923">
        <ele>266.8</ele>
        <time>2026-03-12T15:16:06Z</time>
      </trkpt>
      <trkpt lat="48.73296" lon="7.34923">
        <ele>266.8</ele>
        <time>2026-03-12T15:16:11Z</time>
      </trkpt>
      <trkpt lat="48.73296" lon="7.34923">
        <ele>266.8</ele>
        <time>2026-03-12T15:16:16Z</time>
      </trkpt>
      <trkpt lat="48.73296" lon="7.34923">
        <ele>266.8</ele>
        <time>2026-03-12T15:16:21Z</time>
      </trkpt>
      <trkpt lat="48.733" lon="7.34919">
        <ele>267.6</ele>
        <time>2026-03-12T15:16:26Z</time>
      </trkpt>
      <trkpt lat="48.73303" lon="7.34911">
        <ele>269</ele>
        <time>2026-03-12T15:16:31Z</time>
      </trkpt>
      <trkpt lat="48.73305" lon="7.34904">
        <ele>270.4</ele>
        <time>2026-03-12T15:16:36Z</time>
      </trkpt>
      <trkpt lat="48.73308" lon="7.34896">
        <ele>271.9</ele>
        <time>2026-03-12T15:16:41Z</time>
      </trkpt>
      <trkpt lat="48.73312" lon="7.34891">
        <ele>273.1</ele>
        <time>2026-03-12T15:16:46Z</time>
      </trkpt>
      <trkpt lat="48.73316" lon="7.34886">
        <ele>274.3</ele>
        <time>2026-03-12T15:16:51Z</time>
      </trkpt>
      <trkpt lat="48.73318" lon="7.34879">
        <ele>275.6</ele>
        <time>2026-03-12T15:16:56Z</time>
      </trkpt>
      <trkpt lat="48.73323" lon="7.34871">
        <ele>277.3</ele>
        <time>2026-03-12T15:17:01Z</time>
      </trkpt>
      <trkpt lat="48.73329" lon="7.34865">
        <ele>278.7</ele>
        <time>2026-03-12T15:17:06Z</time>
      </trkpt>
      <trkpt lat="48.7333" lon="7.34856">
        <ele>280.2</ele>
        <time>2026-03-12T15:17:11Z</time>
      </trkpt>
      <trkpt lat="48.73333" lon="7.34849">
        <ele>281.5</ele>
        <time>2026-03-12T15:17:16Z</time>
      </trkpt>
      <trkpt lat="48.73336" lon="7.34846">
        <ele>282</ele>
        <time>2026-03-12T15:17:21Z</time>
      </trkpt>
      <trkpt lat="48.73337" lon="7.34841">
        <ele>282.7</ele>
        <time>2026-03-12T15:17:26Z</time>
      </trkpt>
      <trkpt lat="48.7334" lon="7.34836">
        <ele>283.4</ele>
        <time>2026-03-12T15:17:31Z</time>
      </trkpt>
      <trkpt lat="48.73343" lon="7.3483">
        <ele>283.9</ele>
        <time>2026-03-12T15:17:36Z</time>
      </trkpt>
      <trkpt lat="48.73345" lon="7.34825">
        <ele>284.2</ele>
        <time>2026-03-12T15:17:41Z</time>
      </trkpt>
      <trkpt lat="48.73346" lon="7.34818">
        <ele>284.7</ele>
        <time>2026-03-12T15:17:46Z</time>
      </trkpt>
      <trkpt lat="48.73346" lon="7.34812">
        <ele>285.2</ele>
        <time>2026-03-12T15:17:51Z</time>
      </trkpt>
      <trkpt lat="48.73345" lon="7.34809">
        <ele>285.5</ele>
        <time>2026-03-12T15:17:56Z</time>
      </trkpt>
      <trkpt lat="48.73345" lon="7.34809">
        <ele>285.5</ele>
        <time>2026-03-12T15:18:01Z</time>
      </trkpt>
      <trkpt lat="48.73345" lon="7.34809">
        <ele>285.5</ele>
        <time>2026-03-12T15:18:06Z</time>
      </trkpt>
      <trkpt lat="48.7335" lon="7.34795">
        <ele>286.2</ele>
        <time>2026-03-12T15:18:11Z</time>
      </trkpt>
      <trkpt lat="48.7335" lon="7.34795">
        <ele>286.2</ele>
        <time>2026-03-12T15:18:16Z</time>
      </trkpt>
      <trkpt lat="48.7335" lon="7.34795">
        <ele>286.2</ele>
        <time>2026-03-12T15:18:21Z</time>
      </trkpt>
      <trkpt lat="48.7335" lon="7.34795">
        <ele>286.2</ele>
        <time>2026-03-12T15:18:26Z</time>
      </trkpt>
      <trkpt lat="48.7335" lon="7.34795">
        <ele>286.2</ele>
        <time>2026-03-12T15:18:31Z</time>
      </trkpt>
      <trkpt lat="48.7335" lon="7.34795">
        <ele>286.2</ele>
        <time>2026-03-12T15:18:36Z</time>
      </trkpt>
      <trkpt lat="48.7335" lon="7.34795">
        <ele>286.2</ele>
        <time>2026-03-12T15:18:41Z</time>
      </trkpt>
      <trkpt lat="48.73347" lon="7.34794">
        <ele>286.5</ele>
        <time>2026-03-12T15:18:46Z</time>
      </trkpt>
      <trkpt lat="48.73345" lon="7.34789">
        <ele>287.1</ele>
        <time>2026-03-12T15:18:51Z</time>
      </trkpt>
      <trkpt lat="48.73342" lon="7.34784">
        <ele>287.8</ele>
        <time>2026-03-12T15:18:56Z</time>
      </trkpt>
      <trkpt lat="48.73338" lon="7.3478">
        <ele>288.6</ele>
        <time>2026-03-12T15:19:01Z</time>
      </trkpt>
      <trkpt lat="48.73334" lon="7.34775">
        <ele>289.5</ele>
        <time>2026-03-12T15:19:06Z</time>
      </trkpt>
      <trkpt lat="48.7333" lon="7.3477">
        <ele>290.1</ele>
        <time>2026-03-12T15:19:11Z</time>
      </trkpt>
      <trkpt lat="48.73325" lon="7.34764">
        <ele>290.9</ele>
        <time>2026-03-12T15:19:16Z</time>
      </trkpt>
      <trkpt lat="48.73322" lon="7.34759">
        <ele>291.5</ele>
        <time>2026-03-12T15:19:21Z</time>
      </trkpt>
      <trkpt lat="48.7332" lon="7.34756">
        <ele>291.9</ele>
        <time>2026-03-12T15:19:26Z</time>
      </trkpt>
      <trkpt lat="48.7332" lon="7.34756">
        <ele>291.9</ele>
        <time>2026-03-12T15:19:31Z</time>
      </trkpt>
      <trkpt lat="48.7332" lon="7.34756">
        <ele>291.9</ele>
        <time>2026-03-12T15:19:36Z</time>
      </trkpt>
      <trkpt lat="48.7332" lon="7.34756">
        <ele>291.9</ele>
        <time>2026-03-12T15:19:41Z</time>
      </trkpt>
      <trkpt lat="48.7332" lon="7.34751">
        <ele>292.5</ele>
        <time>2026-03-12T15:19:46Z</time>
      </trkpt>
      <trkpt lat="48.73313" lon="7.34744">
        <ele>293.4</ele>
        <time>2026-03-12T15:19:51Z</time>
      </trkpt>
      <trkpt lat="48.73309" lon="7.34738">
        <ele>294.1</ele>
        <time>2026-03-12T15:19:56Z</time>
      </trkpt>
      <trkpt lat="48.73305" lon="7.34735">
        <ele>294.6</ele>
        <time>2026-03-12T15:20:01Z</time>
      </trkpt>
      <trkpt lat="48.73301" lon="7.34728">
        <ele>295.5</ele>
        <time>2026-03-12T15:20:06Z</time>
      </trkpt>
      <trkpt lat="48.73298" lon="7.34722">
        <ele>296.3</ele>
        <time>2026-03-12T15:20:11Z</time>
      </trkpt>
      <trkpt lat="48.73296" lon="7.34716">
        <ele>297</ele>
        <time>2026-03-12T15:20:16Z</time>
      </trkpt>
      <trkpt lat="48.73292" lon="7.3471">
        <ele>298</ele>
        <time>2026-03-12T15:20:21Z</time>
      </trkpt>
      <trkpt lat="48.73287" lon="7.34706">
        <ele>299</ele>
        <time>2026-03-12T15:20:26Z</time>
      </trkpt>
      <trkpt lat="48.73286" lon="7.347">
        <ele>299.8</ele>
        <time>2026-03-12T15:20:31Z</time>
      </trkpt>
      <trkpt lat="48.73286" lon="7.347">
        <ele>299.8</ele>
        <time>2026-03-12T15:20:36Z</time>
      </trkpt>
      <trkpt lat="48.73286" lon="7.347">
        <ele>299.8</ele>
        <time>2026-03-12T15:20:41Z</time>
      </trkpt>
      <trkpt lat="48.73281" lon="7.34705">
        <ele>299.9</ele>
        <time>2026-03-12T15:20:46Z</time>
      </trkpt>
      <trkpt lat="48.73279" lon="7.34701">
        <ele>300.6</ele>
        <time>2026-03-12T15:20:51Z</time>
      </trkpt>
      <trkpt lat="48.73274" lon="7.34694">
        <ele>302.1</ele>
        <time>2026-03-12T15:20:56Z</time>
      </trkpt>
      <trkpt lat="48.73273" lon="7.34687">
        <ele>303.2</ele>
        <time>2026-03-12T15:21:01Z</time>
      </trkpt>
      <trkpt lat="48.73271" lon="7.34685">
        <ele>303.7</ele>
        <time>2026-03-12T15:21:06Z</time>
      </trkpt>
      <trkpt lat="48.73271" lon="7.34682">
        <ele>304.2</ele>
        <time>2026-03-12T15:21:11Z</time>
      </trkpt>
      <trkpt lat="48.73267" lon="7.34675">
        <ele>305.8</ele>
        <time>2026-03-12T15:21:16Z</time>
      </trkpt>
      <trkpt lat="48.73263" lon="7.34671">
        <ele>307</ele>
        <time>2026-03-12T15:21:21Z</time>
      </trkpt>
      <trkpt lat="48.73258" lon="7.34668">
        <ele>308.4</ele>
        <time>2026-03-12T15:21:26Z</time>
      </trkpt>
      <trkpt lat="48.73256" lon="7.34664">
        <ele>308.9</ele>
        <time>2026-03-12T15:21:31Z</time>
      </trkpt>
      <trkpt lat="48.73252" lon="7.3466">
        <ele>309.6</ele>
        <time>2026-03-12T15:21:36Z</time>
      </trkpt>
      <trkpt lat="48.73246" lon="7.34658">
        <ele>309.9</ele>
        <time>2026-03-12T15:21:41Z</time>
      </trkpt>
      <trkpt lat="48.73242" lon="7.34654">
        <ele>309.9</ele>
        <time>2026-03-12T15:21:46Z</time>
      </trkpt>
      <trkpt lat="48.73236" lon="7.34654">
        <ele>309.9</ele>
        <time>2026-03-12T15:21:51Z</time>
      </trkpt>
      <trkpt lat="48.73232" lon="7.34654">
        <ele>309.9</ele>
        <time>2026-03-12T15:21:56Z</time>
      </trkpt>
      <trkpt lat="48.73231" lon="7.34651">
        <ele>310</ele>
        <time>2026-03-12T15:22:01Z</time>
      </trkpt>
      <trkpt lat="48.7323" lon="7.34649">
        <ele>310.1</ele>
        <time>2026-03-12T15:22:06Z</time>
      </trkpt>
      <trkpt lat="48.7323" lon="7.34649">
        <ele>310.1</ele>
        <time>2026-03-12T15:22:11Z</time>
      </trkpt>
      <trkpt lat="48.73224" lon="7.34642">
        <ele>310.5</ele>
        <time>2026-03-12T15:22:16Z</time>
      </trkpt>
      <trkpt lat="48.73218" lon="7.34638">
        <ele>311</ele>
        <time>2026-03-12T15:22:21Z</time>
      </trkpt>
      <trkpt lat="48.73214" lon="7.34633">
        <ele>311.5</ele>
        <time>2026-03-12T15:22:26Z</time>
      </trkpt>
      <trkpt lat="48.73211" lon="7.34627">
        <ele>312.2</ele>
        <time>2026-03-12T15:22:31Z</time>
      </trkpt>
      <trkpt lat="48.73208" lon="7.34622">
        <ele>312.8</ele>
        <time>2026-03-12T15:22:36Z</time>
      </trkpt>
      <trkpt lat="48.73204" lon="7.34619">
        <ele>313.4</ele>
        <time>2026-03-12T15:22:41Z</time>
      </trkpt>
      <trkpt lat="48.73198" lon="7.34616">
        <ele>314.2</ele>
        <time>2026-03-12T15:22:46Z</time>
      </trkpt>
      <trkpt lat="48.73194" lon="7.34613">
        <ele>314.9</ele>
        <time>2026-03-12T15:22:51Z</time>
      </trkpt>
      <trkpt lat="48.73191" lon="7.34611">
        <ele>315.4</ele>
        <time>2026-03-12T15:22:56Z</time>
      </trkpt>
      <trkpt lat="48.73188" lon="7.34609">
        <ele>316</ele>
        <time>2026-03-12T15:23:01Z</time>
      </trkpt>
      <trkpt lat="48.73184" lon="7.34606">
        <ele>316.8</ele>
        <time>2026-03-12T15:23:06Z</time>
      </trkpt>
      <trkpt lat="48.73181" lon="7.34604">
        <ele>317.5</ele>
        <time>2026-03-12T15:23:11Z</time>
      </trkpt>
      <trkpt lat="48.73176" lon="7.34599">
        <ele>318.9</ele>
        <time>2026-03-12T15:23:16Z</time>
      </trkpt>
      <trkpt lat="48.73172" lon="7.34593">
        <ele>320.4</ele>
        <time>2026-03-12T15:23:21Z</time>
      </trkpt>
      <trkpt lat="48.73169" lon="7.34588">
        <ele>321.8</ele>
        <time>2026-03-12T15:23:26Z</time>
      </trkpt>
      <trkpt lat="48.73165" lon="7.34584">
        <ele>322.8</ele>
        <time>2026-03-12T15:23:31Z</time>
      </trkpt>
      <trkpt lat="48.73163" lon="7.34579">
        <ele>323.1</ele>
        <time>2026-03-12T15:23:36Z</time>
      </trkpt>
      <trkpt lat="48.7316" lon="7.34573">
        <ele>323.4</ele>
        <time>2026-03-12T15:23:41Z</time>
      </trkpt>
      <trkpt lat="48.73157" lon="7.34566">
        <ele>323.9</ele>
        <time>2026-03-12T15:23:46Z</time>
      </trkpt>
      <trkpt lat="48.73154" lon="7.34564">
        <ele>324</ele>
        <time>2026-03-12T15:23:51Z</time>
      </trkpt>
      <trkpt lat="48.73149" lon="7.34557">
        <ele>324.6</ele>
        <time>2026-03-12T15:23:56Z</time>
      </trkpt>
      <trkpt lat="48.73146" lon="7.34554">
        <ele>324.9</ele>
        <time>2026-03-12T15:24:01Z</time>
      </trkpt>
      <trkpt lat="48.73143" lon="7.34545">
        <ele>326</ele>
        <time>2026-03-12T15:24:06Z</time>
      </trkpt>
      <trkpt lat="48.73138" lon="7.34541">
        <ele>326.6</ele>
        <time>2026-03-12T15:24:11Z</time>
      </trkpt>
      <trkpt lat="48.73135" lon="7.34535">
        <ele>327.5</ele>
        <time>2026-03-12T15:24:16Z</time>
      </trkpt>
      <trkpt lat="48.73131" lon="7.3453">
        <ele>328.4</ele>
        <time>2026-03-12T15:24:21Z</time>
      </trkpt>
      <trkpt lat="48.73129" lon="7.34527">
        <ele>328.9</ele>
        <time>2026-03-12T15:24:26Z</time>
      </trkpt>
      <trkpt lat="48.73124" lon="7.34525">
        <ele>329.5</ele>
        <time>2026-03-12T15:24:31Z</time>
      </trkpt>
      <trkpt lat="48.73121" lon="7.34521">
        <ele>330.3</ele>
        <time>2026-03-12T15:24:36Z</time>
      </trkpt>
      <trkpt lat="48.73121" lon="7.34516">
        <ele>331.2</ele>
        <time>2026-03-12T15:24:41Z</time>
      </trkpt>
      <trkpt lat="48.73117" lon="7.34511">
        <ele>332.4</ele>
        <time>2026-03-12T15:24:46Z</time>
      </trkpt>
      <trkpt lat="48.73115" lon="7.34508">
        <ele>333.1</ele>
        <time>2026-03-12T15:24:51Z</time>
      </trkpt>
      <trkpt lat="48.73111" lon="7.34505">
        <ele>334.1</ele>
        <time>2026-03-12T15:24:56Z</time>
      </trkpt>
      <trkpt lat="48.73108" lon="7.34502">
        <ele>334.9</ele>
        <time>2026-03-12T15:25:01Z</time>
      </trkpt>
      <trkpt lat="48.73106" lon="7.345">
        <ele>335.6</ele>
        <time>2026-03-12T15:25:06Z</time>
      </trkpt>
      <trkpt lat="48.73101" lon="7.34499">
        <ele>336.1</ele>
        <time>2026-03-12T15:25:11Z</time>
      </trkpt>
      <trkpt lat="48.73097" lon="7.34493">
        <ele>336.8</ele>
        <time>2026-03-12T15:25:16Z</time>
      </trkpt>
      <trkpt lat="48.73095" lon="7.34487">
        <ele>337.2</ele>
        <time>2026-03-12T15:25:21Z</time>
      </trkpt>
      <trkpt lat="48.73092" lon="7.34484">
        <ele>337.7</ele>
        <time>2026-03-12T15:25:26Z</time>
      </trkpt>
      <trkpt lat="48.73088" lon="7.34481">
        <ele>338.5</ele>
        <time>2026-03-12T15:25:31Z</time>
      </trkpt>
      <trkpt lat="48.73084" lon="7.34479">
        <ele>339.2</ele>
        <time>2026-03-12T15:25:36Z</time>
      </trkpt>
      <trkpt lat="48.73083" lon="7.34477">
        <ele>339.4</ele>
        <time>2026-03-12T15:25:41Z</time>
      </trkpt>
      <trkpt lat="48.73081" lon="7.34479">
        <ele>339.3</ele>
        <time>2026-03-12T15:25:46Z</time>
      </trkpt>
      <trkpt lat="48.73081" lon="7.34479">
        <ele>339.3</ele>
        <time>2026-03-12T15:25:51Z</time>
      </trkpt>
      <trkpt lat="48.73081" lon="7.34479">
        <ele>339.3</ele>
        <time>2026-03-12T15:25:56Z</time>
      </trkpt>
      <trkpt lat="48.73081" lon="7.34479">
        <ele>339.3</ele>
        <time>2026-03-12T15:26:01Z</time>
      </trkpt>
      <trkpt lat="48.73081" lon="7.34479">
        <ele>339.3</ele>
        <time>2026-03-12T15:26:06Z</time>
      </trkpt>
      <trkpt lat="48.73081" lon="7.34479">
        <ele>339.3</ele>
        <time>2026-03-12T15:26:11Z</time>
      </trkpt>
      <trkpt lat="48.73081" lon="7.34479">
        <ele>339.3</ele>
        <time>2026-03-12T15:26:16Z</time>
      </trkpt>
      <trkpt lat="48.73079" lon="7.34476">
        <ele>339.6</ele>
        <time>2026-03-12T15:26:21Z</time>
      </trkpt>
      <trkpt lat="48.73076" lon="7.34471">
        <ele>340</ele>
        <time>2026-03-12T15:26:26Z</time>
      </trkpt>
      <trkpt lat="48.73069" lon="7.34463">
        <ele>340.9</ele>
        <time>2026-03-12T15:26:31Z</time>
      </trkpt>
      <trkpt lat="48.73062" lon="7.34459">
        <ele>341.6</ele>
        <time>2026-03-12T15:26:36Z</time>
      </trkpt>
      <trkpt lat="48.73058" lon="7.34456">
        <ele>342.1</ele>
        <time>2026-03-12T15:26:41Z</time>
      </trkpt>
      <trkpt lat="48.73053" lon="7.34455">
        <ele>342.5</ele>
        <time>2026-03-12T15:26:46Z</time>
      </trkpt>
      <trkpt lat="48.73048" lon="7.34452">
        <ele>343.1</ele>
        <time>2026-03-12T15:26:51Z</time>
      </trkpt>
      <trkpt lat="48.73045" lon="7.34451">
        <ele>343.5</ele>
        <time>2026-03-12T15:26:56Z</time>
      </trkpt>
      <trkpt lat="48.73043" lon="7.3445">
        <ele>343.7</ele>
        <time>2026-03-12T15:27:01Z</time>
      </trkpt>
      <trkpt lat="48.7304" lon="7.34446">
        <ele>344.4</ele>
        <time>2026-03-12T15:27:06Z</time>
      </trkpt>
      <trkpt lat="48.7304" lon="7.34441">
        <ele>345.1</ele>
        <time>2026-03-12T15:27:11Z</time>
      </trkpt>
      <trkpt lat="48.73038" lon="7.34438">
        <ele>345.6</ele>
        <time>2026-03-12T15:27:16Z</time>
      </trkpt>
      <trkpt lat="48.73034" lon="7.34433">
        <ele>346.7</ele>
        <time>2026-03-12T15:27:21Z</time>
      </trkpt>
      <trkpt lat="48.73031" lon="7.34429">
        <ele>347.5</ele>
        <time>2026-03-12T15:27:26Z</time>
      </trkpt>
      <trkpt lat="48.73028" lon="7.34427">
        <ele>348.1</ele>
        <time>2026-03-12T15:27:31Z</time>
      </trkpt>
      <trkpt lat="48.73024" lon="7.34422">
        <ele>349.3</ele>
        <time>2026-03-12T15:27:36Z</time>
      </trkpt>
      <trkpt lat="48.73021" lon="7.34417">
        <ele>350.4</ele>
        <time>2026-03-12T15:27:41Z</time>
      </trkpt>
      <trkpt lat="48.73018" lon="7.34413">
        <ele>350.7</ele>
        <time>2026-03-12T15:27:46Z</time>
      </trkpt>
      <trkpt lat="48.73013" lon="7.34409">
        <ele>351.2</ele>
        <time>2026-03-12T15:27:51Z</time>
      </trkpt>
      <trkpt lat="48.73011" lon="7.34406">
        <ele>351.3</ele>
        <time>2026-03-12T15:27:56Z</time>
      </trkpt>
      <trkpt lat="48.73005" lon="7.34403">
        <ele>352.1</ele>
        <time>2026-03-12T15:28:01Z</time>
      </trkpt>
      <trkpt lat="48.73" lon="7.34399">
        <ele>352.8</ele>
        <time>2026-03-12T15:28:06Z</time>
      </trkpt>
      <trkpt lat="48.72995" lon="7.34394">
        <ele>353.2</ele>
        <time>2026-03-12T15:28:11Z</time>
      </trkpt>
      <trkpt lat="48.7299" lon="7.34391">
        <ele>353.6</ele>
        <time>2026-03-12T15:28:16Z</time>
      </trkpt>
      <trkpt lat="48.72986" lon="7.34389">
        <ele>354</ele>
        <time>2026-03-12T15:28:21Z</time>
      </trkpt>
      <trkpt lat="48.72983" lon="7.34386">
        <ele>354.4</ele>
        <time>2026-03-12T15:28:26Z</time>
      </trkpt>
      <trkpt lat="48.72978" lon="7.34381">
        <ele>355.1</ele>
        <time>2026-03-12T15:28:31Z</time>
      </trkpt>
      <trkpt lat="48.72973" lon="7.34378">
        <ele>355.8</ele>
        <time>2026-03-12T15:28:36Z</time>
      </trkpt>
      <trkpt lat="48.72972" lon="7.34376">
        <ele>356</ele>
        <time>2026-03-12T15:28:41Z</time>
      </trkpt>
      <trkpt lat="48.72973" lon="7.34374">
        <ele>355.9</ele>
        <time>2026-03-12T15:28:46Z</time>
      </trkpt>
      <trkpt lat="48.72973" lon="7.34374">
        <ele>355.9</ele>
        <time>2026-03-12T15:28:51Z</time>
      </trkpt>
      <trkpt lat="48.72973" lon="7.34374">
        <ele>355.9</ele>
        <time>2026-03-12T15:28:56Z</time>
      </trkpt>
      <trkpt lat="48.72973" lon="7.34374">
        <ele>355.9</ele>
        <time>2026-03-12T15:29:01Z</time>
      </trkpt>
      <trkpt lat="48.72973" lon="7.34374">
        <ele>355.9</ele>
        <time>2026-03-12T15:29:06Z</time>
      </trkpt>
      <trkpt lat="48.7297" lon="7.3438">
        <ele>356</ele>
        <time>2026-03-12T15:29:11Z</time>
      </trkpt>
      <trkpt lat="48.72965" lon="7.34376">
        <ele>356.8</ele>
        <time>2026-03-12T15:29:16Z</time>
      </trkpt>
      <trkpt lat="48.7296" lon="7.34374">
        <ele>357.6</ele>
        <time>2026-03-12T15:29:21Z</time>
      </trkpt>
      <trkpt lat="48.72953" lon="7.34371">
        <ele>358.8</ele>
        <time>2026-03-12T15:29:26Z</time>
      </trkpt>
      <trkpt lat="48.7295" lon="7.3437">
        <ele>359.3</ele>
        <time>2026-03-12T15:29:31Z</time>
      </trkpt>
      <trkpt lat="48.72944" lon="7.34367">
        <ele>360.4</ele>
        <time>2026-03-12T15:29:36Z</time>
      </trkpt>
      <trkpt lat="48.72941" lon="7.34363">
        <ele>361.3</ele>
        <time>2026-03-12T15:29:41Z</time>
      </trkpt>
      <trkpt lat="48.72938" lon="7.34355">
        <ele>362.8</ele>
        <time>2026-03-12T15:29:46Z</time>
      </trkpt>
      <trkpt lat="48.72934" lon="7.3435">
        <ele>364.1</ele>
        <time>2026-03-12T15:29:51Z</time>
      </trkpt>
      <trkpt lat="48.72931" lon="7.34345">
        <ele>365.3</ele>
        <time>2026-03-12T15:29:56Z</time>
      </trkpt>
      <trkpt lat="48.72928" lon="7.34343">
        <ele>366.2</ele>
        <time>2026-03-12T15:30:01Z</time>
      </trkpt>
      <trkpt lat="48.72926" lon="7.34343">
        <ele>366.6</ele>
        <time>2026-03-12T15:30:06Z</time>
      </trkpt>
      <trkpt lat="48.72925" lon="7.34342">
        <ele>366.9</ele>
        <time>2026-03-12T15:30:11Z</time>
      </trkpt>
      <trkpt lat="48.7292" lon="7.34337">
        <ele>368.7</ele>
        <time>2026-03-12T15:30:16Z</time>
      </trkpt>
      <trkpt lat="48.72915" lon="7.34333">
        <ele>370</ele>
        <time>2026-03-12T15:30:21Z</time>
      </trkpt>
      <trkpt lat="48.72911" lon="7.3433">
        <ele>370.1</ele>
        <time>2026-03-12T15:30:26Z</time>
      </trkpt>
      <trkpt lat="48.72907" lon="7.34328">
        <ele>370.2</ele>
        <time>2026-03-12T15:30:31Z</time>
      </trkpt>
      <trkpt lat="48.72904" lon="7.34326">
        <ele>370.3</ele>
        <time>2026-03-12T15:30:36Z</time>
      </trkpt>
      <trkpt lat="48.729" lon="7.34325">
        <ele>370.5</ele>
        <time>2026-03-12T15:30:41Z</time>
      </trkpt>
      <trkpt lat="48.72898" lon="7.34323">
        <ele>370.6</ele>
        <time>2026-03-12T15:30:46Z</time>
      </trkpt>
      <trkpt lat="48.72896" lon="7.34321">
        <ele>370.7</ele>
        <time>2026-03-12T15:30:51Z</time>
      </trkpt>
      <trkpt lat="48.72894" lon="7.3432">
        <ele>370.8</ele>
        <time>2026-03-12T15:30:56Z</time>
      </trkpt>
      <trkpt lat="48.72894" lon="7.3432">
        <ele>370.8</ele>
        <time>2026-03-12T15:31:01Z</time>
      </trkpt>
      <trkpt lat="48.72884" lon="7.34322">
        <ele>371.1</ele>
        <time>2026-03-12T15:31:06Z</time>
      </trkpt>
      <trkpt lat="48.72879" lon="7.34326">
        <ele>371</ele>
        <time>2026-03-12T15:31:11Z</time>
      </trkpt>
      <trkpt lat="48.72876" lon="7.34329">
        <ele>370.8</ele>
        <time>2026-03-12T15:31:16Z</time>
      </trkpt>
      <trkpt lat="48.72873" lon="7.34332">
        <ele>370.6</ele>
        <time>2026-03-12T15:31:21Z</time>
      </trkpt>
      <trkpt lat="48.72871" lon="7.34334">
        <ele>370.4</ele>
        <time>2026-03-12T15:31:26Z</time>
      </trkpt>
      <trkpt lat="48.72869" lon="7.34335">
        <ele>370.1</ele>
        <time>2026-03-12T15:31:31Z</time>
      </trkpt>
      <trkpt lat="48.72865" lon="7.34343">
        <ele>368</ele>
        <time>2026-03-12T15:31:36Z</time>
      </trkpt>
      <trkpt lat="48.72862" lon="7.34348">
        <ele>366.6</ele>
        <time>2026-03-12T15:31:41Z</time>
      </trkpt>
      <trkpt lat="48.72859" lon="7.34355">
        <ele>364.5</ele>
        <time>2026-03-12T15:31:46Z</time>
      </trkpt>
      <trkpt lat="48.72855" lon="7.34358">
        <ele>363.5</ele>
        <time>2026-03-12T15:31:51Z</time>
      </trkpt>
      <trkpt lat="48.72851" lon="7.34359">
        <ele>363.1</ele>
        <time>2026-03-12T15:31:56Z</time>
      </trkpt>
      <trkpt lat="48.72847" lon="7.34362">
        <ele>362</ele>
        <time>2026-03-12T15:32:01Z</time>
      </trkpt>
      <trkpt lat="48.72843" lon="7.34367">
        <ele>360.2</ele>
        <time>2026-03-12T15:32:06Z</time>
      </trkpt>
      <trkpt lat="48.72837" lon="7.34368">
        <ele>359.6</ele>
        <time>2026-03-12T15:32:11Z</time>
      </trkpt>
      <trkpt lat="48.72833" lon="7.34367">
        <ele>359.6</ele>
        <time>2026-03-12T15:32:16Z</time>
      </trkpt>
      <trkpt lat="48.72831" lon="7.34369">
        <ele>358.3</ele>
        <time>2026-03-12T15:32:21Z</time>
      </trkpt>
      <trkpt lat="48.72827" lon="7.34369">
        <ele>357.2</ele>
        <time>2026-03-12T15:32:26Z</time>
      </trkpt>
      <trkpt lat="48.72824" lon="7.34365">
        <ele>357.7</ele>
        <time>2026-03-12T15:32:31Z</time>
      </trkpt>
      <trkpt lat="48.7282" lon="7.34359">
        <ele>358.5</ele>
        <time>2026-03-12T15:32:36Z</time>
      </trkpt>
      <trkpt lat="48.72818" lon="7.34356">
        <ele>359</ele>
        <time>2026-03-12T15:32:41Z</time>
      </trkpt>
      <trkpt lat="48.72816" lon="7.34354">
        <ele>359.1</ele>
        <time>2026-03-12T15:32:46Z</time>
      </trkpt>
      <trkpt lat="48.72812" lon="7.3435">
        <ele>359.4</ele>
        <time>2026-03-12T15:32:51Z</time>
      </trkpt>
      <trkpt lat="48.72808" lon="7.34348">
        <ele>358.9</ele>
        <time>2026-03-12T15:32:56Z</time>
      </trkpt>
      <trkpt lat="48.72804" lon="7.34346">
        <ele>358.5</ele>
        <time>2026-03-12T15:33:01Z</time>
      </trkpt>
      <trkpt lat="48.72803" lon="7.34343">
        <ele>359.3</ele>
        <time>2026-03-12T15:33:06Z</time>
      </trkpt>
      <trkpt lat="48.72794" lon="7.3434">
        <ele>357.8</ele>
        <time>2026-03-12T15:33:11Z</time>
      </trkpt>
      <trkpt lat="48.72788" lon="7.34334">
        <ele>358.3</ele>
        <time>2026-03-12T15:33:16Z</time>
      </trkpt>
      <trkpt lat="48.72787" lon="7.34329">
        <ele>359.3</ele>
        <time>2026-03-12T15:33:21Z</time>
      </trkpt>
      <trkpt lat="48.72788" lon="7.34324">
        <ele>360.7</ele>
        <time>2026-03-12T15:33:26Z</time>
      </trkpt>
      <trkpt lat="48.7279" lon="7.34318">
        <ele>362.7</ele>
        <time>2026-03-12T15:33:31Z</time>
      </trkpt>
      <trkpt lat="48.7279" lon="7.34311">
        <ele>364.3</ele>
        <time>2026-03-12T15:33:36Z</time>
      </trkpt>
      <trkpt lat="48.72792" lon="7.34305">
        <ele>366.2</ele>
        <time>2026-03-12T15:33:41Z</time>
      </trkpt>
      <trkpt lat="48.72792" lon="7.343">
        <ele>367.4</ele>
        <time>2026-03-12T15:33:46Z</time>
      </trkpt>
      <trkpt lat="48.72793" lon="7.34294">
        <ele>369</ele>
        <time>2026-03-12T15:33:51Z</time>
      </trkpt>
      <trkpt lat="48.72791" lon="7.34288">
        <ele>370</ele>
        <time>2026-03-12T15:33:56Z</time>
      </trkpt>
      <trkpt lat="48.7279" lon="7.34282">
        <ele>371.2</ele>
        <time>2026-03-12T15:34:01Z</time>
      </trkpt>
      <trkpt lat="48.72789" lon="7.34276">
        <ele>372.5</ele>
        <time>2026-03-12T15:34:06Z</time>
      </trkpt>
      <trkpt lat="48.72786" lon="7.34271">
        <ele>373.2</ele>
        <time>2026-03-12T15:34:11Z</time>
      </trkpt>
      <trkpt lat="48.72783" lon="7.34264">
        <ele>374.5</ele>
        <time>2026-03-12T15:34:16Z</time>
      </trkpt>
      <trkpt lat="48.72781" lon="7.34258">
        <ele>375.7</ele>
        <time>2026-03-12T15:34:21Z</time>
      </trkpt>
      <trkpt lat="48.72777" lon="7.34252">
        <ele>376.7</ele>
        <time>2026-03-12T15:34:26Z</time>
      </trkpt>
      <trkpt lat="48.72773" lon="7.34246">
        <ele>377.7</ele>
        <time>2026-03-12T15:34:31Z</time>
      </trkpt>
      <trkpt lat="48.72772" lon="7.34242">
        <ele>378.5</ele>
        <time>2026-03-12T15:34:36Z</time>
      </trkpt>
      <trkpt lat="48.72771" lon="7.34239">
        <ele>379.1</ele>
        <time>2026-03-12T15:34:41Z</time>
      </trkpt>
      <trkpt lat="48.72769" lon="7.34232">
        <ele>380.6</ele>
        <time>2026-03-12T15:34:46Z</time>
      </trkpt>
      <trkpt lat="48.72767" lon="7.34226">
        <ele>381.9</ele>
        <time>2026-03-12T15:34:51Z</time>
      </trkpt>
      <trkpt lat="48.72767" lon="7.34218">
        <ele>383.8</ele>
        <time>2026-03-12T15:34:56Z</time>
      </trkpt>
      <trkpt lat="48.72765" lon="7.34211">
        <ele>385.5</ele>
        <time>2026-03-12T15:35:01Z</time>
      </trkpt>
      <trkpt lat="48.72762" lon="7.34205">
        <ele>387</ele>
        <time>2026-03-12T15:35:06Z</time>
      </trkpt>
      <trkpt lat="48.72761" lon="7.34196">
        <ele>389.3</ele>
        <time>2026-03-12T15:35:11Z</time>
      </trkpt>
      <trkpt lat="48.72757" lon="7.34191">
        <ele>390.8</ele>
        <time>2026-03-12T15:35:16Z</time>
      </trkpt>
      <trkpt lat="48.72755" lon="7.34186">
        <ele>392.2</ele>
        <time>2026-03-12T15:35:21Z</time>
      </trkpt>
      <trkpt lat="48.72754" lon="7.34182">
        <ele>393.4</ele>
        <time>2026-03-12T15:35:26Z</time>
      </trkpt>
      <trkpt lat="48.72751" lon="7.34176">
        <ele>395.2</ele>
        <time>2026-03-12T15:35:31Z</time>
      </trkpt>
      <trkpt lat="48.72748" lon="7.3417">
        <ele>396.5</ele>
        <time>2026-03-12T15:35:36Z</time>
      </trkpt>
      <trkpt lat="48.72746" lon="7.34164">
        <ele>397.4</ele>
        <time>2026-03-12T15:35:41Z</time>
      </trkpt>
      <trkpt lat="48.72746" lon="7.34158">
        <ele>398.2</ele>
        <time>2026-03-12T15:35:46Z</time>
      </trkpt>
      <trkpt lat="48.72742" lon="7.34152">
        <ele>398.1</ele>
        <time>2026-03-12T15:35:51Z</time>
      </trkpt>
      <trkpt lat="48.72742" lon="7.34146">
        <ele>399</ele>
        <time>2026-03-12T15:35:56Z</time>
      </trkpt>
      <trkpt lat="48.72737" lon="7.34141">
        <ele>398.6</ele>
        <time>2026-03-12T15:36:01Z</time>
      </trkpt>
      <trkpt lat="48.72734" lon="7.34135">
        <ele>398.9</ele>
        <time>2026-03-12T15:36:06Z</time>
      </trkpt>
      <trkpt lat="48.72733" lon="7.34126">
        <ele>400.1</ele>
        <time>2026-03-12T15:36:11Z</time>
      </trkpt>
      <trkpt lat="48.72733" lon="7.3412">
        <ele>401</ele>
        <time>2026-03-12T15:36:16Z</time>
      </trkpt>
      <trkpt lat="48.7273" lon="7.34114">
        <ele>401.4</ele>
        <time>2026-03-12T15:36:21Z</time>
      </trkpt>
      <trkpt lat="48.72727" lon="7.34111">
        <ele>401.4</ele>
        <time>2026-03-12T15:36:26Z</time>
      </trkpt>
      <trkpt lat="48.72725" lon="7.34106">
        <ele>401.9</ele>
        <time>2026-03-12T15:36:31Z</time>
      </trkpt>
      <trkpt lat="48.72721" lon="7.341">
        <ele>402.3</ele>
        <time>2026-03-12T15:36:36Z</time>
      </trkpt>
      <trkpt lat="48.72719" lon="7.34094">
        <ele>403</ele>
        <time>2026-03-12T15:36:41Z</time>
      </trkpt>
      <trkpt lat="48.72718" lon="7.34089">
        <ele>403.8</ele>
        <time>2026-03-12T15:36:46Z</time>
      </trkpt>
      <trkpt lat="48.72716" lon="7.34084">
        <ele>404.4</ele>
        <time>2026-03-12T15:36:51Z</time>
      </trkpt>
      <trkpt lat="48.72715" lon="7.34079">
        <ele>404.9</ele>
        <time>2026-03-12T15:36:56Z</time>
      </trkpt>
      <trkpt lat="48.72712" lon="7.34073">
        <ele>405.2</ele>
        <time>2026-03-12T15:37:01Z</time>
      </trkpt>
      <trkpt lat="48.72711" lon="7.34066">
        <ele>406</ele>
        <time>2026-03-12T15:37:06Z</time>
      </trkpt>
      <trkpt lat="48.72706" lon="7.3406">
        <ele>406.4</ele>
        <time>2026-03-12T15:37:11Z</time>
      </trkpt>
      <trkpt lat="48.72703" lon="7.34053">
        <ele>407.2</ele>
        <time>2026-03-12T15:37:16Z</time>
      </trkpt>
      <trkpt lat="48.727" lon="7.34048">
        <ele>407.8</ele>
        <time>2026-03-12T15:37:21Z</time>
      </trkpt>
      <trkpt lat="48.72697" lon="7.34043">
        <ele>408.5</ele>
        <time>2026-03-12T15:37:26Z</time>
      </trkpt>
      <trkpt lat="48.72697" lon="7.34037">
        <ele>409.5</ele>
        <time>2026-03-12T15:37:31Z</time>
      </trkpt>
      <trkpt lat="48.72693" lon="7.34034">
        <ele>409.9</ele>
        <time>2026-03-12T15:37:36Z</time>
      </trkpt>
      <trkpt lat="48.7269" lon="7.3403">
        <ele>410.7</ele>
        <time>2026-03-12T15:37:41Z</time>
      </trkpt>
      <trkpt lat="48.72688" lon="7.34027">
        <ele>411.2</ele>
        <time>2026-03-12T15:37:46Z</time>
      </trkpt>
      <trkpt lat="48.72686" lon="7.34024">
        <ele>411.8</ele>
        <time>2026-03-12T15:37:51Z</time>
      </trkpt>
      <trkpt lat="48.72685" lon="7.34017">
        <ele>413.2</ele>
        <time>2026-03-12T15:37:56Z</time>
      </trkpt>
      <trkpt lat="48.72681" lon="7.3401">
        <ele>414.8</ele>
        <time>2026-03-12T15:38:01Z</time>
      </trkpt>
      <trkpt lat="48.72679" lon="7.34002">
        <ele>416.5</ele>
        <time>2026-03-12T15:38:06Z</time>
      </trkpt>
      <trkpt lat="48.72678" lon="7.33994">
        <ele>417.3</ele>
        <time>2026-03-12T15:38:11Z</time>
      </trkpt>
      <trkpt lat="48.72676" lon="7.33987">
        <ele>417.8</ele>
        <time>2026-03-12T15:38:16Z</time>
      </trkpt>
      <trkpt lat="48.72672" lon="7.33984">
        <ele>418.4</ele>
        <time>2026-03-12T15:38:21Z</time>
      </trkpt>
      <trkpt lat="48.72668" lon="7.33979">
        <ele>419.1</ele>
        <time>2026-03-12T15:38:26Z</time>
      </trkpt>
      <trkpt lat="48.72664" lon="7.33975">
        <ele>419.2</ele>
        <time>2026-03-12T15:38:31Z</time>
      </trkpt>
      <trkpt lat="48.72663" lon="7.33972">
        <ele>419.3</ele>
        <time>2026-03-12T15:38:36Z</time>
      </trkpt>
      <trkpt lat="48.72661" lon="7.3397">
        <ele>419.2</ele>
        <time>2026-03-12T15:38:41Z</time>
      </trkpt>
      <trkpt lat="48.72661" lon="7.3397">
        <ele>419.2</ele>
        <time>2026-03-12T15:38:46Z</time>
      </trkpt>
      <trkpt lat="48.72661" lon="7.3397">
        <ele>419.2</ele>
        <time>2026-03-12T15:38:51Z</time>
      </trkpt>
      <trkpt lat="48.72661" lon="7.3397">
        <ele>419.2</ele>
        <time>2026-03-12T15:38:56Z</time>
      </trkpt>
      <trkpt lat="48.72661" lon="7.3397">
        <ele>419.2</ele>
        <time>2026-03-12T15:39:01Z</time>
      </trkpt>
      <trkpt lat="48.72661" lon="7.3397">
        <ele>419.2</ele>
        <time>2026-03-12T15:39:06Z</time>
      </trkpt>
      <trkpt lat="48.72661" lon="7.3397">
        <ele>419.2</ele>
        <time>2026-03-12T15:39:11Z</time>
      </trkpt>
      <trkpt lat="48.72661" lon="7.3397">
        <ele>419.2</ele>
        <time>2026-03-12T15:39:16Z</time>
      </trkpt>
      <trkpt lat="48.72665" lon="7.33984">
        <ele>418.7</ele>
        <time>2026-03-12T15:39:21Z</time>
      </trkpt>
      <trkpt lat="48.72667" lon="7.33991">
        <ele>418.5</ele>
        <time>2026-03-12T15:39:26Z</time>
      </trkpt>
      <trkpt lat="48.7267" lon="7.33994">
        <ele>418</ele>
        <time>2026-03-12T15:39:31Z</time>
      </trkpt>
      <trkpt lat="48.7267" lon="7.33994">
        <ele>418</ele>
        <time>2026-03-12T15:39:36Z</time>
      </trkpt>
      <trkpt lat="48.7267" lon="7.33994">
        <ele>418</ele>
        <time>2026-03-12T15:39:41Z</time>
      </trkpt>
      <trkpt lat="48.7267" lon="7.33994">
        <ele>418</ele>
        <time>2026-03-12T15:39:46Z</time>
      </trkpt>
      <trkpt lat="48.7267" lon="7.33994">
        <ele>418</ele>
        <time>2026-03-12T15:39:51Z</time>
      </trkpt>
      <trkpt lat="48.72669" lon="7.34001">
        <ele>417.6</ele>
        <time>2026-03-12T15:39:56Z</time>
      </trkpt>
      <trkpt lat="48.72667" lon="7.34007">
        <ele>416.3</ele>
        <time>2026-03-12T15:40:01Z</time>
      </trkpt>
      <trkpt lat="48.72666" lon="7.34013">
        <ele>414.8</ele>
        <time>2026-03-12T15:40:06Z</time>
      </trkpt>
      <trkpt lat="48.72663" lon="7.34017">
        <ele>413.3</ele>
        <time>2026-03-12T15:40:11Z</time>
      </trkpt>
      <trkpt lat="48.72662" lon="7.34024">
        <ele>411.5</ele>
        <time>2026-03-12T15:40:16Z</time>
      </trkpt>
      <trkpt lat="48.72662" lon="7.3403">
        <ele>410</ele>
        <time>2026-03-12T15:40:21Z</time>
      </trkpt>
      <trkpt lat="48.72662" lon="7.34036">
        <ele>408.6</ele>
        <time>2026-03-12T15:40:26Z</time>
      </trkpt>
      <trkpt lat="48.72662" lon="7.34043">
        <ele>406.9</ele>
        <time>2026-03-12T15:40:31Z</time>
      </trkpt>
      <trkpt lat="48.72661" lon="7.34049">
        <ele>405.3</ele>
        <time>2026-03-12T15:40:36Z</time>
      </trkpt>
      <trkpt lat="48.72659" lon="7.34055">
        <ele>403.5</ele>
        <time>2026-03-12T15:40:41Z</time>
      </trkpt>
      <trkpt lat="48.72656" lon="7.34061">
        <ele>401.6</ele>
        <time>2026-03-12T15:40:46Z</time>
      </trkpt>
      <trkpt lat="48.72654" lon="7.34064">
        <ele>400.5</ele>
        <time>2026-03-12T15:40:51Z</time>
      </trkpt>
      <trkpt lat="48.72651" lon="7.34066">
        <ele>399.5</ele>
        <time>2026-03-12T15:40:56Z</time>
      </trkpt>
      <trkpt lat="48.72645" lon="7.34067">
        <ele>398.3</ele>
        <time>2026-03-12T15:41:01Z</time>
      </trkpt>
      <trkpt lat="48.72639" lon="7.34064">
        <ele>398</ele>
        <time>2026-03-12T15:41:06Z</time>
      </trkpt>
      <trkpt lat="48.72633" lon="7.3406">
        <ele>397.9</ele>
        <time>2026-03-12T15:41:11Z</time>
      </trkpt>
      <trkpt lat="48.72628" lon="7.34053">
        <ele>398.8</ele>
        <time>2026-03-12T15:41:16Z</time>
      </trkpt>
      <trkpt lat="48.72626" lon="7.34048">
        <ele>399.6</ele>
        <time>2026-03-12T15:41:21Z</time>
      </trkpt>
      <trkpt lat="48.72622" lon="7.34042">
        <ele>400.4</ele>
        <time>2026-03-12T15:41:26Z</time>
      </trkpt>
      <trkpt lat="48.72618" lon="7.34037">
        <ele>400.9</ele>
        <time>2026-03-12T15:41:31Z</time>
      </trkpt>
      <trkpt lat="48.72614" lon="7.34031">
        <ele>401.7</ele>
        <time>2026-03-12T15:41:36Z</time>
      </trkpt>
      <trkpt lat="48.72609" lon="7.34027">
        <ele>401.8</ele>
        <time>2026-03-12T15:41:41Z</time>
      </trkpt>
      <trkpt lat="48.72606" lon="7.34022">
        <ele>402.5</ele>
        <time>2026-03-12T15:41:46Z</time>
      </trkpt>
      <trkpt lat="48.72603" lon="7.3402">
        <ele>402.5</ele>
        <time>2026-03-12T15:41:51Z</time>
      </trkpt>
      <trkpt lat="48.726" lon="7.34016">
        <ele>403</ele>
        <time>2026-03-12T15:41:56Z</time>
      </trkpt>
      <trkpt lat="48.72596" lon="7.34015">
        <ele>402.5</ele>
        <time>2026-03-12T15:42:01Z</time>
      </trkpt>
      <trkpt lat="48.72594" lon="7.34011">
        <ele>403.2</ele>
        <time>2026-03-12T15:42:06Z</time>
      </trkpt>
      <trkpt lat="48.72592" lon="7.34009">
        <ele>403.3</ele>
        <time>2026-03-12T15:42:11Z</time>
      </trkpt>
      <trkpt lat="48.72589" lon="7.34006">
        <ele>403.5</ele>
        <time>2026-03-12T15:42:16Z</time>
      </trkpt>
      <trkpt lat="48.72586" lon="7.34003">
        <ele>403.7</ele>
        <time>2026-03-12T15:42:21Z</time>
      </trkpt>
      <trkpt lat="48.72582" lon="7.34">
        <ele>403.6</ele>
        <time>2026-03-12T15:42:26Z</time>
      </trkpt>
      <trkpt lat="48.72579" lon="7.33995">
        <ele>404</ele>
        <time>2026-03-12T15:42:31Z</time>
      </trkpt>
      <trkpt lat="48.72576" lon="7.33992">
        <ele>403.9</ele>
        <time>2026-03-12T15:42:36Z</time>
      </trkpt>
      <trkpt lat="48.72573" lon="7.33989">
        <ele>403.9</ele>
        <time>2026-03-12T15:42:41Z</time>
      </trkpt>
      <trkpt lat="48.7257" lon="7.33987">
        <ele>403.5</ele>
        <time>2026-03-12T15:42:46Z</time>
      </trkpt>
      <trkpt lat="48.72569" lon="7.33982">
        <ele>404.5</ele>
        <time>2026-03-12T15:42:51Z</time>
      </trkpt>
      <trkpt lat="48.72568" lon="7.3398">
        <ele>404.7</ele>
        <time>2026-03-12T15:42:56Z</time>
      </trkpt>
      <trkpt lat="48.72563" lon="7.33978">
        <ele>403.9</ele>
        <time>2026-03-12T15:43:01Z</time>
      </trkpt>
      <trkpt lat="48.72562" lon="7.33972">
        <ele>405.2</ele>
        <time>2026-03-12T15:43:06Z</time>
      </trkpt>
      <trkpt lat="48.72561" lon="7.33972">
        <ele>404.9</ele>
        <time>2026-03-12T15:43:11Z</time>
      </trkpt>
      <trkpt lat="48.72561" lon="7.33972">
        <ele>404.9</ele>
        <time>2026-03-12T15:43:16Z</time>
      </trkpt>
      <trkpt lat="48.72561" lon="7.33972">
        <ele>404.9</ele>
        <time>2026-03-12T15:43:21Z</time>
      </trkpt>
      <trkpt lat="48.72551" lon="7.33969">
        <ele>403.1</ele>
        <time>2026-03-12T15:43:26Z</time>
      </trkpt>
      <trkpt lat="48.72547" lon="7.33968">
        <ele>402.3</ele>
        <time>2026-03-12T15:43:31Z</time>
      </trkpt>
      <trkpt lat="48.72545" lon="7.33965">
        <ele>402.6</ele>
        <time>2026-03-12T15:43:36Z</time>
      </trkpt>
      <trkpt lat="48.72546" lon="7.33958">
        <ele>404.7</ele>
        <time>2026-03-12T15:43:41Z</time>
      </trkpt>
      <trkpt lat="48.72544" lon="7.33954">
        <ele>405.2</ele>
        <time>2026-03-12T15:43:46Z</time>
      </trkpt>
      <trkpt lat="48.72544" lon="7.33951">
        <ele>406</ele>
        <time>2026-03-12T15:43:51Z</time>
      </trkpt>
      <trkpt lat="48.72544" lon="7.33951">
        <ele>406</ele>
        <time>2026-03-12T15:43:56Z</time>
      </trkpt>
      <trkpt lat="48.72551" lon="7.33951">
        <ele>407.7</ele>
        <time>2026-03-12T15:44:01Z</time>
      </trkpt>
      <trkpt lat="48.72556" lon="7.33953">
        <ele>408.5</ele>
        <time>2026-03-12T15:44:06Z</time>
      </trkpt>
      <trkpt lat="48.72558" lon="7.33957">
        <ele>408</ele>
        <time>2026-03-12T15:44:11Z</time>
      </trkpt>
      <trkpt lat="48.72559" lon="7.33958">
        <ele>408</ele>
        <time>2026-03-12T15:44:16Z</time>
      </trkpt>
      <trkpt lat="48.72564" lon="7.33954">
        <ele>410.2</ele>
        <time>2026-03-12T15:44:21Z</time>
      </trkpt>
      <trkpt lat="48.72569" lon="7.33948">
        <ele>413</ele>
        <time>2026-03-12T15:44:26Z</time>
      </trkpt>
      <trkpt lat="48.72572" lon="7.33944">
        <ele>414.7</ele>
        <time>2026-03-12T15:44:31Z</time>
      </trkpt>
      <trkpt lat="48.72568" lon="7.33941">
        <ele>414.4</ele>
        <time>2026-03-12T15:44:36Z</time>
      </trkpt>
      <trkpt lat="48.72566" lon="7.33943">
        <ele>413.5</ele>
        <time>2026-03-12T15:44:41Z</time>
      </trkpt>
      <trkpt lat="48.72566" lon="7.33943">
        <ele>413.5</ele>
        <time>2026-03-12T15:44:46Z</time>
      </trkpt>
      <trkpt lat="48.72566" lon="7.33943">
        <ele>413.5</ele>
        <time>2026-03-12T15:44:51Z</time>
      </trkpt>
      <trkpt lat="48.72566" lon="7.33943">
        <ele>413.5</ele>
        <time>2026-03-12T15:44:56Z</time>
      </trkpt>
      <trkpt lat="48.72566" lon="7.33943">
        <ele>413.5</ele>
        <time>2026-03-12T15:45:01Z</time>
      </trkpt>
      <trkpt lat="48.72566" lon="7.33943">
        <ele>413.5</ele>
        <time>2026-03-12T15:45:06Z</time>
      </trkpt>
      <trkpt lat="48.72559" lon="7.33951">
        <ele>409.7</ele>
        <time>2026-03-12T15:45:11Z</time>
      </trkpt>
      <trkpt lat="48.72555" lon="7.33956">
        <ele>407.5</ele>
        <time>2026-03-12T15:45:16Z</time>
      </trkpt>
      <trkpt lat="48.72551" lon="7.33962">
        <ele>404.9</ele>
        <time>2026-03-12T15:45:21Z</time>
      </trkpt>
      <trkpt lat="48.72548" lon="7.33962">
        <ele>404.1</ele>
        <time>2026-03-12T15:45:26Z</time>
      </trkpt>
      <trkpt lat="48.72548" lon="7.33962">
        <ele>404.1</ele>
        <time>2026-03-12T15:45:31Z</time>
      </trkpt>
      <trkpt lat="48.72548" lon="7.33962">
        <ele>404.1</ele>
        <time>2026-03-12T15:45:36Z</time>
      </trkpt>
      <trkpt lat="48.72548" lon="7.33962">
        <ele>404.1</ele>
        <time>2026-03-12T15:45:41Z</time>
      </trkpt>
      <trkpt lat="48.72548" lon="7.33962">
        <ele>404.1</ele>
        <time>2026-03-12T15:45:46Z</time>
      </trkpt>
      <trkpt lat="48.72543" lon="7.33966">
        <ele>401.8</ele>
        <time>2026-03-12T15:45:51Z</time>
      </trkpt>
      <trkpt lat="48.7254" lon="7.33962">
        <ele>402.1</ele>
        <time>2026-03-12T15:45:56Z</time>
      </trkpt>
      <trkpt lat="48.72538" lon="7.33962">
        <ele>401.6</ele>
        <time>2026-03-12T15:46:01Z</time>
      </trkpt>
      <trkpt lat="48.72536" lon="7.33959">
        <ele>401.9</ele>
        <time>2026-03-12T15:46:06Z</time>
      </trkpt>
      <trkpt lat="48.72535" lon="7.33949">
        <ele>404.3</ele>
        <time>2026-03-12T15:46:11Z</time>
      </trkpt>
      <trkpt lat="48.72534" lon="7.33945">
        <ele>405.1</ele>
        <time>2026-03-12T15:46:16Z</time>
      </trkpt>
      <trkpt lat="48.72534" lon="7.33945">
        <ele>405.1</ele>
        <time>2026-03-12T15:46:21Z</time>
      </trkpt>
      <trkpt lat="48.72536" lon="7.33939">
        <ele>407.2</ele>
        <time>2026-03-12T15:46:26Z</time>
      </trkpt>
      <trkpt lat="48.72535" lon="7.33937">
        <ele>407.5</ele>
        <time>2026-03-12T15:46:31Z</time>
      </trkpt>
      <trkpt lat="48.72535" lon="7.33937">
        <ele>407.5</ele>
        <time>2026-03-12T15:46:36Z</time>
      </trkpt>
      <trkpt lat="48.72531" lon="7.33934">
        <ele>407.4</ele>
        <time>2026-03-12T15:46:41Z</time>
      </trkpt>
      <trkpt lat="48.7253" lon="7.3393">
        <ele>408.2</ele>
        <time>2026-03-12T15:46:46Z</time>
      </trkpt>
      <trkpt lat="48.72528" lon="7.33923">
        <ele>409.7</ele>
        <time>2026-03-12T15:46:51Z</time>
      </trkpt>
      <trkpt lat="48.72522" lon="7.33922">
        <ele>408.5</ele>
        <time>2026-03-12T15:46:56Z</time>
      </trkpt>
      <trkpt lat="48.72519" lon="7.33917">
        <ele>409.2</ele>
        <time>2026-03-12T15:47:01Z</time>
      </trkpt>
      <trkpt lat="48.72517" lon="7.33906">
        <ele>411.1</ele>
        <time>2026-03-12T15:47:06Z</time>
      </trkpt>
      <trkpt lat="48.72514" lon="7.33901">
        <ele>411.5</ele>
        <time>2026-03-12T15:47:11Z</time>
      </trkpt>
      <trkpt lat="48.72509" lon="7.33895">
        <ele>411.9</ele>
        <time>2026-03-12T15:47:16Z</time>
      </trkpt>
      <trkpt lat="48.72507" lon="7.33889">
        <ele>412.9</ele>
        <time>2026-03-12T15:47:21Z</time>
      </trkpt>
      <trkpt lat="48.72504" lon="7.33886">
        <ele>413</ele>
        <time>2026-03-12T15:47:26Z</time>
      </trkpt>
      <trkpt lat="48.72499" lon="7.33886">
        <ele>412.1</ele>
        <time>2026-03-12T15:47:31Z</time>
      </trkpt>
      <trkpt lat="48.72493" lon="7.33886">
        <ele>410.6</ele>
        <time>2026-03-12T15:47:36Z</time>
      </trkpt>
      <trkpt lat="48.72488" lon="7.33883">
        <ele>410.1</ele>
        <time>2026-03-12T15:47:41Z</time>
      </trkpt>
      <trkpt lat="48.72489" lon="7.33875">
        <ele>412.3</ele>
        <time>2026-03-12T15:47:46Z</time>
      </trkpt>
      <trkpt lat="48.72489" lon="7.33872">
        <ele>413</ele>
        <time>2026-03-12T15:47:51Z</time>
      </trkpt>
      <trkpt lat="48.72489" lon="7.33872">
        <ele>413</ele>
        <time>2026-03-12T15:47:56Z</time>
      </trkpt>
      <trkpt lat="48.72483" lon="7.33869">
        <ele>412.3</ele>
        <time>2026-03-12T15:48:01Z</time>
      </trkpt>
      <trkpt lat="48.72476" lon="7.33866">
        <ele>411.3</ele>
        <time>2026-03-12T15:48:06Z</time>
      </trkpt>
      <trkpt lat="48.72475" lon="7.33867">
        <ele>410.9</ele>
        <time>2026-03-12T15:48:11Z</time>
      </trkpt>
      <trkpt lat="48.72475" lon="7.33867">
        <ele>410.9</ele>
        <time>2026-03-12T15:48:16Z</time>
      </trkpt>
      <trkpt lat="48.72475" lon="7.33867">
        <ele>410.9</ele>
        <time>2026-03-12T15:48:21Z</time>
      </trkpt>
      <trkpt lat="48.72475" lon="7.33872">
        <ele>409.6</ele>
        <time>2026-03-12T15:48:26Z</time>
      </trkpt>
      <trkpt lat="48.7247" lon="7.33868">
        <ele>409.4</ele>
        <time>2026-03-12T15:48:31Z</time>
      </trkpt>
      <trkpt lat="48.72468" lon="7.33862">
        <ele>410.4</ele>
        <time>2026-03-12T15:48:36Z</time>
      </trkpt>
      <trkpt lat="48.72462" lon="7.3386">
        <ele>409.5</ele>
        <time>2026-03-12T15:48:41Z</time>
      </trkpt>
      <trkpt lat="48.72457" lon="7.33856">
        <ele>409.3</ele>
        <time>2026-03-12T15:48:46Z</time>
      </trkpt>
      <trkpt lat="48.72453" lon="7.33853">
        <ele>409.2</ele>
        <time>2026-03-12T15:48:51Z</time>
      </trkpt>
      <trkpt lat="48.7245" lon="7.33852">
        <ele>408.7</ele>
        <time>2026-03-12T15:48:56Z</time>
      </trkpt>
      <trkpt lat="48.7245" lon="7.33852">
        <ele>408.7</ele>
        <time>2026-03-12T15:49:01Z</time>
      </trkpt>
      <trkpt lat="48.7245" lon="7.33852">
        <ele>408.7</ele>
        <time>2026-03-12T15:49:06Z</time>
      </trkpt>
      <trkpt lat="48.7245" lon="7.33852">
        <ele>408.7</ele>
        <time>2026-03-12T15:49:11Z</time>
      </trkpt>
      <trkpt lat="48.7245" lon="7.33852">
        <ele>408.7</ele>
        <time>2026-03-12T15:49:16Z</time>
      </trkpt>
      <trkpt lat="48.7245" lon="7.33852">
        <ele>408.7</ele>
        <time>2026-03-12T15:49:21Z</time>
      </trkpt>
      <trkpt lat="48.72453" lon="7.33843">
        <ele>411.8</ele>
        <time>2026-03-12T15:49:26Z</time>
      </trkpt>
      <trkpt lat="48.72448" lon="7.33835">
        <ele>412.7</ele>
        <time>2026-03-12T15:49:31Z</time>
      </trkpt>
      <trkpt lat="48.72442" lon="7.33834">
        <ele>411.6</ele>
        <time>2026-03-12T15:49:36Z</time>
      </trkpt>
      <trkpt lat="48.72437" lon="7.33829">
        <ele>411.5</ele>
        <time>2026-03-12T15:49:41Z</time>
      </trkpt>
      <trkpt lat="48.72434" lon="7.33824">
        <ele>411.9</ele>
        <time>2026-03-12T15:49:46Z</time>
      </trkpt>
      <trkpt lat="48.72436" lon="7.3382">
        <ele>413.2</ele>
        <time>2026-03-12T15:49:51Z</time>
      </trkpt>
      <trkpt lat="48.72436" lon="7.33815">
        <ele>414.2</ele>
        <time>2026-03-12T15:49:56Z</time>
      </trkpt>
      <trkpt lat="48.7243" lon="7.33808">
        <ele>414.6</ele>
        <time>2026-03-12T15:50:01Z</time>
      </trkpt>
      <trkpt lat="48.72424" lon="7.33803">
        <ele>414.6</ele>
        <time>2026-03-12T15:50:06Z</time>
      </trkpt>
      <trkpt lat="48.72417" lon="7.338">
        <ele>414.1</ele>
        <time>2026-03-12T15:50:11Z</time>
      </trkpt>
      <trkpt lat="48.72412" lon="7.338">
        <ele>413.3</ele>
        <time>2026-03-12T15:50:16Z</time>
      </trkpt>
      <trkpt lat="48.7241" lon="7.33795">
        <ele>414.2</ele>
        <time>2026-03-12T15:50:21Z</time>
      </trkpt>
      <trkpt lat="48.72403" lon="7.33786">
        <ele>415.5</ele>
        <time>2026-03-12T15:50:26Z</time>
      </trkpt>
      <trkpt lat="48.72397" lon="7.33787">
        <ele>414.4</ele>
        <time>2026-03-12T15:50:31Z</time>
      </trkpt>
      <trkpt lat="48.72393" lon="7.33784">
        <ele>414.6</ele>
        <time>2026-03-12T15:50:36Z</time>
      </trkpt>
      <trkpt lat="48.7239" lon="7.33777">
        <ele>416</ele>
        <time>2026-03-12T15:50:41Z</time>
      </trkpt>
      <trkpt lat="48.72385" lon="7.33771">
        <ele>417</ele>
        <time>2026-03-12T15:50:46Z</time>
      </trkpt>
      <trkpt lat="48.72379" lon="7.33763">
        <ele>418.4</ele>
        <time>2026-03-12T15:50:51Z</time>
      </trkpt>
      <trkpt lat="48.72374" lon="7.3376">
        <ele>418.6</ele>
        <time>2026-03-12T15:50:56Z</time>
      </trkpt>
      <trkpt lat="48.72366" lon="7.33754">
        <ele>419.4</ele>
        <time>2026-03-12T15:51:01Z</time>
      </trkpt>
      <trkpt lat="48.72361" lon="7.33749">
        <ele>420.1</ele>
        <time>2026-03-12T15:51:06Z</time>
      </trkpt>
      <trkpt lat="48.72355" lon="7.3374">
        <ele>420.8</ele>
        <time>2026-03-12T15:51:11Z</time>
      </trkpt>
      <trkpt lat="48.72355" lon="7.33734">
        <ele>421.6</ele>
        <time>2026-03-12T15:51:16Z</time>
      </trkpt>
      <trkpt lat="48.7236" lon="7.33729">
        <ele>422.8</ele>
        <time>2026-03-12T15:51:21Z</time>
      </trkpt>
      <trkpt lat="48.7236" lon="7.33729">
        <ele>422.8</ele>
        <time>2026-03-12T15:51:26Z</time>
      </trkpt>
      <trkpt lat="48.7236" lon="7.33729">
        <ele>422.8</ele>
        <time>2026-03-12T15:51:31Z</time>
      </trkpt>
      <trkpt lat="48.72358" lon="7.33721">
        <ele>423.7</ele>
        <time>2026-03-12T15:51:36Z</time>
      </trkpt>
      <trkpt lat="48.72347" lon="7.33712">
        <ele>424.3</ele>
        <time>2026-03-12T15:51:41Z</time>
      </trkpt>
      <trkpt lat="48.72343" lon="7.33701">
        <ele>425.7</ele>
        <time>2026-03-12T15:51:46Z</time>
      </trkpt>
      <trkpt lat="48.72338" lon="7.33695">
        <ele>426.4</ele>
        <time>2026-03-12T15:51:51Z</time>
      </trkpt>
      <trkpt lat="48.72334" lon="7.3369">
        <ele>427.1</ele>
        <time>2026-03-12T15:51:56Z</time>
      </trkpt>
      <trkpt lat="48.7233" lon="7.33689">
        <ele>426.8</ele>
        <time>2026-03-12T15:52:01Z</time>
      </trkpt>
      <trkpt lat="48.72327" lon="7.3369">
        <ele>426.3</ele>
        <time>2026-03-12T15:52:06Z</time>
      </trkpt>
      <trkpt lat="48.72326" lon="7.3369">
        <ele>426.1</ele>
        <time>2026-03-12T15:52:11Z</time>
      </trkpt>
      <trkpt lat="48.72326" lon="7.3369">
        <ele>426.1</ele>
        <time>2026-03-12T15:52:16Z</time>
      </trkpt>
      <trkpt lat="48.72326" lon="7.3369">
        <ele>426.1</ele>
        <time>2026-03-12T15:52:21Z</time>
      </trkpt>
      <trkpt lat="48.72326" lon="7.3369">
        <ele>426.1</ele>
        <time>2026-03-12T15:52:26Z</time>
      </trkpt>
      <trkpt lat="48.72326" lon="7.3369">
        <ele>426.1</ele>
        <time>2026-03-12T15:52:31Z</time>
      </trkpt>
      <trkpt lat="48.72329" lon="7.33677">
        <ele>428.8</ele>
        <time>2026-03-12T15:52:36Z</time>
      </trkpt>
      <trkpt lat="48.72323" lon="7.33671">
        <ele>429.2</ele>
        <time>2026-03-12T15:52:41Z</time>
      </trkpt>
      <trkpt lat="48.72317" lon="7.33668">
        <ele>429.2</ele>
        <time>2026-03-12T15:52:46Z</time>
      </trkpt>
      <trkpt lat="48.72312" lon="7.33663">
        <ele>429</ele>
        <time>2026-03-12T15:52:51Z</time>
      </trkpt>
      <trkpt lat="48.72308" lon="7.33657">
        <ele>428.7</ele>
        <time>2026-03-12T15:52:56Z</time>
      </trkpt>
      <trkpt lat="48.72305" lon="7.33651">
        <ele>428.5</ele>
        <time>2026-03-12T15:53:01Z</time>
      </trkpt>
      <trkpt lat="48.72301" lon="7.33647">
        <ele>428.3</ele>
        <time>2026-03-12T15:53:06Z</time>
      </trkpt>
      <trkpt lat="48.72292" lon="7.33646">
        <ele>427.5</ele>
        <time>2026-03-12T15:53:11Z</time>
      </trkpt>
      <trkpt lat="48.72286" lon="7.33646">
        <ele>427</ele>
        <time>2026-03-12T15:53:16Z</time>
      </trkpt>
      <trkpt lat="48.72283" lon="7.33646">
        <ele>426.8</ele>
        <time>2026-03-12T15:53:21Z</time>
      </trkpt>
      <trkpt lat="48.72281" lon="7.33646">
        <ele>426.6</ele>
        <time>2026-03-12T15:53:26Z</time>
      </trkpt>
      <trkpt lat="48.72281" lon="7.33646">
        <ele>426.6</ele>
        <time>2026-03-12T15:53:31Z</time>
      </trkpt>
      <trkpt lat="48.72281" lon="7.33646">
        <ele>426.6</ele>
        <time>2026-03-12T15:53:36Z</time>
      </trkpt>
      <trkpt lat="48.72275" lon="7.33647">
        <ele>426.1</ele>
        <time>2026-03-12T15:53:41Z</time>
      </trkpt>
      <trkpt lat="48.72271" lon="7.33642">
        <ele>425.9</ele>
        <time>2026-03-12T15:53:46Z</time>
      </trkpt>
      <trkpt lat="48.72265" lon="7.33639">
        <ele>425.5</ele>
        <time>2026-03-12T15:53:51Z</time>
      </trkpt>
      <trkpt lat="48.72257" lon="7.33636">
        <ele>425</ele>
        <time>2026-03-12T15:53:56Z</time>
      </trkpt>
      <trkpt lat="48.72256" lon="7.33638">
        <ele>424.9</ele>
        <time>2026-03-12T15:54:01Z</time>
      </trkpt>
      <trkpt lat="48.72256" lon="7.33639">
        <ele>424.8</ele>
        <time>2026-03-12T15:54:06Z</time>
      </trkpt>
      <trkpt lat="48.72256" lon="7.33639">
        <ele>424.8</ele>
        <time>2026-03-12T15:54:11Z</time>
      </trkpt>
      <trkpt lat="48.72254" lon="7.33628">
        <ele>425.2</ele>
        <time>2026-03-12T15:54:16Z</time>
      </trkpt>
      <trkpt lat="48.72251" lon="7.33623">
        <ele>425.2</ele>
        <time>2026-03-12T15:54:21Z</time>
      </trkpt>
      <trkpt lat="48.72247" lon="7.33621">
        <ele>424.9</ele>
        <time>2026-03-12T15:54:26Z</time>
      </trkpt>
      <trkpt lat="48.72243" lon="7.33619">
        <ele>424.6</ele>
        <time>2026-03-12T15:54:31Z</time>
      </trkpt>
      <trkpt lat="48.7224" lon="7.33617">
        <ele>424.4</ele>
        <time>2026-03-12T15:54:36Z</time>
      </trkpt>
      <trkpt lat="48.72236" lon="7.33614">
        <ele>424.2</ele>
        <time>2026-03-12T15:54:41Z</time>
      </trkpt>
      <trkpt lat="48.7223" lon="7.33612">
        <ele>423.8</ele>
        <time>2026-03-12T15:54:46Z</time>
      </trkpt>
      <trkpt lat="48.72223" lon="7.3361">
        <ele>423.4</ele>
        <time>2026-03-12T15:54:51Z</time>
      </trkpt>
      <trkpt lat="48.72217" lon="7.33609">
        <ele>423</ele>
        <time>2026-03-12T15:54:56Z</time>
      </trkpt>
      <trkpt lat="48.72213" lon="7.33606">
        <ele>422.9</ele>
        <time>2026-03-12T15:55:01Z</time>
      </trkpt>
      <trkpt lat="48.72207" lon="7.33605">
        <ele>422.6</ele>
        <time>2026-03-12T15:55:06Z</time>
      </trkpt>
      <trkpt lat="48.72198" lon="7.33601">
        <ele>422.3</ele>
        <time>2026-03-12T15:55:11Z</time>
      </trkpt>
      <trkpt lat="48.72192" lon="7.33599">
        <ele>422.2</ele>
        <time>2026-03-12T15:55:16Z</time>
      </trkpt>
      <trkpt lat="48.72187" lon="7.33596">
        <ele>422.2</ele>
        <time>2026-03-12T15:55:21Z</time>
      </trkpt>
      <trkpt lat="48.7218" lon="7.33593">
        <ele>422.2</ele>
        <time>2026-03-12T15:55:26Z</time>
      </trkpt>
      <trkpt lat="48.72173" lon="7.3359">
        <ele>422.2</ele>
        <time>2026-03-12T15:55:31Z</time>
      </trkpt>
      <trkpt lat="48.72167" lon="7.33585">
        <ele>422.7</ele>
        <time>2026-03-12T15:55:36Z</time>
      </trkpt>
      <trkpt lat="48.72161" lon="7.33582">
        <ele>422.3</ele>
        <time>2026-03-12T15:55:41Z</time>
      </trkpt>
      <trkpt lat="48.72154" lon="7.33574">
        <ele>421.8</ele>
        <time>2026-03-12T15:55:46Z</time>
      </trkpt>
      <trkpt lat="48.72146" lon="7.33569">
        <ele>421.2</ele>
        <time>2026-03-12T15:55:51Z</time>
      </trkpt>
      <trkpt lat="48.72142" lon="7.33563">
        <ele>421.3</ele>
        <time>2026-03-12T15:55:56Z</time>
      </trkpt>
      <trkpt lat="48.72138" lon="7.33557">
        <ele>421.4</ele>
        <time>2026-03-12T15:56:01Z</time>
      </trkpt>
      <trkpt lat="48.72132" lon="7.33552">
        <ele>421.4</ele>
        <time>2026-03-12T15:56:06Z</time>
      </trkpt>
      <trkpt lat="48.72129" lon="7.33548">
        <ele>421.6</ele>
        <time>2026-03-12T15:56:11Z</time>
      </trkpt>
      <trkpt lat="48.72126" lon="7.33542">
        <ele>422</ele>
        <time>2026-03-12T15:56:16Z</time>
      </trkpt>
      <trkpt lat="48.72123" lon="7.33537">
        <ele>422.4</ele>
        <time>2026-03-12T15:56:21Z</time>
      </trkpt>
      <trkpt lat="48.72117" lon="7.33531">
        <ele>422.9</ele>
        <time>2026-03-12T15:56:26Z</time>
      </trkpt>
      <trkpt lat="48.72112" lon="7.33524">
        <ele>423.6</ele>
        <time>2026-03-12T15:56:31Z</time>
      </trkpt>
      <trkpt lat="48.72107" lon="7.33519">
        <ele>424.1</ele>
        <time>2026-03-12T15:56:36Z</time>
      </trkpt>
      <trkpt lat="48.72102" lon="7.33516">
        <ele>424.4</ele>
        <time>2026-03-12T15:56:41Z</time>
      </trkpt>
      <trkpt lat="48.72096" lon="7.33514">
        <ele>424.6</ele>
        <time>2026-03-12T15:56:46Z</time>
      </trkpt>
      <trkpt lat="48.7209" lon="7.33512">
        <ele>424.8</ele>
        <time>2026-03-12T15:56:51Z</time>
      </trkpt>
      <trkpt lat="48.72085" lon="7.33508">
        <ele>425.5</ele>
        <time>2026-03-12T15:56:56Z</time>
      </trkpt>
      <trkpt lat="48.7208" lon="7.33505">
        <ele>425.6</ele>
        <time>2026-03-12T15:57:01Z</time>
      </trkpt>
      <trkpt lat="48.72078" lon="7.33503">
        <ele>425.7</ele>
        <time>2026-03-12T15:57:06Z</time>
      </trkpt>
      <trkpt lat="48.72071" lon="7.33502">
        <ele>425</ele>
        <time>2026-03-12T15:57:11Z</time>
      </trkpt>
      <trkpt lat="48.72065" lon="7.33501">
        <ele>424.4</ele>
        <time>2026-03-12T15:57:16Z</time>
      </trkpt>
      <trkpt lat="48.72061" lon="7.33499">
        <ele>424.2</ele>
        <time>2026-03-12T15:57:21Z</time>
      </trkpt>
      <trkpt lat="48.72055" lon="7.33498">
        <ele>423.6</ele>
        <time>2026-03-12T15:57:26Z</time>
      </trkpt>
      <trkpt lat="48.7205" lon="7.33494">
        <ele>423.7</ele>
        <time>2026-03-12T15:57:31Z</time>
      </trkpt>
      <trkpt lat="48.72047" lon="7.33488">
        <ele>424.5</ele>
        <time>2026-03-12T15:57:36Z</time>
      </trkpt>
      <trkpt lat="48.72044" lon="7.33484">
        <ele>424.9</ele>
        <time>2026-03-12T15:57:41Z</time>
      </trkpt>
      <trkpt lat="48.72041" lon="7.33479">
        <ele>425.6</ele>
        <time>2026-03-12T15:57:46Z</time>
      </trkpt>
      <trkpt lat="48.72037" lon="7.33473">
        <ele>426.5</ele>
        <time>2026-03-12T15:57:51Z</time>
      </trkpt>
      <trkpt lat="48.72031" lon="7.33466">
        <ele>427.5</ele>
        <time>2026-03-12T15:57:56Z</time>
      </trkpt>
      <trkpt lat="48.72027" lon="7.33458">
        <ele>429</ele>
        <time>2026-03-12T15:58:01Z</time>
      </trkpt>
      <trkpt lat="48.72025" lon="7.33451">
        <ele>430.5</ele>
        <time>2026-03-12T15:58:06Z</time>
      </trkpt>
      <trkpt lat="48.72022" lon="7.33446">
        <ele>431.6</ele>
        <time>2026-03-12T15:58:11Z</time>
      </trkpt>
      <trkpt lat="48.72016" lon="7.33441">
        <ele>432.6</ele>
        <time>2026-03-12T15:58:16Z</time>
      </trkpt>
      <trkpt lat="48.72008" lon="7.33436">
        <ele>433.8</ele>
        <time>2026-03-12T15:58:21Z</time>
      </trkpt>
      <trkpt lat="48.72002" lon="7.33435">
        <ele>434</ele>
        <time>2026-03-12T15:58:26Z</time>
      </trkpt>
      <trkpt lat="48.71997" lon="7.33433">
        <ele>433.8</ele>
        <time>2026-03-12T15:58:31Z</time>
      </trkpt>
      <trkpt lat="48.71992" lon="7.33432">
        <ele>433</ele>
        <time>2026-03-12T15:58:36Z</time>
      </trkpt>
      <trkpt lat="48.71988" lon="7.33427">
        <ele>433.6</ele>
        <time>2026-03-12T15:58:41Z</time>
      </trkpt>
      <trkpt lat="48.71985" lon="7.3342">
        <ele>435</ele>
        <time>2026-03-12T15:58:46Z</time>
      </trkpt>
      <trkpt lat="48.7198" lon="7.33415">
        <ele>435.3</ele>
        <time>2026-03-12T15:58:51Z</time>
      </trkpt>
      <trkpt lat="48.71974" lon="7.33413">
        <ele>434.5</ele>
        <time>2026-03-12T15:58:56Z</time>
      </trkpt>
      <trkpt lat="48.71971" lon="7.33409">
        <ele>434.9</ele>
        <time>2026-03-12T15:59:01Z</time>
      </trkpt>
      <trkpt lat="48.71968" lon="7.33404">
        <ele>435.5</ele>
        <time>2026-03-12T15:59:06Z</time>
      </trkpt>
      <trkpt lat="48.71963" lon="7.33399">
        <ele>435.7</ele>
        <time>2026-03-12T15:59:11Z</time>
      </trkpt>
      <trkpt lat="48.71963" lon="7.33399">
        <ele>435.7</ele>
        <time>2026-03-12T15:59:16Z</time>
      </trkpt>
      <trkpt lat="48.71963" lon="7.33399">
        <ele>435.7</ele>
        <time>2026-03-12T15:59:21Z</time>
      </trkpt>
      <trkpt lat="48.71963" lon="7.33399">
        <ele>435.7</ele>
        <time>2026-03-12T15:59:26Z</time>
      </trkpt>
      <trkpt lat="48.71963" lon="7.33399">
        <ele>435.7</ele>
        <time>2026-03-12T15:59:31Z</time>
      </trkpt>
      <trkpt lat="48.7196" lon="7.334">
        <ele>434.9</ele>
        <time>2026-03-12T15:59:36Z</time>
      </trkpt>
      <trkpt lat="48.71955" lon="7.33394">
        <ele>435.5</ele>
        <time>2026-03-12T15:59:41Z</time>
      </trkpt>
      <trkpt lat="48.71951" lon="7.33391">
        <ele>435.5</ele>
        <time>2026-03-12T15:59:46Z</time>
      </trkpt>
      <trkpt lat="48.71948" lon="7.33387">
        <ele>436</ele>
        <time>2026-03-12T15:59:51Z</time>
      </trkpt>
      <trkpt lat="48.71945" lon="7.33383">
        <ele>436.5</ele>
        <time>2026-03-12T15:59:56Z</time>
      </trkpt>
      <trkpt lat="48.71943" lon="7.33378">
        <ele>437.5</ele>
        <time>2026-03-12T16:00:01Z</time>
      </trkpt>
      <trkpt lat="48.71944" lon="7.33374">
        <ele>438.7</ele>
        <time>2026-03-12T16:00:06Z</time>
      </trkpt>
      <trkpt lat="48.71941" lon="7.33371">
        <ele>439</ele>
        <time>2026-03-12T16:00:11Z</time>
      </trkpt>
      <trkpt lat="48.71941" lon="7.33371">
        <ele>439</ele>
        <time>2026-03-12T16:00:16Z</time>
      </trkpt>
      <trkpt lat="48.71941" lon="7.33371">
        <ele>439</ele>
        <time>2026-03-12T16:00:21Z</time>
      </trkpt>
      <trkpt lat="48.71941" lon="7.33371">
        <ele>439</ele>
        <time>2026-03-12T16:00:26Z</time>
      </trkpt>
      <trkpt lat="48.71932" lon="7.33361">
        <ele>440.3</ele>
        <time>2026-03-12T16:00:31Z</time>
      </trkpt>
      <trkpt lat="48.71932" lon="7.3336">
        <ele>440.6</ele>
        <time>2026-03-12T16:00:36Z</time>
      </trkpt>
      <trkpt lat="48.71926" lon="7.33352">
        <ele>441.9</ele>
        <time>2026-03-12T16:00:41Z</time>
      </trkpt>
      <trkpt lat="48.71926" lon="7.33352">
        <ele>441.9</ele>
        <time>2026-03-12T16:00:46Z</time>
      </trkpt>
      <trkpt lat="48.71926" lon="7.33352">
        <ele>441.9</ele>
        <time>2026-03-12T16:00:51Z</time>
      </trkpt>
      <trkpt lat="48.71926" lon="7.33352">
        <ele>441.9</ele>
        <time>2026-03-12T16:00:56Z</time>
      </trkpt>
      <trkpt lat="48.71918" lon="7.33339">
        <ele>444.5</ele>
        <time>2026-03-12T16:01:01Z</time>
      </trkpt>
      <trkpt lat="48.71917" lon="7.33338">
        <ele>444.7</ele>
        <time>2026-03-12T16:01:06Z</time>
      </trkpt>
      <trkpt lat="48.71917" lon="7.33338">
        <ele>444.7</ele>
        <time>2026-03-12T16:01:11Z</time>
      </trkpt>
      <trkpt lat="48.71917" lon="7.33338">
        <ele>444.7</ele>
        <time>2026-03-12T16:01:16Z</time>
      </trkpt>
      <trkpt lat="48.71917" lon="7.33338">
        <ele>444.7</ele>
        <time>2026-03-12T16:01:21Z</time>
      </trkpt>
      <trkpt lat="48.7191" lon="7.33324">
        <ele>446.5</ele>
        <time>2026-03-12T16:01:26Z</time>
      </trkpt>
      <trkpt lat="48.7191" lon="7.33324">
        <ele>446.5</ele>
        <time>2026-03-12T16:01:31Z</time>
      </trkpt>
      <trkpt lat="48.71902" lon="7.33319">
        <ele>445.9</ele>
        <time>2026-03-12T16:01:36Z</time>
      </trkpt>
      <trkpt lat="48.71901" lon="7.33315">
        <ele>446.5</ele>
        <time>2026-03-12T16:01:41Z</time>
      </trkpt>
      <trkpt lat="48.71901" lon="7.33315">
        <ele>446.5</ele>
        <time>2026-03-12T16:01:46Z</time>
      </trkpt>
      <trkpt lat="48.71901" lon="7.33315">
        <ele>446.5</ele>
        <time>2026-03-12T16:01:51Z</time>
      </trkpt>
      <trkpt lat="48.71896" lon="7.33303">
        <ele>447.8</ele>
        <time>2026-03-12T16:01:56Z</time>
      </trkpt>
      <trkpt lat="48.71896" lon="7.33306">
        <ele>447.2</ele>
        <time>2026-03-12T16:02:01Z</time>
      </trkpt>
      <trkpt lat="48.71905" lon="7.33319">
        <ele>446.5</ele>
        <time>2026-03-12T16:02:06Z</time>
      </trkpt>
      <trkpt lat="48.71905" lon="7.33315">
        <ele>447.3</ele>
        <time>2026-03-12T16:02:11Z</time>
      </trkpt>
      <trkpt lat="48.71902" lon="7.33307">
        <ele>448.3</ele>
        <time>2026-03-12T16:02:16Z</time>
      </trkpt>
      <trkpt lat="48.71899" lon="7.33303">
        <ele>448.4</ele>
        <time>2026-03-12T16:02:21Z</time>
      </trkpt>
      <trkpt lat="48.71897" lon="7.33299">
        <ele>448.8</ele>
        <time>2026-03-12T16:02:26Z</time>
      </trkpt>
      <trkpt lat="48.71893" lon="7.33298">
        <ele>448.1</ele>
        <time>2026-03-12T16:02:31Z</time>
      </trkpt>
      <trkpt lat="48.7189" lon="7.33297">
        <ele>447.7</ele>
        <time>2026-03-12T16:02:36Z</time>
      </trkpt>
      <trkpt lat="48.71888" lon="7.33295">
        <ele>447.7</ele>
        <time>2026-03-12T16:02:41Z</time>
      </trkpt>
      <trkpt lat="48.71882" lon="7.33297">
        <ele>446</ele>
        <time>2026-03-12T16:02:46Z</time>
      </trkpt>
      <trkpt lat="48.71879" lon="7.33301">
        <ele>444.6</ele>
        <time>2026-03-12T16:02:51Z</time>
      </trkpt>
      <trkpt lat="48.71879" lon="7.333">
        <ele>444.8</ele>
        <time>2026-03-12T16:02:56Z</time>
      </trkpt>
      <trkpt lat="48.71879" lon="7.333">
        <ele>444.8</ele>
        <time>2026-03-12T16:03:01Z</time>
      </trkpt>
      <trkpt lat="48.71879" lon="7.333">
        <ele>444.8</ele>
        <time>2026-03-12T16:03:06Z</time>
      </trkpt>
      <trkpt lat="48.71879" lon="7.333">
        <ele>444.8</ele>
        <time>2026-03-12T16:03:11Z</time>
      </trkpt>
      <trkpt lat="48.71878" lon="7.33285">
        <ele>447.4</ele>
        <time>2026-03-12T16:03:16Z</time>
      </trkpt>
      <trkpt lat="48.71878" lon="7.33285">
        <ele>447.4</ele>
        <time>2026-03-12T16:03:21Z</time>
      </trkpt>
      <trkpt lat="48.71878" lon="7.33285">
        <ele>447.4</ele>
        <time>2026-03-12T16:03:26Z</time>
      </trkpt>
      <trkpt lat="48.7188" lon="7.33281">
        <ele>448.6</ele>
        <time>2026-03-12T16:03:31Z</time>
      </trkpt>
      <trkpt lat="48.71878" lon="7.33279">
        <ele>448.6</ele>
        <time>2026-03-12T16:03:36Z</time>
      </trkpt>
      <trkpt lat="48.71876" lon="7.33275">
        <ele>448.9</ele>
        <time>2026-03-12T16:03:41Z</time>
      </trkpt>
      <trkpt lat="48.71874" lon="7.33273">
        <ele>448.9</ele>
        <time>2026-03-12T16:03:46Z</time>
      </trkpt>
      <trkpt lat="48.71874" lon="7.3327">
        <ele>449.4</ele>
        <time>2026-03-12T16:03:51Z</time>
      </trkpt>
      <trkpt lat="48.71873" lon="7.33268">
        <ele>449.6</ele>
        <time>2026-03-12T16:03:56Z</time>
      </trkpt>
      <trkpt lat="48.71869" lon="7.33265">
        <ele>449.3</ele>
        <time>2026-03-12T16:04:01Z</time>
      </trkpt>
      <trkpt lat="48.71866" lon="7.3326">
        <ele>449.6</ele>
        <time>2026-03-12T16:04:06Z</time>
      </trkpt>
      <trkpt lat="48.71862" lon="7.33258">
        <ele>449</ele>
        <time>2026-03-12T16:04:11Z</time>
      </trkpt>
      <trkpt lat="48.7186" lon="7.33255">
        <ele>449.1</ele>
        <time>2026-03-12T16:04:16Z</time>
      </trkpt>
      <trkpt lat="48.7186" lon="7.3325">
        <ele>450.1</ele>
        <time>2026-03-12T16:04:21Z</time>
      </trkpt>
      <trkpt lat="48.7186" lon="7.33247">
        <ele>450.1</ele>
        <time>2026-03-12T16:04:26Z</time>
      </trkpt>
      <trkpt lat="48.71859" lon="7.33247">
        <ele>449.8</ele>
        <time>2026-03-12T16:04:31Z</time>
      </trkpt>
      <trkpt lat="48.71859" lon="7.33247">
        <ele>449.8</ele>
        <time>2026-03-12T16:04:36Z</time>
      </trkpt>
      <trkpt lat="48.7186" lon="7.33264">
        <ele>447.5</ele>
        <time>2026-03-12T16:04:41Z</time>
      </trkpt>
      <trkpt lat="48.71859" lon="7.33268">
        <ele>446.5</ele>
        <time>2026-03-12T16:04:46Z</time>
      </trkpt>
      <trkpt lat="48.71857" lon="7.3327">
        <ele>445.7</ele>
        <time>2026-03-12T16:04:51Z</time>
      </trkpt>
      <trkpt lat="48.71857" lon="7.33271">
        <ele>445.5</ele>
        <time>2026-03-12T16:04:56Z</time>
      </trkpt>
      <trkpt lat="48.71857" lon="7.33271">
        <ele>445.5</ele>
        <time>2026-03-12T16:05:01Z</time>
      </trkpt>
      <trkpt lat="48.71857" lon="7.33271">
        <ele>445.5</ele>
        <time>2026-03-12T16:05:06Z</time>
      </trkpt>
      <trkpt lat="48.7186" lon="7.33259">
        <ele>448.4</ele>
        <time>2026-03-12T16:05:11Z</time>
      </trkpt>
      <trkpt lat="48.71862" lon="7.33254">
        <ele>449.8</ele>
        <time>2026-03-12T16:05:16Z</time>
      </trkpt>
      <trkpt lat="48.7186" lon="7.33248">
        <ele>450.1</ele>
        <time>2026-03-12T16:05:21Z</time>
      </trkpt>
      <trkpt lat="48.71857" lon="7.33241">
        <ele>449.4</ele>
        <time>2026-03-12T16:05:26Z</time>
      </trkpt>
      <trkpt lat="48.71858" lon="7.33234">
        <ele>449.6</ele>
        <time>2026-03-12T16:05:31Z</time>
      </trkpt>
      <trkpt lat="48.71858" lon="7.33227">
        <ele>449.5</ele>
        <time>2026-03-12T16:05:36Z</time>
      </trkpt>
      <trkpt lat="48.71858" lon="7.3322">
        <ele>449.5</ele>
        <time>2026-03-12T16:05:41Z</time>
      </trkpt>
      <trkpt lat="48.71861" lon="7.33215">
        <ele>450.2</ele>
        <time>2026-03-12T16:05:46Z</time>
      </trkpt>
      <trkpt lat="48.71865" lon="7.33217">
        <ele>451.1</ele>
        <time>2026-03-12T16:05:51Z</time>
      </trkpt>
      <trkpt lat="48.71866" lon="7.33222">
        <ele>451.3</ele>
        <time>2026-03-12T16:05:56Z</time>
      </trkpt>
      <trkpt lat="48.71867" lon="7.33224">
        <ele>451.5</ele>
        <time>2026-03-12T16:06:01Z</time>
      </trkpt>
      <trkpt lat="48.71867" lon="7.33224">
        <ele>451.5</ele>
        <time>2026-03-12T16:06:06Z</time>
      </trkpt>
      <trkpt lat="48.71872" lon="7.33224">
        <ele>452.7</ele>
        <time>2026-03-12T16:06:11Z</time>
      </trkpt>
      <trkpt lat="48.71876" lon="7.33224">
        <ele>453.6</ele>
        <time>2026-03-12T16:06:16Z</time>
      </trkpt>
      <trkpt lat="48.71879" lon="7.33223">
        <ele>454.2</ele>
        <time>2026-03-12T16:06:21Z</time>
      </trkpt>
      <trkpt lat="48.71883" lon="7.33222">
        <ele>455.1</ele>
        <time>2026-03-12T16:06:26Z</time>
      </trkpt>
      <trkpt lat="48.71884" lon="7.33221">
        <ele>455.3</ele>
        <time>2026-03-12T16:06:31Z</time>
      </trkpt>
      <trkpt lat="48.71886" lon="7.33221">
        <ele>455.8</ele>
        <time>2026-03-12T16:06:36Z</time>
      </trkpt>
      <trkpt lat="48.71886" lon="7.33221">
        <ele>455.8</ele>
        <time>2026-03-12T16:06:41Z</time>
      </trkpt>
      <trkpt lat="48.71886" lon="7.33221">
        <ele>455.8</ele>
        <time>2026-03-12T16:06:46Z</time>
      </trkpt>
      <trkpt lat="48.71883" lon="7.33218">
        <ele>455.1</ele>
        <time>2026-03-12T16:06:51Z</time>
      </trkpt>
      <trkpt lat="48.71875" lon="7.33222">
        <ele>453.3</ele>
        <time>2026-03-12T16:06:56Z</time>
      </trkpt>
      <trkpt lat="48.7187" lon="7.33222">
        <ele>452.2</ele>
        <time>2026-03-12T16:07:01Z</time>
      </trkpt>
      <trkpt lat="48.71869" lon="7.33222">
        <ele>452</ele>
        <time>2026-03-12T16:07:06Z</time>
      </trkpt>
      <trkpt lat="48.71867" lon="7.3322">
        <ele>451.5</ele>
        <time>2026-03-12T16:07:11Z</time>
      </trkpt>
      <trkpt lat="48.71863" lon="7.33219">
        <ele>450.6</ele>
        <time>2026-03-12T16:07:16Z</time>
      </trkpt>
      <trkpt lat="48.71858" lon="7.33215">
        <ele>449.5</ele>
        <time>2026-03-12T16:07:21Z</time>
      </trkpt>
      <trkpt lat="48.71854" lon="7.33214">
        <ele>448.6</ele>
        <time>2026-03-12T16:07:26Z</time>
      </trkpt>
    </trkseg>
  </trk>
</gpx>